<?xml version="1.0" encoding="UTF-8" standalone="no" ?>
<gpx xmlns="http://www.topografix.com/GPX/1/1" xmlns:xsi="http://www.w3.org/2001/XMLSchema-instance" xsi:schemaLocation="http://www.topografix.com/GPX/1/1 http://www.topografix.com/GPX/1/1/gpx.xsd" version="1.1" creator="VisuGPX - https://www.visugpx.com">
  <metadata>
    <name>BREVET DE 200KMS AVRIL 2018</name>
    <desc><![CDATA[BREVET DE 200KMS CCR DU 28 AVRIL 2018 ETIENNE DUGOIS]]></desc>
  </metadata>
  <trk>
    <name><![CDATA[7291092-BRM 200 km 2018]]></name>
    <trkseg>
      <trkpt lat="49.2418" lon="4.03612">
        <ele>81</ele>
        <time>2018-03-28T17:33:10Z</time>
      </trkpt>
      <trkpt lat="49.24179" lon="4.03605">
        <ele>80</ele>
        <time>2018-03-28T17:34:10Z</time>
      </trkpt>
      <trkpt lat="49.24179" lon="4.03605">
        <ele>80</ele>
        <time>2018-03-28T17:35:10Z</time>
      </trkpt>
      <trkpt lat="49.24176" lon="4.03593">
        <ele>80</ele>
        <time>2018-03-28T17:36:10Z</time>
      </trkpt>
      <trkpt lat="49.24175" lon="4.03592">
        <ele>80</ele>
        <time>2018-03-28T17:37:10Z</time>
      </trkpt>
      <trkpt lat="49.24172" lon="4.0358">
        <ele>80</ele>
        <time>2018-03-28T17:38:10Z</time>
      </trkpt>
      <trkpt lat="49.24123" lon="4.03634">
        <ele>80</ele>
        <time>2018-03-28T17:39:10Z</time>
      </trkpt>
      <trkpt lat="49.24075" lon="4.03688">
        <ele>81</ele>
        <time>2018-03-28T17:40:10Z</time>
      </trkpt>
      <trkpt lat="49.2407" lon="4.03696">
        <ele>81</ele>
        <time>2018-03-28T17:41:10Z</time>
      </trkpt>
      <trkpt lat="49.24065" lon="4.03709">
        <ele>81</ele>
        <time>2018-03-28T17:42:10Z</time>
      </trkpt>
      <trkpt lat="49.24038" lon="4.03737">
        <ele>82</ele>
        <time>2018-03-28T17:43:10Z</time>
      </trkpt>
      <trkpt lat="49.24025" lon="4.03751">
        <ele>82</ele>
        <time>2018-03-28T17:44:10Z</time>
      </trkpt>
      <trkpt lat="49.24014" lon="4.03762">
        <ele>82</ele>
        <time>2018-03-28T17:45:10Z</time>
      </trkpt>
      <trkpt lat="49.24006" lon="4.03772">
        <ele>82</ele>
        <time>2018-03-28T17:46:10Z</time>
      </trkpt>
      <trkpt lat="49.23968" lon="4.03812">
        <ele>82</ele>
        <time>2018-03-28T17:47:10Z</time>
      </trkpt>
      <trkpt lat="49.23949" lon="4.03832">
        <ele>82</ele>
        <time>2018-03-28T17:48:10Z</time>
      </trkpt>
      <trkpt lat="49.23941" lon="4.03841">
        <ele>82</ele>
        <time>2018-03-28T17:49:10Z</time>
      </trkpt>
      <trkpt lat="49.23941" lon="4.03841">
        <ele>82</ele>
        <time>2018-03-28T17:50:10Z</time>
      </trkpt>
      <trkpt lat="49.2392" lon="4.03862">
        <ele>82</ele>
        <time>2018-03-28T17:51:10Z</time>
      </trkpt>
      <trkpt lat="49.239" lon="4.03883">
        <ele>82</ele>
        <time>2018-03-28T17:52:10Z</time>
      </trkpt>
      <trkpt lat="49.23893" lon="4.0389">
        <ele>82</ele>
        <time>2018-03-28T17:53:10Z</time>
      </trkpt>
      <trkpt lat="49.23886" lon="4.03898">
        <ele>81</ele>
        <time>2018-03-28T17:54:10Z</time>
      </trkpt>
      <trkpt lat="49.23879" lon="4.03905">
        <ele>81</ele>
        <time>2018-03-28T17:55:10Z</time>
      </trkpt>
      <trkpt lat="49.23859" lon="4.03925">
        <ele>81</ele>
        <time>2018-03-28T17:56:10Z</time>
      </trkpt>
      <trkpt lat="49.23812" lon="4.03972">
        <ele>82</ele>
        <time>2018-03-28T17:57:10Z</time>
      </trkpt>
      <trkpt lat="49.2381" lon="4.03975">
        <ele>82</ele>
        <time>2018-03-28T17:58:10Z</time>
      </trkpt>
      <trkpt lat="49.23803" lon="4.03981">
        <ele>82</ele>
        <time>2018-03-28T17:59:10Z</time>
      </trkpt>
      <trkpt lat="49.23802" lon="4.03982">
        <ele>82</ele>
        <time>2018-03-28T18:00:10Z</time>
      </trkpt>
      <trkpt lat="49.23784" lon="4.03999">
        <ele>82</ele>
        <time>2018-03-28T18:01:10Z</time>
      </trkpt>
      <trkpt lat="49.23782" lon="4.04002">
        <ele>82</ele>
        <time>2018-03-28T18:02:10Z</time>
      </trkpt>
      <trkpt lat="49.23753" lon="4.0403">
        <ele>82</ele>
        <time>2018-03-28T18:03:10Z</time>
      </trkpt>
      <trkpt lat="49.23744" lon="4.04039">
        <ele>82</ele>
        <time>2018-03-28T18:04:10Z</time>
      </trkpt>
      <trkpt lat="49.23732" lon="4.04052">
        <ele>82</ele>
        <time>2018-03-28T18:05:10Z</time>
      </trkpt>
      <trkpt lat="49.23724" lon="4.04059">
        <ele>82</ele>
        <time>2018-03-28T18:06:10Z</time>
      </trkpt>
      <trkpt lat="49.23684" lon="4.041">
        <ele>82</ele>
        <time>2018-03-28T18:07:10Z</time>
      </trkpt>
      <trkpt lat="49.23631" lon="4.04159">
        <ele>82</ele>
        <time>2018-03-28T18:08:10Z</time>
      </trkpt>
      <trkpt lat="49.23617" lon="4.04175">
        <ele>82</ele>
        <time>2018-03-28T18:09:10Z</time>
      </trkpt>
      <trkpt lat="49.23592" lon="4.04202">
        <ele>83</ele>
        <time>2018-03-28T18:10:10Z</time>
      </trkpt>
      <trkpt lat="49.23561" lon="4.04236">
        <ele>84</ele>
        <time>2018-03-28T18:11:10Z</time>
      </trkpt>
      <trkpt lat="49.2355" lon="4.04249">
        <ele>84</ele>
        <time>2018-03-28T18:12:10Z</time>
      </trkpt>
      <trkpt lat="49.23517" lon="4.04286">
        <ele>84</ele>
        <time>2018-03-28T18:13:10Z</time>
      </trkpt>
      <trkpt lat="49.23501" lon="4.04305">
        <ele>84</ele>
        <time>2018-03-28T18:14:10Z</time>
      </trkpt>
      <trkpt lat="49.23491" lon="4.04318">
        <ele>84</ele>
        <time>2018-03-28T18:15:10Z</time>
      </trkpt>
      <trkpt lat="49.23482" lon="4.0433">
        <ele>83</ele>
        <time>2018-03-28T18:16:10Z</time>
      </trkpt>
      <trkpt lat="49.23481" lon="4.04331">
        <ele>83</ele>
        <time>2018-03-28T18:17:10Z</time>
      </trkpt>
      <trkpt lat="49.23466" lon="4.04353">
        <ele>83</ele>
        <time>2018-03-28T18:18:10Z</time>
      </trkpt>
      <trkpt lat="49.23457" lon="4.04368">
        <ele>83</ele>
        <time>2018-03-28T18:19:10Z</time>
      </trkpt>
      <trkpt lat="49.23443" lon="4.04392">
        <ele>83</ele>
        <time>2018-03-28T18:20:10Z</time>
      </trkpt>
      <trkpt lat="49.23428" lon="4.04419">
        <ele>83</ele>
        <time>2018-03-28T18:21:10Z</time>
      </trkpt>
      <trkpt lat="49.23413" lon="4.04451">
        <ele>81</ele>
        <time>2018-03-28T18:22:10Z</time>
      </trkpt>
      <trkpt lat="49.23401" lon="4.04481">
        <ele>80</ele>
        <time>2018-03-28T18:23:10Z</time>
      </trkpt>
      <trkpt lat="49.23393" lon="4.04503">
        <ele>80</ele>
        <time>2018-03-28T18:24:10Z</time>
      </trkpt>
      <trkpt lat="49.23388" lon="4.04518">
        <ele>80</ele>
        <time>2018-03-28T18:25:10Z</time>
      </trkpt>
      <trkpt lat="49.23377" lon="4.04552">
        <ele>80</ele>
        <time>2018-03-28T18:26:10Z</time>
      </trkpt>
      <trkpt lat="49.23374" lon="4.04565">
        <ele>80</ele>
        <time>2018-03-28T18:27:10Z</time>
      </trkpt>
      <trkpt lat="49.23366" lon="4.04594">
        <ele>80</ele>
        <time>2018-03-28T18:28:10Z</time>
      </trkpt>
      <trkpt lat="49.23341" lon="4.04694">
        <ele>84</ele>
        <time>2018-03-28T18:29:10Z</time>
      </trkpt>
      <trkpt lat="49.23334" lon="4.04722">
        <ele>84</ele>
        <time>2018-03-28T18:30:10Z</time>
      </trkpt>
      <trkpt lat="49.23323" lon="4.04772">
        <ele>85</ele>
        <time>2018-03-28T18:31:10Z</time>
      </trkpt>
      <trkpt lat="49.23318" lon="4.04803">
        <ele>84</ele>
        <time>2018-03-28T18:32:10Z</time>
      </trkpt>
      <trkpt lat="49.23312" lon="4.04848">
        <ele>84</ele>
        <time>2018-03-28T18:33:10Z</time>
      </trkpt>
      <trkpt lat="49.23309" lon="4.04868">
        <ele>84</ele>
        <time>2018-03-28T18:34:10Z</time>
      </trkpt>
      <trkpt lat="49.23256" lon="4.05048">
        <ele>86</ele>
        <time>2018-03-28T18:35:10Z</time>
      </trkpt>
      <trkpt lat="49.23248" lon="4.05075">
        <ele>87</ele>
        <time>2018-03-28T18:36:10Z</time>
      </trkpt>
      <trkpt lat="49.23196" lon="4.05278">
        <ele>85</ele>
        <time>2018-03-28T18:37:10Z</time>
      </trkpt>
      <trkpt lat="49.23178" lon="4.05349">
        <ele>85</ele>
        <time>2018-03-28T18:38:10Z</time>
      </trkpt>
      <trkpt lat="49.23133" lon="4.05522">
        <ele>85</ele>
        <time>2018-03-28T18:39:10Z</time>
      </trkpt>
      <trkpt lat="49.23092" lon="4.05684">
        <ele>86</ele>
        <time>2018-03-28T18:40:10Z</time>
      </trkpt>
      <trkpt lat="49.23039" lon="4.05924">
        <ele>84</ele>
        <time>2018-03-28T18:41:10Z</time>
      </trkpt>
      <trkpt lat="49.23035" lon="4.0593">
        <ele>84</ele>
        <time>2018-03-28T18:42:10Z</time>
      </trkpt>
      <trkpt lat="49.23014" lon="4.06024">
        <ele>86</ele>
        <time>2018-03-28T18:43:10Z</time>
      </trkpt>
      <trkpt lat="49.23009" lon="4.06045">
        <ele>86</ele>
        <time>2018-03-28T18:44:10Z</time>
      </trkpt>
      <trkpt lat="49.22994" lon="4.06113">
        <ele>87</ele>
        <time>2018-03-28T18:45:10Z</time>
      </trkpt>
      <trkpt lat="49.22994" lon="4.06113">
        <ele>87</ele>
        <time>2018-03-28T18:46:10Z</time>
      </trkpt>
      <trkpt lat="49.22985" lon="4.06152">
        <ele>86</ele>
        <time>2018-03-28T18:47:10Z</time>
      </trkpt>
      <trkpt lat="49.22953" lon="4.06321">
        <ele>85</ele>
        <time>2018-03-28T18:48:10Z</time>
      </trkpt>
      <trkpt lat="49.22942" lon="4.0638">
        <ele>85</ele>
        <time>2018-03-28T18:49:10Z</time>
      </trkpt>
      <trkpt lat="49.22939" lon="4.06396">
        <ele>85</ele>
        <time>2018-03-28T18:50:10Z</time>
      </trkpt>
      <trkpt lat="49.22939" lon="4.06419">
        <ele>86</ele>
        <time>2018-03-28T18:51:10Z</time>
      </trkpt>
      <trkpt lat="49.22938" lon="4.06428">
        <ele>86</ele>
        <time>2018-03-28T18:52:10Z</time>
      </trkpt>
      <trkpt lat="49.22941" lon="4.06474">
        <ele>86</ele>
        <time>2018-03-28T18:53:10Z</time>
      </trkpt>
      <trkpt lat="49.22943" lon="4.06493">
        <ele>86</ele>
        <time>2018-03-28T18:54:10Z</time>
      </trkpt>
      <trkpt lat="49.22946" lon="4.06503">
        <ele>86</ele>
        <time>2018-03-28T18:55:10Z</time>
      </trkpt>
      <trkpt lat="49.22949" lon="4.06518">
        <ele>86</ele>
        <time>2018-03-28T18:56:10Z</time>
      </trkpt>
      <trkpt lat="49.22961" lon="4.06559">
        <ele>86</ele>
        <time>2018-03-28T18:57:10Z</time>
      </trkpt>
      <trkpt lat="49.22988" lon="4.0663">
        <ele>87</ele>
        <time>2018-03-28T18:58:10Z</time>
      </trkpt>
      <trkpt lat="49.22997" lon="4.06657">
        <ele>87</ele>
        <time>2018-03-28T18:59:10Z</time>
      </trkpt>
      <trkpt lat="49.23002" lon="4.06676">
        <ele>87</ele>
        <time>2018-03-28T19:00:10Z</time>
      </trkpt>
      <trkpt lat="49.23006" lon="4.06703">
        <ele>88</ele>
        <time>2018-03-28T19:01:10Z</time>
      </trkpt>
      <trkpt lat="49.23009" lon="4.06729">
        <ele>88</ele>
        <time>2018-03-28T19:02:10Z</time>
      </trkpt>
      <trkpt lat="49.2301" lon="4.06759">
        <ele>88</ele>
        <time>2018-03-28T19:03:10Z</time>
      </trkpt>
      <trkpt lat="49.23009" lon="4.06779">
        <ele>88</ele>
        <time>2018-03-28T19:04:10Z</time>
      </trkpt>
      <trkpt lat="49.23006" lon="4.06812">
        <ele>87</ele>
        <time>2018-03-28T19:05:10Z</time>
      </trkpt>
      <trkpt lat="49.23004" lon="4.06819">
        <ele>87</ele>
        <time>2018-03-28T19:06:10Z</time>
      </trkpt>
      <trkpt lat="49.23002" lon="4.0683">
        <ele>87</ele>
        <time>2018-03-28T19:07:10Z</time>
      </trkpt>
      <trkpt lat="49.22998" lon="4.06846">
        <ele>87</ele>
        <time>2018-03-28T19:08:10Z</time>
      </trkpt>
      <trkpt lat="49.22998" lon="4.06849">
        <ele>87</ele>
        <time>2018-03-28T19:09:10Z</time>
      </trkpt>
      <trkpt lat="49.22997" lon="4.06852">
        <ele>87</ele>
        <time>2018-03-28T19:10:10Z</time>
      </trkpt>
      <trkpt lat="49.22993" lon="4.06867">
        <ele>86</ele>
        <time>2018-03-28T19:11:10Z</time>
      </trkpt>
      <trkpt lat="49.2299" lon="4.06891">
        <ele>86</ele>
        <time>2018-03-28T19:12:10Z</time>
      </trkpt>
      <trkpt lat="49.22987" lon="4.06932">
        <ele>86</ele>
        <time>2018-03-28T19:13:10Z</time>
      </trkpt>
      <trkpt lat="49.22987" lon="4.06973">
        <ele>85</ele>
        <time>2018-03-28T19:14:10Z</time>
      </trkpt>
      <trkpt lat="49.22989" lon="4.07007">
        <ele>85</ele>
        <time>2018-03-28T19:15:10Z</time>
      </trkpt>
      <trkpt lat="49.22994" lon="4.07068">
        <ele>86</ele>
        <time>2018-03-28T19:16:10Z</time>
      </trkpt>
      <trkpt lat="49.22996" lon="4.07088">
        <ele>86</ele>
        <time>2018-03-28T19:17:10Z</time>
      </trkpt>
      <trkpt lat="49.22997" lon="4.07133">
        <ele>87</ele>
        <time>2018-03-28T19:18:10Z</time>
      </trkpt>
      <trkpt lat="49.22997" lon="4.07148">
        <ele>87</ele>
        <time>2018-03-28T19:19:10Z</time>
      </trkpt>
      <trkpt lat="49.22998" lon="4.07161">
        <ele>87</ele>
        <time>2018-03-28T19:20:10Z</time>
      </trkpt>
      <trkpt lat="49.22998" lon="4.07161">
        <ele>87</ele>
        <time>2018-03-28T19:21:10Z</time>
      </trkpt>
      <trkpt lat="49.22996" lon="4.07165">
        <ele>87</ele>
        <time>2018-03-28T19:22:10Z</time>
      </trkpt>
      <trkpt lat="49.22994" lon="4.07171">
        <ele>87</ele>
        <time>2018-03-28T19:23:10Z</time>
      </trkpt>
      <trkpt lat="49.22993" lon="4.07179">
        <ele>87</ele>
        <time>2018-03-28T19:24:10Z</time>
      </trkpt>
      <trkpt lat="49.22993" lon="4.07184">
        <ele>87</ele>
        <time>2018-03-28T19:25:10Z</time>
      </trkpt>
      <trkpt lat="49.22994" lon="4.07189">
        <ele>87</ele>
        <time>2018-03-28T19:26:10Z</time>
      </trkpt>
      <trkpt lat="49.22995" lon="4.07194">
        <ele>87</ele>
        <time>2018-03-28T19:27:10Z</time>
      </trkpt>
      <trkpt lat="49.22996" lon="4.07196">
        <ele>87</ele>
        <time>2018-03-28T19:28:10Z</time>
      </trkpt>
      <trkpt lat="49.22997" lon="4.07199">
        <ele>87</ele>
        <time>2018-03-28T19:29:10Z</time>
      </trkpt>
      <trkpt lat="49.23" lon="4.07202">
        <ele>87</ele>
        <time>2018-03-28T19:30:10Z</time>
      </trkpt>
      <trkpt lat="49.23002" lon="4.07206">
        <ele>87</ele>
        <time>2018-03-28T19:31:10Z</time>
      </trkpt>
      <trkpt lat="49.2301" lon="4.07272">
        <ele>87</ele>
        <time>2018-03-28T19:32:10Z</time>
      </trkpt>
      <trkpt lat="49.23009" lon="4.07298">
        <ele>87</ele>
        <time>2018-03-28T19:33:10Z</time>
      </trkpt>
      <trkpt lat="49.23007" lon="4.07323">
        <ele>87</ele>
        <time>2018-03-28T19:34:10Z</time>
      </trkpt>
      <trkpt lat="49.23004" lon="4.07343">
        <ele>87</ele>
        <time>2018-03-28T19:35:10Z</time>
      </trkpt>
      <trkpt lat="49.22998" lon="4.0737">
        <ele>87</ele>
        <time>2018-03-28T19:36:10Z</time>
      </trkpt>
      <trkpt lat="49.22982" lon="4.07436">
        <ele>88</ele>
        <time>2018-03-28T19:37:10Z</time>
      </trkpt>
      <trkpt lat="49.22931" lon="4.07599">
        <ele>86</ele>
        <time>2018-03-28T19:38:10Z</time>
      </trkpt>
      <trkpt lat="49.22894" lon="4.07721">
        <ele>87</ele>
        <time>2018-03-28T19:39:10Z</time>
      </trkpt>
      <trkpt lat="49.22863" lon="4.07819">
        <ele>86</ele>
        <time>2018-03-28T19:40:10Z</time>
      </trkpt>
      <trkpt lat="49.22839" lon="4.07898">
        <ele>85</ele>
        <time>2018-03-28T19:41:10Z</time>
      </trkpt>
      <trkpt lat="49.2282" lon="4.07958">
        <ele>86</ele>
        <time>2018-03-28T19:42:10Z</time>
      </trkpt>
      <trkpt lat="49.22789" lon="4.0806">
        <ele>86</ele>
        <time>2018-03-28T19:43:10Z</time>
      </trkpt>
      <trkpt lat="49.22718" lon="4.08289">
        <ele>86</ele>
        <time>2018-03-28T19:44:10Z</time>
      </trkpt>
      <trkpt lat="49.22711" lon="4.08311">
        <ele>86</ele>
        <time>2018-03-28T19:45:10Z</time>
      </trkpt>
      <trkpt lat="49.22693" lon="4.08358">
        <ele>86</ele>
        <time>2018-03-28T19:46:10Z</time>
      </trkpt>
      <trkpt lat="49.22669" lon="4.08445">
        <ele>85</ele>
        <time>2018-03-28T19:47:10Z</time>
      </trkpt>
      <trkpt lat="49.22666" lon="4.08472">
        <ele>85</ele>
        <time>2018-03-28T19:48:10Z</time>
      </trkpt>
      <trkpt lat="49.22664" lon="4.08494">
        <ele>85</ele>
        <time>2018-03-28T19:49:10Z</time>
      </trkpt>
      <trkpt lat="49.22663" lon="4.08512">
        <ele>85</ele>
        <time>2018-03-28T19:50:10Z</time>
      </trkpt>
      <trkpt lat="49.22665" lon="4.08526">
        <ele>85</ele>
        <time>2018-03-28T19:51:10Z</time>
      </trkpt>
      <trkpt lat="49.22665" lon="4.08526">
        <ele>85</ele>
        <time>2018-03-28T19:52:10Z</time>
      </trkpt>
      <trkpt lat="49.22664" lon="4.08527">
        <ele>85</ele>
        <time>2018-03-28T19:53:10Z</time>
      </trkpt>
      <trkpt lat="49.22664" lon="4.08528">
        <ele>85</ele>
        <time>2018-03-28T19:54:10Z</time>
      </trkpt>
      <trkpt lat="49.22663" lon="4.08528">
        <ele>85</ele>
        <time>2018-03-28T19:55:10Z</time>
      </trkpt>
      <trkpt lat="49.22663" lon="4.08529">
        <ele>85</ele>
        <time>2018-03-28T19:56:10Z</time>
      </trkpt>
      <trkpt lat="49.22663" lon="4.0853">
        <ele>85</ele>
        <time>2018-03-28T19:57:10Z</time>
      </trkpt>
      <trkpt lat="49.22662" lon="4.0853">
        <ele>85</ele>
        <time>2018-03-28T19:58:10Z</time>
      </trkpt>
      <trkpt lat="49.22662" lon="4.08531">
        <ele>85</ele>
        <time>2018-03-28T19:59:10Z</time>
      </trkpt>
      <trkpt lat="49.22662" lon="4.08532">
        <ele>85</ele>
        <time>2018-03-28T20:00:10Z</time>
      </trkpt>
      <trkpt lat="49.22662" lon="4.08533">
        <ele>85</ele>
        <time>2018-03-28T20:01:10Z</time>
      </trkpt>
      <trkpt lat="49.22661" lon="4.08534">
        <ele>85</ele>
        <time>2018-03-28T20:02:10Z</time>
      </trkpt>
      <trkpt lat="49.22661" lon="4.08535">
        <ele>85</ele>
        <time>2018-03-28T20:03:10Z</time>
      </trkpt>
      <trkpt lat="49.22661" lon="4.08536">
        <ele>85</ele>
        <time>2018-03-28T20:04:10Z</time>
      </trkpt>
      <trkpt lat="49.22661" lon="4.08537">
        <ele>85</ele>
        <time>2018-03-28T20:05:10Z</time>
      </trkpt>
      <trkpt lat="49.22661" lon="4.08538">
        <ele>85</ele>
        <time>2018-03-28T20:06:10Z</time>
      </trkpt>
      <trkpt lat="49.22661" lon="4.08539">
        <ele>85</ele>
        <time>2018-03-28T20:07:10Z</time>
      </trkpt>
      <trkpt lat="49.22662" lon="4.0854">
        <ele>85</ele>
        <time>2018-03-28T20:08:10Z</time>
      </trkpt>
      <trkpt lat="49.22662" lon="4.08541">
        <ele>85</ele>
        <time>2018-03-28T20:09:10Z</time>
      </trkpt>
      <trkpt lat="49.22662" lon="4.08542">
        <ele>85</ele>
        <time>2018-03-28T20:10:10Z</time>
      </trkpt>
      <trkpt lat="49.22662" lon="4.08543">
        <ele>85</ele>
        <time>2018-03-28T20:11:10Z</time>
      </trkpt>
      <trkpt lat="49.2266" lon="4.08557">
        <ele>85</ele>
        <time>2018-03-28T20:12:10Z</time>
      </trkpt>
      <trkpt lat="49.22658" lon="4.0857">
        <ele>85</ele>
        <time>2018-03-28T20:13:10Z</time>
      </trkpt>
      <trkpt lat="49.22657" lon="4.08583">
        <ele>85</ele>
        <time>2018-03-28T20:14:10Z</time>
      </trkpt>
      <trkpt lat="49.22656" lon="4.08599">
        <ele>85</ele>
        <time>2018-03-28T20:15:10Z</time>
      </trkpt>
      <trkpt lat="49.22655" lon="4.08613">
        <ele>85</ele>
        <time>2018-03-28T20:16:10Z</time>
      </trkpt>
      <trkpt lat="49.22655" lon="4.0863">
        <ele>85</ele>
        <time>2018-03-28T20:17:10Z</time>
      </trkpt>
      <trkpt lat="49.22655" lon="4.08678">
        <ele>86</ele>
        <time>2018-03-28T20:18:10Z</time>
      </trkpt>
      <trkpt lat="49.22655" lon="4.08684">
        <ele>86</ele>
        <time>2018-03-28T20:19:10Z</time>
      </trkpt>
      <trkpt lat="49.22655" lon="4.08725">
        <ele>87</ele>
        <time>2018-03-28T20:20:10Z</time>
      </trkpt>
      <trkpt lat="49.22657" lon="4.08788">
        <ele>87</ele>
        <time>2018-03-28T20:21:10Z</time>
      </trkpt>
      <trkpt lat="49.22657" lon="4.08851">
        <ele>87</ele>
        <time>2018-03-28T20:22:10Z</time>
      </trkpt>
      <trkpt lat="49.2266" lon="4.08887">
        <ele>87</ele>
        <time>2018-03-28T20:23:10Z</time>
      </trkpt>
      <trkpt lat="49.22661" lon="4.08899">
        <ele>87</ele>
        <time>2018-03-28T20:24:10Z</time>
      </trkpt>
      <trkpt lat="49.22659" lon="4.08995">
        <ele>87</ele>
        <time>2018-03-28T20:25:10Z</time>
      </trkpt>
      <trkpt lat="49.22657" lon="4.0908">
        <ele>87</ele>
        <time>2018-03-28T20:26:10Z</time>
      </trkpt>
      <trkpt lat="49.22657" lon="4.09084">
        <ele>87</ele>
        <time>2018-03-28T20:27:10Z</time>
      </trkpt>
      <trkpt lat="49.22655" lon="4.09105">
        <ele>87</ele>
        <time>2018-03-28T20:28:10Z</time>
      </trkpt>
      <trkpt lat="49.22652" lon="4.09129">
        <ele>88</ele>
        <time>2018-03-28T20:29:10Z</time>
      </trkpt>
      <trkpt lat="49.22648" lon="4.09148">
        <ele>88</ele>
        <time>2018-03-28T20:30:10Z</time>
      </trkpt>
      <trkpt lat="49.22641" lon="4.09175">
        <ele>89</ele>
        <time>2018-03-28T20:31:10Z</time>
      </trkpt>
      <trkpt lat="49.22609" lon="4.09279">
        <ele>88</ele>
        <time>2018-03-28T20:32:10Z</time>
      </trkpt>
      <trkpt lat="49.22571" lon="4.09406">
        <ele>88</ele>
        <time>2018-03-28T20:33:10Z</time>
      </trkpt>
      <trkpt lat="49.22538" lon="4.09516">
        <ele>86</ele>
        <time>2018-03-28T20:34:10Z</time>
      </trkpt>
      <trkpt lat="49.22526" lon="4.09557">
        <ele>85</ele>
        <time>2018-03-28T20:35:10Z</time>
      </trkpt>
      <trkpt lat="49.22519" lon="4.09579">
        <ele>85</ele>
        <time>2018-03-28T20:36:10Z</time>
      </trkpt>
      <trkpt lat="49.22516" lon="4.09591">
        <ele>85</ele>
        <time>2018-03-28T20:37:10Z</time>
      </trkpt>
      <trkpt lat="49.22511" lon="4.0961">
        <ele>85</ele>
        <time>2018-03-28T20:38:10Z</time>
      </trkpt>
      <trkpt lat="49.22506" lon="4.09623">
        <ele>86</ele>
        <time>2018-03-28T20:39:10Z</time>
      </trkpt>
      <trkpt lat="49.22502" lon="4.09634">
        <ele>86</ele>
        <time>2018-03-28T20:40:10Z</time>
      </trkpt>
      <trkpt lat="49.22496" lon="4.09646">
        <ele>86</ele>
        <time>2018-03-28T20:41:10Z</time>
      </trkpt>
      <trkpt lat="49.22492" lon="4.09654">
        <ele>86</ele>
        <time>2018-03-28T20:42:10Z</time>
      </trkpt>
      <trkpt lat="49.22492" lon="4.09654">
        <ele>86</ele>
        <time>2018-03-28T20:43:10Z</time>
      </trkpt>
      <trkpt lat="49.2249" lon="4.09654">
        <ele>86</ele>
        <time>2018-03-28T20:44:10Z</time>
      </trkpt>
      <trkpt lat="49.22489" lon="4.09654">
        <ele>86</ele>
        <time>2018-03-28T20:45:10Z</time>
      </trkpt>
      <trkpt lat="49.22488" lon="4.09654">
        <ele>86</ele>
        <time>2018-03-28T20:46:10Z</time>
      </trkpt>
      <trkpt lat="49.22487" lon="4.09655">
        <ele>86</ele>
        <time>2018-03-28T20:47:10Z</time>
      </trkpt>
      <trkpt lat="49.22486" lon="4.09656">
        <ele>86</ele>
        <time>2018-03-28T20:48:10Z</time>
      </trkpt>
      <trkpt lat="49.22485" lon="4.09657">
        <ele>86</ele>
        <time>2018-03-28T20:49:10Z</time>
      </trkpt>
      <trkpt lat="49.22466" lon="4.09646">
        <ele>87</ele>
        <time>2018-03-28T20:50:10Z</time>
      </trkpt>
      <trkpt lat="49.22383" lon="4.09577">
        <ele>86</ele>
        <time>2018-03-28T20:51:10Z</time>
      </trkpt>
      <trkpt lat="49.22342" lon="4.09544">
        <ele>85</ele>
        <time>2018-03-28T20:52:10Z</time>
      </trkpt>
      <trkpt lat="49.22317" lon="4.09528">
        <ele>85</ele>
        <time>2018-03-28T20:53:10Z</time>
      </trkpt>
      <trkpt lat="49.22282" lon="4.0951">
        <ele>84</ele>
        <time>2018-03-28T20:54:10Z</time>
      </trkpt>
      <trkpt lat="49.22276" lon="4.09507">
        <ele>84</ele>
        <time>2018-03-28T20:55:10Z</time>
      </trkpt>
      <trkpt lat="49.2227" lon="4.09504">
        <ele>83</ele>
        <time>2018-03-28T20:56:10Z</time>
      </trkpt>
      <trkpt lat="49.22262" lon="4.095">
        <ele>83</ele>
        <time>2018-03-28T20:57:10Z</time>
      </trkpt>
      <trkpt lat="49.22261" lon="4.09499">
        <ele>83</ele>
        <time>2018-03-28T20:58:10Z</time>
      </trkpt>
      <trkpt lat="49.22258" lon="4.09498">
        <ele>83</ele>
        <time>2018-03-28T20:59:10Z</time>
      </trkpt>
      <trkpt lat="49.22232" lon="4.09486">
        <ele>83</ele>
        <time>2018-03-28T21:00:10Z</time>
      </trkpt>
      <trkpt lat="49.22226" lon="4.09484">
        <ele>83</ele>
        <time>2018-03-28T21:01:10Z</time>
      </trkpt>
      <trkpt lat="49.22218" lon="4.09484">
        <ele>83</ele>
        <time>2018-03-28T21:02:10Z</time>
      </trkpt>
      <trkpt lat="49.2221" lon="4.09485">
        <ele>83</ele>
        <time>2018-03-28T21:03:10Z</time>
      </trkpt>
      <trkpt lat="49.22204" lon="4.0949">
        <ele>84</ele>
        <time>2018-03-28T21:04:10Z</time>
      </trkpt>
      <trkpt lat="49.22196" lon="4.09498">
        <ele>84</ele>
        <time>2018-03-28T21:05:10Z</time>
      </trkpt>
      <trkpt lat="49.22189" lon="4.0951">
        <ele>84</ele>
        <time>2018-03-28T21:06:10Z</time>
      </trkpt>
      <trkpt lat="49.2217" lon="4.09561">
        <ele>84</ele>
        <time>2018-03-28T21:07:10Z</time>
      </trkpt>
      <trkpt lat="49.2217" lon="4.09561">
        <ele>84</ele>
        <time>2018-03-28T21:08:10Z</time>
      </trkpt>
      <trkpt lat="49.22169" lon="4.09565">
        <ele>84</ele>
        <time>2018-03-28T21:09:10Z</time>
      </trkpt>
      <trkpt lat="49.22164" lon="4.09579">
        <ele>84</ele>
        <time>2018-03-28T21:10:10Z</time>
      </trkpt>
      <trkpt lat="49.22153" lon="4.09609">
        <ele>83</ele>
        <time>2018-03-28T21:11:10Z</time>
      </trkpt>
      <trkpt lat="49.22125" lon="4.09686">
        <ele>82</ele>
        <time>2018-03-28T21:12:10Z</time>
      </trkpt>
      <trkpt lat="49.22094" lon="4.09774">
        <ele>83</ele>
        <time>2018-03-28T21:13:10Z</time>
      </trkpt>
      <trkpt lat="49.22088" lon="4.09789">
        <ele>83</ele>
        <time>2018-03-28T21:14:10Z</time>
      </trkpt>
      <trkpt lat="49.22088" lon="4.09789">
        <ele>83</ele>
        <time>2018-03-28T21:15:10Z</time>
      </trkpt>
      <trkpt lat="49.2197" lon="4.09699">
        <ele>82</ele>
        <time>2018-03-28T21:16:10Z</time>
      </trkpt>
      <trkpt lat="49.21919" lon="4.09659">
        <ele>85</ele>
        <time>2018-03-28T21:17:10Z</time>
      </trkpt>
      <trkpt lat="49.21859" lon="4.09614">
        <ele>85</ele>
        <time>2018-03-28T21:18:10Z</time>
      </trkpt>
      <trkpt lat="49.21855" lon="4.09612">
        <ele>85</ele>
        <time>2018-03-28T21:19:10Z</time>
      </trkpt>
      <trkpt lat="49.21852" lon="4.09609">
        <ele>85</ele>
        <time>2018-03-28T21:20:10Z</time>
      </trkpt>
      <trkpt lat="49.2184" lon="4.09605">
        <ele>85</ele>
        <time>2018-03-28T21:21:10Z</time>
      </trkpt>
      <trkpt lat="49.21834" lon="4.09602">
        <ele>85</ele>
        <time>2018-03-28T21:22:10Z</time>
      </trkpt>
      <trkpt lat="49.21797" lon="4.0959">
        <ele>84</ele>
        <time>2018-03-28T21:23:10Z</time>
      </trkpt>
      <trkpt lat="49.21797" lon="4.0959">
        <ele>84</ele>
        <time>2018-03-28T21:24:10Z</time>
      </trkpt>
      <trkpt lat="49.21764" lon="4.09579">
        <ele>83</ele>
        <time>2018-03-28T21:25:10Z</time>
      </trkpt>
      <trkpt lat="49.21713" lon="4.09561">
        <ele>83</ele>
        <time>2018-03-28T21:26:10Z</time>
      </trkpt>
      <trkpt lat="49.21694" lon="4.09553">
        <ele>84</ele>
        <time>2018-03-28T21:27:10Z</time>
      </trkpt>
      <trkpt lat="49.21677" lon="4.09541">
        <ele>84</ele>
        <time>2018-03-28T21:28:10Z</time>
      </trkpt>
      <trkpt lat="49.21608" lon="4.09497">
        <ele>84</ele>
        <time>2018-03-28T21:29:10Z</time>
      </trkpt>
      <trkpt lat="49.21585" lon="4.09481">
        <ele>84</ele>
        <time>2018-03-28T21:30:10Z</time>
      </trkpt>
      <trkpt lat="49.21581" lon="4.09479">
        <ele>83</ele>
        <time>2018-03-28T21:31:10Z</time>
      </trkpt>
      <trkpt lat="49.21576" lon="4.09474">
        <ele>83</ele>
        <time>2018-03-28T21:32:10Z</time>
      </trkpt>
      <trkpt lat="49.21568" lon="4.09468">
        <ele>83</ele>
        <time>2018-03-28T21:33:10Z</time>
      </trkpt>
      <trkpt lat="49.21563" lon="4.09464">
        <ele>83</ele>
        <time>2018-03-28T21:34:10Z</time>
      </trkpt>
      <trkpt lat="49.21529" lon="4.09432">
        <ele>82</ele>
        <time>2018-03-28T21:35:10Z</time>
      </trkpt>
      <trkpt lat="49.21519" lon="4.09421">
        <ele>82</ele>
        <time>2018-03-28T21:36:10Z</time>
      </trkpt>
      <trkpt lat="49.21486" lon="4.09394">
        <ele>83</ele>
        <time>2018-03-28T21:37:10Z</time>
      </trkpt>
      <trkpt lat="49.21471" lon="4.09379">
        <ele>83</ele>
        <time>2018-03-28T21:38:10Z</time>
      </trkpt>
      <trkpt lat="49.21459" lon="4.0937">
        <ele>84</ele>
        <time>2018-03-28T21:39:10Z</time>
      </trkpt>
      <trkpt lat="49.21457" lon="4.09368">
        <ele>84</ele>
        <time>2018-03-28T21:40:10Z</time>
      </trkpt>
      <trkpt lat="49.21454" lon="4.09367">
        <ele>84</ele>
        <time>2018-03-28T21:41:10Z</time>
      </trkpt>
      <trkpt lat="49.2145" lon="4.09365">
        <ele>84</ele>
        <time>2018-03-28T21:42:10Z</time>
      </trkpt>
      <trkpt lat="49.21444" lon="4.09363">
        <ele>84</ele>
        <time>2018-03-28T21:43:10Z</time>
      </trkpt>
      <trkpt lat="49.21444" lon="4.09363">
        <ele>84</ele>
        <time>2018-03-28T21:44:10Z</time>
      </trkpt>
      <trkpt lat="49.21444" lon="4.09362">
        <ele>84</ele>
        <time>2018-03-28T21:45:10Z</time>
      </trkpt>
      <trkpt lat="49.21444" lon="4.09361">
        <ele>84</ele>
        <time>2018-03-28T21:46:10Z</time>
      </trkpt>
      <trkpt lat="49.21444" lon="4.0936">
        <ele>84</ele>
        <time>2018-03-28T21:47:10Z</time>
      </trkpt>
      <trkpt lat="49.21444" lon="4.09359">
        <ele>85</ele>
        <time>2018-03-28T21:48:10Z</time>
      </trkpt>
      <trkpt lat="49.21444" lon="4.09358">
        <ele>85</ele>
        <time>2018-03-28T21:49:10Z</time>
      </trkpt>
      <trkpt lat="49.21443" lon="4.09358">
        <ele>85</ele>
        <time>2018-03-28T21:50:10Z</time>
      </trkpt>
      <trkpt lat="49.21443" lon="4.09357">
        <ele>85</ele>
        <time>2018-03-28T21:51:10Z</time>
      </trkpt>
      <trkpt lat="49.21443" lon="4.09356">
        <ele>85</ele>
        <time>2018-03-28T21:52:10Z</time>
      </trkpt>
      <trkpt lat="49.21442" lon="4.09356">
        <ele>85</ele>
        <time>2018-03-28T21:53:10Z</time>
      </trkpt>
      <trkpt lat="49.21442" lon="4.09355">
        <ele>85</ele>
        <time>2018-03-28T21:54:10Z</time>
      </trkpt>
      <trkpt lat="49.21441" lon="4.09355">
        <ele>85</ele>
        <time>2018-03-28T21:55:10Z</time>
      </trkpt>
      <trkpt lat="49.2144" lon="4.09355">
        <ele>85</ele>
        <time>2018-03-28T21:56:10Z</time>
      </trkpt>
      <trkpt lat="49.2144" lon="4.09354">
        <ele>85</ele>
        <time>2018-03-28T21:57:10Z</time>
      </trkpt>
      <trkpt lat="49.21439" lon="4.09354">
        <ele>85</ele>
        <time>2018-03-28T21:58:10Z</time>
      </trkpt>
      <trkpt lat="49.21438" lon="4.09354">
        <ele>85</ele>
        <time>2018-03-28T21:59:10Z</time>
      </trkpt>
      <trkpt lat="49.21438" lon="4.09355">
        <ele>85</ele>
        <time>2018-03-28T22:00:10Z</time>
      </trkpt>
      <trkpt lat="49.21437" lon="4.09355">
        <ele>85</ele>
        <time>2018-03-28T22:01:10Z</time>
      </trkpt>
      <trkpt lat="49.21436" lon="4.09355">
        <ele>85</ele>
        <time>2018-03-28T22:02:10Z</time>
      </trkpt>
      <trkpt lat="49.21436" lon="4.09356">
        <ele>85</ele>
        <time>2018-03-28T22:03:10Z</time>
      </trkpt>
      <trkpt lat="49.21435" lon="4.09357">
        <ele>85</ele>
        <time>2018-03-28T22:04:10Z</time>
      </trkpt>
      <trkpt lat="49.21435" lon="4.09358">
        <ele>85</ele>
        <time>2018-03-28T22:05:10Z</time>
      </trkpt>
      <trkpt lat="49.21435" lon="4.09359">
        <ele>85</ele>
        <time>2018-03-28T22:06:10Z</time>
      </trkpt>
      <trkpt lat="49.21434" lon="4.09359">
        <ele>85</ele>
        <time>2018-03-28T22:07:10Z</time>
      </trkpt>
      <trkpt lat="49.21434" lon="4.0936">
        <ele>85</ele>
        <time>2018-03-28T22:08:10Z</time>
      </trkpt>
      <trkpt lat="49.21434" lon="4.09361">
        <ele>85</ele>
        <time>2018-03-28T22:09:10Z</time>
      </trkpt>
      <trkpt lat="49.21434" lon="4.09362">
        <ele>85</ele>
        <time>2018-03-28T22:10:10Z</time>
      </trkpt>
      <trkpt lat="49.21434" lon="4.09363">
        <ele>85</ele>
        <time>2018-03-28T22:11:10Z</time>
      </trkpt>
      <trkpt lat="49.21434" lon="4.09364">
        <ele>85</ele>
        <time>2018-03-28T22:12:10Z</time>
      </trkpt>
      <trkpt lat="49.21434" lon="4.09365">
        <ele>85</ele>
        <time>2018-03-28T22:13:10Z</time>
      </trkpt>
      <trkpt lat="49.21435" lon="4.09365">
        <ele>85</ele>
        <time>2018-03-28T22:14:10Z</time>
      </trkpt>
      <trkpt lat="49.21435" lon="4.09366">
        <ele>85</ele>
        <time>2018-03-28T22:15:10Z</time>
      </trkpt>
      <trkpt lat="49.21435" lon="4.09367">
        <ele>85</ele>
        <time>2018-03-28T22:16:10Z</time>
      </trkpt>
      <trkpt lat="49.21436" lon="4.09368">
        <ele>85</ele>
        <time>2018-03-28T22:17:10Z</time>
      </trkpt>
      <trkpt lat="49.21436" lon="4.09369">
        <ele>85</ele>
        <time>2018-03-28T22:18:10Z</time>
      </trkpt>
      <trkpt lat="49.21437" lon="4.09369">
        <ele>85</ele>
        <time>2018-03-28T22:19:10Z</time>
      </trkpt>
      <trkpt lat="49.21432" lon="4.0938">
        <ele>84</ele>
        <time>2018-03-28T22:20:10Z</time>
      </trkpt>
      <trkpt lat="49.21414" lon="4.09425">
        <ele>84</ele>
        <time>2018-03-28T22:21:10Z</time>
      </trkpt>
      <trkpt lat="49.21396" lon="4.09467">
        <ele>83</ele>
        <time>2018-03-28T22:22:10Z</time>
      </trkpt>
      <trkpt lat="49.21381" lon="4.09503">
        <ele>82</ele>
        <time>2018-03-28T22:23:10Z</time>
      </trkpt>
      <trkpt lat="49.21364" lon="4.09545">
        <ele>82</ele>
        <time>2018-03-28T22:24:10Z</time>
      </trkpt>
      <trkpt lat="49.21345" lon="4.09594">
        <ele>83</ele>
        <time>2018-03-28T22:25:10Z</time>
      </trkpt>
      <trkpt lat="49.21335" lon="4.09624">
        <ele>82</ele>
        <time>2018-03-28T22:26:10Z</time>
      </trkpt>
      <trkpt lat="49.21315" lon="4.09678">
        <ele>82</ele>
        <time>2018-03-28T22:27:10Z</time>
      </trkpt>
      <trkpt lat="49.21307" lon="4.09708">
        <ele>83</ele>
        <time>2018-03-28T22:28:10Z</time>
      </trkpt>
      <trkpt lat="49.21296" lon="4.09746">
        <ele>83</ele>
        <time>2018-03-28T22:29:10Z</time>
      </trkpt>
      <trkpt lat="49.21274" lon="4.09819">
        <ele>85</ele>
        <time>2018-03-28T22:30:10Z</time>
      </trkpt>
      <trkpt lat="49.21258" lon="4.09876">
        <ele>86</ele>
        <time>2018-03-28T22:31:10Z</time>
      </trkpt>
      <trkpt lat="49.21237" lon="4.09941">
        <ele>87</ele>
        <time>2018-03-28T22:32:10Z</time>
      </trkpt>
      <trkpt lat="49.21228" lon="4.09977">
        <ele>87</ele>
        <time>2018-03-28T22:33:10Z</time>
      </trkpt>
      <trkpt lat="49.21217" lon="4.10011">
        <ele>87</ele>
        <time>2018-03-28T22:34:10Z</time>
      </trkpt>
      <trkpt lat="49.21209" lon="4.10043">
        <ele>87</ele>
        <time>2018-03-28T22:35:10Z</time>
      </trkpt>
      <trkpt lat="49.21208" lon="4.10047">
        <ele>88</ele>
        <time>2018-03-28T22:36:10Z</time>
      </trkpt>
      <trkpt lat="49.21206" lon="4.10058">
        <ele>88</ele>
        <time>2018-03-28T22:37:10Z</time>
      </trkpt>
      <trkpt lat="49.21201" lon="4.10081">
        <ele>88</ele>
        <time>2018-03-28T22:38:10Z</time>
      </trkpt>
      <trkpt lat="49.21199" lon="4.10096">
        <ele>88</ele>
        <time>2018-03-28T22:39:10Z</time>
      </trkpt>
      <trkpt lat="49.21197" lon="4.10112">
        <ele>87</ele>
        <time>2018-03-28T22:40:10Z</time>
      </trkpt>
      <trkpt lat="49.21192" lon="4.10167">
        <ele>86</ele>
        <time>2018-03-28T22:41:10Z</time>
      </trkpt>
      <trkpt lat="49.21192" lon="4.10176">
        <ele>86</ele>
        <time>2018-03-28T22:42:10Z</time>
      </trkpt>
      <trkpt lat="49.2119" lon="4.10183">
        <ele>86</ele>
        <time>2018-03-28T22:43:10Z</time>
      </trkpt>
      <trkpt lat="49.21189" lon="4.10194">
        <ele>86</ele>
        <time>2018-03-28T22:44:10Z</time>
      </trkpt>
      <trkpt lat="49.21187" lon="4.10202">
        <ele>86</ele>
        <time>2018-03-28T22:45:10Z</time>
      </trkpt>
      <trkpt lat="49.21164" lon="4.1026">
        <ele>87</ele>
        <time>2018-03-28T22:46:10Z</time>
      </trkpt>
      <trkpt lat="49.21155" lon="4.1028">
        <ele>87</ele>
        <time>2018-03-28T22:47:10Z</time>
      </trkpt>
      <trkpt lat="49.21152" lon="4.10286">
        <ele>87</ele>
        <time>2018-03-28T22:48:10Z</time>
      </trkpt>
      <trkpt lat="49.21151" lon="4.10291">
        <ele>87</ele>
        <time>2018-03-28T22:49:10Z</time>
      </trkpt>
      <trkpt lat="49.21141" lon="4.10316">
        <ele>87</ele>
        <time>2018-03-28T22:50:10Z</time>
      </trkpt>
      <trkpt lat="49.21137" lon="4.10327">
        <ele>87</ele>
        <time>2018-03-28T22:51:10Z</time>
      </trkpt>
      <trkpt lat="49.21131" lon="4.10336">
        <ele>87</ele>
        <time>2018-03-28T22:52:10Z</time>
      </trkpt>
      <trkpt lat="49.21128" lon="4.10339">
        <ele>87</ele>
        <time>2018-03-28T22:53:10Z</time>
      </trkpt>
      <trkpt lat="49.21125" lon="4.1034">
        <ele>87</ele>
        <time>2018-03-28T22:54:10Z</time>
      </trkpt>
      <trkpt lat="49.21121" lon="4.10342">
        <ele>87</ele>
        <time>2018-03-28T22:55:10Z</time>
      </trkpt>
      <trkpt lat="49.21115" lon="4.10347">
        <ele>87</ele>
        <time>2018-03-28T22:56:10Z</time>
      </trkpt>
      <trkpt lat="49.21112" lon="4.1035">
        <ele>87</ele>
        <time>2018-03-28T22:57:10Z</time>
      </trkpt>
      <trkpt lat="49.2111" lon="4.10354">
        <ele>87</ele>
        <time>2018-03-28T22:58:10Z</time>
      </trkpt>
      <trkpt lat="49.21108" lon="4.10358">
        <ele>87</ele>
        <time>2018-03-28T22:59:10Z</time>
      </trkpt>
      <trkpt lat="49.21107" lon="4.10362">
        <ele>87</ele>
        <time>2018-03-28T23:00:10Z</time>
      </trkpt>
      <trkpt lat="49.21105" lon="4.10368">
        <ele>87</ele>
        <time>2018-03-28T23:01:10Z</time>
      </trkpt>
      <trkpt lat="49.21104" lon="4.10378">
        <ele>87</ele>
        <time>2018-03-28T23:02:10Z</time>
      </trkpt>
      <trkpt lat="49.21103" lon="4.10383">
        <ele>87</ele>
        <time>2018-03-28T23:03:10Z</time>
      </trkpt>
      <trkpt lat="49.21102" lon="4.10388">
        <ele>87</ele>
        <time>2018-03-28T23:04:10Z</time>
      </trkpt>
      <trkpt lat="49.211" lon="4.10393">
        <ele>87</ele>
        <time>2018-03-28T23:05:10Z</time>
      </trkpt>
      <trkpt lat="49.21098" lon="4.10399">
        <ele>87</ele>
        <time>2018-03-28T23:06:10Z</time>
      </trkpt>
      <trkpt lat="49.21097" lon="4.10402">
        <ele>87</ele>
        <time>2018-03-28T23:07:10Z</time>
      </trkpt>
      <trkpt lat="49.21077" lon="4.1044">
        <ele>87</ele>
        <time>2018-03-28T23:08:10Z</time>
      </trkpt>
      <trkpt lat="49.21067" lon="4.10462">
        <ele>87</ele>
        <time>2018-03-28T23:09:10Z</time>
      </trkpt>
      <trkpt lat="49.21045" lon="4.10506">
        <ele>87</ele>
        <time>2018-03-28T23:10:10Z</time>
      </trkpt>
      <trkpt lat="49.21045" lon="4.10507">
        <ele>87</ele>
        <time>2018-03-28T23:11:10Z</time>
      </trkpt>
      <trkpt lat="49.21044" lon="4.10511">
        <ele>87</ele>
        <time>2018-03-28T23:12:10Z</time>
      </trkpt>
      <trkpt lat="49.21025" lon="4.10547">
        <ele>87</ele>
        <time>2018-03-28T23:13:10Z</time>
      </trkpt>
      <trkpt lat="49.20982" lon="4.10631">
        <ele>86</ele>
        <time>2018-03-28T23:14:10Z</time>
      </trkpt>
      <trkpt lat="49.20977" lon="4.10635">
        <ele>86</ele>
        <time>2018-03-28T23:15:10Z</time>
      </trkpt>
      <trkpt lat="49.20975" lon="4.10636">
        <ele>86</ele>
        <time>2018-03-28T23:16:10Z</time>
      </trkpt>
      <trkpt lat="49.20947" lon="4.10687">
        <ele>86</ele>
        <time>2018-03-28T23:17:10Z</time>
      </trkpt>
      <trkpt lat="49.20935" lon="4.10709">
        <ele>86</ele>
        <time>2018-03-28T23:18:10Z</time>
      </trkpt>
      <trkpt lat="49.20923" lon="4.10735">
        <ele>86</ele>
        <time>2018-03-28T23:19:10Z</time>
      </trkpt>
      <trkpt lat="49.2092" lon="4.10741">
        <ele>86</ele>
        <time>2018-03-28T23:20:10Z</time>
      </trkpt>
      <trkpt lat="49.20919" lon="4.10744">
        <ele>86</ele>
        <time>2018-03-28T23:21:10Z</time>
      </trkpt>
      <trkpt lat="49.20919" lon="4.10745">
        <ele>86</ele>
        <time>2018-03-28T23:22:10Z</time>
      </trkpt>
      <trkpt lat="49.20919" lon="4.10751">
        <ele>86</ele>
        <time>2018-03-28T23:23:10Z</time>
      </trkpt>
      <trkpt lat="49.20888" lon="4.10809">
        <ele>86</ele>
        <time>2018-03-28T23:24:10Z</time>
      </trkpt>
      <trkpt lat="49.20835" lon="4.10908">
        <ele>87</ele>
        <time>2018-03-28T23:25:10Z</time>
      </trkpt>
      <trkpt lat="49.20792" lon="4.1099">
        <ele>88</ele>
        <time>2018-03-28T23:26:10Z</time>
      </trkpt>
      <trkpt lat="49.20679" lon="4.11205">
        <ele>89</ele>
        <time>2018-03-28T23:27:10Z</time>
      </trkpt>
      <trkpt lat="49.20666" lon="4.11232">
        <ele>89</ele>
        <time>2018-03-28T23:28:10Z</time>
      </trkpt>
      <trkpt lat="49.20664" lon="4.11238">
        <ele>89</ele>
        <time>2018-03-28T23:29:10Z</time>
      </trkpt>
      <trkpt lat="49.20657" lon="4.11253">
        <ele>89</ele>
        <time>2018-03-28T23:30:10Z</time>
      </trkpt>
      <trkpt lat="49.20655" lon="4.11257">
        <ele>90</ele>
        <time>2018-03-28T23:31:10Z</time>
      </trkpt>
      <trkpt lat="49.20522" lon="4.11602">
        <ele>91</ele>
        <time>2018-03-28T23:32:10Z</time>
      </trkpt>
      <trkpt lat="49.20514" lon="4.11623">
        <ele>91</ele>
        <time>2018-03-28T23:33:10Z</time>
      </trkpt>
      <trkpt lat="49.20499" lon="4.1166">
        <ele>90</ele>
        <time>2018-03-28T23:34:10Z</time>
      </trkpt>
      <trkpt lat="49.20389" lon="4.11891">
        <ele>88</ele>
        <time>2018-03-28T23:35:10Z</time>
      </trkpt>
      <trkpt lat="49.20325" lon="4.12022">
        <ele>87</ele>
        <time>2018-03-28T23:36:10Z</time>
      </trkpt>
      <trkpt lat="49.20278" lon="4.12121">
        <ele>86</ele>
        <time>2018-03-28T23:37:10Z</time>
      </trkpt>
      <trkpt lat="49.20192" lon="4.123">
        <ele>85</ele>
        <time>2018-03-28T23:38:10Z</time>
      </trkpt>
      <trkpt lat="49.20189" lon="4.12306">
        <ele>85</ele>
        <time>2018-03-28T23:39:10Z</time>
      </trkpt>
      <trkpt lat="49.20187" lon="4.1231">
        <ele>85</ele>
        <time>2018-03-28T23:40:10Z</time>
      </trkpt>
      <trkpt lat="49.20135" lon="4.12418">
        <ele>85</ele>
        <time>2018-03-28T23:41:10Z</time>
      </trkpt>
      <trkpt lat="49.20096" lon="4.12499">
        <ele>86</ele>
        <time>2018-03-28T23:42:10Z</time>
      </trkpt>
      <trkpt lat="49.20063" lon="4.12567">
        <ele>87</ele>
        <time>2018-03-28T23:43:10Z</time>
      </trkpt>
      <trkpt lat="49.20055" lon="4.12577">
        <ele>87</ele>
        <time>2018-03-28T23:44:10Z</time>
      </trkpt>
      <trkpt lat="49.2005" lon="4.12585">
        <ele>87</ele>
        <time>2018-03-28T23:45:10Z</time>
      </trkpt>
      <trkpt lat="49.20046" lon="4.12592">
        <ele>87</ele>
        <time>2018-03-28T23:46:10Z</time>
      </trkpt>
      <trkpt lat="49.20041" lon="4.12599">
        <ele>88</ele>
        <time>2018-03-28T23:47:10Z</time>
      </trkpt>
      <trkpt lat="49.20037" lon="4.12605">
        <ele>88</ele>
        <time>2018-03-28T23:48:10Z</time>
      </trkpt>
      <trkpt lat="49.20035" lon="4.12607">
        <ele>88</ele>
        <time>2018-03-28T23:49:10Z</time>
      </trkpt>
      <trkpt lat="49.20031" lon="4.1261">
        <ele>88</ele>
        <time>2018-03-28T23:50:10Z</time>
      </trkpt>
      <trkpt lat="49.20029" lon="4.12611">
        <ele>88</ele>
        <time>2018-03-28T23:51:10Z</time>
      </trkpt>
      <trkpt lat="49.20028" lon="4.12612">
        <ele>88</ele>
        <time>2018-03-28T23:52:10Z</time>
      </trkpt>
      <trkpt lat="49.20026" lon="4.12614">
        <ele>88</ele>
        <time>2018-03-28T23:53:10Z</time>
      </trkpt>
      <trkpt lat="49.20025" lon="4.12616">
        <ele>88</ele>
        <time>2018-03-28T23:54:10Z</time>
      </trkpt>
      <trkpt lat="49.20024" lon="4.12618">
        <ele>88</ele>
        <time>2018-03-28T23:55:10Z</time>
      </trkpt>
      <trkpt lat="49.20023" lon="4.1262">
        <ele>88</ele>
        <time>2018-03-28T23:56:10Z</time>
      </trkpt>
      <trkpt lat="49.20022" lon="4.12623">
        <ele>88</ele>
        <time>2018-03-28T23:57:10Z</time>
      </trkpt>
      <trkpt lat="49.20022" lon="4.12626">
        <ele>88</ele>
        <time>2018-03-28T23:58:10Z</time>
      </trkpt>
      <trkpt lat="49.20022" lon="4.12629">
        <ele>88</ele>
        <time>2018-03-28T23:59:10Z</time>
      </trkpt>
      <trkpt lat="49.20022" lon="4.1263">
        <ele>88</ele>
        <time>2018-03-29T00:00:10Z</time>
      </trkpt>
      <trkpt lat="49.20012" lon="4.12663">
        <ele>88</ele>
        <time>2018-03-29T00:01:10Z</time>
      </trkpt>
      <trkpt lat="49.20008" lon="4.12674">
        <ele>88</ele>
        <time>2018-03-29T00:02:10Z</time>
      </trkpt>
      <trkpt lat="49.20007" lon="4.12676">
        <ele>88</ele>
        <time>2018-03-29T00:03:10Z</time>
      </trkpt>
      <trkpt lat="49.20004" lon="4.12681">
        <ele>88</ele>
        <time>2018-03-29T00:04:10Z</time>
      </trkpt>
      <trkpt lat="49.19974" lon="4.12739">
        <ele>88</ele>
        <time>2018-03-29T00:05:10Z</time>
      </trkpt>
      <trkpt lat="49.19966" lon="4.12753">
        <ele>88</ele>
        <time>2018-03-29T00:06:10Z</time>
      </trkpt>
      <trkpt lat="49.19963" lon="4.1276">
        <ele>88</ele>
        <time>2018-03-29T00:07:10Z</time>
      </trkpt>
      <trkpt lat="49.19915" lon="4.1285">
        <ele>90</ele>
        <time>2018-03-29T00:08:10Z</time>
      </trkpt>
      <trkpt lat="49.19909" lon="4.12862">
        <ele>90</ele>
        <time>2018-03-29T00:09:10Z</time>
      </trkpt>
      <trkpt lat="49.19881" lon="4.12913">
        <ele>90</ele>
        <time>2018-03-29T00:10:10Z</time>
      </trkpt>
      <trkpt lat="49.19861" lon="4.12946">
        <ele>90</ele>
        <time>2018-03-29T00:11:10Z</time>
      </trkpt>
      <trkpt lat="49.19855" lon="4.12956">
        <ele>90</ele>
        <time>2018-03-29T00:12:10Z</time>
      </trkpt>
      <trkpt lat="49.19853" lon="4.1296">
        <ele>90</ele>
        <time>2018-03-29T00:13:10Z</time>
      </trkpt>
      <trkpt lat="49.198" lon="4.13047">
        <ele>91</ele>
        <time>2018-03-29T00:14:10Z</time>
      </trkpt>
      <trkpt lat="49.19796" lon="4.13053">
        <ele>91</ele>
        <time>2018-03-29T00:15:10Z</time>
      </trkpt>
      <trkpt lat="49.19782" lon="4.13078">
        <ele>92</ele>
        <time>2018-03-29T00:16:10Z</time>
      </trkpt>
      <trkpt lat="49.19772" lon="4.13095">
        <ele>92</ele>
        <time>2018-03-29T00:17:10Z</time>
      </trkpt>
      <trkpt lat="49.19764" lon="4.13112">
        <ele>92</ele>
        <time>2018-03-29T00:18:10Z</time>
      </trkpt>
      <trkpt lat="49.19739" lon="4.13156">
        <ele>92</ele>
        <time>2018-03-29T00:19:10Z</time>
      </trkpt>
      <trkpt lat="49.19728" lon="4.13177">
        <ele>92</ele>
        <time>2018-03-29T00:20:10Z</time>
      </trkpt>
      <trkpt lat="49.1972" lon="4.13197">
        <ele>92</ele>
        <time>2018-03-29T00:21:10Z</time>
      </trkpt>
      <trkpt lat="49.19715" lon="4.13208">
        <ele>92</ele>
        <time>2018-03-29T00:22:10Z</time>
      </trkpt>
      <trkpt lat="49.19705" lon="4.13238">
        <ele>92</ele>
        <time>2018-03-29T00:23:10Z</time>
      </trkpt>
      <trkpt lat="49.19697" lon="4.13277">
        <ele>92</ele>
        <time>2018-03-29T00:24:10Z</time>
      </trkpt>
      <trkpt lat="49.19689" lon="4.13312">
        <ele>91</ele>
        <time>2018-03-29T00:25:10Z</time>
      </trkpt>
      <trkpt lat="49.19688" lon="4.13319">
        <ele>91</ele>
        <time>2018-03-29T00:26:10Z</time>
      </trkpt>
      <trkpt lat="49.19687" lon="4.13326">
        <ele>91</ele>
        <time>2018-03-29T00:27:10Z</time>
      </trkpt>
      <trkpt lat="49.1968" lon="4.13359">
        <ele>91</ele>
        <time>2018-03-29T00:28:10Z</time>
      </trkpt>
      <trkpt lat="49.19674" lon="4.13393">
        <ele>91</ele>
        <time>2018-03-29T00:29:10Z</time>
      </trkpt>
      <trkpt lat="49.1964" lon="4.13562">
        <ele>89</ele>
        <time>2018-03-29T00:30:10Z</time>
      </trkpt>
      <trkpt lat="49.19639" lon="4.13565">
        <ele>89</ele>
        <time>2018-03-29T00:31:10Z</time>
      </trkpt>
      <trkpt lat="49.19638" lon="4.13573">
        <ele>89</ele>
        <time>2018-03-29T00:32:10Z</time>
      </trkpt>
      <trkpt lat="49.1961" lon="4.13705">
        <ele>89</ele>
        <time>2018-03-29T00:33:10Z</time>
      </trkpt>
      <trkpt lat="49.19595" lon="4.13787">
        <ele>89</ele>
        <time>2018-03-29T00:34:10Z</time>
      </trkpt>
      <trkpt lat="49.19587" lon="4.13828">
        <ele>89</ele>
        <time>2018-03-29T00:35:10Z</time>
      </trkpt>
      <trkpt lat="49.19584" lon="4.13841">
        <ele>89</ele>
        <time>2018-03-29T00:36:10Z</time>
      </trkpt>
      <trkpt lat="49.19583" lon="4.13848">
        <ele>89</ele>
        <time>2018-03-29T00:37:10Z</time>
      </trkpt>
      <trkpt lat="49.19576" lon="4.13888">
        <ele>88</ele>
        <time>2018-03-29T00:38:10Z</time>
      </trkpt>
      <trkpt lat="49.19568" lon="4.13932">
        <ele>88</ele>
        <time>2018-03-29T00:39:10Z</time>
      </trkpt>
      <trkpt lat="49.19568" lon="4.13932">
        <ele>88</ele>
        <time>2018-03-29T00:40:10Z</time>
      </trkpt>
      <trkpt lat="49.19565" lon="4.13953">
        <ele>88</ele>
        <time>2018-03-29T00:41:10Z</time>
      </trkpt>
      <trkpt lat="49.1957" lon="4.13954">
        <ele>88</ele>
        <time>2018-03-29T00:42:10Z</time>
      </trkpt>
      <trkpt lat="49.19581" lon="4.13953">
        <ele>88</ele>
        <time>2018-03-29T00:43:10Z</time>
      </trkpt>
      <trkpt lat="49.1959" lon="4.13953">
        <ele>88</ele>
        <time>2018-03-29T00:44:10Z</time>
      </trkpt>
      <trkpt lat="49.19599" lon="4.13953">
        <ele>88</ele>
        <time>2018-03-29T00:45:10Z</time>
      </trkpt>
      <trkpt lat="49.19606" lon="4.13959">
        <ele>88</ele>
        <time>2018-03-29T00:46:10Z</time>
      </trkpt>
      <trkpt lat="49.1961" lon="4.13962">
        <ele>88</ele>
        <time>2018-03-29T00:47:10Z</time>
      </trkpt>
      <trkpt lat="49.19611" lon="4.13963">
        <ele>88</ele>
        <time>2018-03-29T00:48:10Z</time>
      </trkpt>
      <trkpt lat="49.19614" lon="4.13965">
        <ele>88</ele>
        <time>2018-03-29T00:49:10Z</time>
      </trkpt>
      <trkpt lat="49.1962" lon="4.13969">
        <ele>88</ele>
        <time>2018-03-29T00:50:10Z</time>
      </trkpt>
      <trkpt lat="49.19628" lon="4.13976">
        <ele>89</ele>
        <time>2018-03-29T00:51:10Z</time>
      </trkpt>
      <trkpt lat="49.19632" lon="4.13978">
        <ele>89</ele>
        <time>2018-03-29T00:52:10Z</time>
      </trkpt>
      <trkpt lat="49.19653" lon="4.13992">
        <ele>89</ele>
        <time>2018-03-29T00:53:10Z</time>
      </trkpt>
      <trkpt lat="49.19679" lon="4.14004">
        <ele>90</ele>
        <time>2018-03-29T00:54:10Z</time>
      </trkpt>
      <trkpt lat="49.19692" lon="4.1401">
        <ele>89</ele>
        <time>2018-03-29T00:55:10Z</time>
      </trkpt>
      <trkpt lat="49.19733" lon="4.14023">
        <ele>87</ele>
        <time>2018-03-29T00:56:10Z</time>
      </trkpt>
      <trkpt lat="49.19802" lon="4.14049">
        <ele>87</ele>
        <time>2018-03-29T00:57:10Z</time>
      </trkpt>
      <trkpt lat="49.19839" lon="4.1406">
        <ele>87</ele>
        <time>2018-03-29T00:58:10Z</time>
      </trkpt>
      <trkpt lat="49.19868" lon="4.1407">
        <ele>87</ele>
        <time>2018-03-29T00:59:10Z</time>
      </trkpt>
      <trkpt lat="49.19897" lon="4.14081">
        <ele>87</ele>
        <time>2018-03-29T01:00:10Z</time>
      </trkpt>
      <trkpt lat="49.19909" lon="4.14087">
        <ele>87</ele>
        <time>2018-03-29T01:01:10Z</time>
      </trkpt>
      <trkpt lat="49.19919" lon="4.14094">
        <ele>87</ele>
        <time>2018-03-29T01:02:10Z</time>
      </trkpt>
      <trkpt lat="49.19923" lon="4.14098">
        <ele>87</ele>
        <time>2018-03-29T01:03:10Z</time>
      </trkpt>
      <trkpt lat="49.19934" lon="4.14111">
        <ele>88</ele>
        <time>2018-03-29T01:04:10Z</time>
      </trkpt>
      <trkpt lat="49.19938" lon="4.14119">
        <ele>88</ele>
        <time>2018-03-29T01:05:10Z</time>
      </trkpt>
      <trkpt lat="49.19941" lon="4.14126">
        <ele>88</ele>
        <time>2018-03-29T01:06:10Z</time>
      </trkpt>
      <trkpt lat="49.19943" lon="4.14129">
        <ele>88</ele>
        <time>2018-03-29T01:07:10Z</time>
      </trkpt>
      <trkpt lat="49.19945" lon="4.14135">
        <ele>88</ele>
        <time>2018-03-29T01:08:10Z</time>
      </trkpt>
      <trkpt lat="49.19947" lon="4.14145">
        <ele>88</ele>
        <time>2018-03-29T01:09:10Z</time>
      </trkpt>
      <trkpt lat="49.1995" lon="4.14157">
        <ele>88</ele>
        <time>2018-03-29T01:10:10Z</time>
      </trkpt>
      <trkpt lat="49.19952" lon="4.1417">
        <ele>88</ele>
        <time>2018-03-29T01:11:10Z</time>
      </trkpt>
      <trkpt lat="49.19953" lon="4.14176">
        <ele>88</ele>
        <time>2018-03-29T01:12:10Z</time>
      </trkpt>
      <trkpt lat="49.19954" lon="4.14182">
        <ele>88</ele>
        <time>2018-03-29T01:13:10Z</time>
      </trkpt>
      <trkpt lat="49.19956" lon="4.14196">
        <ele>88</ele>
        <time>2018-03-29T01:14:10Z</time>
      </trkpt>
      <trkpt lat="49.19959" lon="4.14213">
        <ele>88</ele>
        <time>2018-03-29T01:15:10Z</time>
      </trkpt>
      <trkpt lat="49.1996" lon="4.14217">
        <ele>88</ele>
        <time>2018-03-29T01:16:10Z</time>
      </trkpt>
      <trkpt lat="49.19968" lon="4.14232">
        <ele>88</ele>
        <time>2018-03-29T01:17:10Z</time>
      </trkpt>
      <trkpt lat="49.19976" lon="4.14242">
        <ele>89</ele>
        <time>2018-03-29T01:18:10Z</time>
      </trkpt>
      <trkpt lat="49.19988" lon="4.14252">
        <ele>89</ele>
        <time>2018-03-29T01:19:10Z</time>
      </trkpt>
      <trkpt lat="49.20014" lon="4.14272">
        <ele>89</ele>
        <time>2018-03-29T01:20:10Z</time>
      </trkpt>
      <trkpt lat="49.20019" lon="4.14275">
        <ele>89</ele>
        <time>2018-03-29T01:21:10Z</time>
      </trkpt>
      <trkpt lat="49.20026" lon="4.14279">
        <ele>89</ele>
        <time>2018-03-29T01:22:10Z</time>
      </trkpt>
      <trkpt lat="49.2003" lon="4.14282">
        <ele>89</ele>
        <time>2018-03-29T01:23:10Z</time>
      </trkpt>
      <trkpt lat="49.20124" lon="4.14341">
        <ele>89</ele>
        <time>2018-03-29T01:24:10Z</time>
      </trkpt>
      <trkpt lat="49.202" lon="4.14387">
        <ele>89</ele>
        <time>2018-03-29T01:25:10Z</time>
      </trkpt>
      <trkpt lat="49.20245" lon="4.14415">
        <ele>88</ele>
        <time>2018-03-29T01:26:10Z</time>
      </trkpt>
      <trkpt lat="49.2025" lon="4.14418">
        <ele>88</ele>
        <time>2018-03-29T01:27:10Z</time>
      </trkpt>
      <trkpt lat="49.20256" lon="4.14421">
        <ele>88</ele>
        <time>2018-03-29T01:28:10Z</time>
      </trkpt>
      <trkpt lat="49.20262" lon="4.14425">
        <ele>88</ele>
        <time>2018-03-29T01:29:10Z</time>
      </trkpt>
      <trkpt lat="49.2027" lon="4.14427">
        <ele>88</ele>
        <time>2018-03-29T01:30:10Z</time>
      </trkpt>
      <trkpt lat="49.20285" lon="4.14433">
        <ele>88</ele>
        <time>2018-03-29T01:31:10Z</time>
      </trkpt>
      <trkpt lat="49.20306" lon="4.14436">
        <ele>88</ele>
        <time>2018-03-29T01:32:10Z</time>
      </trkpt>
      <trkpt lat="49.2031" lon="4.14436">
        <ele>88</ele>
        <time>2018-03-29T01:33:10Z</time>
      </trkpt>
      <trkpt lat="49.20318" lon="4.14438">
        <ele>88</ele>
        <time>2018-03-29T01:34:10Z</time>
      </trkpt>
      <trkpt lat="49.20328" lon="4.14438">
        <ele>88</ele>
        <time>2018-03-29T01:35:10Z</time>
      </trkpt>
      <trkpt lat="49.20332" lon="4.14438">
        <ele>88</ele>
        <time>2018-03-29T01:36:10Z</time>
      </trkpt>
      <trkpt lat="49.20333" lon="4.14438">
        <ele>88</ele>
        <time>2018-03-29T01:37:10Z</time>
      </trkpt>
      <trkpt lat="49.2035" lon="4.1444">
        <ele>88</ele>
        <time>2018-03-29T01:38:10Z</time>
      </trkpt>
      <trkpt lat="49.2035" lon="4.1444">
        <ele>88</ele>
        <time>2018-03-29T01:39:10Z</time>
      </trkpt>
      <trkpt lat="49.20346" lon="4.14456">
        <ele>88</ele>
        <time>2018-03-29T01:40:10Z</time>
      </trkpt>
      <trkpt lat="49.2034" lon="4.14514">
        <ele>88</ele>
        <time>2018-03-29T01:41:10Z</time>
      </trkpt>
      <trkpt lat="49.20336" lon="4.14598">
        <ele>88</ele>
        <time>2018-03-29T01:42:10Z</time>
      </trkpt>
      <trkpt lat="49.2033" lon="4.14741">
        <ele>87</ele>
        <time>2018-03-29T01:43:10Z</time>
      </trkpt>
      <trkpt lat="49.20315" lon="4.15055">
        <ele>90</ele>
        <time>2018-03-29T01:44:10Z</time>
      </trkpt>
      <trkpt lat="49.20312" lon="4.15147">
        <ele>88</ele>
        <time>2018-03-29T01:45:10Z</time>
      </trkpt>
      <trkpt lat="49.20308" lon="4.15218">
        <ele>88</ele>
        <time>2018-03-29T01:46:10Z</time>
      </trkpt>
      <trkpt lat="49.20308" lon="4.15227">
        <ele>88</ele>
        <time>2018-03-29T01:47:10Z</time>
      </trkpt>
      <trkpt lat="49.20307" lon="4.15238">
        <ele>88</ele>
        <time>2018-03-29T01:48:10Z</time>
      </trkpt>
      <trkpt lat="49.20305" lon="4.15291">
        <ele>89</ele>
        <time>2018-03-29T01:49:10Z</time>
      </trkpt>
      <trkpt lat="49.20303" lon="4.15367">
        <ele>89</ele>
        <time>2018-03-29T01:50:10Z</time>
      </trkpt>
      <trkpt lat="49.20303" lon="4.15381">
        <ele>89</ele>
        <time>2018-03-29T01:51:10Z</time>
      </trkpt>
      <trkpt lat="49.20303" lon="4.15416">
        <ele>88</ele>
        <time>2018-03-29T01:52:10Z</time>
      </trkpt>
      <trkpt lat="49.20303" lon="4.15465">
        <ele>88</ele>
        <time>2018-03-29T01:53:10Z</time>
      </trkpt>
      <trkpt lat="49.20304" lon="4.15526">
        <ele>88</ele>
        <time>2018-03-29T01:54:10Z</time>
      </trkpt>
      <trkpt lat="49.20305" lon="4.15591">
        <ele>88</ele>
        <time>2018-03-29T01:55:10Z</time>
      </trkpt>
      <trkpt lat="49.20307" lon="4.1569">
        <ele>87</ele>
        <time>2018-03-29T01:56:10Z</time>
      </trkpt>
      <trkpt lat="49.20307" lon="4.15728">
        <ele>87</ele>
        <time>2018-03-29T01:57:10Z</time>
      </trkpt>
      <trkpt lat="49.20304" lon="4.15781">
        <ele>87</ele>
        <time>2018-03-29T01:58:10Z</time>
      </trkpt>
      <trkpt lat="49.20299" lon="4.15819">
        <ele>88</ele>
        <time>2018-03-29T01:59:10Z</time>
      </trkpt>
      <trkpt lat="49.2027" lon="4.16003">
        <ele>88</ele>
        <time>2018-03-29T02:00:10Z</time>
      </trkpt>
      <trkpt lat="49.20241" lon="4.16188">
        <ele>88</ele>
        <time>2018-03-29T02:01:10Z</time>
      </trkpt>
      <trkpt lat="49.20212" lon="4.16372">
        <ele>88</ele>
        <time>2018-03-29T02:02:10Z</time>
      </trkpt>
      <trkpt lat="49.20176" lon="4.16594">
        <ele>87</ele>
        <time>2018-03-29T02:03:10Z</time>
      </trkpt>
      <trkpt lat="49.20153" lon="4.1675">
        <ele>87</ele>
        <time>2018-03-29T02:04:10Z</time>
      </trkpt>
      <trkpt lat="49.20149" lon="4.16778">
        <ele>87</ele>
        <time>2018-03-29T02:05:10Z</time>
      </trkpt>
      <trkpt lat="49.20143" lon="4.16856">
        <ele>87</ele>
        <time>2018-03-29T02:06:10Z</time>
      </trkpt>
      <trkpt lat="49.20131" lon="4.17043">
        <ele>88</ele>
        <time>2018-03-29T02:07:10Z</time>
      </trkpt>
      <trkpt lat="49.20129" lon="4.17081">
        <ele>89</ele>
        <time>2018-03-29T02:08:10Z</time>
      </trkpt>
      <trkpt lat="49.20127" lon="4.17104">
        <ele>90</ele>
        <time>2018-03-29T02:09:10Z</time>
      </trkpt>
      <trkpt lat="49.20124" lon="4.1715">
        <ele>90</ele>
        <time>2018-03-29T02:10:10Z</time>
      </trkpt>
      <trkpt lat="49.20119" lon="4.17227">
        <ele>90</ele>
        <time>2018-03-29T02:11:10Z</time>
      </trkpt>
      <trkpt lat="49.20117" lon="4.17263">
        <ele>89</ele>
        <time>2018-03-29T02:12:10Z</time>
      </trkpt>
      <trkpt lat="49.20115" lon="4.17289">
        <ele>89</ele>
        <time>2018-03-29T02:13:10Z</time>
      </trkpt>
      <trkpt lat="49.2011" lon="4.1733">
        <ele>88</ele>
        <time>2018-03-29T02:14:10Z</time>
      </trkpt>
      <trkpt lat="49.201" lon="4.17377">
        <ele>87</ele>
        <time>2018-03-29T02:15:10Z</time>
      </trkpt>
      <trkpt lat="49.20094" lon="4.17392">
        <ele>87</ele>
        <time>2018-03-29T02:16:10Z</time>
      </trkpt>
      <trkpt lat="49.20091" lon="4.17401">
        <ele>87</ele>
        <time>2018-03-29T02:17:10Z</time>
      </trkpt>
      <trkpt lat="49.20074" lon="4.17437">
        <ele>87</ele>
        <time>2018-03-29T02:18:10Z</time>
      </trkpt>
      <trkpt lat="49.20029" lon="4.17534">
        <ele>88</ele>
        <time>2018-03-29T02:19:10Z</time>
      </trkpt>
      <trkpt lat="49.19996" lon="4.17601">
        <ele>87</ele>
        <time>2018-03-29T02:20:10Z</time>
      </trkpt>
      <trkpt lat="49.19966" lon="4.17658">
        <ele>87</ele>
        <time>2018-03-29T02:21:10Z</time>
      </trkpt>
      <trkpt lat="49.19959" lon="4.17667">
        <ele>87</ele>
        <time>2018-03-29T02:22:10Z</time>
      </trkpt>
      <trkpt lat="49.19955" lon="4.17671">
        <ele>87</ele>
        <time>2018-03-29T02:23:10Z</time>
      </trkpt>
      <trkpt lat="49.19945" lon="4.17686">
        <ele>87</ele>
        <time>2018-03-29T02:24:10Z</time>
      </trkpt>
      <trkpt lat="49.1994" lon="4.17688">
        <ele>87</ele>
        <time>2018-03-29T02:25:10Z</time>
      </trkpt>
      <trkpt lat="49.19931" lon="4.177">
        <ele>87</ele>
        <time>2018-03-29T02:26:10Z</time>
      </trkpt>
      <trkpt lat="49.19916" lon="4.17725">
        <ele>88</ele>
        <time>2018-03-29T02:27:10Z</time>
      </trkpt>
      <trkpt lat="49.19889" lon="4.17774">
        <ele>88</ele>
        <time>2018-03-29T02:28:10Z</time>
      </trkpt>
      <trkpt lat="49.19779" lon="4.17991">
        <ele>88</ele>
        <time>2018-03-29T02:29:10Z</time>
      </trkpt>
      <trkpt lat="49.19776" lon="4.17997">
        <ele>88</ele>
        <time>2018-03-29T02:30:10Z</time>
      </trkpt>
      <trkpt lat="49.19756" lon="4.18037">
        <ele>89</ele>
        <time>2018-03-29T02:31:10Z</time>
      </trkpt>
      <trkpt lat="49.19709" lon="4.18138">
        <ele>90</ele>
        <time>2018-03-29T02:32:10Z</time>
      </trkpt>
      <trkpt lat="49.1969" lon="4.18177">
        <ele>89</ele>
        <time>2018-03-29T02:33:10Z</time>
      </trkpt>
      <trkpt lat="49.19669" lon="4.18224">
        <ele>88</ele>
        <time>2018-03-29T02:34:10Z</time>
      </trkpt>
      <trkpt lat="49.19667" lon="4.18233">
        <ele>88</ele>
        <time>2018-03-29T02:35:10Z</time>
      </trkpt>
      <trkpt lat="49.19662" lon="4.18285">
        <ele>89</ele>
        <time>2018-03-29T02:36:10Z</time>
      </trkpt>
      <trkpt lat="49.19655" lon="4.18338">
        <ele>90</ele>
        <time>2018-03-29T02:37:10Z</time>
      </trkpt>
      <trkpt lat="49.19651" lon="4.1837">
        <ele>89</ele>
        <time>2018-03-29T02:38:10Z</time>
      </trkpt>
      <trkpt lat="49.1965" lon="4.18397">
        <ele>89</ele>
        <time>2018-03-29T02:39:10Z</time>
      </trkpt>
      <trkpt lat="49.1965" lon="4.18497">
        <ele>89</ele>
        <time>2018-03-29T02:40:10Z</time>
      </trkpt>
      <trkpt lat="49.19646" lon="4.18526">
        <ele>89</ele>
        <time>2018-03-29T02:41:10Z</time>
      </trkpt>
      <trkpt lat="49.19641" lon="4.18546">
        <ele>89</ele>
        <time>2018-03-29T02:42:10Z</time>
      </trkpt>
      <trkpt lat="49.19634" lon="4.18567">
        <ele>89</ele>
        <time>2018-03-29T02:43:10Z</time>
      </trkpt>
      <trkpt lat="49.19619" lon="4.18611">
        <ele>90</ele>
        <time>2018-03-29T02:44:10Z</time>
      </trkpt>
      <trkpt lat="49.19591" lon="4.18704">
        <ele>90</ele>
        <time>2018-03-29T02:45:10Z</time>
      </trkpt>
      <trkpt lat="49.19584" lon="4.18725">
        <ele>89</ele>
        <time>2018-03-29T02:46:10Z</time>
      </trkpt>
      <trkpt lat="49.19581" lon="4.18737">
        <ele>89</ele>
        <time>2018-03-29T02:47:10Z</time>
      </trkpt>
      <trkpt lat="49.19553" lon="4.18827">
        <ele>89</ele>
        <time>2018-03-29T02:48:10Z</time>
      </trkpt>
      <trkpt lat="49.19549" lon="4.18839">
        <ele>89</ele>
        <time>2018-03-29T02:49:10Z</time>
      </trkpt>
      <trkpt lat="49.19535" lon="4.18886">
        <ele>89</ele>
        <time>2018-03-29T02:50:10Z</time>
      </trkpt>
      <trkpt lat="49.19528" lon="4.18904">
        <ele>89</ele>
        <time>2018-03-29T02:51:10Z</time>
      </trkpt>
      <trkpt lat="49.19521" lon="4.18923">
        <ele>89</ele>
        <time>2018-03-29T02:52:10Z</time>
      </trkpt>
      <trkpt lat="49.19457" lon="4.19064">
        <ele>89</ele>
        <time>2018-03-29T02:53:10Z</time>
      </trkpt>
      <trkpt lat="49.194" lon="4.19183">
        <ele>89</ele>
        <time>2018-03-29T02:54:10Z</time>
      </trkpt>
      <trkpt lat="49.19394" lon="4.19195">
        <ele>89</ele>
        <time>2018-03-29T02:55:10Z</time>
      </trkpt>
      <trkpt lat="49.19392" lon="4.19199">
        <ele>89</ele>
        <time>2018-03-29T02:56:10Z</time>
      </trkpt>
      <trkpt lat="49.1939" lon="4.19204">
        <ele>89</ele>
        <time>2018-03-29T02:57:10Z</time>
      </trkpt>
      <trkpt lat="49.19363" lon="4.1925">
        <ele>89</ele>
        <time>2018-03-29T02:58:10Z</time>
      </trkpt>
      <trkpt lat="49.19302" lon="4.19346">
        <ele>88</ele>
        <time>2018-03-29T02:59:10Z</time>
      </trkpt>
      <trkpt lat="49.19232" lon="4.19459">
        <ele>89</ele>
        <time>2018-03-29T03:00:10Z</time>
      </trkpt>
      <trkpt lat="49.19062" lon="4.19724">
        <ele>89</ele>
        <time>2018-03-29T03:01:10Z</time>
      </trkpt>
      <trkpt lat="49.19049" lon="4.19743">
        <ele>89</ele>
        <time>2018-03-29T03:02:10Z</time>
      </trkpt>
      <trkpt lat="49.19036" lon="4.19756">
        <ele>89</ele>
        <time>2018-03-29T03:03:10Z</time>
      </trkpt>
      <trkpt lat="49.1903" lon="4.19762">
        <ele>89</ele>
        <time>2018-03-29T03:04:10Z</time>
      </trkpt>
      <trkpt lat="49.19025" lon="4.19767">
        <ele>89</ele>
        <time>2018-03-29T03:05:10Z</time>
      </trkpt>
      <trkpt lat="49.1889" lon="4.19878">
        <ele>89</ele>
        <time>2018-03-29T03:06:10Z</time>
      </trkpt>
      <trkpt lat="49.18764" lon="4.1998">
        <ele>89</ele>
        <time>2018-03-29T03:07:10Z</time>
      </trkpt>
      <trkpt lat="49.18606" lon="4.20107">
        <ele>89</ele>
        <time>2018-03-29T03:08:10Z</time>
      </trkpt>
      <trkpt lat="49.18563" lon="4.20144">
        <ele>88</ele>
        <time>2018-03-29T03:09:10Z</time>
      </trkpt>
      <trkpt lat="49.18552" lon="4.20155">
        <ele>88</ele>
        <time>2018-03-29T03:10:10Z</time>
      </trkpt>
      <trkpt lat="49.18545" lon="4.20161">
        <ele>88</ele>
        <time>2018-03-29T03:11:10Z</time>
      </trkpt>
      <trkpt lat="49.18496" lon="4.20224">
        <ele>89</ele>
        <time>2018-03-29T03:12:10Z</time>
      </trkpt>
      <trkpt lat="49.18407" lon="4.20347">
        <ele>89</ele>
        <time>2018-03-29T03:13:10Z</time>
      </trkpt>
      <trkpt lat="49.18219" lon="4.20607">
        <ele>89</ele>
        <time>2018-03-29T03:14:10Z</time>
      </trkpt>
      <trkpt lat="49.18206" lon="4.20623">
        <ele>89</ele>
        <time>2018-03-29T03:15:10Z</time>
      </trkpt>
      <trkpt lat="49.18201" lon="4.20629">
        <ele>89</ele>
        <time>2018-03-29T03:16:10Z</time>
      </trkpt>
      <trkpt lat="49.18195" lon="4.20633">
        <ele>89</ele>
        <time>2018-03-29T03:17:10Z</time>
      </trkpt>
      <trkpt lat="49.18188" lon="4.20637">
        <ele>89</ele>
        <time>2018-03-29T03:18:10Z</time>
      </trkpt>
      <trkpt lat="49.18182" lon="4.20641">
        <ele>89</ele>
        <time>2018-03-29T03:19:10Z</time>
      </trkpt>
      <trkpt lat="49.1812" lon="4.20666">
        <ele>90</ele>
        <time>2018-03-29T03:20:10Z</time>
      </trkpt>
      <trkpt lat="49.18058" lon="4.20693">
        <ele>90</ele>
        <time>2018-03-29T03:21:10Z</time>
      </trkpt>
      <trkpt lat="49.18052" lon="4.20695">
        <ele>90</ele>
        <time>2018-03-29T03:22:10Z</time>
      </trkpt>
      <trkpt lat="49.18049" lon="4.207">
        <ele>90</ele>
        <time>2018-03-29T03:23:10Z</time>
      </trkpt>
      <trkpt lat="49.18045" lon="4.20704">
        <ele>90</ele>
        <time>2018-03-29T03:24:10Z</time>
      </trkpt>
      <trkpt lat="49.18041" lon="4.2071">
        <ele>90</ele>
        <time>2018-03-29T03:25:10Z</time>
      </trkpt>
      <trkpt lat="49.18038" lon="4.20715">
        <ele>90</ele>
        <time>2018-03-29T03:26:10Z</time>
      </trkpt>
      <trkpt lat="49.18021" lon="4.20742">
        <ele>90</ele>
        <time>2018-03-29T03:27:10Z</time>
      </trkpt>
      <trkpt lat="49.18002" lon="4.20778">
        <ele>90</ele>
        <time>2018-03-29T03:28:10Z</time>
      </trkpt>
      <trkpt lat="49.17982" lon="4.20812">
        <ele>90</ele>
        <time>2018-03-29T03:29:10Z</time>
      </trkpt>
      <trkpt lat="49.17942" lon="4.20886">
        <ele>90</ele>
        <time>2018-03-29T03:30:10Z</time>
      </trkpt>
      <trkpt lat="49.17871" lon="4.2101">
        <ele>90</ele>
        <time>2018-03-29T03:31:10Z</time>
      </trkpt>
      <trkpt lat="49.17824" lon="4.21088">
        <ele>90</ele>
        <time>2018-03-29T03:32:10Z</time>
      </trkpt>
      <trkpt lat="49.17787" lon="4.21155">
        <ele>90</ele>
        <time>2018-03-29T03:33:10Z</time>
      </trkpt>
      <trkpt lat="49.1772" lon="4.2128">
        <ele>90</ele>
        <time>2018-03-29T03:34:10Z</time>
      </trkpt>
      <trkpt lat="49.17672" lon="4.21358">
        <ele>90</ele>
        <time>2018-03-29T03:35:10Z</time>
      </trkpt>
      <trkpt lat="49.17668" lon="4.21365">
        <ele>90</ele>
        <time>2018-03-29T03:36:10Z</time>
      </trkpt>
      <trkpt lat="49.1766" lon="4.2138">
        <ele>90</ele>
        <time>2018-03-29T03:37:10Z</time>
      </trkpt>
      <trkpt lat="49.17655" lon="4.21392">
        <ele>90</ele>
        <time>2018-03-29T03:38:10Z</time>
      </trkpt>
      <trkpt lat="49.17652" lon="4.21397">
        <ele>90</ele>
        <time>2018-03-29T03:39:10Z</time>
      </trkpt>
      <trkpt lat="49.1765" lon="4.21404">
        <ele>90</ele>
        <time>2018-03-29T03:40:10Z</time>
      </trkpt>
      <trkpt lat="49.17648" lon="4.21413">
        <ele>90</ele>
        <time>2018-03-29T03:41:10Z</time>
      </trkpt>
      <trkpt lat="49.17648" lon="4.21423">
        <ele>90</ele>
        <time>2018-03-29T03:42:10Z</time>
      </trkpt>
      <trkpt lat="49.17649" lon="4.21435">
        <ele>90</ele>
        <time>2018-03-29T03:43:10Z</time>
      </trkpt>
      <trkpt lat="49.17653" lon="4.21454">
        <ele>90</ele>
        <time>2018-03-29T03:44:10Z</time>
      </trkpt>
      <trkpt lat="49.17663" lon="4.21514">
        <ele>90</ele>
        <time>2018-03-29T03:45:10Z</time>
      </trkpt>
      <trkpt lat="49.17676" lon="4.21586">
        <ele>91</ele>
        <time>2018-03-29T03:46:10Z</time>
      </trkpt>
      <trkpt lat="49.17687" lon="4.21643">
        <ele>93</ele>
        <time>2018-03-29T03:47:10Z</time>
      </trkpt>
      <trkpt lat="49.17686" lon="4.21644">
        <ele>93</ele>
        <time>2018-03-29T03:48:10Z</time>
      </trkpt>
      <trkpt lat="49.17685" lon="4.21644">
        <ele>93</ele>
        <time>2018-03-29T03:49:10Z</time>
      </trkpt>
      <trkpt lat="49.17685" lon="4.21645">
        <ele>93</ele>
        <time>2018-03-29T03:50:10Z</time>
      </trkpt>
      <trkpt lat="49.17684" lon="4.21645">
        <ele>93</ele>
        <time>2018-03-29T03:51:10Z</time>
      </trkpt>
      <trkpt lat="49.17684" lon="4.21646">
        <ele>93</ele>
        <time>2018-03-29T03:52:10Z</time>
      </trkpt>
      <trkpt lat="49.17683" lon="4.21646">
        <ele>93</ele>
        <time>2018-03-29T03:53:10Z</time>
      </trkpt>
      <trkpt lat="49.17683" lon="4.21647">
        <ele>93</ele>
        <time>2018-03-29T03:54:10Z</time>
      </trkpt>
      <trkpt lat="49.17682" lon="4.21648">
        <ele>93</ele>
        <time>2018-03-29T03:55:10Z</time>
      </trkpt>
      <trkpt lat="49.17682" lon="4.21649">
        <ele>93</ele>
        <time>2018-03-29T03:56:10Z</time>
      </trkpt>
      <trkpt lat="49.17682" lon="4.2165">
        <ele>93</ele>
        <time>2018-03-29T03:57:10Z</time>
      </trkpt>
      <trkpt lat="49.17681" lon="4.2165">
        <ele>93</ele>
        <time>2018-03-29T03:58:10Z</time>
      </trkpt>
      <trkpt lat="49.17681" lon="4.21651">
        <ele>93</ele>
        <time>2018-03-29T03:59:10Z</time>
      </trkpt>
      <trkpt lat="49.17681" lon="4.21652">
        <ele>93</ele>
        <time>2018-03-29T04:00:10Z</time>
      </trkpt>
      <trkpt lat="49.17681" lon="4.21653">
        <ele>93</ele>
        <time>2018-03-29T04:01:10Z</time>
      </trkpt>
      <trkpt lat="49.17681" lon="4.21654">
        <ele>93</ele>
        <time>2018-03-29T04:02:10Z</time>
      </trkpt>
      <trkpt lat="49.17681" lon="4.21655">
        <ele>93</ele>
        <time>2018-03-29T04:03:10Z</time>
      </trkpt>
      <trkpt lat="49.17681" lon="4.21656">
        <ele>93</ele>
        <time>2018-03-29T04:04:10Z</time>
      </trkpt>
      <trkpt lat="49.17681" lon="4.21657">
        <ele>93</ele>
        <time>2018-03-29T04:05:10Z</time>
      </trkpt>
      <trkpt lat="49.17681" lon="4.21658">
        <ele>93</ele>
        <time>2018-03-29T04:06:10Z</time>
      </trkpt>
      <trkpt lat="49.17681" lon="4.21659">
        <ele>93</ele>
        <time>2018-03-29T04:07:10Z</time>
      </trkpt>
      <trkpt lat="49.17681" lon="4.2166">
        <ele>93</ele>
        <time>2018-03-29T04:08:10Z</time>
      </trkpt>
      <trkpt lat="49.17681" lon="4.21661">
        <ele>93</ele>
        <time>2018-03-29T04:09:10Z</time>
      </trkpt>
      <trkpt lat="49.17682" lon="4.21661">
        <ele>93</ele>
        <time>2018-03-29T04:10:10Z</time>
      </trkpt>
      <trkpt lat="49.17682" lon="4.21662">
        <ele>93</ele>
        <time>2018-03-29T04:11:10Z</time>
      </trkpt>
      <trkpt lat="49.17682" lon="4.21663">
        <ele>94</ele>
        <time>2018-03-29T04:12:10Z</time>
      </trkpt>
      <trkpt lat="49.17683" lon="4.21664">
        <ele>94</ele>
        <time>2018-03-29T04:13:10Z</time>
      </trkpt>
      <trkpt lat="49.17683" lon="4.21665">
        <ele>94</ele>
        <time>2018-03-29T04:14:10Z</time>
      </trkpt>
      <trkpt lat="49.17684" lon="4.21665">
        <ele>94</ele>
        <time>2018-03-29T04:15:10Z</time>
      </trkpt>
      <trkpt lat="49.17684" lon="4.21666">
        <ele>94</ele>
        <time>2018-03-29T04:16:10Z</time>
      </trkpt>
      <trkpt lat="49.17685" lon="4.21666">
        <ele>94</ele>
        <time>2018-03-29T04:17:10Z</time>
      </trkpt>
      <trkpt lat="49.17685" lon="4.21667">
        <ele>94</ele>
        <time>2018-03-29T04:18:10Z</time>
      </trkpt>
      <trkpt lat="49.17686" lon="4.21667">
        <ele>94</ele>
        <time>2018-03-29T04:19:10Z</time>
      </trkpt>
      <trkpt lat="49.17686" lon="4.21668">
        <ele>94</ele>
        <time>2018-03-29T04:20:10Z</time>
      </trkpt>
      <trkpt lat="49.17687" lon="4.21668">
        <ele>94</ele>
        <time>2018-03-29T04:21:10Z</time>
      </trkpt>
      <trkpt lat="49.17688" lon="4.21668">
        <ele>93</ele>
        <time>2018-03-29T04:22:10Z</time>
      </trkpt>
      <trkpt lat="49.17689" lon="4.21668">
        <ele>93</ele>
        <time>2018-03-29T04:23:10Z</time>
      </trkpt>
      <trkpt lat="49.1769" lon="4.21668">
        <ele>93</ele>
        <time>2018-03-29T04:24:10Z</time>
      </trkpt>
      <trkpt lat="49.17697" lon="4.21883">
        <ele>91</ele>
        <time>2018-03-29T04:25:10Z</time>
      </trkpt>
      <trkpt lat="49.17697" lon="4.21883">
        <ele>91</ele>
        <time>2018-03-29T04:26:10Z</time>
      </trkpt>
      <trkpt lat="49.1769" lon="4.21888">
        <ele>91</ele>
        <time>2018-03-29T04:27:10Z</time>
      </trkpt>
      <trkpt lat="49.17685" lon="4.21891">
        <ele>91</ele>
        <time>2018-03-29T04:28:10Z</time>
      </trkpt>
      <trkpt lat="49.17681" lon="4.21895">
        <ele>91</ele>
        <time>2018-03-29T04:29:10Z</time>
      </trkpt>
      <trkpt lat="49.17678" lon="4.21899">
        <ele>91</ele>
        <time>2018-03-29T04:30:10Z</time>
      </trkpt>
      <trkpt lat="49.17668" lon="4.21916">
        <ele>91</ele>
        <time>2018-03-29T04:31:10Z</time>
      </trkpt>
      <trkpt lat="49.1763" lon="4.21985">
        <ele>91</ele>
        <time>2018-03-29T04:32:10Z</time>
      </trkpt>
      <trkpt lat="49.17594" lon="4.2205">
        <ele>92</ele>
        <time>2018-03-29T04:33:10Z</time>
      </trkpt>
      <trkpt lat="49.17584" lon="4.22071">
        <ele>93</ele>
        <time>2018-03-29T04:34:10Z</time>
      </trkpt>
      <trkpt lat="49.17574" lon="4.22094">
        <ele>93</ele>
        <time>2018-03-29T04:35:10Z</time>
      </trkpt>
      <trkpt lat="49.17568" lon="4.2211">
        <ele>92</ele>
        <time>2018-03-29T04:36:10Z</time>
      </trkpt>
      <trkpt lat="49.17551" lon="4.22156">
        <ele>92</ele>
        <time>2018-03-29T04:37:10Z</time>
      </trkpt>
      <trkpt lat="49.17533" lon="4.22208">
        <ele>92</ele>
        <time>2018-03-29T04:38:10Z</time>
      </trkpt>
      <trkpt lat="49.17506" lon="4.22303">
        <ele>92</ele>
        <time>2018-03-29T04:39:10Z</time>
      </trkpt>
      <trkpt lat="49.17503" lon="4.22311">
        <ele>92</ele>
        <time>2018-03-29T04:40:10Z</time>
      </trkpt>
      <trkpt lat="49.175" lon="4.22322">
        <ele>92</ele>
        <time>2018-03-29T04:41:10Z</time>
      </trkpt>
      <trkpt lat="49.17487" lon="4.22345">
        <ele>92</ele>
        <time>2018-03-29T04:42:10Z</time>
      </trkpt>
      <trkpt lat="49.17471" lon="4.2238">
        <ele>92</ele>
        <time>2018-03-29T04:43:10Z</time>
      </trkpt>
      <trkpt lat="49.17455" lon="4.22415">
        <ele>92</ele>
        <time>2018-03-29T04:44:10Z</time>
      </trkpt>
      <trkpt lat="49.17449" lon="4.22428">
        <ele>92</ele>
        <time>2018-03-29T04:45:10Z</time>
      </trkpt>
      <trkpt lat="49.17442" lon="4.22447">
        <ele>92</ele>
        <time>2018-03-29T04:46:10Z</time>
      </trkpt>
      <trkpt lat="49.17435" lon="4.22465">
        <ele>92</ele>
        <time>2018-03-29T04:47:10Z</time>
      </trkpt>
      <trkpt lat="49.17413" lon="4.22529">
        <ele>92</ele>
        <time>2018-03-29T04:48:10Z</time>
      </trkpt>
      <trkpt lat="49.17393" lon="4.22597">
        <ele>93</ele>
        <time>2018-03-29T04:49:10Z</time>
      </trkpt>
      <trkpt lat="49.17391" lon="4.22601">
        <ele>93</ele>
        <time>2018-03-29T04:50:10Z</time>
      </trkpt>
      <trkpt lat="49.17388" lon="4.22606">
        <ele>93</ele>
        <time>2018-03-29T04:51:10Z</time>
      </trkpt>
      <trkpt lat="49.17385" lon="4.22609">
        <ele>93</ele>
        <time>2018-03-29T04:52:10Z</time>
      </trkpt>
      <trkpt lat="49.17381" lon="4.22612">
        <ele>93</ele>
        <time>2018-03-29T04:53:10Z</time>
      </trkpt>
      <trkpt lat="49.17377" lon="4.22614">
        <ele>93</ele>
        <time>2018-03-29T04:54:10Z</time>
      </trkpt>
      <trkpt lat="49.17372" lon="4.22615">
        <ele>93</ele>
        <time>2018-03-29T04:55:10Z</time>
      </trkpt>
      <trkpt lat="49.17368" lon="4.22615">
        <ele>93</ele>
        <time>2018-03-29T04:56:10Z</time>
      </trkpt>
      <trkpt lat="49.17364" lon="4.22615">
        <ele>93</ele>
        <time>2018-03-29T04:57:10Z</time>
      </trkpt>
      <trkpt lat="49.17359" lon="4.22614">
        <ele>93</ele>
        <time>2018-03-29T04:58:10Z</time>
      </trkpt>
      <trkpt lat="49.17352" lon="4.2261">
        <ele>93</ele>
        <time>2018-03-29T04:59:10Z</time>
      </trkpt>
      <trkpt lat="49.1731" lon="4.2258">
        <ele>93</ele>
        <time>2018-03-29T05:00:10Z</time>
      </trkpt>
      <trkpt lat="49.17302" lon="4.22574">
        <ele>93</ele>
        <time>2018-03-29T05:01:10Z</time>
      </trkpt>
      <trkpt lat="49.17255" lon="4.22542">
        <ele>92</ele>
        <time>2018-03-29T05:02:10Z</time>
      </trkpt>
      <trkpt lat="49.17241" lon="4.22535">
        <ele>92</ele>
        <time>2018-03-29T05:03:10Z</time>
      </trkpt>
      <trkpt lat="49.17241" lon="4.22535">
        <ele>92</ele>
        <time>2018-03-29T05:04:10Z</time>
      </trkpt>
      <trkpt lat="49.17233" lon="4.22549">
        <ele>92</ele>
        <time>2018-03-29T05:05:10Z</time>
      </trkpt>
      <trkpt lat="49.17222" lon="4.22571">
        <ele>92</ele>
        <time>2018-03-29T05:06:10Z</time>
      </trkpt>
      <trkpt lat="49.17217" lon="4.22583">
        <ele>92</ele>
        <time>2018-03-29T05:07:10Z</time>
      </trkpt>
      <trkpt lat="49.17149" lon="4.22744">
        <ele>92</ele>
        <time>2018-03-29T05:08:10Z</time>
      </trkpt>
      <trkpt lat="49.17076" lon="4.22921">
        <ele>91</ele>
        <time>2018-03-29T05:09:10Z</time>
      </trkpt>
      <trkpt lat="49.16901" lon="4.23339">
        <ele>92</ele>
        <time>2018-03-29T05:10:10Z</time>
      </trkpt>
      <trkpt lat="49.16868" lon="4.23419">
        <ele>91</ele>
        <time>2018-03-29T05:11:10Z</time>
      </trkpt>
      <trkpt lat="49.16859" lon="4.23439">
        <ele>91</ele>
        <time>2018-03-29T05:12:10Z</time>
      </trkpt>
      <trkpt lat="49.16858" lon="4.23441">
        <ele>91</ele>
        <time>2018-03-29T05:13:10Z</time>
      </trkpt>
      <trkpt lat="49.16853" lon="4.23453">
        <ele>91</ele>
        <time>2018-03-29T05:14:10Z</time>
      </trkpt>
      <trkpt lat="49.16846" lon="4.23467">
        <ele>91</ele>
        <time>2018-03-29T05:15:10Z</time>
      </trkpt>
      <trkpt lat="49.16839" lon="4.23478">
        <ele>91</ele>
        <time>2018-03-29T05:16:10Z</time>
      </trkpt>
      <trkpt lat="49.16829" lon="4.23494">
        <ele>91</ele>
        <time>2018-03-29T05:17:10Z</time>
      </trkpt>
      <trkpt lat="49.16822" lon="4.23504">
        <ele>91</ele>
        <time>2018-03-29T05:18:10Z</time>
      </trkpt>
      <trkpt lat="49.16813" lon="4.23514">
        <ele>91</ele>
        <time>2018-03-29T05:19:10Z</time>
      </trkpt>
      <trkpt lat="49.16755" lon="4.2358">
        <ele>91</ele>
        <time>2018-03-29T05:20:10Z</time>
      </trkpt>
      <trkpt lat="49.16603" lon="4.23751">
        <ele>91</ele>
        <time>2018-03-29T05:21:10Z</time>
      </trkpt>
      <trkpt lat="49.16514" lon="4.2385">
        <ele>93</ele>
        <time>2018-03-29T05:22:10Z</time>
      </trkpt>
      <trkpt lat="49.16373" lon="4.24008">
        <ele>92</ele>
        <time>2018-03-29T05:23:10Z</time>
      </trkpt>
      <trkpt lat="49.16369" lon="4.24012">
        <ele>92</ele>
        <time>2018-03-29T05:24:10Z</time>
      </trkpt>
      <trkpt lat="49.16138" lon="4.24274">
        <ele>93</ele>
        <time>2018-03-29T05:25:10Z</time>
      </trkpt>
      <trkpt lat="49.16017" lon="4.24412">
        <ele>97</ele>
        <time>2018-03-29T05:26:10Z</time>
      </trkpt>
      <trkpt lat="49.15901" lon="4.24542">
        <ele>94</ele>
        <time>2018-03-29T05:27:10Z</time>
      </trkpt>
      <trkpt lat="49.15875" lon="4.24572">
        <ele>93</ele>
        <time>2018-03-29T05:28:10Z</time>
      </trkpt>
      <trkpt lat="49.15868" lon="4.2458">
        <ele>93</ele>
        <time>2018-03-29T05:29:10Z</time>
      </trkpt>
      <trkpt lat="49.15821" lon="4.24632">
        <ele>93</ele>
        <time>2018-03-29T05:30:10Z</time>
      </trkpt>
      <trkpt lat="49.1576" lon="4.24702">
        <ele>93</ele>
        <time>2018-03-29T05:31:10Z</time>
      </trkpt>
      <trkpt lat="49.15738" lon="4.24726">
        <ele>93</ele>
        <time>2018-03-29T05:32:10Z</time>
      </trkpt>
      <trkpt lat="49.15726" lon="4.2474">
        <ele>93</ele>
        <time>2018-03-29T05:33:10Z</time>
      </trkpt>
      <trkpt lat="49.15713" lon="4.24753">
        <ele>93</ele>
        <time>2018-03-29T05:34:10Z</time>
      </trkpt>
      <trkpt lat="49.15708" lon="4.24758">
        <ele>93</ele>
        <time>2018-03-29T05:35:10Z</time>
      </trkpt>
      <trkpt lat="49.15655" lon="4.24812">
        <ele>93</ele>
        <time>2018-03-29T05:36:10Z</time>
      </trkpt>
      <trkpt lat="49.15628" lon="4.24832">
        <ele>93</ele>
        <time>2018-03-29T05:37:10Z</time>
      </trkpt>
      <trkpt lat="49.15583" lon="4.24874">
        <ele>92</ele>
        <time>2018-03-29T05:38:10Z</time>
      </trkpt>
      <trkpt lat="49.15506" lon="4.24961">
        <ele>93</ele>
        <time>2018-03-29T05:39:10Z</time>
      </trkpt>
      <trkpt lat="49.15488" lon="4.24978">
        <ele>94</ele>
        <time>2018-03-29T05:40:10Z</time>
      </trkpt>
      <trkpt lat="49.15479" lon="4.24985">
        <ele>94</ele>
        <time>2018-03-29T05:41:10Z</time>
      </trkpt>
      <trkpt lat="49.15456" lon="4.25005">
        <ele>94</ele>
        <time>2018-03-29T05:42:10Z</time>
      </trkpt>
      <trkpt lat="49.15438" lon="4.25018">
        <ele>94</ele>
        <time>2018-03-29T05:43:10Z</time>
      </trkpt>
      <trkpt lat="49.15431" lon="4.25024">
        <ele>94</ele>
        <time>2018-03-29T05:44:10Z</time>
      </trkpt>
      <trkpt lat="49.15407" lon="4.25039">
        <ele>94</ele>
        <time>2018-03-29T05:45:10Z</time>
      </trkpt>
      <trkpt lat="49.1539" lon="4.25051">
        <ele>94</ele>
        <time>2018-03-29T05:46:10Z</time>
      </trkpt>
      <trkpt lat="49.15375" lon="4.25058">
        <ele>94</ele>
        <time>2018-03-29T05:47:10Z</time>
      </trkpt>
      <trkpt lat="49.15367" lon="4.25062">
        <ele>94</ele>
        <time>2018-03-29T05:48:10Z</time>
      </trkpt>
      <trkpt lat="49.15364" lon="4.25065">
        <ele>94</ele>
        <time>2018-03-29T05:49:10Z</time>
      </trkpt>
      <trkpt lat="49.15349" lon="4.25089">
        <ele>93</ele>
        <time>2018-03-29T05:50:10Z</time>
      </trkpt>
      <trkpt lat="49.15349" lon="4.25089">
        <ele>93</ele>
        <time>2018-03-29T05:51:10Z</time>
      </trkpt>
      <trkpt lat="49.15348" lon="4.25089">
        <ele>93</ele>
        <time>2018-03-29T05:52:10Z</time>
      </trkpt>
      <trkpt lat="49.15347" lon="4.25089">
        <ele>93</ele>
        <time>2018-03-29T05:53:10Z</time>
      </trkpt>
      <trkpt lat="49.15346" lon="4.25089">
        <ele>93</ele>
        <time>2018-03-29T05:54:10Z</time>
      </trkpt>
      <trkpt lat="49.15345" lon="4.25089">
        <ele>93</ele>
        <time>2018-03-29T05:55:10Z</time>
      </trkpt>
      <trkpt lat="49.15345" lon="4.2509">
        <ele>93</ele>
        <time>2018-03-29T05:56:10Z</time>
      </trkpt>
      <trkpt lat="49.15344" lon="4.2509">
        <ele>93</ele>
        <time>2018-03-29T05:57:10Z</time>
      </trkpt>
      <trkpt lat="49.15343" lon="4.25091">
        <ele>93</ele>
        <time>2018-03-29T05:58:10Z</time>
      </trkpt>
      <trkpt lat="49.15326" lon="4.25089">
        <ele>93</ele>
        <time>2018-03-29T05:59:10Z</time>
      </trkpt>
      <trkpt lat="49.15318" lon="4.25088">
        <ele>93</ele>
        <time>2018-03-29T06:00:10Z</time>
      </trkpt>
      <trkpt lat="49.15311" lon="4.25089">
        <ele>93</ele>
        <time>2018-03-29T06:01:10Z</time>
      </trkpt>
      <trkpt lat="49.15309" lon="4.2509">
        <ele>93</ele>
        <time>2018-03-29T06:02:10Z</time>
      </trkpt>
      <trkpt lat="49.15305" lon="4.25091">
        <ele>93</ele>
        <time>2018-03-29T06:03:10Z</time>
      </trkpt>
      <trkpt lat="49.15252" lon="4.25113">
        <ele>93</ele>
        <time>2018-03-29T06:04:10Z</time>
      </trkpt>
      <trkpt lat="49.15234" lon="4.25119">
        <ele>93</ele>
        <time>2018-03-29T06:05:10Z</time>
      </trkpt>
      <trkpt lat="49.15219" lon="4.25124">
        <ele>93</ele>
        <time>2018-03-29T06:06:10Z</time>
      </trkpt>
      <trkpt lat="49.15198" lon="4.25133">
        <ele>94</ele>
        <time>2018-03-29T06:07:10Z</time>
      </trkpt>
      <trkpt lat="49.15161" lon="4.25159">
        <ele>93</ele>
        <time>2018-03-29T06:08:10Z</time>
      </trkpt>
      <trkpt lat="49.15132" lon="4.25175">
        <ele>93</ele>
        <time>2018-03-29T06:09:10Z</time>
      </trkpt>
      <trkpt lat="49.15128" lon="4.25177">
        <ele>93</ele>
        <time>2018-03-29T06:10:10Z</time>
      </trkpt>
      <trkpt lat="49.15088" lon="4.25201">
        <ele>93</ele>
        <time>2018-03-29T06:11:10Z</time>
      </trkpt>
      <trkpt lat="49.15086" lon="4.25202">
        <ele>93</ele>
        <time>2018-03-29T06:12:10Z</time>
      </trkpt>
      <trkpt lat="49.15074" lon="4.25203">
        <ele>93</ele>
        <time>2018-03-29T06:13:10Z</time>
      </trkpt>
      <trkpt lat="49.15052" lon="4.25199">
        <ele>93</ele>
        <time>2018-03-29T06:14:10Z</time>
      </trkpt>
      <trkpt lat="49.15044" lon="4.252">
        <ele>93</ele>
        <time>2018-03-29T06:15:10Z</time>
      </trkpt>
      <trkpt lat="49.15032" lon="4.25208">
        <ele>94</ele>
        <time>2018-03-29T06:16:10Z</time>
      </trkpt>
      <trkpt lat="49.15013" lon="4.25223">
        <ele>94</ele>
        <time>2018-03-29T06:17:10Z</time>
      </trkpt>
      <trkpt lat="49.14996" lon="4.25234">
        <ele>94</ele>
        <time>2018-03-29T06:18:10Z</time>
      </trkpt>
      <trkpt lat="49.14978" lon="4.25239">
        <ele>94</ele>
        <time>2018-03-29T06:19:10Z</time>
      </trkpt>
      <trkpt lat="49.14965" lon="4.25241">
        <ele>94</ele>
        <time>2018-03-29T06:20:10Z</time>
      </trkpt>
      <trkpt lat="49.14952" lon="4.25243">
        <ele>94</ele>
        <time>2018-03-29T06:21:10Z</time>
      </trkpt>
      <trkpt lat="49.14938" lon="4.25246">
        <ele>93</ele>
        <time>2018-03-29T06:22:10Z</time>
      </trkpt>
      <trkpt lat="49.14925" lon="4.25251">
        <ele>93</ele>
        <time>2018-03-29T06:23:10Z</time>
      </trkpt>
      <trkpt lat="49.14916" lon="4.25255">
        <ele>93</ele>
        <time>2018-03-29T06:24:10Z</time>
      </trkpt>
      <trkpt lat="49.14846" lon="4.25301">
        <ele>94</ele>
        <time>2018-03-29T06:25:10Z</time>
      </trkpt>
      <trkpt lat="49.14842" lon="4.25305">
        <ele>94</ele>
        <time>2018-03-29T06:26:10Z</time>
      </trkpt>
      <trkpt lat="49.14812" lon="4.2533">
        <ele>95</ele>
        <time>2018-03-29T06:27:10Z</time>
      </trkpt>
      <trkpt lat="49.14729" lon="4.254">
        <ele>94</ele>
        <time>2018-03-29T06:28:10Z</time>
      </trkpt>
      <trkpt lat="49.14685" lon="4.2544">
        <ele>94</ele>
        <time>2018-03-29T06:29:10Z</time>
      </trkpt>
      <trkpt lat="49.14673" lon="4.25452">
        <ele>94</ele>
        <time>2018-03-29T06:30:10Z</time>
      </trkpt>
      <trkpt lat="49.14669" lon="4.25458">
        <ele>94</ele>
        <time>2018-03-29T06:31:10Z</time>
      </trkpt>
      <trkpt lat="49.14664" lon="4.25467">
        <ele>95</ele>
        <time>2018-03-29T06:32:10Z</time>
      </trkpt>
      <trkpt lat="49.14662" lon="4.25471">
        <ele>95</ele>
        <time>2018-03-29T06:33:10Z</time>
      </trkpt>
      <trkpt lat="49.14659" lon="4.25476">
        <ele>95</ele>
        <time>2018-03-29T06:34:10Z</time>
      </trkpt>
      <trkpt lat="49.14659" lon="4.25478">
        <ele>95</ele>
        <time>2018-03-29T06:35:10Z</time>
      </trkpt>
      <trkpt lat="49.14656" lon="4.25486">
        <ele>95</ele>
        <time>2018-03-29T06:36:10Z</time>
      </trkpt>
      <trkpt lat="49.14652" lon="4.25499">
        <ele>95</ele>
        <time>2018-03-29T06:37:10Z</time>
      </trkpt>
      <trkpt lat="49.14633" lon="4.25568">
        <ele>95</ele>
        <time>2018-03-29T06:38:10Z</time>
      </trkpt>
      <trkpt lat="49.14628" lon="4.25586">
        <ele>95</ele>
        <time>2018-03-29T06:39:10Z</time>
      </trkpt>
      <trkpt lat="49.14623" lon="4.2559">
        <ele>94</ele>
        <time>2018-03-29T06:40:10Z</time>
      </trkpt>
      <trkpt lat="49.14567" lon="4.2563">
        <ele>94</ele>
        <time>2018-03-29T06:41:10Z</time>
      </trkpt>
      <trkpt lat="49.14516" lon="4.25674">
        <ele>93</ele>
        <time>2018-03-29T06:42:10Z</time>
      </trkpt>
      <trkpt lat="49.14514" lon="4.25677">
        <ele>93</ele>
        <time>2018-03-29T06:43:10Z</time>
      </trkpt>
      <trkpt lat="49.14509" lon="4.25684">
        <ele>93</ele>
        <time>2018-03-29T06:44:10Z</time>
      </trkpt>
      <trkpt lat="49.14501" lon="4.25702">
        <ele>93</ele>
        <time>2018-03-29T06:45:10Z</time>
      </trkpt>
      <trkpt lat="49.14496" lon="4.25719">
        <ele>94</ele>
        <time>2018-03-29T06:46:10Z</time>
      </trkpt>
      <trkpt lat="49.14493" lon="4.25727">
        <ele>94</ele>
        <time>2018-03-29T06:47:10Z</time>
      </trkpt>
      <trkpt lat="49.14487" lon="4.25766">
        <ele>94</ele>
        <time>2018-03-29T06:48:10Z</time>
      </trkpt>
      <trkpt lat="49.14484" lon="4.25795">
        <ele>94</ele>
        <time>2018-03-29T06:49:10Z</time>
      </trkpt>
      <trkpt lat="49.14481" lon="4.25825">
        <ele>94</ele>
        <time>2018-03-29T06:50:10Z</time>
      </trkpt>
      <trkpt lat="49.14477" lon="4.25845">
        <ele>94</ele>
        <time>2018-03-29T06:51:10Z</time>
      </trkpt>
      <trkpt lat="49.14474" lon="4.25863">
        <ele>94</ele>
        <time>2018-03-29T06:52:10Z</time>
      </trkpt>
      <trkpt lat="49.1444" lon="4.25977">
        <ele>94</ele>
        <time>2018-03-29T06:53:10Z</time>
      </trkpt>
      <trkpt lat="49.14412" lon="4.26066">
        <ele>96</ele>
        <time>2018-03-29T06:54:10Z</time>
      </trkpt>
      <trkpt lat="49.14395" lon="4.26124">
        <ele>96</ele>
        <time>2018-03-29T06:55:10Z</time>
      </trkpt>
      <trkpt lat="49.14372" lon="4.26198">
        <ele>96</ele>
        <time>2018-03-29T06:56:10Z</time>
      </trkpt>
      <trkpt lat="49.14355" lon="4.26254">
        <ele>96</ele>
        <time>2018-03-29T06:57:10Z</time>
      </trkpt>
      <trkpt lat="49.14331" lon="4.26339">
        <ele>97</ele>
        <time>2018-03-29T06:58:10Z</time>
      </trkpt>
      <trkpt lat="49.14292" lon="4.26466">
        <ele>99</ele>
        <time>2018-03-29T06:59:10Z</time>
      </trkpt>
      <trkpt lat="49.14287" lon="4.26481">
        <ele>99</ele>
        <time>2018-03-29T07:00:10Z</time>
      </trkpt>
      <trkpt lat="49.14221" lon="4.26698">
        <ele>99</ele>
        <time>2018-03-29T07:01:10Z</time>
      </trkpt>
      <trkpt lat="49.14198" lon="4.26764">
        <ele>100</ele>
        <time>2018-03-29T07:02:10Z</time>
      </trkpt>
      <trkpt lat="49.14175" lon="4.26821">
        <ele>101</ele>
        <time>2018-03-29T07:03:10Z</time>
      </trkpt>
      <trkpt lat="49.14148" lon="4.26871">
        <ele>101</ele>
        <time>2018-03-29T07:04:10Z</time>
      </trkpt>
      <trkpt lat="49.14111" lon="4.26929">
        <ele>101</ele>
        <time>2018-03-29T07:05:10Z</time>
      </trkpt>
      <trkpt lat="49.14012" lon="4.2707">
        <ele>104</ele>
        <time>2018-03-29T07:06:10Z</time>
      </trkpt>
      <trkpt lat="49.13994" lon="4.27099">
        <ele>104</ele>
        <time>2018-03-29T07:07:10Z</time>
      </trkpt>
      <trkpt lat="49.13965" lon="4.27145">
        <ele>104</ele>
        <time>2018-03-29T07:08:10Z</time>
      </trkpt>
      <trkpt lat="49.13922" lon="4.27219">
        <ele>105</ele>
        <time>2018-03-29T07:09:10Z</time>
      </trkpt>
      <trkpt lat="49.13885" lon="4.27286">
        <ele>106</ele>
        <time>2018-03-29T07:10:10Z</time>
      </trkpt>
      <trkpt lat="49.13854" lon="4.2735">
        <ele>106</ele>
        <time>2018-03-29T07:11:10Z</time>
      </trkpt>
      <trkpt lat="49.1383" lon="4.274">
        <ele>106</ele>
        <time>2018-03-29T07:12:10Z</time>
      </trkpt>
      <trkpt lat="49.13823" lon="4.27413">
        <ele>106</ele>
        <time>2018-03-29T07:13:10Z</time>
      </trkpt>
      <trkpt lat="49.1382" lon="4.27419">
        <ele>106</ele>
        <time>2018-03-29T07:14:10Z</time>
      </trkpt>
      <trkpt lat="49.13812" lon="4.27433">
        <ele>106</ele>
        <time>2018-03-29T07:15:10Z</time>
      </trkpt>
      <trkpt lat="49.13805" lon="4.27445">
        <ele>105</ele>
        <time>2018-03-29T07:16:10Z</time>
      </trkpt>
      <trkpt lat="49.13803" lon="4.27447">
        <ele>105</ele>
        <time>2018-03-29T07:17:10Z</time>
      </trkpt>
      <trkpt lat="49.13789" lon="4.27472">
        <ele>105</ele>
        <time>2018-03-29T07:18:10Z</time>
      </trkpt>
      <trkpt lat="49.13781" lon="4.27482">
        <ele>104</ele>
        <time>2018-03-29T07:19:10Z</time>
      </trkpt>
      <trkpt lat="49.13774" lon="4.27493">
        <ele>104</ele>
        <time>2018-03-29T07:20:10Z</time>
      </trkpt>
      <trkpt lat="49.13741" lon="4.2754">
        <ele>103</ele>
        <time>2018-03-29T07:21:10Z</time>
      </trkpt>
      <trkpt lat="49.13707" lon="4.27591">
        <ele>103</ele>
        <time>2018-03-29T07:22:10Z</time>
      </trkpt>
      <trkpt lat="49.13657" lon="4.27663">
        <ele>102</ele>
        <time>2018-03-29T07:23:10Z</time>
      </trkpt>
      <trkpt lat="49.13625" lon="4.27708">
        <ele>102</ele>
        <time>2018-03-29T07:24:10Z</time>
      </trkpt>
      <trkpt lat="49.13594" lon="4.27753">
        <ele>102</ele>
        <time>2018-03-29T07:25:10Z</time>
      </trkpt>
      <trkpt lat="49.13579" lon="4.27775">
        <ele>102</ele>
        <time>2018-03-29T07:26:10Z</time>
      </trkpt>
      <trkpt lat="49.13571" lon="4.27792">
        <ele>101</ele>
        <time>2018-03-29T07:27:10Z</time>
      </trkpt>
      <trkpt lat="49.13563" lon="4.27809">
        <ele>101</ele>
        <time>2018-03-29T07:28:10Z</time>
      </trkpt>
      <trkpt lat="49.13556" lon="4.27829">
        <ele>101</ele>
        <time>2018-03-29T07:29:10Z</time>
      </trkpt>
      <trkpt lat="49.13547" lon="4.27861">
        <ele>100</ele>
        <time>2018-03-29T07:30:10Z</time>
      </trkpt>
      <trkpt lat="49.13542" lon="4.2789">
        <ele>100</ele>
        <time>2018-03-29T07:31:10Z</time>
      </trkpt>
      <trkpt lat="49.13527" lon="4.28">
        <ele>101</ele>
        <time>2018-03-29T07:32:10Z</time>
      </trkpt>
      <trkpt lat="49.13487" lon="4.28307">
        <ele>104</ele>
        <time>2018-03-29T07:33:10Z</time>
      </trkpt>
      <trkpt lat="49.13457" lon="4.28531">
        <ele>106</ele>
        <time>2018-03-29T07:34:10Z</time>
      </trkpt>
      <trkpt lat="49.13453" lon="4.28558">
        <ele>106</ele>
        <time>2018-03-29T07:35:10Z</time>
      </trkpt>
      <trkpt lat="49.13419" lon="4.28811">
        <ele>106</ele>
        <time>2018-03-29T07:36:10Z</time>
      </trkpt>
      <trkpt lat="49.1339" lon="4.29041">
        <ele>106</ele>
        <time>2018-03-29T07:37:10Z</time>
      </trkpt>
      <trkpt lat="49.13382" lon="4.29101">
        <ele>106</ele>
        <time>2018-03-29T07:38:10Z</time>
      </trkpt>
      <trkpt lat="49.1338" lon="4.29108">
        <ele>106</ele>
        <time>2018-03-29T07:39:10Z</time>
      </trkpt>
      <trkpt lat="49.13377" lon="4.29125">
        <ele>106</ele>
        <time>2018-03-29T07:40:10Z</time>
      </trkpt>
      <trkpt lat="49.13374" lon="4.29138">
        <ele>106</ele>
        <time>2018-03-29T07:41:10Z</time>
      </trkpt>
      <trkpt lat="49.13367" lon="4.29161">
        <ele>105</ele>
        <time>2018-03-29T07:42:10Z</time>
      </trkpt>
      <trkpt lat="49.13349" lon="4.29219">
        <ele>105</ele>
        <time>2018-03-29T07:43:10Z</time>
      </trkpt>
      <trkpt lat="49.1329" lon="4.29402">
        <ele>104</ele>
        <time>2018-03-29T07:44:10Z</time>
      </trkpt>
      <trkpt lat="49.1323" lon="4.2959">
        <ele>102</ele>
        <time>2018-03-29T07:45:10Z</time>
      </trkpt>
      <trkpt lat="49.13149" lon="4.29841">
        <ele>104</ele>
        <time>2018-03-29T07:46:10Z</time>
      </trkpt>
      <trkpt lat="49.13096" lon="4.30007">
        <ele>103</ele>
        <time>2018-03-29T07:47:10Z</time>
      </trkpt>
      <trkpt lat="49.1308" lon="4.30055">
        <ele>103</ele>
        <time>2018-03-29T07:48:10Z</time>
      </trkpt>
      <trkpt lat="49.13042" lon="4.30172">
        <ele>103</ele>
        <time>2018-03-29T07:49:10Z</time>
      </trkpt>
      <trkpt lat="49.12989" lon="4.30333">
        <ele>104</ele>
        <time>2018-03-29T07:50:10Z</time>
      </trkpt>
      <trkpt lat="49.12954" lon="4.3044">
        <ele>102</ele>
        <time>2018-03-29T07:51:10Z</time>
      </trkpt>
      <trkpt lat="49.12923" lon="4.30536">
        <ele>102</ele>
        <time>2018-03-29T07:52:10Z</time>
      </trkpt>
      <trkpt lat="49.12918" lon="4.30551">
        <ele>102</ele>
        <time>2018-03-29T07:53:10Z</time>
      </trkpt>
      <trkpt lat="49.12916" lon="4.30559">
        <ele>102</ele>
        <time>2018-03-29T07:54:10Z</time>
      </trkpt>
      <trkpt lat="49.12915" lon="4.30574">
        <ele>102</ele>
        <time>2018-03-29T07:55:10Z</time>
      </trkpt>
      <trkpt lat="49.12916" lon="4.30593">
        <ele>102</ele>
        <time>2018-03-29T07:56:10Z</time>
      </trkpt>
      <trkpt lat="49.1292" lon="4.30626">
        <ele>103</ele>
        <time>2018-03-29T07:57:10Z</time>
      </trkpt>
      <trkpt lat="49.12923" lon="4.30685">
        <ele>103</ele>
        <time>2018-03-29T07:58:10Z</time>
      </trkpt>
      <trkpt lat="49.12923" lon="4.30688">
        <ele>103</ele>
        <time>2018-03-29T07:59:10Z</time>
      </trkpt>
      <trkpt lat="49.12924" lon="4.30722">
        <ele>102</ele>
        <time>2018-03-29T08:00:10Z</time>
      </trkpt>
      <trkpt lat="49.12924" lon="4.30741">
        <ele>101</ele>
        <time>2018-03-29T08:01:10Z</time>
      </trkpt>
      <trkpt lat="49.12925" lon="4.30758">
        <ele>101</ele>
        <time>2018-03-29T08:02:10Z</time>
      </trkpt>
      <trkpt lat="49.12929" lon="4.30779">
        <ele>101</ele>
        <time>2018-03-29T08:03:10Z</time>
      </trkpt>
      <trkpt lat="49.12933" lon="4.30799">
        <ele>102</ele>
        <time>2018-03-29T08:04:10Z</time>
      </trkpt>
      <trkpt lat="49.12945" lon="4.30838">
        <ele>102</ele>
        <time>2018-03-29T08:05:10Z</time>
      </trkpt>
      <trkpt lat="49.12955" lon="4.30876">
        <ele>102</ele>
        <time>2018-03-29T08:06:10Z</time>
      </trkpt>
      <trkpt lat="49.12958" lon="4.3089">
        <ele>102</ele>
        <time>2018-03-29T08:07:10Z</time>
      </trkpt>
      <trkpt lat="49.1296" lon="4.30902">
        <ele>102</ele>
        <time>2018-03-29T08:08:10Z</time>
      </trkpt>
      <trkpt lat="49.1296" lon="4.30915">
        <ele>102</ele>
        <time>2018-03-29T08:09:10Z</time>
      </trkpt>
      <trkpt lat="49.12958" lon="4.30941">
        <ele>102</ele>
        <time>2018-03-29T08:10:10Z</time>
      </trkpt>
      <trkpt lat="49.12958" lon="4.30948">
        <ele>102</ele>
        <time>2018-03-29T08:11:10Z</time>
      </trkpt>
      <trkpt lat="49.12958" lon="4.30948">
        <ele>102</ele>
        <time>2018-03-29T08:12:10Z</time>
      </trkpt>
      <trkpt lat="49.1294" lon="4.30959">
        <ele>102</ele>
        <time>2018-03-29T08:13:10Z</time>
      </trkpt>
      <trkpt lat="49.12901" lon="4.30988">
        <ele>101</ele>
        <time>2018-03-29T08:14:10Z</time>
      </trkpt>
      <trkpt lat="49.12882" lon="4.30999">
        <ele>101</ele>
        <time>2018-03-29T08:15:10Z</time>
      </trkpt>
      <trkpt lat="49.12877" lon="4.31002">
        <ele>101</ele>
        <time>2018-03-29T08:16:10Z</time>
      </trkpt>
      <trkpt lat="49.12872" lon="4.31005">
        <ele>101</ele>
        <time>2018-03-29T08:17:10Z</time>
      </trkpt>
      <trkpt lat="49.12867" lon="4.31007">
        <ele>101</ele>
        <time>2018-03-29T08:18:10Z</time>
      </trkpt>
      <trkpt lat="49.1286" lon="4.31011">
        <ele>101</ele>
        <time>2018-03-29T08:19:10Z</time>
      </trkpt>
      <trkpt lat="49.12857" lon="4.31012">
        <ele>101</ele>
        <time>2018-03-29T08:20:10Z</time>
      </trkpt>
      <trkpt lat="49.12851" lon="4.31018">
        <ele>101</ele>
        <time>2018-03-29T08:21:10Z</time>
      </trkpt>
      <trkpt lat="49.12845" lon="4.31025">
        <ele>101</ele>
        <time>2018-03-29T08:22:10Z</time>
      </trkpt>
      <trkpt lat="49.12837" lon="4.31037">
        <ele>101</ele>
        <time>2018-03-29T08:23:10Z</time>
      </trkpt>
      <trkpt lat="49.12834" lon="4.3104">
        <ele>101</ele>
        <time>2018-03-29T08:24:10Z</time>
      </trkpt>
      <trkpt lat="49.12821" lon="4.31059">
        <ele>101</ele>
        <time>2018-03-29T08:25:10Z</time>
      </trkpt>
      <trkpt lat="49.12815" lon="4.31067">
        <ele>101</ele>
        <time>2018-03-29T08:26:10Z</time>
      </trkpt>
      <trkpt lat="49.12811" lon="4.31071">
        <ele>101</ele>
        <time>2018-03-29T08:27:10Z</time>
      </trkpt>
      <trkpt lat="49.12774" lon="4.31124">
        <ele>102</ele>
        <time>2018-03-29T08:28:10Z</time>
      </trkpt>
      <trkpt lat="49.12774" lon="4.31124">
        <ele>102</ele>
        <time>2018-03-29T08:29:10Z</time>
      </trkpt>
      <trkpt lat="49.12767" lon="4.31124">
        <ele>102</ele>
        <time>2018-03-29T08:30:10Z</time>
      </trkpt>
      <trkpt lat="49.12765" lon="4.31124">
        <ele>102</ele>
        <time>2018-03-29T08:31:10Z</time>
      </trkpt>
      <trkpt lat="49.12758" lon="4.31117">
        <ele>102</ele>
        <time>2018-03-29T08:32:10Z</time>
      </trkpt>
      <trkpt lat="49.12756" lon="4.31117">
        <ele>102</ele>
        <time>2018-03-29T08:33:10Z</time>
      </trkpt>
      <trkpt lat="49.12743" lon="4.31114">
        <ele>103</ele>
        <time>2018-03-29T08:34:10Z</time>
      </trkpt>
      <trkpt lat="49.12729" lon="4.3111">
        <ele>103</ele>
        <time>2018-03-29T08:35:10Z</time>
      </trkpt>
      <trkpt lat="49.12675" lon="4.31099">
        <ele>103</ele>
        <time>2018-03-29T08:36:10Z</time>
      </trkpt>
      <trkpt lat="49.12667" lon="4.311">
        <ele>103</ele>
        <time>2018-03-29T08:37:10Z</time>
      </trkpt>
      <trkpt lat="49.12663" lon="4.31099">
        <ele>103</ele>
        <time>2018-03-29T08:38:10Z</time>
      </trkpt>
      <trkpt lat="49.12582" lon="4.3108">
        <ele>103</ele>
        <time>2018-03-29T08:39:10Z</time>
      </trkpt>
      <trkpt lat="49.12561" lon="4.31076">
        <ele>103</ele>
        <time>2018-03-29T08:40:10Z</time>
      </trkpt>
      <trkpt lat="49.12549" lon="4.31072">
        <ele>103</ele>
        <time>2018-03-29T08:41:10Z</time>
      </trkpt>
      <trkpt lat="49.1253" lon="4.31065">
        <ele>102</ele>
        <time>2018-03-29T08:42:10Z</time>
      </trkpt>
      <trkpt lat="49.12451" lon="4.31033">
        <ele>102</ele>
        <time>2018-03-29T08:43:10Z</time>
      </trkpt>
      <trkpt lat="49.12331" lon="4.30982">
        <ele>104</ele>
        <time>2018-03-29T08:44:10Z</time>
      </trkpt>
      <trkpt lat="49.12218" lon="4.30934">
        <ele>104</ele>
        <time>2018-03-29T08:45:10Z</time>
      </trkpt>
      <trkpt lat="49.12161" lon="4.30911">
        <ele>104</ele>
        <time>2018-03-29T08:46:10Z</time>
      </trkpt>
      <trkpt lat="49.12147" lon="4.30906">
        <ele>104</ele>
        <time>2018-03-29T08:47:10Z</time>
      </trkpt>
      <trkpt lat="49.12135" lon="4.30902">
        <ele>104</ele>
        <time>2018-03-29T08:48:10Z</time>
      </trkpt>
      <trkpt lat="49.12124" lon="4.30898">
        <ele>104</ele>
        <time>2018-03-29T08:49:10Z</time>
      </trkpt>
      <trkpt lat="49.12112" lon="4.30896">
        <ele>104</ele>
        <time>2018-03-29T08:50:10Z</time>
      </trkpt>
      <trkpt lat="49.12102" lon="4.30894">
        <ele>105</ele>
        <time>2018-03-29T08:51:10Z</time>
      </trkpt>
      <trkpt lat="49.12091" lon="4.30894">
        <ele>105</ele>
        <time>2018-03-29T08:52:10Z</time>
      </trkpt>
      <trkpt lat="49.12074" lon="4.30894">
        <ele>105</ele>
        <time>2018-03-29T08:53:10Z</time>
      </trkpt>
      <trkpt lat="49.12063" lon="4.30894">
        <ele>104</ele>
        <time>2018-03-29T08:54:10Z</time>
      </trkpt>
      <trkpt lat="49.12047" lon="4.30897">
        <ele>104</ele>
        <time>2018-03-29T08:55:10Z</time>
      </trkpt>
      <trkpt lat="49.12014" lon="4.30903">
        <ele>104</ele>
        <time>2018-03-29T08:56:10Z</time>
      </trkpt>
      <trkpt lat="49.11945" lon="4.30923">
        <ele>103</ele>
        <time>2018-03-29T08:57:10Z</time>
      </trkpt>
      <trkpt lat="49.11919" lon="4.30932">
        <ele>102</ele>
        <time>2018-03-29T08:58:10Z</time>
      </trkpt>
      <trkpt lat="49.11908" lon="4.30937">
        <ele>103</ele>
        <time>2018-03-29T08:59:10Z</time>
      </trkpt>
      <trkpt lat="49.11896" lon="4.30942">
        <ele>103</ele>
        <time>2018-03-29T09:00:10Z</time>
      </trkpt>
      <trkpt lat="49.11879" lon="4.30953">
        <ele>104</ele>
        <time>2018-03-29T09:01:10Z</time>
      </trkpt>
      <trkpt lat="49.11819" lon="4.30989">
        <ele>104</ele>
        <time>2018-03-29T09:02:10Z</time>
      </trkpt>
      <trkpt lat="49.11783" lon="4.31009">
        <ele>103</ele>
        <time>2018-03-29T09:03:10Z</time>
      </trkpt>
      <trkpt lat="49.11766" lon="4.31019">
        <ele>103</ele>
        <time>2018-03-29T09:04:10Z</time>
      </trkpt>
      <trkpt lat="49.11748" lon="4.31026">
        <ele>103</ele>
        <time>2018-03-29T09:05:10Z</time>
      </trkpt>
      <trkpt lat="49.11746" lon="4.31027">
        <ele>103</ele>
        <time>2018-03-29T09:06:10Z</time>
      </trkpt>
      <trkpt lat="49.11735" lon="4.31029">
        <ele>103</ele>
        <time>2018-03-29T09:07:10Z</time>
      </trkpt>
      <trkpt lat="49.1172" lon="4.3103">
        <ele>103</ele>
        <time>2018-03-29T09:08:10Z</time>
      </trkpt>
      <trkpt lat="49.11705" lon="4.3103">
        <ele>104</ele>
        <time>2018-03-29T09:09:10Z</time>
      </trkpt>
      <trkpt lat="49.11694" lon="4.31028">
        <ele>104</ele>
        <time>2018-03-29T09:10:10Z</time>
      </trkpt>
      <trkpt lat="49.11681" lon="4.31025">
        <ele>104</ele>
        <time>2018-03-29T09:11:10Z</time>
      </trkpt>
      <trkpt lat="49.11676" lon="4.31022">
        <ele>104</ele>
        <time>2018-03-29T09:12:10Z</time>
      </trkpt>
      <trkpt lat="49.11668" lon="4.31019">
        <ele>104</ele>
        <time>2018-03-29T09:13:10Z</time>
      </trkpt>
      <trkpt lat="49.11654" lon="4.31012">
        <ele>104</ele>
        <time>2018-03-29T09:14:10Z</time>
      </trkpt>
      <trkpt lat="49.11644" lon="4.31005">
        <ele>104</ele>
        <time>2018-03-29T09:15:10Z</time>
      </trkpt>
      <trkpt lat="49.11635" lon="4.30998">
        <ele>104</ele>
        <time>2018-03-29T09:16:10Z</time>
      </trkpt>
      <trkpt lat="49.116" lon="4.30965">
        <ele>103</ele>
        <time>2018-03-29T09:17:10Z</time>
      </trkpt>
      <trkpt lat="49.11597" lon="4.30961">
        <ele>103</ele>
        <time>2018-03-29T09:18:10Z</time>
      </trkpt>
      <trkpt lat="49.11594" lon="4.30958">
        <ele>103</ele>
        <time>2018-03-29T09:19:10Z</time>
      </trkpt>
      <trkpt lat="49.11591" lon="4.30954">
        <ele>103</ele>
        <time>2018-03-29T09:20:10Z</time>
      </trkpt>
      <trkpt lat="49.11554" lon="4.30911">
        <ele>102</ele>
        <time>2018-03-29T09:21:10Z</time>
      </trkpt>
      <trkpt lat="49.11548" lon="4.30903">
        <ele>102</ele>
        <time>2018-03-29T09:22:10Z</time>
      </trkpt>
      <trkpt lat="49.11544" lon="4.30899">
        <ele>102</ele>
        <time>2018-03-29T09:23:10Z</time>
      </trkpt>
      <trkpt lat="49.11541" lon="4.30895">
        <ele>102</ele>
        <time>2018-03-29T09:24:10Z</time>
      </trkpt>
      <trkpt lat="49.11523" lon="4.30871">
        <ele>101</ele>
        <time>2018-03-29T09:25:10Z</time>
      </trkpt>
      <trkpt lat="49.11507" lon="4.30849">
        <ele>101</ele>
        <time>2018-03-29T09:26:10Z</time>
      </trkpt>
      <trkpt lat="49.11487" lon="4.30814">
        <ele>101</ele>
        <time>2018-03-29T09:27:10Z</time>
      </trkpt>
      <trkpt lat="49.11478" lon="4.30801">
        <ele>101</ele>
        <time>2018-03-29T09:28:10Z</time>
      </trkpt>
      <trkpt lat="49.11463" lon="4.30779">
        <ele>101</ele>
        <time>2018-03-29T09:29:10Z</time>
      </trkpt>
      <trkpt lat="49.11452" lon="4.30767">
        <ele>102</ele>
        <time>2018-03-29T09:30:10Z</time>
      </trkpt>
      <trkpt lat="49.11428" lon="4.3074">
        <ele>102</ele>
        <time>2018-03-29T09:31:10Z</time>
      </trkpt>
      <trkpt lat="49.1141" lon="4.3072">
        <ele>102</ele>
        <time>2018-03-29T09:32:10Z</time>
      </trkpt>
      <trkpt lat="49.1141" lon="4.3072">
        <ele>102</ele>
        <time>2018-03-29T09:33:10Z</time>
      </trkpt>
      <trkpt lat="49.11408" lon="4.30725">
        <ele>102</ele>
        <time>2018-03-29T09:34:10Z</time>
      </trkpt>
      <trkpt lat="49.11393" lon="4.30749">
        <ele>102</ele>
        <time>2018-03-29T09:35:10Z</time>
      </trkpt>
      <trkpt lat="49.11374" lon="4.30783">
        <ele>102</ele>
        <time>2018-03-29T09:36:10Z</time>
      </trkpt>
      <trkpt lat="49.11368" lon="4.30792">
        <ele>102</ele>
        <time>2018-03-29T09:37:10Z</time>
      </trkpt>
      <trkpt lat="49.11358" lon="4.30809">
        <ele>102</ele>
        <time>2018-03-29T09:38:10Z</time>
      </trkpt>
      <trkpt lat="49.11347" lon="4.30826">
        <ele>102</ele>
        <time>2018-03-29T09:39:10Z</time>
      </trkpt>
      <trkpt lat="49.11342" lon="4.30832">
        <ele>102</ele>
        <time>2018-03-29T09:40:10Z</time>
      </trkpt>
      <trkpt lat="49.11331" lon="4.30848">
        <ele>102</ele>
        <time>2018-03-29T09:41:10Z</time>
      </trkpt>
      <trkpt lat="49.11318" lon="4.30861">
        <ele>102</ele>
        <time>2018-03-29T09:42:10Z</time>
      </trkpt>
      <trkpt lat="49.1131" lon="4.30869">
        <ele>102</ele>
        <time>2018-03-29T09:43:10Z</time>
      </trkpt>
      <trkpt lat="49.11303" lon="4.30875">
        <ele>102</ele>
        <time>2018-03-29T09:44:10Z</time>
      </trkpt>
      <trkpt lat="49.11295" lon="4.30883">
        <ele>102</ele>
        <time>2018-03-29T09:45:10Z</time>
      </trkpt>
      <trkpt lat="49.11278" lon="4.30895">
        <ele>102</ele>
        <time>2018-03-29T09:46:10Z</time>
      </trkpt>
      <trkpt lat="49.11263" lon="4.30907">
        <ele>102</ele>
        <time>2018-03-29T09:47:10Z</time>
      </trkpt>
      <trkpt lat="49.11247" lon="4.3092">
        <ele>102</ele>
        <time>2018-03-29T09:48:10Z</time>
      </trkpt>
      <trkpt lat="49.11237" lon="4.30927">
        <ele>102</ele>
        <time>2018-03-29T09:49:10Z</time>
      </trkpt>
      <trkpt lat="49.11221" lon="4.30941">
        <ele>103</ele>
        <time>2018-03-29T09:50:10Z</time>
      </trkpt>
      <trkpt lat="49.11213" lon="4.3095">
        <ele>103</ele>
        <time>2018-03-29T09:51:10Z</time>
      </trkpt>
      <trkpt lat="49.11205" lon="4.30957">
        <ele>103</ele>
        <time>2018-03-29T09:52:10Z</time>
      </trkpt>
      <trkpt lat="49.11193" lon="4.30969">
        <ele>103</ele>
        <time>2018-03-29T09:53:10Z</time>
      </trkpt>
      <trkpt lat="49.11187" lon="4.30976">
        <ele>103</ele>
        <time>2018-03-29T09:54:10Z</time>
      </trkpt>
      <trkpt lat="49.11163" lon="4.30999">
        <ele>103</ele>
        <time>2018-03-29T09:55:10Z</time>
      </trkpt>
      <trkpt lat="49.11144" lon="4.31019">
        <ele>103</ele>
        <time>2018-03-29T09:56:10Z</time>
      </trkpt>
      <trkpt lat="49.11105" lon="4.3106">
        <ele>103</ele>
        <time>2018-03-29T09:57:10Z</time>
      </trkpt>
      <trkpt lat="49.1105" lon="4.31117">
        <ele>103</ele>
        <time>2018-03-29T09:58:10Z</time>
      </trkpt>
      <trkpt lat="49.11002" lon="4.31167">
        <ele>105</ele>
        <time>2018-03-29T09:59:10Z</time>
      </trkpt>
      <trkpt lat="49.10968" lon="4.31204">
        <ele>105</ele>
        <time>2018-03-29T10:00:10Z</time>
      </trkpt>
      <trkpt lat="49.10934" lon="4.3124">
        <ele>104</ele>
        <time>2018-03-29T10:01:10Z</time>
      </trkpt>
      <trkpt lat="49.1091" lon="4.31265">
        <ele>104</ele>
        <time>2018-03-29T10:02:10Z</time>
      </trkpt>
      <trkpt lat="49.10888" lon="4.31288">
        <ele>104</ele>
        <time>2018-03-29T10:03:10Z</time>
      </trkpt>
      <trkpt lat="49.1085" lon="4.31331">
        <ele>104</ele>
        <time>2018-03-29T10:04:10Z</time>
      </trkpt>
      <trkpt lat="49.10832" lon="4.31352">
        <ele>104</ele>
        <time>2018-03-29T10:05:10Z</time>
      </trkpt>
      <trkpt lat="49.10821" lon="4.31367">
        <ele>105</ele>
        <time>2018-03-29T10:06:10Z</time>
      </trkpt>
      <trkpt lat="49.10815" lon="4.31376">
        <ele>105</ele>
        <time>2018-03-29T10:07:10Z</time>
      </trkpt>
      <trkpt lat="49.10803" lon="4.31395">
        <ele>105</ele>
        <time>2018-03-29T10:08:10Z</time>
      </trkpt>
      <trkpt lat="49.10771" lon="4.31444">
        <ele>105</ele>
        <time>2018-03-29T10:09:10Z</time>
      </trkpt>
      <trkpt lat="49.10706" lon="4.31548">
        <ele>103</ele>
        <time>2018-03-29T10:10:10Z</time>
      </trkpt>
      <trkpt lat="49.10683" lon="4.31585">
        <ele>102</ele>
        <time>2018-03-29T10:11:10Z</time>
      </trkpt>
      <trkpt lat="49.1064" lon="4.31654">
        <ele>104</ele>
        <time>2018-03-29T10:12:10Z</time>
      </trkpt>
      <trkpt lat="49.10548" lon="4.31803">
        <ele>103</ele>
        <time>2018-03-29T10:13:10Z</time>
      </trkpt>
      <trkpt lat="49.10533" lon="4.31828">
        <ele>103</ele>
        <time>2018-03-29T10:14:10Z</time>
      </trkpt>
      <trkpt lat="49.10485" lon="4.31904">
        <ele>103</ele>
        <time>2018-03-29T10:15:10Z</time>
      </trkpt>
      <trkpt lat="49.10447" lon="4.31964">
        <ele>103</ele>
        <time>2018-03-29T10:16:10Z</time>
      </trkpt>
      <trkpt lat="49.104" lon="4.32041">
        <ele>104</ele>
        <time>2018-03-29T10:17:10Z</time>
      </trkpt>
      <trkpt lat="49.10368" lon="4.32093">
        <ele>105</ele>
        <time>2018-03-29T10:18:10Z</time>
      </trkpt>
      <trkpt lat="49.10348" lon="4.32125">
        <ele>105</ele>
        <time>2018-03-29T10:19:10Z</time>
      </trkpt>
      <trkpt lat="49.10323" lon="4.32166">
        <ele>105</ele>
        <time>2018-03-29T10:20:10Z</time>
      </trkpt>
      <trkpt lat="49.10282" lon="4.32232">
        <ele>104</ele>
        <time>2018-03-29T10:21:10Z</time>
      </trkpt>
      <trkpt lat="49.10237" lon="4.32304">
        <ele>105</ele>
        <time>2018-03-29T10:22:10Z</time>
      </trkpt>
      <trkpt lat="49.10197" lon="4.32368">
        <ele>104</ele>
        <time>2018-03-29T10:23:10Z</time>
      </trkpt>
      <trkpt lat="49.10153" lon="4.32438">
        <ele>103</ele>
        <time>2018-03-29T10:24:10Z</time>
      </trkpt>
      <trkpt lat="49.0998" lon="4.32715">
        <ele>105</ele>
        <time>2018-03-29T10:25:10Z</time>
      </trkpt>
      <trkpt lat="49.09928" lon="4.32799">
        <ele>105</ele>
        <time>2018-03-29T10:26:10Z</time>
      </trkpt>
      <trkpt lat="49.09873" lon="4.32888">
        <ele>105</ele>
        <time>2018-03-29T10:27:10Z</time>
      </trkpt>
      <trkpt lat="49.09829" lon="4.32959">
        <ele>105</ele>
        <time>2018-03-29T10:28:10Z</time>
      </trkpt>
      <trkpt lat="49.09802" lon="4.33002">
        <ele>104</ele>
        <time>2018-03-29T10:29:10Z</time>
      </trkpt>
      <trkpt lat="49.09754" lon="4.33081">
        <ele>104</ele>
        <time>2018-03-29T10:30:10Z</time>
      </trkpt>
      <trkpt lat="49.09707" lon="4.33157">
        <ele>105</ele>
        <time>2018-03-29T10:31:10Z</time>
      </trkpt>
      <trkpt lat="49.09674" lon="4.33209">
        <ele>105</ele>
        <time>2018-03-29T10:32:10Z</time>
      </trkpt>
      <trkpt lat="49.09644" lon="4.33257">
        <ele>105</ele>
        <time>2018-03-29T10:33:10Z</time>
      </trkpt>
      <trkpt lat="49.09641" lon="4.33261">
        <ele>105</ele>
        <time>2018-03-29T10:34:10Z</time>
      </trkpt>
      <trkpt lat="49.09604" lon="4.3332">
        <ele>106</ele>
        <time>2018-03-29T10:35:10Z</time>
      </trkpt>
      <trkpt lat="49.0956" lon="4.33392">
        <ele>106</ele>
        <time>2018-03-29T10:36:10Z</time>
      </trkpt>
      <trkpt lat="49.09546" lon="4.33415">
        <ele>107</ele>
        <time>2018-03-29T10:37:10Z</time>
      </trkpt>
      <trkpt lat="49.0951" lon="4.33472">
        <ele>106</ele>
        <time>2018-03-29T10:38:10Z</time>
      </trkpt>
      <trkpt lat="49.09476" lon="4.33527">
        <ele>106</ele>
        <time>2018-03-29T10:39:10Z</time>
      </trkpt>
      <trkpt lat="49.0943" lon="4.336">
        <ele>106</ele>
        <time>2018-03-29T10:40:10Z</time>
      </trkpt>
      <trkpt lat="49.0939" lon="4.33665">
        <ele>105</ele>
        <time>2018-03-29T10:41:10Z</time>
      </trkpt>
      <trkpt lat="49.09353" lon="4.33725">
        <ele>105</ele>
        <time>2018-03-29T10:42:10Z</time>
      </trkpt>
      <trkpt lat="49.09317" lon="4.33781">
        <ele>106</ele>
        <time>2018-03-29T10:43:10Z</time>
      </trkpt>
      <trkpt lat="49.09277" lon="4.33846">
        <ele>107</ele>
        <time>2018-03-29T10:44:10Z</time>
      </trkpt>
      <trkpt lat="49.09245" lon="4.33897">
        <ele>107</ele>
        <time>2018-03-29T10:45:10Z</time>
      </trkpt>
      <trkpt lat="49.09213" lon="4.33948">
        <ele>106</ele>
        <time>2018-03-29T10:46:10Z</time>
      </trkpt>
      <trkpt lat="49.09191" lon="4.33984">
        <ele>106</ele>
        <time>2018-03-29T10:47:10Z</time>
      </trkpt>
      <trkpt lat="49.09177" lon="4.34005">
        <ele>106</ele>
        <time>2018-03-29T10:48:10Z</time>
      </trkpt>
      <trkpt lat="49.09158" lon="4.34042">
        <ele>107</ele>
        <time>2018-03-29T10:49:10Z</time>
      </trkpt>
      <trkpt lat="49.09128" lon="4.34103">
        <ele>106</ele>
        <time>2018-03-29T10:50:10Z</time>
      </trkpt>
      <trkpt lat="49.09095" lon="4.34171">
        <ele>105</ele>
        <time>2018-03-29T10:51:10Z</time>
      </trkpt>
      <trkpt lat="49.09062" lon="4.3424">
        <ele>106</ele>
        <time>2018-03-29T10:52:10Z</time>
      </trkpt>
      <trkpt lat="49.09031" lon="4.343">
        <ele>107</ele>
        <time>2018-03-29T10:53:10Z</time>
      </trkpt>
      <trkpt lat="49.09008" lon="4.34343">
        <ele>107</ele>
        <time>2018-03-29T10:54:10Z</time>
      </trkpt>
      <trkpt lat="49.0898" lon="4.34394">
        <ele>109</ele>
        <time>2018-03-29T10:55:10Z</time>
      </trkpt>
      <trkpt lat="49.08966" lon="4.34421">
        <ele>109</ele>
        <time>2018-03-29T10:56:10Z</time>
      </trkpt>
      <trkpt lat="49.08947" lon="4.34454">
        <ele>108</ele>
        <time>2018-03-29T10:57:10Z</time>
      </trkpt>
      <trkpt lat="49.08925" lon="4.34495">
        <ele>107</ele>
        <time>2018-03-29T10:58:10Z</time>
      </trkpt>
      <trkpt lat="49.08912" lon="4.34517">
        <ele>107</ele>
        <time>2018-03-29T10:59:10Z</time>
      </trkpt>
      <trkpt lat="49.08894" lon="4.3455">
        <ele>107</ele>
        <time>2018-03-29T11:00:10Z</time>
      </trkpt>
      <trkpt lat="49.08884" lon="4.34565">
        <ele>107</ele>
        <time>2018-03-29T11:01:10Z</time>
      </trkpt>
      <trkpt lat="49.08873" lon="4.34577">
        <ele>107</ele>
        <time>2018-03-29T11:02:10Z</time>
      </trkpt>
      <trkpt lat="49.08862" lon="4.34589">
        <ele>107</ele>
        <time>2018-03-29T11:03:10Z</time>
      </trkpt>
      <trkpt lat="49.08835" lon="4.34616">
        <ele>107</ele>
        <time>2018-03-29T11:04:10Z</time>
      </trkpt>
      <trkpt lat="49.08825" lon="4.34626">
        <ele>107</ele>
        <time>2018-03-29T11:05:10Z</time>
      </trkpt>
      <trkpt lat="49.08822" lon="4.34628">
        <ele>107</ele>
        <time>2018-03-29T11:06:10Z</time>
      </trkpt>
      <trkpt lat="49.08807" lon="4.34643">
        <ele>107</ele>
        <time>2018-03-29T11:07:10Z</time>
      </trkpt>
      <trkpt lat="49.08772" lon="4.34677">
        <ele>107</ele>
        <time>2018-03-29T11:08:10Z</time>
      </trkpt>
      <trkpt lat="49.08753" lon="4.34693">
        <ele>107</ele>
        <time>2018-03-29T11:09:10Z</time>
      </trkpt>
      <trkpt lat="49.08749" lon="4.34697">
        <ele>107</ele>
        <time>2018-03-29T11:10:10Z</time>
      </trkpt>
      <trkpt lat="49.08738" lon="4.34704">
        <ele>107</ele>
        <time>2018-03-29T11:11:10Z</time>
      </trkpt>
      <trkpt lat="49.08724" lon="4.34712">
        <ele>107</ele>
        <time>2018-03-29T11:12:10Z</time>
      </trkpt>
      <trkpt lat="49.08708" lon="4.34722">
        <ele>107</ele>
        <time>2018-03-29T11:13:10Z</time>
      </trkpt>
      <trkpt lat="49.08676" lon="4.34738">
        <ele>107</ele>
        <time>2018-03-29T11:14:10Z</time>
      </trkpt>
      <trkpt lat="49.08665" lon="4.34743">
        <ele>107</ele>
        <time>2018-03-29T11:15:10Z</time>
      </trkpt>
      <trkpt lat="49.08655" lon="4.34749">
        <ele>107</ele>
        <time>2018-03-29T11:16:10Z</time>
      </trkpt>
      <trkpt lat="49.08647" lon="4.34755">
        <ele>107</ele>
        <time>2018-03-29T11:17:10Z</time>
      </trkpt>
      <trkpt lat="49.0864" lon="4.34762">
        <ele>107</ele>
        <time>2018-03-29T11:18:10Z</time>
      </trkpt>
      <trkpt lat="49.08634" lon="4.34769">
        <ele>107</ele>
        <time>2018-03-29T11:19:10Z</time>
      </trkpt>
      <trkpt lat="49.08628" lon="4.34778">
        <ele>107</ele>
        <time>2018-03-29T11:20:10Z</time>
      </trkpt>
      <trkpt lat="49.08617" lon="4.34796">
        <ele>107</ele>
        <time>2018-03-29T11:21:10Z</time>
      </trkpt>
      <trkpt lat="49.086" lon="4.34826">
        <ele>108</ele>
        <time>2018-03-29T11:22:10Z</time>
      </trkpt>
      <trkpt lat="49.08591" lon="4.34843">
        <ele>108</ele>
        <time>2018-03-29T11:23:10Z</time>
      </trkpt>
      <trkpt lat="49.08587" lon="4.34849">
        <ele>108</ele>
        <time>2018-03-29T11:24:10Z</time>
      </trkpt>
      <trkpt lat="49.08576" lon="4.34871">
        <ele>108</ele>
        <time>2018-03-29T11:25:10Z</time>
      </trkpt>
      <trkpt lat="49.08568" lon="4.34886">
        <ele>108</ele>
        <time>2018-03-29T11:26:10Z</time>
      </trkpt>
      <trkpt lat="49.08559" lon="4.34905">
        <ele>108</ele>
        <time>2018-03-29T11:27:10Z</time>
      </trkpt>
      <trkpt lat="49.08551" lon="4.34922">
        <ele>108</ele>
        <time>2018-03-29T11:28:10Z</time>
      </trkpt>
      <trkpt lat="49.08546" lon="4.34934">
        <ele>108</ele>
        <time>2018-03-29T11:29:10Z</time>
      </trkpt>
      <trkpt lat="49.08539" lon="4.3495">
        <ele>108</ele>
        <time>2018-03-29T11:30:10Z</time>
      </trkpt>
      <trkpt lat="49.08526" lon="4.34982">
        <ele>108</ele>
        <time>2018-03-29T11:31:10Z</time>
      </trkpt>
      <trkpt lat="49.08519" lon="4.35003">
        <ele>108</ele>
        <time>2018-03-29T11:32:10Z</time>
      </trkpt>
      <trkpt lat="49.08509" lon="4.35035">
        <ele>108</ele>
        <time>2018-03-29T11:33:10Z</time>
      </trkpt>
      <trkpt lat="49.08503" lon="4.35051">
        <ele>108</ele>
        <time>2018-03-29T11:34:10Z</time>
      </trkpt>
      <trkpt lat="49.08489" lon="4.35093">
        <ele>108</ele>
        <time>2018-03-29T11:35:10Z</time>
      </trkpt>
      <trkpt lat="49.08477" lon="4.35126">
        <ele>108</ele>
        <time>2018-03-29T11:36:10Z</time>
      </trkpt>
      <trkpt lat="49.08465" lon="4.35155">
        <ele>107</ele>
        <time>2018-03-29T11:37:10Z</time>
      </trkpt>
      <trkpt lat="49.08452" lon="4.35184">
        <ele>107</ele>
        <time>2018-03-29T11:38:10Z</time>
      </trkpt>
      <trkpt lat="49.08446" lon="4.35199">
        <ele>107</ele>
        <time>2018-03-29T11:39:10Z</time>
      </trkpt>
      <trkpt lat="49.08432" lon="4.35228">
        <ele>107</ele>
        <time>2018-03-29T11:40:10Z</time>
      </trkpt>
      <trkpt lat="49.08407" lon="4.35278">
        <ele>107</ele>
        <time>2018-03-29T11:41:10Z</time>
      </trkpt>
      <trkpt lat="49.08374" lon="4.35341">
        <ele>108</ele>
        <time>2018-03-29T11:42:10Z</time>
      </trkpt>
      <trkpt lat="49.08355" lon="4.35361">
        <ele>109</ele>
        <time>2018-03-29T11:43:10Z</time>
      </trkpt>
      <trkpt lat="49.08355" lon="4.35361">
        <ele>109</ele>
        <time>2018-03-29T11:44:10Z</time>
      </trkpt>
      <trkpt lat="49.08354" lon="4.35361">
        <ele>109</ele>
        <time>2018-03-29T11:45:10Z</time>
      </trkpt>
      <trkpt lat="49.08353" lon="4.3536">
        <ele>109</ele>
        <time>2018-03-29T11:46:10Z</time>
      </trkpt>
      <trkpt lat="49.08352" lon="4.3536">
        <ele>109</ele>
        <time>2018-03-29T11:47:10Z</time>
      </trkpt>
      <trkpt lat="49.08351" lon="4.3536">
        <ele>109</ele>
        <time>2018-03-29T11:48:10Z</time>
      </trkpt>
      <trkpt lat="49.0835" lon="4.3536">
        <ele>109</ele>
        <time>2018-03-29T11:49:10Z</time>
      </trkpt>
      <trkpt lat="49.08349" lon="4.35359">
        <ele>109</ele>
        <time>2018-03-29T11:50:10Z</time>
      </trkpt>
      <trkpt lat="49.08347" lon="4.3536">
        <ele>109</ele>
        <time>2018-03-29T11:51:10Z</time>
      </trkpt>
      <trkpt lat="49.08346" lon="4.3536">
        <ele>109</ele>
        <time>2018-03-29T11:52:10Z</time>
      </trkpt>
      <trkpt lat="49.08345" lon="4.3536">
        <ele>109</ele>
        <time>2018-03-29T11:53:10Z</time>
      </trkpt>
      <trkpt lat="49.08343" lon="4.35361">
        <ele>109</ele>
        <time>2018-03-29T11:54:10Z</time>
      </trkpt>
      <trkpt lat="49.08342" lon="4.35361">
        <ele>109</ele>
        <time>2018-03-29T11:55:10Z</time>
      </trkpt>
      <trkpt lat="49.08341" lon="4.35362">
        <ele>109</ele>
        <time>2018-03-29T11:56:10Z</time>
      </trkpt>
      <trkpt lat="49.08339" lon="4.35363">
        <ele>109</ele>
        <time>2018-03-29T11:57:10Z</time>
      </trkpt>
      <trkpt lat="49.08338" lon="4.35364">
        <ele>109</ele>
        <time>2018-03-29T11:58:10Z</time>
      </trkpt>
      <trkpt lat="49.08336" lon="4.35366">
        <ele>109</ele>
        <time>2018-03-29T11:59:10Z</time>
      </trkpt>
      <trkpt lat="49.08334" lon="4.35368">
        <ele>109</ele>
        <time>2018-03-29T12:00:10Z</time>
      </trkpt>
      <trkpt lat="49.08333" lon="4.3537">
        <ele>109</ele>
        <time>2018-03-29T12:01:10Z</time>
      </trkpt>
      <trkpt lat="49.08332" lon="4.35373">
        <ele>109</ele>
        <time>2018-03-29T12:02:10Z</time>
      </trkpt>
      <trkpt lat="49.08331" lon="4.35375">
        <ele>110</ele>
        <time>2018-03-29T12:03:10Z</time>
      </trkpt>
      <trkpt lat="49.0833" lon="4.35378">
        <ele>110</ele>
        <time>2018-03-29T12:04:10Z</time>
      </trkpt>
      <trkpt lat="49.08329" lon="4.35381">
        <ele>110</ele>
        <time>2018-03-29T12:05:10Z</time>
      </trkpt>
      <trkpt lat="49.08328" lon="4.35384">
        <ele>110</ele>
        <time>2018-03-29T12:06:10Z</time>
      </trkpt>
      <trkpt lat="49.08328" lon="4.35386">
        <ele>110</ele>
        <time>2018-03-29T12:07:10Z</time>
      </trkpt>
      <trkpt lat="49.08328" lon="4.35398">
        <ele>110</ele>
        <time>2018-03-29T12:08:10Z</time>
      </trkpt>
      <trkpt lat="49.08328" lon="4.354">
        <ele>110</ele>
        <time>2018-03-29T12:09:10Z</time>
      </trkpt>
      <trkpt lat="49.08329" lon="4.35402">
        <ele>110</ele>
        <time>2018-03-29T12:10:10Z</time>
      </trkpt>
      <trkpt lat="49.08329" lon="4.35403">
        <ele>110</ele>
        <time>2018-03-29T12:11:10Z</time>
      </trkpt>
      <trkpt lat="49.0833" lon="4.35405">
        <ele>110</ele>
        <time>2018-03-29T12:12:10Z</time>
      </trkpt>
      <trkpt lat="49.0833" lon="4.35407">
        <ele>110</ele>
        <time>2018-03-29T12:13:10Z</time>
      </trkpt>
      <trkpt lat="49.08331" lon="4.35408">
        <ele>110</ele>
        <time>2018-03-29T12:14:10Z</time>
      </trkpt>
      <trkpt lat="49.08331" lon="4.3541">
        <ele>110</ele>
        <time>2018-03-29T12:15:10Z</time>
      </trkpt>
      <trkpt lat="49.08332" lon="4.35411">
        <ele>110</ele>
        <time>2018-03-29T12:16:10Z</time>
      </trkpt>
      <trkpt lat="49.08326" lon="4.35436">
        <ele>110</ele>
        <time>2018-03-29T12:17:10Z</time>
      </trkpt>
      <trkpt lat="49.08318" lon="4.35461">
        <ele>110</ele>
        <time>2018-03-29T12:18:10Z</time>
      </trkpt>
      <trkpt lat="49.08314" lon="4.35476">
        <ele>110</ele>
        <time>2018-03-29T12:19:10Z</time>
      </trkpt>
      <trkpt lat="49.08298" lon="4.35517">
        <ele>110</ele>
        <time>2018-03-29T12:20:10Z</time>
      </trkpt>
      <trkpt lat="49.08281" lon="4.35558">
        <ele>110</ele>
        <time>2018-03-29T12:21:10Z</time>
      </trkpt>
      <trkpt lat="49.08281" lon="4.35559">
        <ele>110</ele>
        <time>2018-03-29T12:22:10Z</time>
      </trkpt>
      <trkpt lat="49.08279" lon="4.35565">
        <ele>110</ele>
        <time>2018-03-29T12:23:10Z</time>
      </trkpt>
      <trkpt lat="49.08212" lon="4.35731">
        <ele>110</ele>
        <time>2018-03-29T12:24:10Z</time>
      </trkpt>
      <trkpt lat="49.08196" lon="4.3577">
        <ele>110</ele>
        <time>2018-03-29T12:25:10Z</time>
      </trkpt>
      <trkpt lat="49.08185" lon="4.35798">
        <ele>109</ele>
        <time>2018-03-29T12:26:10Z</time>
      </trkpt>
      <trkpt lat="49.08027" lon="4.36194">
        <ele>109</ele>
        <time>2018-03-29T12:27:10Z</time>
      </trkpt>
      <trkpt lat="49.07929" lon="4.36441">
        <ele>112</ele>
        <time>2018-03-29T12:28:10Z</time>
      </trkpt>
      <trkpt lat="49.0786" lon="4.36612">
        <ele>113</ele>
        <time>2018-03-29T12:29:10Z</time>
      </trkpt>
      <trkpt lat="49.07828" lon="4.36693">
        <ele>113</ele>
        <time>2018-03-29T12:30:10Z</time>
      </trkpt>
      <trkpt lat="49.07812" lon="4.36732">
        <ele>113</ele>
        <time>2018-03-29T12:31:10Z</time>
      </trkpt>
      <trkpt lat="49.07794" lon="4.36773">
        <ele>112</ele>
        <time>2018-03-29T12:32:10Z</time>
      </trkpt>
      <trkpt lat="49.07778" lon="4.36806">
        <ele>112</ele>
        <time>2018-03-29T12:33:10Z</time>
      </trkpt>
      <trkpt lat="49.0774" lon="4.36882">
        <ele>111</ele>
        <time>2018-03-29T12:34:10Z</time>
      </trkpt>
      <trkpt lat="49.07701" lon="4.3696">
        <ele>111</ele>
        <time>2018-03-29T12:35:10Z</time>
      </trkpt>
      <trkpt lat="49.07666" lon="4.37028">
        <ele>111</ele>
        <time>2018-03-29T12:36:10Z</time>
      </trkpt>
      <trkpt lat="49.07638" lon="4.37083">
        <ele>113</ele>
        <time>2018-03-29T12:37:10Z</time>
      </trkpt>
      <trkpt lat="49.07603" lon="4.3715">
        <ele>113</ele>
        <time>2018-03-29T12:38:10Z</time>
      </trkpt>
      <trkpt lat="49.07574" lon="4.37208">
        <ele>113</ele>
        <time>2018-03-29T12:39:10Z</time>
      </trkpt>
      <trkpt lat="49.07559" lon="4.37239">
        <ele>113</ele>
        <time>2018-03-29T12:40:10Z</time>
      </trkpt>
      <trkpt lat="49.07543" lon="4.37271">
        <ele>113</ele>
        <time>2018-03-29T12:41:10Z</time>
      </trkpt>
      <trkpt lat="49.0751" lon="4.37342">
        <ele>113</ele>
        <time>2018-03-29T12:42:10Z</time>
      </trkpt>
      <trkpt lat="49.07499" lon="4.37367">
        <ele>113</ele>
        <time>2018-03-29T12:43:10Z</time>
      </trkpt>
      <trkpt lat="49.07494" lon="4.37378">
        <ele>113</ele>
        <time>2018-03-29T12:44:10Z</time>
      </trkpt>
      <trkpt lat="49.07487" lon="4.37397">
        <ele>112</ele>
        <time>2018-03-29T12:45:10Z</time>
      </trkpt>
      <trkpt lat="49.07469" lon="4.37441">
        <ele>112</ele>
        <time>2018-03-29T12:46:10Z</time>
      </trkpt>
      <trkpt lat="49.07463" lon="4.37458">
        <ele>112</ele>
        <time>2018-03-29T12:47:10Z</time>
      </trkpt>
      <trkpt lat="49.07458" lon="4.37471">
        <ele>112</ele>
        <time>2018-03-29T12:48:10Z</time>
      </trkpt>
      <trkpt lat="49.07453" lon="4.37485">
        <ele>111</ele>
        <time>2018-03-29T12:49:10Z</time>
      </trkpt>
      <trkpt lat="49.07436" lon="4.37531">
        <ele>112</ele>
        <time>2018-03-29T12:50:10Z</time>
      </trkpt>
      <trkpt lat="49.07423" lon="4.37572">
        <ele>114</ele>
        <time>2018-03-29T12:51:10Z</time>
      </trkpt>
      <trkpt lat="49.0741" lon="4.37611">
        <ele>115</ele>
        <time>2018-03-29T12:52:10Z</time>
      </trkpt>
      <trkpt lat="49.07393" lon="4.3767">
        <ele>116</ele>
        <time>2018-03-29T12:53:10Z</time>
      </trkpt>
      <trkpt lat="49.07372" lon="4.37746">
        <ele>116</ele>
        <time>2018-03-29T12:54:10Z</time>
      </trkpt>
      <trkpt lat="49.07354" lon="4.37812">
        <ele>116</ele>
        <time>2018-03-29T12:55:10Z</time>
      </trkpt>
      <trkpt lat="49.07333" lon="4.37889">
        <ele>116</ele>
        <time>2018-03-29T12:56:10Z</time>
      </trkpt>
      <trkpt lat="49.07324" lon="4.37926">
        <ele>116</ele>
        <time>2018-03-29T12:57:10Z</time>
      </trkpt>
      <trkpt lat="49.07311" lon="4.37971">
        <ele>116</ele>
        <time>2018-03-29T12:58:10Z</time>
      </trkpt>
      <trkpt lat="49.0729" lon="4.38049">
        <ele>117</ele>
        <time>2018-03-29T12:59:10Z</time>
      </trkpt>
      <trkpt lat="49.07284" lon="4.38072">
        <ele>117</ele>
        <time>2018-03-29T13:00:10Z</time>
      </trkpt>
      <trkpt lat="49.07281" lon="4.38084">
        <ele>117</ele>
        <time>2018-03-29T13:01:10Z</time>
      </trkpt>
      <trkpt lat="49.0727" lon="4.38125">
        <ele>116</ele>
        <time>2018-03-29T13:02:10Z</time>
      </trkpt>
      <trkpt lat="49.07244" lon="4.3822">
        <ele>115</ele>
        <time>2018-03-29T13:03:10Z</time>
      </trkpt>
      <trkpt lat="49.07234" lon="4.38262">
        <ele>115</ele>
        <time>2018-03-29T13:04:10Z</time>
      </trkpt>
      <trkpt lat="49.07229" lon="4.38286">
        <ele>115</ele>
        <time>2018-03-29T13:05:10Z</time>
      </trkpt>
      <trkpt lat="49.07225" lon="4.3831">
        <ele>116</ele>
        <time>2018-03-29T13:06:10Z</time>
      </trkpt>
      <trkpt lat="49.07225" lon="4.38312">
        <ele>116</ele>
        <time>2018-03-29T13:07:10Z</time>
      </trkpt>
      <trkpt lat="49.07223" lon="4.38343">
        <ele>116</ele>
        <time>2018-03-29T13:08:10Z</time>
      </trkpt>
      <trkpt lat="49.07224" lon="4.38366">
        <ele>116</ele>
        <time>2018-03-29T13:09:10Z</time>
      </trkpt>
      <trkpt lat="49.07225" lon="4.3839">
        <ele>117</ele>
        <time>2018-03-29T13:10:10Z</time>
      </trkpt>
      <trkpt lat="49.07229" lon="4.38441">
        <ele>116</ele>
        <time>2018-03-29T13:11:10Z</time>
      </trkpt>
      <trkpt lat="49.07229" lon="4.38441">
        <ele>116</ele>
        <time>2018-03-29T13:12:10Z</time>
      </trkpt>
      <trkpt lat="49.07226" lon="4.38457">
        <ele>115</ele>
        <time>2018-03-29T13:13:10Z</time>
      </trkpt>
      <trkpt lat="49.07224" lon="4.38461">
        <ele>115</ele>
        <time>2018-03-29T13:14:10Z</time>
      </trkpt>
      <trkpt lat="49.07221" lon="4.38465">
        <ele>115</ele>
        <time>2018-03-29T13:15:10Z</time>
      </trkpt>
      <trkpt lat="49.07212" lon="4.38473">
        <ele>115</ele>
        <time>2018-03-29T13:16:10Z</time>
      </trkpt>
      <trkpt lat="49.07193" lon="4.3847">
        <ele>115</ele>
        <time>2018-03-29T13:17:10Z</time>
      </trkpt>
      <trkpt lat="49.07193" lon="4.3847">
        <ele>115</ele>
        <time>2018-03-29T13:18:10Z</time>
      </trkpt>
      <trkpt lat="49.07181" lon="4.38467">
        <ele>115</ele>
        <time>2018-03-29T13:19:10Z</time>
      </trkpt>
      <trkpt lat="49.0715" lon="4.38461">
        <ele>114</ele>
        <time>2018-03-29T13:20:10Z</time>
      </trkpt>
      <trkpt lat="49.07126" lon="4.38456">
        <ele>113</ele>
        <time>2018-03-29T13:21:10Z</time>
      </trkpt>
      <trkpt lat="49.07102" lon="4.38451">
        <ele>112</ele>
        <time>2018-03-29T13:22:10Z</time>
      </trkpt>
      <trkpt lat="49.07081" lon="4.38448">
        <ele>111</ele>
        <time>2018-03-29T13:23:10Z</time>
      </trkpt>
      <trkpt lat="49.0708" lon="4.38448">
        <ele>111</ele>
        <time>2018-03-29T13:24:10Z</time>
      </trkpt>
      <trkpt lat="49.07067" lon="4.38446">
        <ele>111</ele>
        <time>2018-03-29T13:25:10Z</time>
      </trkpt>
      <trkpt lat="49.07048" lon="4.38442">
        <ele>112</ele>
        <time>2018-03-29T13:26:10Z</time>
      </trkpt>
      <trkpt lat="49.0704" lon="4.38441">
        <ele>112</ele>
        <time>2018-03-29T13:27:10Z</time>
      </trkpt>
      <trkpt lat="49.07015" lon="4.38436">
        <ele>112</ele>
        <time>2018-03-29T13:28:10Z</time>
      </trkpt>
      <trkpt lat="49.0699" lon="4.38431">
        <ele>112</ele>
        <time>2018-03-29T13:29:10Z</time>
      </trkpt>
      <trkpt lat="49.06963" lon="4.38426">
        <ele>112</ele>
        <time>2018-03-29T13:30:10Z</time>
      </trkpt>
      <trkpt lat="49.06954" lon="4.38425">
        <ele>113</ele>
        <time>2018-03-29T13:31:10Z</time>
      </trkpt>
      <trkpt lat="49.06905" lon="4.38417">
        <ele>113</ele>
        <time>2018-03-29T13:32:10Z</time>
      </trkpt>
      <trkpt lat="49.06892" lon="4.38415">
        <ele>113</ele>
        <time>2018-03-29T13:33:10Z</time>
      </trkpt>
      <trkpt lat="49.06891" lon="4.38415">
        <ele>113</ele>
        <time>2018-03-29T13:34:10Z</time>
      </trkpt>
      <trkpt lat="49.06858" lon="4.38408">
        <ele>114</ele>
        <time>2018-03-29T13:35:10Z</time>
      </trkpt>
      <trkpt lat="49.06803" lon="4.38399">
        <ele>114</ele>
        <time>2018-03-29T13:36:10Z</time>
      </trkpt>
      <trkpt lat="49.06739" lon="4.38386">
        <ele>115</ele>
        <time>2018-03-29T13:37:10Z</time>
      </trkpt>
      <trkpt lat="49.06728" lon="4.38382">
        <ele>115</ele>
        <time>2018-03-29T13:38:10Z</time>
      </trkpt>
      <trkpt lat="49.06717" lon="4.38379">
        <ele>115</ele>
        <time>2018-03-29T13:39:10Z</time>
      </trkpt>
      <trkpt lat="49.06678" lon="4.38367">
        <ele>115</ele>
        <time>2018-03-29T13:40:10Z</time>
      </trkpt>
      <trkpt lat="49.0666" lon="4.38361">
        <ele>115</ele>
        <time>2018-03-29T13:41:10Z</time>
      </trkpt>
      <trkpt lat="49.06646" lon="4.38357">
        <ele>115</ele>
        <time>2018-03-29T13:42:10Z</time>
      </trkpt>
      <trkpt lat="49.06626" lon="4.38351">
        <ele>115</ele>
        <time>2018-03-29T13:43:10Z</time>
      </trkpt>
      <trkpt lat="49.06569" lon="4.38334">
        <ele>115</ele>
        <time>2018-03-29T13:44:10Z</time>
      </trkpt>
      <trkpt lat="49.06532" lon="4.38321">
        <ele>115</ele>
        <time>2018-03-29T13:45:10Z</time>
      </trkpt>
      <trkpt lat="49.06497" lon="4.3831">
        <ele>116</ele>
        <time>2018-03-29T13:46:10Z</time>
      </trkpt>
      <trkpt lat="49.06463" lon="4.38302">
        <ele>116</ele>
        <time>2018-03-29T13:47:10Z</time>
      </trkpt>
      <trkpt lat="49.06382" lon="4.38285">
        <ele>116</ele>
        <time>2018-03-29T13:48:10Z</time>
      </trkpt>
      <trkpt lat="49.0632" lon="4.38271">
        <ele>115</ele>
        <time>2018-03-29T13:49:10Z</time>
      </trkpt>
      <trkpt lat="49.06294" lon="4.38267">
        <ele>115</ele>
        <time>2018-03-29T13:50:10Z</time>
      </trkpt>
      <trkpt lat="49.06272" lon="4.38265">
        <ele>115</ele>
        <time>2018-03-29T13:51:10Z</time>
      </trkpt>
      <trkpt lat="49.06251" lon="4.38266">
        <ele>115</ele>
        <time>2018-03-29T13:52:10Z</time>
      </trkpt>
      <trkpt lat="49.06222" lon="4.38268">
        <ele>115</ele>
        <time>2018-03-29T13:53:10Z</time>
      </trkpt>
      <trkpt lat="49.06213" lon="4.38269">
        <ele>115</ele>
        <time>2018-03-29T13:54:10Z</time>
      </trkpt>
      <trkpt lat="49.06211" lon="4.3827">
        <ele>115</ele>
        <time>2018-03-29T13:55:10Z</time>
      </trkpt>
      <trkpt lat="49.06196" lon="4.38272">
        <ele>115</ele>
        <time>2018-03-29T13:56:10Z</time>
      </trkpt>
      <trkpt lat="49.06181" lon="4.38275">
        <ele>115</ele>
        <time>2018-03-29T13:57:10Z</time>
      </trkpt>
      <trkpt lat="49.0618" lon="4.38275">
        <ele>115</ele>
        <time>2018-03-29T13:58:10Z</time>
      </trkpt>
      <trkpt lat="49.06178" lon="4.38275">
        <ele>115</ele>
        <time>2018-03-29T13:59:10Z</time>
      </trkpt>
      <trkpt lat="49.06175" lon="4.38275">
        <ele>115</ele>
        <time>2018-03-29T14:00:10Z</time>
      </trkpt>
      <trkpt lat="49.06165" lon="4.38277">
        <ele>115</ele>
        <time>2018-03-29T14:01:10Z</time>
      </trkpt>
      <trkpt lat="49.0616" lon="4.38278">
        <ele>115</ele>
        <time>2018-03-29T14:02:10Z</time>
      </trkpt>
      <trkpt lat="49.06148" lon="4.3828">
        <ele>115</ele>
        <time>2018-03-29T14:03:10Z</time>
      </trkpt>
      <trkpt lat="49.06145" lon="4.3828">
        <ele>115</ele>
        <time>2018-03-29T14:04:10Z</time>
      </trkpt>
      <trkpt lat="49.06141" lon="4.38281">
        <ele>115</ele>
        <time>2018-03-29T14:05:10Z</time>
      </trkpt>
      <trkpt lat="49.06112" lon="4.38283">
        <ele>115</ele>
        <time>2018-03-29T14:06:10Z</time>
      </trkpt>
      <trkpt lat="49.06095" lon="4.38283">
        <ele>116</ele>
        <time>2018-03-29T14:07:10Z</time>
      </trkpt>
      <trkpt lat="49.06082" lon="4.38284">
        <ele>116</ele>
        <time>2018-03-29T14:08:10Z</time>
      </trkpt>
      <trkpt lat="49.06057" lon="4.38282">
        <ele>115</ele>
        <time>2018-03-29T14:09:10Z</time>
      </trkpt>
      <trkpt lat="49.06027" lon="4.38282">
        <ele>115</ele>
        <time>2018-03-29T14:10:10Z</time>
      </trkpt>
      <trkpt lat="49.05985" lon="4.38284">
        <ele>115</ele>
        <time>2018-03-29T14:11:10Z</time>
      </trkpt>
      <trkpt lat="49.05964" lon="4.38288">
        <ele>115</ele>
        <time>2018-03-29T14:12:10Z</time>
      </trkpt>
      <trkpt lat="49.05944" lon="4.38291">
        <ele>115</ele>
        <time>2018-03-29T14:13:10Z</time>
      </trkpt>
      <trkpt lat="49.05926" lon="4.38296">
        <ele>115</ele>
        <time>2018-03-29T14:14:10Z</time>
      </trkpt>
      <trkpt lat="49.05915" lon="4.38298">
        <ele>115</ele>
        <time>2018-03-29T14:15:10Z</time>
      </trkpt>
      <trkpt lat="49.0591" lon="4.38302">
        <ele>115</ele>
        <time>2018-03-29T14:16:10Z</time>
      </trkpt>
      <trkpt lat="49.0589" lon="4.38315">
        <ele>115</ele>
        <time>2018-03-29T14:17:10Z</time>
      </trkpt>
      <trkpt lat="49.05882" lon="4.38321">
        <ele>115</ele>
        <time>2018-03-29T14:18:10Z</time>
      </trkpt>
      <trkpt lat="49.05859" lon="4.38339">
        <ele>115</ele>
        <time>2018-03-29T14:19:10Z</time>
      </trkpt>
      <trkpt lat="49.05818" lon="4.38363">
        <ele>116</ele>
        <time>2018-03-29T14:20:10Z</time>
      </trkpt>
      <trkpt lat="49.05808" lon="4.38369">
        <ele>116</ele>
        <time>2018-03-29T14:21:10Z</time>
      </trkpt>
      <trkpt lat="49.05804" lon="4.38372">
        <ele>116</ele>
        <time>2018-03-29T14:22:10Z</time>
      </trkpt>
      <trkpt lat="49.05761" lon="4.384">
        <ele>115</ele>
        <time>2018-03-29T14:23:10Z</time>
      </trkpt>
      <trkpt lat="49.05758" lon="4.38402">
        <ele>115</ele>
        <time>2018-03-29T14:24:10Z</time>
      </trkpt>
      <trkpt lat="49.05751" lon="4.38407">
        <ele>115</ele>
        <time>2018-03-29T14:25:10Z</time>
      </trkpt>
      <trkpt lat="49.05722" lon="4.38425">
        <ele>115</ele>
        <time>2018-03-29T14:26:10Z</time>
      </trkpt>
      <trkpt lat="49.0571" lon="4.38433">
        <ele>115</ele>
        <time>2018-03-29T14:27:10Z</time>
      </trkpt>
      <trkpt lat="49.05686" lon="4.38445">
        <ele>116</ele>
        <time>2018-03-29T14:28:10Z</time>
      </trkpt>
      <trkpt lat="49.0567" lon="4.38454">
        <ele>116</ele>
        <time>2018-03-29T14:29:10Z</time>
      </trkpt>
      <trkpt lat="49.05664" lon="4.38457">
        <ele>116</ele>
        <time>2018-03-29T14:30:10Z</time>
      </trkpt>
      <trkpt lat="49.0565" lon="4.38465">
        <ele>116</ele>
        <time>2018-03-29T14:31:10Z</time>
      </trkpt>
      <trkpt lat="49.05648" lon="4.38466">
        <ele>116</ele>
        <time>2018-03-29T14:32:10Z</time>
      </trkpt>
      <trkpt lat="49.05626" lon="4.3848">
        <ele>116</ele>
        <time>2018-03-29T14:33:10Z</time>
      </trkpt>
      <trkpt lat="49.05604" lon="4.38494">
        <ele>116</ele>
        <time>2018-03-29T14:34:10Z</time>
      </trkpt>
      <trkpt lat="49.05601" lon="4.38496">
        <ele>116</ele>
        <time>2018-03-29T14:35:10Z</time>
      </trkpt>
      <trkpt lat="49.05589" lon="4.38503">
        <ele>116</ele>
        <time>2018-03-29T14:36:10Z</time>
      </trkpt>
      <trkpt lat="49.05583" lon="4.38506">
        <ele>116</ele>
        <time>2018-03-29T14:37:10Z</time>
      </trkpt>
      <trkpt lat="49.05582" lon="4.38506">
        <ele>116</ele>
        <time>2018-03-29T14:38:10Z</time>
      </trkpt>
      <trkpt lat="49.05577" lon="4.38508">
        <ele>116</ele>
        <time>2018-03-29T14:39:10Z</time>
      </trkpt>
      <trkpt lat="49.0557" lon="4.38509">
        <ele>116</ele>
        <time>2018-03-29T14:40:10Z</time>
      </trkpt>
      <trkpt lat="49.05564" lon="4.38509">
        <ele>116</ele>
        <time>2018-03-29T14:41:10Z</time>
      </trkpt>
      <trkpt lat="49.05559" lon="4.38509">
        <ele>116</ele>
        <time>2018-03-29T14:42:10Z</time>
      </trkpt>
      <trkpt lat="49.05556" lon="4.38509">
        <ele>116</ele>
        <time>2018-03-29T14:43:10Z</time>
      </trkpt>
      <trkpt lat="49.05549" lon="4.38506">
        <ele>117</ele>
        <time>2018-03-29T14:44:10Z</time>
      </trkpt>
      <trkpt lat="49.05539" lon="4.38502">
        <ele>117</ele>
        <time>2018-03-29T14:45:10Z</time>
      </trkpt>
      <trkpt lat="49.05526" lon="4.38497">
        <ele>117</ele>
        <time>2018-03-29T14:46:10Z</time>
      </trkpt>
      <trkpt lat="49.05517" lon="4.38494">
        <ele>118</ele>
        <time>2018-03-29T14:47:10Z</time>
      </trkpt>
      <trkpt lat="49.05509" lon="4.38493">
        <ele>118</ele>
        <time>2018-03-29T14:48:10Z</time>
      </trkpt>
      <trkpt lat="49.05502" lon="4.38491">
        <ele>118</ele>
        <time>2018-03-29T14:49:10Z</time>
      </trkpt>
      <trkpt lat="49.05495" lon="4.3849">
        <ele>118</ele>
        <time>2018-03-29T14:50:10Z</time>
      </trkpt>
      <trkpt lat="49.05489" lon="4.3849">
        <ele>118</ele>
        <time>2018-03-29T14:51:10Z</time>
      </trkpt>
      <trkpt lat="49.0548" lon="4.38491">
        <ele>118</ele>
        <time>2018-03-29T14:52:10Z</time>
      </trkpt>
      <trkpt lat="49.05473" lon="4.38493">
        <ele>118</ele>
        <time>2018-03-29T14:53:10Z</time>
      </trkpt>
      <trkpt lat="49.05464" lon="4.38496">
        <ele>119</ele>
        <time>2018-03-29T14:54:10Z</time>
      </trkpt>
      <trkpt lat="49.05454" lon="4.38499">
        <ele>119</ele>
        <time>2018-03-29T14:55:10Z</time>
      </trkpt>
      <trkpt lat="49.05442" lon="4.38502">
        <ele>119</ele>
        <time>2018-03-29T14:56:10Z</time>
      </trkpt>
      <trkpt lat="49.05435" lon="4.38505">
        <ele>119</ele>
        <time>2018-03-29T14:57:10Z</time>
      </trkpt>
      <trkpt lat="49.05424" lon="4.38509">
        <ele>119</ele>
        <time>2018-03-29T14:58:10Z</time>
      </trkpt>
      <trkpt lat="49.05389" lon="4.3852">
        <ele>118</ele>
        <time>2018-03-29T14:59:10Z</time>
      </trkpt>
      <trkpt lat="49.05373" lon="4.38524">
        <ele>118</ele>
        <time>2018-03-29T15:00:10Z</time>
      </trkpt>
      <trkpt lat="49.05357" lon="4.38528">
        <ele>118</ele>
        <time>2018-03-29T15:01:10Z</time>
      </trkpt>
      <trkpt lat="49.05346" lon="4.38529">
        <ele>117</ele>
        <time>2018-03-29T15:02:10Z</time>
      </trkpt>
      <trkpt lat="49.05333" lon="4.3853">
        <ele>117</ele>
        <time>2018-03-29T15:03:10Z</time>
      </trkpt>
      <trkpt lat="49.05324" lon="4.3853">
        <ele>117</ele>
        <time>2018-03-29T15:04:10Z</time>
      </trkpt>
      <trkpt lat="49.05314" lon="4.3853">
        <ele>117</ele>
        <time>2018-03-29T15:05:10Z</time>
      </trkpt>
      <trkpt lat="49.05296" lon="4.38526">
        <ele>117</ele>
        <time>2018-03-29T15:06:10Z</time>
      </trkpt>
      <trkpt lat="49.05293" lon="4.38525">
        <ele>117</ele>
        <time>2018-03-29T15:07:10Z</time>
      </trkpt>
      <trkpt lat="49.05277" lon="4.38522">
        <ele>117</ele>
        <time>2018-03-29T15:08:10Z</time>
      </trkpt>
      <trkpt lat="49.05265" lon="4.38521">
        <ele>117</ele>
        <time>2018-03-29T15:09:10Z</time>
      </trkpt>
      <trkpt lat="49.05254" lon="4.3852">
        <ele>117</ele>
        <time>2018-03-29T15:10:10Z</time>
      </trkpt>
      <trkpt lat="49.05239" lon="4.38522">
        <ele>118</ele>
        <time>2018-03-29T15:11:10Z</time>
      </trkpt>
      <trkpt lat="49.05229" lon="4.38524">
        <ele>118</ele>
        <time>2018-03-29T15:12:10Z</time>
      </trkpt>
      <trkpt lat="49.05224" lon="4.38526">
        <ele>118</ele>
        <time>2018-03-29T15:13:10Z</time>
      </trkpt>
      <trkpt lat="49.05218" lon="4.38528">
        <ele>118</ele>
        <time>2018-03-29T15:14:10Z</time>
      </trkpt>
      <trkpt lat="49.05213" lon="4.38531">
        <ele>118</ele>
        <time>2018-03-29T15:15:10Z</time>
      </trkpt>
      <trkpt lat="49.05204" lon="4.38536">
        <ele>119</ele>
        <time>2018-03-29T15:16:10Z</time>
      </trkpt>
      <trkpt lat="49.05194" lon="4.38544">
        <ele>119</ele>
        <time>2018-03-29T15:17:10Z</time>
      </trkpt>
      <trkpt lat="49.05187" lon="4.38551">
        <ele>120</ele>
        <time>2018-03-29T15:18:10Z</time>
      </trkpt>
      <trkpt lat="49.05185" lon="4.38554">
        <ele>120</ele>
        <time>2018-03-29T15:19:10Z</time>
      </trkpt>
      <trkpt lat="49.05174" lon="4.38568">
        <ele>120</ele>
        <time>2018-03-29T15:20:10Z</time>
      </trkpt>
      <trkpt lat="49.05156" lon="4.38592">
        <ele>121</ele>
        <time>2018-03-29T15:21:10Z</time>
      </trkpt>
      <trkpt lat="49.05146" lon="4.38609">
        <ele>121</ele>
        <time>2018-03-29T15:22:10Z</time>
      </trkpt>
      <trkpt lat="49.05137" lon="4.38623">
        <ele>120</ele>
        <time>2018-03-29T15:23:10Z</time>
      </trkpt>
      <trkpt lat="49.05125" lon="4.3864">
        <ele>120</ele>
        <time>2018-03-29T15:24:10Z</time>
      </trkpt>
      <trkpt lat="49.05107" lon="4.38665">
        <ele>120</ele>
        <time>2018-03-29T15:25:10Z</time>
      </trkpt>
      <trkpt lat="49.05097" lon="4.38678">
        <ele>119</ele>
        <time>2018-03-29T15:26:10Z</time>
      </trkpt>
      <trkpt lat="49.05085" lon="4.3869">
        <ele>119</ele>
        <time>2018-03-29T15:27:10Z</time>
      </trkpt>
      <trkpt lat="49.05073" lon="4.38701">
        <ele>118</ele>
        <time>2018-03-29T15:28:10Z</time>
      </trkpt>
      <trkpt lat="49.05071" lon="4.38702">
        <ele>118</ele>
        <time>2018-03-29T15:29:10Z</time>
      </trkpt>
      <trkpt lat="49.05059" lon="4.38712">
        <ele>118</ele>
        <time>2018-03-29T15:30:10Z</time>
      </trkpt>
      <trkpt lat="49.05058" lon="4.38713">
        <ele>118</ele>
        <time>2018-03-29T15:31:10Z</time>
      </trkpt>
      <trkpt lat="49.05037" lon="4.38727">
        <ele>118</ele>
        <time>2018-03-29T15:32:10Z</time>
      </trkpt>
      <trkpt lat="49.05003" lon="4.38748">
        <ele>117</ele>
        <time>2018-03-29T15:33:10Z</time>
      </trkpt>
      <trkpt lat="49.04941" lon="4.38788">
        <ele>117</ele>
        <time>2018-03-29T15:34:10Z</time>
      </trkpt>
      <trkpt lat="49.0494" lon="4.38789">
        <ele>117</ele>
        <time>2018-03-29T15:35:10Z</time>
      </trkpt>
      <trkpt lat="49.04931" lon="4.38794">
        <ele>117</ele>
        <time>2018-03-29T15:36:10Z</time>
      </trkpt>
      <trkpt lat="49.04929" lon="4.38795">
        <ele>117</ele>
        <time>2018-03-29T15:37:10Z</time>
      </trkpt>
      <trkpt lat="49.04894" lon="4.38819">
        <ele>117</ele>
        <time>2018-03-29T15:38:10Z</time>
      </trkpt>
      <trkpt lat="49.04876" lon="4.38833">
        <ele>117</ele>
        <time>2018-03-29T15:39:10Z</time>
      </trkpt>
      <trkpt lat="49.04855" lon="4.38849">
        <ele>118</ele>
        <time>2018-03-29T15:40:10Z</time>
      </trkpt>
      <trkpt lat="49.04853" lon="4.38851">
        <ele>118</ele>
        <time>2018-03-29T15:41:10Z</time>
      </trkpt>
      <trkpt lat="49.04814" lon="4.38883">
        <ele>118</ele>
        <time>2018-03-29T15:42:10Z</time>
      </trkpt>
      <trkpt lat="49.04793" lon="4.389">
        <ele>118</ele>
        <time>2018-03-29T15:43:10Z</time>
      </trkpt>
      <trkpt lat="49.04781" lon="4.3891">
        <ele>119</ele>
        <time>2018-03-29T15:44:10Z</time>
      </trkpt>
      <trkpt lat="49.0477" lon="4.3892">
        <ele>119</ele>
        <time>2018-03-29T15:45:10Z</time>
      </trkpt>
      <trkpt lat="49.04753" lon="4.38935">
        <ele>119</ele>
        <time>2018-03-29T15:46:10Z</time>
      </trkpt>
      <trkpt lat="49.04742" lon="4.38946">
        <ele>119</ele>
        <time>2018-03-29T15:47:10Z</time>
      </trkpt>
      <trkpt lat="49.04735" lon="4.38955">
        <ele>119</ele>
        <time>2018-03-29T15:48:10Z</time>
      </trkpt>
      <trkpt lat="49.0472" lon="4.38977">
        <ele>120</ele>
        <time>2018-03-29T15:49:10Z</time>
      </trkpt>
      <trkpt lat="49.04717" lon="4.38981">
        <ele>120</ele>
        <time>2018-03-29T15:50:10Z</time>
      </trkpt>
      <trkpt lat="49.04702" lon="4.39005">
        <ele>120</ele>
        <time>2018-03-29T15:51:10Z</time>
      </trkpt>
      <trkpt lat="49.04686" lon="4.3903">
        <ele>120</ele>
        <time>2018-03-29T15:52:10Z</time>
      </trkpt>
      <trkpt lat="49.04671" lon="4.39057">
        <ele>119</ele>
        <time>2018-03-29T15:53:10Z</time>
      </trkpt>
      <trkpt lat="49.04667" lon="4.39066">
        <ele>119</ele>
        <time>2018-03-29T15:54:10Z</time>
      </trkpt>
      <trkpt lat="49.04659" lon="4.39081">
        <ele>119</ele>
        <time>2018-03-29T15:55:10Z</time>
      </trkpt>
      <trkpt lat="49.04656" lon="4.39088">
        <ele>119</ele>
        <time>2018-03-29T15:56:10Z</time>
      </trkpt>
      <trkpt lat="49.04649" lon="4.39103">
        <ele>119</ele>
        <time>2018-03-29T15:57:10Z</time>
      </trkpt>
      <trkpt lat="49.04645" lon="4.39116">
        <ele>119</ele>
        <time>2018-03-29T15:58:10Z</time>
      </trkpt>
      <trkpt lat="49.04642" lon="4.39134">
        <ele>119</ele>
        <time>2018-03-29T15:59:10Z</time>
      </trkpt>
      <trkpt lat="49.04636" lon="4.39169">
        <ele>119</ele>
        <time>2018-03-29T16:00:10Z</time>
      </trkpt>
      <trkpt lat="49.0463" lon="4.39192">
        <ele>119</ele>
        <time>2018-03-29T16:01:10Z</time>
      </trkpt>
      <trkpt lat="49.04628" lon="4.39196">
        <ele>119</ele>
        <time>2018-03-29T16:02:10Z</time>
      </trkpt>
      <trkpt lat="49.04619" lon="4.39221">
        <ele>119</ele>
        <time>2018-03-29T16:03:10Z</time>
      </trkpt>
      <trkpt lat="49.04614" lon="4.39231">
        <ele>119</ele>
        <time>2018-03-29T16:04:10Z</time>
      </trkpt>
      <trkpt lat="49.04605" lon="4.39245">
        <ele>119</ele>
        <time>2018-03-29T16:05:10Z</time>
      </trkpt>
      <trkpt lat="49.04591" lon="4.3926">
        <ele>120</ele>
        <time>2018-03-29T16:06:10Z</time>
      </trkpt>
      <trkpt lat="49.04568" lon="4.39281">
        <ele>120</ele>
        <time>2018-03-29T16:07:10Z</time>
      </trkpt>
      <trkpt lat="49.04558" lon="4.39289">
        <ele>120</ele>
        <time>2018-03-29T16:08:10Z</time>
      </trkpt>
      <trkpt lat="49.04523" lon="4.3932">
        <ele>120</ele>
        <time>2018-03-29T16:09:10Z</time>
      </trkpt>
      <trkpt lat="49.04514" lon="4.39327">
        <ele>120</ele>
        <time>2018-03-29T16:10:10Z</time>
      </trkpt>
      <trkpt lat="49.04508" lon="4.39332">
        <ele>120</ele>
        <time>2018-03-29T16:11:10Z</time>
      </trkpt>
      <trkpt lat="49.04502" lon="4.39336">
        <ele>120</ele>
        <time>2018-03-29T16:12:10Z</time>
      </trkpt>
      <trkpt lat="49.04484" lon="4.39348">
        <ele>120</ele>
        <time>2018-03-29T16:13:10Z</time>
      </trkpt>
      <trkpt lat="49.04478" lon="4.39352">
        <ele>120</ele>
        <time>2018-03-29T16:14:10Z</time>
      </trkpt>
      <trkpt lat="49.04442" lon="4.3937">
        <ele>120</ele>
        <time>2018-03-29T16:15:10Z</time>
      </trkpt>
      <trkpt lat="49.04418" lon="4.39383">
        <ele>120</ele>
        <time>2018-03-29T16:16:10Z</time>
      </trkpt>
      <trkpt lat="49.04411" lon="4.39388">
        <ele>120</ele>
        <time>2018-03-29T16:17:10Z</time>
      </trkpt>
      <trkpt lat="49.04404" lon="4.39394">
        <ele>120</ele>
        <time>2018-03-29T16:18:10Z</time>
      </trkpt>
      <trkpt lat="49.04382" lon="4.39409">
        <ele>120</ele>
        <time>2018-03-29T16:19:10Z</time>
      </trkpt>
      <trkpt lat="49.04356" lon="4.39431">
        <ele>120</ele>
        <time>2018-03-29T16:20:10Z</time>
      </trkpt>
      <trkpt lat="49.04338" lon="4.39449">
        <ele>120</ele>
        <time>2018-03-29T16:21:10Z</time>
      </trkpt>
      <trkpt lat="49.04309" lon="4.3948">
        <ele>119</ele>
        <time>2018-03-29T16:22:10Z</time>
      </trkpt>
      <trkpt lat="49.04296" lon="4.39493">
        <ele>119</ele>
        <time>2018-03-29T16:23:10Z</time>
      </trkpt>
      <trkpt lat="49.04274" lon="4.39515">
        <ele>119</ele>
        <time>2018-03-29T16:24:10Z</time>
      </trkpt>
      <trkpt lat="49.04246" lon="4.39543">
        <ele>119</ele>
        <time>2018-03-29T16:25:10Z</time>
      </trkpt>
      <trkpt lat="49.04234" lon="4.39556">
        <ele>119</ele>
        <time>2018-03-29T16:26:10Z</time>
      </trkpt>
      <trkpt lat="49.04193" lon="4.39599">
        <ele>119</ele>
        <time>2018-03-29T16:27:10Z</time>
      </trkpt>
      <trkpt lat="49.0417" lon="4.39622">
        <ele>119</ele>
        <time>2018-03-29T16:28:10Z</time>
      </trkpt>
      <trkpt lat="49.04156" lon="4.39636">
        <ele>120</ele>
        <time>2018-03-29T16:29:10Z</time>
      </trkpt>
      <trkpt lat="49.04152" lon="4.39641">
        <ele>120</ele>
        <time>2018-03-29T16:30:10Z</time>
      </trkpt>
      <trkpt lat="49.04125" lon="4.39668">
        <ele>120</ele>
        <time>2018-03-29T16:31:10Z</time>
      </trkpt>
      <trkpt lat="49.04108" lon="4.39687">
        <ele>120</ele>
        <time>2018-03-29T16:32:10Z</time>
      </trkpt>
      <trkpt lat="49.04096" lon="4.39704">
        <ele>120</ele>
        <time>2018-03-29T16:33:10Z</time>
      </trkpt>
      <trkpt lat="49.04082" lon="4.39723">
        <ele>120</ele>
        <time>2018-03-29T16:34:10Z</time>
      </trkpt>
      <trkpt lat="49.04055" lon="4.39765">
        <ele>120</ele>
        <time>2018-03-29T16:35:10Z</time>
      </trkpt>
      <trkpt lat="49.04002" lon="4.39848">
        <ele>120</ele>
        <time>2018-03-29T16:36:10Z</time>
      </trkpt>
      <trkpt lat="49.03962" lon="4.39911">
        <ele>121</ele>
        <time>2018-03-29T16:37:10Z</time>
      </trkpt>
      <trkpt lat="49.03951" lon="4.39926">
        <ele>121</ele>
        <time>2018-03-29T16:38:10Z</time>
      </trkpt>
      <trkpt lat="49.03936" lon="4.39949">
        <ele>121</ele>
        <time>2018-03-29T16:39:10Z</time>
      </trkpt>
      <trkpt lat="49.03877" lon="4.40031">
        <ele>121</ele>
        <time>2018-03-29T16:40:10Z</time>
      </trkpt>
      <trkpt lat="49.03866" lon="4.40048">
        <ele>121</ele>
        <time>2018-03-29T16:41:10Z</time>
      </trkpt>
      <trkpt lat="49.03852" lon="4.40068">
        <ele>121</ele>
        <time>2018-03-29T16:42:10Z</time>
      </trkpt>
      <trkpt lat="49.03793" lon="4.40154">
        <ele>121</ele>
        <time>2018-03-29T16:43:10Z</time>
      </trkpt>
      <trkpt lat="49.03689" lon="4.403">
        <ele>120</ele>
        <time>2018-03-29T16:44:10Z</time>
      </trkpt>
      <trkpt lat="49.03666" lon="4.40331">
        <ele>121</ele>
        <time>2018-03-29T16:45:10Z</time>
      </trkpt>
      <trkpt lat="49.03662" lon="4.40336">
        <ele>121</ele>
        <time>2018-03-29T16:46:10Z</time>
      </trkpt>
      <trkpt lat="49.03619" lon="4.4039">
        <ele>121</ele>
        <time>2018-03-29T16:47:10Z</time>
      </trkpt>
      <trkpt lat="49.03597" lon="4.40418">
        <ele>121</ele>
        <time>2018-03-29T16:48:10Z</time>
      </trkpt>
      <trkpt lat="49.0357" lon="4.4045">
        <ele>122</ele>
        <time>2018-03-29T16:49:10Z</time>
      </trkpt>
      <trkpt lat="49.03546" lon="4.40481">
        <ele>123</ele>
        <time>2018-03-29T16:50:10Z</time>
      </trkpt>
      <trkpt lat="49.03528" lon="4.405">
        <ele>124</ele>
        <time>2018-03-29T16:51:10Z</time>
      </trkpt>
      <trkpt lat="49.03517" lon="4.40513">
        <ele>125</ele>
        <time>2018-03-29T16:52:10Z</time>
      </trkpt>
      <trkpt lat="49.03507" lon="4.40522">
        <ele>125</ele>
        <time>2018-03-29T16:53:10Z</time>
      </trkpt>
      <trkpt lat="49.03503" lon="4.40526">
        <ele>125</ele>
        <time>2018-03-29T16:54:10Z</time>
      </trkpt>
      <trkpt lat="49.03489" lon="4.40537">
        <ele>125</ele>
        <time>2018-03-29T16:55:10Z</time>
      </trkpt>
      <trkpt lat="49.03468" lon="4.40551">
        <ele>124</ele>
        <time>2018-03-29T16:56:10Z</time>
      </trkpt>
      <trkpt lat="49.0344" lon="4.40569">
        <ele>124</ele>
        <time>2018-03-29T16:57:10Z</time>
      </trkpt>
      <trkpt lat="49.03438" lon="4.4057">
        <ele>124</ele>
        <time>2018-03-29T16:58:10Z</time>
      </trkpt>
      <trkpt lat="49.03425" lon="4.40576">
        <ele>123</ele>
        <time>2018-03-29T16:59:10Z</time>
      </trkpt>
      <trkpt lat="49.0342" lon="4.4058">
        <ele>123</ele>
        <time>2018-03-29T17:00:10Z</time>
      </trkpt>
      <trkpt lat="49.03414" lon="4.40583">
        <ele>123</ele>
        <time>2018-03-29T17:01:10Z</time>
      </trkpt>
      <trkpt lat="49.03411" lon="4.40585">
        <ele>123</ele>
        <time>2018-03-29T17:02:10Z</time>
      </trkpt>
      <trkpt lat="49.03405" lon="4.40588">
        <ele>123</ele>
        <time>2018-03-29T17:03:10Z</time>
      </trkpt>
      <trkpt lat="49.03403" lon="4.40589">
        <ele>123</ele>
        <time>2018-03-29T17:04:10Z</time>
      </trkpt>
      <trkpt lat="49.03385" lon="4.40598">
        <ele>123</ele>
        <time>2018-03-29T17:05:10Z</time>
      </trkpt>
      <trkpt lat="49.0334" lon="4.40622">
        <ele>124</ele>
        <time>2018-03-29T17:06:10Z</time>
      </trkpt>
      <trkpt lat="49.03291" lon="4.40649">
        <ele>125</ele>
        <time>2018-03-29T17:07:10Z</time>
      </trkpt>
      <trkpt lat="49.03275" lon="4.40658">
        <ele>126</ele>
        <time>2018-03-29T17:08:10Z</time>
      </trkpt>
      <trkpt lat="49.03237" lon="4.40679">
        <ele>126</ele>
        <time>2018-03-29T17:09:10Z</time>
      </trkpt>
      <trkpt lat="49.03206" lon="4.40699">
        <ele>125</ele>
        <time>2018-03-29T17:10:10Z</time>
      </trkpt>
      <trkpt lat="49.03162" lon="4.40729">
        <ele>124</ele>
        <time>2018-03-29T17:11:10Z</time>
      </trkpt>
      <trkpt lat="49.03133" lon="4.40752">
        <ele>124</ele>
        <time>2018-03-29T17:12:10Z</time>
      </trkpt>
      <trkpt lat="49.03111" lon="4.4077">
        <ele>123</ele>
        <time>2018-03-29T17:13:10Z</time>
      </trkpt>
      <trkpt lat="49.0308" lon="4.40798">
        <ele>123</ele>
        <time>2018-03-29T17:14:10Z</time>
      </trkpt>
      <trkpt lat="49.03067" lon="4.4081">
        <ele>123</ele>
        <time>2018-03-29T17:15:10Z</time>
      </trkpt>
      <trkpt lat="49.0305" lon="4.40829">
        <ele>123</ele>
        <time>2018-03-29T17:16:10Z</time>
      </trkpt>
      <trkpt lat="49.03033" lon="4.40849">
        <ele>123</ele>
        <time>2018-03-29T17:17:10Z</time>
      </trkpt>
      <trkpt lat="49.03025" lon="4.40858">
        <ele>123</ele>
        <time>2018-03-29T17:18:10Z</time>
      </trkpt>
      <trkpt lat="49.03013" lon="4.40874">
        <ele>123</ele>
        <time>2018-03-29T17:19:10Z</time>
      </trkpt>
      <trkpt lat="49.03003" lon="4.40889">
        <ele>123</ele>
        <time>2018-03-29T17:20:10Z</time>
      </trkpt>
      <trkpt lat="49.02975" lon="4.40929">
        <ele>123</ele>
        <time>2018-03-29T17:21:10Z</time>
      </trkpt>
      <trkpt lat="49.02933" lon="4.40996">
        <ele>122</ele>
        <time>2018-03-29T17:22:10Z</time>
      </trkpt>
      <trkpt lat="49.02884" lon="4.41081">
        <ele>122</ele>
        <time>2018-03-29T17:23:10Z</time>
      </trkpt>
      <trkpt lat="49.02812" lon="4.412">
        <ele>123</ele>
        <time>2018-03-29T17:24:10Z</time>
      </trkpt>
      <trkpt lat="49.02754" lon="4.41294">
        <ele>123</ele>
        <time>2018-03-29T17:25:10Z</time>
      </trkpt>
      <trkpt lat="49.0272" lon="4.41345">
        <ele>123</ele>
        <time>2018-03-29T17:26:10Z</time>
      </trkpt>
      <trkpt lat="49.02712" lon="4.41359">
        <ele>123</ele>
        <time>2018-03-29T17:27:10Z</time>
      </trkpt>
      <trkpt lat="49.02707" lon="4.41365">
        <ele>123</ele>
        <time>2018-03-29T17:28:10Z</time>
      </trkpt>
      <trkpt lat="49.02701" lon="4.41369">
        <ele>123</ele>
        <time>2018-03-29T17:29:10Z</time>
      </trkpt>
      <trkpt lat="49.02686" lon="4.41387">
        <ele>124</ele>
        <time>2018-03-29T17:30:10Z</time>
      </trkpt>
      <trkpt lat="49.02679" lon="4.41395">
        <ele>124</ele>
        <time>2018-03-29T17:31:10Z</time>
      </trkpt>
      <trkpt lat="49.02672" lon="4.41408">
        <ele>124</ele>
        <time>2018-03-29T17:32:10Z</time>
      </trkpt>
      <trkpt lat="49.02666" lon="4.41414">
        <ele>124</ele>
        <time>2018-03-29T17:33:10Z</time>
      </trkpt>
      <trkpt lat="49.0264" lon="4.4147">
        <ele>123</ele>
        <time>2018-03-29T17:34:10Z</time>
      </trkpt>
      <trkpt lat="49.02638" lon="4.41479">
        <ele>123</ele>
        <time>2018-03-29T17:35:10Z</time>
      </trkpt>
      <trkpt lat="49.02619" lon="4.41518">
        <ele>124</ele>
        <time>2018-03-29T17:36:10Z</time>
      </trkpt>
      <trkpt lat="49.02616" lon="4.41524">
        <ele>124</ele>
        <time>2018-03-29T17:37:10Z</time>
      </trkpt>
      <trkpt lat="49.02614" lon="4.41529">
        <ele>124</ele>
        <time>2018-03-29T17:38:10Z</time>
      </trkpt>
      <trkpt lat="49.02586" lon="4.4159">
        <ele>124</ele>
        <time>2018-03-29T17:39:10Z</time>
      </trkpt>
      <trkpt lat="49.02576" lon="4.41613">
        <ele>124</ele>
        <time>2018-03-29T17:40:10Z</time>
      </trkpt>
      <trkpt lat="49.02563" lon="4.41644">
        <ele>124</ele>
        <time>2018-03-29T17:41:10Z</time>
      </trkpt>
      <trkpt lat="49.02555" lon="4.41662">
        <ele>124</ele>
        <time>2018-03-29T17:42:10Z</time>
      </trkpt>
      <trkpt lat="49.02549" lon="4.41676">
        <ele>124</ele>
        <time>2018-03-29T17:43:10Z</time>
      </trkpt>
      <trkpt lat="49.02534" lon="4.41712">
        <ele>125</ele>
        <time>2018-03-29T17:44:10Z</time>
      </trkpt>
      <trkpt lat="49.02528" lon="4.41726">
        <ele>125</ele>
        <time>2018-03-29T17:45:10Z</time>
      </trkpt>
      <trkpt lat="49.02523" lon="4.41739">
        <ele>125</ele>
        <time>2018-03-29T17:46:10Z</time>
      </trkpt>
      <trkpt lat="49.02503" lon="4.41791">
        <ele>125</ele>
        <time>2018-03-29T17:47:10Z</time>
      </trkpt>
      <trkpt lat="49.02484" lon="4.41841">
        <ele>125</ele>
        <time>2018-03-29T17:48:10Z</time>
      </trkpt>
      <trkpt lat="49.02473" lon="4.41864">
        <ele>125</ele>
        <time>2018-03-29T17:49:10Z</time>
      </trkpt>
      <trkpt lat="49.02463" lon="4.41879">
        <ele>125</ele>
        <time>2018-03-29T17:50:10Z</time>
      </trkpt>
      <trkpt lat="49.02455" lon="4.41889">
        <ele>125</ele>
        <time>2018-03-29T17:51:10Z</time>
      </trkpt>
      <trkpt lat="49.0245" lon="4.41894">
        <ele>125</ele>
        <time>2018-03-29T17:52:10Z</time>
      </trkpt>
      <trkpt lat="49.02446" lon="4.41898">
        <ele>125</ele>
        <time>2018-03-29T17:53:10Z</time>
      </trkpt>
      <trkpt lat="49.02441" lon="4.41902">
        <ele>125</ele>
        <time>2018-03-29T17:54:10Z</time>
      </trkpt>
      <trkpt lat="49.02435" lon="4.41906">
        <ele>125</ele>
        <time>2018-03-29T17:55:10Z</time>
      </trkpt>
      <trkpt lat="49.02431" lon="4.41909">
        <ele>125</ele>
        <time>2018-03-29T17:56:10Z</time>
      </trkpt>
      <trkpt lat="49.02429" lon="4.41911">
        <ele>125</ele>
        <time>2018-03-29T17:57:10Z</time>
      </trkpt>
      <trkpt lat="49.02425" lon="4.41913">
        <ele>125</ele>
        <time>2018-03-29T17:58:10Z</time>
      </trkpt>
      <trkpt lat="49.02422" lon="4.41914">
        <ele>125</ele>
        <time>2018-03-29T17:59:10Z</time>
      </trkpt>
      <trkpt lat="49.02419" lon="4.41915">
        <ele>125</ele>
        <time>2018-03-29T18:00:10Z</time>
      </trkpt>
      <trkpt lat="49.02416" lon="4.41916">
        <ele>125</ele>
        <time>2018-03-29T18:01:10Z</time>
      </trkpt>
      <trkpt lat="49.02415" lon="4.41916">
        <ele>125</ele>
        <time>2018-03-29T18:02:10Z</time>
      </trkpt>
      <trkpt lat="49.02414" lon="4.41916">
        <ele>125</ele>
        <time>2018-03-29T18:03:10Z</time>
      </trkpt>
      <trkpt lat="49.02413" lon="4.41916">
        <ele>125</ele>
        <time>2018-03-29T18:04:10Z</time>
      </trkpt>
      <trkpt lat="49.02412" lon="4.41916">
        <ele>125</ele>
        <time>2018-03-29T18:05:10Z</time>
      </trkpt>
      <trkpt lat="49.02411" lon="4.41915">
        <ele>125</ele>
        <time>2018-03-29T18:06:10Z</time>
      </trkpt>
      <trkpt lat="49.0241" lon="4.41915">
        <ele>125</ele>
        <time>2018-03-29T18:07:10Z</time>
      </trkpt>
      <trkpt lat="49.02399" lon="4.4191">
        <ele>125</ele>
        <time>2018-03-29T18:08:10Z</time>
      </trkpt>
      <trkpt lat="49.02361" lon="4.41893">
        <ele>125</ele>
        <time>2018-03-29T18:09:10Z</time>
      </trkpt>
      <trkpt lat="49.02358" lon="4.41891">
        <ele>125</ele>
        <time>2018-03-29T18:10:10Z</time>
      </trkpt>
      <trkpt lat="49.02326" lon="4.41875">
        <ele>125</ele>
        <time>2018-03-29T18:11:10Z</time>
      </trkpt>
      <trkpt lat="49.023" lon="4.41864">
        <ele>125</ele>
        <time>2018-03-29T18:12:10Z</time>
      </trkpt>
      <trkpt lat="49.02289" lon="4.41861">
        <ele>125</ele>
        <time>2018-03-29T18:13:10Z</time>
      </trkpt>
      <trkpt lat="49.02279" lon="4.4186">
        <ele>125</ele>
        <time>2018-03-29T18:14:10Z</time>
      </trkpt>
      <trkpt lat="49.02271" lon="4.4186">
        <ele>125</ele>
        <time>2018-03-29T18:15:10Z</time>
      </trkpt>
      <trkpt lat="49.02261" lon="4.41861">
        <ele>124</ele>
        <time>2018-03-29T18:16:10Z</time>
      </trkpt>
      <trkpt lat="49.02251" lon="4.41864">
        <ele>124</ele>
        <time>2018-03-29T18:17:10Z</time>
      </trkpt>
      <trkpt lat="49.02249" lon="4.41865">
        <ele>124</ele>
        <time>2018-03-29T18:18:10Z</time>
      </trkpt>
      <trkpt lat="49.02242" lon="4.41868">
        <ele>124</ele>
        <time>2018-03-29T18:19:10Z</time>
      </trkpt>
      <trkpt lat="49.02232" lon="4.41874">
        <ele>125</ele>
        <time>2018-03-29T18:20:10Z</time>
      </trkpt>
      <trkpt lat="49.02231" lon="4.41875">
        <ele>125</ele>
        <time>2018-03-29T18:21:10Z</time>
      </trkpt>
      <trkpt lat="49.02226" lon="4.41878">
        <ele>125</ele>
        <time>2018-03-29T18:22:10Z</time>
      </trkpt>
      <trkpt lat="49.0222" lon="4.41882">
        <ele>125</ele>
        <time>2018-03-29T18:23:10Z</time>
      </trkpt>
      <trkpt lat="49.02219" lon="4.41883">
        <ele>125</ele>
        <time>2018-03-29T18:24:10Z</time>
      </trkpt>
      <trkpt lat="49.02212" lon="4.41889">
        <ele>125</ele>
        <time>2018-03-29T18:25:10Z</time>
      </trkpt>
      <trkpt lat="49.02211" lon="4.41891">
        <ele>125</ele>
        <time>2018-03-29T18:26:10Z</time>
      </trkpt>
      <trkpt lat="49.02205" lon="4.41897">
        <ele>125</ele>
        <time>2018-03-29T18:27:10Z</time>
      </trkpt>
      <trkpt lat="49.02204" lon="4.41899">
        <ele>125</ele>
        <time>2018-03-29T18:28:10Z</time>
      </trkpt>
      <trkpt lat="49.02196" lon="4.41907">
        <ele>125</ele>
        <time>2018-03-29T18:29:10Z</time>
      </trkpt>
      <trkpt lat="49.02187" lon="4.4192">
        <ele>125</ele>
        <time>2018-03-29T18:30:10Z</time>
      </trkpt>
      <trkpt lat="49.02183" lon="4.41927">
        <ele>125</ele>
        <time>2018-03-29T18:31:10Z</time>
      </trkpt>
      <trkpt lat="49.02179" lon="4.41933">
        <ele>125</ele>
        <time>2018-03-29T18:32:10Z</time>
      </trkpt>
      <trkpt lat="49.02174" lon="4.4194">
        <ele>125</ele>
        <time>2018-03-29T18:33:10Z</time>
      </trkpt>
      <trkpt lat="49.02168" lon="4.41949">
        <ele>125</ele>
        <time>2018-03-29T18:34:10Z</time>
      </trkpt>
      <trkpt lat="49.02162" lon="4.41956">
        <ele>125</ele>
        <time>2018-03-29T18:35:10Z</time>
      </trkpt>
      <trkpt lat="49.02161" lon="4.41958">
        <ele>125</ele>
        <time>2018-03-29T18:36:10Z</time>
      </trkpt>
      <trkpt lat="49.02158" lon="4.41961">
        <ele>125</ele>
        <time>2018-03-29T18:37:10Z</time>
      </trkpt>
      <trkpt lat="49.02154" lon="4.41966">
        <ele>125</ele>
        <time>2018-03-29T18:38:10Z</time>
      </trkpt>
      <trkpt lat="49.0215" lon="4.41969">
        <ele>125</ele>
        <time>2018-03-29T18:39:10Z</time>
      </trkpt>
      <trkpt lat="49.02147" lon="4.41973">
        <ele>125</ele>
        <time>2018-03-29T18:40:10Z</time>
      </trkpt>
      <trkpt lat="49.02139" lon="4.4198">
        <ele>125</ele>
        <time>2018-03-29T18:41:10Z</time>
      </trkpt>
      <trkpt lat="49.0209" lon="4.4202">
        <ele>125</ele>
        <time>2018-03-29T18:42:10Z</time>
      </trkpt>
      <trkpt lat="49.0204" lon="4.42061">
        <ele>126</ele>
        <time>2018-03-29T18:43:10Z</time>
      </trkpt>
      <trkpt lat="49.02024" lon="4.42075">
        <ele>127</ele>
        <time>2018-03-29T18:44:10Z</time>
      </trkpt>
      <trkpt lat="49.01985" lon="4.42111">
        <ele>127</ele>
        <time>2018-03-29T18:45:10Z</time>
      </trkpt>
      <trkpt lat="49.0194" lon="4.42153">
        <ele>127</ele>
        <time>2018-03-29T18:46:10Z</time>
      </trkpt>
      <trkpt lat="49.01926" lon="4.42166">
        <ele>127</ele>
        <time>2018-03-29T18:47:10Z</time>
      </trkpt>
      <trkpt lat="49.01923" lon="4.42169">
        <ele>127</ele>
        <time>2018-03-29T18:48:10Z</time>
      </trkpt>
      <trkpt lat="49.01923" lon="4.42169">
        <ele>127</ele>
        <time>2018-03-29T18:49:10Z</time>
      </trkpt>
      <trkpt lat="49.01909" lon="4.4218">
        <ele>127</ele>
        <time>2018-03-29T18:50:10Z</time>
      </trkpt>
      <trkpt lat="49.01867" lon="4.42213">
        <ele>126</ele>
        <time>2018-03-29T18:51:10Z</time>
      </trkpt>
      <trkpt lat="49.01843" lon="4.42232">
        <ele>126</ele>
        <time>2018-03-29T18:52:10Z</time>
      </trkpt>
      <trkpt lat="49.01813" lon="4.42257">
        <ele>126</ele>
        <time>2018-03-29T18:53:10Z</time>
      </trkpt>
      <trkpt lat="49.01779" lon="4.42288">
        <ele>125</ele>
        <time>2018-03-29T18:54:10Z</time>
      </trkpt>
      <trkpt lat="49.01743" lon="4.42323">
        <ele>126</ele>
        <time>2018-03-29T18:55:10Z</time>
      </trkpt>
      <trkpt lat="49.01714" lon="4.42355">
        <ele>126</ele>
        <time>2018-03-29T18:56:10Z</time>
      </trkpt>
      <trkpt lat="49.01691" lon="4.42381">
        <ele>126</ele>
        <time>2018-03-29T18:57:10Z</time>
      </trkpt>
      <trkpt lat="49.01669" lon="4.42408">
        <ele>126</ele>
        <time>2018-03-29T18:58:10Z</time>
      </trkpt>
      <trkpt lat="49.0165" lon="4.4243">
        <ele>126</ele>
        <time>2018-03-29T18:59:10Z</time>
      </trkpt>
      <trkpt lat="49.01636" lon="4.42442">
        <ele>126</ele>
        <time>2018-03-29T19:00:10Z</time>
      </trkpt>
      <trkpt lat="49.01631" lon="4.42448">
        <ele>126</ele>
        <time>2018-03-29T19:01:10Z</time>
      </trkpt>
      <trkpt lat="49.01628" lon="4.4245">
        <ele>126</ele>
        <time>2018-03-29T19:02:10Z</time>
      </trkpt>
      <trkpt lat="49.01615" lon="4.4246">
        <ele>126</ele>
        <time>2018-03-29T19:03:10Z</time>
      </trkpt>
      <trkpt lat="49.01604" lon="4.42467">
        <ele>126</ele>
        <time>2018-03-29T19:04:10Z</time>
      </trkpt>
      <trkpt lat="49.01592" lon="4.42474">
        <ele>126</ele>
        <time>2018-03-29T19:05:10Z</time>
      </trkpt>
      <trkpt lat="49.01571" lon="4.42485">
        <ele>126</ele>
        <time>2018-03-29T19:06:10Z</time>
      </trkpt>
      <trkpt lat="49.01568" lon="4.42486">
        <ele>126</ele>
        <time>2018-03-29T19:07:10Z</time>
      </trkpt>
      <trkpt lat="49.01527" lon="4.42501">
        <ele>125</ele>
        <time>2018-03-29T19:08:10Z</time>
      </trkpt>
      <trkpt lat="49.01462" lon="4.42521">
        <ele>125</ele>
        <time>2018-03-29T19:09:10Z</time>
      </trkpt>
      <trkpt lat="49.01425" lon="4.42536">
        <ele>125</ele>
        <time>2018-03-29T19:10:10Z</time>
      </trkpt>
      <trkpt lat="49.01402" lon="4.42548">
        <ele>125</ele>
        <time>2018-03-29T19:11:10Z</time>
      </trkpt>
      <trkpt lat="49.01379" lon="4.42563">
        <ele>125</ele>
        <time>2018-03-29T19:12:10Z</time>
      </trkpt>
      <trkpt lat="49.01336" lon="4.42594">
        <ele>125</ele>
        <time>2018-03-29T19:13:10Z</time>
      </trkpt>
      <trkpt lat="49.01298" lon="4.42624">
        <ele>125</ele>
        <time>2018-03-29T19:14:10Z</time>
      </trkpt>
      <trkpt lat="49.01252" lon="4.42656">
        <ele>125</ele>
        <time>2018-03-29T19:15:10Z</time>
      </trkpt>
      <trkpt lat="49.01223" lon="4.42678">
        <ele>125</ele>
        <time>2018-03-29T19:16:10Z</time>
      </trkpt>
      <trkpt lat="49.01203" lon="4.42695">
        <ele>125</ele>
        <time>2018-03-29T19:17:10Z</time>
      </trkpt>
      <trkpt lat="49.01179" lon="4.42717">
        <ele>125</ele>
        <time>2018-03-29T19:18:10Z</time>
      </trkpt>
      <trkpt lat="49.01156" lon="4.42737">
        <ele>125</ele>
        <time>2018-03-29T19:19:10Z</time>
      </trkpt>
      <trkpt lat="49.0114" lon="4.42751">
        <ele>125</ele>
        <time>2018-03-29T19:20:10Z</time>
      </trkpt>
      <trkpt lat="49.01125" lon="4.42763">
        <ele>125</ele>
        <time>2018-03-29T19:21:10Z</time>
      </trkpt>
      <trkpt lat="49.01099" lon="4.42778">
        <ele>125</ele>
        <time>2018-03-29T19:22:10Z</time>
      </trkpt>
      <trkpt lat="49.01054" lon="4.42801">
        <ele>126</ele>
        <time>2018-03-29T19:23:10Z</time>
      </trkpt>
      <trkpt lat="49.00999" lon="4.42825">
        <ele>126</ele>
        <time>2018-03-29T19:24:10Z</time>
      </trkpt>
      <trkpt lat="49.00949" lon="4.42844">
        <ele>126</ele>
        <time>2018-03-29T19:25:10Z</time>
      </trkpt>
      <trkpt lat="49.00913" lon="4.4286">
        <ele>126</ele>
        <time>2018-03-29T19:26:10Z</time>
      </trkpt>
      <trkpt lat="49.00886" lon="4.42871">
        <ele>127</ele>
        <time>2018-03-29T19:27:10Z</time>
      </trkpt>
      <trkpt lat="49.00876" lon="4.42876">
        <ele>127</ele>
        <time>2018-03-29T19:28:10Z</time>
      </trkpt>
      <trkpt lat="49.00865" lon="4.42881">
        <ele>127</ele>
        <time>2018-03-29T19:29:10Z</time>
      </trkpt>
      <trkpt lat="49.00851" lon="4.42888">
        <ele>127</ele>
        <time>2018-03-29T19:30:10Z</time>
      </trkpt>
      <trkpt lat="49.00836" lon="4.42896">
        <ele>127</ele>
        <time>2018-03-29T19:31:10Z</time>
      </trkpt>
      <trkpt lat="49.00822" lon="4.42905">
        <ele>127</ele>
        <time>2018-03-29T19:32:10Z</time>
      </trkpt>
      <trkpt lat="49.00806" lon="4.42916">
        <ele>127</ele>
        <time>2018-03-29T19:33:10Z</time>
      </trkpt>
      <trkpt lat="49.0079" lon="4.42926">
        <ele>127</ele>
        <time>2018-03-29T19:34:10Z</time>
      </trkpt>
      <trkpt lat="49.00771" lon="4.42937">
        <ele>127</ele>
        <time>2018-03-29T19:35:10Z</time>
      </trkpt>
      <trkpt lat="49.00749" lon="4.42949">
        <ele>127</ele>
        <time>2018-03-29T19:36:10Z</time>
      </trkpt>
      <trkpt lat="49.0073" lon="4.42957">
        <ele>127</ele>
        <time>2018-03-29T19:37:10Z</time>
      </trkpt>
      <trkpt lat="49.00717" lon="4.42962">
        <ele>127</ele>
        <time>2018-03-29T19:38:10Z</time>
      </trkpt>
      <trkpt lat="49.00706" lon="4.42965">
        <ele>127</ele>
        <time>2018-03-29T19:39:10Z</time>
      </trkpt>
      <trkpt lat="49.00701" lon="4.42966">
        <ele>127</ele>
        <time>2018-03-29T19:40:10Z</time>
      </trkpt>
      <trkpt lat="49.007" lon="4.42966">
        <ele>127</ele>
        <time>2018-03-29T19:41:10Z</time>
      </trkpt>
      <trkpt lat="49.00694" lon="4.42966">
        <ele>127</ele>
        <time>2018-03-29T19:42:10Z</time>
      </trkpt>
      <trkpt lat="49.00677" lon="4.42965">
        <ele>128</ele>
        <time>2018-03-29T19:43:10Z</time>
      </trkpt>
      <trkpt lat="49.00645" lon="4.42962">
        <ele>128</ele>
        <time>2018-03-29T19:44:10Z</time>
      </trkpt>
      <trkpt lat="49.00634" lon="4.42962">
        <ele>128</ele>
        <time>2018-03-29T19:45:10Z</time>
      </trkpt>
      <trkpt lat="49.00621" lon="4.42963">
        <ele>128</ele>
        <time>2018-03-29T19:46:10Z</time>
      </trkpt>
      <trkpt lat="49.00604" lon="4.42967">
        <ele>128</ele>
        <time>2018-03-29T19:47:10Z</time>
      </trkpt>
      <trkpt lat="49.00578" lon="4.42977">
        <ele>128</ele>
        <time>2018-03-29T19:48:10Z</time>
      </trkpt>
      <trkpt lat="49.00558" lon="4.42988">
        <ele>128</ele>
        <time>2018-03-29T19:49:10Z</time>
      </trkpt>
      <trkpt lat="49.00515" lon="4.43011">
        <ele>127</ele>
        <time>2018-03-29T19:50:10Z</time>
      </trkpt>
      <trkpt lat="49.00461" lon="4.43037">
        <ele>127</ele>
        <time>2018-03-29T19:51:10Z</time>
      </trkpt>
      <trkpt lat="49.00446" lon="4.43045">
        <ele>127</ele>
        <time>2018-03-29T19:52:10Z</time>
      </trkpt>
      <trkpt lat="49.00427" lon="4.43056">
        <ele>127</ele>
        <time>2018-03-29T19:53:10Z</time>
      </trkpt>
      <trkpt lat="49.00379" lon="4.43089">
        <ele>127</ele>
        <time>2018-03-29T19:54:10Z</time>
      </trkpt>
      <trkpt lat="49.00332" lon="4.43121">
        <ele>127</ele>
        <time>2018-03-29T19:55:10Z</time>
      </trkpt>
      <trkpt lat="49.00303" lon="4.4314">
        <ele>128</ele>
        <time>2018-03-29T19:56:10Z</time>
      </trkpt>
      <trkpt lat="49.00273" lon="4.4316">
        <ele>129</ele>
        <time>2018-03-29T19:57:10Z</time>
      </trkpt>
      <trkpt lat="49.00218" lon="4.43196">
        <ele>129</ele>
        <time>2018-03-29T19:58:10Z</time>
      </trkpt>
      <trkpt lat="49.00211" lon="4.432">
        <ele>129</ele>
        <time>2018-03-29T19:59:10Z</time>
      </trkpt>
      <trkpt lat="49.00191" lon="4.43215">
        <ele>128</ele>
        <time>2018-03-29T20:00:10Z</time>
      </trkpt>
      <trkpt lat="49.00086" lon="4.43292">
        <ele>127</ele>
        <time>2018-03-29T20:01:10Z</time>
      </trkpt>
      <trkpt lat="49.0006" lon="4.43308">
        <ele>128</ele>
        <time>2018-03-29T20:02:10Z</time>
      </trkpt>
      <trkpt lat="49.00042" lon="4.4332">
        <ele>128</ele>
        <time>2018-03-29T20:03:10Z</time>
      </trkpt>
      <trkpt lat="49.00036" lon="4.43324">
        <ele>128</ele>
        <time>2018-03-29T20:04:10Z</time>
      </trkpt>
      <trkpt lat="49.00035" lon="4.43325">
        <ele>128</ele>
        <time>2018-03-29T20:05:10Z</time>
      </trkpt>
      <trkpt lat="49.00029" lon="4.43328">
        <ele>128</ele>
        <time>2018-03-29T20:06:10Z</time>
      </trkpt>
      <trkpt lat="49.00021" lon="4.43332">
        <ele>128</ele>
        <time>2018-03-29T20:07:10Z</time>
      </trkpt>
      <trkpt lat="49.00004" lon="4.43342">
        <ele>129</ele>
        <time>2018-03-29T20:08:10Z</time>
      </trkpt>
      <trkpt lat="49.00001" lon="4.43343">
        <ele>129</ele>
        <time>2018-03-29T20:09:10Z</time>
      </trkpt>
      <trkpt lat="48.99981" lon="4.43353">
        <ele>129</ele>
        <time>2018-03-29T20:10:10Z</time>
      </trkpt>
      <trkpt lat="48.99959" lon="4.43364">
        <ele>129</ele>
        <time>2018-03-29T20:11:10Z</time>
      </trkpt>
      <trkpt lat="48.99949" lon="4.4337">
        <ele>129</ele>
        <time>2018-03-29T20:12:10Z</time>
      </trkpt>
      <trkpt lat="48.99943" lon="4.43375">
        <ele>129</ele>
        <time>2018-03-29T20:13:10Z</time>
      </trkpt>
      <trkpt lat="48.99926" lon="4.43386">
        <ele>129</ele>
        <time>2018-03-29T20:14:10Z</time>
      </trkpt>
      <trkpt lat="48.99909" lon="4.434">
        <ele>129</ele>
        <time>2018-03-29T20:15:10Z</time>
      </trkpt>
      <trkpt lat="48.99883" lon="4.43421">
        <ele>129</ele>
        <time>2018-03-29T20:16:10Z</time>
      </trkpt>
      <trkpt lat="48.99874" lon="4.43428">
        <ele>130</ele>
        <time>2018-03-29T20:17:10Z</time>
      </trkpt>
      <trkpt lat="48.99832" lon="4.43465">
        <ele>130</ele>
        <time>2018-03-29T20:18:10Z</time>
      </trkpt>
      <trkpt lat="48.99816" lon="4.4348">
        <ele>130</ele>
        <time>2018-03-29T20:19:10Z</time>
      </trkpt>
      <trkpt lat="48.99811" lon="4.43485">
        <ele>130</ele>
        <time>2018-03-29T20:20:10Z</time>
      </trkpt>
      <trkpt lat="48.99783" lon="4.4351">
        <ele>130</ele>
        <time>2018-03-29T20:21:10Z</time>
      </trkpt>
      <trkpt lat="48.99752" lon="4.43541">
        <ele>130</ele>
        <time>2018-03-29T20:22:10Z</time>
      </trkpt>
      <trkpt lat="48.99732" lon="4.4356">
        <ele>129</ele>
        <time>2018-03-29T20:23:10Z</time>
      </trkpt>
      <trkpt lat="48.99721" lon="4.4357">
        <ele>129</ele>
        <time>2018-03-29T20:24:10Z</time>
      </trkpt>
      <trkpt lat="48.99705" lon="4.43582">
        <ele>128</ele>
        <time>2018-03-29T20:25:10Z</time>
      </trkpt>
      <trkpt lat="48.99695" lon="4.4359">
        <ele>128</ele>
        <time>2018-03-29T20:26:10Z</time>
      </trkpt>
      <trkpt lat="48.99681" lon="4.436">
        <ele>128</ele>
        <time>2018-03-29T20:27:10Z</time>
      </trkpt>
      <trkpt lat="48.9967" lon="4.43608">
        <ele>128</ele>
        <time>2018-03-29T20:28:10Z</time>
      </trkpt>
      <trkpt lat="48.99649" lon="4.43622">
        <ele>128</ele>
        <time>2018-03-29T20:29:10Z</time>
      </trkpt>
      <trkpt lat="48.99633" lon="4.43632">
        <ele>128</ele>
        <time>2018-03-29T20:30:10Z</time>
      </trkpt>
      <trkpt lat="48.9961" lon="4.43644">
        <ele>128</ele>
        <time>2018-03-29T20:31:10Z</time>
      </trkpt>
      <trkpt lat="48.99605" lon="4.43647">
        <ele>128</ele>
        <time>2018-03-29T20:32:10Z</time>
      </trkpt>
      <trkpt lat="48.99563" lon="4.43669">
        <ele>128</ele>
        <time>2018-03-29T20:33:10Z</time>
      </trkpt>
      <trkpt lat="48.99551" lon="4.43675">
        <ele>128</ele>
        <time>2018-03-29T20:34:10Z</time>
      </trkpt>
      <trkpt lat="48.99533" lon="4.43685">
        <ele>129</ele>
        <time>2018-03-29T20:35:10Z</time>
      </trkpt>
      <trkpt lat="48.99516" lon="4.43696">
        <ele>129</ele>
        <time>2018-03-29T20:36:10Z</time>
      </trkpt>
      <trkpt lat="48.99501" lon="4.43707">
        <ele>129</ele>
        <time>2018-03-29T20:37:10Z</time>
      </trkpt>
      <trkpt lat="48.9948" lon="4.43729">
        <ele>129</ele>
        <time>2018-03-29T20:38:10Z</time>
      </trkpt>
      <trkpt lat="48.99466" lon="4.43747">
        <ele>129</ele>
        <time>2018-03-29T20:39:10Z</time>
      </trkpt>
      <trkpt lat="48.99456" lon="4.43762">
        <ele>129</ele>
        <time>2018-03-29T20:40:10Z</time>
      </trkpt>
      <trkpt lat="48.99439" lon="4.43793">
        <ele>129</ele>
        <time>2018-03-29T20:41:10Z</time>
      </trkpt>
      <trkpt lat="48.99428" lon="4.43819">
        <ele>129</ele>
        <time>2018-03-29T20:42:10Z</time>
      </trkpt>
      <trkpt lat="48.99415" lon="4.43853">
        <ele>129</ele>
        <time>2018-03-29T20:43:10Z</time>
      </trkpt>
      <trkpt lat="48.99398" lon="4.43899">
        <ele>130</ele>
        <time>2018-03-29T20:44:10Z</time>
      </trkpt>
      <trkpt lat="48.99387" lon="4.43934">
        <ele>130</ele>
        <time>2018-03-29T20:45:10Z</time>
      </trkpt>
      <trkpt lat="48.99378" lon="4.43967">
        <ele>131</ele>
        <time>2018-03-29T20:46:10Z</time>
      </trkpt>
      <trkpt lat="48.99372" lon="4.43989">
        <ele>131</ele>
        <time>2018-03-29T20:47:10Z</time>
      </trkpt>
      <trkpt lat="48.9937" lon="4.43997">
        <ele>131</ele>
        <time>2018-03-29T20:48:10Z</time>
      </trkpt>
      <trkpt lat="48.99364" lon="4.44035">
        <ele>131</ele>
        <time>2018-03-29T20:49:10Z</time>
      </trkpt>
      <trkpt lat="48.99356" lon="4.44098">
        <ele>132</ele>
        <time>2018-03-29T20:50:10Z</time>
      </trkpt>
      <trkpt lat="48.9935" lon="4.44132">
        <ele>132</ele>
        <time>2018-03-29T20:51:10Z</time>
      </trkpt>
      <trkpt lat="48.99343" lon="4.44163">
        <ele>132</ele>
        <time>2018-03-29T20:52:10Z</time>
      </trkpt>
      <trkpt lat="48.99338" lon="4.44178">
        <ele>132</ele>
        <time>2018-03-29T20:53:10Z</time>
      </trkpt>
      <trkpt lat="48.99334" lon="4.4419">
        <ele>132</ele>
        <time>2018-03-29T20:54:10Z</time>
      </trkpt>
      <trkpt lat="48.99327" lon="4.4421">
        <ele>132</ele>
        <time>2018-03-29T20:55:10Z</time>
      </trkpt>
      <trkpt lat="48.99321" lon="4.44225">
        <ele>132</ele>
        <time>2018-03-29T20:56:10Z</time>
      </trkpt>
      <trkpt lat="48.99307" lon="4.44257">
        <ele>132</ele>
        <time>2018-03-29T20:57:10Z</time>
      </trkpt>
      <trkpt lat="48.99279" lon="4.44317">
        <ele>133</ele>
        <time>2018-03-29T20:58:10Z</time>
      </trkpt>
      <trkpt lat="48.99261" lon="4.44352">
        <ele>134</ele>
        <time>2018-03-29T20:59:10Z</time>
      </trkpt>
      <trkpt lat="48.99234" lon="4.44407">
        <ele>134</ele>
        <time>2018-03-29T21:00:10Z</time>
      </trkpt>
      <trkpt lat="48.99222" lon="4.4443">
        <ele>134</ele>
        <time>2018-03-29T21:01:10Z</time>
      </trkpt>
      <trkpt lat="48.99201" lon="4.4447">
        <ele>135</ele>
        <time>2018-03-29T21:02:10Z</time>
      </trkpt>
      <trkpt lat="48.99177" lon="4.44513">
        <ele>136</ele>
        <time>2018-03-29T21:03:10Z</time>
      </trkpt>
      <trkpt lat="48.99156" lon="4.44551">
        <ele>135</ele>
        <time>2018-03-29T21:04:10Z</time>
      </trkpt>
      <trkpt lat="48.99057" lon="4.44725">
        <ele>134</ele>
        <time>2018-03-29T21:05:10Z</time>
      </trkpt>
      <trkpt lat="48.98977" lon="4.44863">
        <ele>131</ele>
        <time>2018-03-29T21:06:10Z</time>
      </trkpt>
      <trkpt lat="48.98932" lon="4.4494">
        <ele>130</ele>
        <time>2018-03-29T21:07:10Z</time>
      </trkpt>
      <trkpt lat="48.98888" lon="4.45014">
        <ele>130</ele>
        <time>2018-03-29T21:08:10Z</time>
      </trkpt>
      <trkpt lat="48.98871" lon="4.45044">
        <ele>131</ele>
        <time>2018-03-29T21:09:10Z</time>
      </trkpt>
      <trkpt lat="48.98862" lon="4.4506">
        <ele>131</ele>
        <time>2018-03-29T21:10:10Z</time>
      </trkpt>
      <trkpt lat="48.98845" lon="4.45089">
        <ele>131</ele>
        <time>2018-03-29T21:11:10Z</time>
      </trkpt>
      <trkpt lat="48.98833" lon="4.4511">
        <ele>131</ele>
        <time>2018-03-29T21:12:10Z</time>
      </trkpt>
      <trkpt lat="48.9882" lon="4.45137">
        <ele>130</ele>
        <time>2018-03-29T21:13:10Z</time>
      </trkpt>
      <trkpt lat="48.98796" lon="4.45183">
        <ele>130</ele>
        <time>2018-03-29T21:14:10Z</time>
      </trkpt>
      <trkpt lat="48.98772" lon="4.45232">
        <ele>130</ele>
        <time>2018-03-29T21:15:10Z</time>
      </trkpt>
      <trkpt lat="48.98743" lon="4.45286">
        <ele>131</ele>
        <time>2018-03-29T21:16:10Z</time>
      </trkpt>
      <trkpt lat="48.98716" lon="4.45336">
        <ele>131</ele>
        <time>2018-03-29T21:17:10Z</time>
      </trkpt>
      <trkpt lat="48.98683" lon="4.4539">
        <ele>131</ele>
        <time>2018-03-29T21:18:10Z</time>
      </trkpt>
      <trkpt lat="48.98653" lon="4.45439">
        <ele>131</ele>
        <time>2018-03-29T21:19:10Z</time>
      </trkpt>
      <trkpt lat="48.9863" lon="4.45475">
        <ele>130</ele>
        <time>2018-03-29T21:20:10Z</time>
      </trkpt>
      <trkpt lat="48.98613" lon="4.45507">
        <ele>130</ele>
        <time>2018-03-29T21:21:10Z</time>
      </trkpt>
      <trkpt lat="48.98602" lon="4.45529">
        <ele>130</ele>
        <time>2018-03-29T21:22:10Z</time>
      </trkpt>
      <trkpt lat="48.9859" lon="4.45554">
        <ele>129</ele>
        <time>2018-03-29T21:23:10Z</time>
      </trkpt>
      <trkpt lat="48.9858" lon="4.45582">
        <ele>129</ele>
        <time>2018-03-29T21:24:10Z</time>
      </trkpt>
      <trkpt lat="48.98568" lon="4.45616">
        <ele>129</ele>
        <time>2018-03-29T21:25:10Z</time>
      </trkpt>
      <trkpt lat="48.98558" lon="4.45646">
        <ele>129</ele>
        <time>2018-03-29T21:26:10Z</time>
      </trkpt>
      <trkpt lat="48.98507" lon="4.458">
        <ele>132</ele>
        <time>2018-03-29T21:27:10Z</time>
      </trkpt>
      <trkpt lat="48.98488" lon="4.45861">
        <ele>132</ele>
        <time>2018-03-29T21:28:10Z</time>
      </trkpt>
      <trkpt lat="48.98485" lon="4.45871">
        <ele>132</ele>
        <time>2018-03-29T21:29:10Z</time>
      </trkpt>
      <trkpt lat="48.98474" lon="4.45905">
        <ele>132</ele>
        <time>2018-03-29T21:30:10Z</time>
      </trkpt>
      <trkpt lat="48.98458" lon="4.45956">
        <ele>131</ele>
        <time>2018-03-29T21:31:10Z</time>
      </trkpt>
      <trkpt lat="48.9844" lon="4.46017">
        <ele>131</ele>
        <time>2018-03-29T21:32:10Z</time>
      </trkpt>
      <trkpt lat="48.98423" lon="4.46068">
        <ele>132</ele>
        <time>2018-03-29T21:33:10Z</time>
      </trkpt>
      <trkpt lat="48.98412" lon="4.46103">
        <ele>132</ele>
        <time>2018-03-29T21:34:10Z</time>
      </trkpt>
      <trkpt lat="48.98399" lon="4.46131">
        <ele>132</ele>
        <time>2018-03-29T21:35:10Z</time>
      </trkpt>
      <trkpt lat="48.9839" lon="4.4615">
        <ele>132</ele>
        <time>2018-03-29T21:36:10Z</time>
      </trkpt>
      <trkpt lat="48.98378" lon="4.46175">
        <ele>132</ele>
        <time>2018-03-29T21:37:10Z</time>
      </trkpt>
      <trkpt lat="48.98368" lon="4.46191">
        <ele>132</ele>
        <time>2018-03-29T21:38:10Z</time>
      </trkpt>
      <trkpt lat="48.98351" lon="4.46218">
        <ele>133</ele>
        <time>2018-03-29T21:39:10Z</time>
      </trkpt>
      <trkpt lat="48.98329" lon="4.46252">
        <ele>133</ele>
        <time>2018-03-29T21:40:10Z</time>
      </trkpt>
      <trkpt lat="48.98302" lon="4.46295">
        <ele>132</ele>
        <time>2018-03-29T21:41:10Z</time>
      </trkpt>
      <trkpt lat="48.98286" lon="4.46319">
        <ele>132</ele>
        <time>2018-03-29T21:42:10Z</time>
      </trkpt>
      <trkpt lat="48.98269" lon="4.46346">
        <ele>132</ele>
        <time>2018-03-29T21:43:10Z</time>
      </trkpt>
      <trkpt lat="48.98243" lon="4.46383">
        <ele>133</ele>
        <time>2018-03-29T21:44:10Z</time>
      </trkpt>
      <trkpt lat="48.9824" lon="4.46387">
        <ele>133</ele>
        <time>2018-03-29T21:45:10Z</time>
      </trkpt>
      <trkpt lat="48.9822" lon="4.46415">
        <ele>134</ele>
        <time>2018-03-29T21:46:10Z</time>
      </trkpt>
      <trkpt lat="48.98207" lon="4.46432">
        <ele>134</ele>
        <time>2018-03-29T21:47:10Z</time>
      </trkpt>
      <trkpt lat="48.98193" lon="4.46444">
        <ele>135</ele>
        <time>2018-03-29T21:48:10Z</time>
      </trkpt>
      <trkpt lat="48.98162" lon="4.46471">
        <ele>136</ele>
        <time>2018-03-29T21:49:10Z</time>
      </trkpt>
      <trkpt lat="48.98147" lon="4.46484">
        <ele>137</ele>
        <time>2018-03-29T21:50:10Z</time>
      </trkpt>
      <trkpt lat="48.98138" lon="4.46489">
        <ele>137</ele>
        <time>2018-03-29T21:51:10Z</time>
      </trkpt>
      <trkpt lat="48.98117" lon="4.465">
        <ele>139</ele>
        <time>2018-03-29T21:52:10Z</time>
      </trkpt>
      <trkpt lat="48.98096" lon="4.46511">
        <ele>140</ele>
        <time>2018-03-29T21:53:10Z</time>
      </trkpt>
      <trkpt lat="48.98082" lon="4.46518">
        <ele>141</ele>
        <time>2018-03-29T21:54:10Z</time>
      </trkpt>
      <trkpt lat="48.98051" lon="4.46535">
        <ele>140</ele>
        <time>2018-03-29T21:55:10Z</time>
      </trkpt>
      <trkpt lat="48.98012" lon="4.46561">
        <ele>140</ele>
        <time>2018-03-29T21:56:10Z</time>
      </trkpt>
      <trkpt lat="48.9795" lon="4.46605">
        <ele>141</ele>
        <time>2018-03-29T21:57:10Z</time>
      </trkpt>
      <trkpt lat="48.97928" lon="4.46622">
        <ele>142</ele>
        <time>2018-03-29T21:58:10Z</time>
      </trkpt>
      <trkpt lat="48.97916" lon="4.46633">
        <ele>142</ele>
        <time>2018-03-29T21:59:10Z</time>
      </trkpt>
      <trkpt lat="48.97899" lon="4.46653">
        <ele>142</ele>
        <time>2018-03-29T22:00:10Z</time>
      </trkpt>
      <trkpt lat="48.97884" lon="4.46669">
        <ele>143</ele>
        <time>2018-03-29T22:01:10Z</time>
      </trkpt>
      <trkpt lat="48.97876" lon="4.46675">
        <ele>143</ele>
        <time>2018-03-29T22:02:10Z</time>
      </trkpt>
      <trkpt lat="48.97867" lon="4.46676">
        <ele>144</ele>
        <time>2018-03-29T22:03:10Z</time>
      </trkpt>
      <trkpt lat="48.97858" lon="4.46676">
        <ele>145</ele>
        <time>2018-03-29T22:04:10Z</time>
      </trkpt>
      <trkpt lat="48.97846" lon="4.46671">
        <ele>145</ele>
        <time>2018-03-29T22:05:10Z</time>
      </trkpt>
      <trkpt lat="48.97834" lon="4.46663">
        <ele>146</ele>
        <time>2018-03-29T22:06:10Z</time>
      </trkpt>
      <trkpt lat="48.97826" lon="4.46658">
        <ele>147</ele>
        <time>2018-03-29T22:07:10Z</time>
      </trkpt>
      <trkpt lat="48.97803" lon="4.46641">
        <ele>148</ele>
        <time>2018-03-29T22:08:10Z</time>
      </trkpt>
      <trkpt lat="48.978" lon="4.46638">
        <ele>148</ele>
        <time>2018-03-29T22:09:10Z</time>
      </trkpt>
      <trkpt lat="48.97779" lon="4.46625">
        <ele>149</ele>
        <time>2018-03-29T22:10:10Z</time>
      </trkpt>
      <trkpt lat="48.97767" lon="4.46618">
        <ele>150</ele>
        <time>2018-03-29T22:11:10Z</time>
      </trkpt>
      <trkpt lat="48.97747" lon="4.46609">
        <ele>151</ele>
        <time>2018-03-29T22:12:10Z</time>
      </trkpt>
      <trkpt lat="48.97739" lon="4.46606">
        <ele>151</ele>
        <time>2018-03-29T22:13:10Z</time>
      </trkpt>
      <trkpt lat="48.97712" lon="4.46596">
        <ele>151</ele>
        <time>2018-03-29T22:14:10Z</time>
      </trkpt>
      <trkpt lat="48.97695" lon="4.46592">
        <ele>152</ele>
        <time>2018-03-29T22:15:10Z</time>
      </trkpt>
      <trkpt lat="48.97691" lon="4.46593">
        <ele>152</ele>
        <time>2018-03-29T22:16:10Z</time>
      </trkpt>
      <trkpt lat="48.9769" lon="4.46594">
        <ele>152</ele>
        <time>2018-03-29T22:17:10Z</time>
      </trkpt>
      <trkpt lat="48.97686" lon="4.46595">
        <ele>152</ele>
        <time>2018-03-29T22:18:10Z</time>
      </trkpt>
      <trkpt lat="48.97682" lon="4.46599">
        <ele>152</ele>
        <time>2018-03-29T22:19:10Z</time>
      </trkpt>
      <trkpt lat="48.97682" lon="4.46599">
        <ele>152</ele>
        <time>2018-03-29T22:20:10Z</time>
      </trkpt>
      <trkpt lat="48.97686" lon="4.46627">
        <ele>151</ele>
        <time>2018-03-29T22:21:10Z</time>
      </trkpt>
      <trkpt lat="48.9769" lon="4.46655">
        <ele>151</ele>
        <time>2018-03-29T22:22:10Z</time>
      </trkpt>
      <trkpt lat="48.97691" lon="4.46679">
        <ele>151</ele>
        <time>2018-03-29T22:23:10Z</time>
      </trkpt>
      <trkpt lat="48.97694" lon="4.46762">
        <ele>152</ele>
        <time>2018-03-29T22:24:10Z</time>
      </trkpt>
      <trkpt lat="48.97695" lon="4.46802">
        <ele>152</ele>
        <time>2018-03-29T22:25:10Z</time>
      </trkpt>
      <trkpt lat="48.97696" lon="4.4684">
        <ele>151</ele>
        <time>2018-03-29T22:26:10Z</time>
      </trkpt>
      <trkpt lat="48.977" lon="4.46917">
        <ele>152</ele>
        <time>2018-03-29T22:27:10Z</time>
      </trkpt>
      <trkpt lat="48.977" lon="4.46917">
        <ele>152</ele>
        <time>2018-03-29T22:28:10Z</time>
      </trkpt>
      <trkpt lat="48.97692" lon="4.46929">
        <ele>152</ele>
        <time>2018-03-29T22:29:10Z</time>
      </trkpt>
      <trkpt lat="48.97678" lon="4.46954">
        <ele>152</ele>
        <time>2018-03-29T22:30:10Z</time>
      </trkpt>
      <trkpt lat="48.97669" lon="4.46969">
        <ele>153</ele>
        <time>2018-03-29T22:31:10Z</time>
      </trkpt>
      <trkpt lat="48.97665" lon="4.46979">
        <ele>153</ele>
        <time>2018-03-29T22:32:10Z</time>
      </trkpt>
      <trkpt lat="48.97662" lon="4.46994">
        <ele>153</ele>
        <time>2018-03-29T22:33:10Z</time>
      </trkpt>
      <trkpt lat="48.97662" lon="4.47006">
        <ele>153</ele>
        <time>2018-03-29T22:34:10Z</time>
      </trkpt>
      <trkpt lat="48.97661" lon="4.47011">
        <ele>153</ele>
        <time>2018-03-29T22:35:10Z</time>
      </trkpt>
      <trkpt lat="48.97662" lon="4.47031">
        <ele>153</ele>
        <time>2018-03-29T22:36:10Z</time>
      </trkpt>
      <trkpt lat="48.97663" lon="4.47036">
        <ele>152</ele>
        <time>2018-03-29T22:37:10Z</time>
      </trkpt>
      <trkpt lat="48.97665" lon="4.47051">
        <ele>152</ele>
        <time>2018-03-29T22:38:10Z</time>
      </trkpt>
      <trkpt lat="48.97672" lon="4.47074">
        <ele>152</ele>
        <time>2018-03-29T22:39:10Z</time>
      </trkpt>
      <trkpt lat="48.97678" lon="4.47086">
        <ele>152</ele>
        <time>2018-03-29T22:40:10Z</time>
      </trkpt>
      <trkpt lat="48.97685" lon="4.47097">
        <ele>152</ele>
        <time>2018-03-29T22:41:10Z</time>
      </trkpt>
      <trkpt lat="48.97692" lon="4.47108">
        <ele>152</ele>
        <time>2018-03-29T22:42:10Z</time>
      </trkpt>
      <trkpt lat="48.97695" lon="4.47119">
        <ele>152</ele>
        <time>2018-03-29T22:43:10Z</time>
      </trkpt>
      <trkpt lat="48.97699" lon="4.47139">
        <ele>151</ele>
        <time>2018-03-29T22:44:10Z</time>
      </trkpt>
      <trkpt lat="48.97712" lon="4.47235">
        <ele>151</ele>
        <time>2018-03-29T22:45:10Z</time>
      </trkpt>
      <trkpt lat="48.97716" lon="4.47281">
        <ele>151</ele>
        <time>2018-03-29T22:46:10Z</time>
      </trkpt>
      <trkpt lat="48.97717" lon="4.47304">
        <ele>151</ele>
        <time>2018-03-29T22:47:10Z</time>
      </trkpt>
      <trkpt lat="48.97721" lon="4.47398">
        <ele>151</ele>
        <time>2018-03-29T22:48:10Z</time>
      </trkpt>
      <trkpt lat="48.97722" lon="4.47415">
        <ele>151</ele>
        <time>2018-03-29T22:49:10Z</time>
      </trkpt>
      <trkpt lat="48.97725" lon="4.47446">
        <ele>151</ele>
        <time>2018-03-29T22:50:10Z</time>
      </trkpt>
      <trkpt lat="48.97725" lon="4.47449">
        <ele>151</ele>
        <time>2018-03-29T22:51:10Z</time>
      </trkpt>
      <trkpt lat="48.97728" lon="4.47473">
        <ele>151</ele>
        <time>2018-03-29T22:52:10Z</time>
      </trkpt>
      <trkpt lat="48.97734" lon="4.47498">
        <ele>151</ele>
        <time>2018-03-29T22:53:10Z</time>
      </trkpt>
      <trkpt lat="48.97737" lon="4.47511">
        <ele>151</ele>
        <time>2018-03-29T22:54:10Z</time>
      </trkpt>
      <trkpt lat="48.97742" lon="4.47526">
        <ele>151</ele>
        <time>2018-03-29T22:55:10Z</time>
      </trkpt>
      <trkpt lat="48.97743" lon="4.47531">
        <ele>151</ele>
        <time>2018-03-29T22:56:10Z</time>
      </trkpt>
      <trkpt lat="48.97754" lon="4.47573">
        <ele>150</ele>
        <time>2018-03-29T22:57:10Z</time>
      </trkpt>
      <trkpt lat="48.97767" lon="4.47617">
        <ele>149</ele>
        <time>2018-03-29T22:58:10Z</time>
      </trkpt>
      <trkpt lat="48.97785" lon="4.47679">
        <ele>147</ele>
        <time>2018-03-29T22:59:10Z</time>
      </trkpt>
      <trkpt lat="48.97801" lon="4.47737">
        <ele>146</ele>
        <time>2018-03-29T23:00:10Z</time>
      </trkpt>
      <trkpt lat="48.97802" lon="4.4774">
        <ele>146</ele>
        <time>2018-03-29T23:01:10Z</time>
      </trkpt>
      <trkpt lat="48.97803" lon="4.47743">
        <ele>146</ele>
        <time>2018-03-29T23:02:10Z</time>
      </trkpt>
      <trkpt lat="48.97812" lon="4.47782">
        <ele>145</ele>
        <time>2018-03-29T23:03:10Z</time>
      </trkpt>
      <trkpt lat="48.97816" lon="4.47796">
        <ele>145</ele>
        <time>2018-03-29T23:04:10Z</time>
      </trkpt>
      <trkpt lat="48.97822" lon="4.47827">
        <ele>144</ele>
        <time>2018-03-29T23:05:10Z</time>
      </trkpt>
      <trkpt lat="48.97825" lon="4.47851">
        <ele>143</ele>
        <time>2018-03-29T23:06:10Z</time>
      </trkpt>
      <trkpt lat="48.97835" lon="4.47905">
        <ele>142</ele>
        <time>2018-03-29T23:07:10Z</time>
      </trkpt>
      <trkpt lat="48.97838" lon="4.47926">
        <ele>142</ele>
        <time>2018-03-29T23:08:10Z</time>
      </trkpt>
      <trkpt lat="48.97839" lon="4.47933">
        <ele>142</ele>
        <time>2018-03-29T23:09:10Z</time>
      </trkpt>
      <trkpt lat="48.97847" lon="4.47985">
        <ele>141</ele>
        <time>2018-03-29T23:10:10Z</time>
      </trkpt>
      <trkpt lat="48.97852" lon="4.4803">
        <ele>141</ele>
        <time>2018-03-29T23:11:10Z</time>
      </trkpt>
      <trkpt lat="48.97854" lon="4.4807">
        <ele>141</ele>
        <time>2018-03-29T23:12:10Z</time>
      </trkpt>
      <trkpt lat="48.97855" lon="4.48118">
        <ele>140</ele>
        <time>2018-03-29T23:13:10Z</time>
      </trkpt>
      <trkpt lat="48.97855" lon="4.48123">
        <ele>140</ele>
        <time>2018-03-29T23:14:10Z</time>
      </trkpt>
      <trkpt lat="48.97856" lon="4.48177">
        <ele>140</ele>
        <time>2018-03-29T23:15:10Z</time>
      </trkpt>
      <trkpt lat="48.97856" lon="4.48237">
        <ele>140</ele>
        <time>2018-03-29T23:16:10Z</time>
      </trkpt>
      <trkpt lat="48.97858" lon="4.48292">
        <ele>139</ele>
        <time>2018-03-29T23:17:10Z</time>
      </trkpt>
      <trkpt lat="48.97859" lon="4.48312">
        <ele>139</ele>
        <time>2018-03-29T23:18:10Z</time>
      </trkpt>
      <trkpt lat="48.9786" lon="4.48336">
        <ele>139</ele>
        <time>2018-03-29T23:19:10Z</time>
      </trkpt>
      <trkpt lat="48.97861" lon="4.48352">
        <ele>138</ele>
        <time>2018-03-29T23:20:10Z</time>
      </trkpt>
      <trkpt lat="48.97863" lon="4.484">
        <ele>138</ele>
        <time>2018-03-29T23:21:10Z</time>
      </trkpt>
      <trkpt lat="48.97864" lon="4.48469">
        <ele>137</ele>
        <time>2018-03-29T23:22:10Z</time>
      </trkpt>
      <trkpt lat="48.97864" lon="4.48486">
        <ele>136</ele>
        <time>2018-03-29T23:23:10Z</time>
      </trkpt>
      <trkpt lat="48.97863" lon="4.48544">
        <ele>137</ele>
        <time>2018-03-29T23:24:10Z</time>
      </trkpt>
      <trkpt lat="48.97863" lon="4.48622">
        <ele>137</ele>
        <time>2018-03-29T23:25:10Z</time>
      </trkpt>
      <trkpt lat="48.97863" lon="4.48682">
        <ele>137</ele>
        <time>2018-03-29T23:26:10Z</time>
      </trkpt>
      <trkpt lat="48.97862" lon="4.48716">
        <ele>138</ele>
        <time>2018-03-29T23:27:10Z</time>
      </trkpt>
      <trkpt lat="48.97862" lon="4.48743">
        <ele>138</ele>
        <time>2018-03-29T23:28:10Z</time>
      </trkpt>
      <trkpt lat="48.97863" lon="4.4877">
        <ele>138</ele>
        <time>2018-03-29T23:29:10Z</time>
      </trkpt>
      <trkpt lat="48.97864" lon="4.48818">
        <ele>137</ele>
        <time>2018-03-29T23:30:10Z</time>
      </trkpt>
      <trkpt lat="48.97867" lon="4.48856">
        <ele>137</ele>
        <time>2018-03-29T23:31:10Z</time>
      </trkpt>
      <trkpt lat="48.97868" lon="4.48873">
        <ele>137</ele>
        <time>2018-03-29T23:32:10Z</time>
      </trkpt>
      <trkpt lat="48.97871" lon="4.48908">
        <ele>137</ele>
        <time>2018-03-29T23:33:10Z</time>
      </trkpt>
      <trkpt lat="48.97873" lon="4.48918">
        <ele>137</ele>
        <time>2018-03-29T23:34:10Z</time>
      </trkpt>
      <trkpt lat="48.97876" lon="4.48938">
        <ele>137</ele>
        <time>2018-03-29T23:35:10Z</time>
      </trkpt>
      <trkpt lat="48.97883" lon="4.48985">
        <ele>137</ele>
        <time>2018-03-29T23:36:10Z</time>
      </trkpt>
      <trkpt lat="48.97894" lon="4.4904">
        <ele>137</ele>
        <time>2018-03-29T23:37:10Z</time>
      </trkpt>
      <trkpt lat="48.97906" lon="4.491">
        <ele>137</ele>
        <time>2018-03-29T23:38:10Z</time>
      </trkpt>
      <trkpt lat="48.9791" lon="4.49122">
        <ele>137</ele>
        <time>2018-03-29T23:39:10Z</time>
      </trkpt>
      <trkpt lat="48.97913" lon="4.49137">
        <ele>137</ele>
        <time>2018-03-29T23:40:10Z</time>
      </trkpt>
      <trkpt lat="48.97913" lon="4.49141">
        <ele>137</ele>
        <time>2018-03-29T23:41:10Z</time>
      </trkpt>
      <trkpt lat="48.97914" lon="4.49146">
        <ele>137</ele>
        <time>2018-03-29T23:42:10Z</time>
      </trkpt>
      <trkpt lat="48.97918" lon="4.49168">
        <ele>137</ele>
        <time>2018-03-29T23:43:10Z</time>
      </trkpt>
      <trkpt lat="48.97919" lon="4.49187">
        <ele>137</ele>
        <time>2018-03-29T23:44:10Z</time>
      </trkpt>
      <trkpt lat="48.97918" lon="4.49201">
        <ele>137</ele>
        <time>2018-03-29T23:45:10Z</time>
      </trkpt>
      <trkpt lat="48.97918" lon="4.49208">
        <ele>136</ele>
        <time>2018-03-29T23:46:10Z</time>
      </trkpt>
      <trkpt lat="48.97913" lon="4.4926">
        <ele>136</ele>
        <time>2018-03-29T23:47:10Z</time>
      </trkpt>
      <trkpt lat="48.97907" lon="4.4932">
        <ele>136</ele>
        <time>2018-03-29T23:48:10Z</time>
      </trkpt>
      <trkpt lat="48.97906" lon="4.49328">
        <ele>137</ele>
        <time>2018-03-29T23:49:10Z</time>
      </trkpt>
      <trkpt lat="48.97903" lon="4.49373">
        <ele>137</ele>
        <time>2018-03-29T23:50:10Z</time>
      </trkpt>
      <trkpt lat="48.97903" lon="4.49376">
        <ele>137</ele>
        <time>2018-03-29T23:51:10Z</time>
      </trkpt>
      <trkpt lat="48.97903" lon="4.49434">
        <ele>137</ele>
        <time>2018-03-29T23:52:10Z</time>
      </trkpt>
      <trkpt lat="48.97905" lon="4.49471">
        <ele>137</ele>
        <time>2018-03-29T23:53:10Z</time>
      </trkpt>
      <trkpt lat="48.97906" lon="4.49477">
        <ele>137</ele>
        <time>2018-03-29T23:54:10Z</time>
      </trkpt>
      <trkpt lat="48.9791" lon="4.49502">
        <ele>136</ele>
        <time>2018-03-29T23:55:10Z</time>
      </trkpt>
      <trkpt lat="48.97913" lon="4.49514">
        <ele>136</ele>
        <time>2018-03-29T23:56:10Z</time>
      </trkpt>
      <trkpt lat="48.97919" lon="4.4954">
        <ele>136</ele>
        <time>2018-03-29T23:57:10Z</time>
      </trkpt>
      <trkpt lat="48.97935" lon="4.49606">
        <ele>137</ele>
        <time>2018-03-29T23:58:10Z</time>
      </trkpt>
      <trkpt lat="48.97953" lon="4.49667">
        <ele>137</ele>
        <time>2018-03-29T23:59:10Z</time>
      </trkpt>
      <trkpt lat="48.97963" lon="4.49692">
        <ele>137</ele>
        <time>2018-03-30T00:00:10Z</time>
      </trkpt>
      <trkpt lat="48.9797" lon="4.49712">
        <ele>137</ele>
        <time>2018-03-30T00:01:10Z</time>
      </trkpt>
      <trkpt lat="48.97984" lon="4.49741">
        <ele>136</ele>
        <time>2018-03-30T00:02:10Z</time>
      </trkpt>
      <trkpt lat="48.97985" lon="4.49744">
        <ele>136</ele>
        <time>2018-03-30T00:03:10Z</time>
      </trkpt>
      <trkpt lat="48.98001" lon="4.49776">
        <ele>136</ele>
        <time>2018-03-30T00:04:10Z</time>
      </trkpt>
      <trkpt lat="48.98009" lon="4.49792">
        <ele>135</ele>
        <time>2018-03-30T00:05:10Z</time>
      </trkpt>
      <trkpt lat="48.98029" lon="4.49832">
        <ele>135</ele>
        <time>2018-03-30T00:06:10Z</time>
      </trkpt>
      <trkpt lat="48.98042" lon="4.49858">
        <ele>136</ele>
        <time>2018-03-30T00:07:10Z</time>
      </trkpt>
      <trkpt lat="48.98053" lon="4.49881">
        <ele>136</ele>
        <time>2018-03-30T00:08:10Z</time>
      </trkpt>
      <trkpt lat="48.98061" lon="4.49906">
        <ele>137</ele>
        <time>2018-03-30T00:09:10Z</time>
      </trkpt>
      <trkpt lat="48.98062" lon="4.49909">
        <ele>137</ele>
        <time>2018-03-30T00:10:10Z</time>
      </trkpt>
      <trkpt lat="48.98069" lon="4.4994">
        <ele>137</ele>
        <time>2018-03-30T00:11:10Z</time>
      </trkpt>
      <trkpt lat="48.98076" lon="4.49972">
        <ele>137</ele>
        <time>2018-03-30T00:12:10Z</time>
      </trkpt>
      <trkpt lat="48.9808" lon="4.49998">
        <ele>136</ele>
        <time>2018-03-30T00:13:10Z</time>
      </trkpt>
      <trkpt lat="48.98085" lon="4.50027">
        <ele>136</ele>
        <time>2018-03-30T00:14:10Z</time>
      </trkpt>
      <trkpt lat="48.98087" lon="4.50041">
        <ele>136</ele>
        <time>2018-03-30T00:15:10Z</time>
      </trkpt>
      <trkpt lat="48.9809" lon="4.5006">
        <ele>137</ele>
        <time>2018-03-30T00:16:10Z</time>
      </trkpt>
      <trkpt lat="48.98101" lon="4.50124">
        <ele>137</ele>
        <time>2018-03-30T00:17:10Z</time>
      </trkpt>
      <trkpt lat="48.98101" lon="4.50125">
        <ele>137</ele>
        <time>2018-03-30T00:18:10Z</time>
      </trkpt>
      <trkpt lat="48.98111" lon="4.50186">
        <ele>138</ele>
        <time>2018-03-30T00:19:10Z</time>
      </trkpt>
      <trkpt lat="48.98114" lon="4.50199">
        <ele>137</ele>
        <time>2018-03-30T00:20:10Z</time>
      </trkpt>
      <trkpt lat="48.98122" lon="4.50244">
        <ele>137</ele>
        <time>2018-03-30T00:21:10Z</time>
      </trkpt>
      <trkpt lat="48.98134" lon="4.50301">
        <ele>137</ele>
        <time>2018-03-30T00:22:10Z</time>
      </trkpt>
      <trkpt lat="48.98156" lon="4.50413">
        <ele>138</ele>
        <time>2018-03-30T00:23:10Z</time>
      </trkpt>
      <trkpt lat="48.98173" lon="4.50511">
        <ele>138</ele>
        <time>2018-03-30T00:24:10Z</time>
      </trkpt>
      <trkpt lat="48.98177" lon="4.50538">
        <ele>138</ele>
        <time>2018-03-30T00:25:10Z</time>
      </trkpt>
      <trkpt lat="48.98182" lon="4.50567">
        <ele>139</ele>
        <time>2018-03-30T00:26:10Z</time>
      </trkpt>
      <trkpt lat="48.98188" lon="4.50608">
        <ele>139</ele>
        <time>2018-03-30T00:27:10Z</time>
      </trkpt>
      <trkpt lat="48.98193" lon="4.50654">
        <ele>138</ele>
        <time>2018-03-30T00:28:10Z</time>
      </trkpt>
      <trkpt lat="48.98202" lon="4.50742">
        <ele>138</ele>
        <time>2018-03-30T00:29:10Z</time>
      </trkpt>
      <trkpt lat="48.98212" lon="4.50838">
        <ele>138</ele>
        <time>2018-03-30T00:30:10Z</time>
      </trkpt>
      <trkpt lat="48.98222" lon="4.50967">
        <ele>138</ele>
        <time>2018-03-30T00:31:10Z</time>
      </trkpt>
      <trkpt lat="48.98227" lon="4.51017">
        <ele>137</ele>
        <time>2018-03-30T00:32:10Z</time>
      </trkpt>
      <trkpt lat="48.98237" lon="4.5111">
        <ele>137</ele>
        <time>2018-03-30T00:33:10Z</time>
      </trkpt>
      <trkpt lat="48.98256" lon="4.51291">
        <ele>139</ele>
        <time>2018-03-30T00:34:10Z</time>
      </trkpt>
      <trkpt lat="48.98272" lon="4.5138">
        <ele>139</ele>
        <time>2018-03-30T00:35:10Z</time>
      </trkpt>
      <trkpt lat="48.98278" lon="4.51408">
        <ele>139</ele>
        <time>2018-03-30T00:36:10Z</time>
      </trkpt>
      <trkpt lat="48.98291" lon="4.51452">
        <ele>139</ele>
        <time>2018-03-30T00:37:10Z</time>
      </trkpt>
      <trkpt lat="48.98304" lon="4.51492">
        <ele>139</ele>
        <time>2018-03-30T00:38:10Z</time>
      </trkpt>
      <trkpt lat="48.98338" lon="4.51579">
        <ele>138</ele>
        <time>2018-03-30T00:39:10Z</time>
      </trkpt>
      <trkpt lat="48.9836" lon="4.51639">
        <ele>139</ele>
        <time>2018-03-30T00:40:10Z</time>
      </trkpt>
      <trkpt lat="48.98367" lon="4.51655">
        <ele>139</ele>
        <time>2018-03-30T00:41:10Z</time>
      </trkpt>
      <trkpt lat="48.98379" lon="4.51686">
        <ele>139</ele>
        <time>2018-03-30T00:42:10Z</time>
      </trkpt>
      <trkpt lat="48.98391" lon="4.5172">
        <ele>139</ele>
        <time>2018-03-30T00:43:10Z</time>
      </trkpt>
      <trkpt lat="48.9841" lon="4.51786">
        <ele>139</ele>
        <time>2018-03-30T00:44:10Z</time>
      </trkpt>
      <trkpt lat="48.98415" lon="4.51812">
        <ele>140</ele>
        <time>2018-03-30T00:45:10Z</time>
      </trkpt>
      <trkpt lat="48.98424" lon="4.51863">
        <ele>140</ele>
        <time>2018-03-30T00:46:10Z</time>
      </trkpt>
      <trkpt lat="48.98431" lon="4.51907">
        <ele>140</ele>
        <time>2018-03-30T00:47:10Z</time>
      </trkpt>
      <trkpt lat="48.98435" lon="4.5194">
        <ele>140</ele>
        <time>2018-03-30T00:48:10Z</time>
      </trkpt>
      <trkpt lat="48.98437" lon="4.51957">
        <ele>140</ele>
        <time>2018-03-30T00:49:10Z</time>
      </trkpt>
      <trkpt lat="48.98436" lon="4.5198">
        <ele>139</ele>
        <time>2018-03-30T00:50:10Z</time>
      </trkpt>
      <trkpt lat="48.98435" lon="4.5202">
        <ele>139</ele>
        <time>2018-03-30T00:51:10Z</time>
      </trkpt>
      <trkpt lat="48.98433" lon="4.52061">
        <ele>139</ele>
        <time>2018-03-30T00:52:10Z</time>
      </trkpt>
      <trkpt lat="48.98435" lon="4.52097">
        <ele>140</ele>
        <time>2018-03-30T00:53:10Z</time>
      </trkpt>
      <trkpt lat="48.98438" lon="4.52123">
        <ele>140</ele>
        <time>2018-03-30T00:54:10Z</time>
      </trkpt>
      <trkpt lat="48.98441" lon="4.52156">
        <ele>141</ele>
        <time>2018-03-30T00:55:10Z</time>
      </trkpt>
      <trkpt lat="48.98446" lon="4.52212">
        <ele>141</ele>
        <time>2018-03-30T00:56:10Z</time>
      </trkpt>
      <trkpt lat="48.98449" lon="4.52236">
        <ele>141</ele>
        <time>2018-03-30T00:57:10Z</time>
      </trkpt>
      <trkpt lat="48.98453" lon="4.52266">
        <ele>141</ele>
        <time>2018-03-30T00:58:10Z</time>
      </trkpt>
      <trkpt lat="48.98459" lon="4.52298">
        <ele>141</ele>
        <time>2018-03-30T00:59:10Z</time>
      </trkpt>
      <trkpt lat="48.98464" lon="4.52316">
        <ele>141</ele>
        <time>2018-03-30T01:00:10Z</time>
      </trkpt>
      <trkpt lat="48.98467" lon="4.52333">
        <ele>140</ele>
        <time>2018-03-30T01:01:10Z</time>
      </trkpt>
      <trkpt lat="48.98479" lon="4.52373">
        <ele>140</ele>
        <time>2018-03-30T01:02:10Z</time>
      </trkpt>
      <trkpt lat="48.98492" lon="4.52415">
        <ele>140</ele>
        <time>2018-03-30T01:03:10Z</time>
      </trkpt>
      <trkpt lat="48.98503" lon="4.5245">
        <ele>140</ele>
        <time>2018-03-30T01:04:10Z</time>
      </trkpt>
      <trkpt lat="48.98505" lon="4.52457">
        <ele>140</ele>
        <time>2018-03-30T01:05:10Z</time>
      </trkpt>
      <trkpt lat="48.98509" lon="4.52476">
        <ele>140</ele>
        <time>2018-03-30T01:06:10Z</time>
      </trkpt>
      <trkpt lat="48.98511" lon="4.52489">
        <ele>140</ele>
        <time>2018-03-30T01:07:10Z</time>
      </trkpt>
      <trkpt lat="48.98512" lon="4.525">
        <ele>140</ele>
        <time>2018-03-30T01:08:10Z</time>
      </trkpt>
      <trkpt lat="48.98513" lon="4.52524">
        <ele>140</ele>
        <time>2018-03-30T01:09:10Z</time>
      </trkpt>
      <trkpt lat="48.98513" lon="4.52539">
        <ele>140</ele>
        <time>2018-03-30T01:10:10Z</time>
      </trkpt>
      <trkpt lat="48.98513" lon="4.52562">
        <ele>141</ele>
        <time>2018-03-30T01:11:10Z</time>
      </trkpt>
      <trkpt lat="48.98512" lon="4.52588">
        <ele>141</ele>
        <time>2018-03-30T01:12:10Z</time>
      </trkpt>
      <trkpt lat="48.98512" lon="4.52633">
        <ele>141</ele>
        <time>2018-03-30T01:13:10Z</time>
      </trkpt>
      <trkpt lat="48.98515" lon="4.52673">
        <ele>141</ele>
        <time>2018-03-30T01:14:10Z</time>
      </trkpt>
      <trkpt lat="48.98517" lon="4.52693">
        <ele>141</ele>
        <time>2018-03-30T01:15:10Z</time>
      </trkpt>
      <trkpt lat="48.98522" lon="4.52718">
        <ele>141</ele>
        <time>2018-03-30T01:16:10Z</time>
      </trkpt>
      <trkpt lat="48.98528" lon="4.52745">
        <ele>141</ele>
        <time>2018-03-30T01:17:10Z</time>
      </trkpt>
      <trkpt lat="48.9853" lon="4.52755">
        <ele>141</ele>
        <time>2018-03-30T01:18:10Z</time>
      </trkpt>
      <trkpt lat="48.98538" lon="4.52787">
        <ele>141</ele>
        <time>2018-03-30T01:19:10Z</time>
      </trkpt>
      <trkpt lat="48.98549" lon="4.52825">
        <ele>141</ele>
        <time>2018-03-30T01:20:10Z</time>
      </trkpt>
      <trkpt lat="48.98559" lon="4.52856">
        <ele>141</ele>
        <time>2018-03-30T01:21:10Z</time>
      </trkpt>
      <trkpt lat="48.98575" lon="4.52893">
        <ele>141</ele>
        <time>2018-03-30T01:22:10Z</time>
      </trkpt>
      <trkpt lat="48.98593" lon="4.5293">
        <ele>141</ele>
        <time>2018-03-30T01:23:10Z</time>
      </trkpt>
      <trkpt lat="48.98597" lon="4.52939">
        <ele>141</ele>
        <time>2018-03-30T01:24:10Z</time>
      </trkpt>
      <trkpt lat="48.98605" lon="4.52958">
        <ele>141</ele>
        <time>2018-03-30T01:25:10Z</time>
      </trkpt>
      <trkpt lat="48.98628" lon="4.53008">
        <ele>140</ele>
        <time>2018-03-30T01:26:10Z</time>
      </trkpt>
      <trkpt lat="48.98635" lon="4.53026">
        <ele>140</ele>
        <time>2018-03-30T01:27:10Z</time>
      </trkpt>
      <trkpt lat="48.98645" lon="4.53054">
        <ele>140</ele>
        <time>2018-03-30T01:28:10Z</time>
      </trkpt>
      <trkpt lat="48.98651" lon="4.53072">
        <ele>140</ele>
        <time>2018-03-30T01:29:10Z</time>
      </trkpt>
      <trkpt lat="48.9866" lon="4.53106">
        <ele>140</ele>
        <time>2018-03-30T01:30:10Z</time>
      </trkpt>
      <trkpt lat="48.98667" lon="4.53137">
        <ele>140</ele>
        <time>2018-03-30T01:31:10Z</time>
      </trkpt>
      <trkpt lat="48.98673" lon="4.53169">
        <ele>140</ele>
        <time>2018-03-30T01:32:10Z</time>
      </trkpt>
      <trkpt lat="48.98674" lon="4.53182">
        <ele>140</ele>
        <time>2018-03-30T01:33:10Z</time>
      </trkpt>
      <trkpt lat="48.98675" lon="4.53191">
        <ele>140</ele>
        <time>2018-03-30T01:34:10Z</time>
      </trkpt>
      <trkpt lat="48.98677" lon="4.53223">
        <ele>141</ele>
        <time>2018-03-30T01:35:10Z</time>
      </trkpt>
      <trkpt lat="48.98677" lon="4.53228">
        <ele>141</ele>
        <time>2018-03-30T01:36:10Z</time>
      </trkpt>
      <trkpt lat="48.98678" lon="4.53269">
        <ele>141</ele>
        <time>2018-03-30T01:37:10Z</time>
      </trkpt>
      <trkpt lat="48.98679" lon="4.53298">
        <ele>141</ele>
        <time>2018-03-30T01:38:10Z</time>
      </trkpt>
      <trkpt lat="48.9868" lon="4.53344">
        <ele>141</ele>
        <time>2018-03-30T01:39:10Z</time>
      </trkpt>
      <trkpt lat="48.98679" lon="4.5344">
        <ele>142</ele>
        <time>2018-03-30T01:40:10Z</time>
      </trkpt>
      <trkpt lat="48.98678" lon="4.53492">
        <ele>142</ele>
        <time>2018-03-30T01:41:10Z</time>
      </trkpt>
      <trkpt lat="48.98679" lon="4.53538">
        <ele>143</ele>
        <time>2018-03-30T01:42:10Z</time>
      </trkpt>
      <trkpt lat="48.98679" lon="4.53571">
        <ele>143</ele>
        <time>2018-03-30T01:43:10Z</time>
      </trkpt>
      <trkpt lat="48.98679" lon="4.53592">
        <ele>143</ele>
        <time>2018-03-30T01:44:10Z</time>
      </trkpt>
      <trkpt lat="48.98679" lon="4.53613">
        <ele>143</ele>
        <time>2018-03-30T01:45:10Z</time>
      </trkpt>
      <trkpt lat="48.9868" lon="4.53636">
        <ele>143</ele>
        <time>2018-03-30T01:46:10Z</time>
      </trkpt>
      <trkpt lat="48.98685" lon="4.53685">
        <ele>143</ele>
        <time>2018-03-30T01:47:10Z</time>
      </trkpt>
      <trkpt lat="48.9869" lon="4.53717">
        <ele>143</ele>
        <time>2018-03-30T01:48:10Z</time>
      </trkpt>
      <trkpt lat="48.98697" lon="4.53747">
        <ele>144</ele>
        <time>2018-03-30T01:49:10Z</time>
      </trkpt>
      <trkpt lat="48.98706" lon="4.53783">
        <ele>144</ele>
        <time>2018-03-30T01:50:10Z</time>
      </trkpt>
      <trkpt lat="48.98714" lon="4.53815">
        <ele>144</ele>
        <time>2018-03-30T01:51:10Z</time>
      </trkpt>
      <trkpt lat="48.98724" lon="4.53858">
        <ele>143</ele>
        <time>2018-03-30T01:52:10Z</time>
      </trkpt>
      <trkpt lat="48.98731" lon="4.53885">
        <ele>143</ele>
        <time>2018-03-30T01:53:10Z</time>
      </trkpt>
      <trkpt lat="48.98737" lon="4.53909">
        <ele>143</ele>
        <time>2018-03-30T01:54:10Z</time>
      </trkpt>
      <trkpt lat="48.9874" lon="4.53924">
        <ele>143</ele>
        <time>2018-03-30T01:55:10Z</time>
      </trkpt>
      <trkpt lat="48.98743" lon="4.53946">
        <ele>143</ele>
        <time>2018-03-30T01:56:10Z</time>
      </trkpt>
      <trkpt lat="48.98744" lon="4.53969">
        <ele>143</ele>
        <time>2018-03-30T01:57:10Z</time>
      </trkpt>
      <trkpt lat="48.98745" lon="4.54006">
        <ele>143</ele>
        <time>2018-03-30T01:58:10Z</time>
      </trkpt>
      <trkpt lat="48.98745" lon="4.54059">
        <ele>144</ele>
        <time>2018-03-30T01:59:10Z</time>
      </trkpt>
      <trkpt lat="48.98745" lon="4.5409">
        <ele>144</ele>
        <time>2018-03-30T02:00:10Z</time>
      </trkpt>
      <trkpt lat="48.98745" lon="4.5413">
        <ele>143</ele>
        <time>2018-03-30T02:01:10Z</time>
      </trkpt>
      <trkpt lat="48.98745" lon="4.54146">
        <ele>143</ele>
        <time>2018-03-30T02:02:10Z</time>
      </trkpt>
      <trkpt lat="48.98744" lon="4.54157">
        <ele>142</ele>
        <time>2018-03-30T02:03:10Z</time>
      </trkpt>
      <trkpt lat="48.98742" lon="4.54177">
        <ele>142</ele>
        <time>2018-03-30T02:04:10Z</time>
      </trkpt>
      <trkpt lat="48.9874" lon="4.542">
        <ele>142</ele>
        <time>2018-03-30T02:05:10Z</time>
      </trkpt>
      <trkpt lat="48.98739" lon="4.54216">
        <ele>142</ele>
        <time>2018-03-30T02:06:10Z</time>
      </trkpt>
      <trkpt lat="48.98738" lon="4.54237">
        <ele>142</ele>
        <time>2018-03-30T02:07:10Z</time>
      </trkpt>
      <trkpt lat="48.98739" lon="4.54267">
        <ele>142</ele>
        <time>2018-03-30T02:08:10Z</time>
      </trkpt>
      <trkpt lat="48.98742" lon="4.54319">
        <ele>142</ele>
        <time>2018-03-30T02:09:10Z</time>
      </trkpt>
      <trkpt lat="48.9874" lon="4.54405">
        <ele>142</ele>
        <time>2018-03-30T02:10:10Z</time>
      </trkpt>
      <trkpt lat="48.98738" lon="4.54435">
        <ele>142</ele>
        <time>2018-03-30T02:11:10Z</time>
      </trkpt>
      <trkpt lat="48.98737" lon="4.5446">
        <ele>142</ele>
        <time>2018-03-30T02:12:10Z</time>
      </trkpt>
      <trkpt lat="48.98732" lon="4.54519">
        <ele>141</ele>
        <time>2018-03-30T02:13:10Z</time>
      </trkpt>
      <trkpt lat="48.98727" lon="4.54563">
        <ele>141</ele>
        <time>2018-03-30T02:14:10Z</time>
      </trkpt>
      <trkpt lat="48.98721" lon="4.54606">
        <ele>141</ele>
        <time>2018-03-30T02:15:10Z</time>
      </trkpt>
      <trkpt lat="48.98713" lon="4.54654">
        <ele>141</ele>
        <time>2018-03-30T02:16:10Z</time>
      </trkpt>
      <trkpt lat="48.98699" lon="4.54722">
        <ele>141</ele>
        <time>2018-03-30T02:17:10Z</time>
      </trkpt>
      <trkpt lat="48.98679" lon="4.5481">
        <ele>143</ele>
        <time>2018-03-30T02:18:10Z</time>
      </trkpt>
      <trkpt lat="48.98659" lon="4.54895">
        <ele>144</ele>
        <time>2018-03-30T02:19:10Z</time>
      </trkpt>
      <trkpt lat="48.9865" lon="4.5494">
        <ele>144</ele>
        <time>2018-03-30T02:20:10Z</time>
      </trkpt>
      <trkpt lat="48.98638" lon="4.55003">
        <ele>144</ele>
        <time>2018-03-30T02:21:10Z</time>
      </trkpt>
      <trkpt lat="48.98632" lon="4.55036">
        <ele>145</ele>
        <time>2018-03-30T02:22:10Z</time>
      </trkpt>
      <trkpt lat="48.98628" lon="4.55067">
        <ele>145</ele>
        <time>2018-03-30T02:23:10Z</time>
      </trkpt>
      <trkpt lat="48.98626" lon="4.55082">
        <ele>145</ele>
        <time>2018-03-30T02:24:10Z</time>
      </trkpt>
      <trkpt lat="48.98625" lon="4.55102">
        <ele>146</ele>
        <time>2018-03-30T02:25:10Z</time>
      </trkpt>
      <trkpt lat="48.98625" lon="4.55119">
        <ele>146</ele>
        <time>2018-03-30T02:26:10Z</time>
      </trkpt>
      <trkpt lat="48.98624" lon="4.55133">
        <ele>146</ele>
        <time>2018-03-30T02:27:10Z</time>
      </trkpt>
      <trkpt lat="48.98626" lon="4.55145">
        <ele>146</ele>
        <time>2018-03-30T02:28:10Z</time>
      </trkpt>
      <trkpt lat="48.98628" lon="4.55158">
        <ele>146</ele>
        <time>2018-03-30T02:29:10Z</time>
      </trkpt>
      <trkpt lat="48.98633" lon="4.55174">
        <ele>146</ele>
        <time>2018-03-30T02:30:10Z</time>
      </trkpt>
      <trkpt lat="48.98639" lon="4.5519">
        <ele>146</ele>
        <time>2018-03-30T02:31:10Z</time>
      </trkpt>
      <trkpt lat="48.98646" lon="4.55203">
        <ele>146</ele>
        <time>2018-03-30T02:32:10Z</time>
      </trkpt>
      <trkpt lat="48.98654" lon="4.55219">
        <ele>146</ele>
        <time>2018-03-30T02:33:10Z</time>
      </trkpt>
      <trkpt lat="48.98706" lon="4.55314">
        <ele>145</ele>
        <time>2018-03-30T02:34:10Z</time>
      </trkpt>
      <trkpt lat="48.98754" lon="4.55407">
        <ele>146</ele>
        <time>2018-03-30T02:35:10Z</time>
      </trkpt>
      <trkpt lat="48.98771" lon="4.55443">
        <ele>146</ele>
        <time>2018-03-30T02:36:10Z</time>
      </trkpt>
      <trkpt lat="48.98773" lon="4.55447">
        <ele>146</ele>
        <time>2018-03-30T02:37:10Z</time>
      </trkpt>
      <trkpt lat="48.98789" lon="4.55488">
        <ele>145</ele>
        <time>2018-03-30T02:38:10Z</time>
      </trkpt>
      <trkpt lat="48.98798" lon="4.5551">
        <ele>146</ele>
        <time>2018-03-30T02:39:10Z</time>
      </trkpt>
      <trkpt lat="48.98821" lon="4.55602">
        <ele>145</ele>
        <time>2018-03-30T02:40:10Z</time>
      </trkpt>
      <trkpt lat="48.98823" lon="4.55625">
        <ele>145</ele>
        <time>2018-03-30T02:41:10Z</time>
      </trkpt>
      <trkpt lat="48.98818" lon="4.55706">
        <ele>144</ele>
        <time>2018-03-30T02:42:10Z</time>
      </trkpt>
      <trkpt lat="48.98817" lon="4.55721">
        <ele>145</ele>
        <time>2018-03-30T02:43:10Z</time>
      </trkpt>
      <trkpt lat="48.98804" lon="4.55833">
        <ele>145</ele>
        <time>2018-03-30T02:44:10Z</time>
      </trkpt>
      <trkpt lat="48.988" lon="4.55867">
        <ele>146</ele>
        <time>2018-03-30T02:45:10Z</time>
      </trkpt>
      <trkpt lat="48.98798" lon="4.55893">
        <ele>146</ele>
        <time>2018-03-30T02:46:10Z</time>
      </trkpt>
      <trkpt lat="48.988" lon="4.55926">
        <ele>146</ele>
        <time>2018-03-30T02:47:10Z</time>
      </trkpt>
      <trkpt lat="48.98802" lon="4.55956">
        <ele>146</ele>
        <time>2018-03-30T02:48:10Z</time>
      </trkpt>
      <trkpt lat="48.98808" lon="4.55999">
        <ele>145</ele>
        <time>2018-03-30T02:49:10Z</time>
      </trkpt>
      <trkpt lat="48.98808" lon="4.56">
        <ele>145</ele>
        <time>2018-03-30T02:50:10Z</time>
      </trkpt>
      <trkpt lat="48.98813" lon="4.56025">
        <ele>145</ele>
        <time>2018-03-30T02:51:10Z</time>
      </trkpt>
      <trkpt lat="48.98829" lon="4.56096">
        <ele>145</ele>
        <time>2018-03-30T02:52:10Z</time>
      </trkpt>
      <trkpt lat="48.98836" lon="4.56139">
        <ele>145</ele>
        <time>2018-03-30T02:53:10Z</time>
      </trkpt>
      <trkpt lat="48.98843" lon="4.5619">
        <ele>145</ele>
        <time>2018-03-30T02:54:10Z</time>
      </trkpt>
      <trkpt lat="48.98843" lon="4.56193">
        <ele>145</ele>
        <time>2018-03-30T02:55:10Z</time>
      </trkpt>
      <trkpt lat="48.9885" lon="4.56248">
        <ele>144</ele>
        <time>2018-03-30T02:56:10Z</time>
      </trkpt>
      <trkpt lat="48.98877" lon="4.56443">
        <ele>145</ele>
        <time>2018-03-30T02:57:10Z</time>
      </trkpt>
      <trkpt lat="48.98884" lon="4.56502">
        <ele>146</ele>
        <time>2018-03-30T02:58:10Z</time>
      </trkpt>
      <trkpt lat="48.98886" lon="4.5652">
        <ele>146</ele>
        <time>2018-03-30T02:59:10Z</time>
      </trkpt>
      <trkpt lat="48.98887" lon="4.56533">
        <ele>146</ele>
        <time>2018-03-30T03:00:10Z</time>
      </trkpt>
      <trkpt lat="48.9889" lon="4.56563">
        <ele>146</ele>
        <time>2018-03-30T03:01:10Z</time>
      </trkpt>
      <trkpt lat="48.98893" lon="4.56595">
        <ele>146</ele>
        <time>2018-03-30T03:02:10Z</time>
      </trkpt>
      <trkpt lat="48.98895" lon="4.56617">
        <ele>146</ele>
        <time>2018-03-30T03:03:10Z</time>
      </trkpt>
      <trkpt lat="48.98895" lon="4.56643">
        <ele>146</ele>
        <time>2018-03-30T03:04:10Z</time>
      </trkpt>
      <trkpt lat="48.98895" lon="4.56689">
        <ele>146</ele>
        <time>2018-03-30T03:05:10Z</time>
      </trkpt>
      <trkpt lat="48.98893" lon="4.56741">
        <ele>146</ele>
        <time>2018-03-30T03:06:10Z</time>
      </trkpt>
      <trkpt lat="48.98889" lon="4.56821">
        <ele>148</ele>
        <time>2018-03-30T03:07:10Z</time>
      </trkpt>
      <trkpt lat="48.98886" lon="4.56906">
        <ele>147</ele>
        <time>2018-03-30T03:08:10Z</time>
      </trkpt>
      <trkpt lat="48.98882" lon="4.56999">
        <ele>148</ele>
        <time>2018-03-30T03:09:10Z</time>
      </trkpt>
      <trkpt lat="48.98878" lon="4.57095">
        <ele>147</ele>
        <time>2018-03-30T03:10:10Z</time>
      </trkpt>
      <trkpt lat="48.98876" lon="4.57139">
        <ele>148</ele>
        <time>2018-03-30T03:11:10Z</time>
      </trkpt>
      <trkpt lat="48.98872" lon="4.57178">
        <ele>148</ele>
        <time>2018-03-30T03:12:10Z</time>
      </trkpt>
      <trkpt lat="48.98866" lon="4.57219">
        <ele>149</ele>
        <time>2018-03-30T03:13:10Z</time>
      </trkpt>
      <trkpt lat="48.98864" lon="4.57233">
        <ele>149</ele>
        <time>2018-03-30T03:14:10Z</time>
      </trkpt>
      <trkpt lat="48.98852" lon="4.57306">
        <ele>150</ele>
        <time>2018-03-30T03:15:10Z</time>
      </trkpt>
      <trkpt lat="48.98842" lon="4.57365">
        <ele>149</ele>
        <time>2018-03-30T03:16:10Z</time>
      </trkpt>
      <trkpt lat="48.98834" lon="4.57415">
        <ele>149</ele>
        <time>2018-03-30T03:17:10Z</time>
      </trkpt>
      <trkpt lat="48.98814" lon="4.57536">
        <ele>149</ele>
        <time>2018-03-30T03:18:10Z</time>
      </trkpt>
      <trkpt lat="48.98804" lon="4.57593">
        <ele>149</ele>
        <time>2018-03-30T03:19:10Z</time>
      </trkpt>
      <trkpt lat="48.98798" lon="4.57628">
        <ele>149</ele>
        <time>2018-03-30T03:20:10Z</time>
      </trkpt>
      <trkpt lat="48.98783" lon="4.57716">
        <ele>150</ele>
        <time>2018-03-30T03:21:10Z</time>
      </trkpt>
      <trkpt lat="48.9877" lon="4.57794">
        <ele>149</ele>
        <time>2018-03-30T03:22:10Z</time>
      </trkpt>
      <trkpt lat="48.98764" lon="4.57826">
        <ele>149</ele>
        <time>2018-03-30T03:23:10Z</time>
      </trkpt>
      <trkpt lat="48.98757" lon="4.57858">
        <ele>149</ele>
        <time>2018-03-30T03:24:10Z</time>
      </trkpt>
      <trkpt lat="48.98743" lon="4.57908">
        <ele>149</ele>
        <time>2018-03-30T03:25:10Z</time>
      </trkpt>
      <trkpt lat="48.98709" lon="4.58012">
        <ele>150</ele>
        <time>2018-03-30T03:26:10Z</time>
      </trkpt>
      <trkpt lat="48.98681" lon="4.58095">
        <ele>151</ele>
        <time>2018-03-30T03:27:10Z</time>
      </trkpt>
      <trkpt lat="48.98652" lon="4.58186">
        <ele>150</ele>
        <time>2018-03-30T03:28:10Z</time>
      </trkpt>
      <trkpt lat="48.98621" lon="4.5828">
        <ele>151</ele>
        <time>2018-03-30T03:29:10Z</time>
      </trkpt>
      <trkpt lat="48.98591" lon="4.58374">
        <ele>151</ele>
        <time>2018-03-30T03:30:10Z</time>
      </trkpt>
      <trkpt lat="48.98568" lon="4.58444">
        <ele>152</ele>
        <time>2018-03-30T03:31:10Z</time>
      </trkpt>
      <trkpt lat="48.98544" lon="4.58514">
        <ele>151</ele>
        <time>2018-03-30T03:32:10Z</time>
      </trkpt>
      <trkpt lat="48.98518" lon="4.58594">
        <ele>150</ele>
        <time>2018-03-30T03:33:10Z</time>
      </trkpt>
      <trkpt lat="48.98508" lon="4.58626">
        <ele>151</ele>
        <time>2018-03-30T03:34:10Z</time>
      </trkpt>
      <trkpt lat="48.98505" lon="4.58637">
        <ele>151</ele>
        <time>2018-03-30T03:35:10Z</time>
      </trkpt>
      <trkpt lat="48.98496" lon="4.58664">
        <ele>151</ele>
        <time>2018-03-30T03:36:10Z</time>
      </trkpt>
      <trkpt lat="48.98491" lon="4.58679">
        <ele>151</ele>
        <time>2018-03-30T03:37:10Z</time>
      </trkpt>
      <trkpt lat="48.98481" lon="4.58708">
        <ele>152</ele>
        <time>2018-03-30T03:38:10Z</time>
      </trkpt>
      <trkpt lat="48.98471" lon="4.58742">
        <ele>153</ele>
        <time>2018-03-30T03:39:10Z</time>
      </trkpt>
      <trkpt lat="48.98466" lon="4.58762">
        <ele>153</ele>
        <time>2018-03-30T03:40:10Z</time>
      </trkpt>
      <trkpt lat="48.98462" lon="4.5878">
        <ele>153</ele>
        <time>2018-03-30T03:41:10Z</time>
      </trkpt>
      <trkpt lat="48.98456" lon="4.58821">
        <ele>153</ele>
        <time>2018-03-30T03:42:10Z</time>
      </trkpt>
      <trkpt lat="48.98454" lon="4.58847">
        <ele>153</ele>
        <time>2018-03-30T03:43:10Z</time>
      </trkpt>
      <trkpt lat="48.98456" lon="4.58883">
        <ele>153</ele>
        <time>2018-03-30T03:44:10Z</time>
      </trkpt>
      <trkpt lat="48.98458" lon="4.58926">
        <ele>153</ele>
        <time>2018-03-30T03:45:10Z</time>
      </trkpt>
      <trkpt lat="48.98465" lon="4.59022">
        <ele>153</ele>
        <time>2018-03-30T03:46:10Z</time>
      </trkpt>
      <trkpt lat="48.98473" lon="4.59181">
        <ele>153</ele>
        <time>2018-03-30T03:47:10Z</time>
      </trkpt>
      <trkpt lat="48.98471" lon="4.5925">
        <ele>154</ele>
        <time>2018-03-30T03:48:10Z</time>
      </trkpt>
      <trkpt lat="48.98466" lon="4.59302">
        <ele>153</ele>
        <time>2018-03-30T03:49:10Z</time>
      </trkpt>
      <trkpt lat="48.98466" lon="4.59302">
        <ele>153</ele>
        <time>2018-03-30T03:50:10Z</time>
      </trkpt>
      <trkpt lat="48.98465" lon="4.59302">
        <ele>153</ele>
        <time>2018-03-30T03:51:10Z</time>
      </trkpt>
      <trkpt lat="48.98464" lon="4.59302">
        <ele>153</ele>
        <time>2018-03-30T03:52:10Z</time>
      </trkpt>
      <trkpt lat="48.98463" lon="4.59302">
        <ele>153</ele>
        <time>2018-03-30T03:53:10Z</time>
      </trkpt>
      <trkpt lat="48.98462" lon="4.59302">
        <ele>153</ele>
        <time>2018-03-30T03:54:10Z</time>
      </trkpt>
      <trkpt lat="48.98461" lon="4.59303">
        <ele>153</ele>
        <time>2018-03-30T03:55:10Z</time>
      </trkpt>
      <trkpt lat="48.9846" lon="4.59303">
        <ele>153</ele>
        <time>2018-03-30T03:56:10Z</time>
      </trkpt>
      <trkpt lat="48.9846" lon="4.59304">
        <ele>153</ele>
        <time>2018-03-30T03:57:10Z</time>
      </trkpt>
      <trkpt lat="48.98459" lon="4.59305">
        <ele>153</ele>
        <time>2018-03-30T03:58:10Z</time>
      </trkpt>
      <trkpt lat="48.98459" lon="4.59306">
        <ele>153</ele>
        <time>2018-03-30T03:59:10Z</time>
      </trkpt>
      <trkpt lat="48.98458" lon="4.59306">
        <ele>153</ele>
        <time>2018-03-30T04:00:10Z</time>
      </trkpt>
      <trkpt lat="48.98458" lon="4.59307">
        <ele>153</ele>
        <time>2018-03-30T04:01:10Z</time>
      </trkpt>
      <trkpt lat="48.98458" lon="4.59308">
        <ele>153</ele>
        <time>2018-03-30T04:02:10Z</time>
      </trkpt>
      <trkpt lat="48.98457" lon="4.59309">
        <ele>153</ele>
        <time>2018-03-30T04:03:10Z</time>
      </trkpt>
      <trkpt lat="48.98457" lon="4.5931">
        <ele>153</ele>
        <time>2018-03-30T04:04:10Z</time>
      </trkpt>
      <trkpt lat="48.98457" lon="4.59311">
        <ele>153</ele>
        <time>2018-03-30T04:05:10Z</time>
      </trkpt>
      <trkpt lat="48.98457" lon="4.59312">
        <ele>153</ele>
        <time>2018-03-30T04:06:10Z</time>
      </trkpt>
      <trkpt lat="48.98457" lon="4.59313">
        <ele>153</ele>
        <time>2018-03-30T04:07:10Z</time>
      </trkpt>
      <trkpt lat="48.98457" lon="4.59314">
        <ele>153</ele>
        <time>2018-03-30T04:08:10Z</time>
      </trkpt>
      <trkpt lat="48.98457" lon="4.59315">
        <ele>153</ele>
        <time>2018-03-30T04:09:10Z</time>
      </trkpt>
      <trkpt lat="48.98457" lon="4.59316">
        <ele>153</ele>
        <time>2018-03-30T04:10:10Z</time>
      </trkpt>
      <trkpt lat="48.98457" lon="4.59317">
        <ele>153</ele>
        <time>2018-03-30T04:11:10Z</time>
      </trkpt>
      <trkpt lat="48.98458" lon="4.59318">
        <ele>153</ele>
        <time>2018-03-30T04:12:10Z</time>
      </trkpt>
      <trkpt lat="48.98417" lon="4.59362">
        <ele>153</ele>
        <time>2018-03-30T04:13:10Z</time>
      </trkpt>
      <trkpt lat="48.98377" lon="4.59406">
        <ele>153</ele>
        <time>2018-03-30T04:14:10Z</time>
      </trkpt>
      <trkpt lat="48.98308" lon="4.59533">
        <ele>155</ele>
        <time>2018-03-30T04:15:10Z</time>
      </trkpt>
      <trkpt lat="48.98276" lon="4.59593">
        <ele>155</ele>
        <time>2018-03-30T04:16:10Z</time>
      </trkpt>
      <trkpt lat="48.98213" lon="4.59702">
        <ele>156</ele>
        <time>2018-03-30T04:17:10Z</time>
      </trkpt>
      <trkpt lat="48.98211" lon="4.59711">
        <ele>156</ele>
        <time>2018-03-30T04:18:10Z</time>
      </trkpt>
      <trkpt lat="48.98209" lon="4.59724">
        <ele>156</ele>
        <time>2018-03-30T04:19:10Z</time>
      </trkpt>
      <trkpt lat="48.98206" lon="4.59747">
        <ele>157</ele>
        <time>2018-03-30T04:20:10Z</time>
      </trkpt>
      <trkpt lat="48.98203" lon="4.59759">
        <ele>156</ele>
        <time>2018-03-30T04:21:10Z</time>
      </trkpt>
      <trkpt lat="48.98201" lon="4.59767">
        <ele>156</ele>
        <time>2018-03-30T04:22:10Z</time>
      </trkpt>
      <trkpt lat="48.98201" lon="4.59773">
        <ele>156</ele>
        <time>2018-03-30T04:23:10Z</time>
      </trkpt>
      <trkpt lat="48.98196" lon="4.59802">
        <ele>156</ele>
        <time>2018-03-30T04:24:10Z</time>
      </trkpt>
      <trkpt lat="48.98194" lon="4.59817">
        <ele>156</ele>
        <time>2018-03-30T04:25:10Z</time>
      </trkpt>
      <trkpt lat="48.98193" lon="4.59833">
        <ele>156</ele>
        <time>2018-03-30T04:26:10Z</time>
      </trkpt>
      <trkpt lat="48.98192" lon="4.59863">
        <ele>156</ele>
        <time>2018-03-30T04:27:10Z</time>
      </trkpt>
      <trkpt lat="48.98191" lon="4.59894">
        <ele>156</ele>
        <time>2018-03-30T04:28:10Z</time>
      </trkpt>
      <trkpt lat="48.9819" lon="4.59941">
        <ele>156</ele>
        <time>2018-03-30T04:29:10Z</time>
      </trkpt>
      <trkpt lat="48.98189" lon="4.59983">
        <ele>156</ele>
        <time>2018-03-30T04:30:10Z</time>
      </trkpt>
      <trkpt lat="48.98188" lon="4.60028">
        <ele>155</ele>
        <time>2018-03-30T04:31:10Z</time>
      </trkpt>
      <trkpt lat="48.98186" lon="4.6009">
        <ele>154</ele>
        <time>2018-03-30T04:32:10Z</time>
      </trkpt>
      <trkpt lat="48.98185" lon="4.60142">
        <ele>153</ele>
        <time>2018-03-30T04:33:10Z</time>
      </trkpt>
      <trkpt lat="48.98183" lon="4.60175">
        <ele>153</ele>
        <time>2018-03-30T04:34:10Z</time>
      </trkpt>
      <trkpt lat="48.98182" lon="4.60217">
        <ele>152</ele>
        <time>2018-03-30T04:35:10Z</time>
      </trkpt>
      <trkpt lat="48.98182" lon="4.60233">
        <ele>152</ele>
        <time>2018-03-30T04:36:10Z</time>
      </trkpt>
      <trkpt lat="48.98182" lon="4.60245">
        <ele>152</ele>
        <time>2018-03-30T04:37:10Z</time>
      </trkpt>
      <trkpt lat="48.98181" lon="4.60266">
        <ele>152</ele>
        <time>2018-03-30T04:38:10Z</time>
      </trkpt>
      <trkpt lat="48.9818" lon="4.60286">
        <ele>153</ele>
        <time>2018-03-30T04:39:10Z</time>
      </trkpt>
      <trkpt lat="48.9818" lon="4.60307">
        <ele>154</ele>
        <time>2018-03-30T04:40:10Z</time>
      </trkpt>
      <trkpt lat="48.98179" lon="4.60328">
        <ele>155</ele>
        <time>2018-03-30T04:41:10Z</time>
      </trkpt>
      <trkpt lat="48.98178" lon="4.6035">
        <ele>155</ele>
        <time>2018-03-30T04:42:10Z</time>
      </trkpt>
      <trkpt lat="48.98178" lon="4.6037">
        <ele>155</ele>
        <time>2018-03-30T04:43:10Z</time>
      </trkpt>
      <trkpt lat="48.98177" lon="4.60391">
        <ele>155</ele>
        <time>2018-03-30T04:44:10Z</time>
      </trkpt>
      <trkpt lat="48.98177" lon="4.60412">
        <ele>156</ele>
        <time>2018-03-30T04:45:10Z</time>
      </trkpt>
      <trkpt lat="48.98176" lon="4.60433">
        <ele>156</ele>
        <time>2018-03-30T04:46:10Z</time>
      </trkpt>
      <trkpt lat="48.98175" lon="4.60475">
        <ele>158</ele>
        <time>2018-03-30T04:47:10Z</time>
      </trkpt>
      <trkpt lat="48.98174" lon="4.60517">
        <ele>159</ele>
        <time>2018-03-30T04:48:10Z</time>
      </trkpt>
      <trkpt lat="48.98173" lon="4.60538">
        <ele>159</ele>
        <time>2018-03-30T04:49:10Z</time>
      </trkpt>
      <trkpt lat="48.98173" lon="4.6056">
        <ele>159</ele>
        <time>2018-03-30T04:50:10Z</time>
      </trkpt>
      <trkpt lat="48.98172" lon="4.60601">
        <ele>159</ele>
        <time>2018-03-30T04:51:10Z</time>
      </trkpt>
      <trkpt lat="48.98171" lon="4.60623">
        <ele>159</ele>
        <time>2018-03-30T04:52:10Z</time>
      </trkpt>
      <trkpt lat="48.98171" lon="4.60643">
        <ele>159</ele>
        <time>2018-03-30T04:53:10Z</time>
      </trkpt>
      <trkpt lat="48.9817" lon="4.60665">
        <ele>159</ele>
        <time>2018-03-30T04:54:10Z</time>
      </trkpt>
      <trkpt lat="48.98169" lon="4.60686">
        <ele>159</ele>
        <time>2018-03-30T04:55:10Z</time>
      </trkpt>
      <trkpt lat="48.98169" lon="4.60707">
        <ele>159</ele>
        <time>2018-03-30T04:56:10Z</time>
      </trkpt>
      <trkpt lat="48.98168" lon="4.60728">
        <ele>159</ele>
        <time>2018-03-30T04:57:10Z</time>
      </trkpt>
      <trkpt lat="48.98167" lon="4.60769">
        <ele>159</ele>
        <time>2018-03-30T04:58:10Z</time>
      </trkpt>
      <trkpt lat="48.98166" lon="4.60812">
        <ele>160</ele>
        <time>2018-03-30T04:59:10Z</time>
      </trkpt>
      <trkpt lat="48.98165" lon="4.60854">
        <ele>160</ele>
        <time>2018-03-30T05:00:10Z</time>
      </trkpt>
      <trkpt lat="48.98163" lon="4.609">
        <ele>161</ele>
        <time>2018-03-30T05:01:10Z</time>
      </trkpt>
      <trkpt lat="48.98162" lon="4.60939">
        <ele>161</ele>
        <time>2018-03-30T05:02:10Z</time>
      </trkpt>
      <trkpt lat="48.98161" lon="4.6096">
        <ele>161</ele>
        <time>2018-03-30T05:03:10Z</time>
      </trkpt>
      <trkpt lat="48.98161" lon="4.60982">
        <ele>160</ele>
        <time>2018-03-30T05:04:10Z</time>
      </trkpt>
      <trkpt lat="48.98159" lon="4.61024">
        <ele>160</ele>
        <time>2018-03-30T05:05:10Z</time>
      </trkpt>
      <trkpt lat="48.98158" lon="4.61046">
        <ele>161</ele>
        <time>2018-03-30T05:06:10Z</time>
      </trkpt>
      <trkpt lat="48.98158" lon="4.61067">
        <ele>161</ele>
        <time>2018-03-30T05:07:10Z</time>
      </trkpt>
      <trkpt lat="48.98157" lon="4.61088">
        <ele>161</ele>
        <time>2018-03-30T05:08:10Z</time>
      </trkpt>
      <trkpt lat="48.98156" lon="4.61118">
        <ele>162</ele>
        <time>2018-03-30T05:09:10Z</time>
      </trkpt>
      <trkpt lat="48.98155" lon="4.61173">
        <ele>162</ele>
        <time>2018-03-30T05:10:10Z</time>
      </trkpt>
      <trkpt lat="48.98154" lon="4.61187">
        <ele>163</ele>
        <time>2018-03-30T05:11:10Z</time>
      </trkpt>
      <trkpt lat="48.98153" lon="4.61238">
        <ele>164</ele>
        <time>2018-03-30T05:12:10Z</time>
      </trkpt>
      <trkpt lat="48.98151" lon="4.61335">
        <ele>166</ele>
        <time>2018-03-30T05:13:10Z</time>
      </trkpt>
      <trkpt lat="48.98148" lon="4.61426">
        <ele>168</ele>
        <time>2018-03-30T05:14:10Z</time>
      </trkpt>
      <trkpt lat="48.98145" lon="4.61499">
        <ele>169</ele>
        <time>2018-03-30T05:15:10Z</time>
      </trkpt>
      <trkpt lat="48.98145" lon="4.61529">
        <ele>169</ele>
        <time>2018-03-30T05:16:10Z</time>
      </trkpt>
      <trkpt lat="48.9814" lon="4.61652">
        <ele>169</ele>
        <time>2018-03-30T05:17:10Z</time>
      </trkpt>
      <trkpt lat="48.98139" lon="4.61713">
        <ele>169</ele>
        <time>2018-03-30T05:18:10Z</time>
      </trkpt>
      <trkpt lat="48.98138" lon="4.61733">
        <ele>169</ele>
        <time>2018-03-30T05:19:10Z</time>
      </trkpt>
      <trkpt lat="48.98137" lon="4.61781">
        <ele>170</ele>
        <time>2018-03-30T05:20:10Z</time>
      </trkpt>
      <trkpt lat="48.98136" lon="4.61833">
        <ele>171</ele>
        <time>2018-03-30T05:21:10Z</time>
      </trkpt>
      <trkpt lat="48.98135" lon="4.6188">
        <ele>171</ele>
        <time>2018-03-30T05:22:10Z</time>
      </trkpt>
      <trkpt lat="48.98134" lon="4.61933">
        <ele>172</ele>
        <time>2018-03-30T05:23:10Z</time>
      </trkpt>
      <trkpt lat="48.98132" lon="4.61971">
        <ele>172</ele>
        <time>2018-03-30T05:24:10Z</time>
      </trkpt>
      <trkpt lat="48.98132" lon="4.61991">
        <ele>173</ele>
        <time>2018-03-30T05:25:10Z</time>
      </trkpt>
      <trkpt lat="48.9813" lon="4.6205">
        <ele>174</ele>
        <time>2018-03-30T05:26:10Z</time>
      </trkpt>
      <trkpt lat="48.98127" lon="4.62144">
        <ele>174</ele>
        <time>2018-03-30T05:27:10Z</time>
      </trkpt>
      <trkpt lat="48.98126" lon="4.62182">
        <ele>174</ele>
        <time>2018-03-30T05:28:10Z</time>
      </trkpt>
      <trkpt lat="48.98123" lon="4.62253">
        <ele>174</ele>
        <time>2018-03-30T05:29:10Z</time>
      </trkpt>
      <trkpt lat="48.98121" lon="4.62335">
        <ele>176</ele>
        <time>2018-03-30T05:30:10Z</time>
      </trkpt>
      <trkpt lat="48.9812" lon="4.62363">
        <ele>176</ele>
        <time>2018-03-30T05:31:10Z</time>
      </trkpt>
      <trkpt lat="48.98117" lon="4.6245">
        <ele>178</ele>
        <time>2018-03-30T05:32:10Z</time>
      </trkpt>
      <trkpt lat="48.98115" lon="4.62504">
        <ele>179</ele>
        <time>2018-03-30T05:33:10Z</time>
      </trkpt>
      <trkpt lat="48.98114" lon="4.62556">
        <ele>179</ele>
        <time>2018-03-30T05:34:10Z</time>
      </trkpt>
      <trkpt lat="48.98112" lon="4.62615">
        <ele>180</ele>
        <time>2018-03-30T05:35:10Z</time>
      </trkpt>
      <trkpt lat="48.98112" lon="4.62658">
        <ele>181</ele>
        <time>2018-03-30T05:36:10Z</time>
      </trkpt>
      <trkpt lat="48.9811" lon="4.62704">
        <ele>182</ele>
        <time>2018-03-30T05:37:10Z</time>
      </trkpt>
      <trkpt lat="48.9811" lon="4.62733">
        <ele>182</ele>
        <time>2018-03-30T05:38:10Z</time>
      </trkpt>
      <trkpt lat="48.98109" lon="4.62748">
        <ele>182</ele>
        <time>2018-03-30T05:39:10Z</time>
      </trkpt>
      <trkpt lat="48.98109" lon="4.62767">
        <ele>182</ele>
        <time>2018-03-30T05:40:10Z</time>
      </trkpt>
      <trkpt lat="48.9811" lon="4.62798">
        <ele>182</ele>
        <time>2018-03-30T05:41:10Z</time>
      </trkpt>
      <trkpt lat="48.98114" lon="4.62826">
        <ele>182</ele>
        <time>2018-03-30T05:42:10Z</time>
      </trkpt>
      <trkpt lat="48.98118" lon="4.62848">
        <ele>182</ele>
        <time>2018-03-30T05:43:10Z</time>
      </trkpt>
      <trkpt lat="48.98127" lon="4.62888">
        <ele>182</ele>
        <time>2018-03-30T05:44:10Z</time>
      </trkpt>
      <trkpt lat="48.9813" lon="4.62899">
        <ele>182</ele>
        <time>2018-03-30T05:45:10Z</time>
      </trkpt>
      <trkpt lat="48.98137" lon="4.62928">
        <ele>183</ele>
        <time>2018-03-30T05:46:10Z</time>
      </trkpt>
      <trkpt lat="48.98151" lon="4.62981">
        <ele>183</ele>
        <time>2018-03-30T05:47:10Z</time>
      </trkpt>
      <trkpt lat="48.98165" lon="4.6303">
        <ele>183</ele>
        <time>2018-03-30T05:48:10Z</time>
      </trkpt>
      <trkpt lat="48.98173" lon="4.63065">
        <ele>183</ele>
        <time>2018-03-30T05:49:10Z</time>
      </trkpt>
      <trkpt lat="48.98184" lon="4.63105">
        <ele>183</ele>
        <time>2018-03-30T05:50:10Z</time>
      </trkpt>
      <trkpt lat="48.98191" lon="4.63135">
        <ele>183</ele>
        <time>2018-03-30T05:51:10Z</time>
      </trkpt>
      <trkpt lat="48.98204" lon="4.63185">
        <ele>183</ele>
        <time>2018-03-30T05:52:10Z</time>
      </trkpt>
      <trkpt lat="48.98213" lon="4.63222">
        <ele>183</ele>
        <time>2018-03-30T05:53:10Z</time>
      </trkpt>
      <trkpt lat="48.98243" lon="4.63333">
        <ele>184</ele>
        <time>2018-03-30T05:54:10Z</time>
      </trkpt>
      <trkpt lat="48.98259" lon="4.63396">
        <ele>183</ele>
        <time>2018-03-30T05:55:10Z</time>
      </trkpt>
      <trkpt lat="48.98265" lon="4.63416">
        <ele>182</ele>
        <time>2018-03-30T05:56:10Z</time>
      </trkpt>
      <trkpt lat="48.98268" lon="4.63429">
        <ele>182</ele>
        <time>2018-03-30T05:57:10Z</time>
      </trkpt>
      <trkpt lat="48.9827" lon="4.63435">
        <ele>182</ele>
        <time>2018-03-30T05:58:10Z</time>
      </trkpt>
      <trkpt lat="48.98272" lon="4.63456">
        <ele>182</ele>
        <time>2018-03-30T05:59:10Z</time>
      </trkpt>
      <trkpt lat="48.9828" lon="4.63516">
        <ele>183</ele>
        <time>2018-03-30T06:00:10Z</time>
      </trkpt>
      <trkpt lat="48.98283" lon="4.63526">
        <ele>183</ele>
        <time>2018-03-30T06:01:10Z</time>
      </trkpt>
      <trkpt lat="48.98285" lon="4.63535">
        <ele>183</ele>
        <time>2018-03-30T06:02:10Z</time>
      </trkpt>
      <trkpt lat="48.98289" lon="4.63542">
        <ele>183</ele>
        <time>2018-03-30T06:03:10Z</time>
      </trkpt>
      <trkpt lat="48.98292" lon="4.63549">
        <ele>183</ele>
        <time>2018-03-30T06:04:10Z</time>
      </trkpt>
      <trkpt lat="48.98295" lon="4.63558">
        <ele>183</ele>
        <time>2018-03-30T06:05:10Z</time>
      </trkpt>
      <trkpt lat="48.98305" lon="4.63589">
        <ele>183</ele>
        <time>2018-03-30T06:06:10Z</time>
      </trkpt>
      <trkpt lat="48.98311" lon="4.63606">
        <ele>183</ele>
        <time>2018-03-30T06:07:10Z</time>
      </trkpt>
      <trkpt lat="48.98321" lon="4.63633">
        <ele>183</ele>
        <time>2018-03-30T06:08:10Z</time>
      </trkpt>
      <trkpt lat="48.98322" lon="4.63638">
        <ele>183</ele>
        <time>2018-03-30T06:09:10Z</time>
      </trkpt>
      <trkpt lat="48.98342" lon="4.63717">
        <ele>183</ele>
        <time>2018-03-30T06:10:10Z</time>
      </trkpt>
      <trkpt lat="48.98375" lon="4.63841">
        <ele>183</ele>
        <time>2018-03-30T06:11:10Z</time>
      </trkpt>
      <trkpt lat="48.98388" lon="4.63891">
        <ele>184</ele>
        <time>2018-03-30T06:12:10Z</time>
      </trkpt>
      <trkpt lat="48.98401" lon="4.63944">
        <ele>184</ele>
        <time>2018-03-30T06:13:10Z</time>
      </trkpt>
      <trkpt lat="48.98422" lon="4.64026">
        <ele>185</ele>
        <time>2018-03-30T06:14:10Z</time>
      </trkpt>
      <trkpt lat="48.98443" lon="4.64103">
        <ele>186</ele>
        <time>2018-03-30T06:15:10Z</time>
      </trkpt>
      <trkpt lat="48.98457" lon="4.64157">
        <ele>186</ele>
        <time>2018-03-30T06:16:10Z</time>
      </trkpt>
      <trkpt lat="48.9847" lon="4.64211">
        <ele>187</ele>
        <time>2018-03-30T06:17:10Z</time>
      </trkpt>
      <trkpt lat="48.9848" lon="4.64246">
        <ele>188</ele>
        <time>2018-03-30T06:18:10Z</time>
      </trkpt>
      <trkpt lat="48.98489" lon="4.64282">
        <ele>188</ele>
        <time>2018-03-30T06:19:10Z</time>
      </trkpt>
      <trkpt lat="48.985" lon="4.64326">
        <ele>187</ele>
        <time>2018-03-30T06:20:10Z</time>
      </trkpt>
      <trkpt lat="48.98518" lon="4.64394">
        <ele>188</ele>
        <time>2018-03-30T06:21:10Z</time>
      </trkpt>
      <trkpt lat="48.98534" lon="4.64458">
        <ele>189</ele>
        <time>2018-03-30T06:22:10Z</time>
      </trkpt>
      <trkpt lat="48.98549" lon="4.64515">
        <ele>190</ele>
        <time>2018-03-30T06:23:10Z</time>
      </trkpt>
      <trkpt lat="48.98562" lon="4.64563">
        <ele>190</ele>
        <time>2018-03-30T06:24:10Z</time>
      </trkpt>
      <trkpt lat="48.98571" lon="4.64597">
        <ele>190</ele>
        <time>2018-03-30T06:25:10Z</time>
      </trkpt>
      <trkpt lat="48.98587" lon="4.64658">
        <ele>191</ele>
        <time>2018-03-30T06:26:10Z</time>
      </trkpt>
      <trkpt lat="48.98598" lon="4.64701">
        <ele>191</ele>
        <time>2018-03-30T06:27:10Z</time>
      </trkpt>
      <trkpt lat="48.9861" lon="4.64747">
        <ele>192</ele>
        <time>2018-03-30T06:28:10Z</time>
      </trkpt>
      <trkpt lat="48.98629" lon="4.64819">
        <ele>193</ele>
        <time>2018-03-30T06:29:10Z</time>
      </trkpt>
      <trkpt lat="48.98642" lon="4.64869">
        <ele>194</ele>
        <time>2018-03-30T06:30:10Z</time>
      </trkpt>
      <trkpt lat="48.98646" lon="4.64884">
        <ele>194</ele>
        <time>2018-03-30T06:31:10Z</time>
      </trkpt>
      <trkpt lat="48.9865" lon="4.64901">
        <ele>194</ele>
        <time>2018-03-30T06:32:10Z</time>
      </trkpt>
      <trkpt lat="48.98658" lon="4.64937">
        <ele>194</ele>
        <time>2018-03-30T06:33:10Z</time>
      </trkpt>
      <trkpt lat="48.98662" lon="4.64952">
        <ele>194</ele>
        <time>2018-03-30T06:34:10Z</time>
      </trkpt>
      <trkpt lat="48.98666" lon="4.6497">
        <ele>194</ele>
        <time>2018-03-30T06:35:10Z</time>
      </trkpt>
      <trkpt lat="48.98669" lon="4.64986">
        <ele>194</ele>
        <time>2018-03-30T06:36:10Z</time>
      </trkpt>
      <trkpt lat="48.98677" lon="4.65019">
        <ele>194</ele>
        <time>2018-03-30T06:37:10Z</time>
      </trkpt>
      <trkpt lat="48.98677" lon="4.65021">
        <ele>194</ele>
        <time>2018-03-30T06:38:10Z</time>
      </trkpt>
      <trkpt lat="48.9868" lon="4.65038">
        <ele>195</ele>
        <time>2018-03-30T06:39:10Z</time>
      </trkpt>
      <trkpt lat="48.98685" lon="4.65058">
        <ele>195</ele>
        <time>2018-03-30T06:40:10Z</time>
      </trkpt>
      <trkpt lat="48.98692" lon="4.65092">
        <ele>196</ele>
        <time>2018-03-30T06:41:10Z</time>
      </trkpt>
      <trkpt lat="48.98699" lon="4.65126">
        <ele>196</ele>
        <time>2018-03-30T06:42:10Z</time>
      </trkpt>
      <trkpt lat="48.98705" lon="4.65159">
        <ele>196</ele>
        <time>2018-03-30T06:43:10Z</time>
      </trkpt>
      <trkpt lat="48.98709" lon="4.65175">
        <ele>197</ele>
        <time>2018-03-30T06:44:10Z</time>
      </trkpt>
      <trkpt lat="48.98713" lon="4.65198">
        <ele>197</ele>
        <time>2018-03-30T06:45:10Z</time>
      </trkpt>
      <trkpt lat="48.98732" lon="4.65291">
        <ele>199</ele>
        <time>2018-03-30T06:46:10Z</time>
      </trkpt>
      <trkpt lat="48.98734" lon="4.65297">
        <ele>199</ele>
        <time>2018-03-30T06:47:10Z</time>
      </trkpt>
      <trkpt lat="48.98744" lon="4.65348">
        <ele>200</ele>
        <time>2018-03-30T06:48:10Z</time>
      </trkpt>
      <trkpt lat="48.98758" lon="4.65421">
        <ele>200</ele>
        <time>2018-03-30T06:49:10Z</time>
      </trkpt>
      <trkpt lat="48.9876" lon="4.65427">
        <ele>200</ele>
        <time>2018-03-30T06:50:10Z</time>
      </trkpt>
      <trkpt lat="48.98763" lon="4.65445">
        <ele>200</ele>
        <time>2018-03-30T06:51:10Z</time>
      </trkpt>
      <trkpt lat="48.98766" lon="4.6546">
        <ele>200</ele>
        <time>2018-03-30T06:52:10Z</time>
      </trkpt>
      <trkpt lat="48.9878" lon="4.65525">
        <ele>200</ele>
        <time>2018-03-30T06:53:10Z</time>
      </trkpt>
      <trkpt lat="48.98791" lon="4.65584">
        <ele>200</ele>
        <time>2018-03-30T06:54:10Z</time>
      </trkpt>
      <trkpt lat="48.98797" lon="4.65609">
        <ele>200</ele>
        <time>2018-03-30T06:55:10Z</time>
      </trkpt>
      <trkpt lat="48.98799" lon="4.65625">
        <ele>200</ele>
        <time>2018-03-30T06:56:10Z</time>
      </trkpt>
      <trkpt lat="48.98801" lon="4.65634">
        <ele>200</ele>
        <time>2018-03-30T06:57:10Z</time>
      </trkpt>
      <trkpt lat="48.98802" lon="4.65641">
        <ele>200</ele>
        <time>2018-03-30T06:58:10Z</time>
      </trkpt>
      <trkpt lat="48.9882" lon="4.65727">
        <ele>200</ele>
        <time>2018-03-30T06:59:10Z</time>
      </trkpt>
      <trkpt lat="48.9883" lon="4.65774">
        <ele>201</ele>
        <time>2018-03-30T07:00:10Z</time>
      </trkpt>
      <trkpt lat="48.98844" lon="4.65841">
        <ele>201</ele>
        <time>2018-03-30T07:01:10Z</time>
      </trkpt>
      <trkpt lat="48.98851" lon="4.65875">
        <ele>202</ele>
        <time>2018-03-30T07:02:10Z</time>
      </trkpt>
      <trkpt lat="48.98874" lon="4.65983">
        <ele>202</ele>
        <time>2018-03-30T07:03:10Z</time>
      </trkpt>
      <trkpt lat="48.98881" lon="4.66019">
        <ele>202</ele>
        <time>2018-03-30T07:04:10Z</time>
      </trkpt>
      <trkpt lat="48.98885" lon="4.66036">
        <ele>202</ele>
        <time>2018-03-30T07:05:10Z</time>
      </trkpt>
      <trkpt lat="48.9889" lon="4.6606">
        <ele>203</ele>
        <time>2018-03-30T07:06:10Z</time>
      </trkpt>
      <trkpt lat="48.98896" lon="4.66089">
        <ele>203</ele>
        <time>2018-03-30T07:07:10Z</time>
      </trkpt>
      <trkpt lat="48.98904" lon="4.66124">
        <ele>203</ele>
        <time>2018-03-30T07:08:10Z</time>
      </trkpt>
      <trkpt lat="48.98907" lon="4.66141">
        <ele>204</ele>
        <time>2018-03-30T07:09:10Z</time>
      </trkpt>
      <trkpt lat="48.98911" lon="4.66158">
        <ele>204</ele>
        <time>2018-03-30T07:10:10Z</time>
      </trkpt>
      <trkpt lat="48.98918" lon="4.66193">
        <ele>204</ele>
        <time>2018-03-30T07:11:10Z</time>
      </trkpt>
      <trkpt lat="48.98921" lon="4.6621">
        <ele>204</ele>
        <time>2018-03-30T07:12:10Z</time>
      </trkpt>
      <trkpt lat="48.98924" lon="4.66227">
        <ele>203</ele>
        <time>2018-03-30T07:13:10Z</time>
      </trkpt>
      <trkpt lat="48.98927" lon="4.66245">
        <ele>203</ele>
        <time>2018-03-30T07:14:10Z</time>
      </trkpt>
      <trkpt lat="48.9893" lon="4.66263">
        <ele>203</ele>
        <time>2018-03-30T07:15:10Z</time>
      </trkpt>
      <trkpt lat="48.98932" lon="4.6628">
        <ele>203</ele>
        <time>2018-03-30T07:16:10Z</time>
      </trkpt>
      <trkpt lat="48.98935" lon="4.66298">
        <ele>203</ele>
        <time>2018-03-30T07:17:10Z</time>
      </trkpt>
      <trkpt lat="48.98938" lon="4.66324">
        <ele>203</ele>
        <time>2018-03-30T07:18:10Z</time>
      </trkpt>
      <trkpt lat="48.9894" lon="4.6635">
        <ele>203</ele>
        <time>2018-03-30T07:19:10Z</time>
      </trkpt>
      <trkpt lat="48.98945" lon="4.664">
        <ele>203</ele>
        <time>2018-03-30T07:20:10Z</time>
      </trkpt>
      <trkpt lat="48.98947" lon="4.66425">
        <ele>203</ele>
        <time>2018-03-30T07:21:10Z</time>
      </trkpt>
      <trkpt lat="48.98949" lon="4.66441">
        <ele>203</ele>
        <time>2018-03-30T07:22:10Z</time>
      </trkpt>
      <trkpt lat="48.98954" lon="4.66497">
        <ele>203</ele>
        <time>2018-03-30T07:23:10Z</time>
      </trkpt>
      <trkpt lat="48.98957" lon="4.66523">
        <ele>203</ele>
        <time>2018-03-30T07:24:10Z</time>
      </trkpt>
      <trkpt lat="48.9896" lon="4.66549">
        <ele>203</ele>
        <time>2018-03-30T07:25:10Z</time>
      </trkpt>
      <trkpt lat="48.98961" lon="4.66568">
        <ele>203</ele>
        <time>2018-03-30T07:26:10Z</time>
      </trkpt>
      <trkpt lat="48.98977" lon="4.66712">
        <ele>203</ele>
        <time>2018-03-30T07:27:10Z</time>
      </trkpt>
      <trkpt lat="48.98984" lon="4.66786">
        <ele>202</ele>
        <time>2018-03-30T07:28:10Z</time>
      </trkpt>
      <trkpt lat="48.98993" lon="4.66873">
        <ele>201</ele>
        <time>2018-03-30T07:29:10Z</time>
      </trkpt>
      <trkpt lat="48.99001" lon="4.66953">
        <ele>200</ele>
        <time>2018-03-30T07:30:10Z</time>
      </trkpt>
      <trkpt lat="48.99012" lon="4.67061">
        <ele>198</ele>
        <time>2018-03-30T07:31:10Z</time>
      </trkpt>
      <trkpt lat="48.99032" lon="4.67257">
        <ele>196</ele>
        <time>2018-03-30T07:32:10Z</time>
      </trkpt>
      <trkpt lat="48.99035" lon="4.67283">
        <ele>196</ele>
        <time>2018-03-30T07:33:10Z</time>
      </trkpt>
      <trkpt lat="48.99037" lon="4.67306">
        <ele>196</ele>
        <time>2018-03-30T07:34:10Z</time>
      </trkpt>
      <trkpt lat="48.99039" lon="4.67318">
        <ele>196</ele>
        <time>2018-03-30T07:35:10Z</time>
      </trkpt>
      <trkpt lat="48.99046" lon="4.67372">
        <ele>196</ele>
        <time>2018-03-30T07:36:10Z</time>
      </trkpt>
      <trkpt lat="48.99046" lon="4.67376">
        <ele>196</ele>
        <time>2018-03-30T07:37:10Z</time>
      </trkpt>
      <trkpt lat="48.99047" lon="4.67383">
        <ele>196</ele>
        <time>2018-03-30T07:38:10Z</time>
      </trkpt>
      <trkpt lat="48.99058" lon="4.67461">
        <ele>196</ele>
        <time>2018-03-30T07:39:10Z</time>
      </trkpt>
      <trkpt lat="48.99075" lon="4.67569">
        <ele>195</ele>
        <time>2018-03-30T07:40:10Z</time>
      </trkpt>
      <trkpt lat="48.99082" lon="4.67622">
        <ele>195</ele>
        <time>2018-03-30T07:41:10Z</time>
      </trkpt>
      <trkpt lat="48.99088" lon="4.67668">
        <ele>194</ele>
        <time>2018-03-30T07:42:10Z</time>
      </trkpt>
      <trkpt lat="48.99099" lon="4.67736">
        <ele>194</ele>
        <time>2018-03-30T07:43:10Z</time>
      </trkpt>
      <trkpt lat="48.9911" lon="4.67797">
        <ele>193</ele>
        <time>2018-03-30T07:44:10Z</time>
      </trkpt>
      <trkpt lat="48.99121" lon="4.67855">
        <ele>192</ele>
        <time>2018-03-30T07:45:10Z</time>
      </trkpt>
      <trkpt lat="48.99133" lon="4.67917">
        <ele>192</ele>
        <time>2018-03-30T07:46:10Z</time>
      </trkpt>
      <trkpt lat="48.99144" lon="4.67966">
        <ele>193</ele>
        <time>2018-03-30T07:47:10Z</time>
      </trkpt>
      <trkpt lat="48.99148" lon="4.67989">
        <ele>193</ele>
        <time>2018-03-30T07:48:10Z</time>
      </trkpt>
      <trkpt lat="48.99157" lon="4.68034">
        <ele>193</ele>
        <time>2018-03-30T07:49:10Z</time>
      </trkpt>
      <trkpt lat="48.99173" lon="4.6811">
        <ele>192</ele>
        <time>2018-03-30T07:50:10Z</time>
      </trkpt>
      <trkpt lat="48.99189" lon="4.68183">
        <ele>191</ele>
        <time>2018-03-30T07:51:10Z</time>
      </trkpt>
      <trkpt lat="48.99204" lon="4.68249">
        <ele>191</ele>
        <time>2018-03-30T07:52:10Z</time>
      </trkpt>
      <trkpt lat="48.99212" lon="4.68282">
        <ele>191</ele>
        <time>2018-03-30T07:53:10Z</time>
      </trkpt>
      <trkpt lat="48.99216" lon="4.683">
        <ele>191</ele>
        <time>2018-03-30T07:54:10Z</time>
      </trkpt>
      <trkpt lat="48.99227" lon="4.68345">
        <ele>191</ele>
        <time>2018-03-30T07:55:10Z</time>
      </trkpt>
      <trkpt lat="48.99243" lon="4.68399">
        <ele>190</ele>
        <time>2018-03-30T07:56:10Z</time>
      </trkpt>
      <trkpt lat="48.9925" lon="4.68424">
        <ele>190</ele>
        <time>2018-03-30T07:57:10Z</time>
      </trkpt>
      <trkpt lat="48.99255" lon="4.68442">
        <ele>190</ele>
        <time>2018-03-30T07:58:10Z</time>
      </trkpt>
      <trkpt lat="48.99261" lon="4.68459">
        <ele>190</ele>
        <time>2018-03-30T07:59:10Z</time>
      </trkpt>
      <trkpt lat="48.99266" lon="4.68476">
        <ele>190</ele>
        <time>2018-03-30T08:00:10Z</time>
      </trkpt>
      <trkpt lat="48.99275" lon="4.68506">
        <ele>189</ele>
        <time>2018-03-30T08:01:10Z</time>
      </trkpt>
      <trkpt lat="48.99287" lon="4.68546">
        <ele>190</ele>
        <time>2018-03-30T08:02:10Z</time>
      </trkpt>
      <trkpt lat="48.99292" lon="4.68564">
        <ele>190</ele>
        <time>2018-03-30T08:03:10Z</time>
      </trkpt>
      <trkpt lat="48.99297" lon="4.68582">
        <ele>190</ele>
        <time>2018-03-30T08:04:10Z</time>
      </trkpt>
      <trkpt lat="48.99303" lon="4.686">
        <ele>190</ele>
        <time>2018-03-30T08:05:10Z</time>
      </trkpt>
      <trkpt lat="48.99312" lon="4.68627">
        <ele>189</ele>
        <time>2018-03-30T08:06:10Z</time>
      </trkpt>
      <trkpt lat="48.99325" lon="4.68663">
        <ele>189</ele>
        <time>2018-03-30T08:07:10Z</time>
      </trkpt>
      <trkpt lat="48.9934" lon="4.68701">
        <ele>189</ele>
        <time>2018-03-30T08:08:10Z</time>
      </trkpt>
      <trkpt lat="48.99346" lon="4.68718">
        <ele>189</ele>
        <time>2018-03-30T08:09:10Z</time>
      </trkpt>
      <trkpt lat="48.99353" lon="4.68735">
        <ele>189</ele>
        <time>2018-03-30T08:10:10Z</time>
      </trkpt>
      <trkpt lat="48.99359" lon="4.68749">
        <ele>189</ele>
        <time>2018-03-30T08:11:10Z</time>
      </trkpt>
      <trkpt lat="48.99367" lon="4.68767">
        <ele>188</ele>
        <time>2018-03-30T08:12:10Z</time>
      </trkpt>
      <trkpt lat="48.99374" lon="4.68784">
        <ele>188</ele>
        <time>2018-03-30T08:13:10Z</time>
      </trkpt>
      <trkpt lat="48.99395" lon="4.68832">
        <ele>188</ele>
        <time>2018-03-30T08:14:10Z</time>
      </trkpt>
      <trkpt lat="48.99405" lon="4.68855">
        <ele>188</ele>
        <time>2018-03-30T08:15:10Z</time>
      </trkpt>
      <trkpt lat="48.99416" lon="4.6888">
        <ele>189</ele>
        <time>2018-03-30T08:16:10Z</time>
      </trkpt>
      <trkpt lat="48.99431" lon="4.68918">
        <ele>190</ele>
        <time>2018-03-30T08:17:10Z</time>
      </trkpt>
      <trkpt lat="48.99443" lon="4.68946">
        <ele>189</ele>
        <time>2018-03-30T08:18:10Z</time>
      </trkpt>
      <trkpt lat="48.9945" lon="4.68962">
        <ele>189</ele>
        <time>2018-03-30T08:19:10Z</time>
      </trkpt>
      <trkpt lat="48.99456" lon="4.68979">
        <ele>189</ele>
        <time>2018-03-30T08:20:10Z</time>
      </trkpt>
      <trkpt lat="48.99462" lon="4.68995">
        <ele>188</ele>
        <time>2018-03-30T08:21:10Z</time>
      </trkpt>
      <trkpt lat="48.99468" lon="4.69012">
        <ele>188</ele>
        <time>2018-03-30T08:22:10Z</time>
      </trkpt>
      <trkpt lat="48.99474" lon="4.6903">
        <ele>188</ele>
        <time>2018-03-30T08:23:10Z</time>
      </trkpt>
      <trkpt lat="48.99479" lon="4.69047">
        <ele>187</ele>
        <time>2018-03-30T08:24:10Z</time>
      </trkpt>
      <trkpt lat="48.99484" lon="4.69064">
        <ele>187</ele>
        <time>2018-03-30T08:25:10Z</time>
      </trkpt>
      <trkpt lat="48.9949" lon="4.69089">
        <ele>187</ele>
        <time>2018-03-30T08:26:10Z</time>
      </trkpt>
      <trkpt lat="48.99493" lon="4.691">
        <ele>187</ele>
        <time>2018-03-30T08:27:10Z</time>
      </trkpt>
      <trkpt lat="48.99496" lon="4.69119">
        <ele>187</ele>
        <time>2018-03-30T08:28:10Z</time>
      </trkpt>
      <trkpt lat="48.99501" lon="4.69156">
        <ele>188</ele>
        <time>2018-03-30T08:29:10Z</time>
      </trkpt>
      <trkpt lat="48.99506" lon="4.69208">
        <ele>188</ele>
        <time>2018-03-30T08:30:10Z</time>
      </trkpt>
      <trkpt lat="48.9951" lon="4.69256">
        <ele>188</ele>
        <time>2018-03-30T08:31:10Z</time>
      </trkpt>
      <trkpt lat="48.99514" lon="4.69327">
        <ele>187</ele>
        <time>2018-03-30T08:32:10Z</time>
      </trkpt>
      <trkpt lat="48.99519" lon="4.6942">
        <ele>188</ele>
        <time>2018-03-30T08:33:10Z</time>
      </trkpt>
      <trkpt lat="48.99521" lon="4.6947">
        <ele>188</ele>
        <time>2018-03-30T08:34:10Z</time>
      </trkpt>
      <trkpt lat="48.99522" lon="4.69498">
        <ele>188</ele>
        <time>2018-03-30T08:35:10Z</time>
      </trkpt>
      <trkpt lat="48.99523" lon="4.69534">
        <ele>189</ele>
        <time>2018-03-30T08:36:10Z</time>
      </trkpt>
      <trkpt lat="48.99523" lon="4.69573">
        <ele>189</ele>
        <time>2018-03-30T08:37:10Z</time>
      </trkpt>
      <trkpt lat="48.99524" lon="4.69634">
        <ele>190</ele>
        <time>2018-03-30T08:38:10Z</time>
      </trkpt>
      <trkpt lat="48.99525" lon="4.69692">
        <ele>190</ele>
        <time>2018-03-30T08:39:10Z</time>
      </trkpt>
      <trkpt lat="48.99525" lon="4.69745">
        <ele>189</ele>
        <time>2018-03-30T08:40:10Z</time>
      </trkpt>
      <trkpt lat="48.99524" lon="4.69817">
        <ele>188</ele>
        <time>2018-03-30T08:41:10Z</time>
      </trkpt>
      <trkpt lat="48.99521" lon="4.69914">
        <ele>188</ele>
        <time>2018-03-30T08:42:10Z</time>
      </trkpt>
      <trkpt lat="48.99519" lon="4.70009">
        <ele>188</ele>
        <time>2018-03-30T08:43:10Z</time>
      </trkpt>
      <trkpt lat="48.99517" lon="4.7008">
        <ele>188</ele>
        <time>2018-03-30T08:44:10Z</time>
      </trkpt>
      <trkpt lat="48.99514" lon="4.70161">
        <ele>188</ele>
        <time>2018-03-30T08:45:10Z</time>
      </trkpt>
      <trkpt lat="48.99513" lon="4.70231">
        <ele>187</ele>
        <time>2018-03-30T08:46:10Z</time>
      </trkpt>
      <trkpt lat="48.99511" lon="4.703">
        <ele>189</ele>
        <time>2018-03-30T08:47:10Z</time>
      </trkpt>
      <trkpt lat="48.9951" lon="4.70353">
        <ele>189</ele>
        <time>2018-03-30T08:48:10Z</time>
      </trkpt>
      <trkpt lat="48.9951" lon="4.70378">
        <ele>189</ele>
        <time>2018-03-30T08:49:10Z</time>
      </trkpt>
      <trkpt lat="48.9951" lon="4.70421">
        <ele>189</ele>
        <time>2018-03-30T08:50:10Z</time>
      </trkpt>
      <trkpt lat="48.99511" lon="4.70465">
        <ele>190</ele>
        <time>2018-03-30T08:51:10Z</time>
      </trkpt>
      <trkpt lat="48.99512" lon="4.70517">
        <ele>190</ele>
        <time>2018-03-30T08:52:10Z</time>
      </trkpt>
      <trkpt lat="48.99514" lon="4.70581">
        <ele>191</ele>
        <time>2018-03-30T08:53:10Z</time>
      </trkpt>
      <trkpt lat="48.99516" lon="4.70652">
        <ele>192</ele>
        <time>2018-03-30T08:54:10Z</time>
      </trkpt>
      <trkpt lat="48.99517" lon="4.70708">
        <ele>192</ele>
        <time>2018-03-30T08:55:10Z</time>
      </trkpt>
      <trkpt lat="48.99517" lon="4.70748">
        <ele>192</ele>
        <time>2018-03-30T08:56:10Z</time>
      </trkpt>
      <trkpt lat="48.99517" lon="4.70784">
        <ele>192</ele>
        <time>2018-03-30T08:57:10Z</time>
      </trkpt>
      <trkpt lat="48.99516" lon="4.70817">
        <ele>191</ele>
        <time>2018-03-30T08:58:10Z</time>
      </trkpt>
      <trkpt lat="48.99515" lon="4.70859">
        <ele>191</ele>
        <time>2018-03-30T08:59:10Z</time>
      </trkpt>
      <trkpt lat="48.99514" lon="4.70897">
        <ele>191</ele>
        <time>2018-03-30T09:00:10Z</time>
      </trkpt>
      <trkpt lat="48.99514" lon="4.70929">
        <ele>191</ele>
        <time>2018-03-30T09:01:10Z</time>
      </trkpt>
      <trkpt lat="48.99515" lon="4.70953">
        <ele>190</ele>
        <time>2018-03-30T09:02:10Z</time>
      </trkpt>
      <trkpt lat="48.99517" lon="4.70979">
        <ele>189</ele>
        <time>2018-03-30T09:03:10Z</time>
      </trkpt>
      <trkpt lat="48.99521" lon="4.71022">
        <ele>189</ele>
        <time>2018-03-30T09:04:10Z</time>
      </trkpt>
      <trkpt lat="48.99529" lon="4.71089">
        <ele>188</ele>
        <time>2018-03-30T09:05:10Z</time>
      </trkpt>
      <trkpt lat="48.99536" lon="4.71145">
        <ele>188</ele>
        <time>2018-03-30T09:06:10Z</time>
      </trkpt>
      <trkpt lat="48.99542" lon="4.71193">
        <ele>189</ele>
        <time>2018-03-30T09:07:10Z</time>
      </trkpt>
      <trkpt lat="48.99547" lon="4.71234">
        <ele>189</ele>
        <time>2018-03-30T09:08:10Z</time>
      </trkpt>
      <trkpt lat="48.99549" lon="4.71255">
        <ele>189</ele>
        <time>2018-03-30T09:09:10Z</time>
      </trkpt>
      <trkpt lat="48.9955" lon="4.71268">
        <ele>189</ele>
        <time>2018-03-30T09:10:10Z</time>
      </trkpt>
      <trkpt lat="48.99552" lon="4.71285">
        <ele>189</ele>
        <time>2018-03-30T09:11:10Z</time>
      </trkpt>
      <trkpt lat="48.99552" lon="4.71297">
        <ele>189</ele>
        <time>2018-03-30T09:12:10Z</time>
      </trkpt>
      <trkpt lat="48.99552" lon="4.71319">
        <ele>188</ele>
        <time>2018-03-30T09:13:10Z</time>
      </trkpt>
      <trkpt lat="48.99551" lon="4.71341">
        <ele>188</ele>
        <time>2018-03-30T09:14:10Z</time>
      </trkpt>
      <trkpt lat="48.99549" lon="4.7137">
        <ele>188</ele>
        <time>2018-03-30T09:15:10Z</time>
      </trkpt>
      <trkpt lat="48.99547" lon="4.714">
        <ele>187</ele>
        <time>2018-03-30T09:16:10Z</time>
      </trkpt>
      <trkpt lat="48.99544" lon="4.71429">
        <ele>187</ele>
        <time>2018-03-30T09:17:10Z</time>
      </trkpt>
      <trkpt lat="48.9954" lon="4.71462">
        <ele>186</ele>
        <time>2018-03-30T09:18:10Z</time>
      </trkpt>
      <trkpt lat="48.99535" lon="4.71505">
        <ele>186</ele>
        <time>2018-03-30T09:19:10Z</time>
      </trkpt>
      <trkpt lat="48.99529" lon="4.71538">
        <ele>185</ele>
        <time>2018-03-30T09:20:10Z</time>
      </trkpt>
      <trkpt lat="48.99524" lon="4.7157">
        <ele>184</ele>
        <time>2018-03-30T09:21:10Z</time>
      </trkpt>
      <trkpt lat="48.99519" lon="4.71603">
        <ele>183</ele>
        <time>2018-03-30T09:22:10Z</time>
      </trkpt>
      <trkpt lat="48.99517" lon="4.71619">
        <ele>182</ele>
        <time>2018-03-30T09:23:10Z</time>
      </trkpt>
      <trkpt lat="48.99514" lon="4.71636">
        <ele>181</ele>
        <time>2018-03-30T09:24:10Z</time>
      </trkpt>
      <trkpt lat="48.99512" lon="4.71654">
        <ele>180</ele>
        <time>2018-03-30T09:25:10Z</time>
      </trkpt>
      <trkpt lat="48.99511" lon="4.71668">
        <ele>180</ele>
        <time>2018-03-30T09:26:10Z</time>
      </trkpt>
      <trkpt lat="48.99511" lon="4.71693">
        <ele>179</ele>
        <time>2018-03-30T09:27:10Z</time>
      </trkpt>
      <trkpt lat="48.99511" lon="4.71709">
        <ele>179</ele>
        <time>2018-03-30T09:28:10Z</time>
      </trkpt>
      <trkpt lat="48.99511" lon="4.7172">
        <ele>179</ele>
        <time>2018-03-30T09:29:10Z</time>
      </trkpt>
      <trkpt lat="48.99513" lon="4.7175">
        <ele>178</ele>
        <time>2018-03-30T09:30:10Z</time>
      </trkpt>
      <trkpt lat="48.99515" lon="4.71773">
        <ele>178</ele>
        <time>2018-03-30T09:31:10Z</time>
      </trkpt>
      <trkpt lat="48.99517" lon="4.71794">
        <ele>177</ele>
        <time>2018-03-30T09:32:10Z</time>
      </trkpt>
      <trkpt lat="48.99526" lon="4.71886">
        <ele>175</ele>
        <time>2018-03-30T09:33:10Z</time>
      </trkpt>
      <trkpt lat="48.99535" lon="4.71981">
        <ele>173</ele>
        <time>2018-03-30T09:34:10Z</time>
      </trkpt>
      <trkpt lat="48.99539" lon="4.72019">
        <ele>173</ele>
        <time>2018-03-30T09:35:10Z</time>
      </trkpt>
      <trkpt lat="48.9954" lon="4.72028">
        <ele>173</ele>
        <time>2018-03-30T09:36:10Z</time>
      </trkpt>
      <trkpt lat="48.99543" lon="4.72056">
        <ele>172</ele>
        <time>2018-03-30T09:37:10Z</time>
      </trkpt>
      <trkpt lat="48.99547" lon="4.7209">
        <ele>172</ele>
        <time>2018-03-30T09:38:10Z</time>
      </trkpt>
      <trkpt lat="48.99556" lon="4.7215">
        <ele>171</ele>
        <time>2018-03-30T09:39:10Z</time>
      </trkpt>
      <trkpt lat="48.99564" lon="4.72199">
        <ele>170</ele>
        <time>2018-03-30T09:40:10Z</time>
      </trkpt>
      <trkpt lat="48.9957" lon="4.72237">
        <ele>169</ele>
        <time>2018-03-30T09:41:10Z</time>
      </trkpt>
      <trkpt lat="48.99574" lon="4.72258">
        <ele>169</ele>
        <time>2018-03-30T09:42:10Z</time>
      </trkpt>
      <trkpt lat="48.99578" lon="4.72278">
        <ele>168</ele>
        <time>2018-03-30T09:43:10Z</time>
      </trkpt>
      <trkpt lat="48.99582" lon="4.72294">
        <ele>168</ele>
        <time>2018-03-30T09:44:10Z</time>
      </trkpt>
      <trkpt lat="48.99591" lon="4.72321">
        <ele>169</ele>
        <time>2018-03-30T09:45:10Z</time>
      </trkpt>
      <trkpt lat="48.996" lon="4.72346">
        <ele>169</ele>
        <time>2018-03-30T09:46:10Z</time>
      </trkpt>
      <trkpt lat="48.99608" lon="4.72363">
        <ele>169</ele>
        <time>2018-03-30T09:47:10Z</time>
      </trkpt>
      <trkpt lat="48.99622" lon="4.724">
        <ele>168</ele>
        <time>2018-03-30T09:48:10Z</time>
      </trkpt>
      <trkpt lat="48.9964" lon="4.72443">
        <ele>168</ele>
        <time>2018-03-30T09:49:10Z</time>
      </trkpt>
      <trkpt lat="48.9966" lon="4.72493">
        <ele>168</ele>
        <time>2018-03-30T09:50:10Z</time>
      </trkpt>
      <trkpt lat="48.9968" lon="4.72542">
        <ele>169</ele>
        <time>2018-03-30T09:51:10Z</time>
      </trkpt>
      <trkpt lat="48.99683" lon="4.72547">
        <ele>169</ele>
        <time>2018-03-30T09:52:10Z</time>
      </trkpt>
      <trkpt lat="48.99697" lon="4.72583">
        <ele>170</ele>
        <time>2018-03-30T09:53:10Z</time>
      </trkpt>
      <trkpt lat="48.99712" lon="4.72621">
        <ele>170</ele>
        <time>2018-03-30T09:54:10Z</time>
      </trkpt>
      <trkpt lat="48.99723" lon="4.72649">
        <ele>170</ele>
        <time>2018-03-30T09:55:10Z</time>
      </trkpt>
      <trkpt lat="48.99732" lon="4.72674">
        <ele>170</ele>
        <time>2018-03-30T09:56:10Z</time>
      </trkpt>
      <trkpt lat="48.99747" lon="4.72717">
        <ele>170</ele>
        <time>2018-03-30T09:57:10Z</time>
      </trkpt>
      <trkpt lat="48.99759" lon="4.7275">
        <ele>169</ele>
        <time>2018-03-30T09:58:10Z</time>
      </trkpt>
      <trkpt lat="48.99767" lon="4.7277">
        <ele>170</ele>
        <time>2018-03-30T09:59:10Z</time>
      </trkpt>
      <trkpt lat="48.99772" lon="4.72784">
        <ele>170</ele>
        <time>2018-03-30T10:00:10Z</time>
      </trkpt>
      <trkpt lat="48.99781" lon="4.7281">
        <ele>170</ele>
        <time>2018-03-30T10:01:10Z</time>
      </trkpt>
      <trkpt lat="48.99789" lon="4.72834">
        <ele>170</ele>
        <time>2018-03-30T10:02:10Z</time>
      </trkpt>
      <trkpt lat="48.99794" lon="4.72851">
        <ele>170</ele>
        <time>2018-03-30T10:03:10Z</time>
      </trkpt>
      <trkpt lat="48.99796" lon="4.72855">
        <ele>170</ele>
        <time>2018-03-30T10:04:10Z</time>
      </trkpt>
      <trkpt lat="48.99803" lon="4.72878">
        <ele>169</ele>
        <time>2018-03-30T10:05:10Z</time>
      </trkpt>
      <trkpt lat="48.9981" lon="4.72902">
        <ele>169</ele>
        <time>2018-03-30T10:06:10Z</time>
      </trkpt>
      <trkpt lat="48.99819" lon="4.72935">
        <ele>168</ele>
        <time>2018-03-30T10:07:10Z</time>
      </trkpt>
      <trkpt lat="48.99827" lon="4.72962">
        <ele>168</ele>
        <time>2018-03-30T10:08:10Z</time>
      </trkpt>
      <trkpt lat="48.99835" lon="4.72992">
        <ele>168</ele>
        <time>2018-03-30T10:09:10Z</time>
      </trkpt>
      <trkpt lat="48.99843" lon="4.73022">
        <ele>168</ele>
        <time>2018-03-30T10:10:10Z</time>
      </trkpt>
      <trkpt lat="48.9985" lon="4.73049">
        <ele>168</ele>
        <time>2018-03-30T10:11:10Z</time>
      </trkpt>
      <trkpt lat="48.99858" lon="4.73083">
        <ele>169</ele>
        <time>2018-03-30T10:12:10Z</time>
      </trkpt>
      <trkpt lat="48.99864" lon="4.73108">
        <ele>168</ele>
        <time>2018-03-30T10:13:10Z</time>
      </trkpt>
      <trkpt lat="48.99869" lon="4.73129">
        <ele>168</ele>
        <time>2018-03-30T10:14:10Z</time>
      </trkpt>
      <trkpt lat="48.99873" lon="4.7315">
        <ele>168</ele>
        <time>2018-03-30T10:15:10Z</time>
      </trkpt>
      <trkpt lat="48.99878" lon="4.73172">
        <ele>168</ele>
        <time>2018-03-30T10:16:10Z</time>
      </trkpt>
      <trkpt lat="48.99883" lon="4.73194">
        <ele>168</ele>
        <time>2018-03-30T10:17:10Z</time>
      </trkpt>
      <trkpt lat="48.99885" lon="4.73209">
        <ele>168</ele>
        <time>2018-03-30T10:18:10Z</time>
      </trkpt>
      <trkpt lat="48.99889" lon="4.73231">
        <ele>167</ele>
        <time>2018-03-30T10:19:10Z</time>
      </trkpt>
      <trkpt lat="48.99893" lon="4.73254">
        <ele>167</ele>
        <time>2018-03-30T10:20:10Z</time>
      </trkpt>
      <trkpt lat="48.99896" lon="4.73279">
        <ele>166</ele>
        <time>2018-03-30T10:21:10Z</time>
      </trkpt>
      <trkpt lat="48.99905" lon="4.7334">
        <ele>164</ele>
        <time>2018-03-30T10:22:10Z</time>
      </trkpt>
      <trkpt lat="48.99912" lon="4.73386">
        <ele>165</ele>
        <time>2018-03-30T10:23:10Z</time>
      </trkpt>
      <trkpt lat="48.99919" lon="4.7344">
        <ele>165</ele>
        <time>2018-03-30T10:24:10Z</time>
      </trkpt>
      <trkpt lat="48.99924" lon="4.73474">
        <ele>165</ele>
        <time>2018-03-30T10:25:10Z</time>
      </trkpt>
      <trkpt lat="48.99926" lon="4.73494">
        <ele>164</ele>
        <time>2018-03-30T10:26:10Z</time>
      </trkpt>
      <trkpt lat="48.99927" lon="4.73505">
        <ele>164</ele>
        <time>2018-03-30T10:27:10Z</time>
      </trkpt>
      <trkpt lat="48.99927" lon="4.73521">
        <ele>164</ele>
        <time>2018-03-30T10:28:10Z</time>
      </trkpt>
      <trkpt lat="48.99927" lon="4.73525">
        <ele>164</ele>
        <time>2018-03-30T10:29:10Z</time>
      </trkpt>
      <trkpt lat="48.99927" lon="4.73533">
        <ele>164</ele>
        <time>2018-03-30T10:30:10Z</time>
      </trkpt>
      <trkpt lat="48.99927" lon="4.73545">
        <ele>164</ele>
        <time>2018-03-30T10:31:10Z</time>
      </trkpt>
      <trkpt lat="48.99926" lon="4.73556">
        <ele>164</ele>
        <time>2018-03-30T10:32:10Z</time>
      </trkpt>
      <trkpt lat="48.99924" lon="4.73569">
        <ele>164</ele>
        <time>2018-03-30T10:33:10Z</time>
      </trkpt>
      <trkpt lat="48.99922" lon="4.7358">
        <ele>164</ele>
        <time>2018-03-30T10:34:10Z</time>
      </trkpt>
      <trkpt lat="48.9992" lon="4.7359">
        <ele>164</ele>
        <time>2018-03-30T10:35:10Z</time>
      </trkpt>
      <trkpt lat="48.99917" lon="4.73602">
        <ele>165</ele>
        <time>2018-03-30T10:36:10Z</time>
      </trkpt>
      <trkpt lat="48.99914" lon="4.73612">
        <ele>165</ele>
        <time>2018-03-30T10:37:10Z</time>
      </trkpt>
      <trkpt lat="48.99911" lon="4.73621">
        <ele>165</ele>
        <time>2018-03-30T10:38:10Z</time>
      </trkpt>
      <trkpt lat="48.99906" lon="4.73632">
        <ele>166</ele>
        <time>2018-03-30T10:39:10Z</time>
      </trkpt>
      <trkpt lat="48.99902" lon="4.73641">
        <ele>166</ele>
        <time>2018-03-30T10:40:10Z</time>
      </trkpt>
      <trkpt lat="48.99896" lon="4.73648">
        <ele>166</ele>
        <time>2018-03-30T10:41:10Z</time>
      </trkpt>
      <trkpt lat="48.9989" lon="4.73655">
        <ele>166</ele>
        <time>2018-03-30T10:42:10Z</time>
      </trkpt>
      <trkpt lat="48.99884" lon="4.7366">
        <ele>166</ele>
        <time>2018-03-30T10:43:10Z</time>
      </trkpt>
      <trkpt lat="48.99877" lon="4.73664">
        <ele>166</ele>
        <time>2018-03-30T10:44:10Z</time>
      </trkpt>
      <trkpt lat="48.99861" lon="4.73668">
        <ele>165</ele>
        <time>2018-03-30T10:45:10Z</time>
      </trkpt>
      <trkpt lat="48.99812" lon="4.73679">
        <ele>165</ele>
        <time>2018-03-30T10:46:10Z</time>
      </trkpt>
      <trkpt lat="48.99782" lon="4.73685">
        <ele>166</ele>
        <time>2018-03-30T10:47:10Z</time>
      </trkpt>
      <trkpt lat="48.9976" lon="4.73689">
        <ele>167</ele>
        <time>2018-03-30T10:48:10Z</time>
      </trkpt>
      <trkpt lat="48.9976" lon="4.73689">
        <ele>167</ele>
        <time>2018-03-30T10:49:10Z</time>
      </trkpt>
      <trkpt lat="48.99748" lon="4.73692">
        <ele>167</ele>
        <time>2018-03-30T10:50:10Z</time>
      </trkpt>
      <trkpt lat="48.99732" lon="4.73697">
        <ele>168</ele>
        <time>2018-03-30T10:51:10Z</time>
      </trkpt>
      <trkpt lat="48.99712" lon="4.73701">
        <ele>168</ele>
        <time>2018-03-30T10:52:10Z</time>
      </trkpt>
      <trkpt lat="48.99678" lon="4.73707">
        <ele>169</ele>
        <time>2018-03-30T10:53:10Z</time>
      </trkpt>
      <trkpt lat="48.99657" lon="4.7371">
        <ele>170</ele>
        <time>2018-03-30T10:54:10Z</time>
      </trkpt>
      <trkpt lat="48.99626" lon="4.73714">
        <ele>170</ele>
        <time>2018-03-30T10:55:10Z</time>
      </trkpt>
      <trkpt lat="48.99595" lon="4.73719">
        <ele>171</ele>
        <time>2018-03-30T10:56:10Z</time>
      </trkpt>
      <trkpt lat="48.99583" lon="4.73721">
        <ele>171</ele>
        <time>2018-03-30T10:57:10Z</time>
      </trkpt>
      <trkpt lat="48.99575" lon="4.73724">
        <ele>171</ele>
        <time>2018-03-30T10:58:10Z</time>
      </trkpt>
      <trkpt lat="48.99568" lon="4.73726">
        <ele>171</ele>
        <time>2018-03-30T10:59:10Z</time>
      </trkpt>
      <trkpt lat="48.9956" lon="4.7373">
        <ele>171</ele>
        <time>2018-03-30T11:00:10Z</time>
      </trkpt>
      <trkpt lat="48.99553" lon="4.73734">
        <ele>171</ele>
        <time>2018-03-30T11:01:10Z</time>
      </trkpt>
      <trkpt lat="48.99545" lon="4.73739">
        <ele>172</ele>
        <time>2018-03-30T11:02:10Z</time>
      </trkpt>
      <trkpt lat="48.99536" lon="4.73745">
        <ele>172</ele>
        <time>2018-03-30T11:03:10Z</time>
      </trkpt>
      <trkpt lat="48.99531" lon="4.73749">
        <ele>172</ele>
        <time>2018-03-30T11:04:10Z</time>
      </trkpt>
      <trkpt lat="48.99522" lon="4.73758">
        <ele>172</ele>
        <time>2018-03-30T11:05:10Z</time>
      </trkpt>
      <trkpt lat="48.99497" lon="4.73782">
        <ele>172</ele>
        <time>2018-03-30T11:06:10Z</time>
      </trkpt>
      <trkpt lat="48.99464" lon="4.73816">
        <ele>173</ele>
        <time>2018-03-30T11:07:10Z</time>
      </trkpt>
      <trkpt lat="48.99433" lon="4.73848">
        <ele>174</ele>
        <time>2018-03-30T11:08:10Z</time>
      </trkpt>
      <trkpt lat="48.99407" lon="4.73875">
        <ele>174</ele>
        <time>2018-03-30T11:09:10Z</time>
      </trkpt>
      <trkpt lat="48.99389" lon="4.73895">
        <ele>174</ele>
        <time>2018-03-30T11:10:10Z</time>
      </trkpt>
      <trkpt lat="48.9937" lon="4.73914">
        <ele>174</ele>
        <time>2018-03-30T11:11:10Z</time>
      </trkpt>
      <trkpt lat="48.99347" lon="4.73938">
        <ele>174</ele>
        <time>2018-03-30T11:12:10Z</time>
      </trkpt>
      <trkpt lat="48.9933" lon="4.73955">
        <ele>174</ele>
        <time>2018-03-30T11:13:10Z</time>
      </trkpt>
      <trkpt lat="48.99318" lon="4.73969">
        <ele>174</ele>
        <time>2018-03-30T11:14:10Z</time>
      </trkpt>
      <trkpt lat="48.99301" lon="4.73992">
        <ele>174</ele>
        <time>2018-03-30T11:15:10Z</time>
      </trkpt>
      <trkpt lat="48.9929" lon="4.74009">
        <ele>174</ele>
        <time>2018-03-30T11:16:10Z</time>
      </trkpt>
      <trkpt lat="48.99283" lon="4.74021">
        <ele>174</ele>
        <time>2018-03-30T11:17:10Z</time>
      </trkpt>
      <trkpt lat="48.99275" lon="4.74035">
        <ele>175</ele>
        <time>2018-03-30T11:18:10Z</time>
      </trkpt>
      <trkpt lat="48.99265" lon="4.74054">
        <ele>176</ele>
        <time>2018-03-30T11:19:10Z</time>
      </trkpt>
      <trkpt lat="48.99248" lon="4.74094">
        <ele>177</ele>
        <time>2018-03-30T11:20:10Z</time>
      </trkpt>
      <trkpt lat="48.99219" lon="4.7416">
        <ele>181</ele>
        <time>2018-03-30T11:21:10Z</time>
      </trkpt>
      <trkpt lat="48.99189" lon="4.7423">
        <ele>181</ele>
        <time>2018-03-30T11:22:10Z</time>
      </trkpt>
      <trkpt lat="48.99151" lon="4.74313">
        <ele>178</ele>
        <time>2018-03-30T11:23:10Z</time>
      </trkpt>
      <trkpt lat="48.99105" lon="4.74419">
        <ele>177</ele>
        <time>2018-03-30T11:24:10Z</time>
      </trkpt>
      <trkpt lat="48.99068" lon="4.74506">
        <ele>179</ele>
        <time>2018-03-30T11:25:10Z</time>
      </trkpt>
      <trkpt lat="48.99042" lon="4.74566">
        <ele>181</ele>
        <time>2018-03-30T11:26:10Z</time>
      </trkpt>
      <trkpt lat="48.99007" lon="4.74643">
        <ele>185</ele>
        <time>2018-03-30T11:27:10Z</time>
      </trkpt>
      <trkpt lat="48.98996" lon="4.74664">
        <ele>186</ele>
        <time>2018-03-30T11:28:10Z</time>
      </trkpt>
      <trkpt lat="48.98986" lon="4.74683">
        <ele>186</ele>
        <time>2018-03-30T11:29:10Z</time>
      </trkpt>
      <trkpt lat="48.98975" lon="4.747">
        <ele>185</ele>
        <time>2018-03-30T11:30:10Z</time>
      </trkpt>
      <trkpt lat="48.98964" lon="4.74718">
        <ele>185</ele>
        <time>2018-03-30T11:31:10Z</time>
      </trkpt>
      <trkpt lat="48.98952" lon="4.74736">
        <ele>185</ele>
        <time>2018-03-30T11:32:10Z</time>
      </trkpt>
      <trkpt lat="48.98934" lon="4.74759">
        <ele>185</ele>
        <time>2018-03-30T11:33:10Z</time>
      </trkpt>
      <trkpt lat="48.989" lon="4.74799">
        <ele>184</ele>
        <time>2018-03-30T11:34:10Z</time>
      </trkpt>
      <trkpt lat="48.98833" lon="4.74879">
        <ele>181</ele>
        <time>2018-03-30T11:35:10Z</time>
      </trkpt>
      <trkpt lat="48.98775" lon="4.74952">
        <ele>176</ele>
        <time>2018-03-30T11:36:10Z</time>
      </trkpt>
      <trkpt lat="48.98765" lon="4.74965">
        <ele>176</ele>
        <time>2018-03-30T11:37:10Z</time>
      </trkpt>
      <trkpt lat="48.98753" lon="4.74983">
        <ele>175</ele>
        <time>2018-03-30T11:38:10Z</time>
      </trkpt>
      <trkpt lat="48.98743" lon="4.75001">
        <ele>175</ele>
        <time>2018-03-30T11:39:10Z</time>
      </trkpt>
      <trkpt lat="48.98736" lon="4.75013">
        <ele>175</ele>
        <time>2018-03-30T11:40:10Z</time>
      </trkpt>
      <trkpt lat="48.98729" lon="4.75027">
        <ele>174</ele>
        <time>2018-03-30T11:41:10Z</time>
      </trkpt>
      <trkpt lat="48.98724" lon="4.75037">
        <ele>174</ele>
        <time>2018-03-30T11:42:10Z</time>
      </trkpt>
      <trkpt lat="48.98718" lon="4.75049">
        <ele>174</ele>
        <time>2018-03-30T11:43:10Z</time>
      </trkpt>
      <trkpt lat="48.98714" lon="4.75063">
        <ele>174</ele>
        <time>2018-03-30T11:44:10Z</time>
      </trkpt>
      <trkpt lat="48.98709" lon="4.75075">
        <ele>174</ele>
        <time>2018-03-30T11:45:10Z</time>
      </trkpt>
      <trkpt lat="48.98705" lon="4.75091">
        <ele>174</ele>
        <time>2018-03-30T11:46:10Z</time>
      </trkpt>
      <trkpt lat="48.98701" lon="4.75107">
        <ele>174</ele>
        <time>2018-03-30T11:47:10Z</time>
      </trkpt>
      <trkpt lat="48.98697" lon="4.75125">
        <ele>175</ele>
        <time>2018-03-30T11:48:10Z</time>
      </trkpt>
      <trkpt lat="48.9869" lon="4.75161">
        <ele>176</ele>
        <time>2018-03-30T11:49:10Z</time>
      </trkpt>
      <trkpt lat="48.9868" lon="4.75214">
        <ele>177</ele>
        <time>2018-03-30T11:50:10Z</time>
      </trkpt>
      <trkpt lat="48.98677" lon="4.75233">
        <ele>178</ele>
        <time>2018-03-30T11:51:10Z</time>
      </trkpt>
      <trkpt lat="48.98673" lon="4.75257">
        <ele>179</ele>
        <time>2018-03-30T11:52:10Z</time>
      </trkpt>
      <trkpt lat="48.98667" lon="4.75281">
        <ele>180</ele>
        <time>2018-03-30T11:53:10Z</time>
      </trkpt>
      <trkpt lat="48.98661" lon="4.75307">
        <ele>181</ele>
        <time>2018-03-30T11:54:10Z</time>
      </trkpt>
      <trkpt lat="48.98655" lon="4.7533">
        <ele>181</ele>
        <time>2018-03-30T11:55:10Z</time>
      </trkpt>
      <trkpt lat="48.98652" lon="4.75339">
        <ele>181</ele>
        <time>2018-03-30T11:56:10Z</time>
      </trkpt>
      <trkpt lat="48.98649" lon="4.75348">
        <ele>181</ele>
        <time>2018-03-30T11:57:10Z</time>
      </trkpt>
      <trkpt lat="48.98645" lon="4.75359">
        <ele>181</ele>
        <time>2018-03-30T11:58:10Z</time>
      </trkpt>
      <trkpt lat="48.98641" lon="4.75367">
        <ele>181</ele>
        <time>2018-03-30T11:59:10Z</time>
      </trkpt>
      <trkpt lat="48.98628" lon="4.75391">
        <ele>181</ele>
        <time>2018-03-30T12:00:10Z</time>
      </trkpt>
      <trkpt lat="48.98612" lon="4.75419">
        <ele>180</ele>
        <time>2018-03-30T12:01:10Z</time>
      </trkpt>
      <trkpt lat="48.98593" lon="4.75449">
        <ele>179</ele>
        <time>2018-03-30T12:02:10Z</time>
      </trkpt>
      <trkpt lat="48.98558" lon="4.75502">
        <ele>176</ele>
        <time>2018-03-30T12:03:10Z</time>
      </trkpt>
      <trkpt lat="48.98532" lon="4.75539">
        <ele>173</ele>
        <time>2018-03-30T12:04:10Z</time>
      </trkpt>
      <trkpt lat="48.98501" lon="4.75584">
        <ele>170</ele>
        <time>2018-03-30T12:05:10Z</time>
      </trkpt>
      <trkpt lat="48.98467" lon="4.75631">
        <ele>168</ele>
        <time>2018-03-30T12:06:10Z</time>
      </trkpt>
      <trkpt lat="48.98461" lon="4.75639">
        <ele>167</ele>
        <time>2018-03-30T12:07:10Z</time>
      </trkpt>
      <trkpt lat="48.98439" lon="4.75672">
        <ele>166</ele>
        <time>2018-03-30T12:08:10Z</time>
      </trkpt>
      <trkpt lat="48.98421" lon="4.75699">
        <ele>165</ele>
        <time>2018-03-30T12:09:10Z</time>
      </trkpt>
      <trkpt lat="48.98406" lon="4.75723">
        <ele>165</ele>
        <time>2018-03-30T12:10:10Z</time>
      </trkpt>
      <trkpt lat="48.98386" lon="4.75756">
        <ele>165</ele>
        <time>2018-03-30T12:11:10Z</time>
      </trkpt>
      <trkpt lat="48.98369" lon="4.75785">
        <ele>166</ele>
        <time>2018-03-30T12:12:10Z</time>
      </trkpt>
      <trkpt lat="48.98361" lon="4.75801">
        <ele>166</ele>
        <time>2018-03-30T12:13:10Z</time>
      </trkpt>
      <trkpt lat="48.98349" lon="4.75819">
        <ele>167</ele>
        <time>2018-03-30T12:14:10Z</time>
      </trkpt>
      <trkpt lat="48.98323" lon="4.75866">
        <ele>169</ele>
        <time>2018-03-30T12:15:10Z</time>
      </trkpt>
      <trkpt lat="48.98264" lon="4.75968">
        <ele>174</ele>
        <time>2018-03-30T12:16:10Z</time>
      </trkpt>
      <trkpt lat="48.98197" lon="4.76086">
        <ele>180</ele>
        <time>2018-03-30T12:17:10Z</time>
      </trkpt>
      <trkpt lat="48.98165" lon="4.76143">
        <ele>182</ele>
        <time>2018-03-30T12:18:10Z</time>
      </trkpt>
      <trkpt lat="48.98152" lon="4.76168">
        <ele>183</ele>
        <time>2018-03-30T12:19:10Z</time>
      </trkpt>
      <trkpt lat="48.9814" lon="4.76194">
        <ele>184</ele>
        <time>2018-03-30T12:20:10Z</time>
      </trkpt>
      <trkpt lat="48.98125" lon="4.76227">
        <ele>185</ele>
        <time>2018-03-30T12:21:10Z</time>
      </trkpt>
      <trkpt lat="48.98105" lon="4.76272">
        <ele>187</ele>
        <time>2018-03-30T12:22:10Z</time>
      </trkpt>
      <trkpt lat="48.9809" lon="4.76307">
        <ele>188</ele>
        <time>2018-03-30T12:23:10Z</time>
      </trkpt>
      <trkpt lat="48.98074" lon="4.76343">
        <ele>189</ele>
        <time>2018-03-30T12:24:10Z</time>
      </trkpt>
      <trkpt lat="48.98061" lon="4.76374">
        <ele>189</ele>
        <time>2018-03-30T12:25:10Z</time>
      </trkpt>
      <trkpt lat="48.98053" lon="4.7639">
        <ele>189</ele>
        <time>2018-03-30T12:26:10Z</time>
      </trkpt>
      <trkpt lat="48.98042" lon="4.76412">
        <ele>189</ele>
        <time>2018-03-30T12:27:10Z</time>
      </trkpt>
      <trkpt lat="48.98027" lon="4.76442">
        <ele>190</ele>
        <time>2018-03-30T12:28:10Z</time>
      </trkpt>
      <trkpt lat="48.98014" lon="4.76465">
        <ele>190</ele>
        <time>2018-03-30T12:29:10Z</time>
      </trkpt>
      <trkpt lat="48.97995" lon="4.76498">
        <ele>190</ele>
        <time>2018-03-30T12:30:10Z</time>
      </trkpt>
      <trkpt lat="48.97948" lon="4.76575">
        <ele>192</ele>
        <time>2018-03-30T12:31:10Z</time>
      </trkpt>
      <trkpt lat="48.97903" lon="4.76649">
        <ele>195</ele>
        <time>2018-03-30T12:32:10Z</time>
      </trkpt>
      <trkpt lat="48.9782" lon="4.76774">
        <ele>201</ele>
        <time>2018-03-30T12:33:10Z</time>
      </trkpt>
      <trkpt lat="48.97796" lon="4.76813">
        <ele>201</ele>
        <time>2018-03-30T12:34:10Z</time>
      </trkpt>
      <trkpt lat="48.97763" lon="4.76881">
        <ele>201</ele>
        <time>2018-03-30T12:35:10Z</time>
      </trkpt>
      <trkpt lat="48.9769" lon="4.77034">
        <ele>201</ele>
        <time>2018-03-30T12:36:10Z</time>
      </trkpt>
      <trkpt lat="48.97669" lon="4.77081">
        <ele>202</ele>
        <time>2018-03-30T12:37:10Z</time>
      </trkpt>
      <trkpt lat="48.97663" lon="4.77095">
        <ele>202</ele>
        <time>2018-03-30T12:38:10Z</time>
      </trkpt>
      <trkpt lat="48.97656" lon="4.77112">
        <ele>201</ele>
        <time>2018-03-30T12:39:10Z</time>
      </trkpt>
      <trkpt lat="48.97641" lon="4.77152">
        <ele>200</ele>
        <time>2018-03-30T12:40:10Z</time>
      </trkpt>
      <trkpt lat="48.97629" lon="4.77185">
        <ele>199</ele>
        <time>2018-03-30T12:41:10Z</time>
      </trkpt>
      <trkpt lat="48.97622" lon="4.77206">
        <ele>199</ele>
        <time>2018-03-30T12:42:10Z</time>
      </trkpt>
      <trkpt lat="48.97618" lon="4.7722">
        <ele>199</ele>
        <time>2018-03-30T12:43:10Z</time>
      </trkpt>
      <trkpt lat="48.97614" lon="4.77234">
        <ele>198</ele>
        <time>2018-03-30T12:44:10Z</time>
      </trkpt>
      <trkpt lat="48.97612" lon="4.77247">
        <ele>198</ele>
        <time>2018-03-30T12:45:10Z</time>
      </trkpt>
      <trkpt lat="48.9761" lon="4.7726">
        <ele>198</ele>
        <time>2018-03-30T12:46:10Z</time>
      </trkpt>
      <trkpt lat="48.97608" lon="4.77273">
        <ele>197</ele>
        <time>2018-03-30T12:47:10Z</time>
      </trkpt>
      <trkpt lat="48.97607" lon="4.77286">
        <ele>197</ele>
        <time>2018-03-30T12:48:10Z</time>
      </trkpt>
      <trkpt lat="48.97606" lon="4.773">
        <ele>197</ele>
        <time>2018-03-30T12:49:10Z</time>
      </trkpt>
      <trkpt lat="48.97606" lon="4.77313">
        <ele>196</ele>
        <time>2018-03-30T12:50:10Z</time>
      </trkpt>
      <trkpt lat="48.97606" lon="4.77327">
        <ele>196</ele>
        <time>2018-03-30T12:51:10Z</time>
      </trkpt>
      <trkpt lat="48.97604" lon="4.77376">
        <ele>194</ele>
        <time>2018-03-30T12:52:10Z</time>
      </trkpt>
      <trkpt lat="48.97604" lon="4.77414">
        <ele>193</ele>
        <time>2018-03-30T12:53:10Z</time>
      </trkpt>
      <trkpt lat="48.97605" lon="4.77466">
        <ele>191</ele>
        <time>2018-03-30T12:54:10Z</time>
      </trkpt>
      <trkpt lat="48.97604" lon="4.77533">
        <ele>189</ele>
        <time>2018-03-30T12:55:10Z</time>
      </trkpt>
      <trkpt lat="48.97603" lon="4.77617">
        <ele>187</ele>
        <time>2018-03-30T12:56:10Z</time>
      </trkpt>
      <trkpt lat="48.97603" lon="4.77683">
        <ele>185</ele>
        <time>2018-03-30T12:57:10Z</time>
      </trkpt>
      <trkpt lat="48.97603" lon="4.77748">
        <ele>183</ele>
        <time>2018-03-30T12:58:10Z</time>
      </trkpt>
      <trkpt lat="48.97602" lon="4.77795">
        <ele>183</ele>
        <time>2018-03-30T12:59:10Z</time>
      </trkpt>
      <trkpt lat="48.97602" lon="4.77829">
        <ele>182</ele>
        <time>2018-03-30T13:00:10Z</time>
      </trkpt>
      <trkpt lat="48.97603" lon="4.77859">
        <ele>181</ele>
        <time>2018-03-30T13:01:10Z</time>
      </trkpt>
      <trkpt lat="48.97604" lon="4.77877">
        <ele>180</ele>
        <time>2018-03-30T13:02:10Z</time>
      </trkpt>
      <trkpt lat="48.97604" lon="4.77884">
        <ele>180</ele>
        <time>2018-03-30T13:03:10Z</time>
      </trkpt>
      <trkpt lat="48.97605" lon="4.77893">
        <ele>180</ele>
        <time>2018-03-30T13:04:10Z</time>
      </trkpt>
      <trkpt lat="48.97607" lon="4.77905">
        <ele>179</ele>
        <time>2018-03-30T13:05:10Z</time>
      </trkpt>
      <trkpt lat="48.97609" lon="4.77917">
        <ele>179</ele>
        <time>2018-03-30T13:06:10Z</time>
      </trkpt>
      <trkpt lat="48.97613" lon="4.77937">
        <ele>178</ele>
        <time>2018-03-30T13:07:10Z</time>
      </trkpt>
      <trkpt lat="48.9762" lon="4.77979">
        <ele>177</ele>
        <time>2018-03-30T13:08:10Z</time>
      </trkpt>
      <trkpt lat="48.97636" lon="4.78055">
        <ele>175</ele>
        <time>2018-03-30T13:09:10Z</time>
      </trkpt>
      <trkpt lat="48.97641" lon="4.78079">
        <ele>175</ele>
        <time>2018-03-30T13:10:10Z</time>
      </trkpt>
      <trkpt lat="48.97651" lon="4.7813">
        <ele>172</ele>
        <time>2018-03-30T13:11:10Z</time>
      </trkpt>
      <trkpt lat="48.97666" lon="4.78198">
        <ele>169</ele>
        <time>2018-03-30T13:12:10Z</time>
      </trkpt>
      <trkpt lat="48.97674" lon="4.7824">
        <ele>167</ele>
        <time>2018-03-30T13:13:10Z</time>
      </trkpt>
      <trkpt lat="48.97678" lon="4.78261">
        <ele>166</ele>
        <time>2018-03-30T13:14:10Z</time>
      </trkpt>
      <trkpt lat="48.97681" lon="4.78283">
        <ele>166</ele>
        <time>2018-03-30T13:15:10Z</time>
      </trkpt>
      <trkpt lat="48.97681" lon="4.78283">
        <ele>166</ele>
        <time>2018-03-30T13:16:10Z</time>
      </trkpt>
      <trkpt lat="48.97672" lon="4.78291">
        <ele>166</ele>
        <time>2018-03-30T13:17:10Z</time>
      </trkpt>
      <trkpt lat="48.97667" lon="4.78298">
        <ele>166</ele>
        <time>2018-03-30T13:18:10Z</time>
      </trkpt>
      <trkpt lat="48.9766" lon="4.78307">
        <ele>165</ele>
        <time>2018-03-30T13:19:10Z</time>
      </trkpt>
      <trkpt lat="48.97656" lon="4.78313">
        <ele>165</ele>
        <time>2018-03-30T13:20:10Z</time>
      </trkpt>
      <trkpt lat="48.97652" lon="4.7832">
        <ele>164</ele>
        <time>2018-03-30T13:21:10Z</time>
      </trkpt>
      <trkpt lat="48.9765" lon="4.78326">
        <ele>164</ele>
        <time>2018-03-30T13:22:10Z</time>
      </trkpt>
      <trkpt lat="48.97647" lon="4.78342">
        <ele>163</ele>
        <time>2018-03-30T13:23:10Z</time>
      </trkpt>
      <trkpt lat="48.97641" lon="4.78368">
        <ele>162</ele>
        <time>2018-03-30T13:24:10Z</time>
      </trkpt>
      <trkpt lat="48.97638" lon="4.78384">
        <ele>161</ele>
        <time>2018-03-30T13:25:10Z</time>
      </trkpt>
      <trkpt lat="48.97634" lon="4.78405">
        <ele>160</ele>
        <time>2018-03-30T13:26:10Z</time>
      </trkpt>
      <trkpt lat="48.97629" lon="4.78429">
        <ele>159</ele>
        <time>2018-03-30T13:27:10Z</time>
      </trkpt>
      <trkpt lat="48.97628" lon="4.78433">
        <ele>159</ele>
        <time>2018-03-30T13:28:10Z</time>
      </trkpt>
      <trkpt lat="48.97627" lon="4.78439">
        <ele>159</ele>
        <time>2018-03-30T13:29:10Z</time>
      </trkpt>
      <trkpt lat="48.97623" lon="4.78453">
        <ele>159</ele>
        <time>2018-03-30T13:30:10Z</time>
      </trkpt>
      <trkpt lat="48.97622" lon="4.78461">
        <ele>159</ele>
        <time>2018-03-30T13:31:10Z</time>
      </trkpt>
      <trkpt lat="48.97619" lon="4.78475">
        <ele>158</ele>
        <time>2018-03-30T13:32:10Z</time>
      </trkpt>
      <trkpt lat="48.97608" lon="4.78525">
        <ele>158</ele>
        <time>2018-03-30T13:33:10Z</time>
      </trkpt>
      <trkpt lat="48.97606" lon="4.78538">
        <ele>158</ele>
        <time>2018-03-30T13:34:10Z</time>
      </trkpt>
      <trkpt lat="48.97598" lon="4.78568">
        <ele>158</ele>
        <time>2018-03-30T13:35:10Z</time>
      </trkpt>
      <trkpt lat="48.97593" lon="4.78586">
        <ele>158</ele>
        <time>2018-03-30T13:36:10Z</time>
      </trkpt>
      <trkpt lat="48.97589" lon="4.78602">
        <ele>158</ele>
        <time>2018-03-30T13:37:10Z</time>
      </trkpt>
      <trkpt lat="48.97583" lon="4.78621">
        <ele>158</ele>
        <time>2018-03-30T13:38:10Z</time>
      </trkpt>
      <trkpt lat="48.97581" lon="4.78628">
        <ele>159</ele>
        <time>2018-03-30T13:39:10Z</time>
      </trkpt>
      <trkpt lat="48.97578" lon="4.78634">
        <ele>159</ele>
        <time>2018-03-30T13:40:10Z</time>
      </trkpt>
      <trkpt lat="48.97573" lon="4.7865">
        <ele>159</ele>
        <time>2018-03-30T13:41:10Z</time>
      </trkpt>
      <trkpt lat="48.97569" lon="4.78661">
        <ele>159</ele>
        <time>2018-03-30T13:42:10Z</time>
      </trkpt>
      <trkpt lat="48.97564" lon="4.78671">
        <ele>159</ele>
        <time>2018-03-30T13:43:10Z</time>
      </trkpt>
      <trkpt lat="48.9756" lon="4.7868">
        <ele>159</ele>
        <time>2018-03-30T13:44:10Z</time>
      </trkpt>
      <trkpt lat="48.97554" lon="4.78694">
        <ele>159</ele>
        <time>2018-03-30T13:45:10Z</time>
      </trkpt>
      <trkpt lat="48.97546" lon="4.78709">
        <ele>159</ele>
        <time>2018-03-30T13:46:10Z</time>
      </trkpt>
      <trkpt lat="48.97538" lon="4.78722">
        <ele>160</ele>
        <time>2018-03-30T13:47:10Z</time>
      </trkpt>
      <trkpt lat="48.9753" lon="4.78735">
        <ele>160</ele>
        <time>2018-03-30T13:48:10Z</time>
      </trkpt>
      <trkpt lat="48.97522" lon="4.78748">
        <ele>160</ele>
        <time>2018-03-30T13:49:10Z</time>
      </trkpt>
      <trkpt lat="48.97513" lon="4.78761">
        <ele>160</ele>
        <time>2018-03-30T13:50:10Z</time>
      </trkpt>
      <trkpt lat="48.97501" lon="4.78778">
        <ele>160</ele>
        <time>2018-03-30T13:51:10Z</time>
      </trkpt>
      <trkpt lat="48.97486" lon="4.78799">
        <ele>161</ele>
        <time>2018-03-30T13:52:10Z</time>
      </trkpt>
      <trkpt lat="48.97477" lon="4.78811">
        <ele>162</ele>
        <time>2018-03-30T13:53:10Z</time>
      </trkpt>
      <trkpt lat="48.97463" lon="4.78831">
        <ele>162</ele>
        <time>2018-03-30T13:54:10Z</time>
      </trkpt>
      <trkpt lat="48.97449" lon="4.78852">
        <ele>163</ele>
        <time>2018-03-30T13:55:10Z</time>
      </trkpt>
      <trkpt lat="48.97437" lon="4.78871">
        <ele>163</ele>
        <time>2018-03-30T13:56:10Z</time>
      </trkpt>
      <trkpt lat="48.97431" lon="4.7888">
        <ele>163</ele>
        <time>2018-03-30T13:57:10Z</time>
      </trkpt>
      <trkpt lat="48.97426" lon="4.78886">
        <ele>163</ele>
        <time>2018-03-30T13:58:10Z</time>
      </trkpt>
      <trkpt lat="48.97398" lon="4.78927">
        <ele>165</ele>
        <time>2018-03-30T13:59:10Z</time>
      </trkpt>
      <trkpt lat="48.97371" lon="4.78967">
        <ele>166</ele>
        <time>2018-03-30T14:00:10Z</time>
      </trkpt>
      <trkpt lat="48.97342" lon="4.79008">
        <ele>167</ele>
        <time>2018-03-30T14:01:10Z</time>
      </trkpt>
      <trkpt lat="48.97313" lon="4.7905">
        <ele>170</ele>
        <time>2018-03-30T14:02:10Z</time>
      </trkpt>
      <trkpt lat="48.97274" lon="4.79106">
        <ele>173</ele>
        <time>2018-03-30T14:03:10Z</time>
      </trkpt>
      <trkpt lat="48.97242" lon="4.79153">
        <ele>175</ele>
        <time>2018-03-30T14:04:10Z</time>
      </trkpt>
      <trkpt lat="48.97214" lon="4.79193">
        <ele>178</ele>
        <time>2018-03-30T14:05:10Z</time>
      </trkpt>
      <trkpt lat="48.97183" lon="4.79237">
        <ele>181</ele>
        <time>2018-03-30T14:06:10Z</time>
      </trkpt>
      <trkpt lat="48.97154" lon="4.7928">
        <ele>184</ele>
        <time>2018-03-30T14:07:10Z</time>
      </trkpt>
      <trkpt lat="48.97117" lon="4.79334">
        <ele>187</ele>
        <time>2018-03-30T14:08:10Z</time>
      </trkpt>
      <trkpt lat="48.97082" lon="4.79385">
        <ele>190</ele>
        <time>2018-03-30T14:09:10Z</time>
      </trkpt>
      <trkpt lat="48.97054" lon="4.79426">
        <ele>192</ele>
        <time>2018-03-30T14:10:10Z</time>
      </trkpt>
      <trkpt lat="48.97031" lon="4.7946">
        <ele>192</ele>
        <time>2018-03-30T14:11:10Z</time>
      </trkpt>
      <trkpt lat="48.96998" lon="4.79507">
        <ele>193</ele>
        <time>2018-03-30T14:12:10Z</time>
      </trkpt>
      <trkpt lat="48.96975" lon="4.79542">
        <ele>194</ele>
        <time>2018-03-30T14:13:10Z</time>
      </trkpt>
      <trkpt lat="48.9696" lon="4.79564">
        <ele>195</ele>
        <time>2018-03-30T14:14:10Z</time>
      </trkpt>
      <trkpt lat="48.96945" lon="4.79585">
        <ele>195</ele>
        <time>2018-03-30T14:15:10Z</time>
      </trkpt>
      <trkpt lat="48.96938" lon="4.79596">
        <ele>195</ele>
        <time>2018-03-30T14:16:10Z</time>
      </trkpt>
      <trkpt lat="48.96933" lon="4.79602">
        <ele>195</ele>
        <time>2018-03-30T14:17:10Z</time>
      </trkpt>
      <trkpt lat="48.9693" lon="4.79606">
        <ele>195</ele>
        <time>2018-03-30T14:18:10Z</time>
      </trkpt>
      <trkpt lat="48.96925" lon="4.79613">
        <ele>194</ele>
        <time>2018-03-30T14:19:10Z</time>
      </trkpt>
      <trkpt lat="48.96923" lon="4.79616">
        <ele>194</ele>
        <time>2018-03-30T14:20:10Z</time>
      </trkpt>
      <trkpt lat="48.96915" lon="4.79625">
        <ele>194</ele>
        <time>2018-03-30T14:21:10Z</time>
      </trkpt>
      <trkpt lat="48.96906" lon="4.79634">
        <ele>194</ele>
        <time>2018-03-30T14:22:10Z</time>
      </trkpt>
      <trkpt lat="48.96898" lon="4.79642">
        <ele>194</ele>
        <time>2018-03-30T14:23:10Z</time>
      </trkpt>
      <trkpt lat="48.9689" lon="4.79651">
        <ele>194</ele>
        <time>2018-03-30T14:24:10Z</time>
      </trkpt>
      <trkpt lat="48.96881" lon="4.79659">
        <ele>193</ele>
        <time>2018-03-30T14:25:10Z</time>
      </trkpt>
      <trkpt lat="48.96867" lon="4.79672">
        <ele>194</ele>
        <time>2018-03-30T14:26:10Z</time>
      </trkpt>
      <trkpt lat="48.96845" lon="4.79692">
        <ele>194</ele>
        <time>2018-03-30T14:27:10Z</time>
      </trkpt>
      <trkpt lat="48.96819" lon="4.79716">
        <ele>194</ele>
        <time>2018-03-30T14:28:10Z</time>
      </trkpt>
      <trkpt lat="48.96789" lon="4.79742">
        <ele>196</ele>
        <time>2018-03-30T14:29:10Z</time>
      </trkpt>
      <trkpt lat="48.96759" lon="4.79769">
        <ele>198</ele>
        <time>2018-03-30T14:30:10Z</time>
      </trkpt>
      <trkpt lat="48.9673" lon="4.79796">
        <ele>199</ele>
        <time>2018-03-30T14:31:10Z</time>
      </trkpt>
      <trkpt lat="48.96697" lon="4.79825">
        <ele>200</ele>
        <time>2018-03-30T14:32:10Z</time>
      </trkpt>
      <trkpt lat="48.96656" lon="4.79864">
        <ele>202</ele>
        <time>2018-03-30T14:33:10Z</time>
      </trkpt>
      <trkpt lat="48.96619" lon="4.79897">
        <ele>205</ele>
        <time>2018-03-30T14:34:10Z</time>
      </trkpt>
      <trkpt lat="48.96586" lon="4.79927">
        <ele>207</ele>
        <time>2018-03-30T14:35:10Z</time>
      </trkpt>
      <trkpt lat="48.9656" lon="4.79951">
        <ele>209</ele>
        <time>2018-03-30T14:36:10Z</time>
      </trkpt>
      <trkpt lat="48.96533" lon="4.79977">
        <ele>211</ele>
        <time>2018-03-30T14:37:10Z</time>
      </trkpt>
      <trkpt lat="48.96523" lon="4.79986">
        <ele>211</ele>
        <time>2018-03-30T14:38:10Z</time>
      </trkpt>
      <trkpt lat="48.96517" lon="4.79993">
        <ele>211</ele>
        <time>2018-03-30T14:39:10Z</time>
      </trkpt>
      <trkpt lat="48.96504" lon="4.80005">
        <ele>212</ele>
        <time>2018-03-30T14:40:10Z</time>
      </trkpt>
      <trkpt lat="48.96504" lon="4.80005">
        <ele>212</ele>
        <time>2018-03-30T14:41:10Z</time>
      </trkpt>
      <trkpt lat="48.96504" lon="4.80016">
        <ele>212</ele>
        <time>2018-03-30T14:42:10Z</time>
      </trkpt>
      <trkpt lat="48.96503" lon="4.80032">
        <ele>212</ele>
        <time>2018-03-30T14:43:10Z</time>
      </trkpt>
      <trkpt lat="48.96503" lon="4.8004">
        <ele>211</ele>
        <time>2018-03-30T14:44:10Z</time>
      </trkpt>
      <trkpt lat="48.96503" lon="4.80052">
        <ele>211</ele>
        <time>2018-03-30T14:45:10Z</time>
      </trkpt>
      <trkpt lat="48.96504" lon="4.80066">
        <ele>211</ele>
        <time>2018-03-30T14:46:10Z</time>
      </trkpt>
      <trkpt lat="48.96506" lon="4.80077">
        <ele>211</ele>
        <time>2018-03-30T14:47:10Z</time>
      </trkpt>
      <trkpt lat="48.96508" lon="4.80088">
        <ele>211</ele>
        <time>2018-03-30T14:48:10Z</time>
      </trkpt>
      <trkpt lat="48.96515" lon="4.80128">
        <ele>209</ele>
        <time>2018-03-30T14:49:10Z</time>
      </trkpt>
      <trkpt lat="48.9653" lon="4.8021">
        <ele>206</ele>
        <time>2018-03-30T14:50:10Z</time>
      </trkpt>
      <trkpt lat="48.96551" lon="4.80311">
        <ele>200</ele>
        <time>2018-03-30T14:51:10Z</time>
      </trkpt>
      <trkpt lat="48.96563" lon="4.80366">
        <ele>197</ele>
        <time>2018-03-30T14:52:10Z</time>
      </trkpt>
      <trkpt lat="48.9658" lon="4.80448">
        <ele>192</ele>
        <time>2018-03-30T14:53:10Z</time>
      </trkpt>
      <trkpt lat="48.96598" lon="4.80532">
        <ele>189</ele>
        <time>2018-03-30T14:54:10Z</time>
      </trkpt>
      <trkpt lat="48.96611" lon="4.80598">
        <ele>186</ele>
        <time>2018-03-30T14:55:10Z</time>
      </trkpt>
      <trkpt lat="48.96618" lon="4.80633">
        <ele>185</ele>
        <time>2018-03-30T14:56:10Z</time>
      </trkpt>
      <trkpt lat="48.9662" lon="4.80652">
        <ele>184</ele>
        <time>2018-03-30T14:57:10Z</time>
      </trkpt>
      <trkpt lat="48.96623" lon="4.80672">
        <ele>183</ele>
        <time>2018-03-30T14:58:10Z</time>
      </trkpt>
      <trkpt lat="48.96625" lon="4.80691">
        <ele>182</ele>
        <time>2018-03-30T14:59:10Z</time>
      </trkpt>
      <trkpt lat="48.96627" lon="4.8071">
        <ele>182</ele>
        <time>2018-03-30T15:00:10Z</time>
      </trkpt>
      <trkpt lat="48.96628" lon="4.8073">
        <ele>182</ele>
        <time>2018-03-30T15:01:10Z</time>
      </trkpt>
      <trkpt lat="48.96628" lon="4.8075">
        <ele>181</ele>
        <time>2018-03-30T15:02:10Z</time>
      </trkpt>
      <trkpt lat="48.96629" lon="4.80771">
        <ele>181</ele>
        <time>2018-03-30T15:03:10Z</time>
      </trkpt>
      <trkpt lat="48.96629" lon="4.80791">
        <ele>181</ele>
        <time>2018-03-30T15:04:10Z</time>
      </trkpt>
      <trkpt lat="48.96629" lon="4.80811">
        <ele>181</ele>
        <time>2018-03-30T15:05:10Z</time>
      </trkpt>
      <trkpt lat="48.96629" lon="4.80831">
        <ele>181</ele>
        <time>2018-03-30T15:06:10Z</time>
      </trkpt>
      <trkpt lat="48.96628" lon="4.80851">
        <ele>181</ele>
        <time>2018-03-30T15:07:10Z</time>
      </trkpt>
      <trkpt lat="48.96628" lon="4.80871">
        <ele>181</ele>
        <time>2018-03-30T15:08:10Z</time>
      </trkpt>
      <trkpt lat="48.96628" lon="4.80892">
        <ele>180</ele>
        <time>2018-03-30T15:09:10Z</time>
      </trkpt>
      <trkpt lat="48.96628" lon="4.80912">
        <ele>180</ele>
        <time>2018-03-30T15:10:10Z</time>
      </trkpt>
      <trkpt lat="48.96628" lon="4.80933">
        <ele>180</ele>
        <time>2018-03-30T15:11:10Z</time>
      </trkpt>
      <trkpt lat="48.96628" lon="4.80953">
        <ele>180</ele>
        <time>2018-03-30T15:12:10Z</time>
      </trkpt>
      <trkpt lat="48.96629" lon="4.80974">
        <ele>180</ele>
        <time>2018-03-30T15:13:10Z</time>
      </trkpt>
      <trkpt lat="48.96629" lon="4.80994">
        <ele>179</ele>
        <time>2018-03-30T15:14:10Z</time>
      </trkpt>
      <trkpt lat="48.9663" lon="4.81015">
        <ele>179</ele>
        <time>2018-03-30T15:15:10Z</time>
      </trkpt>
      <trkpt lat="48.96631" lon="4.81036">
        <ele>179</ele>
        <time>2018-03-30T15:16:10Z</time>
      </trkpt>
      <trkpt lat="48.96632" lon="4.81056">
        <ele>179</ele>
        <time>2018-03-30T15:17:10Z</time>
      </trkpt>
      <trkpt lat="48.96634" lon="4.81077">
        <ele>179</ele>
        <time>2018-03-30T15:18:10Z</time>
      </trkpt>
      <trkpt lat="48.96636" lon="4.81104">
        <ele>179</ele>
        <time>2018-03-30T15:19:10Z</time>
      </trkpt>
      <trkpt lat="48.96642" lon="4.81158">
        <ele>179</ele>
        <time>2018-03-30T15:20:10Z</time>
      </trkpt>
      <trkpt lat="48.96647" lon="4.81195">
        <ele>178</ele>
        <time>2018-03-30T15:21:10Z</time>
      </trkpt>
      <trkpt lat="48.96654" lon="4.81237">
        <ele>177</ele>
        <time>2018-03-30T15:22:10Z</time>
      </trkpt>
      <trkpt lat="48.96663" lon="4.81288">
        <ele>177</ele>
        <time>2018-03-30T15:23:10Z</time>
      </trkpt>
      <trkpt lat="48.96669" lon="4.81316">
        <ele>176</ele>
        <time>2018-03-30T15:24:10Z</time>
      </trkpt>
      <trkpt lat="48.96677" lon="4.81348">
        <ele>176</ele>
        <time>2018-03-30T15:25:10Z</time>
      </trkpt>
      <trkpt lat="48.96692" lon="4.81408">
        <ele>177</ele>
        <time>2018-03-30T15:26:10Z</time>
      </trkpt>
      <trkpt lat="48.96708" lon="4.81477">
        <ele>179</ele>
        <time>2018-03-30T15:27:10Z</time>
      </trkpt>
      <trkpt lat="48.96718" lon="4.81519">
        <ele>179</ele>
        <time>2018-03-30T15:28:10Z</time>
      </trkpt>
      <trkpt lat="48.96725" lon="4.81549">
        <ele>180</ele>
        <time>2018-03-30T15:29:10Z</time>
      </trkpt>
      <trkpt lat="48.96733" lon="4.81584">
        <ele>181</ele>
        <time>2018-03-30T15:30:10Z</time>
      </trkpt>
      <trkpt lat="48.96742" lon="4.81619">
        <ele>182</ele>
        <time>2018-03-30T15:31:10Z</time>
      </trkpt>
      <trkpt lat="48.96747" lon="4.81639">
        <ele>182</ele>
        <time>2018-03-30T15:32:10Z</time>
      </trkpt>
      <trkpt lat="48.96753" lon="4.81665">
        <ele>183</ele>
        <time>2018-03-30T15:33:10Z</time>
      </trkpt>
      <trkpt lat="48.9676" lon="4.81689">
        <ele>182</ele>
        <time>2018-03-30T15:34:10Z</time>
      </trkpt>
      <trkpt lat="48.9677" lon="4.81723">
        <ele>182</ele>
        <time>2018-03-30T15:35:10Z</time>
      </trkpt>
      <trkpt lat="48.96781" lon="4.81756">
        <ele>182</ele>
        <time>2018-03-30T15:36:10Z</time>
      </trkpt>
      <trkpt lat="48.96787" lon="4.81779">
        <ele>182</ele>
        <time>2018-03-30T15:37:10Z</time>
      </trkpt>
      <trkpt lat="48.96794" lon="4.81802">
        <ele>181</ele>
        <time>2018-03-30T15:38:10Z</time>
      </trkpt>
      <trkpt lat="48.96801" lon="4.81838">
        <ele>181</ele>
        <time>2018-03-30T15:39:10Z</time>
      </trkpt>
      <trkpt lat="48.96808" lon="4.81869">
        <ele>181</ele>
        <time>2018-03-30T15:40:10Z</time>
      </trkpt>
      <trkpt lat="48.96814" lon="4.81898">
        <ele>181</ele>
        <time>2018-03-30T15:41:10Z</time>
      </trkpt>
      <trkpt lat="48.96819" lon="4.81939">
        <ele>180</ele>
        <time>2018-03-30T15:42:10Z</time>
      </trkpt>
      <trkpt lat="48.96825" lon="4.81973">
        <ele>179</ele>
        <time>2018-03-30T15:43:10Z</time>
      </trkpt>
      <trkpt lat="48.9683" lon="4.82016">
        <ele>179</ele>
        <time>2018-03-30T15:44:10Z</time>
      </trkpt>
      <trkpt lat="48.9684" lon="4.82101">
        <ele>178</ele>
        <time>2018-03-30T15:45:10Z</time>
      </trkpt>
      <trkpt lat="48.9687" lon="4.8236">
        <ele>178</ele>
        <time>2018-03-30T15:46:10Z</time>
      </trkpt>
      <trkpt lat="48.96898" lon="4.82604">
        <ele>175</ele>
        <time>2018-03-30T15:47:10Z</time>
      </trkpt>
      <trkpt lat="48.96916" lon="4.82769">
        <ele>173</ele>
        <time>2018-03-30T15:48:10Z</time>
      </trkpt>
      <trkpt lat="48.96926" lon="4.82859">
        <ele>171</ele>
        <time>2018-03-30T15:49:10Z</time>
      </trkpt>
      <trkpt lat="48.96929" lon="4.82879">
        <ele>171</ele>
        <time>2018-03-30T15:50:10Z</time>
      </trkpt>
      <trkpt lat="48.96932" lon="4.82891">
        <ele>171</ele>
        <time>2018-03-30T15:51:10Z</time>
      </trkpt>
      <trkpt lat="48.96934" lon="4.82904">
        <ele>171</ele>
        <time>2018-03-30T15:52:10Z</time>
      </trkpt>
      <trkpt lat="48.96937" lon="4.82917">
        <ele>170</ele>
        <time>2018-03-30T15:53:10Z</time>
      </trkpt>
      <trkpt lat="48.9694" lon="4.8293">
        <ele>171</ele>
        <time>2018-03-30T15:54:10Z</time>
      </trkpt>
      <trkpt lat="48.96982" lon="4.83095">
        <ele>170</ele>
        <time>2018-03-30T15:55:10Z</time>
      </trkpt>
      <trkpt lat="48.96991" lon="4.83131">
        <ele>170</ele>
        <time>2018-03-30T15:56:10Z</time>
      </trkpt>
      <trkpt lat="48.96994" lon="4.83142">
        <ele>170</ele>
        <time>2018-03-30T15:57:10Z</time>
      </trkpt>
      <trkpt lat="48.96997" lon="4.83158">
        <ele>170</ele>
        <time>2018-03-30T15:58:10Z</time>
      </trkpt>
      <trkpt lat="48.97005" lon="4.83197">
        <ele>170</ele>
        <time>2018-03-30T15:59:10Z</time>
      </trkpt>
      <trkpt lat="48.97009" lon="4.83215">
        <ele>170</ele>
        <time>2018-03-30T16:00:10Z</time>
      </trkpt>
      <trkpt lat="48.97014" lon="4.83244">
        <ele>170</ele>
        <time>2018-03-30T16:01:10Z</time>
      </trkpt>
      <trkpt lat="48.97018" lon="4.83261">
        <ele>170</ele>
        <time>2018-03-30T16:02:10Z</time>
      </trkpt>
      <trkpt lat="48.97021" lon="4.83275">
        <ele>170</ele>
        <time>2018-03-30T16:03:10Z</time>
      </trkpt>
      <trkpt lat="48.97026" lon="4.83289">
        <ele>170</ele>
        <time>2018-03-30T16:04:10Z</time>
      </trkpt>
      <trkpt lat="48.9703" lon="4.83299">
        <ele>169</ele>
        <time>2018-03-30T16:05:10Z</time>
      </trkpt>
      <trkpt lat="48.97036" lon="4.83311">
        <ele>169</ele>
        <time>2018-03-30T16:06:10Z</time>
      </trkpt>
      <trkpt lat="48.97046" lon="4.83332">
        <ele>169</ele>
        <time>2018-03-30T16:07:10Z</time>
      </trkpt>
      <trkpt lat="48.97055" lon="4.83348">
        <ele>168</ele>
        <time>2018-03-30T16:08:10Z</time>
      </trkpt>
      <trkpt lat="48.97058" lon="4.83354">
        <ele>168</ele>
        <time>2018-03-30T16:09:10Z</time>
      </trkpt>
      <trkpt lat="48.97058" lon="4.83354">
        <ele>168</ele>
        <time>2018-03-30T16:10:10Z</time>
      </trkpt>
      <trkpt lat="48.97048" lon="4.83381">
        <ele>168</ele>
        <time>2018-03-30T16:11:10Z</time>
      </trkpt>
      <trkpt lat="48.97021" lon="4.83415">
        <ele>167</ele>
        <time>2018-03-30T16:12:10Z</time>
      </trkpt>
      <trkpt lat="48.97017" lon="4.8342">
        <ele>167</ele>
        <time>2018-03-30T16:13:10Z</time>
      </trkpt>
      <trkpt lat="48.97013" lon="4.83424">
        <ele>167</ele>
        <time>2018-03-30T16:14:10Z</time>
      </trkpt>
      <trkpt lat="48.9701" lon="4.83428">
        <ele>167</ele>
        <time>2018-03-30T16:15:10Z</time>
      </trkpt>
      <trkpt lat="48.96974" lon="4.83462">
        <ele>167</ele>
        <time>2018-03-30T16:16:10Z</time>
      </trkpt>
      <trkpt lat="48.96952" lon="4.83483">
        <ele>167</ele>
        <time>2018-03-30T16:17:10Z</time>
      </trkpt>
      <trkpt lat="48.96947" lon="4.83488">
        <ele>167</ele>
        <time>2018-03-30T16:18:10Z</time>
      </trkpt>
      <trkpt lat="48.96937" lon="4.83497">
        <ele>167</ele>
        <time>2018-03-30T16:19:10Z</time>
      </trkpt>
      <trkpt lat="48.96843" lon="4.83579">
        <ele>170</ele>
        <time>2018-03-30T16:20:10Z</time>
      </trkpt>
      <trkpt lat="48.96768" lon="4.83648">
        <ele>172</ele>
        <time>2018-03-30T16:21:10Z</time>
      </trkpt>
      <trkpt lat="48.96742" lon="4.83674">
        <ele>173</ele>
        <time>2018-03-30T16:22:10Z</time>
      </trkpt>
      <trkpt lat="48.9669" lon="4.83736">
        <ele>174</ele>
        <time>2018-03-30T16:23:10Z</time>
      </trkpt>
      <trkpt lat="48.96609" lon="4.8383">
        <ele>177</ele>
        <time>2018-03-30T16:24:10Z</time>
      </trkpt>
      <trkpt lat="48.96576" lon="4.83868">
        <ele>177</ele>
        <time>2018-03-30T16:25:10Z</time>
      </trkpt>
      <trkpt lat="48.96564" lon="4.83881">
        <ele>178</ele>
        <time>2018-03-30T16:26:10Z</time>
      </trkpt>
      <trkpt lat="48.96535" lon="4.83908">
        <ele>177</ele>
        <time>2018-03-30T16:27:10Z</time>
      </trkpt>
      <trkpt lat="48.96441" lon="4.83987">
        <ele>174</ele>
        <time>2018-03-30T16:28:10Z</time>
      </trkpt>
      <trkpt lat="48.96391" lon="4.84029">
        <ele>174</ele>
        <time>2018-03-30T16:29:10Z</time>
      </trkpt>
      <trkpt lat="48.96384" lon="4.84035">
        <ele>174</ele>
        <time>2018-03-30T16:30:10Z</time>
      </trkpt>
      <trkpt lat="48.96383" lon="4.84036">
        <ele>174</ele>
        <time>2018-03-30T16:31:10Z</time>
      </trkpt>
      <trkpt lat="48.96365" lon="4.8405">
        <ele>174</ele>
        <time>2018-03-30T16:32:10Z</time>
      </trkpt>
      <trkpt lat="48.96338" lon="4.84072">
        <ele>176</ele>
        <time>2018-03-30T16:33:10Z</time>
      </trkpt>
      <trkpt lat="48.9628" lon="4.84122">
        <ele>178</ele>
        <time>2018-03-30T16:34:10Z</time>
      </trkpt>
      <trkpt lat="48.96242" lon="4.84155">
        <ele>178</ele>
        <time>2018-03-30T16:35:10Z</time>
      </trkpt>
      <trkpt lat="48.96217" lon="4.84177">
        <ele>177</ele>
        <time>2018-03-30T16:36:10Z</time>
      </trkpt>
      <trkpt lat="48.96192" lon="4.84201">
        <ele>177</ele>
        <time>2018-03-30T16:37:10Z</time>
      </trkpt>
      <trkpt lat="48.96165" lon="4.84231">
        <ele>176</ele>
        <time>2018-03-30T16:38:10Z</time>
      </trkpt>
      <trkpt lat="48.96136" lon="4.84268">
        <ele>175</ele>
        <time>2018-03-30T16:39:10Z</time>
      </trkpt>
      <trkpt lat="48.96101" lon="4.84321">
        <ele>174</ele>
        <time>2018-03-30T16:40:10Z</time>
      </trkpt>
      <trkpt lat="48.96069" lon="4.84379">
        <ele>172</ele>
        <time>2018-03-30T16:41:10Z</time>
      </trkpt>
      <trkpt lat="48.96042" lon="4.84433">
        <ele>171</ele>
        <time>2018-03-30T16:42:10Z</time>
      </trkpt>
      <trkpt lat="48.96039" lon="4.84439">
        <ele>171</ele>
        <time>2018-03-30T16:43:10Z</time>
      </trkpt>
      <trkpt lat="48.96032" lon="4.84456">
        <ele>171</ele>
        <time>2018-03-30T16:44:10Z</time>
      </trkpt>
      <trkpt lat="48.96025" lon="4.84473">
        <ele>170</ele>
        <time>2018-03-30T16:45:10Z</time>
      </trkpt>
      <trkpt lat="48.9602" lon="4.84487">
        <ele>170</ele>
        <time>2018-03-30T16:46:10Z</time>
      </trkpt>
      <trkpt lat="48.96014" lon="4.84503">
        <ele>170</ele>
        <time>2018-03-30T16:47:10Z</time>
      </trkpt>
      <trkpt lat="48.9601" lon="4.84513">
        <ele>170</ele>
        <time>2018-03-30T16:48:10Z</time>
      </trkpt>
      <trkpt lat="48.95999" lon="4.84545">
        <ele>169</ele>
        <time>2018-03-30T16:49:10Z</time>
      </trkpt>
      <trkpt lat="48.9599" lon="4.84572">
        <ele>169</ele>
        <time>2018-03-30T16:50:10Z</time>
      </trkpt>
      <trkpt lat="48.95985" lon="4.8459">
        <ele>169</ele>
        <time>2018-03-30T16:51:10Z</time>
      </trkpt>
      <trkpt lat="48.95983" lon="4.84599">
        <ele>169</ele>
        <time>2018-03-30T16:52:10Z</time>
      </trkpt>
      <trkpt lat="48.95979" lon="4.84615">
        <ele>169</ele>
        <time>2018-03-30T16:53:10Z</time>
      </trkpt>
      <trkpt lat="48.95973" lon="4.84638">
        <ele>168</ele>
        <time>2018-03-30T16:54:10Z</time>
      </trkpt>
      <trkpt lat="48.95962" lon="4.84684">
        <ele>168</ele>
        <time>2018-03-30T16:55:10Z</time>
      </trkpt>
      <trkpt lat="48.95955" lon="4.84725">
        <ele>168</ele>
        <time>2018-03-30T16:56:10Z</time>
      </trkpt>
      <trkpt lat="48.95947" lon="4.84779">
        <ele>169</ele>
        <time>2018-03-30T16:57:10Z</time>
      </trkpt>
      <trkpt lat="48.9594" lon="4.84839">
        <ele>170</ele>
        <time>2018-03-30T16:58:10Z</time>
      </trkpt>
      <trkpt lat="48.95934" lon="4.84913">
        <ele>171</ele>
        <time>2018-03-30T16:59:10Z</time>
      </trkpt>
      <trkpt lat="48.95928" lon="4.85002">
        <ele>170</ele>
        <time>2018-03-30T17:00:10Z</time>
      </trkpt>
      <trkpt lat="48.95919" lon="4.85129">
        <ele>169</ele>
        <time>2018-03-30T17:01:10Z</time>
      </trkpt>
      <trkpt lat="48.95903" lon="4.8534">
        <ele>169</ele>
        <time>2018-03-30T17:02:10Z</time>
      </trkpt>
      <trkpt lat="48.95881" lon="4.85646">
        <ele>169</ele>
        <time>2018-03-30T17:03:10Z</time>
      </trkpt>
      <trkpt lat="48.9588" lon="4.85671">
        <ele>170</ele>
        <time>2018-03-30T17:04:10Z</time>
      </trkpt>
      <trkpt lat="48.95865" lon="4.85861">
        <ele>170</ele>
        <time>2018-03-30T17:05:10Z</time>
      </trkpt>
      <trkpt lat="48.95852" lon="4.86052">
        <ele>170</ele>
        <time>2018-03-30T17:06:10Z</time>
      </trkpt>
      <trkpt lat="48.95842" lon="4.86192">
        <ele>170</ele>
        <time>2018-03-30T17:07:10Z</time>
      </trkpt>
      <trkpt lat="48.95836" lon="4.86259">
        <ele>170</ele>
        <time>2018-03-30T17:08:10Z</time>
      </trkpt>
      <trkpt lat="48.95835" lon="4.86279">
        <ele>170</ele>
        <time>2018-03-30T17:09:10Z</time>
      </trkpt>
      <trkpt lat="48.95834" lon="4.86296">
        <ele>171</ele>
        <time>2018-03-30T17:10:10Z</time>
      </trkpt>
      <trkpt lat="48.95832" lon="4.8631">
        <ele>171</ele>
        <time>2018-03-30T17:11:10Z</time>
      </trkpt>
      <trkpt lat="48.95829" lon="4.86324">
        <ele>171</ele>
        <time>2018-03-30T17:12:10Z</time>
      </trkpt>
      <trkpt lat="48.95826" lon="4.86339">
        <ele>171</ele>
        <time>2018-03-30T17:13:10Z</time>
      </trkpt>
      <trkpt lat="48.95821" lon="4.86354">
        <ele>171</ele>
        <time>2018-03-30T17:14:10Z</time>
      </trkpt>
      <trkpt lat="48.95813" lon="4.86371">
        <ele>171</ele>
        <time>2018-03-30T17:15:10Z</time>
      </trkpt>
      <trkpt lat="48.95795" lon="4.86405">
        <ele>171</ele>
        <time>2018-03-30T17:16:10Z</time>
      </trkpt>
      <trkpt lat="48.9577" lon="4.86456">
        <ele>171</ele>
        <time>2018-03-30T17:17:10Z</time>
      </trkpt>
      <trkpt lat="48.95685" lon="4.86618">
        <ele>172</ele>
        <time>2018-03-30T17:18:10Z</time>
      </trkpt>
      <trkpt lat="48.95677" lon="4.86632">
        <ele>172</ele>
        <time>2018-03-30T17:19:10Z</time>
      </trkpt>
      <trkpt lat="48.95666" lon="4.86654">
        <ele>173</ele>
        <time>2018-03-30T17:20:10Z</time>
      </trkpt>
      <trkpt lat="48.95648" lon="4.86689">
        <ele>172</ele>
        <time>2018-03-30T17:21:10Z</time>
      </trkpt>
      <trkpt lat="48.95637" lon="4.8671">
        <ele>171</ele>
        <time>2018-03-30T17:22:10Z</time>
      </trkpt>
      <trkpt lat="48.95624" lon="4.86734">
        <ele>171</ele>
        <time>2018-03-30T17:23:10Z</time>
      </trkpt>
      <trkpt lat="48.956" lon="4.86783">
        <ele>170</ele>
        <time>2018-03-30T17:24:10Z</time>
      </trkpt>
      <trkpt lat="48.9554" lon="4.86898">
        <ele>167</ele>
        <time>2018-03-30T17:25:10Z</time>
      </trkpt>
      <trkpt lat="48.9546" lon="4.87053">
        <ele>163</ele>
        <time>2018-03-30T17:26:10Z</time>
      </trkpt>
      <trkpt lat="48.95447" lon="4.87079">
        <ele>163</ele>
        <time>2018-03-30T17:27:10Z</time>
      </trkpt>
      <trkpt lat="48.95362" lon="4.87246">
        <ele>166</ele>
        <time>2018-03-30T17:28:10Z</time>
      </trkpt>
      <trkpt lat="48.95345" lon="4.87279">
        <ele>166</ele>
        <time>2018-03-30T17:29:10Z</time>
      </trkpt>
      <trkpt lat="48.95316" lon="4.87327">
        <ele>166</ele>
        <time>2018-03-30T17:30:10Z</time>
      </trkpt>
      <trkpt lat="48.95276" lon="4.87384">
        <ele>166</ele>
        <time>2018-03-30T17:31:10Z</time>
      </trkpt>
      <trkpt lat="48.95253" lon="4.87417">
        <ele>167</ele>
        <time>2018-03-30T17:32:10Z</time>
      </trkpt>
      <trkpt lat="48.95214" lon="4.87476">
        <ele>167</ele>
        <time>2018-03-30T17:33:10Z</time>
      </trkpt>
      <trkpt lat="48.95214" lon="4.87476">
        <ele>167</ele>
        <time>2018-03-30T17:34:10Z</time>
      </trkpt>
      <trkpt lat="48.95206" lon="4.87488">
        <ele>167</ele>
        <time>2018-03-30T17:35:10Z</time>
      </trkpt>
      <trkpt lat="48.95203" lon="4.87494">
        <ele>167</ele>
        <time>2018-03-30T17:36:10Z</time>
      </trkpt>
      <trkpt lat="48.95196" lon="4.87507">
        <ele>167</ele>
        <time>2018-03-30T17:37:10Z</time>
      </trkpt>
      <trkpt lat="48.95194" lon="4.87511">
        <ele>167</ele>
        <time>2018-03-30T17:38:10Z</time>
      </trkpt>
      <trkpt lat="48.95188" lon="4.87522">
        <ele>167</ele>
        <time>2018-03-30T17:39:10Z</time>
      </trkpt>
      <trkpt lat="48.95176" lon="4.87545">
        <ele>167</ele>
        <time>2018-03-30T17:40:10Z</time>
      </trkpt>
      <trkpt lat="48.95163" lon="4.87569">
        <ele>167</ele>
        <time>2018-03-30T17:41:10Z</time>
      </trkpt>
      <trkpt lat="48.95153" lon="4.87587">
        <ele>167</ele>
        <time>2018-03-30T17:42:10Z</time>
      </trkpt>
      <trkpt lat="48.95138" lon="4.87606">
        <ele>167</ele>
        <time>2018-03-30T17:43:10Z</time>
      </trkpt>
      <trkpt lat="48.9512" lon="4.87629">
        <ele>167</ele>
        <time>2018-03-30T17:44:10Z</time>
      </trkpt>
      <trkpt lat="48.95097" lon="4.87654">
        <ele>167</ele>
        <time>2018-03-30T17:45:10Z</time>
      </trkpt>
      <trkpt lat="48.9506" lon="4.87687">
        <ele>166</ele>
        <time>2018-03-30T17:46:10Z</time>
      </trkpt>
      <trkpt lat="48.95037" lon="4.87709">
        <ele>166</ele>
        <time>2018-03-30T17:47:10Z</time>
      </trkpt>
      <trkpt lat="48.95021" lon="4.87726">
        <ele>165</ele>
        <time>2018-03-30T17:48:10Z</time>
      </trkpt>
      <trkpt lat="48.95009" lon="4.8774">
        <ele>165</ele>
        <time>2018-03-30T17:49:10Z</time>
      </trkpt>
      <trkpt lat="48.94989" lon="4.87771">
        <ele>164</ele>
        <time>2018-03-30T17:50:10Z</time>
      </trkpt>
      <trkpt lat="48.94984" lon="4.87779">
        <ele>164</ele>
        <time>2018-03-30T17:51:10Z</time>
      </trkpt>
      <trkpt lat="48.94973" lon="4.87793">
        <ele>164</ele>
        <time>2018-03-30T17:52:10Z</time>
      </trkpt>
      <trkpt lat="48.9494" lon="4.87843">
        <ele>163</ele>
        <time>2018-03-30T17:53:10Z</time>
      </trkpt>
      <trkpt lat="48.94932" lon="4.87855">
        <ele>162</ele>
        <time>2018-03-30T17:54:10Z</time>
      </trkpt>
      <trkpt lat="48.94924" lon="4.87869">
        <ele>162</ele>
        <time>2018-03-30T17:55:10Z</time>
      </trkpt>
      <trkpt lat="48.94917" lon="4.87881">
        <ele>162</ele>
        <time>2018-03-30T17:56:10Z</time>
      </trkpt>
      <trkpt lat="48.94912" lon="4.87894">
        <ele>162</ele>
        <time>2018-03-30T17:57:10Z</time>
      </trkpt>
      <trkpt lat="48.94908" lon="4.87905">
        <ele>162</ele>
        <time>2018-03-30T17:58:10Z</time>
      </trkpt>
      <trkpt lat="48.94905" lon="4.8792">
        <ele>162</ele>
        <time>2018-03-30T17:59:10Z</time>
      </trkpt>
      <trkpt lat="48.94903" lon="4.87932">
        <ele>163</ele>
        <time>2018-03-30T18:00:10Z</time>
      </trkpt>
      <trkpt lat="48.94902" lon="4.87944">
        <ele>163</ele>
        <time>2018-03-30T18:01:10Z</time>
      </trkpt>
      <trkpt lat="48.94902" lon="4.87959">
        <ele>163</ele>
        <time>2018-03-30T18:02:10Z</time>
      </trkpt>
      <trkpt lat="48.94902" lon="4.8796">
        <ele>163</ele>
        <time>2018-03-30T18:03:10Z</time>
      </trkpt>
      <trkpt lat="48.94903" lon="4.88022">
        <ele>164</ele>
        <time>2018-03-30T18:04:10Z</time>
      </trkpt>
      <trkpt lat="48.94906" lon="4.88072">
        <ele>164</ele>
        <time>2018-03-30T18:05:10Z</time>
      </trkpt>
      <trkpt lat="48.9491" lon="4.8811">
        <ele>165</ele>
        <time>2018-03-30T18:06:10Z</time>
      </trkpt>
      <trkpt lat="48.94912" lon="4.88129">
        <ele>165</ele>
        <time>2018-03-30T18:07:10Z</time>
      </trkpt>
      <trkpt lat="48.94917" lon="4.88149">
        <ele>166</ele>
        <time>2018-03-30T18:08:10Z</time>
      </trkpt>
      <trkpt lat="48.94927" lon="4.88201">
        <ele>166</ele>
        <time>2018-03-30T18:09:10Z</time>
      </trkpt>
      <trkpt lat="48.9493" lon="4.88215">
        <ele>166</ele>
        <time>2018-03-30T18:10:10Z</time>
      </trkpt>
      <trkpt lat="48.94931" lon="4.88225">
        <ele>166</ele>
        <time>2018-03-30T18:11:10Z</time>
      </trkpt>
      <trkpt lat="48.94933" lon="4.88233">
        <ele>166</ele>
        <time>2018-03-30T18:12:10Z</time>
      </trkpt>
      <trkpt lat="48.94933" lon="4.88241">
        <ele>166</ele>
        <time>2018-03-30T18:13:10Z</time>
      </trkpt>
      <trkpt lat="48.94936" lon="4.88318">
        <ele>165</ele>
        <time>2018-03-30T18:14:10Z</time>
      </trkpt>
      <trkpt lat="48.94939" lon="4.8839">
        <ele>164</ele>
        <time>2018-03-30T18:15:10Z</time>
      </trkpt>
      <trkpt lat="48.94943" lon="4.88435">
        <ele>163</ele>
        <time>2018-03-30T18:16:10Z</time>
      </trkpt>
      <trkpt lat="48.94943" lon="4.88446">
        <ele>163</ele>
        <time>2018-03-30T18:17:10Z</time>
      </trkpt>
      <trkpt lat="48.94943" lon="4.88457">
        <ele>163</ele>
        <time>2018-03-30T18:18:10Z</time>
      </trkpt>
      <trkpt lat="48.94944" lon="4.88468">
        <ele>163</ele>
        <time>2018-03-30T18:19:10Z</time>
      </trkpt>
      <trkpt lat="48.94946" lon="4.88513">
        <ele>163</ele>
        <time>2018-03-30T18:20:10Z</time>
      </trkpt>
      <trkpt lat="48.94948" lon="4.88559">
        <ele>166</ele>
        <time>2018-03-30T18:21:10Z</time>
      </trkpt>
      <trkpt lat="48.94949" lon="4.88584">
        <ele>167</ele>
        <time>2018-03-30T18:22:10Z</time>
      </trkpt>
      <trkpt lat="48.94949" lon="4.88593">
        <ele>168</ele>
        <time>2018-03-30T18:23:10Z</time>
      </trkpt>
      <trkpt lat="48.94949" lon="4.88609">
        <ele>169</ele>
        <time>2018-03-30T18:24:10Z</time>
      </trkpt>
      <trkpt lat="48.94948" lon="4.88645">
        <ele>171</ele>
        <time>2018-03-30T18:25:10Z</time>
      </trkpt>
      <trkpt lat="48.94949" lon="4.88678">
        <ele>173</ele>
        <time>2018-03-30T18:26:10Z</time>
      </trkpt>
      <trkpt lat="48.94951" lon="4.88725">
        <ele>175</ele>
        <time>2018-03-30T18:27:10Z</time>
      </trkpt>
      <trkpt lat="48.94954" lon="4.88758">
        <ele>175</ele>
        <time>2018-03-30T18:28:10Z</time>
      </trkpt>
      <trkpt lat="48.94954" lon="4.88758">
        <ele>175</ele>
        <time>2018-03-30T18:29:10Z</time>
      </trkpt>
      <trkpt lat="48.94962" lon="4.88755">
        <ele>176</ele>
        <time>2018-03-30T18:30:10Z</time>
      </trkpt>
      <trkpt lat="48.9497" lon="4.88752">
        <ele>176</ele>
        <time>2018-03-30T18:31:10Z</time>
      </trkpt>
      <trkpt lat="48.94996" lon="4.88736">
        <ele>175</ele>
        <time>2018-03-30T18:32:10Z</time>
      </trkpt>
      <trkpt lat="48.95072" lon="4.88686">
        <ele>176</ele>
        <time>2018-03-30T18:33:10Z</time>
      </trkpt>
      <trkpt lat="48.95072" lon="4.88686">
        <ele>176</ele>
        <time>2018-03-30T18:34:10Z</time>
      </trkpt>
      <trkpt lat="48.9509" lon="4.88814">
        <ele>176</ele>
        <time>2018-03-30T18:35:10Z</time>
      </trkpt>
      <trkpt lat="48.9509" lon="4.8882">
        <ele>176</ele>
        <time>2018-03-30T18:36:10Z</time>
      </trkpt>
      <trkpt lat="48.95096" lon="4.88866">
        <ele>176</ele>
        <time>2018-03-30T18:37:10Z</time>
      </trkpt>
      <trkpt lat="48.95101" lon="4.88897">
        <ele>176</ele>
        <time>2018-03-30T18:38:10Z</time>
      </trkpt>
      <trkpt lat="48.95108" lon="4.88913">
        <ele>176</ele>
        <time>2018-03-30T18:39:10Z</time>
      </trkpt>
      <trkpt lat="48.95111" lon="4.88921">
        <ele>176</ele>
        <time>2018-03-30T18:40:10Z</time>
      </trkpt>
      <trkpt lat="48.95118" lon="4.88932">
        <ele>176</ele>
        <time>2018-03-30T18:41:10Z</time>
      </trkpt>
      <trkpt lat="48.95122" lon="4.88938">
        <ele>176</ele>
        <time>2018-03-30T18:42:10Z</time>
      </trkpt>
      <trkpt lat="48.95128" lon="4.88944">
        <ele>176</ele>
        <time>2018-03-30T18:43:10Z</time>
      </trkpt>
      <trkpt lat="48.95136" lon="4.88954">
        <ele>176</ele>
        <time>2018-03-30T18:44:10Z</time>
      </trkpt>
      <trkpt lat="48.95141" lon="4.8896">
        <ele>176</ele>
        <time>2018-03-30T18:45:10Z</time>
      </trkpt>
      <trkpt lat="48.95145" lon="4.88964">
        <ele>176</ele>
        <time>2018-03-30T18:46:10Z</time>
      </trkpt>
      <trkpt lat="48.9515" lon="4.8897">
        <ele>176</ele>
        <time>2018-03-30T18:47:10Z</time>
      </trkpt>
      <trkpt lat="48.95153" lon="4.88975">
        <ele>176</ele>
        <time>2018-03-30T18:48:10Z</time>
      </trkpt>
      <trkpt lat="48.95156" lon="4.88982">
        <ele>176</ele>
        <time>2018-03-30T18:49:10Z</time>
      </trkpt>
      <trkpt lat="48.95158" lon="4.88989">
        <ele>176</ele>
        <time>2018-03-30T18:50:10Z</time>
      </trkpt>
      <trkpt lat="48.9516" lon="4.89002">
        <ele>176</ele>
        <time>2018-03-30T18:51:10Z</time>
      </trkpt>
      <trkpt lat="48.95164" lon="4.8903">
        <ele>176</ele>
        <time>2018-03-30T18:52:10Z</time>
      </trkpt>
      <trkpt lat="48.95168" lon="4.89056">
        <ele>177</ele>
        <time>2018-03-30T18:53:10Z</time>
      </trkpt>
      <trkpt lat="48.95171" lon="4.8907">
        <ele>177</ele>
        <time>2018-03-30T18:54:10Z</time>
      </trkpt>
      <trkpt lat="48.95174" lon="4.89081">
        <ele>177</ele>
        <time>2018-03-30T18:55:10Z</time>
      </trkpt>
      <trkpt lat="48.95178" lon="4.8909">
        <ele>177</ele>
        <time>2018-03-30T18:56:10Z</time>
      </trkpt>
      <trkpt lat="48.95182" lon="4.89097">
        <ele>176</ele>
        <time>2018-03-30T18:57:10Z</time>
      </trkpt>
      <trkpt lat="48.95182" lon="4.89098">
        <ele>176</ele>
        <time>2018-03-30T18:58:10Z</time>
      </trkpt>
      <trkpt lat="48.95188" lon="4.89106">
        <ele>176</ele>
        <time>2018-03-30T18:59:10Z</time>
      </trkpt>
      <trkpt lat="48.95194" lon="4.89113">
        <ele>176</ele>
        <time>2018-03-30T19:00:10Z</time>
      </trkpt>
      <trkpt lat="48.95201" lon="4.89122">
        <ele>176</ele>
        <time>2018-03-30T19:01:10Z</time>
      </trkpt>
      <trkpt lat="48.95202" lon="4.89122">
        <ele>176</ele>
        <time>2018-03-30T19:02:10Z</time>
      </trkpt>
      <trkpt lat="48.95218" lon="4.89138">
        <ele>176</ele>
        <time>2018-03-30T19:03:10Z</time>
      </trkpt>
      <trkpt lat="48.9523" lon="4.8915">
        <ele>175</ele>
        <time>2018-03-30T19:04:10Z</time>
      </trkpt>
      <trkpt lat="48.95236" lon="4.89156">
        <ele>175</ele>
        <time>2018-03-30T19:05:10Z</time>
      </trkpt>
      <trkpt lat="48.95241" lon="4.89166">
        <ele>175</ele>
        <time>2018-03-30T19:06:10Z</time>
      </trkpt>
      <trkpt lat="48.95244" lon="4.89175">
        <ele>175</ele>
        <time>2018-03-30T19:07:10Z</time>
      </trkpt>
      <trkpt lat="48.95249" lon="4.89192">
        <ele>175</ele>
        <time>2018-03-30T19:08:10Z</time>
      </trkpt>
      <trkpt lat="48.95253" lon="4.89217">
        <ele>176</ele>
        <time>2018-03-30T19:09:10Z</time>
      </trkpt>
      <trkpt lat="48.95254" lon="4.89236">
        <ele>176</ele>
        <time>2018-03-30T19:10:10Z</time>
      </trkpt>
      <trkpt lat="48.95255" lon="4.8924">
        <ele>176</ele>
        <time>2018-03-30T19:11:10Z</time>
      </trkpt>
      <trkpt lat="48.95255" lon="4.89253">
        <ele>176</ele>
        <time>2018-03-30T19:12:10Z</time>
      </trkpt>
      <trkpt lat="48.95255" lon="4.89267">
        <ele>176</ele>
        <time>2018-03-30T19:13:10Z</time>
      </trkpt>
      <trkpt lat="48.95253" lon="4.89298">
        <ele>176</ele>
        <time>2018-03-30T19:14:10Z</time>
      </trkpt>
      <trkpt lat="48.95253" lon="4.8931">
        <ele>176</ele>
        <time>2018-03-30T19:15:10Z</time>
      </trkpt>
      <trkpt lat="48.95248" lon="4.894">
        <ele>175</ele>
        <time>2018-03-30T19:16:10Z</time>
      </trkpt>
      <trkpt lat="48.95248" lon="4.89418">
        <ele>175</ele>
        <time>2018-03-30T19:17:10Z</time>
      </trkpt>
      <trkpt lat="48.95247" lon="4.89435">
        <ele>175</ele>
        <time>2018-03-30T19:18:10Z</time>
      </trkpt>
      <trkpt lat="48.95248" lon="4.89465">
        <ele>175</ele>
        <time>2018-03-30T19:19:10Z</time>
      </trkpt>
      <trkpt lat="48.95248" lon="4.89511">
        <ele>175</ele>
        <time>2018-03-30T19:20:10Z</time>
      </trkpt>
      <trkpt lat="48.95249" lon="4.89561">
        <ele>176</ele>
        <time>2018-03-30T19:21:10Z</time>
      </trkpt>
      <trkpt lat="48.95248" lon="4.89585">
        <ele>176</ele>
        <time>2018-03-30T19:22:10Z</time>
      </trkpt>
      <trkpt lat="48.95248" lon="4.89595">
        <ele>176</ele>
        <time>2018-03-30T19:23:10Z</time>
      </trkpt>
      <trkpt lat="48.95248" lon="4.89598">
        <ele>176</ele>
        <time>2018-03-30T19:24:10Z</time>
      </trkpt>
      <trkpt lat="48.95246" lon="4.89617">
        <ele>177</ele>
        <time>2018-03-30T19:25:10Z</time>
      </trkpt>
      <trkpt lat="48.95241" lon="4.89646">
        <ele>177</ele>
        <time>2018-03-30T19:26:10Z</time>
      </trkpt>
      <trkpt lat="48.95238" lon="4.89666">
        <ele>178</ele>
        <time>2018-03-30T19:27:10Z</time>
      </trkpt>
      <trkpt lat="48.95237" lon="4.89685">
        <ele>178</ele>
        <time>2018-03-30T19:28:10Z</time>
      </trkpt>
      <trkpt lat="48.95235" lon="4.8971">
        <ele>178</ele>
        <time>2018-03-30T19:29:10Z</time>
      </trkpt>
      <trkpt lat="48.95235" lon="4.89742">
        <ele>178</ele>
        <time>2018-03-30T19:30:10Z</time>
      </trkpt>
      <trkpt lat="48.95236" lon="4.89768">
        <ele>178</ele>
        <time>2018-03-30T19:31:10Z</time>
      </trkpt>
      <trkpt lat="48.95236" lon="4.89795">
        <ele>178</ele>
        <time>2018-03-30T19:32:10Z</time>
      </trkpt>
      <trkpt lat="48.95236" lon="4.89799">
        <ele>178</ele>
        <time>2018-03-30T19:33:10Z</time>
      </trkpt>
      <trkpt lat="48.95235" lon="4.89843">
        <ele>178</ele>
        <time>2018-03-30T19:34:10Z</time>
      </trkpt>
      <trkpt lat="48.95234" lon="4.89864">
        <ele>178</ele>
        <time>2018-03-30T19:35:10Z</time>
      </trkpt>
      <trkpt lat="48.95233" lon="4.89881">
        <ele>178</ele>
        <time>2018-03-30T19:36:10Z</time>
      </trkpt>
      <trkpt lat="48.95232" lon="4.89898">
        <ele>178</ele>
        <time>2018-03-30T19:37:10Z</time>
      </trkpt>
      <trkpt lat="48.9523" lon="4.89912">
        <ele>178</ele>
        <time>2018-03-30T19:38:10Z</time>
      </trkpt>
      <trkpt lat="48.95228" lon="4.8993">
        <ele>178</ele>
        <time>2018-03-30T19:39:10Z</time>
      </trkpt>
      <trkpt lat="48.95226" lon="4.89948">
        <ele>178</ele>
        <time>2018-03-30T19:40:10Z</time>
      </trkpt>
      <trkpt lat="48.95224" lon="4.89969">
        <ele>178</ele>
        <time>2018-03-30T19:41:10Z</time>
      </trkpt>
      <trkpt lat="48.95222" lon="4.89986">
        <ele>178</ele>
        <time>2018-03-30T19:42:10Z</time>
      </trkpt>
      <trkpt lat="48.95221" lon="4.90004">
        <ele>178</ele>
        <time>2018-03-30T19:43:10Z</time>
      </trkpt>
      <trkpt lat="48.9522" lon="4.9002">
        <ele>178</ele>
        <time>2018-03-30T19:44:10Z</time>
      </trkpt>
      <trkpt lat="48.9522" lon="4.90034">
        <ele>179</ele>
        <time>2018-03-30T19:45:10Z</time>
      </trkpt>
      <trkpt lat="48.9522" lon="4.90052">
        <ele>179</ele>
        <time>2018-03-30T19:46:10Z</time>
      </trkpt>
      <trkpt lat="48.95221" lon="4.90075">
        <ele>179</ele>
        <time>2018-03-30T19:47:10Z</time>
      </trkpt>
      <trkpt lat="48.9522" lon="4.901">
        <ele>179</ele>
        <time>2018-03-30T19:48:10Z</time>
      </trkpt>
      <trkpt lat="48.9522" lon="4.90117">
        <ele>180</ele>
        <time>2018-03-30T19:49:10Z</time>
      </trkpt>
      <trkpt lat="48.9522" lon="4.90135">
        <ele>180</ele>
        <time>2018-03-30T19:50:10Z</time>
      </trkpt>
      <trkpt lat="48.95219" lon="4.90157">
        <ele>180</ele>
        <time>2018-03-30T19:51:10Z</time>
      </trkpt>
      <trkpt lat="48.95218" lon="4.90175">
        <ele>180</ele>
        <time>2018-03-30T19:52:10Z</time>
      </trkpt>
      <trkpt lat="48.95217" lon="4.90195">
        <ele>180</ele>
        <time>2018-03-30T19:53:10Z</time>
      </trkpt>
      <trkpt lat="48.95215" lon="4.90216">
        <ele>180</ele>
        <time>2018-03-30T19:54:10Z</time>
      </trkpt>
      <trkpt lat="48.95215" lon="4.90225">
        <ele>180</ele>
        <time>2018-03-30T19:55:10Z</time>
      </trkpt>
      <trkpt lat="48.95213" lon="4.90239">
        <ele>180</ele>
        <time>2018-03-30T19:56:10Z</time>
      </trkpt>
      <trkpt lat="48.95211" lon="4.90259">
        <ele>179</ele>
        <time>2018-03-30T19:57:10Z</time>
      </trkpt>
      <trkpt lat="48.95208" lon="4.90282">
        <ele>179</ele>
        <time>2018-03-30T19:58:10Z</time>
      </trkpt>
      <trkpt lat="48.95205" lon="4.90305">
        <ele>179</ele>
        <time>2018-03-30T19:59:10Z</time>
      </trkpt>
      <trkpt lat="48.95202" lon="4.90327">
        <ele>178</ele>
        <time>2018-03-30T20:00:10Z</time>
      </trkpt>
      <trkpt lat="48.952" lon="4.90343">
        <ele>179</ele>
        <time>2018-03-30T20:01:10Z</time>
      </trkpt>
      <trkpt lat="48.95199" lon="4.90357">
        <ele>179</ele>
        <time>2018-03-30T20:02:10Z</time>
      </trkpt>
      <trkpt lat="48.95198" lon="4.9037">
        <ele>179</ele>
        <time>2018-03-30T20:03:10Z</time>
      </trkpt>
      <trkpt lat="48.95198" lon="4.90382">
        <ele>179</ele>
        <time>2018-03-30T20:04:10Z</time>
      </trkpt>
      <trkpt lat="48.95198" lon="4.90397">
        <ele>179</ele>
        <time>2018-03-30T20:05:10Z</time>
      </trkpt>
      <trkpt lat="48.95199" lon="4.90411">
        <ele>179</ele>
        <time>2018-03-30T20:06:10Z</time>
      </trkpt>
      <trkpt lat="48.95201" lon="4.90428">
        <ele>179</ele>
        <time>2018-03-30T20:07:10Z</time>
      </trkpt>
      <trkpt lat="48.95203" lon="4.90454">
        <ele>179</ele>
        <time>2018-03-30T20:08:10Z</time>
      </trkpt>
      <trkpt lat="48.95205" lon="4.90475">
        <ele>179</ele>
        <time>2018-03-30T20:09:10Z</time>
      </trkpt>
      <trkpt lat="48.95207" lon="4.90505">
        <ele>179</ele>
        <time>2018-03-30T20:10:10Z</time>
      </trkpt>
      <trkpt lat="48.95207" lon="4.90522">
        <ele>179</ele>
        <time>2018-03-30T20:11:10Z</time>
      </trkpt>
      <trkpt lat="48.95206" lon="4.90544">
        <ele>179</ele>
        <time>2018-03-30T20:12:10Z</time>
      </trkpt>
      <trkpt lat="48.95205" lon="4.90577">
        <ele>179</ele>
        <time>2018-03-30T20:13:10Z</time>
      </trkpt>
      <trkpt lat="48.95202" lon="4.90625">
        <ele>180</ele>
        <time>2018-03-30T20:14:10Z</time>
      </trkpt>
      <trkpt lat="48.95198" lon="4.90678">
        <ele>181</ele>
        <time>2018-03-30T20:15:10Z</time>
      </trkpt>
      <trkpt lat="48.95193" lon="4.90742">
        <ele>181</ele>
        <time>2018-03-30T20:16:10Z</time>
      </trkpt>
      <trkpt lat="48.9519" lon="4.90793">
        <ele>181</ele>
        <time>2018-03-30T20:17:10Z</time>
      </trkpt>
      <trkpt lat="48.95188" lon="4.9082">
        <ele>181</ele>
        <time>2018-03-30T20:18:10Z</time>
      </trkpt>
      <trkpt lat="48.95187" lon="4.90841">
        <ele>181</ele>
        <time>2018-03-30T20:19:10Z</time>
      </trkpt>
      <trkpt lat="48.95186" lon="4.9087">
        <ele>183</ele>
        <time>2018-03-30T20:20:10Z</time>
      </trkpt>
      <trkpt lat="48.95186" lon="4.90886">
        <ele>184</ele>
        <time>2018-03-30T20:21:10Z</time>
      </trkpt>
      <trkpt lat="48.95189" lon="4.90918">
        <ele>185</ele>
        <time>2018-03-30T20:22:10Z</time>
      </trkpt>
      <trkpt lat="48.95197" lon="4.91">
        <ele>190</ele>
        <time>2018-03-30T20:23:10Z</time>
      </trkpt>
      <trkpt lat="48.95207" lon="4.91091">
        <ele>187</ele>
        <time>2018-03-30T20:24:10Z</time>
      </trkpt>
      <trkpt lat="48.95221" lon="4.91203">
        <ele>185</ele>
        <time>2018-03-30T20:25:10Z</time>
      </trkpt>
      <trkpt lat="48.95228" lon="4.91284">
        <ele>183</ele>
        <time>2018-03-30T20:26:10Z</time>
      </trkpt>
      <trkpt lat="48.9523" lon="4.91325">
        <ele>182</ele>
        <time>2018-03-30T20:27:10Z</time>
      </trkpt>
      <trkpt lat="48.95231" lon="4.91346">
        <ele>182</ele>
        <time>2018-03-30T20:28:10Z</time>
      </trkpt>
      <trkpt lat="48.95231" lon="4.91366">
        <ele>182</ele>
        <time>2018-03-30T20:29:10Z</time>
      </trkpt>
      <trkpt lat="48.95231" lon="4.91394">
        <ele>182</ele>
        <time>2018-03-30T20:30:10Z</time>
      </trkpt>
      <trkpt lat="48.95228" lon="4.91416">
        <ele>182</ele>
        <time>2018-03-30T20:31:10Z</time>
      </trkpt>
      <trkpt lat="48.95219" lon="4.9148">
        <ele>182</ele>
        <time>2018-03-30T20:32:10Z</time>
      </trkpt>
      <trkpt lat="48.95207" lon="4.91553">
        <ele>183</ele>
        <time>2018-03-30T20:33:10Z</time>
      </trkpt>
      <trkpt lat="48.95195" lon="4.91628">
        <ele>183</ele>
        <time>2018-03-30T20:34:10Z</time>
      </trkpt>
      <trkpt lat="48.95191" lon="4.91657">
        <ele>183</ele>
        <time>2018-03-30T20:35:10Z</time>
      </trkpt>
      <trkpt lat="48.95189" lon="4.91681">
        <ele>183</ele>
        <time>2018-03-30T20:36:10Z</time>
      </trkpt>
      <trkpt lat="48.95189" lon="4.91696">
        <ele>183</ele>
        <time>2018-03-30T20:37:10Z</time>
      </trkpt>
      <trkpt lat="48.95189" lon="4.91723">
        <ele>184</ele>
        <time>2018-03-30T20:38:10Z</time>
      </trkpt>
      <trkpt lat="48.95192" lon="4.91755">
        <ele>184</ele>
        <time>2018-03-30T20:39:10Z</time>
      </trkpt>
      <trkpt lat="48.95195" lon="4.91782">
        <ele>184</ele>
        <time>2018-03-30T20:40:10Z</time>
      </trkpt>
      <trkpt lat="48.95214" lon="4.91932">
        <ele>183</ele>
        <time>2018-03-30T20:41:10Z</time>
      </trkpt>
      <trkpt lat="48.95228" lon="4.92062">
        <ele>182</ele>
        <time>2018-03-30T20:42:10Z</time>
      </trkpt>
      <trkpt lat="48.9524" lon="4.92165">
        <ele>179</ele>
        <time>2018-03-30T20:43:10Z</time>
      </trkpt>
      <trkpt lat="48.95247" lon="4.92218">
        <ele>176</ele>
        <time>2018-03-30T20:44:10Z</time>
      </trkpt>
      <trkpt lat="48.95262" lon="4.92279">
        <ele>173</ele>
        <time>2018-03-30T20:45:10Z</time>
      </trkpt>
      <trkpt lat="48.95278" lon="4.92346">
        <ele>171</ele>
        <time>2018-03-30T20:46:10Z</time>
      </trkpt>
      <trkpt lat="48.95285" lon="4.92373">
        <ele>170</ele>
        <time>2018-03-30T20:47:10Z</time>
      </trkpt>
      <trkpt lat="48.95291" lon="4.92395">
        <ele>170</ele>
        <time>2018-03-30T20:48:10Z</time>
      </trkpt>
      <trkpt lat="48.95295" lon="4.9241">
        <ele>169</ele>
        <time>2018-03-30T20:49:10Z</time>
      </trkpt>
      <trkpt lat="48.95303" lon="4.92441">
        <ele>169</ele>
        <time>2018-03-30T20:50:10Z</time>
      </trkpt>
      <trkpt lat="48.9531" lon="4.9248">
        <ele>167</ele>
        <time>2018-03-30T20:51:10Z</time>
      </trkpt>
      <trkpt lat="48.95318" lon="4.92542">
        <ele>167</ele>
        <time>2018-03-30T20:52:10Z</time>
      </trkpt>
      <trkpt lat="48.95321" lon="4.92576">
        <ele>167</ele>
        <time>2018-03-30T20:53:10Z</time>
      </trkpt>
      <trkpt lat="48.95326" lon="4.92615">
        <ele>168</ele>
        <time>2018-03-30T20:54:10Z</time>
      </trkpt>
      <trkpt lat="48.95327" lon="4.92649">
        <ele>169</ele>
        <time>2018-03-30T20:55:10Z</time>
      </trkpt>
      <trkpt lat="48.95325" lon="4.92688">
        <ele>170</ele>
        <time>2018-03-30T20:56:10Z</time>
      </trkpt>
      <trkpt lat="48.95323" lon="4.9271">
        <ele>171</ele>
        <time>2018-03-30T20:57:10Z</time>
      </trkpt>
      <trkpt lat="48.95322" lon="4.92719">
        <ele>171</ele>
        <time>2018-03-30T20:58:10Z</time>
      </trkpt>
      <trkpt lat="48.95319" lon="4.92738">
        <ele>172</ele>
        <time>2018-03-30T20:59:10Z</time>
      </trkpt>
      <trkpt lat="48.95317" lon="4.92749">
        <ele>173</ele>
        <time>2018-03-30T21:00:10Z</time>
      </trkpt>
      <trkpt lat="48.95315" lon="4.92758">
        <ele>173</ele>
        <time>2018-03-30T21:01:10Z</time>
      </trkpt>
      <trkpt lat="48.95313" lon="4.92769">
        <ele>174</ele>
        <time>2018-03-30T21:02:10Z</time>
      </trkpt>
      <trkpt lat="48.95302" lon="4.92812">
        <ele>176</ele>
        <time>2018-03-30T21:03:10Z</time>
      </trkpt>
      <trkpt lat="48.95287" lon="4.92867">
        <ele>177</ele>
        <time>2018-03-30T21:04:10Z</time>
      </trkpt>
      <trkpt lat="48.95269" lon="4.92939">
        <ele>178</ele>
        <time>2018-03-30T21:05:10Z</time>
      </trkpt>
      <trkpt lat="48.95256" lon="4.92988">
        <ele>178</ele>
        <time>2018-03-30T21:06:10Z</time>
      </trkpt>
      <trkpt lat="48.95225" lon="4.93109">
        <ele>179</ele>
        <time>2018-03-30T21:07:10Z</time>
      </trkpt>
      <trkpt lat="48.95221" lon="4.93131">
        <ele>179</ele>
        <time>2018-03-30T21:08:10Z</time>
      </trkpt>
      <trkpt lat="48.95214" lon="4.93158">
        <ele>178</ele>
        <time>2018-03-30T21:09:10Z</time>
      </trkpt>
      <trkpt lat="48.95194" lon="4.93241">
        <ele>179</ele>
        <time>2018-03-30T21:10:10Z</time>
      </trkpt>
      <trkpt lat="48.95184" lon="4.93282">
        <ele>178</ele>
        <time>2018-03-30T21:11:10Z</time>
      </trkpt>
      <trkpt lat="48.95178" lon="4.93304">
        <ele>178</ele>
        <time>2018-03-30T21:12:10Z</time>
      </trkpt>
      <trkpt lat="48.95149" lon="4.93419">
        <ele>179</ele>
        <time>2018-03-30T21:13:10Z</time>
      </trkpt>
      <trkpt lat="48.95125" lon="4.93514">
        <ele>181</ele>
        <time>2018-03-30T21:14:10Z</time>
      </trkpt>
      <trkpt lat="48.95103" lon="4.93602">
        <ele>183</ele>
        <time>2018-03-30T21:15:10Z</time>
      </trkpt>
      <trkpt lat="48.95098" lon="4.93624">
        <ele>184</ele>
        <time>2018-03-30T21:16:10Z</time>
      </trkpt>
      <trkpt lat="48.95093" lon="4.93651">
        <ele>184</ele>
        <time>2018-03-30T21:17:10Z</time>
      </trkpt>
      <trkpt lat="48.9509" lon="4.93674">
        <ele>184</ele>
        <time>2018-03-30T21:18:10Z</time>
      </trkpt>
      <trkpt lat="48.95089" lon="4.93698">
        <ele>184</ele>
        <time>2018-03-30T21:19:10Z</time>
      </trkpt>
      <trkpt lat="48.95089" lon="4.93716">
        <ele>184</ele>
        <time>2018-03-30T21:20:10Z</time>
      </trkpt>
      <trkpt lat="48.95089" lon="4.93756">
        <ele>183</ele>
        <time>2018-03-30T21:21:10Z</time>
      </trkpt>
      <trkpt lat="48.95095" lon="4.93939">
        <ele>179</ele>
        <time>2018-03-30T21:22:10Z</time>
      </trkpt>
      <trkpt lat="48.95097" lon="4.93967">
        <ele>178</ele>
        <time>2018-03-30T21:23:10Z</time>
      </trkpt>
      <trkpt lat="48.95099" lon="4.94075">
        <ele>175</ele>
        <time>2018-03-30T21:24:10Z</time>
      </trkpt>
      <trkpt lat="48.95105" lon="4.94236">
        <ele>174</ele>
        <time>2018-03-30T21:25:10Z</time>
      </trkpt>
      <trkpt lat="48.95111" lon="4.94444">
        <ele>175</ele>
        <time>2018-03-30T21:26:10Z</time>
      </trkpt>
      <trkpt lat="48.95111" lon="4.94457">
        <ele>175</ele>
        <time>2018-03-30T21:27:10Z</time>
      </trkpt>
      <trkpt lat="48.95114" lon="4.94572">
        <ele>176</ele>
        <time>2018-03-30T21:28:10Z</time>
      </trkpt>
      <trkpt lat="48.95119" lon="4.94767">
        <ele>179</ele>
        <time>2018-03-30T21:29:10Z</time>
      </trkpt>
      <trkpt lat="48.9512" lon="4.94807">
        <ele>180</ele>
        <time>2018-03-30T21:30:10Z</time>
      </trkpt>
      <trkpt lat="48.95123" lon="4.9488">
        <ele>183</ele>
        <time>2018-03-30T21:31:10Z</time>
      </trkpt>
      <trkpt lat="48.95126" lon="4.94945">
        <ele>183</ele>
        <time>2018-03-30T21:32:10Z</time>
      </trkpt>
      <trkpt lat="48.95136" lon="4.95027">
        <ele>183</ele>
        <time>2018-03-30T21:33:10Z</time>
      </trkpt>
      <trkpt lat="48.9514" lon="4.9505">
        <ele>183</ele>
        <time>2018-03-30T21:34:10Z</time>
      </trkpt>
      <trkpt lat="48.95149" lon="4.9511">
        <ele>182</ele>
        <time>2018-03-30T21:35:10Z</time>
      </trkpt>
      <trkpt lat="48.95154" lon="4.95139">
        <ele>182</ele>
        <time>2018-03-30T21:36:10Z</time>
      </trkpt>
      <trkpt lat="48.95176" lon="4.95281">
        <ele>184</ele>
        <time>2018-03-30T21:37:10Z</time>
      </trkpt>
      <trkpt lat="48.95195" lon="4.95392">
        <ele>182</ele>
        <time>2018-03-30T21:38:10Z</time>
      </trkpt>
      <trkpt lat="48.95204" lon="4.95451">
        <ele>183</ele>
        <time>2018-03-30T21:39:10Z</time>
      </trkpt>
      <trkpt lat="48.9523" lon="4.95621">
        <ele>185</ele>
        <time>2018-03-30T21:40:10Z</time>
      </trkpt>
      <trkpt lat="48.95235" lon="4.95655">
        <ele>185</ele>
        <time>2018-03-30T21:41:10Z</time>
      </trkpt>
      <trkpt lat="48.95244" lon="4.95696">
        <ele>185</ele>
        <time>2018-03-30T21:42:10Z</time>
      </trkpt>
      <trkpt lat="48.95253" lon="4.95732">
        <ele>185</ele>
        <time>2018-03-30T21:43:10Z</time>
      </trkpt>
      <trkpt lat="48.95273" lon="4.9579">
        <ele>185</ele>
        <time>2018-03-30T21:44:10Z</time>
      </trkpt>
      <trkpt lat="48.95286" lon="4.95824">
        <ele>185</ele>
        <time>2018-03-30T21:45:10Z</time>
      </trkpt>
      <trkpt lat="48.95289" lon="4.95835">
        <ele>186</ele>
        <time>2018-03-30T21:46:10Z</time>
      </trkpt>
      <trkpt lat="48.95332" lon="4.95945">
        <ele>184</ele>
        <time>2018-03-30T21:47:10Z</time>
      </trkpt>
      <trkpt lat="48.95359" lon="4.96012">
        <ele>181</ele>
        <time>2018-03-30T21:48:10Z</time>
      </trkpt>
      <trkpt lat="48.95384" lon="4.96076">
        <ele>178</ele>
        <time>2018-03-30T21:49:10Z</time>
      </trkpt>
      <trkpt lat="48.95398" lon="4.96112">
        <ele>177</ele>
        <time>2018-03-30T21:50:10Z</time>
      </trkpt>
      <trkpt lat="48.95408" lon="4.96137">
        <ele>176</ele>
        <time>2018-03-30T21:51:10Z</time>
      </trkpt>
      <trkpt lat="48.95434" lon="4.96206">
        <ele>175</ele>
        <time>2018-03-30T21:52:10Z</time>
      </trkpt>
      <trkpt lat="48.95462" lon="4.96279">
        <ele>174</ele>
        <time>2018-03-30T21:53:10Z</time>
      </trkpt>
      <trkpt lat="48.95481" lon="4.96328">
        <ele>172</ele>
        <time>2018-03-30T21:54:10Z</time>
      </trkpt>
      <trkpt lat="48.95513" lon="4.96413">
        <ele>170</ele>
        <time>2018-03-30T21:55:10Z</time>
      </trkpt>
      <trkpt lat="48.95587" lon="4.96609">
        <ele>170</ele>
        <time>2018-03-30T21:56:10Z</time>
      </trkpt>
      <trkpt lat="48.95596" lon="4.96633">
        <ele>170</ele>
        <time>2018-03-30T21:57:10Z</time>
      </trkpt>
      <trkpt lat="48.95672" lon="4.96832">
        <ele>169</ele>
        <time>2018-03-30T21:58:10Z</time>
      </trkpt>
      <trkpt lat="48.95694" lon="4.96889">
        <ele>171</ele>
        <time>2018-03-30T21:59:10Z</time>
      </trkpt>
      <trkpt lat="48.9571" lon="4.9693">
        <ele>172</ele>
        <time>2018-03-30T22:00:10Z</time>
      </trkpt>
      <trkpt lat="48.95737" lon="4.97001">
        <ele>172</ele>
        <time>2018-03-30T22:01:10Z</time>
      </trkpt>
      <trkpt lat="48.95823" lon="4.97222">
        <ele>166</ele>
        <time>2018-03-30T22:02:10Z</time>
      </trkpt>
      <trkpt lat="48.95848" lon="4.97284">
        <ele>165</ele>
        <time>2018-03-30T22:03:10Z</time>
      </trkpt>
      <trkpt lat="48.95866" lon="4.97331">
        <ele>165</ele>
        <time>2018-03-30T22:04:10Z</time>
      </trkpt>
      <trkpt lat="48.95882" lon="4.97376">
        <ele>166</ele>
        <time>2018-03-30T22:05:10Z</time>
      </trkpt>
      <trkpt lat="48.95886" lon="4.97386">
        <ele>166</ele>
        <time>2018-03-30T22:06:10Z</time>
      </trkpt>
      <trkpt lat="48.9593" lon="4.97499">
        <ele>169</ele>
        <time>2018-03-30T22:07:10Z</time>
      </trkpt>
      <trkpt lat="48.95957" lon="4.97575">
        <ele>170</ele>
        <time>2018-03-30T22:08:10Z</time>
      </trkpt>
      <trkpt lat="48.96006" lon="4.97726">
        <ele>167</ele>
        <time>2018-03-30T22:09:10Z</time>
      </trkpt>
      <trkpt lat="48.96052" lon="4.97868">
        <ele>169</ele>
        <time>2018-03-30T22:10:10Z</time>
      </trkpt>
      <trkpt lat="48.96098" lon="4.98019">
        <ele>167</ele>
        <time>2018-03-30T22:11:10Z</time>
      </trkpt>
      <trkpt lat="48.96236" lon="4.98454">
        <ele>161</ele>
        <time>2018-03-30T22:12:10Z</time>
      </trkpt>
      <trkpt lat="48.96275" lon="4.98573">
        <ele>158</ele>
        <time>2018-03-30T22:13:10Z</time>
      </trkpt>
      <trkpt lat="48.96287" lon="4.98595">
        <ele>157</ele>
        <time>2018-03-30T22:14:10Z</time>
      </trkpt>
      <trkpt lat="48.96297" lon="4.98609">
        <ele>157</ele>
        <time>2018-03-30T22:15:10Z</time>
      </trkpt>
      <trkpt lat="48.96307" lon="4.98623">
        <ele>156</ele>
        <time>2018-03-30T22:16:10Z</time>
      </trkpt>
      <trkpt lat="48.9632" lon="4.98633">
        <ele>156</ele>
        <time>2018-03-30T22:17:10Z</time>
      </trkpt>
      <trkpt lat="48.96364" lon="4.98659">
        <ele>153</ele>
        <time>2018-03-30T22:18:10Z</time>
      </trkpt>
      <trkpt lat="48.96372" lon="4.98663">
        <ele>152</ele>
        <time>2018-03-30T22:19:10Z</time>
      </trkpt>
      <trkpt lat="48.96383" lon="4.98669">
        <ele>152</ele>
        <time>2018-03-30T22:20:10Z</time>
      </trkpt>
      <trkpt lat="48.96393" lon="4.98674">
        <ele>151</ele>
        <time>2018-03-30T22:21:10Z</time>
      </trkpt>
      <trkpt lat="48.96478" lon="4.98722">
        <ele>150</ele>
        <time>2018-03-30T22:22:10Z</time>
      </trkpt>
      <trkpt lat="48.96501" lon="4.98735">
        <ele>151</ele>
        <time>2018-03-30T22:23:10Z</time>
      </trkpt>
      <trkpt lat="48.96511" lon="4.98741">
        <ele>151</ele>
        <time>2018-03-30T22:24:10Z</time>
      </trkpt>
      <trkpt lat="48.96526" lon="4.98751">
        <ele>151</ele>
        <time>2018-03-30T22:25:10Z</time>
      </trkpt>
      <trkpt lat="48.96537" lon="4.9876">
        <ele>152</ele>
        <time>2018-03-30T22:26:10Z</time>
      </trkpt>
      <trkpt lat="48.96545" lon="4.98772">
        <ele>152</ele>
        <time>2018-03-30T22:27:10Z</time>
      </trkpt>
      <trkpt lat="48.96551" lon="4.98786">
        <ele>153</ele>
        <time>2018-03-30T22:28:10Z</time>
      </trkpt>
      <trkpt lat="48.96557" lon="4.98806">
        <ele>154</ele>
        <time>2018-03-30T22:29:10Z</time>
      </trkpt>
      <trkpt lat="48.96558" lon="4.98822">
        <ele>155</ele>
        <time>2018-03-30T22:30:10Z</time>
      </trkpt>
      <trkpt lat="48.96559" lon="4.98839">
        <ele>155</ele>
        <time>2018-03-30T22:31:10Z</time>
      </trkpt>
      <trkpt lat="48.96557" lon="4.98855">
        <ele>155</ele>
        <time>2018-03-30T22:32:10Z</time>
      </trkpt>
      <trkpt lat="48.96554" lon="4.98874">
        <ele>155</ele>
        <time>2018-03-30T22:33:10Z</time>
      </trkpt>
      <trkpt lat="48.96549" lon="4.989">
        <ele>154</ele>
        <time>2018-03-30T22:34:10Z</time>
      </trkpt>
      <trkpt lat="48.96543" lon="4.98929">
        <ele>154</ele>
        <time>2018-03-30T22:35:10Z</time>
      </trkpt>
      <trkpt lat="48.96537" lon="4.98956">
        <ele>153</ele>
        <time>2018-03-30T22:36:10Z</time>
      </trkpt>
      <trkpt lat="48.9653" lon="4.98989">
        <ele>153</ele>
        <time>2018-03-30T22:37:10Z</time>
      </trkpt>
      <trkpt lat="48.96522" lon="4.99016">
        <ele>152</ele>
        <time>2018-03-30T22:38:10Z</time>
      </trkpt>
      <trkpt lat="48.96512" lon="4.99044">
        <ele>152</ele>
        <time>2018-03-30T22:39:10Z</time>
      </trkpt>
      <trkpt lat="48.96504" lon="4.99066">
        <ele>152</ele>
        <time>2018-03-30T22:40:10Z</time>
      </trkpt>
      <trkpt lat="48.96492" lon="4.99092">
        <ele>152</ele>
        <time>2018-03-30T22:41:10Z</time>
      </trkpt>
      <trkpt lat="48.96484" lon="4.99105">
        <ele>152</ele>
        <time>2018-03-30T22:42:10Z</time>
      </trkpt>
      <trkpt lat="48.96472" lon="4.99124">
        <ele>152</ele>
        <time>2018-03-30T22:43:10Z</time>
      </trkpt>
      <trkpt lat="48.96457" lon="4.99146">
        <ele>152</ele>
        <time>2018-03-30T22:44:10Z</time>
      </trkpt>
      <trkpt lat="48.96448" lon="4.99162">
        <ele>152</ele>
        <time>2018-03-30T22:45:10Z</time>
      </trkpt>
      <trkpt lat="48.96445" lon="4.99171">
        <ele>152</ele>
        <time>2018-03-30T22:46:10Z</time>
      </trkpt>
      <trkpt lat="48.96442" lon="4.99178">
        <ele>152</ele>
        <time>2018-03-30T22:47:10Z</time>
      </trkpt>
      <trkpt lat="48.96439" lon="4.99188">
        <ele>152</ele>
        <time>2018-03-30T22:48:10Z</time>
      </trkpt>
      <trkpt lat="48.96436" lon="4.992">
        <ele>152</ele>
        <time>2018-03-30T22:49:10Z</time>
      </trkpt>
      <trkpt lat="48.96435" lon="4.99212">
        <ele>152</ele>
        <time>2018-03-30T22:50:10Z</time>
      </trkpt>
      <trkpt lat="48.96434" lon="4.99224">
        <ele>152</ele>
        <time>2018-03-30T22:51:10Z</time>
      </trkpt>
      <trkpt lat="48.96434" lon="4.99237">
        <ele>152</ele>
        <time>2018-03-30T22:52:10Z</time>
      </trkpt>
      <trkpt lat="48.96435" lon="4.99251">
        <ele>152</ele>
        <time>2018-03-30T22:53:10Z</time>
      </trkpt>
      <trkpt lat="48.96437" lon="4.99269">
        <ele>153</ele>
        <time>2018-03-30T22:54:10Z</time>
      </trkpt>
      <trkpt lat="48.96441" lon="4.99304">
        <ele>153</ele>
        <time>2018-03-30T22:55:10Z</time>
      </trkpt>
      <trkpt lat="48.96444" lon="4.9932">
        <ele>153</ele>
        <time>2018-03-30T22:56:10Z</time>
      </trkpt>
      <trkpt lat="48.96447" lon="4.99336">
        <ele>154</ele>
        <time>2018-03-30T22:57:10Z</time>
      </trkpt>
      <trkpt lat="48.96449" lon="4.99345">
        <ele>154</ele>
        <time>2018-03-30T22:58:10Z</time>
      </trkpt>
      <trkpt lat="48.96454" lon="4.99361">
        <ele>154</ele>
        <time>2018-03-30T22:59:10Z</time>
      </trkpt>
      <trkpt lat="48.96464" lon="4.99393">
        <ele>154</ele>
        <time>2018-03-30T23:00:10Z</time>
      </trkpt>
      <trkpt lat="48.96479" lon="4.99431">
        <ele>154</ele>
        <time>2018-03-30T23:01:10Z</time>
      </trkpt>
      <trkpt lat="48.965" lon="4.99486">
        <ele>154</ele>
        <time>2018-03-30T23:02:10Z</time>
      </trkpt>
      <trkpt lat="48.96514" lon="4.99518">
        <ele>155</ele>
        <time>2018-03-30T23:03:10Z</time>
      </trkpt>
      <trkpt lat="48.96533" lon="4.99564">
        <ele>156</ele>
        <time>2018-03-30T23:04:10Z</time>
      </trkpt>
      <trkpt lat="48.96551" lon="4.99603">
        <ele>157</ele>
        <time>2018-03-30T23:05:10Z</time>
      </trkpt>
      <trkpt lat="48.96556" lon="4.99613">
        <ele>157</ele>
        <time>2018-03-30T23:06:10Z</time>
      </trkpt>
      <trkpt lat="48.9656" lon="4.99619">
        <ele>157</ele>
        <time>2018-03-30T23:07:10Z</time>
      </trkpt>
      <trkpt lat="48.96565" lon="4.99622">
        <ele>157</ele>
        <time>2018-03-30T23:08:10Z</time>
      </trkpt>
      <trkpt lat="48.96569" lon="4.99624">
        <ele>157</ele>
        <time>2018-03-30T23:09:10Z</time>
      </trkpt>
      <trkpt lat="48.9657" lon="4.99625">
        <ele>157</ele>
        <time>2018-03-30T23:10:10Z</time>
      </trkpt>
      <trkpt lat="48.96574" lon="4.99624">
        <ele>157</ele>
        <time>2018-03-30T23:11:10Z</time>
      </trkpt>
      <trkpt lat="48.96578" lon="4.99623">
        <ele>157</ele>
        <time>2018-03-30T23:12:10Z</time>
      </trkpt>
      <trkpt lat="48.96588" lon="4.99619">
        <ele>157</ele>
        <time>2018-03-30T23:13:10Z</time>
      </trkpt>
      <trkpt lat="48.96623" lon="4.99595">
        <ele>157</ele>
        <time>2018-03-30T23:14:10Z</time>
      </trkpt>
      <trkpt lat="48.96629" lon="4.99592">
        <ele>157</ele>
        <time>2018-03-30T23:15:10Z</time>
      </trkpt>
      <trkpt lat="48.96652" lon="4.9958">
        <ele>157</ele>
        <time>2018-03-30T23:16:10Z</time>
      </trkpt>
      <trkpt lat="48.96652" lon="4.9958">
        <ele>157</ele>
        <time>2018-03-30T23:17:10Z</time>
      </trkpt>
      <trkpt lat="48.96657" lon="4.99612">
        <ele>156</ele>
        <time>2018-03-30T23:18:10Z</time>
      </trkpt>
      <trkpt lat="48.96665" lon="4.99668">
        <ele>155</ele>
        <time>2018-03-30T23:19:10Z</time>
      </trkpt>
      <trkpt lat="48.96667" lon="4.99677">
        <ele>155</ele>
        <time>2018-03-30T23:20:10Z</time>
      </trkpt>
      <trkpt lat="48.96669" lon="4.99686">
        <ele>155</ele>
        <time>2018-03-30T23:21:10Z</time>
      </trkpt>
      <trkpt lat="48.96674" lon="4.99721">
        <ele>154</ele>
        <time>2018-03-30T23:22:10Z</time>
      </trkpt>
      <trkpt lat="48.96695" lon="4.99852">
        <ele>154</ele>
        <time>2018-03-30T23:23:10Z</time>
      </trkpt>
      <trkpt lat="48.96708" lon="4.99934">
        <ele>157</ele>
        <time>2018-03-30T23:24:10Z</time>
      </trkpt>
      <trkpt lat="48.96718" lon="4.99996">
        <ele>159</ele>
        <time>2018-03-30T23:25:10Z</time>
      </trkpt>
      <trkpt lat="48.96726" lon="5.00042">
        <ele>159</ele>
        <time>2018-03-30T23:26:10Z</time>
      </trkpt>
      <trkpt lat="48.96729" lon="5.00053">
        <ele>159</ele>
        <time>2018-03-30T23:27:10Z</time>
      </trkpt>
      <trkpt lat="48.96729" lon="5.00058">
        <ele>159</ele>
        <time>2018-03-30T23:28:10Z</time>
      </trkpt>
      <trkpt lat="48.96729" lon="5.00062">
        <ele>159</ele>
        <time>2018-03-30T23:29:10Z</time>
      </trkpt>
      <trkpt lat="48.96728" lon="5.00068">
        <ele>159</ele>
        <time>2018-03-30T23:30:10Z</time>
      </trkpt>
      <trkpt lat="48.96728" lon="5.00068">
        <ele>159</ele>
        <time>2018-03-30T23:31:10Z</time>
      </trkpt>
      <trkpt lat="48.96743" lon="5.00092">
        <ele>160</ele>
        <time>2018-03-30T23:32:10Z</time>
      </trkpt>
      <trkpt lat="48.96757" lon="5.00122">
        <ele>160</ele>
        <time>2018-03-30T23:33:10Z</time>
      </trkpt>
      <trkpt lat="48.96776" lon="5.0016">
        <ele>159</ele>
        <time>2018-03-30T23:34:10Z</time>
      </trkpt>
      <trkpt lat="48.96791" lon="5.00184">
        <ele>159</ele>
        <time>2018-03-30T23:35:10Z</time>
      </trkpt>
      <trkpt lat="48.96805" lon="5.00204">
        <ele>159</ele>
        <time>2018-03-30T23:36:10Z</time>
      </trkpt>
      <trkpt lat="48.96813" lon="5.00212">
        <ele>158</ele>
        <time>2018-03-30T23:37:10Z</time>
      </trkpt>
      <trkpt lat="48.96826" lon="5.00226">
        <ele>158</ele>
        <time>2018-03-30T23:38:10Z</time>
      </trkpt>
      <trkpt lat="48.9684" lon="5.00243">
        <ele>158</ele>
        <time>2018-03-30T23:39:10Z</time>
      </trkpt>
      <trkpt lat="48.96859" lon="5.00266">
        <ele>156</ele>
        <time>2018-03-30T23:40:10Z</time>
      </trkpt>
      <trkpt lat="48.96869" lon="5.00282">
        <ele>156</ele>
        <time>2018-03-30T23:41:10Z</time>
      </trkpt>
      <trkpt lat="48.96875" lon="5.00291">
        <ele>156</ele>
        <time>2018-03-30T23:42:10Z</time>
      </trkpt>
      <trkpt lat="48.96888" lon="5.00314">
        <ele>155</ele>
        <time>2018-03-30T23:43:10Z</time>
      </trkpt>
      <trkpt lat="48.969" lon="5.0034">
        <ele>155</ele>
        <time>2018-03-30T23:44:10Z</time>
      </trkpt>
      <trkpt lat="48.9691" lon="5.00361">
        <ele>155</ele>
        <time>2018-03-30T23:45:10Z</time>
      </trkpt>
      <trkpt lat="48.96918" lon="5.00382">
        <ele>155</ele>
        <time>2018-03-30T23:46:10Z</time>
      </trkpt>
      <trkpt lat="48.96928" lon="5.00421">
        <ele>155</ele>
        <time>2018-03-30T23:47:10Z</time>
      </trkpt>
      <trkpt lat="48.9693" lon="5.00428">
        <ele>155</ele>
        <time>2018-03-30T23:48:10Z</time>
      </trkpt>
      <trkpt lat="48.96934" lon="5.00453">
        <ele>155</ele>
        <time>2018-03-30T23:49:10Z</time>
      </trkpt>
      <trkpt lat="48.96939" lon="5.00484">
        <ele>156</ele>
        <time>2018-03-30T23:50:10Z</time>
      </trkpt>
      <trkpt lat="48.96946" lon="5.00533">
        <ele>156</ele>
        <time>2018-03-30T23:51:10Z</time>
      </trkpt>
      <trkpt lat="48.96952" lon="5.00568">
        <ele>155</ele>
        <time>2018-03-30T23:52:10Z</time>
      </trkpt>
      <trkpt lat="48.96958" lon="5.00603">
        <ele>156</ele>
        <time>2018-03-30T23:53:10Z</time>
      </trkpt>
      <trkpt lat="48.96964" lon="5.00633">
        <ele>157</ele>
        <time>2018-03-30T23:54:10Z</time>
      </trkpt>
      <trkpt lat="48.96972" lon="5.00676">
        <ele>157</ele>
        <time>2018-03-30T23:55:10Z</time>
      </trkpt>
      <trkpt lat="48.96994" lon="5.00782">
        <ele>157</ele>
        <time>2018-03-30T23:56:10Z</time>
      </trkpt>
      <trkpt lat="48.9702" lon="5.00907">
        <ele>159</ele>
        <time>2018-03-30T23:57:10Z</time>
      </trkpt>
      <trkpt lat="48.97024" lon="5.00924">
        <ele>160</ele>
        <time>2018-03-30T23:58:10Z</time>
      </trkpt>
      <trkpt lat="48.9703" lon="5.00947">
        <ele>160</ele>
        <time>2018-03-30T23:59:10Z</time>
      </trkpt>
      <trkpt lat="48.97041" lon="5.00973">
        <ele>160</ele>
        <time>2018-03-31T00:00:10Z</time>
      </trkpt>
      <trkpt lat="48.97057" lon="5.01">
        <ele>160</ele>
        <time>2018-03-31T00:01:10Z</time>
      </trkpt>
      <trkpt lat="48.97176" lon="5.01147">
        <ele>159</ele>
        <time>2018-03-31T00:02:10Z</time>
      </trkpt>
      <trkpt lat="48.97233" lon="5.01212">
        <ele>160</ele>
        <time>2018-03-31T00:03:10Z</time>
      </trkpt>
      <trkpt lat="48.97292" lon="5.01276">
        <ele>161</ele>
        <time>2018-03-31T00:04:10Z</time>
      </trkpt>
      <trkpt lat="48.97327" lon="5.01321">
        <ele>162</ele>
        <time>2018-03-31T00:05:10Z</time>
      </trkpt>
      <trkpt lat="48.97344" lon="5.01352">
        <ele>163</ele>
        <time>2018-03-31T00:06:10Z</time>
      </trkpt>
      <trkpt lat="48.97355" lon="5.0138">
        <ele>162</ele>
        <time>2018-03-31T00:07:10Z</time>
      </trkpt>
      <trkpt lat="48.97377" lon="5.01442">
        <ele>161</ele>
        <time>2018-03-31T00:08:10Z</time>
      </trkpt>
      <trkpt lat="48.97412" lon="5.0154">
        <ele>162</ele>
        <time>2018-03-31T00:09:10Z</time>
      </trkpt>
      <trkpt lat="48.97438" lon="5.01608">
        <ele>161</ele>
        <time>2018-03-31T00:10:10Z</time>
      </trkpt>
      <trkpt lat="48.97455" lon="5.01645">
        <ele>160</ele>
        <time>2018-03-31T00:11:10Z</time>
      </trkpt>
      <trkpt lat="48.97466" lon="5.01667">
        <ele>159</ele>
        <time>2018-03-31T00:12:10Z</time>
      </trkpt>
      <trkpt lat="48.97482" lon="5.01692">
        <ele>159</ele>
        <time>2018-03-31T00:13:10Z</time>
      </trkpt>
      <trkpt lat="48.97498" lon="5.01716">
        <ele>158</ele>
        <time>2018-03-31T00:14:10Z</time>
      </trkpt>
      <trkpt lat="48.97507" lon="5.01726">
        <ele>158</ele>
        <time>2018-03-31T00:15:10Z</time>
      </trkpt>
      <trkpt lat="48.97537" lon="5.0176">
        <ele>158</ele>
        <time>2018-03-31T00:16:10Z</time>
      </trkpt>
      <trkpt lat="48.97557" lon="5.0178">
        <ele>158</ele>
        <time>2018-03-31T00:17:10Z</time>
      </trkpt>
      <trkpt lat="48.97578" lon="5.01797">
        <ele>157</ele>
        <time>2018-03-31T00:18:10Z</time>
      </trkpt>
      <trkpt lat="48.97602" lon="5.01809">
        <ele>157</ele>
        <time>2018-03-31T00:19:10Z</time>
      </trkpt>
      <trkpt lat="48.97618" lon="5.01813">
        <ele>157</ele>
        <time>2018-03-31T00:20:10Z</time>
      </trkpt>
      <trkpt lat="48.97626" lon="5.01813">
        <ele>157</ele>
        <time>2018-03-31T00:21:10Z</time>
      </trkpt>
      <trkpt lat="48.9766" lon="5.01809">
        <ele>156</ele>
        <time>2018-03-31T00:22:10Z</time>
      </trkpt>
      <trkpt lat="48.97669" lon="5.01806">
        <ele>156</ele>
        <time>2018-03-31T00:23:10Z</time>
      </trkpt>
      <trkpt lat="48.97679" lon="5.01803">
        <ele>156</ele>
        <time>2018-03-31T00:24:10Z</time>
      </trkpt>
      <trkpt lat="48.9769" lon="5.01801">
        <ele>156</ele>
        <time>2018-03-31T00:25:10Z</time>
      </trkpt>
      <trkpt lat="48.97703" lon="5.01798">
        <ele>156</ele>
        <time>2018-03-31T00:26:10Z</time>
      </trkpt>
      <trkpt lat="48.97736" lon="5.01789">
        <ele>156</ele>
        <time>2018-03-31T00:27:10Z</time>
      </trkpt>
      <trkpt lat="48.97758" lon="5.01782">
        <ele>155</ele>
        <time>2018-03-31T00:28:10Z</time>
      </trkpt>
      <trkpt lat="48.97767" lon="5.0178">
        <ele>156</ele>
        <time>2018-03-31T00:29:10Z</time>
      </trkpt>
      <trkpt lat="48.9777" lon="5.01779">
        <ele>156</ele>
        <time>2018-03-31T00:30:10Z</time>
      </trkpt>
      <trkpt lat="48.97774" lon="5.01779">
        <ele>156</ele>
        <time>2018-03-31T00:31:10Z</time>
      </trkpt>
      <trkpt lat="48.97821" lon="5.01766">
        <ele>156</ele>
        <time>2018-03-31T00:32:10Z</time>
      </trkpt>
      <trkpt lat="48.97849" lon="5.0176">
        <ele>156</ele>
        <time>2018-03-31T00:33:10Z</time>
      </trkpt>
      <trkpt lat="48.97877" lon="5.01754">
        <ele>157</ele>
        <time>2018-03-31T00:34:10Z</time>
      </trkpt>
      <trkpt lat="48.97909" lon="5.01753">
        <ele>158</ele>
        <time>2018-03-31T00:35:10Z</time>
      </trkpt>
      <trkpt lat="48.97931" lon="5.01754">
        <ele>159</ele>
        <time>2018-03-31T00:36:10Z</time>
      </trkpt>
      <trkpt lat="48.97954" lon="5.01756">
        <ele>160</ele>
        <time>2018-03-31T00:37:10Z</time>
      </trkpt>
      <trkpt lat="48.9798" lon="5.0176">
        <ele>161</ele>
        <time>2018-03-31T00:38:10Z</time>
      </trkpt>
      <trkpt lat="48.98019" lon="5.01764">
        <ele>164</ele>
        <time>2018-03-31T00:39:10Z</time>
      </trkpt>
      <trkpt lat="48.98053" lon="5.01768">
        <ele>167</ele>
        <time>2018-03-31T00:40:10Z</time>
      </trkpt>
      <trkpt lat="48.98084" lon="5.01772">
        <ele>169</ele>
        <time>2018-03-31T00:41:10Z</time>
      </trkpt>
      <trkpt lat="48.98118" lon="5.01777">
        <ele>173</ele>
        <time>2018-03-31T00:42:10Z</time>
      </trkpt>
      <trkpt lat="48.98145" lon="5.0178">
        <ele>177</ele>
        <time>2018-03-31T00:43:10Z</time>
      </trkpt>
      <trkpt lat="48.98161" lon="5.0178">
        <ele>179</ele>
        <time>2018-03-31T00:44:10Z</time>
      </trkpt>
      <trkpt lat="48.98183" lon="5.01781">
        <ele>180</ele>
        <time>2018-03-31T00:45:10Z</time>
      </trkpt>
      <trkpt lat="48.98205" lon="5.01782">
        <ele>182</ele>
        <time>2018-03-31T00:46:10Z</time>
      </trkpt>
      <trkpt lat="48.98222" lon="5.01787">
        <ele>183</ele>
        <time>2018-03-31T00:47:10Z</time>
      </trkpt>
      <trkpt lat="48.98243" lon="5.01791">
        <ele>184</ele>
        <time>2018-03-31T00:48:10Z</time>
      </trkpt>
      <trkpt lat="48.98248" lon="5.01794">
        <ele>184</ele>
        <time>2018-03-31T00:49:10Z</time>
      </trkpt>
      <trkpt lat="48.98254" lon="5.01799">
        <ele>185</ele>
        <time>2018-03-31T00:50:10Z</time>
      </trkpt>
      <trkpt lat="48.98265" lon="5.01813">
        <ele>185</ele>
        <time>2018-03-31T00:51:10Z</time>
      </trkpt>
      <trkpt lat="48.98283" lon="5.01841">
        <ele>185</ele>
        <time>2018-03-31T00:52:10Z</time>
      </trkpt>
      <trkpt lat="48.983" lon="5.01864">
        <ele>186</ele>
        <time>2018-03-31T00:53:10Z</time>
      </trkpt>
      <trkpt lat="48.983" lon="5.01864">
        <ele>186</ele>
        <time>2018-03-31T00:54:10Z</time>
      </trkpt>
      <trkpt lat="48.98293" lon="5.01883">
        <ele>186</ele>
        <time>2018-03-31T00:55:10Z</time>
      </trkpt>
      <trkpt lat="48.98284" lon="5.01906">
        <ele>185</ele>
        <time>2018-03-31T00:56:10Z</time>
      </trkpt>
      <trkpt lat="48.98277" lon="5.01925">
        <ele>185</ele>
        <time>2018-03-31T00:57:10Z</time>
      </trkpt>
      <trkpt lat="48.98274" lon="5.01932">
        <ele>185</ele>
        <time>2018-03-31T00:58:10Z</time>
      </trkpt>
      <trkpt lat="48.98266" lon="5.01954">
        <ele>185</ele>
        <time>2018-03-31T00:59:10Z</time>
      </trkpt>
      <trkpt lat="48.98256" lon="5.01986">
        <ele>185</ele>
        <time>2018-03-31T01:00:10Z</time>
      </trkpt>
      <trkpt lat="48.98253" lon="5.01994">
        <ele>185</ele>
        <time>2018-03-31T01:01:10Z</time>
      </trkpt>
      <trkpt lat="48.98243" lon="5.02026">
        <ele>184</ele>
        <time>2018-03-31T01:02:10Z</time>
      </trkpt>
      <trkpt lat="48.98234" lon="5.02053">
        <ele>184</ele>
        <time>2018-03-31T01:03:10Z</time>
      </trkpt>
      <trkpt lat="48.9821" lon="5.02127">
        <ele>182</ele>
        <time>2018-03-31T01:04:10Z</time>
      </trkpt>
      <trkpt lat="48.98201" lon="5.02161">
        <ele>182</ele>
        <time>2018-03-31T01:05:10Z</time>
      </trkpt>
      <trkpt lat="48.98197" lon="5.02173">
        <ele>181</ele>
        <time>2018-03-31T01:06:10Z</time>
      </trkpt>
      <trkpt lat="48.98193" lon="5.02184">
        <ele>181</ele>
        <time>2018-03-31T01:07:10Z</time>
      </trkpt>
      <trkpt lat="48.98181" lon="5.02227">
        <ele>180</ele>
        <time>2018-03-31T01:08:10Z</time>
      </trkpt>
      <trkpt lat="48.98177" lon="5.02244">
        <ele>179</ele>
        <time>2018-03-31T01:09:10Z</time>
      </trkpt>
      <trkpt lat="48.98172" lon="5.02267">
        <ele>179</ele>
        <time>2018-03-31T01:10:10Z</time>
      </trkpt>
      <trkpt lat="48.98169" lon="5.0229">
        <ele>178</ele>
        <time>2018-03-31T01:11:10Z</time>
      </trkpt>
      <trkpt lat="48.98167" lon="5.02318">
        <ele>177</ele>
        <time>2018-03-31T01:12:10Z</time>
      </trkpt>
      <trkpt lat="48.98167" lon="5.02343">
        <ele>177</ele>
        <time>2018-03-31T01:13:10Z</time>
      </trkpt>
      <trkpt lat="48.98168" lon="5.02356">
        <ele>176</ele>
        <time>2018-03-31T01:14:10Z</time>
      </trkpt>
      <trkpt lat="48.98169" lon="5.02367">
        <ele>176</ele>
        <time>2018-03-31T01:15:10Z</time>
      </trkpt>
      <trkpt lat="48.98171" lon="5.02383">
        <ele>176</ele>
        <time>2018-03-31T01:16:10Z</time>
      </trkpt>
      <trkpt lat="48.98179" lon="5.02439">
        <ele>174</ele>
        <time>2018-03-31T01:17:10Z</time>
      </trkpt>
      <trkpt lat="48.98181" lon="5.02452">
        <ele>174</ele>
        <time>2018-03-31T01:18:10Z</time>
      </trkpt>
      <trkpt lat="48.98183" lon="5.02469">
        <ele>173</ele>
        <time>2018-03-31T01:19:10Z</time>
      </trkpt>
      <trkpt lat="48.98185" lon="5.02494">
        <ele>172</ele>
        <time>2018-03-31T01:20:10Z</time>
      </trkpt>
      <trkpt lat="48.98185" lon="5.02515">
        <ele>172</ele>
        <time>2018-03-31T01:21:10Z</time>
      </trkpt>
      <trkpt lat="48.98184" lon="5.02539">
        <ele>172</ele>
        <time>2018-03-31T01:22:10Z</time>
      </trkpt>
      <trkpt lat="48.98182" lon="5.02558">
        <ele>172</ele>
        <time>2018-03-31T01:23:10Z</time>
      </trkpt>
      <trkpt lat="48.98177" lon="5.02585">
        <ele>172</ele>
        <time>2018-03-31T01:24:10Z</time>
      </trkpt>
      <trkpt lat="48.98167" lon="5.02634">
        <ele>173</ele>
        <time>2018-03-31T01:25:10Z</time>
      </trkpt>
      <trkpt lat="48.98161" lon="5.0266">
        <ele>173</ele>
        <time>2018-03-31T01:26:10Z</time>
      </trkpt>
      <trkpt lat="48.98157" lon="5.02678">
        <ele>173</ele>
        <time>2018-03-31T01:27:10Z</time>
      </trkpt>
      <trkpt lat="48.98155" lon="5.02688">
        <ele>173</ele>
        <time>2018-03-31T01:28:10Z</time>
      </trkpt>
      <trkpt lat="48.98147" lon="5.02737">
        <ele>172</ele>
        <time>2018-03-31T01:29:10Z</time>
      </trkpt>
      <trkpt lat="48.98144" lon="5.02775">
        <ele>171</ele>
        <time>2018-03-31T01:30:10Z</time>
      </trkpt>
      <trkpt lat="48.98146" lon="5.02804">
        <ele>171</ele>
        <time>2018-03-31T01:31:10Z</time>
      </trkpt>
      <trkpt lat="48.98149" lon="5.02822">
        <ele>171</ele>
        <time>2018-03-31T01:32:10Z</time>
      </trkpt>
      <trkpt lat="48.98158" lon="5.02857">
        <ele>171</ele>
        <time>2018-03-31T01:33:10Z</time>
      </trkpt>
      <trkpt lat="48.9817" lon="5.02906">
        <ele>170</ele>
        <time>2018-03-31T01:34:10Z</time>
      </trkpt>
      <trkpt lat="48.98179" lon="5.0294">
        <ele>170</ele>
        <time>2018-03-31T01:35:10Z</time>
      </trkpt>
      <trkpt lat="48.98186" lon="5.02978">
        <ele>170</ele>
        <time>2018-03-31T01:36:10Z</time>
      </trkpt>
      <trkpt lat="48.98193" lon="5.03011">
        <ele>170</ele>
        <time>2018-03-31T01:37:10Z</time>
      </trkpt>
      <trkpt lat="48.98199" lon="5.0305">
        <ele>171</ele>
        <time>2018-03-31T01:38:10Z</time>
      </trkpt>
      <trkpt lat="48.98205" lon="5.03083">
        <ele>171</ele>
        <time>2018-03-31T01:39:10Z</time>
      </trkpt>
      <trkpt lat="48.98209" lon="5.03102">
        <ele>171</ele>
        <time>2018-03-31T01:40:10Z</time>
      </trkpt>
      <trkpt lat="48.98212" lon="5.03123">
        <ele>172</ele>
        <time>2018-03-31T01:41:10Z</time>
      </trkpt>
      <trkpt lat="48.98215" lon="5.03146">
        <ele>173</ele>
        <time>2018-03-31T01:42:10Z</time>
      </trkpt>
      <trkpt lat="48.98217" lon="5.03171">
        <ele>173</ele>
        <time>2018-03-31T01:43:10Z</time>
      </trkpt>
      <trkpt lat="48.98216" lon="5.03208">
        <ele>174</ele>
        <time>2018-03-31T01:44:10Z</time>
      </trkpt>
      <trkpt lat="48.98213" lon="5.03239">
        <ele>174</ele>
        <time>2018-03-31T01:45:10Z</time>
      </trkpt>
      <trkpt lat="48.98203" lon="5.03291">
        <ele>175</ele>
        <time>2018-03-31T01:46:10Z</time>
      </trkpt>
      <trkpt lat="48.98192" lon="5.03327">
        <ele>177</ele>
        <time>2018-03-31T01:47:10Z</time>
      </trkpt>
      <trkpt lat="48.98167" lon="5.03393">
        <ele>178</ele>
        <time>2018-03-31T01:48:10Z</time>
      </trkpt>
      <trkpt lat="48.98148" lon="5.03445">
        <ele>177</ele>
        <time>2018-03-31T01:49:10Z</time>
      </trkpt>
      <trkpt lat="48.98131" lon="5.03498">
        <ele>176</ele>
        <time>2018-03-31T01:50:10Z</time>
      </trkpt>
      <trkpt lat="48.98119" lon="5.0354">
        <ele>177</ele>
        <time>2018-03-31T01:51:10Z</time>
      </trkpt>
      <trkpt lat="48.98108" lon="5.03567">
        <ele>177</ele>
        <time>2018-03-31T01:52:10Z</time>
      </trkpt>
      <trkpt lat="48.98091" lon="5.03601">
        <ele>177</ele>
        <time>2018-03-31T01:53:10Z</time>
      </trkpt>
      <trkpt lat="48.98077" lon="5.03625">
        <ele>177</ele>
        <time>2018-03-31T01:54:10Z</time>
      </trkpt>
      <trkpt lat="48.98068" lon="5.03646">
        <ele>177</ele>
        <time>2018-03-31T01:55:10Z</time>
      </trkpt>
      <trkpt lat="48.98062" lon="5.03668">
        <ele>177</ele>
        <time>2018-03-31T01:56:10Z</time>
      </trkpt>
      <trkpt lat="48.98058" lon="5.03688">
        <ele>177</ele>
        <time>2018-03-31T01:57:10Z</time>
      </trkpt>
      <trkpt lat="48.98052" lon="5.03779">
        <ele>175</ele>
        <time>2018-03-31T01:58:10Z</time>
      </trkpt>
      <trkpt lat="48.98046" lon="5.03855">
        <ele>174</ele>
        <time>2018-03-31T01:59:10Z</time>
      </trkpt>
      <trkpt lat="48.98041" lon="5.03934">
        <ele>174</ele>
        <time>2018-03-31T02:00:10Z</time>
      </trkpt>
      <trkpt lat="48.98042" lon="5.03981">
        <ele>174</ele>
        <time>2018-03-31T02:01:10Z</time>
      </trkpt>
      <trkpt lat="48.98044" lon="5.04031">
        <ele>174</ele>
        <time>2018-03-31T02:02:10Z</time>
      </trkpt>
      <trkpt lat="48.9805" lon="5.04105">
        <ele>175</ele>
        <time>2018-03-31T02:03:10Z</time>
      </trkpt>
      <trkpt lat="48.98058" lon="5.04209">
        <ele>176</ele>
        <time>2018-03-31T02:04:10Z</time>
      </trkpt>
      <trkpt lat="48.98062" lon="5.04287">
        <ele>178</ele>
        <time>2018-03-31T02:05:10Z</time>
      </trkpt>
      <trkpt lat="48.98063" lon="5.04359">
        <ele>179</ele>
        <time>2018-03-31T02:06:10Z</time>
      </trkpt>
      <trkpt lat="48.98064" lon="5.04445">
        <ele>179</ele>
        <time>2018-03-31T02:07:10Z</time>
      </trkpt>
      <trkpt lat="48.98063" lon="5.04488">
        <ele>180</ele>
        <time>2018-03-31T02:08:10Z</time>
      </trkpt>
      <trkpt lat="48.9806" lon="5.04532">
        <ele>180</ele>
        <time>2018-03-31T02:09:10Z</time>
      </trkpt>
      <trkpt lat="48.98051" lon="5.04585">
        <ele>180</ele>
        <time>2018-03-31T02:10:10Z</time>
      </trkpt>
      <trkpt lat="48.98042" lon="5.0463">
        <ele>181</ele>
        <time>2018-03-31T02:11:10Z</time>
      </trkpt>
      <trkpt lat="48.9803" lon="5.04676">
        <ele>181</ele>
        <time>2018-03-31T02:12:10Z</time>
      </trkpt>
      <trkpt lat="48.98013" lon="5.04724">
        <ele>182</ele>
        <time>2018-03-31T02:13:10Z</time>
      </trkpt>
      <trkpt lat="48.97996" lon="5.04761">
        <ele>182</ele>
        <time>2018-03-31T02:14:10Z</time>
      </trkpt>
      <trkpt lat="48.97977" lon="5.04792">
        <ele>181</ele>
        <time>2018-03-31T02:15:10Z</time>
      </trkpt>
      <trkpt lat="48.97967" lon="5.04804">
        <ele>181</ele>
        <time>2018-03-31T02:16:10Z</time>
      </trkpt>
      <trkpt lat="48.97941" lon="5.04838">
        <ele>180</ele>
        <time>2018-03-31T02:17:10Z</time>
      </trkpt>
      <trkpt lat="48.97925" lon="5.04864">
        <ele>179</ele>
        <time>2018-03-31T02:18:10Z</time>
      </trkpt>
      <trkpt lat="48.97917" lon="5.04879">
        <ele>179</ele>
        <time>2018-03-31T02:19:10Z</time>
      </trkpt>
      <trkpt lat="48.97912" lon="5.04896">
        <ele>179</ele>
        <time>2018-03-31T02:20:10Z</time>
      </trkpt>
      <trkpt lat="48.97907" lon="5.04914">
        <ele>179</ele>
        <time>2018-03-31T02:21:10Z</time>
      </trkpt>
      <trkpt lat="48.97905" lon="5.04924">
        <ele>179</ele>
        <time>2018-03-31T02:22:10Z</time>
      </trkpt>
      <trkpt lat="48.97902" lon="5.04962">
        <ele>179</ele>
        <time>2018-03-31T02:23:10Z</time>
      </trkpt>
      <trkpt lat="48.97897" lon="5.05039">
        <ele>178</ele>
        <time>2018-03-31T02:24:10Z</time>
      </trkpt>
      <trkpt lat="48.97896" lon="5.05052">
        <ele>178</ele>
        <time>2018-03-31T02:25:10Z</time>
      </trkpt>
      <trkpt lat="48.97889" lon="5.05094">
        <ele>177</ele>
        <time>2018-03-31T02:26:10Z</time>
      </trkpt>
      <trkpt lat="48.97883" lon="5.05117">
        <ele>177</ele>
        <time>2018-03-31T02:27:10Z</time>
      </trkpt>
      <trkpt lat="48.97875" lon="5.05149">
        <ele>176</ele>
        <time>2018-03-31T02:28:10Z</time>
      </trkpt>
      <trkpt lat="48.9787" lon="5.05175">
        <ele>176</ele>
        <time>2018-03-31T02:29:10Z</time>
      </trkpt>
      <trkpt lat="48.97868" lon="5.0519">
        <ele>175</ele>
        <time>2018-03-31T02:30:10Z</time>
      </trkpt>
      <trkpt lat="48.97866" lon="5.05234">
        <ele>173</ele>
        <time>2018-03-31T02:31:10Z</time>
      </trkpt>
      <trkpt lat="48.97866" lon="5.05336">
        <ele>171</ele>
        <time>2018-03-31T02:32:10Z</time>
      </trkpt>
      <trkpt lat="48.97865" lon="5.05371">
        <ele>171</ele>
        <time>2018-03-31T02:33:10Z</time>
      </trkpt>
      <trkpt lat="48.97858" lon="5.05486">
        <ele>170</ele>
        <time>2018-03-31T02:34:10Z</time>
      </trkpt>
      <trkpt lat="48.97856" lon="5.05505">
        <ele>170</ele>
        <time>2018-03-31T02:35:10Z</time>
      </trkpt>
      <trkpt lat="48.97855" lon="5.05506">
        <ele>170</ele>
        <time>2018-03-31T02:36:10Z</time>
      </trkpt>
      <trkpt lat="48.97853" lon="5.05518">
        <ele>170</ele>
        <time>2018-03-31T02:37:10Z</time>
      </trkpt>
      <trkpt lat="48.9785" lon="5.05533">
        <ele>170</ele>
        <time>2018-03-31T02:38:10Z</time>
      </trkpt>
      <trkpt lat="48.9785" lon="5.05535">
        <ele>170</ele>
        <time>2018-03-31T02:39:10Z</time>
      </trkpt>
      <trkpt lat="48.97842" lon="5.05566">
        <ele>171</ele>
        <time>2018-03-31T02:40:10Z</time>
      </trkpt>
      <trkpt lat="48.9783" lon="5.05611">
        <ele>171</ele>
        <time>2018-03-31T02:41:10Z</time>
      </trkpt>
      <trkpt lat="48.97805" lon="5.05691">
        <ele>171</ele>
        <time>2018-03-31T02:42:10Z</time>
      </trkpt>
      <trkpt lat="48.978" lon="5.05707">
        <ele>171</ele>
        <time>2018-03-31T02:43:10Z</time>
      </trkpt>
      <trkpt lat="48.97793" lon="5.05725">
        <ele>171</ele>
        <time>2018-03-31T02:44:10Z</time>
      </trkpt>
      <trkpt lat="48.97778" lon="5.05755">
        <ele>171</ele>
        <time>2018-03-31T02:45:10Z</time>
      </trkpt>
      <trkpt lat="48.97778" lon="5.05755">
        <ele>171</ele>
        <time>2018-03-31T02:46:10Z</time>
      </trkpt>
      <trkpt lat="48.97778" lon="5.05768">
        <ele>171</ele>
        <time>2018-03-31T02:47:10Z</time>
      </trkpt>
      <trkpt lat="48.97779" lon="5.0578">
        <ele>171</ele>
        <time>2018-03-31T02:48:10Z</time>
      </trkpt>
      <trkpt lat="48.97779" lon="5.05781">
        <ele>171</ele>
        <time>2018-03-31T02:49:10Z</time>
      </trkpt>
      <trkpt lat="48.97779" lon="5.05792">
        <ele>171</ele>
        <time>2018-03-31T02:50:10Z</time>
      </trkpt>
      <trkpt lat="48.97781" lon="5.05817">
        <ele>171</ele>
        <time>2018-03-31T02:51:10Z</time>
      </trkpt>
      <trkpt lat="48.97781" lon="5.05821">
        <ele>171</ele>
        <time>2018-03-31T02:52:10Z</time>
      </trkpt>
      <trkpt lat="48.97782" lon="5.05844">
        <ele>171</ele>
        <time>2018-03-31T02:53:10Z</time>
      </trkpt>
      <trkpt lat="48.97784" lon="5.05864">
        <ele>172</ele>
        <time>2018-03-31T02:54:10Z</time>
      </trkpt>
      <trkpt lat="48.97784" lon="5.05866">
        <ele>172</ele>
        <time>2018-03-31T02:55:10Z</time>
      </trkpt>
      <trkpt lat="48.97787" lon="5.05887">
        <ele>172</ele>
        <time>2018-03-31T02:56:10Z</time>
      </trkpt>
      <trkpt lat="48.97789" lon="5.05915">
        <ele>172</ele>
        <time>2018-03-31T02:57:10Z</time>
      </trkpt>
      <trkpt lat="48.9779" lon="5.05921">
        <ele>173</ele>
        <time>2018-03-31T02:58:10Z</time>
      </trkpt>
      <trkpt lat="48.97792" lon="5.0594">
        <ele>173</ele>
        <time>2018-03-31T02:59:10Z</time>
      </trkpt>
      <trkpt lat="48.97793" lon="5.05953">
        <ele>173</ele>
        <time>2018-03-31T03:00:10Z</time>
      </trkpt>
      <trkpt lat="48.97793" lon="5.05958">
        <ele>173</ele>
        <time>2018-03-31T03:01:10Z</time>
      </trkpt>
      <trkpt lat="48.97795" lon="5.0598">
        <ele>173</ele>
        <time>2018-03-31T03:02:10Z</time>
      </trkpt>
      <trkpt lat="48.97798" lon="5.06012">
        <ele>174</ele>
        <time>2018-03-31T03:03:10Z</time>
      </trkpt>
      <trkpt lat="48.97799" lon="5.0603">
        <ele>174</ele>
        <time>2018-03-31T03:04:10Z</time>
      </trkpt>
      <trkpt lat="48.97799" lon="5.06039">
        <ele>174</ele>
        <time>2018-03-31T03:05:10Z</time>
      </trkpt>
      <trkpt lat="48.978" lon="5.06054">
        <ele>174</ele>
        <time>2018-03-31T03:06:10Z</time>
      </trkpt>
      <trkpt lat="48.97801" lon="5.06064">
        <ele>174</ele>
        <time>2018-03-31T03:07:10Z</time>
      </trkpt>
      <trkpt lat="48.978" lon="5.06069">
        <ele>174</ele>
        <time>2018-03-31T03:08:10Z</time>
      </trkpt>
      <trkpt lat="48.978" lon="5.06072">
        <ele>174</ele>
        <time>2018-03-31T03:09:10Z</time>
      </trkpt>
      <trkpt lat="48.978" lon="5.06074">
        <ele>174</ele>
        <time>2018-03-31T03:10:10Z</time>
      </trkpt>
      <trkpt lat="48.97802" lon="5.06089">
        <ele>175</ele>
        <time>2018-03-31T03:11:10Z</time>
      </trkpt>
      <trkpt lat="48.97821" lon="5.06107">
        <ele>175</ele>
        <time>2018-03-31T03:12:10Z</time>
      </trkpt>
      <trkpt lat="48.97821" lon="5.06107">
        <ele>175</ele>
        <time>2018-03-31T03:13:10Z</time>
      </trkpt>
      <trkpt lat="48.9782" lon="5.06107">
        <ele>175</ele>
        <time>2018-03-31T03:14:10Z</time>
      </trkpt>
      <trkpt lat="48.9782" lon="5.06108">
        <ele>175</ele>
        <time>2018-03-31T03:15:10Z</time>
      </trkpt>
      <trkpt lat="48.9782" lon="5.06109">
        <ele>175</ele>
        <time>2018-03-31T03:16:10Z</time>
      </trkpt>
      <trkpt lat="48.9782" lon="5.0611">
        <ele>175</ele>
        <time>2018-03-31T03:17:10Z</time>
      </trkpt>
      <trkpt lat="48.9782" lon="5.06111">
        <ele>175</ele>
        <time>2018-03-31T03:18:10Z</time>
      </trkpt>
      <trkpt lat="48.97821" lon="5.06111">
        <ele>175</ele>
        <time>2018-03-31T03:19:10Z</time>
      </trkpt>
      <trkpt lat="48.97821" lon="5.06112">
        <ele>175</ele>
        <time>2018-03-31T03:20:10Z</time>
      </trkpt>
      <trkpt lat="48.97821" lon="5.06113">
        <ele>175</ele>
        <time>2018-03-31T03:21:10Z</time>
      </trkpt>
      <trkpt lat="48.97821" lon="5.06114">
        <ele>175</ele>
        <time>2018-03-31T03:22:10Z</time>
      </trkpt>
      <trkpt lat="48.97822" lon="5.06114">
        <ele>175</ele>
        <time>2018-03-31T03:23:10Z</time>
      </trkpt>
      <trkpt lat="48.97822" lon="5.06115">
        <ele>175</ele>
        <time>2018-03-31T03:24:10Z</time>
      </trkpt>
      <trkpt lat="48.97822" lon="5.06116">
        <ele>175</ele>
        <time>2018-03-31T03:25:10Z</time>
      </trkpt>
      <trkpt lat="48.97823" lon="5.06116">
        <ele>175</ele>
        <time>2018-03-31T03:26:10Z</time>
      </trkpt>
      <trkpt lat="48.97824" lon="5.06117">
        <ele>175</ele>
        <time>2018-03-31T03:27:10Z</time>
      </trkpt>
      <trkpt lat="48.97825" lon="5.06117">
        <ele>175</ele>
        <time>2018-03-31T03:28:10Z</time>
      </trkpt>
      <trkpt lat="48.97826" lon="5.06117">
        <ele>175</ele>
        <time>2018-03-31T03:29:10Z</time>
      </trkpt>
      <trkpt lat="48.97827" lon="5.06117">
        <ele>175</ele>
        <time>2018-03-31T03:30:10Z</time>
      </trkpt>
      <trkpt lat="48.97828" lon="5.06117">
        <ele>175</ele>
        <time>2018-03-31T03:31:10Z</time>
      </trkpt>
      <trkpt lat="48.97829" lon="5.06117">
        <ele>175</ele>
        <time>2018-03-31T03:32:10Z</time>
      </trkpt>
      <trkpt lat="48.9783" lon="5.06116">
        <ele>175</ele>
        <time>2018-03-31T03:33:10Z</time>
      </trkpt>
      <trkpt lat="48.9783" lon="5.06115">
        <ele>175</ele>
        <time>2018-03-31T03:34:10Z</time>
      </trkpt>
      <trkpt lat="48.97831" lon="5.06115">
        <ele>175</ele>
        <time>2018-03-31T03:35:10Z</time>
      </trkpt>
      <trkpt lat="48.97831" lon="5.06114">
        <ele>175</ele>
        <time>2018-03-31T03:36:10Z</time>
      </trkpt>
      <trkpt lat="48.97831" lon="5.06113">
        <ele>175</ele>
        <time>2018-03-31T03:37:10Z</time>
      </trkpt>
      <trkpt lat="48.97832" lon="5.06113">
        <ele>175</ele>
        <time>2018-03-31T03:38:10Z</time>
      </trkpt>
      <trkpt lat="48.97832" lon="5.06112">
        <ele>175</ele>
        <time>2018-03-31T03:39:10Z</time>
      </trkpt>
      <trkpt lat="48.97832" lon="5.06111">
        <ele>175</ele>
        <time>2018-03-31T03:40:10Z</time>
      </trkpt>
      <trkpt lat="48.97832" lon="5.0611">
        <ele>175</ele>
        <time>2018-03-31T03:41:10Z</time>
      </trkpt>
      <trkpt lat="48.97832" lon="5.06109">
        <ele>175</ele>
        <time>2018-03-31T03:42:10Z</time>
      </trkpt>
      <trkpt lat="48.97832" lon="5.06108">
        <ele>175</ele>
        <time>2018-03-31T03:43:10Z</time>
      </trkpt>
      <trkpt lat="48.97832" lon="5.06107">
        <ele>175</ele>
        <time>2018-03-31T03:44:10Z</time>
      </trkpt>
      <trkpt lat="48.97832" lon="5.06106">
        <ele>175</ele>
        <time>2018-03-31T03:45:10Z</time>
      </trkpt>
      <trkpt lat="48.97831" lon="5.06106">
        <ele>175</ele>
        <time>2018-03-31T03:46:10Z</time>
      </trkpt>
      <trkpt lat="48.97831" lon="5.06105">
        <ele>175</ele>
        <time>2018-03-31T03:47:10Z</time>
      </trkpt>
      <trkpt lat="48.97835" lon="5.061">
        <ele>175</ele>
        <time>2018-03-31T03:48:10Z</time>
      </trkpt>
      <trkpt lat="48.97838" lon="5.06094">
        <ele>175</ele>
        <time>2018-03-31T03:49:10Z</time>
      </trkpt>
      <trkpt lat="48.97852" lon="5.06087">
        <ele>176</ele>
        <time>2018-03-31T03:50:10Z</time>
      </trkpt>
      <trkpt lat="48.97861" lon="5.06086">
        <ele>176</ele>
        <time>2018-03-31T03:51:10Z</time>
      </trkpt>
      <trkpt lat="48.97878" lon="5.06085">
        <ele>177</ele>
        <time>2018-03-31T03:52:10Z</time>
      </trkpt>
      <trkpt lat="48.97886" lon="5.06086">
        <ele>177</ele>
        <time>2018-03-31T03:53:10Z</time>
      </trkpt>
      <trkpt lat="48.97908" lon="5.06085">
        <ele>178</ele>
        <time>2018-03-31T03:54:10Z</time>
      </trkpt>
      <trkpt lat="48.97908" lon="5.06085">
        <ele>178</ele>
        <time>2018-03-31T03:55:10Z</time>
      </trkpt>
      <trkpt lat="48.97909" lon="5.06047">
        <ele>177</ele>
        <time>2018-03-31T03:56:10Z</time>
      </trkpt>
      <trkpt lat="48.97909" lon="5.06008">
        <ele>177</ele>
        <time>2018-03-31T03:57:10Z</time>
      </trkpt>
      <trkpt lat="48.97909" lon="5.05972">
        <ele>176</ele>
        <time>2018-03-31T03:58:10Z</time>
      </trkpt>
      <trkpt lat="48.97909" lon="5.05965">
        <ele>176</ele>
        <time>2018-03-31T03:59:10Z</time>
      </trkpt>
      <trkpt lat="48.97909" lon="5.05952">
        <ele>176</ele>
        <time>2018-03-31T04:00:10Z</time>
      </trkpt>
      <trkpt lat="48.97909" lon="5.05924">
        <ele>176</ele>
        <time>2018-03-31T04:01:10Z</time>
      </trkpt>
      <trkpt lat="48.97908" lon="5.05897">
        <ele>175</ele>
        <time>2018-03-31T04:02:10Z</time>
      </trkpt>
      <trkpt lat="48.97908" lon="5.05864">
        <ele>174</ele>
        <time>2018-03-31T04:03:10Z</time>
      </trkpt>
      <trkpt lat="48.97908" lon="5.05864">
        <ele>174</ele>
        <time>2018-03-31T04:04:10Z</time>
      </trkpt>
      <trkpt lat="48.979" lon="5.05868">
        <ele>174</ele>
        <time>2018-03-31T04:05:10Z</time>
      </trkpt>
      <trkpt lat="48.97894" lon="5.0587">
        <ele>174</ele>
        <time>2018-03-31T04:06:10Z</time>
      </trkpt>
      <trkpt lat="48.97892" lon="5.0587">
        <ele>174</ele>
        <time>2018-03-31T04:07:10Z</time>
      </trkpt>
      <trkpt lat="48.97878" lon="5.05873">
        <ele>173</ele>
        <time>2018-03-31T04:08:10Z</time>
      </trkpt>
      <trkpt lat="48.97869" lon="5.05874">
        <ele>173</ele>
        <time>2018-03-31T04:09:10Z</time>
      </trkpt>
      <trkpt lat="48.97859" lon="5.05872">
        <ele>173</ele>
        <time>2018-03-31T04:10:10Z</time>
      </trkpt>
      <trkpt lat="48.97833" lon="5.05869">
        <ele>172</ele>
        <time>2018-03-31T04:11:10Z</time>
      </trkpt>
      <trkpt lat="48.97803" lon="5.05868">
        <ele>172</ele>
        <time>2018-03-31T04:12:10Z</time>
      </trkpt>
      <trkpt lat="48.97794" lon="5.05866">
        <ele>172</ele>
        <time>2018-03-31T04:13:10Z</time>
      </trkpt>
      <trkpt lat="48.97784" lon="5.05864">
        <ele>172</ele>
        <time>2018-03-31T04:14:10Z</time>
      </trkpt>
      <trkpt lat="48.97784" lon="5.05864">
        <ele>172</ele>
        <time>2018-03-31T04:15:10Z</time>
      </trkpt>
      <trkpt lat="48.97782" lon="5.05844">
        <ele>171</ele>
        <time>2018-03-31T04:16:10Z</time>
      </trkpt>
      <trkpt lat="48.97781" lon="5.05821">
        <ele>171</ele>
        <time>2018-03-31T04:17:10Z</time>
      </trkpt>
      <trkpt lat="48.97781" lon="5.05817">
        <ele>171</ele>
        <time>2018-03-31T04:18:10Z</time>
      </trkpt>
      <trkpt lat="48.97779" lon="5.05792">
        <ele>171</ele>
        <time>2018-03-31T04:19:10Z</time>
      </trkpt>
      <trkpt lat="48.97779" lon="5.05781">
        <ele>171</ele>
        <time>2018-03-31T04:20:10Z</time>
      </trkpt>
      <trkpt lat="48.97779" lon="5.0578">
        <ele>171</ele>
        <time>2018-03-31T04:21:10Z</time>
      </trkpt>
      <trkpt lat="48.97778" lon="5.05768">
        <ele>171</ele>
        <time>2018-03-31T04:22:10Z</time>
      </trkpt>
      <trkpt lat="48.97778" lon="5.05755">
        <ele>171</ele>
        <time>2018-03-31T04:23:10Z</time>
      </trkpt>
      <trkpt lat="48.97778" lon="5.05755">
        <ele>171</ele>
        <time>2018-03-31T04:24:10Z</time>
      </trkpt>
      <trkpt lat="48.97793" lon="5.05725">
        <ele>171</ele>
        <time>2018-03-31T04:25:10Z</time>
      </trkpt>
      <trkpt lat="48.978" lon="5.05707">
        <ele>171</ele>
        <time>2018-03-31T04:26:10Z</time>
      </trkpt>
      <trkpt lat="48.97805" lon="5.05691">
        <ele>171</ele>
        <time>2018-03-31T04:27:10Z</time>
      </trkpt>
      <trkpt lat="48.9783" lon="5.05611">
        <ele>171</ele>
        <time>2018-03-31T04:28:10Z</time>
      </trkpt>
      <trkpt lat="48.97842" lon="5.05566">
        <ele>171</ele>
        <time>2018-03-31T04:29:10Z</time>
      </trkpt>
      <trkpt lat="48.9785" lon="5.05535">
        <ele>170</ele>
        <time>2018-03-31T04:30:10Z</time>
      </trkpt>
      <trkpt lat="48.9785" lon="5.05533">
        <ele>170</ele>
        <time>2018-03-31T04:31:10Z</time>
      </trkpt>
      <trkpt lat="48.97853" lon="5.05518">
        <ele>170</ele>
        <time>2018-03-31T04:32:10Z</time>
      </trkpt>
      <trkpt lat="48.97855" lon="5.05506">
        <ele>170</ele>
        <time>2018-03-31T04:33:10Z</time>
      </trkpt>
      <trkpt lat="48.97856" lon="5.05505">
        <ele>170</ele>
        <time>2018-03-31T04:34:10Z</time>
      </trkpt>
      <trkpt lat="48.97858" lon="5.05486">
        <ele>170</ele>
        <time>2018-03-31T04:35:10Z</time>
      </trkpt>
      <trkpt lat="48.97865" lon="5.05371">
        <ele>171</ele>
        <time>2018-03-31T04:36:10Z</time>
      </trkpt>
      <trkpt lat="48.97866" lon="5.05336">
        <ele>171</ele>
        <time>2018-03-31T04:37:10Z</time>
      </trkpt>
      <trkpt lat="48.97866" lon="5.05234">
        <ele>173</ele>
        <time>2018-03-31T04:38:10Z</time>
      </trkpt>
      <trkpt lat="48.97868" lon="5.0519">
        <ele>175</ele>
        <time>2018-03-31T04:39:10Z</time>
      </trkpt>
      <trkpt lat="48.9787" lon="5.05175">
        <ele>176</ele>
        <time>2018-03-31T04:40:10Z</time>
      </trkpt>
      <trkpt lat="48.97875" lon="5.05149">
        <ele>176</ele>
        <time>2018-03-31T04:41:10Z</time>
      </trkpt>
      <trkpt lat="48.97883" lon="5.05117">
        <ele>177</ele>
        <time>2018-03-31T04:42:10Z</time>
      </trkpt>
      <trkpt lat="48.97889" lon="5.05094">
        <ele>177</ele>
        <time>2018-03-31T04:43:10Z</time>
      </trkpt>
      <trkpt lat="48.97896" lon="5.05052">
        <ele>178</ele>
        <time>2018-03-31T04:44:10Z</time>
      </trkpt>
      <trkpt lat="48.97897" lon="5.05039">
        <ele>178</ele>
        <time>2018-03-31T04:45:10Z</time>
      </trkpt>
      <trkpt lat="48.97902" lon="5.04962">
        <ele>179</ele>
        <time>2018-03-31T04:46:10Z</time>
      </trkpt>
      <trkpt lat="48.97905" lon="5.04924">
        <ele>179</ele>
        <time>2018-03-31T04:47:10Z</time>
      </trkpt>
      <trkpt lat="48.97907" lon="5.04914">
        <ele>179</ele>
        <time>2018-03-31T04:48:10Z</time>
      </trkpt>
      <trkpt lat="48.97912" lon="5.04896">
        <ele>179</ele>
        <time>2018-03-31T04:49:10Z</time>
      </trkpt>
      <trkpt lat="48.97917" lon="5.04879">
        <ele>179</ele>
        <time>2018-03-31T04:50:10Z</time>
      </trkpt>
      <trkpt lat="48.97925" lon="5.04864">
        <ele>179</ele>
        <time>2018-03-31T04:51:10Z</time>
      </trkpt>
      <trkpt lat="48.97941" lon="5.04838">
        <ele>180</ele>
        <time>2018-03-31T04:52:10Z</time>
      </trkpt>
      <trkpt lat="48.97967" lon="5.04804">
        <ele>181</ele>
        <time>2018-03-31T04:53:10Z</time>
      </trkpt>
      <trkpt lat="48.97977" lon="5.04792">
        <ele>181</ele>
        <time>2018-03-31T04:54:10Z</time>
      </trkpt>
      <trkpt lat="48.97996" lon="5.04761">
        <ele>182</ele>
        <time>2018-03-31T04:55:10Z</time>
      </trkpt>
      <trkpt lat="48.98013" lon="5.04724">
        <ele>182</ele>
        <time>2018-03-31T04:56:10Z</time>
      </trkpt>
      <trkpt lat="48.9803" lon="5.04676">
        <ele>181</ele>
        <time>2018-03-31T04:57:10Z</time>
      </trkpt>
      <trkpt lat="48.98042" lon="5.0463">
        <ele>181</ele>
        <time>2018-03-31T04:58:10Z</time>
      </trkpt>
      <trkpt lat="48.98051" lon="5.04585">
        <ele>180</ele>
        <time>2018-03-31T04:59:10Z</time>
      </trkpt>
      <trkpt lat="48.9806" lon="5.04532">
        <ele>180</ele>
        <time>2018-03-31T05:00:10Z</time>
      </trkpt>
      <trkpt lat="48.98063" lon="5.04488">
        <ele>180</ele>
        <time>2018-03-31T05:01:10Z</time>
      </trkpt>
      <trkpt lat="48.98064" lon="5.04445">
        <ele>179</ele>
        <time>2018-03-31T05:02:10Z</time>
      </trkpt>
      <trkpt lat="48.98063" lon="5.04359">
        <ele>179</ele>
        <time>2018-03-31T05:03:10Z</time>
      </trkpt>
      <trkpt lat="48.98062" lon="5.04287">
        <ele>178</ele>
        <time>2018-03-31T05:04:10Z</time>
      </trkpt>
      <trkpt lat="48.98058" lon="5.04209">
        <ele>176</ele>
        <time>2018-03-31T05:05:10Z</time>
      </trkpt>
      <trkpt lat="48.9805" lon="5.04105">
        <ele>175</ele>
        <time>2018-03-31T05:06:10Z</time>
      </trkpt>
      <trkpt lat="48.98044" lon="5.04031">
        <ele>174</ele>
        <time>2018-03-31T05:07:10Z</time>
      </trkpt>
      <trkpt lat="48.98042" lon="5.03981">
        <ele>174</ele>
        <time>2018-03-31T05:08:10Z</time>
      </trkpt>
      <trkpt lat="48.98041" lon="5.03934">
        <ele>174</ele>
        <time>2018-03-31T05:09:10Z</time>
      </trkpt>
      <trkpt lat="48.98046" lon="5.03855">
        <ele>174</ele>
        <time>2018-03-31T05:10:10Z</time>
      </trkpt>
      <trkpt lat="48.98052" lon="5.03779">
        <ele>175</ele>
        <time>2018-03-31T05:11:10Z</time>
      </trkpt>
      <trkpt lat="48.98058" lon="5.03688">
        <ele>177</ele>
        <time>2018-03-31T05:12:10Z</time>
      </trkpt>
      <trkpt lat="48.98062" lon="5.03668">
        <ele>177</ele>
        <time>2018-03-31T05:13:10Z</time>
      </trkpt>
      <trkpt lat="48.98068" lon="5.03646">
        <ele>177</ele>
        <time>2018-03-31T05:14:10Z</time>
      </trkpt>
      <trkpt lat="48.98077" lon="5.03625">
        <ele>177</ele>
        <time>2018-03-31T05:15:10Z</time>
      </trkpt>
      <trkpt lat="48.98091" lon="5.03601">
        <ele>177</ele>
        <time>2018-03-31T05:16:10Z</time>
      </trkpt>
      <trkpt lat="48.98108" lon="5.03567">
        <ele>177</ele>
        <time>2018-03-31T05:17:10Z</time>
      </trkpt>
      <trkpt lat="48.98119" lon="5.0354">
        <ele>177</ele>
        <time>2018-03-31T05:18:10Z</time>
      </trkpt>
      <trkpt lat="48.98131" lon="5.03498">
        <ele>176</ele>
        <time>2018-03-31T05:19:10Z</time>
      </trkpt>
      <trkpt lat="48.98148" lon="5.03445">
        <ele>177</ele>
        <time>2018-03-31T05:20:10Z</time>
      </trkpt>
      <trkpt lat="48.98167" lon="5.03393">
        <ele>178</ele>
        <time>2018-03-31T05:21:10Z</time>
      </trkpt>
      <trkpt lat="48.98192" lon="5.03327">
        <ele>177</ele>
        <time>2018-03-31T05:22:10Z</time>
      </trkpt>
      <trkpt lat="48.98203" lon="5.03291">
        <ele>175</ele>
        <time>2018-03-31T05:23:10Z</time>
      </trkpt>
      <trkpt lat="48.98213" lon="5.03239">
        <ele>174</ele>
        <time>2018-03-31T05:24:10Z</time>
      </trkpt>
      <trkpt lat="48.98216" lon="5.03208">
        <ele>174</ele>
        <time>2018-03-31T05:25:10Z</time>
      </trkpt>
      <trkpt lat="48.98217" lon="5.03171">
        <ele>173</ele>
        <time>2018-03-31T05:26:10Z</time>
      </trkpt>
      <trkpt lat="48.98215" lon="5.03146">
        <ele>173</ele>
        <time>2018-03-31T05:27:10Z</time>
      </trkpt>
      <trkpt lat="48.98212" lon="5.03123">
        <ele>172</ele>
        <time>2018-03-31T05:28:10Z</time>
      </trkpt>
      <trkpt lat="48.98209" lon="5.03102">
        <ele>171</ele>
        <time>2018-03-31T05:29:10Z</time>
      </trkpt>
      <trkpt lat="48.98205" lon="5.03083">
        <ele>171</ele>
        <time>2018-03-31T05:30:10Z</time>
      </trkpt>
      <trkpt lat="48.98199" lon="5.0305">
        <ele>171</ele>
        <time>2018-03-31T05:31:10Z</time>
      </trkpt>
      <trkpt lat="48.98193" lon="5.03011">
        <ele>170</ele>
        <time>2018-03-31T05:32:10Z</time>
      </trkpt>
      <trkpt lat="48.98186" lon="5.02978">
        <ele>170</ele>
        <time>2018-03-31T05:33:10Z</time>
      </trkpt>
      <trkpt lat="48.98179" lon="5.0294">
        <ele>170</ele>
        <time>2018-03-31T05:34:10Z</time>
      </trkpt>
      <trkpt lat="48.9817" lon="5.02906">
        <ele>170</ele>
        <time>2018-03-31T05:35:10Z</time>
      </trkpt>
      <trkpt lat="48.98158" lon="5.02857">
        <ele>171</ele>
        <time>2018-03-31T05:36:10Z</time>
      </trkpt>
      <trkpt lat="48.98149" lon="5.02822">
        <ele>171</ele>
        <time>2018-03-31T05:37:10Z</time>
      </trkpt>
      <trkpt lat="48.98146" lon="5.02804">
        <ele>171</ele>
        <time>2018-03-31T05:38:10Z</time>
      </trkpt>
      <trkpt lat="48.98144" lon="5.02775">
        <ele>171</ele>
        <time>2018-03-31T05:39:10Z</time>
      </trkpt>
      <trkpt lat="48.98147" lon="5.02737">
        <ele>172</ele>
        <time>2018-03-31T05:40:10Z</time>
      </trkpt>
      <trkpt lat="48.98155" lon="5.02688">
        <ele>173</ele>
        <time>2018-03-31T05:41:10Z</time>
      </trkpt>
      <trkpt lat="48.98157" lon="5.02678">
        <ele>173</ele>
        <time>2018-03-31T05:42:10Z</time>
      </trkpt>
      <trkpt lat="48.98161" lon="5.0266">
        <ele>173</ele>
        <time>2018-03-31T05:43:10Z</time>
      </trkpt>
      <trkpt lat="48.98167" lon="5.02634">
        <ele>173</ele>
        <time>2018-03-31T05:44:10Z</time>
      </trkpt>
      <trkpt lat="48.98177" lon="5.02585">
        <ele>172</ele>
        <time>2018-03-31T05:45:10Z</time>
      </trkpt>
      <trkpt lat="48.98182" lon="5.02558">
        <ele>172</ele>
        <time>2018-03-31T05:46:10Z</time>
      </trkpt>
      <trkpt lat="48.98184" lon="5.02539">
        <ele>172</ele>
        <time>2018-03-31T05:47:10Z</time>
      </trkpt>
      <trkpt lat="48.98185" lon="5.02515">
        <ele>172</ele>
        <time>2018-03-31T05:48:10Z</time>
      </trkpt>
      <trkpt lat="48.98185" lon="5.02494">
        <ele>172</ele>
        <time>2018-03-31T05:49:10Z</time>
      </trkpt>
      <trkpt lat="48.98183" lon="5.02469">
        <ele>173</ele>
        <time>2018-03-31T05:50:10Z</time>
      </trkpt>
      <trkpt lat="48.98181" lon="5.02452">
        <ele>174</ele>
        <time>2018-03-31T05:51:10Z</time>
      </trkpt>
      <trkpt lat="48.98179" lon="5.02439">
        <ele>174</ele>
        <time>2018-03-31T05:52:10Z</time>
      </trkpt>
      <trkpt lat="48.98171" lon="5.02383">
        <ele>176</ele>
        <time>2018-03-31T05:53:10Z</time>
      </trkpt>
      <trkpt lat="48.98169" lon="5.02367">
        <ele>176</ele>
        <time>2018-03-31T05:54:10Z</time>
      </trkpt>
      <trkpt lat="48.98168" lon="5.02356">
        <ele>176</ele>
        <time>2018-03-31T05:55:10Z</time>
      </trkpt>
      <trkpt lat="48.98167" lon="5.02343">
        <ele>177</ele>
        <time>2018-03-31T05:56:10Z</time>
      </trkpt>
      <trkpt lat="48.98167" lon="5.02318">
        <ele>177</ele>
        <time>2018-03-31T05:57:10Z</time>
      </trkpt>
      <trkpt lat="48.98169" lon="5.0229">
        <ele>178</ele>
        <time>2018-03-31T05:58:10Z</time>
      </trkpt>
      <trkpt lat="48.98172" lon="5.02267">
        <ele>179</ele>
        <time>2018-03-31T05:59:10Z</time>
      </trkpt>
      <trkpt lat="48.98177" lon="5.02244">
        <ele>179</ele>
        <time>2018-03-31T06:00:10Z</time>
      </trkpt>
      <trkpt lat="48.98181" lon="5.02227">
        <ele>180</ele>
        <time>2018-03-31T06:01:10Z</time>
      </trkpt>
      <trkpt lat="48.98193" lon="5.02184">
        <ele>181</ele>
        <time>2018-03-31T06:02:10Z</time>
      </trkpt>
      <trkpt lat="48.98197" lon="5.02173">
        <ele>181</ele>
        <time>2018-03-31T06:03:10Z</time>
      </trkpt>
      <trkpt lat="48.98201" lon="5.02161">
        <ele>182</ele>
        <time>2018-03-31T06:04:10Z</time>
      </trkpt>
      <trkpt lat="48.9821" lon="5.02127">
        <ele>182</ele>
        <time>2018-03-31T06:05:10Z</time>
      </trkpt>
      <trkpt lat="48.98234" lon="5.02053">
        <ele>184</ele>
        <time>2018-03-31T06:06:10Z</time>
      </trkpt>
      <trkpt lat="48.98243" lon="5.02026">
        <ele>184</ele>
        <time>2018-03-31T06:07:10Z</time>
      </trkpt>
      <trkpt lat="48.98253" lon="5.01994">
        <ele>185</ele>
        <time>2018-03-31T06:08:10Z</time>
      </trkpt>
      <trkpt lat="48.98256" lon="5.01986">
        <ele>185</ele>
        <time>2018-03-31T06:09:10Z</time>
      </trkpt>
      <trkpt lat="48.98266" lon="5.01954">
        <ele>185</ele>
        <time>2018-03-31T06:10:10Z</time>
      </trkpt>
      <trkpt lat="48.98274" lon="5.01932">
        <ele>185</ele>
        <time>2018-03-31T06:11:10Z</time>
      </trkpt>
      <trkpt lat="48.98277" lon="5.01925">
        <ele>185</ele>
        <time>2018-03-31T06:12:10Z</time>
      </trkpt>
      <trkpt lat="48.98284" lon="5.01906">
        <ele>185</ele>
        <time>2018-03-31T06:13:10Z</time>
      </trkpt>
      <trkpt lat="48.98293" lon="5.01883">
        <ele>186</ele>
        <time>2018-03-31T06:14:10Z</time>
      </trkpt>
      <trkpt lat="48.983" lon="5.01864">
        <ele>186</ele>
        <time>2018-03-31T06:15:10Z</time>
      </trkpt>
      <trkpt lat="48.98309" lon="5.01843">
        <ele>186</ele>
        <time>2018-03-31T06:16:10Z</time>
      </trkpt>
      <trkpt lat="48.98329" lon="5.01801">
        <ele>187</ele>
        <time>2018-03-31T06:17:10Z</time>
      </trkpt>
      <trkpt lat="48.98348" lon="5.01771">
        <ele>188</ele>
        <time>2018-03-31T06:18:10Z</time>
      </trkpt>
      <trkpt lat="48.9837" lon="5.01739">
        <ele>188</ele>
        <time>2018-03-31T06:19:10Z</time>
      </trkpt>
      <trkpt lat="48.9839" lon="5.0171">
        <ele>188</ele>
        <time>2018-03-31T06:20:10Z</time>
      </trkpt>
      <trkpt lat="48.98407" lon="5.0169">
        <ele>188</ele>
        <time>2018-03-31T06:21:10Z</time>
      </trkpt>
      <trkpt lat="48.98425" lon="5.01671">
        <ele>187</ele>
        <time>2018-03-31T06:22:10Z</time>
      </trkpt>
      <trkpt lat="48.98435" lon="5.01661">
        <ele>186</ele>
        <time>2018-03-31T06:23:10Z</time>
      </trkpt>
      <trkpt lat="48.98442" lon="5.01653">
        <ele>186</ele>
        <time>2018-03-31T06:24:10Z</time>
      </trkpt>
      <trkpt lat="48.98467" lon="5.01627">
        <ele>184</ele>
        <time>2018-03-31T06:25:10Z</time>
      </trkpt>
      <trkpt lat="48.98495" lon="5.01596">
        <ele>183</ele>
        <time>2018-03-31T06:26:10Z</time>
      </trkpt>
      <trkpt lat="48.98503" lon="5.01587">
        <ele>183</ele>
        <time>2018-03-31T06:27:10Z</time>
      </trkpt>
      <trkpt lat="48.98542" lon="5.01541">
        <ele>183</ele>
        <time>2018-03-31T06:28:10Z</time>
      </trkpt>
      <trkpt lat="48.98614" lon="5.01461">
        <ele>185</ele>
        <time>2018-03-31T06:29:10Z</time>
      </trkpt>
      <trkpt lat="48.98663" lon="5.01406">
        <ele>186</ele>
        <time>2018-03-31T06:30:10Z</time>
      </trkpt>
      <trkpt lat="48.98677" lon="5.01393">
        <ele>186</ele>
        <time>2018-03-31T06:31:10Z</time>
      </trkpt>
      <trkpt lat="48.98682" lon="5.01387">
        <ele>185</ele>
        <time>2018-03-31T06:32:10Z</time>
      </trkpt>
      <trkpt lat="48.98688" lon="5.01374">
        <ele>185</ele>
        <time>2018-03-31T06:33:10Z</time>
      </trkpt>
      <trkpt lat="48.98692" lon="5.01364">
        <ele>185</ele>
        <time>2018-03-31T06:34:10Z</time>
      </trkpt>
      <trkpt lat="48.98698" lon="5.0134">
        <ele>185</ele>
        <time>2018-03-31T06:35:10Z</time>
      </trkpt>
      <trkpt lat="48.98706" lon="5.01304">
        <ele>185</ele>
        <time>2018-03-31T06:36:10Z</time>
      </trkpt>
      <trkpt lat="48.98713" lon="5.01264">
        <ele>183</ele>
        <time>2018-03-31T06:37:10Z</time>
      </trkpt>
      <trkpt lat="48.98717" lon="5.0123">
        <ele>182</ele>
        <time>2018-03-31T06:38:10Z</time>
      </trkpt>
      <trkpt lat="48.98721" lon="5.01194">
        <ele>181</ele>
        <time>2018-03-31T06:39:10Z</time>
      </trkpt>
      <trkpt lat="48.98724" lon="5.01151">
        <ele>180</ele>
        <time>2018-03-31T06:40:10Z</time>
      </trkpt>
      <trkpt lat="48.98725" lon="5.01115">
        <ele>178</ele>
        <time>2018-03-31T06:41:10Z</time>
      </trkpt>
      <trkpt lat="48.98724" lon="5.01053">
        <ele>176</ele>
        <time>2018-03-31T06:42:10Z</time>
      </trkpt>
      <trkpt lat="48.98722" lon="5.00975">
        <ele>174</ele>
        <time>2018-03-31T06:43:10Z</time>
      </trkpt>
      <trkpt lat="48.98721" lon="5.00915">
        <ele>174</ele>
        <time>2018-03-31T06:44:10Z</time>
      </trkpt>
      <trkpt lat="48.98719" lon="5.00867">
        <ele>174</ele>
        <time>2018-03-31T06:45:10Z</time>
      </trkpt>
      <trkpt lat="48.98717" lon="5.00833">
        <ele>174</ele>
        <time>2018-03-31T06:46:10Z</time>
      </trkpt>
      <trkpt lat="48.98712" lon="5.00791">
        <ele>175</ele>
        <time>2018-03-31T06:47:10Z</time>
      </trkpt>
      <trkpt lat="48.98703" lon="5.0073">
        <ele>175</ele>
        <time>2018-03-31T06:48:10Z</time>
      </trkpt>
      <trkpt lat="48.98699" lon="5.00702">
        <ele>176</ele>
        <time>2018-03-31T06:49:10Z</time>
      </trkpt>
      <trkpt lat="48.98695" lon="5.00656">
        <ele>176</ele>
        <time>2018-03-31T06:50:10Z</time>
      </trkpt>
      <trkpt lat="48.98691" lon="5.00616">
        <ele>175</ele>
        <time>2018-03-31T06:51:10Z</time>
      </trkpt>
      <trkpt lat="48.98689" lon="5.00566">
        <ele>174</ele>
        <time>2018-03-31T06:52:10Z</time>
      </trkpt>
      <trkpt lat="48.98688" lon="5.00523">
        <ele>174</ele>
        <time>2018-03-31T06:53:10Z</time>
      </trkpt>
      <trkpt lat="48.98688" lon="5.00453">
        <ele>174</ele>
        <time>2018-03-31T06:54:10Z</time>
      </trkpt>
      <trkpt lat="48.98689" lon="5.00418">
        <ele>173</ele>
        <time>2018-03-31T06:55:10Z</time>
      </trkpt>
      <trkpt lat="48.98693" lon="5.00371">
        <ele>172</ele>
        <time>2018-03-31T06:56:10Z</time>
      </trkpt>
      <trkpt lat="48.987" lon="5.00311">
        <ele>171</ele>
        <time>2018-03-31T06:57:10Z</time>
      </trkpt>
      <trkpt lat="48.98706" lon="5.00249">
        <ele>169</ele>
        <time>2018-03-31T06:58:10Z</time>
      </trkpt>
      <trkpt lat="48.98708" lon="5.00227">
        <ele>169</ele>
        <time>2018-03-31T06:59:10Z</time>
      </trkpt>
      <trkpt lat="48.98709" lon="5.00216">
        <ele>169</ele>
        <time>2018-03-31T07:00:10Z</time>
      </trkpt>
      <trkpt lat="48.9871" lon="5.00136">
        <ele>167</ele>
        <time>2018-03-31T07:01:10Z</time>
      </trkpt>
      <trkpt lat="48.98705" lon="5.00068">
        <ele>166</ele>
        <time>2018-03-31T07:02:10Z</time>
      </trkpt>
      <trkpt lat="48.98693" lon="4.99998">
        <ele>166</ele>
        <time>2018-03-31T07:03:10Z</time>
      </trkpt>
      <trkpt lat="48.98677" lon="4.9993">
        <ele>167</ele>
        <time>2018-03-31T07:04:10Z</time>
      </trkpt>
      <trkpt lat="48.98663" lon="4.99879">
        <ele>169</ele>
        <time>2018-03-31T07:05:10Z</time>
      </trkpt>
      <trkpt lat="48.98636" lon="4.99819">
        <ele>170</ele>
        <time>2018-03-31T07:06:10Z</time>
      </trkpt>
      <trkpt lat="48.98619" lon="4.99787">
        <ele>171</ele>
        <time>2018-03-31T07:07:10Z</time>
      </trkpt>
      <trkpt lat="48.98591" lon="4.99729">
        <ele>173</ele>
        <time>2018-03-31T07:08:10Z</time>
      </trkpt>
      <trkpt lat="48.9859" lon="4.99725">
        <ele>173</ele>
        <time>2018-03-31T07:09:10Z</time>
      </trkpt>
      <trkpt lat="48.98549" lon="4.99646">
        <ele>174</ele>
        <time>2018-03-31T07:10:10Z</time>
      </trkpt>
      <trkpt lat="48.98511" lon="4.99569">
        <ele>175</ele>
        <time>2018-03-31T07:11:10Z</time>
      </trkpt>
      <trkpt lat="48.98486" lon="4.99514">
        <ele>174</ele>
        <time>2018-03-31T07:12:10Z</time>
      </trkpt>
      <trkpt lat="48.98461" lon="4.99457">
        <ele>174</ele>
        <time>2018-03-31T07:13:10Z</time>
      </trkpt>
      <trkpt lat="48.984" lon="4.99303">
        <ele>171</ele>
        <time>2018-03-31T07:14:10Z</time>
      </trkpt>
      <trkpt lat="48.98393" lon="4.99279">
        <ele>171</ele>
        <time>2018-03-31T07:15:10Z</time>
      </trkpt>
      <trkpt lat="48.98393" lon="4.99279">
        <ele>171</ele>
        <time>2018-03-31T07:16:10Z</time>
      </trkpt>
      <trkpt lat="48.98397" lon="4.99274">
        <ele>171</ele>
        <time>2018-03-31T07:17:10Z</time>
      </trkpt>
      <trkpt lat="48.98407" lon="4.99261">
        <ele>171</ele>
        <time>2018-03-31T07:18:10Z</time>
      </trkpt>
      <trkpt lat="48.98432" lon="4.99222">
        <ele>172</ele>
        <time>2018-03-31T07:19:10Z</time>
      </trkpt>
      <trkpt lat="48.98447" lon="4.99199">
        <ele>173</ele>
        <time>2018-03-31T07:20:10Z</time>
      </trkpt>
      <trkpt lat="48.98466" lon="4.99172">
        <ele>173</ele>
        <time>2018-03-31T07:21:10Z</time>
      </trkpt>
      <trkpt lat="48.98556" lon="4.99036">
        <ele>171</ele>
        <time>2018-03-31T07:22:10Z</time>
      </trkpt>
      <trkpt lat="48.98581" lon="4.98997">
        <ele>170</ele>
        <time>2018-03-31T07:23:10Z</time>
      </trkpt>
      <trkpt lat="48.98623" lon="4.98936">
        <ele>168</ele>
        <time>2018-03-31T07:24:10Z</time>
      </trkpt>
      <trkpt lat="48.98652" lon="4.98892">
        <ele>166</ele>
        <time>2018-03-31T07:25:10Z</time>
      </trkpt>
      <trkpt lat="48.9874" lon="4.98759">
        <ele>166</ele>
        <time>2018-03-31T07:26:10Z</time>
      </trkpt>
      <trkpt lat="48.98778" lon="4.987">
        <ele>167</ele>
        <time>2018-03-31T07:27:10Z</time>
      </trkpt>
      <trkpt lat="48.98831" lon="4.98623">
        <ele>169</ele>
        <time>2018-03-31T07:28:10Z</time>
      </trkpt>
      <trkpt lat="48.98848" lon="4.98598">
        <ele>170</ele>
        <time>2018-03-31T07:29:10Z</time>
      </trkpt>
      <trkpt lat="48.98863" lon="4.9858">
        <ele>170</ele>
        <time>2018-03-31T07:30:10Z</time>
      </trkpt>
      <trkpt lat="48.98881" lon="4.98561">
        <ele>169</ele>
        <time>2018-03-31T07:31:10Z</time>
      </trkpt>
      <trkpt lat="48.98898" lon="4.98544">
        <ele>169</ele>
        <time>2018-03-31T07:32:10Z</time>
      </trkpt>
      <trkpt lat="48.98939" lon="4.98509">
        <ele>168</ele>
        <time>2018-03-31T07:33:10Z</time>
      </trkpt>
      <trkpt lat="48.98992" lon="4.98468">
        <ele>168</ele>
        <time>2018-03-31T07:34:10Z</time>
      </trkpt>
      <trkpt lat="48.99077" lon="4.98412">
        <ele>166</ele>
        <time>2018-03-31T07:35:10Z</time>
      </trkpt>
      <trkpt lat="48.99149" lon="4.98364">
        <ele>166</ele>
        <time>2018-03-31T07:36:10Z</time>
      </trkpt>
      <trkpt lat="48.99225" lon="4.98315">
        <ele>167</ele>
        <time>2018-03-31T07:37:10Z</time>
      </trkpt>
      <trkpt lat="48.99255" lon="4.98294">
        <ele>167</ele>
        <time>2018-03-31T07:38:10Z</time>
      </trkpt>
      <trkpt lat="48.99298" lon="4.98266">
        <ele>167</ele>
        <time>2018-03-31T07:39:10Z</time>
      </trkpt>
      <trkpt lat="48.99428" lon="4.98179">
        <ele>165</ele>
        <time>2018-03-31T07:40:10Z</time>
      </trkpt>
      <trkpt lat="48.99548" lon="4.98099">
        <ele>164</ele>
        <time>2018-03-31T07:41:10Z</time>
      </trkpt>
      <trkpt lat="48.99604" lon="4.98062">
        <ele>164</ele>
        <time>2018-03-31T07:42:10Z</time>
      </trkpt>
      <trkpt lat="48.99664" lon="4.98021">
        <ele>165</ele>
        <time>2018-03-31T07:43:10Z</time>
      </trkpt>
      <trkpt lat="48.99744" lon="4.97969">
        <ele>165</ele>
        <time>2018-03-31T07:44:10Z</time>
      </trkpt>
      <trkpt lat="48.99835" lon="4.97907">
        <ele>165</ele>
        <time>2018-03-31T07:45:10Z</time>
      </trkpt>
      <trkpt lat="48.99968" lon="4.97819">
        <ele>162</ele>
        <time>2018-03-31T07:46:10Z</time>
      </trkpt>
      <trkpt lat="49.00095" lon="4.97735">
        <ele>163</ele>
        <time>2018-03-31T07:47:10Z</time>
      </trkpt>
      <trkpt lat="49.00215" lon="4.97656">
        <ele>162</ele>
        <time>2018-03-31T07:48:10Z</time>
      </trkpt>
      <trkpt lat="49.0024" lon="4.9764">
        <ele>162</ele>
        <time>2018-03-31T07:49:10Z</time>
      </trkpt>
      <trkpt lat="49.00288" lon="4.97608">
        <ele>161</ele>
        <time>2018-03-31T07:50:10Z</time>
      </trkpt>
      <trkpt lat="49.0033" lon="4.97583">
        <ele>161</ele>
        <time>2018-03-31T07:51:10Z</time>
      </trkpt>
      <trkpt lat="49.00405" lon="4.97535">
        <ele>159</ele>
        <time>2018-03-31T07:52:10Z</time>
      </trkpt>
      <trkpt lat="49.00418" lon="4.97526">
        <ele>158</ele>
        <time>2018-03-31T07:53:10Z</time>
      </trkpt>
      <trkpt lat="49.00425" lon="4.9752">
        <ele>158</ele>
        <time>2018-03-31T07:54:10Z</time>
      </trkpt>
      <trkpt lat="49.00431" lon="4.97514">
        <ele>158</ele>
        <time>2018-03-31T07:55:10Z</time>
      </trkpt>
      <trkpt lat="49.00436" lon="4.97507">
        <ele>158</ele>
        <time>2018-03-31T07:56:10Z</time>
      </trkpt>
      <trkpt lat="49.00439" lon="4.97502">
        <ele>158</ele>
        <time>2018-03-31T07:57:10Z</time>
      </trkpt>
      <trkpt lat="49.00445" lon="4.97493">
        <ele>158</ele>
        <time>2018-03-31T07:58:10Z</time>
      </trkpt>
      <trkpt lat="49.00454" lon="4.97474">
        <ele>158</ele>
        <time>2018-03-31T07:59:10Z</time>
      </trkpt>
      <trkpt lat="49.0046" lon="4.97462">
        <ele>157</ele>
        <time>2018-03-31T08:00:10Z</time>
      </trkpt>
      <trkpt lat="49.00464" lon="4.97449">
        <ele>157</ele>
        <time>2018-03-31T08:01:10Z</time>
      </trkpt>
      <trkpt lat="49.00473" lon="4.97415">
        <ele>157</ele>
        <time>2018-03-31T08:02:10Z</time>
      </trkpt>
      <trkpt lat="49.00482" lon="4.97377">
        <ele>157</ele>
        <time>2018-03-31T08:03:10Z</time>
      </trkpt>
      <trkpt lat="49.00489" lon="4.97347">
        <ele>156</ele>
        <time>2018-03-31T08:04:10Z</time>
      </trkpt>
      <trkpt lat="49.00498" lon="4.97313">
        <ele>156</ele>
        <time>2018-03-31T08:05:10Z</time>
      </trkpt>
      <trkpt lat="49.00504" lon="4.97289">
        <ele>156</ele>
        <time>2018-03-31T08:06:10Z</time>
      </trkpt>
      <trkpt lat="49.0051" lon="4.97257">
        <ele>156</ele>
        <time>2018-03-31T08:07:10Z</time>
      </trkpt>
      <trkpt lat="49.0051" lon="4.97251">
        <ele>156</ele>
        <time>2018-03-31T08:08:10Z</time>
      </trkpt>
      <trkpt lat="49.00513" lon="4.97234">
        <ele>156</ele>
        <time>2018-03-31T08:09:10Z</time>
      </trkpt>
      <trkpt lat="49.00514" lon="4.97222">
        <ele>155</ele>
        <time>2018-03-31T08:10:10Z</time>
      </trkpt>
      <trkpt lat="49.00515" lon="4.97206">
        <ele>155</ele>
        <time>2018-03-31T08:11:10Z</time>
      </trkpt>
      <trkpt lat="49.00515" lon="4.9719">
        <ele>155</ele>
        <time>2018-03-31T08:12:10Z</time>
      </trkpt>
      <trkpt lat="49.00512" lon="4.9714">
        <ele>154</ele>
        <time>2018-03-31T08:13:10Z</time>
      </trkpt>
      <trkpt lat="49.00512" lon="4.97126">
        <ele>154</ele>
        <time>2018-03-31T08:14:10Z</time>
      </trkpt>
      <trkpt lat="49.0051" lon="4.97111">
        <ele>154</ele>
        <time>2018-03-31T08:15:10Z</time>
      </trkpt>
      <trkpt lat="49.0051" lon="4.97111">
        <ele>154</ele>
        <time>2018-03-31T08:16:10Z</time>
      </trkpt>
      <trkpt lat="49.00496" lon="4.97098">
        <ele>154</ele>
        <time>2018-03-31T08:17:10Z</time>
      </trkpt>
      <trkpt lat="49.00485" lon="4.97089">
        <ele>154</ele>
        <time>2018-03-31T08:18:10Z</time>
      </trkpt>
      <trkpt lat="49.00481" lon="4.97086">
        <ele>154</ele>
        <time>2018-03-31T08:19:10Z</time>
      </trkpt>
      <trkpt lat="49.00461" lon="4.97082">
        <ele>155</ele>
        <time>2018-03-31T08:20:10Z</time>
      </trkpt>
      <trkpt lat="49.00458" lon="4.97081">
        <ele>155</ele>
        <time>2018-03-31T08:21:10Z</time>
      </trkpt>
      <trkpt lat="49.00458" lon="4.97081">
        <ele>155</ele>
        <time>2018-03-31T08:22:10Z</time>
      </trkpt>
      <trkpt lat="49.00461" lon="4.97082">
        <ele>155</ele>
        <time>2018-03-31T08:23:10Z</time>
      </trkpt>
      <trkpt lat="49.00481" lon="4.97086">
        <ele>154</ele>
        <time>2018-03-31T08:24:10Z</time>
      </trkpt>
      <trkpt lat="49.00485" lon="4.97089">
        <ele>154</ele>
        <time>2018-03-31T08:25:10Z</time>
      </trkpt>
      <trkpt lat="49.00496" lon="4.97098">
        <ele>154</ele>
        <time>2018-03-31T08:26:10Z</time>
      </trkpt>
      <trkpt lat="49.0051" lon="4.97111">
        <ele>154</ele>
        <time>2018-03-31T08:27:10Z</time>
      </trkpt>
      <trkpt lat="49.0051" lon="4.97111">
        <ele>154</ele>
        <time>2018-03-31T08:28:10Z</time>
      </trkpt>
      <trkpt lat="49.00528" lon="4.97108">
        <ele>154</ele>
        <time>2018-03-31T08:29:10Z</time>
      </trkpt>
      <trkpt lat="49.00551" lon="4.97104">
        <ele>154</ele>
        <time>2018-03-31T08:30:10Z</time>
      </trkpt>
      <trkpt lat="49.00582" lon="4.97103">
        <ele>153</ele>
        <time>2018-03-31T08:31:10Z</time>
      </trkpt>
      <trkpt lat="49.00671" lon="4.97085">
        <ele>151</ele>
        <time>2018-03-31T08:32:10Z</time>
      </trkpt>
      <trkpt lat="49.00768" lon="4.97061">
        <ele>147</ele>
        <time>2018-03-31T08:33:10Z</time>
      </trkpt>
      <trkpt lat="49.00812" lon="4.97051">
        <ele>146</ele>
        <time>2018-03-31T08:34:10Z</time>
      </trkpt>
      <trkpt lat="49.0082" lon="4.97049">
        <ele>146</ele>
        <time>2018-03-31T08:35:10Z</time>
      </trkpt>
      <trkpt lat="49.00883" lon="4.97031">
        <ele>146</ele>
        <time>2018-03-31T08:36:10Z</time>
      </trkpt>
      <trkpt lat="49.00901" lon="4.97027">
        <ele>146</ele>
        <time>2018-03-31T08:37:10Z</time>
      </trkpt>
      <trkpt lat="49.00933" lon="4.9702">
        <ele>147</ele>
        <time>2018-03-31T08:38:10Z</time>
      </trkpt>
      <trkpt lat="49.00947" lon="4.97018">
        <ele>146</ele>
        <time>2018-03-31T08:39:10Z</time>
      </trkpt>
      <trkpt lat="49.00959" lon="4.97015">
        <ele>146</ele>
        <time>2018-03-31T08:40:10Z</time>
      </trkpt>
      <trkpt lat="49.00962" lon="4.97015">
        <ele>146</ele>
        <time>2018-03-31T08:41:10Z</time>
      </trkpt>
      <trkpt lat="49.00973" lon="4.97015">
        <ele>146</ele>
        <time>2018-03-31T08:42:10Z</time>
      </trkpt>
      <trkpt lat="49.00987" lon="4.97015">
        <ele>146</ele>
        <time>2018-03-31T08:43:10Z</time>
      </trkpt>
      <trkpt lat="49.01" lon="4.97017">
        <ele>146</ele>
        <time>2018-03-31T08:44:10Z</time>
      </trkpt>
      <trkpt lat="49.01014" lon="4.97019">
        <ele>147</ele>
        <time>2018-03-31T08:45:10Z</time>
      </trkpt>
      <trkpt lat="49.01027" lon="4.97023">
        <ele>147</ele>
        <time>2018-03-31T08:46:10Z</time>
      </trkpt>
      <trkpt lat="49.0104" lon="4.97027">
        <ele>147</ele>
        <time>2018-03-31T08:47:10Z</time>
      </trkpt>
      <trkpt lat="49.01053" lon="4.97032">
        <ele>148</ele>
        <time>2018-03-31T08:48:10Z</time>
      </trkpt>
      <trkpt lat="49.01066" lon="4.97039">
        <ele>148</ele>
        <time>2018-03-31T08:49:10Z</time>
      </trkpt>
      <trkpt lat="49.01078" lon="4.97046">
        <ele>149</ele>
        <time>2018-03-31T08:50:10Z</time>
      </trkpt>
      <trkpt lat="49.0109" lon="4.97053">
        <ele>149</ele>
        <time>2018-03-31T08:51:10Z</time>
      </trkpt>
      <trkpt lat="49.01102" lon="4.97062">
        <ele>150</ele>
        <time>2018-03-31T08:52:10Z</time>
      </trkpt>
      <trkpt lat="49.01114" lon="4.97072">
        <ele>150</ele>
        <time>2018-03-31T08:53:10Z</time>
      </trkpt>
      <trkpt lat="49.01125" lon="4.97081">
        <ele>150</ele>
        <time>2018-03-31T08:54:10Z</time>
      </trkpt>
      <trkpt lat="49.01136" lon="4.9709">
        <ele>150</ele>
        <time>2018-03-31T08:55:10Z</time>
      </trkpt>
      <trkpt lat="49.01147" lon="4.97099">
        <ele>150</ele>
        <time>2018-03-31T08:56:10Z</time>
      </trkpt>
      <trkpt lat="49.01158" lon="4.97109">
        <ele>150</ele>
        <time>2018-03-31T08:57:10Z</time>
      </trkpt>
      <trkpt lat="49.01169" lon="4.97118">
        <ele>150</ele>
        <time>2018-03-31T08:58:10Z</time>
      </trkpt>
      <trkpt lat="49.01179" lon="4.97126">
        <ele>150</ele>
        <time>2018-03-31T08:59:10Z</time>
      </trkpt>
      <trkpt lat="49.01186" lon="4.97132">
        <ele>150</ele>
        <time>2018-03-31T09:00:10Z</time>
      </trkpt>
      <trkpt lat="49.01189" lon="4.97135">
        <ele>150</ele>
        <time>2018-03-31T09:01:10Z</time>
      </trkpt>
      <trkpt lat="49.012" lon="4.97144">
        <ele>150</ele>
        <time>2018-03-31T09:02:10Z</time>
      </trkpt>
      <trkpt lat="49.01211" lon="4.97152">
        <ele>150</ele>
        <time>2018-03-31T09:03:10Z</time>
      </trkpt>
      <trkpt lat="49.01219" lon="4.97159">
        <ele>150</ele>
        <time>2018-03-31T09:04:10Z</time>
      </trkpt>
      <trkpt lat="49.01221" lon="4.97161">
        <ele>150</ele>
        <time>2018-03-31T09:05:10Z</time>
      </trkpt>
      <trkpt lat="49.01233" lon="4.9717">
        <ele>151</ele>
        <time>2018-03-31T09:06:10Z</time>
      </trkpt>
      <trkpt lat="49.01244" lon="4.9718">
        <ele>151</ele>
        <time>2018-03-31T09:07:10Z</time>
      </trkpt>
      <trkpt lat="49.01256" lon="4.9719">
        <ele>151</ele>
        <time>2018-03-31T09:08:10Z</time>
      </trkpt>
      <trkpt lat="49.01268" lon="4.972">
        <ele>150</ele>
        <time>2018-03-31T09:09:10Z</time>
      </trkpt>
      <trkpt lat="49.0128" lon="4.9721">
        <ele>150</ele>
        <time>2018-03-31T09:10:10Z</time>
      </trkpt>
      <trkpt lat="49.01293" lon="4.97221">
        <ele>149</ele>
        <time>2018-03-31T09:11:10Z</time>
      </trkpt>
      <trkpt lat="49.01306" lon="4.97232">
        <ele>149</ele>
        <time>2018-03-31T09:12:10Z</time>
      </trkpt>
      <trkpt lat="49.0132" lon="4.97244">
        <ele>149</ele>
        <time>2018-03-31T09:13:10Z</time>
      </trkpt>
      <trkpt lat="49.01332" lon="4.97254">
        <ele>149</ele>
        <time>2018-03-31T09:14:10Z</time>
      </trkpt>
      <trkpt lat="49.01346" lon="4.97266">
        <ele>149</ele>
        <time>2018-03-31T09:15:10Z</time>
      </trkpt>
      <trkpt lat="49.0136" lon="4.97277">
        <ele>148</ele>
        <time>2018-03-31T09:16:10Z</time>
      </trkpt>
      <trkpt lat="49.01374" lon="4.97289">
        <ele>148</ele>
        <time>2018-03-31T09:17:10Z</time>
      </trkpt>
      <trkpt lat="49.01387" lon="4.97299">
        <ele>147</ele>
        <time>2018-03-31T09:18:10Z</time>
      </trkpt>
      <trkpt lat="49.01401" lon="4.97308">
        <ele>147</ele>
        <time>2018-03-31T09:19:10Z</time>
      </trkpt>
      <trkpt lat="49.01417" lon="4.97317">
        <ele>146</ele>
        <time>2018-03-31T09:20:10Z</time>
      </trkpt>
      <trkpt lat="49.0143" lon="4.97323">
        <ele>146</ele>
        <time>2018-03-31T09:21:10Z</time>
      </trkpt>
      <trkpt lat="49.01445" lon="4.97328">
        <ele>146</ele>
        <time>2018-03-31T09:22:10Z</time>
      </trkpt>
      <trkpt lat="49.0146" lon="4.97333">
        <ele>145</ele>
        <time>2018-03-31T09:23:10Z</time>
      </trkpt>
      <trkpt lat="49.01465" lon="4.97334">
        <ele>145</ele>
        <time>2018-03-31T09:24:10Z</time>
      </trkpt>
      <trkpt lat="49.01473" lon="4.97336">
        <ele>145</ele>
        <time>2018-03-31T09:25:10Z</time>
      </trkpt>
      <trkpt lat="49.01478" lon="4.97337">
        <ele>145</ele>
        <time>2018-03-31T09:26:10Z</time>
      </trkpt>
      <trkpt lat="49.01488" lon="4.97339">
        <ele>145</ele>
        <time>2018-03-31T09:27:10Z</time>
      </trkpt>
      <trkpt lat="49.01501" lon="4.97341">
        <ele>145</ele>
        <time>2018-03-31T09:28:10Z</time>
      </trkpt>
      <trkpt lat="49.01503" lon="4.97342">
        <ele>145</ele>
        <time>2018-03-31T09:29:10Z</time>
      </trkpt>
      <trkpt lat="49.01515" lon="4.97345">
        <ele>145</ele>
        <time>2018-03-31T09:30:10Z</time>
      </trkpt>
      <trkpt lat="49.01529" lon="4.97347">
        <ele>145</ele>
        <time>2018-03-31T09:31:10Z</time>
      </trkpt>
      <trkpt lat="49.01543" lon="4.97349">
        <ele>146</ele>
        <time>2018-03-31T09:32:10Z</time>
      </trkpt>
      <trkpt lat="49.01556" lon="4.97351">
        <ele>146</ele>
        <time>2018-03-31T09:33:10Z</time>
      </trkpt>
      <trkpt lat="49.0157" lon="4.97353">
        <ele>146</ele>
        <time>2018-03-31T09:34:10Z</time>
      </trkpt>
      <trkpt lat="49.01585" lon="4.97355">
        <ele>146</ele>
        <time>2018-03-31T09:35:10Z</time>
      </trkpt>
      <trkpt lat="49.01599" lon="4.97357">
        <ele>146</ele>
        <time>2018-03-31T09:36:10Z</time>
      </trkpt>
      <trkpt lat="49.01614" lon="4.97359">
        <ele>146</ele>
        <time>2018-03-31T09:37:10Z</time>
      </trkpt>
      <trkpt lat="49.01628" lon="4.97361">
        <ele>146</ele>
        <time>2018-03-31T09:38:10Z</time>
      </trkpt>
      <trkpt lat="49.01642" lon="4.97363">
        <ele>146</ele>
        <time>2018-03-31T09:39:10Z</time>
      </trkpt>
      <trkpt lat="49.01656" lon="4.97365">
        <ele>146</ele>
        <time>2018-03-31T09:40:10Z</time>
      </trkpt>
      <trkpt lat="49.0167" lon="4.97367">
        <ele>146</ele>
        <time>2018-03-31T09:41:10Z</time>
      </trkpt>
      <trkpt lat="49.01684" lon="4.97369">
        <ele>146</ele>
        <time>2018-03-31T09:42:10Z</time>
      </trkpt>
      <trkpt lat="49.01746" lon="4.9738">
        <ele>147</ele>
        <time>2018-03-31T09:43:10Z</time>
      </trkpt>
      <trkpt lat="49.01819" lon="4.97392">
        <ele>146</ele>
        <time>2018-03-31T09:44:10Z</time>
      </trkpt>
      <trkpt lat="49.01862" lon="4.97402">
        <ele>146</ele>
        <time>2018-03-31T09:45:10Z</time>
      </trkpt>
      <trkpt lat="49.01876" lon="4.97326">
        <ele>145</ele>
        <time>2018-03-31T09:46:10Z</time>
      </trkpt>
      <trkpt lat="49.01885" lon="4.9728">
        <ele>145</ele>
        <time>2018-03-31T09:47:10Z</time>
      </trkpt>
      <trkpt lat="49.01904" lon="4.97182">
        <ele>145</ele>
        <time>2018-03-31T09:48:10Z</time>
      </trkpt>
      <trkpt lat="49.01918" lon="4.97111">
        <ele>144</ele>
        <time>2018-03-31T09:49:10Z</time>
      </trkpt>
      <trkpt lat="49.01925" lon="4.97069">
        <ele>144</ele>
        <time>2018-03-31T09:50:10Z</time>
      </trkpt>
      <trkpt lat="49.01926" lon="4.9706">
        <ele>144</ele>
        <time>2018-03-31T09:51:10Z</time>
      </trkpt>
      <trkpt lat="49.01928" lon="4.97046">
        <ele>144</ele>
        <time>2018-03-31T09:52:10Z</time>
      </trkpt>
      <trkpt lat="49.0193" lon="4.9703">
        <ele>144</ele>
        <time>2018-03-31T09:53:10Z</time>
      </trkpt>
      <trkpt lat="49.01932" lon="4.97006">
        <ele>143</ele>
        <time>2018-03-31T09:54:10Z</time>
      </trkpt>
      <trkpt lat="49.01932" lon="4.96978">
        <ele>144</ele>
        <time>2018-03-31T09:55:10Z</time>
      </trkpt>
      <trkpt lat="49.01934" lon="4.96917">
        <ele>145</ele>
        <time>2018-03-31T09:56:10Z</time>
      </trkpt>
      <trkpt lat="49.01936" lon="4.96857">
        <ele>146</ele>
        <time>2018-03-31T09:57:10Z</time>
      </trkpt>
      <trkpt lat="49.01937" lon="4.96842">
        <ele>146</ele>
        <time>2018-03-31T09:58:10Z</time>
      </trkpt>
      <trkpt lat="49.01941" lon="4.96767">
        <ele>146</ele>
        <time>2018-03-31T09:59:10Z</time>
      </trkpt>
      <trkpt lat="49.01944" lon="4.96626">
        <ele>147</ele>
        <time>2018-03-31T10:00:10Z</time>
      </trkpt>
      <trkpt lat="49.01947" lon="4.96545">
        <ele>147</ele>
        <time>2018-03-31T10:01:10Z</time>
      </trkpt>
      <trkpt lat="49.01947" lon="4.96529">
        <ele>148</ele>
        <time>2018-03-31T10:02:10Z</time>
      </trkpt>
      <trkpt lat="49.01954" lon="4.96305">
        <ele>150</ele>
        <time>2018-03-31T10:03:10Z</time>
      </trkpt>
      <trkpt lat="49.01961" lon="4.96147">
        <ele>152</ele>
        <time>2018-03-31T10:04:10Z</time>
      </trkpt>
      <trkpt lat="49.01964" lon="4.96028">
        <ele>154</ele>
        <time>2018-03-31T10:05:10Z</time>
      </trkpt>
      <trkpt lat="49.01965" lon="4.9595">
        <ele>157</ele>
        <time>2018-03-31T10:06:10Z</time>
      </trkpt>
      <trkpt lat="49.01965" lon="4.9591">
        <ele>158</ele>
        <time>2018-03-31T10:07:10Z</time>
      </trkpt>
      <trkpt lat="49.01965" lon="4.95832">
        <ele>162</ele>
        <time>2018-03-31T10:08:10Z</time>
      </trkpt>
      <trkpt lat="49.01967" lon="4.95764">
        <ele>164</ele>
        <time>2018-03-31T10:09:10Z</time>
      </trkpt>
      <trkpt lat="49.0197" lon="4.95711">
        <ele>165</ele>
        <time>2018-03-31T10:10:10Z</time>
      </trkpt>
      <trkpt lat="49.01974" lon="4.95645">
        <ele>166</ele>
        <time>2018-03-31T10:11:10Z</time>
      </trkpt>
      <trkpt lat="49.01982" lon="4.95562">
        <ele>168</ele>
        <time>2018-03-31T10:12:10Z</time>
      </trkpt>
      <trkpt lat="49.01984" lon="4.95539">
        <ele>169</ele>
        <time>2018-03-31T10:13:10Z</time>
      </trkpt>
      <trkpt lat="49.01986" lon="4.95517">
        <ele>169</ele>
        <time>2018-03-31T10:14:10Z</time>
      </trkpt>
      <trkpt lat="49.01988" lon="4.95498">
        <ele>170</ele>
        <time>2018-03-31T10:15:10Z</time>
      </trkpt>
      <trkpt lat="49.01991" lon="4.95462">
        <ele>170</ele>
        <time>2018-03-31T10:16:10Z</time>
      </trkpt>
      <trkpt lat="49.01992" lon="4.95434">
        <ele>171</ele>
        <time>2018-03-31T10:17:10Z</time>
      </trkpt>
      <trkpt lat="49.01994" lon="4.95359">
        <ele>171</ele>
        <time>2018-03-31T10:18:10Z</time>
      </trkpt>
      <trkpt lat="49.01994" lon="4.95303">
        <ele>172</ele>
        <time>2018-03-31T10:19:10Z</time>
      </trkpt>
      <trkpt lat="49.01996" lon="4.95203">
        <ele>172</ele>
        <time>2018-03-31T10:20:10Z</time>
      </trkpt>
      <trkpt lat="49.01998" lon="4.95133">
        <ele>173</ele>
        <time>2018-03-31T10:21:10Z</time>
      </trkpt>
      <trkpt lat="49.01998" lon="4.95104">
        <ele>172</ele>
        <time>2018-03-31T10:22:10Z</time>
      </trkpt>
      <trkpt lat="49.01999" lon="4.95022">
        <ele>172</ele>
        <time>2018-03-31T10:23:10Z</time>
      </trkpt>
      <trkpt lat="49.01999" lon="4.94975">
        <ele>172</ele>
        <time>2018-03-31T10:24:10Z</time>
      </trkpt>
      <trkpt lat="49.01998" lon="4.94942">
        <ele>173</ele>
        <time>2018-03-31T10:25:10Z</time>
      </trkpt>
      <trkpt lat="49.01996" lon="4.94896">
        <ele>173</ele>
        <time>2018-03-31T10:26:10Z</time>
      </trkpt>
      <trkpt lat="49.01991" lon="4.94814">
        <ele>172</ele>
        <time>2018-03-31T10:27:10Z</time>
      </trkpt>
      <trkpt lat="49.01985" lon="4.94714">
        <ele>171</ele>
        <time>2018-03-31T10:28:10Z</time>
      </trkpt>
      <trkpt lat="49.01981" lon="4.94635">
        <ele>169</ele>
        <time>2018-03-31T10:29:10Z</time>
      </trkpt>
      <trkpt lat="49.01978" lon="4.94566">
        <ele>169</ele>
        <time>2018-03-31T10:30:10Z</time>
      </trkpt>
      <trkpt lat="49.01977" lon="4.94538">
        <ele>169</ele>
        <time>2018-03-31T10:31:10Z</time>
      </trkpt>
      <trkpt lat="49.01977" lon="4.94529">
        <ele>170</ele>
        <time>2018-03-31T10:32:10Z</time>
      </trkpt>
      <trkpt lat="49.01976" lon="4.94486">
        <ele>170</ele>
        <time>2018-03-31T10:33:10Z</time>
      </trkpt>
      <trkpt lat="49.01976" lon="4.94465">
        <ele>169</ele>
        <time>2018-03-31T10:34:10Z</time>
      </trkpt>
      <trkpt lat="49.01978" lon="4.9443">
        <ele>169</ele>
        <time>2018-03-31T10:35:10Z</time>
      </trkpt>
      <trkpt lat="49.01981" lon="4.94402">
        <ele>168</ele>
        <time>2018-03-31T10:36:10Z</time>
      </trkpt>
      <trkpt lat="49.01986" lon="4.94371">
        <ele>168</ele>
        <time>2018-03-31T10:37:10Z</time>
      </trkpt>
      <trkpt lat="49.01988" lon="4.94356">
        <ele>167</ele>
        <time>2018-03-31T10:38:10Z</time>
      </trkpt>
      <trkpt lat="49.0199" lon="4.94335">
        <ele>167</ele>
        <time>2018-03-31T10:39:10Z</time>
      </trkpt>
      <trkpt lat="49.01992" lon="4.94306">
        <ele>167</ele>
        <time>2018-03-31T10:40:10Z</time>
      </trkpt>
      <trkpt lat="49.01992" lon="4.94292">
        <ele>167</ele>
        <time>2018-03-31T10:41:10Z</time>
      </trkpt>
      <trkpt lat="49.01991" lon="4.94279">
        <ele>167</ele>
        <time>2018-03-31T10:42:10Z</time>
      </trkpt>
      <trkpt lat="49.0199" lon="4.94236">
        <ele>166</ele>
        <time>2018-03-31T10:43:10Z</time>
      </trkpt>
      <trkpt lat="49.01989" lon="4.9422">
        <ele>166</ele>
        <time>2018-03-31T10:44:10Z</time>
      </trkpt>
      <trkpt lat="49.01988" lon="4.94203">
        <ele>165</ele>
        <time>2018-03-31T10:45:10Z</time>
      </trkpt>
      <trkpt lat="49.01987" lon="4.94196">
        <ele>165</ele>
        <time>2018-03-31T10:46:10Z</time>
      </trkpt>
      <trkpt lat="49.01987" lon="4.94188">
        <ele>165</ele>
        <time>2018-03-31T10:47:10Z</time>
      </trkpt>
      <trkpt lat="49.01986" lon="4.94184">
        <ele>165</ele>
        <time>2018-03-31T10:48:10Z</time>
      </trkpt>
      <trkpt lat="49.01986" lon="4.9418">
        <ele>165</ele>
        <time>2018-03-31T10:49:10Z</time>
      </trkpt>
      <trkpt lat="49.01984" lon="4.94165">
        <ele>164</ele>
        <time>2018-03-31T10:50:10Z</time>
      </trkpt>
      <trkpt lat="49.01983" lon="4.94162">
        <ele>164</ele>
        <time>2018-03-31T10:51:10Z</time>
      </trkpt>
      <trkpt lat="49.01978" lon="4.94126">
        <ele>163</ele>
        <time>2018-03-31T10:52:10Z</time>
      </trkpt>
      <trkpt lat="49.0197" lon="4.94072">
        <ele>161</ele>
        <time>2018-03-31T10:53:10Z</time>
      </trkpt>
      <trkpt lat="49.01966" lon="4.94027">
        <ele>160</ele>
        <time>2018-03-31T10:54:10Z</time>
      </trkpt>
      <trkpt lat="49.01965" lon="4.94022">
        <ele>160</ele>
        <time>2018-03-31T10:55:10Z</time>
      </trkpt>
      <trkpt lat="49.01965" lon="4.94018">
        <ele>160</ele>
        <time>2018-03-31T10:56:10Z</time>
      </trkpt>
      <trkpt lat="49.01965" lon="4.94014">
        <ele>160</ele>
        <time>2018-03-31T10:57:10Z</time>
      </trkpt>
      <trkpt lat="49.01965" lon="4.94009">
        <ele>160</ele>
        <time>2018-03-31T10:58:10Z</time>
      </trkpt>
      <trkpt lat="49.01964" lon="4.9397">
        <ele>160</ele>
        <time>2018-03-31T10:59:10Z</time>
      </trkpt>
      <trkpt lat="49.01964" lon="4.93935">
        <ele>161</ele>
        <time>2018-03-31T11:00:10Z</time>
      </trkpt>
      <trkpt lat="49.01965" lon="4.93927">
        <ele>161</ele>
        <time>2018-03-31T11:01:10Z</time>
      </trkpt>
      <trkpt lat="49.01966" lon="4.93917">
        <ele>161</ele>
        <time>2018-03-31T11:02:10Z</time>
      </trkpt>
      <trkpt lat="49.01968" lon="4.93902">
        <ele>160</ele>
        <time>2018-03-31T11:03:10Z</time>
      </trkpt>
      <trkpt lat="49.01976" lon="4.93854">
        <ele>160</ele>
        <time>2018-03-31T11:04:10Z</time>
      </trkpt>
      <trkpt lat="49.01978" lon="4.93842">
        <ele>159</ele>
        <time>2018-03-31T11:05:10Z</time>
      </trkpt>
      <trkpt lat="49.01986" lon="4.93793">
        <ele>159</ele>
        <time>2018-03-31T11:06:10Z</time>
      </trkpt>
      <trkpt lat="49.01986" lon="4.9379">
        <ele>159</ele>
        <time>2018-03-31T11:07:10Z</time>
      </trkpt>
      <trkpt lat="49.01995" lon="4.93736">
        <ele>159</ele>
        <time>2018-03-31T11:08:10Z</time>
      </trkpt>
      <trkpt lat="49.02011" lon="4.93583">
        <ele>158</ele>
        <time>2018-03-31T11:09:10Z</time>
      </trkpt>
      <trkpt lat="49.02013" lon="4.93575">
        <ele>158</ele>
        <time>2018-03-31T11:10:10Z</time>
      </trkpt>
      <trkpt lat="49.02016" lon="4.9355">
        <ele>158</ele>
        <time>2018-03-31T11:11:10Z</time>
      </trkpt>
      <trkpt lat="49.02019" lon="4.93533">
        <ele>158</ele>
        <time>2018-03-31T11:12:10Z</time>
      </trkpt>
      <trkpt lat="49.02021" lon="4.93521">
        <ele>157</ele>
        <time>2018-03-31T11:13:10Z</time>
      </trkpt>
      <trkpt lat="49.02026" lon="4.93506">
        <ele>157</ele>
        <time>2018-03-31T11:14:10Z</time>
      </trkpt>
      <trkpt lat="49.02033" lon="4.93489">
        <ele>157</ele>
        <time>2018-03-31T11:15:10Z</time>
      </trkpt>
      <trkpt lat="49.02047" lon="4.93454">
        <ele>158</ele>
        <time>2018-03-31T11:16:10Z</time>
      </trkpt>
      <trkpt lat="49.02071" lon="4.93408">
        <ele>159</ele>
        <time>2018-03-31T11:17:10Z</time>
      </trkpt>
      <trkpt lat="49.02073" lon="4.93403">
        <ele>159</ele>
        <time>2018-03-31T11:18:10Z</time>
      </trkpt>
      <trkpt lat="49.02074" lon="4.93401">
        <ele>159</ele>
        <time>2018-03-31T11:19:10Z</time>
      </trkpt>
      <trkpt lat="49.02093" lon="4.93361">
        <ele>159</ele>
        <time>2018-03-31T11:20:10Z</time>
      </trkpt>
      <trkpt lat="49.02099" lon="4.93346">
        <ele>160</ele>
        <time>2018-03-31T11:21:10Z</time>
      </trkpt>
      <trkpt lat="49.02108" lon="4.93325">
        <ele>160</ele>
        <time>2018-03-31T11:22:10Z</time>
      </trkpt>
      <trkpt lat="49.02113" lon="4.93312">
        <ele>160</ele>
        <time>2018-03-31T11:23:10Z</time>
      </trkpt>
      <trkpt lat="49.02118" lon="4.93297">
        <ele>160</ele>
        <time>2018-03-31T11:24:10Z</time>
      </trkpt>
      <trkpt lat="49.02124" lon="4.9328">
        <ele>161</ele>
        <time>2018-03-31T11:25:10Z</time>
      </trkpt>
      <trkpt lat="49.02139" lon="4.93231">
        <ele>161</ele>
        <time>2018-03-31T11:26:10Z</time>
      </trkpt>
      <trkpt lat="49.02157" lon="4.93166">
        <ele>162</ele>
        <time>2018-03-31T11:27:10Z</time>
      </trkpt>
      <trkpt lat="49.02172" lon="4.93103">
        <ele>162</ele>
        <time>2018-03-31T11:28:10Z</time>
      </trkpt>
      <trkpt lat="49.02178" lon="4.93077">
        <ele>162</ele>
        <time>2018-03-31T11:29:10Z</time>
      </trkpt>
      <trkpt lat="49.02182" lon="4.93058">
        <ele>162</ele>
        <time>2018-03-31T11:30:10Z</time>
      </trkpt>
      <trkpt lat="49.02186" lon="4.93041">
        <ele>162</ele>
        <time>2018-03-31T11:31:10Z</time>
      </trkpt>
      <trkpt lat="49.02187" lon="4.93032">
        <ele>162</ele>
        <time>2018-03-31T11:32:10Z</time>
      </trkpt>
      <trkpt lat="49.0219" lon="4.93013">
        <ele>162</ele>
        <time>2018-03-31T11:33:10Z</time>
      </trkpt>
      <trkpt lat="49.02195" lon="4.92976">
        <ele>162</ele>
        <time>2018-03-31T11:34:10Z</time>
      </trkpt>
      <trkpt lat="49.022" lon="4.92933">
        <ele>162</ele>
        <time>2018-03-31T11:35:10Z</time>
      </trkpt>
      <trkpt lat="49.02201" lon="4.92894">
        <ele>162</ele>
        <time>2018-03-31T11:36:10Z</time>
      </trkpt>
      <trkpt lat="49.022" lon="4.92873">
        <ele>162</ele>
        <time>2018-03-31T11:37:10Z</time>
      </trkpt>
      <trkpt lat="49.022" lon="4.9285">
        <ele>162</ele>
        <time>2018-03-31T11:38:10Z</time>
      </trkpt>
      <trkpt lat="49.022" lon="4.92826">
        <ele>162</ele>
        <time>2018-03-31T11:39:10Z</time>
      </trkpt>
      <trkpt lat="49.02205" lon="4.92816">
        <ele>163</ele>
        <time>2018-03-31T11:40:10Z</time>
      </trkpt>
      <trkpt lat="49.02212" lon="4.92798">
        <ele>163</ele>
        <time>2018-03-31T11:41:10Z</time>
      </trkpt>
      <trkpt lat="49.02213" lon="4.92794">
        <ele>164</ele>
        <time>2018-03-31T11:42:10Z</time>
      </trkpt>
      <trkpt lat="49.02217" lon="4.92787">
        <ele>164</ele>
        <time>2018-03-31T11:43:10Z</time>
      </trkpt>
      <trkpt lat="49.0222" lon="4.92782">
        <ele>164</ele>
        <time>2018-03-31T11:44:10Z</time>
      </trkpt>
      <trkpt lat="49.02224" lon="4.92776">
        <ele>165</ele>
        <time>2018-03-31T11:45:10Z</time>
      </trkpt>
      <trkpt lat="49.02229" lon="4.92769">
        <ele>165</ele>
        <time>2018-03-31T11:46:10Z</time>
      </trkpt>
      <trkpt lat="49.02235" lon="4.92763">
        <ele>166</ele>
        <time>2018-03-31T11:47:10Z</time>
      </trkpt>
      <trkpt lat="49.02243" lon="4.92756">
        <ele>166</ele>
        <time>2018-03-31T11:48:10Z</time>
      </trkpt>
      <trkpt lat="49.02253" lon="4.92749">
        <ele>167</ele>
        <time>2018-03-31T11:49:10Z</time>
      </trkpt>
      <trkpt lat="49.0226" lon="4.92745">
        <ele>168</ele>
        <time>2018-03-31T11:50:10Z</time>
      </trkpt>
      <trkpt lat="49.0227" lon="4.92741">
        <ele>169</ele>
        <time>2018-03-31T11:51:10Z</time>
      </trkpt>
      <trkpt lat="49.02293" lon="4.92733">
        <ele>171</ele>
        <time>2018-03-31T11:52:10Z</time>
      </trkpt>
      <trkpt lat="49.02322" lon="4.92722">
        <ele>174</ele>
        <time>2018-03-31T11:53:10Z</time>
      </trkpt>
      <trkpt lat="49.02343" lon="4.92714">
        <ele>176</ele>
        <time>2018-03-31T11:54:10Z</time>
      </trkpt>
      <trkpt lat="49.02382" lon="4.927">
        <ele>180</ele>
        <time>2018-03-31T11:55:10Z</time>
      </trkpt>
      <trkpt lat="49.02415" lon="4.92686">
        <ele>183</ele>
        <time>2018-03-31T11:56:10Z</time>
      </trkpt>
      <trkpt lat="49.02446" lon="4.92676">
        <ele>182</ele>
        <time>2018-03-31T11:57:10Z</time>
      </trkpt>
      <trkpt lat="49.02476" lon="4.92667">
        <ele>182</ele>
        <time>2018-03-31T11:58:10Z</time>
      </trkpt>
      <trkpt lat="49.02506" lon="4.92656">
        <ele>181</ele>
        <time>2018-03-31T11:59:10Z</time>
      </trkpt>
      <trkpt lat="49.02519" lon="4.9265">
        <ele>180</ele>
        <time>2018-03-31T12:00:10Z</time>
      </trkpt>
      <trkpt lat="49.02524" lon="4.92648">
        <ele>180</ele>
        <time>2018-03-31T12:01:10Z</time>
      </trkpt>
      <trkpt lat="49.02571" lon="4.92618">
        <ele>179</ele>
        <time>2018-03-31T12:02:10Z</time>
      </trkpt>
      <trkpt lat="49.02615" lon="4.92583">
        <ele>179</ele>
        <time>2018-03-31T12:03:10Z</time>
      </trkpt>
      <trkpt lat="49.0266" lon="4.92546">
        <ele>180</ele>
        <time>2018-03-31T12:04:10Z</time>
      </trkpt>
      <trkpt lat="49.02662" lon="4.92545">
        <ele>180</ele>
        <time>2018-03-31T12:05:10Z</time>
      </trkpt>
      <trkpt lat="49.0271" lon="4.92506">
        <ele>178</ele>
        <time>2018-03-31T12:06:10Z</time>
      </trkpt>
      <trkpt lat="49.02715" lon="4.92502">
        <ele>178</ele>
        <time>2018-03-31T12:07:10Z</time>
      </trkpt>
      <trkpt lat="49.02742" lon="4.92484">
        <ele>175</ele>
        <time>2018-03-31T12:08:10Z</time>
      </trkpt>
      <trkpt lat="49.02746" lon="4.92482">
        <ele>175</ele>
        <time>2018-03-31T12:09:10Z</time>
      </trkpt>
      <trkpt lat="49.02756" lon="4.92479">
        <ele>174</ele>
        <time>2018-03-31T12:10:10Z</time>
      </trkpt>
      <trkpt lat="49.02768" lon="4.92476">
        <ele>173</ele>
        <time>2018-03-31T12:11:10Z</time>
      </trkpt>
      <trkpt lat="49.02775" lon="4.92474">
        <ele>173</ele>
        <time>2018-03-31T12:12:10Z</time>
      </trkpt>
      <trkpt lat="49.02781" lon="4.92474">
        <ele>173</ele>
        <time>2018-03-31T12:13:10Z</time>
      </trkpt>
      <trkpt lat="49.02789" lon="4.92473">
        <ele>172</ele>
        <time>2018-03-31T12:14:10Z</time>
      </trkpt>
      <trkpt lat="49.02805" lon="4.92473">
        <ele>172</ele>
        <time>2018-03-31T12:15:10Z</time>
      </trkpt>
      <trkpt lat="49.02848" lon="4.92473">
        <ele>171</ele>
        <time>2018-03-31T12:16:10Z</time>
      </trkpt>
      <trkpt lat="49.02934" lon="4.92473">
        <ele>174</ele>
        <time>2018-03-31T12:17:10Z</time>
      </trkpt>
      <trkpt lat="49.03012" lon="4.92472">
        <ele>175</ele>
        <time>2018-03-31T12:18:10Z</time>
      </trkpt>
      <trkpt lat="49.03047" lon="4.92473">
        <ele>175</ele>
        <time>2018-03-31T12:19:10Z</time>
      </trkpt>
      <trkpt lat="49.03089" lon="4.92473">
        <ele>175</ele>
        <time>2018-03-31T12:20:10Z</time>
      </trkpt>
      <trkpt lat="49.03125" lon="4.92473">
        <ele>174</ele>
        <time>2018-03-31T12:21:10Z</time>
      </trkpt>
      <trkpt lat="49.03165" lon="4.92471">
        <ele>172</ele>
        <time>2018-03-31T12:22:10Z</time>
      </trkpt>
      <trkpt lat="49.03185" lon="4.92469">
        <ele>172</ele>
        <time>2018-03-31T12:23:10Z</time>
      </trkpt>
      <trkpt lat="49.03199" lon="4.92467">
        <ele>171</ele>
        <time>2018-03-31T12:24:10Z</time>
      </trkpt>
      <trkpt lat="49.03223" lon="4.92461">
        <ele>171</ele>
        <time>2018-03-31T12:25:10Z</time>
      </trkpt>
      <trkpt lat="49.03258" lon="4.92445">
        <ele>171</ele>
        <time>2018-03-31T12:26:10Z</time>
      </trkpt>
      <trkpt lat="49.03384" lon="4.92359">
        <ele>169</ele>
        <time>2018-03-31T12:27:10Z</time>
      </trkpt>
      <trkpt lat="49.03483" lon="4.92293">
        <ele>167</ele>
        <time>2018-03-31T12:28:10Z</time>
      </trkpt>
      <trkpt lat="49.03584" lon="4.92226">
        <ele>165</ele>
        <time>2018-03-31T12:29:10Z</time>
      </trkpt>
      <trkpt lat="49.03808" lon="4.92078">
        <ele>164</ele>
        <time>2018-03-31T12:30:10Z</time>
      </trkpt>
      <trkpt lat="49.03869" lon="4.92037">
        <ele>165</ele>
        <time>2018-03-31T12:31:10Z</time>
      </trkpt>
      <trkpt lat="49.04029" lon="4.91929">
        <ele>165</ele>
        <time>2018-03-31T12:32:10Z</time>
      </trkpt>
      <trkpt lat="49.0408" lon="4.91895">
        <ele>165</ele>
        <time>2018-03-31T12:33:10Z</time>
      </trkpt>
      <trkpt lat="49.04162" lon="4.91844">
        <ele>167</ele>
        <time>2018-03-31T12:34:10Z</time>
      </trkpt>
      <trkpt lat="49.042" lon="4.91817">
        <ele>167</ele>
        <time>2018-03-31T12:35:10Z</time>
      </trkpt>
      <trkpt lat="49.04243" lon="4.91791">
        <ele>167</ele>
        <time>2018-03-31T12:36:10Z</time>
      </trkpt>
      <trkpt lat="49.04271" lon="4.91778">
        <ele>167</ele>
        <time>2018-03-31T12:37:10Z</time>
      </trkpt>
      <trkpt lat="49.04274" lon="4.91777">
        <ele>168</ele>
        <time>2018-03-31T12:38:10Z</time>
      </trkpt>
      <trkpt lat="49.04277" lon="4.91776">
        <ele>168</ele>
        <time>2018-03-31T12:39:10Z</time>
      </trkpt>
      <trkpt lat="49.0429" lon="4.91773">
        <ele>168</ele>
        <time>2018-03-31T12:40:10Z</time>
      </trkpt>
      <trkpt lat="49.0431" lon="4.91771">
        <ele>169</ele>
        <time>2018-03-31T12:41:10Z</time>
      </trkpt>
      <trkpt lat="49.04328" lon="4.91771">
        <ele>169</ele>
        <time>2018-03-31T12:42:10Z</time>
      </trkpt>
      <trkpt lat="49.04365" lon="4.91774">
        <ele>169</ele>
        <time>2018-03-31T12:43:10Z</time>
      </trkpt>
      <trkpt lat="49.04431" lon="4.91779">
        <ele>168</ele>
        <time>2018-03-31T12:44:10Z</time>
      </trkpt>
      <trkpt lat="49.0449" lon="4.91785">
        <ele>167</ele>
        <time>2018-03-31T12:45:10Z</time>
      </trkpt>
      <trkpt lat="49.04551" lon="4.91788">
        <ele>167</ele>
        <time>2018-03-31T12:46:10Z</time>
      </trkpt>
      <trkpt lat="49.04641" lon="4.91796">
        <ele>165</ele>
        <time>2018-03-31T12:47:10Z</time>
      </trkpt>
      <trkpt lat="49.04716" lon="4.91801">
        <ele>165</ele>
        <time>2018-03-31T12:48:10Z</time>
      </trkpt>
      <trkpt lat="49.04762" lon="4.91805">
        <ele>164</ele>
        <time>2018-03-31T12:49:10Z</time>
      </trkpt>
      <trkpt lat="49.04784" lon="4.91805">
        <ele>164</ele>
        <time>2018-03-31T12:50:10Z</time>
      </trkpt>
      <trkpt lat="49.04795" lon="4.91803">
        <ele>164</ele>
        <time>2018-03-31T12:51:10Z</time>
      </trkpt>
      <trkpt lat="49.04803" lon="4.91799">
        <ele>164</ele>
        <time>2018-03-31T12:52:10Z</time>
      </trkpt>
      <trkpt lat="49.0482" lon="4.91784">
        <ele>163</ele>
        <time>2018-03-31T12:53:10Z</time>
      </trkpt>
      <trkpt lat="49.04835" lon="4.91762">
        <ele>162</ele>
        <time>2018-03-31T12:54:10Z</time>
      </trkpt>
      <trkpt lat="49.04856" lon="4.91722">
        <ele>158</ele>
        <time>2018-03-31T12:55:10Z</time>
      </trkpt>
      <trkpt lat="49.04876" lon="4.91676">
        <ele>155</ele>
        <time>2018-03-31T12:56:10Z</time>
      </trkpt>
      <trkpt lat="49.04919" lon="4.91594">
        <ele>152</ele>
        <time>2018-03-31T12:57:10Z</time>
      </trkpt>
      <trkpt lat="49.04957" lon="4.91522">
        <ele>152</ele>
        <time>2018-03-31T12:58:10Z</time>
      </trkpt>
      <trkpt lat="49.0503" lon="4.91388">
        <ele>152</ele>
        <time>2018-03-31T12:59:10Z</time>
      </trkpt>
      <trkpt lat="49.05051" lon="4.91351">
        <ele>152</ele>
        <time>2018-03-31T13:00:10Z</time>
      </trkpt>
      <trkpt lat="49.05069" lon="4.91321">
        <ele>151</ele>
        <time>2018-03-31T13:01:10Z</time>
      </trkpt>
      <trkpt lat="49.0507" lon="4.91319">
        <ele>151</ele>
        <time>2018-03-31T13:02:10Z</time>
      </trkpt>
      <trkpt lat="49.05085" lon="4.91302">
        <ele>151</ele>
        <time>2018-03-31T13:03:10Z</time>
      </trkpt>
      <trkpt lat="49.05107" lon="4.9128">
        <ele>151</ele>
        <time>2018-03-31T13:04:10Z</time>
      </trkpt>
      <trkpt lat="49.05116" lon="4.91273">
        <ele>151</ele>
        <time>2018-03-31T13:05:10Z</time>
      </trkpt>
      <trkpt lat="49.05124" lon="4.91267">
        <ele>151</ele>
        <time>2018-03-31T13:06:10Z</time>
      </trkpt>
      <trkpt lat="49.05135" lon="4.91261">
        <ele>151</ele>
        <time>2018-03-31T13:07:10Z</time>
      </trkpt>
      <trkpt lat="49.05185" lon="4.91232">
        <ele>149</ele>
        <time>2018-03-31T13:08:10Z</time>
      </trkpt>
      <trkpt lat="49.05212" lon="4.91215">
        <ele>147</ele>
        <time>2018-03-31T13:09:10Z</time>
      </trkpt>
      <trkpt lat="49.05232" lon="4.912">
        <ele>145</ele>
        <time>2018-03-31T13:10:10Z</time>
      </trkpt>
      <trkpt lat="49.05253" lon="4.91184">
        <ele>143</ele>
        <time>2018-03-31T13:11:10Z</time>
      </trkpt>
      <trkpt lat="49.05266" lon="4.91174">
        <ele>143</ele>
        <time>2018-03-31T13:12:10Z</time>
      </trkpt>
      <trkpt lat="49.05341" lon="4.91105">
        <ele>143</ele>
        <time>2018-03-31T13:13:10Z</time>
      </trkpt>
      <trkpt lat="49.05361" lon="4.91085">
        <ele>146</ele>
        <time>2018-03-31T13:14:10Z</time>
      </trkpt>
      <trkpt lat="49.05373" lon="4.91075">
        <ele>147</ele>
        <time>2018-03-31T13:15:10Z</time>
      </trkpt>
      <trkpt lat="49.05395" lon="4.91057">
        <ele>149</ele>
        <time>2018-03-31T13:16:10Z</time>
      </trkpt>
      <trkpt lat="49.05404" lon="4.91049">
        <ele>150</ele>
        <time>2018-03-31T13:17:10Z</time>
      </trkpt>
      <trkpt lat="49.05413" lon="4.91043">
        <ele>151</ele>
        <time>2018-03-31T13:18:10Z</time>
      </trkpt>
      <trkpt lat="49.0542" lon="4.9104">
        <ele>151</ele>
        <time>2018-03-31T13:19:10Z</time>
      </trkpt>
      <trkpt lat="49.0546" lon="4.91021">
        <ele>155</ele>
        <time>2018-03-31T13:20:10Z</time>
      </trkpt>
      <trkpt lat="49.05497" lon="4.91008">
        <ele>158</ele>
        <time>2018-03-31T13:21:10Z</time>
      </trkpt>
      <trkpt lat="49.05539" lon="4.90993">
        <ele>160</ele>
        <time>2018-03-31T13:22:10Z</time>
      </trkpt>
      <trkpt lat="49.05559" lon="4.90986">
        <ele>161</ele>
        <time>2018-03-31T13:23:10Z</time>
      </trkpt>
      <trkpt lat="49.05582" lon="4.90979">
        <ele>163</ele>
        <time>2018-03-31T13:24:10Z</time>
      </trkpt>
      <trkpt lat="49.05601" lon="4.90975">
        <ele>163</ele>
        <time>2018-03-31T13:25:10Z</time>
      </trkpt>
      <trkpt lat="49.05619" lon="4.90972">
        <ele>164</ele>
        <time>2018-03-31T13:26:10Z</time>
      </trkpt>
      <trkpt lat="49.05647" lon="4.90966">
        <ele>165</ele>
        <time>2018-03-31T13:27:10Z</time>
      </trkpt>
      <trkpt lat="49.05662" lon="4.90962">
        <ele>165</ele>
        <time>2018-03-31T13:28:10Z</time>
      </trkpt>
      <trkpt lat="49.05677" lon="4.90957">
        <ele>165</ele>
        <time>2018-03-31T13:29:10Z</time>
      </trkpt>
      <trkpt lat="49.05691" lon="4.90952">
        <ele>165</ele>
        <time>2018-03-31T13:30:10Z</time>
      </trkpt>
      <trkpt lat="49.05714" lon="4.90943">
        <ele>165</ele>
        <time>2018-03-31T13:31:10Z</time>
      </trkpt>
      <trkpt lat="49.05773" lon="4.90919">
        <ele>164</ele>
        <time>2018-03-31T13:32:10Z</time>
      </trkpt>
      <trkpt lat="49.05796" lon="4.90909">
        <ele>164</ele>
        <time>2018-03-31T13:33:10Z</time>
      </trkpt>
      <trkpt lat="49.05859" lon="4.90882">
        <ele>163</ele>
        <time>2018-03-31T13:34:10Z</time>
      </trkpt>
      <trkpt lat="49.05917" lon="4.90854">
        <ele>163</ele>
        <time>2018-03-31T13:35:10Z</time>
      </trkpt>
      <trkpt lat="49.05936" lon="4.90842">
        <ele>162</ele>
        <time>2018-03-31T13:36:10Z</time>
      </trkpt>
      <trkpt lat="49.05949" lon="4.90832">
        <ele>161</ele>
        <time>2018-03-31T13:37:10Z</time>
      </trkpt>
      <trkpt lat="49.05972" lon="4.9081">
        <ele>160</ele>
        <time>2018-03-31T13:38:10Z</time>
      </trkpt>
      <trkpt lat="49.05983" lon="4.90794">
        <ele>160</ele>
        <time>2018-03-31T13:39:10Z</time>
      </trkpt>
      <trkpt lat="49.06001" lon="4.9077">
        <ele>159</ele>
        <time>2018-03-31T13:40:10Z</time>
      </trkpt>
      <trkpt lat="49.0604" lon="4.90713">
        <ele>158</ele>
        <time>2018-03-31T13:41:10Z</time>
      </trkpt>
      <trkpt lat="49.06072" lon="4.90665">
        <ele>158</ele>
        <time>2018-03-31T13:42:10Z</time>
      </trkpt>
      <trkpt lat="49.06074" lon="4.90662">
        <ele>158</ele>
        <time>2018-03-31T13:43:10Z</time>
      </trkpt>
      <trkpt lat="49.06089" lon="4.90638">
        <ele>158</ele>
        <time>2018-03-31T13:44:10Z</time>
      </trkpt>
      <trkpt lat="49.06122" lon="4.90586">
        <ele>156</ele>
        <time>2018-03-31T13:45:10Z</time>
      </trkpt>
      <trkpt lat="49.06162" lon="4.90525">
        <ele>155</ele>
        <time>2018-03-31T13:46:10Z</time>
      </trkpt>
      <trkpt lat="49.06199" lon="4.90472">
        <ele>153</ele>
        <time>2018-03-31T13:47:10Z</time>
      </trkpt>
      <trkpt lat="49.06213" lon="4.90454">
        <ele>153</ele>
        <time>2018-03-31T13:48:10Z</time>
      </trkpt>
      <trkpt lat="49.06218" lon="4.90449">
        <ele>153</ele>
        <time>2018-03-31T13:49:10Z</time>
      </trkpt>
      <trkpt lat="49.06225" lon="4.90443">
        <ele>152</ele>
        <time>2018-03-31T13:50:10Z</time>
      </trkpt>
      <trkpt lat="49.06233" lon="4.90439">
        <ele>152</ele>
        <time>2018-03-31T13:51:10Z</time>
      </trkpt>
      <trkpt lat="49.06254" lon="4.90434">
        <ele>152</ele>
        <time>2018-03-31T13:52:10Z</time>
      </trkpt>
      <trkpt lat="49.06276" lon="4.90434">
        <ele>151</ele>
        <time>2018-03-31T13:53:10Z</time>
      </trkpt>
      <trkpt lat="49.06343" lon="4.90434">
        <ele>149</ele>
        <time>2018-03-31T13:54:10Z</time>
      </trkpt>
      <trkpt lat="49.06394" lon="4.90434">
        <ele>146</ele>
        <time>2018-03-31T13:55:10Z</time>
      </trkpt>
      <trkpt lat="49.06419" lon="4.90434">
        <ele>145</ele>
        <time>2018-03-31T13:56:10Z</time>
      </trkpt>
      <trkpt lat="49.06431" lon="4.90434">
        <ele>145</ele>
        <time>2018-03-31T13:57:10Z</time>
      </trkpt>
      <trkpt lat="49.06496" lon="4.90434">
        <ele>144</ele>
        <time>2018-03-31T13:58:10Z</time>
      </trkpt>
      <trkpt lat="49.06499" lon="4.90435">
        <ele>144</ele>
        <time>2018-03-31T13:59:10Z</time>
      </trkpt>
      <trkpt lat="49.06508" lon="4.90435">
        <ele>144</ele>
        <time>2018-03-31T14:00:10Z</time>
      </trkpt>
      <trkpt lat="49.06527" lon="4.90437">
        <ele>145</ele>
        <time>2018-03-31T14:01:10Z</time>
      </trkpt>
      <trkpt lat="49.06534" lon="4.9056">
        <ele>143</ele>
        <time>2018-03-31T14:02:10Z</time>
      </trkpt>
      <trkpt lat="49.06534" lon="4.9056">
        <ele>143</ele>
        <time>2018-03-31T14:03:10Z</time>
      </trkpt>
      <trkpt lat="49.06546" lon="4.90558">
        <ele>143</ele>
        <time>2018-03-31T14:04:10Z</time>
      </trkpt>
      <trkpt lat="49.0666" lon="4.90542">
        <ele>144</ele>
        <time>2018-03-31T14:05:10Z</time>
      </trkpt>
      <trkpt lat="49.06674" lon="4.90542">
        <ele>144</ele>
        <time>2018-03-31T14:06:10Z</time>
      </trkpt>
      <trkpt lat="49.0668" lon="4.90543">
        <ele>144</ele>
        <time>2018-03-31T14:07:10Z</time>
      </trkpt>
      <trkpt lat="49.06696" lon="4.90542">
        <ele>145</ele>
        <time>2018-03-31T14:08:10Z</time>
      </trkpt>
      <trkpt lat="49.06707" lon="4.90541">
        <ele>145</ele>
        <time>2018-03-31T14:09:10Z</time>
      </trkpt>
      <trkpt lat="49.06717" lon="4.90539">
        <ele>146</ele>
        <time>2018-03-31T14:10:10Z</time>
      </trkpt>
      <trkpt lat="49.06727" lon="4.90535">
        <ele>146</ele>
        <time>2018-03-31T14:11:10Z</time>
      </trkpt>
      <trkpt lat="49.06736" lon="4.9053">
        <ele>147</ele>
        <time>2018-03-31T14:12:10Z</time>
      </trkpt>
      <trkpt lat="49.0674" lon="4.90527">
        <ele>147</ele>
        <time>2018-03-31T14:13:10Z</time>
      </trkpt>
      <trkpt lat="49.06743" lon="4.90525">
        <ele>147</ele>
        <time>2018-03-31T14:14:10Z</time>
      </trkpt>
      <trkpt lat="49.06745" lon="4.90522">
        <ele>147</ele>
        <time>2018-03-31T14:15:10Z</time>
      </trkpt>
      <trkpt lat="49.06763" lon="4.90505">
        <ele>148</ele>
        <time>2018-03-31T14:16:10Z</time>
      </trkpt>
      <trkpt lat="49.06778" lon="4.90491">
        <ele>149</ele>
        <time>2018-03-31T14:17:10Z</time>
      </trkpt>
      <trkpt lat="49.06786" lon="4.90484">
        <ele>149</ele>
        <time>2018-03-31T14:18:10Z</time>
      </trkpt>
      <trkpt lat="49.06788" lon="4.90482">
        <ele>149</ele>
        <time>2018-03-31T14:19:10Z</time>
      </trkpt>
      <trkpt lat="49.068" lon="4.90474">
        <ele>150</ele>
        <time>2018-03-31T14:20:10Z</time>
      </trkpt>
      <trkpt lat="49.06811" lon="4.90468">
        <ele>151</ele>
        <time>2018-03-31T14:21:10Z</time>
      </trkpt>
      <trkpt lat="49.06822" lon="4.90464">
        <ele>151</ele>
        <time>2018-03-31T14:22:10Z</time>
      </trkpt>
      <trkpt lat="49.06837" lon="4.90459">
        <ele>152</ele>
        <time>2018-03-31T14:23:10Z</time>
      </trkpt>
      <trkpt lat="49.06854" lon="4.90453">
        <ele>153</ele>
        <time>2018-03-31T14:24:10Z</time>
      </trkpt>
      <trkpt lat="49.06885" lon="4.90444">
        <ele>155</ele>
        <time>2018-03-31T14:25:10Z</time>
      </trkpt>
      <trkpt lat="49.06927" lon="4.90433">
        <ele>157</ele>
        <time>2018-03-31T14:26:10Z</time>
      </trkpt>
      <trkpt lat="49.06935" lon="4.90431">
        <ele>157</ele>
        <time>2018-03-31T14:27:10Z</time>
      </trkpt>
      <trkpt lat="49.06989" lon="4.90417">
        <ele>162</ele>
        <time>2018-03-31T14:28:10Z</time>
      </trkpt>
      <trkpt lat="49.07003" lon="4.90414">
        <ele>163</ele>
        <time>2018-03-31T14:29:10Z</time>
      </trkpt>
      <trkpt lat="49.07031" lon="4.90406">
        <ele>164</ele>
        <time>2018-03-31T14:30:10Z</time>
      </trkpt>
      <trkpt lat="49.07091" lon="4.90391">
        <ele>167</ele>
        <time>2018-03-31T14:31:10Z</time>
      </trkpt>
      <trkpt lat="49.07146" lon="4.90378">
        <ele>170</ele>
        <time>2018-03-31T14:32:10Z</time>
      </trkpt>
      <trkpt lat="49.07183" lon="4.90367">
        <ele>171</ele>
        <time>2018-03-31T14:33:10Z</time>
      </trkpt>
      <trkpt lat="49.07201" lon="4.9036">
        <ele>171</ele>
        <time>2018-03-31T14:34:10Z</time>
      </trkpt>
      <trkpt lat="49.07226" lon="4.9035">
        <ele>171</ele>
        <time>2018-03-31T14:35:10Z</time>
      </trkpt>
      <trkpt lat="49.07264" lon="4.90333">
        <ele>170</ele>
        <time>2018-03-31T14:36:10Z</time>
      </trkpt>
      <trkpt lat="49.07277" lon="4.90327">
        <ele>169</ele>
        <time>2018-03-31T14:37:10Z</time>
      </trkpt>
      <trkpt lat="49.07292" lon="4.90321">
        <ele>168</ele>
        <time>2018-03-31T14:38:10Z</time>
      </trkpt>
      <trkpt lat="49.07296" lon="4.90319">
        <ele>168</ele>
        <time>2018-03-31T14:39:10Z</time>
      </trkpt>
      <trkpt lat="49.07309" lon="4.90313">
        <ele>168</ele>
        <time>2018-03-31T14:40:10Z</time>
      </trkpt>
      <trkpt lat="49.07319" lon="4.90308">
        <ele>167</ele>
        <time>2018-03-31T14:41:10Z</time>
      </trkpt>
      <trkpt lat="49.07333" lon="4.90302">
        <ele>167</ele>
        <time>2018-03-31T14:42:10Z</time>
      </trkpt>
      <trkpt lat="49.07451" lon="4.9025">
        <ele>168</ele>
        <time>2018-03-31T14:43:10Z</time>
      </trkpt>
      <trkpt lat="49.0747" lon="4.90241">
        <ele>168</ele>
        <time>2018-03-31T14:44:10Z</time>
      </trkpt>
      <trkpt lat="49.07481" lon="4.90236">
        <ele>169</ele>
        <time>2018-03-31T14:45:10Z</time>
      </trkpt>
      <trkpt lat="49.07513" lon="4.90222">
        <ele>169</ele>
        <time>2018-03-31T14:46:10Z</time>
      </trkpt>
      <trkpt lat="49.07547" lon="4.90201">
        <ele>170</ele>
        <time>2018-03-31T14:47:10Z</time>
      </trkpt>
      <trkpt lat="49.07588" lon="4.90171">
        <ele>170</ele>
        <time>2018-03-31T14:48:10Z</time>
      </trkpt>
      <trkpt lat="49.07626" lon="4.90141">
        <ele>169</ele>
        <time>2018-03-31T14:49:10Z</time>
      </trkpt>
      <trkpt lat="49.0768" lon="4.90098">
        <ele>169</ele>
        <time>2018-03-31T14:50:10Z</time>
      </trkpt>
      <trkpt lat="49.07752" lon="4.90039">
        <ele>168</ele>
        <time>2018-03-31T14:51:10Z</time>
      </trkpt>
      <trkpt lat="49.07754" lon="4.90037">
        <ele>168</ele>
        <time>2018-03-31T14:52:10Z</time>
      </trkpt>
      <trkpt lat="49.07818" lon="4.89985">
        <ele>167</ele>
        <time>2018-03-31T14:53:10Z</time>
      </trkpt>
      <trkpt lat="49.07835" lon="4.89971">
        <ele>167</ele>
        <time>2018-03-31T14:54:10Z</time>
      </trkpt>
      <trkpt lat="49.0789" lon="4.89926">
        <ele>167</ele>
        <time>2018-03-31T14:55:10Z</time>
      </trkpt>
      <trkpt lat="49.07919" lon="4.89902">
        <ele>166</ele>
        <time>2018-03-31T14:56:10Z</time>
      </trkpt>
      <trkpt lat="49.07947" lon="4.89882">
        <ele>166</ele>
        <time>2018-03-31T14:57:10Z</time>
      </trkpt>
      <trkpt lat="49.0797" lon="4.89866">
        <ele>166</ele>
        <time>2018-03-31T14:58:10Z</time>
      </trkpt>
      <trkpt lat="49.08024" lon="4.89831">
        <ele>166</ele>
        <time>2018-03-31T14:59:10Z</time>
      </trkpt>
      <trkpt lat="49.08077" lon="4.89796">
        <ele>166</ele>
        <time>2018-03-31T15:00:10Z</time>
      </trkpt>
      <trkpt lat="49.08081" lon="4.89793">
        <ele>166</ele>
        <time>2018-03-31T15:01:10Z</time>
      </trkpt>
      <trkpt lat="49.08131" lon="4.89762">
        <ele>165</ele>
        <time>2018-03-31T15:02:10Z</time>
      </trkpt>
      <trkpt lat="49.08201" lon="4.89719">
        <ele>162</ele>
        <time>2018-03-31T15:03:10Z</time>
      </trkpt>
      <trkpt lat="49.08212" lon="4.89712">
        <ele>161</ele>
        <time>2018-03-31T15:04:10Z</time>
      </trkpt>
      <trkpt lat="49.08267" lon="4.89676">
        <ele>160</ele>
        <time>2018-03-31T15:05:10Z</time>
      </trkpt>
      <trkpt lat="49.08363" lon="4.89619">
        <ele>155</ele>
        <time>2018-03-31T15:06:10Z</time>
      </trkpt>
      <trkpt lat="49.08382" lon="4.89605">
        <ele>155</ele>
        <time>2018-03-31T15:07:10Z</time>
      </trkpt>
      <trkpt lat="49.0839" lon="4.89597">
        <ele>155</ele>
        <time>2018-03-31T15:08:10Z</time>
      </trkpt>
      <trkpt lat="49.08394" lon="4.8959">
        <ele>155</ele>
        <time>2018-03-31T15:09:10Z</time>
      </trkpt>
      <trkpt lat="49.08394" lon="4.8959">
        <ele>155</ele>
        <time>2018-03-31T15:10:10Z</time>
      </trkpt>
      <trkpt lat="49.08398" lon="4.89591">
        <ele>155</ele>
        <time>2018-03-31T15:11:10Z</time>
      </trkpt>
      <trkpt lat="49.08405" lon="4.89592">
        <ele>154</ele>
        <time>2018-03-31T15:12:10Z</time>
      </trkpt>
      <trkpt lat="49.08414" lon="4.89593">
        <ele>154</ele>
        <time>2018-03-31T15:13:10Z</time>
      </trkpt>
      <trkpt lat="49.08426" lon="4.89593">
        <ele>154</ele>
        <time>2018-03-31T15:14:10Z</time>
      </trkpt>
      <trkpt lat="49.0844" lon="4.89592">
        <ele>154</ele>
        <time>2018-03-31T15:15:10Z</time>
      </trkpt>
      <trkpt lat="49.08455" lon="4.8959">
        <ele>154</ele>
        <time>2018-03-31T15:16:10Z</time>
      </trkpt>
      <trkpt lat="49.08484" lon="4.89586">
        <ele>155</ele>
        <time>2018-03-31T15:17:10Z</time>
      </trkpt>
      <trkpt lat="49.08501" lon="4.89579">
        <ele>155</ele>
        <time>2018-03-31T15:18:10Z</time>
      </trkpt>
      <trkpt lat="49.08526" lon="4.89566">
        <ele>151</ele>
        <time>2018-03-31T15:19:10Z</time>
      </trkpt>
      <trkpt lat="49.08548" lon="4.89553">
        <ele>149</ele>
        <time>2018-03-31T15:20:10Z</time>
      </trkpt>
      <trkpt lat="49.0856" lon="4.89544">
        <ele>148</ele>
        <time>2018-03-31T15:21:10Z</time>
      </trkpt>
      <trkpt lat="49.0857" lon="4.89533">
        <ele>147</ele>
        <time>2018-03-31T15:22:10Z</time>
      </trkpt>
      <trkpt lat="49.08582" lon="4.89514">
        <ele>147</ele>
        <time>2018-03-31T15:23:10Z</time>
      </trkpt>
      <trkpt lat="49.08597" lon="4.8949">
        <ele>145</ele>
        <time>2018-03-31T15:24:10Z</time>
      </trkpt>
      <trkpt lat="49.08615" lon="4.89462">
        <ele>143</ele>
        <time>2018-03-31T15:25:10Z</time>
      </trkpt>
      <trkpt lat="49.08638" lon="4.89428">
        <ele>142</ele>
        <time>2018-03-31T15:26:10Z</time>
      </trkpt>
      <trkpt lat="49.08668" lon="4.89382">
        <ele>141</ele>
        <time>2018-03-31T15:27:10Z</time>
      </trkpt>
      <trkpt lat="49.08673" lon="4.89373">
        <ele>140</ele>
        <time>2018-03-31T15:28:10Z</time>
      </trkpt>
      <trkpt lat="49.08679" lon="4.89369">
        <ele>140</ele>
        <time>2018-03-31T15:29:10Z</time>
      </trkpt>
      <trkpt lat="49.08696" lon="4.89361">
        <ele>140</ele>
        <time>2018-03-31T15:30:10Z</time>
      </trkpt>
      <trkpt lat="49.08709" lon="4.89356">
        <ele>139</ele>
        <time>2018-03-31T15:31:10Z</time>
      </trkpt>
      <trkpt lat="49.08721" lon="4.89353">
        <ele>139</ele>
        <time>2018-03-31T15:32:10Z</time>
      </trkpt>
      <trkpt lat="49.08733" lon="4.8935">
        <ele>139</ele>
        <time>2018-03-31T15:33:10Z</time>
      </trkpt>
      <trkpt lat="49.08749" lon="4.89351">
        <ele>139</ele>
        <time>2018-03-31T15:34:10Z</time>
      </trkpt>
      <trkpt lat="49.08767" lon="4.89355">
        <ele>138</ele>
        <time>2018-03-31T15:35:10Z</time>
      </trkpt>
      <trkpt lat="49.08784" lon="4.89363">
        <ele>138</ele>
        <time>2018-03-31T15:36:10Z</time>
      </trkpt>
      <trkpt lat="49.08791" lon="4.89368">
        <ele>137</ele>
        <time>2018-03-31T15:37:10Z</time>
      </trkpt>
      <trkpt lat="49.08799" lon="4.89375">
        <ele>137</ele>
        <time>2018-03-31T15:38:10Z</time>
      </trkpt>
      <trkpt lat="49.08808" lon="4.89385">
        <ele>137</ele>
        <time>2018-03-31T15:39:10Z</time>
      </trkpt>
      <trkpt lat="49.08813" lon="4.8939">
        <ele>137</ele>
        <time>2018-03-31T15:40:10Z</time>
      </trkpt>
      <trkpt lat="49.08823" lon="4.89404">
        <ele>136</ele>
        <time>2018-03-31T15:41:10Z</time>
      </trkpt>
      <trkpt lat="49.08823" lon="4.89404">
        <ele>136</ele>
        <time>2018-03-31T15:42:10Z</time>
      </trkpt>
      <trkpt lat="49.08828" lon="4.89413">
        <ele>136</ele>
        <time>2018-03-31T15:43:10Z</time>
      </trkpt>
      <trkpt lat="49.08833" lon="4.89421">
        <ele>136</ele>
        <time>2018-03-31T15:44:10Z</time>
      </trkpt>
      <trkpt lat="49.08863" lon="4.89472">
        <ele>136</ele>
        <time>2018-03-31T15:45:10Z</time>
      </trkpt>
      <trkpt lat="49.08873" lon="4.89488">
        <ele>137</ele>
        <time>2018-03-31T15:46:10Z</time>
      </trkpt>
      <trkpt lat="49.08877" lon="4.89494">
        <ele>137</ele>
        <time>2018-03-31T15:47:10Z</time>
      </trkpt>
      <trkpt lat="49.08878" lon="4.89498">
        <ele>137</ele>
        <time>2018-03-31T15:48:10Z</time>
      </trkpt>
      <trkpt lat="49.0888" lon="4.89508">
        <ele>138</ele>
        <time>2018-03-31T15:49:10Z</time>
      </trkpt>
      <trkpt lat="49.0888" lon="4.89508">
        <ele>138</ele>
        <time>2018-03-31T15:50:10Z</time>
      </trkpt>
      <trkpt lat="49.08987" lon="4.89405">
        <ele>141</ele>
        <time>2018-03-31T15:51:10Z</time>
      </trkpt>
      <trkpt lat="49.08989" lon="4.89402">
        <ele>141</ele>
        <time>2018-03-31T15:52:10Z</time>
      </trkpt>
      <trkpt lat="49.09034" lon="4.89358">
        <ele>140</ele>
        <time>2018-03-31T15:53:10Z</time>
      </trkpt>
      <trkpt lat="49.09066" lon="4.89326">
        <ele>140</ele>
        <time>2018-03-31T15:54:10Z</time>
      </trkpt>
      <trkpt lat="49.09075" lon="4.89316">
        <ele>140</ele>
        <time>2018-03-31T15:55:10Z</time>
      </trkpt>
      <trkpt lat="49.09075" lon="4.89316">
        <ele>140</ele>
        <time>2018-03-31T15:56:10Z</time>
      </trkpt>
      <trkpt lat="49.09058" lon="4.89266">
        <ele>139</ele>
        <time>2018-03-31T15:57:10Z</time>
      </trkpt>
      <trkpt lat="49.0905" lon="4.89244">
        <ele>138</ele>
        <time>2018-03-31T15:58:10Z</time>
      </trkpt>
      <trkpt lat="49.09046" lon="4.89231">
        <ele>138</ele>
        <time>2018-03-31T15:59:10Z</time>
      </trkpt>
      <trkpt lat="49.0904" lon="4.89216">
        <ele>139</ele>
        <time>2018-03-31T16:00:10Z</time>
      </trkpt>
      <trkpt lat="49.09026" lon="4.89178">
        <ele>139</ele>
        <time>2018-03-31T16:01:10Z</time>
      </trkpt>
      <trkpt lat="49.09011" lon="4.89139">
        <ele>139</ele>
        <time>2018-03-31T16:02:10Z</time>
      </trkpt>
      <trkpt lat="49.0901" lon="4.89136">
        <ele>139</ele>
        <time>2018-03-31T16:03:10Z</time>
      </trkpt>
      <trkpt lat="49.09006" lon="4.89124">
        <ele>139</ele>
        <time>2018-03-31T16:04:10Z</time>
      </trkpt>
      <trkpt lat="49.09006" lon="4.89124">
        <ele>139</ele>
        <time>2018-03-31T16:05:10Z</time>
      </trkpt>
      <trkpt lat="49.09042" lon="4.89092">
        <ele>139</ele>
        <time>2018-03-31T16:06:10Z</time>
      </trkpt>
      <trkpt lat="49.09057" lon="4.89078">
        <ele>139</ele>
        <time>2018-03-31T16:07:10Z</time>
      </trkpt>
      <trkpt lat="49.09085" lon="4.89056">
        <ele>138</ele>
        <time>2018-03-31T16:08:10Z</time>
      </trkpt>
      <trkpt lat="49.09098" lon="4.8904">
        <ele>138</ele>
        <time>2018-03-31T16:09:10Z</time>
      </trkpt>
      <trkpt lat="49.09105" lon="4.89025">
        <ele>137</ele>
        <time>2018-03-31T16:10:10Z</time>
      </trkpt>
      <trkpt lat="49.09109" lon="4.89012">
        <ele>137</ele>
        <time>2018-03-31T16:11:10Z</time>
      </trkpt>
      <trkpt lat="49.09111" lon="4.89004">
        <ele>137</ele>
        <time>2018-03-31T16:12:10Z</time>
      </trkpt>
      <trkpt lat="49.09127" lon="4.8894">
        <ele>138</ele>
        <time>2018-03-31T16:13:10Z</time>
      </trkpt>
      <trkpt lat="49.09148" lon="4.88857">
        <ele>139</ele>
        <time>2018-03-31T16:14:10Z</time>
      </trkpt>
      <trkpt lat="49.09152" lon="4.8884">
        <ele>139</ele>
        <time>2018-03-31T16:15:10Z</time>
      </trkpt>
      <trkpt lat="49.09164" lon="4.88793">
        <ele>138</ele>
        <time>2018-03-31T16:16:10Z</time>
      </trkpt>
      <trkpt lat="49.09169" lon="4.88774">
        <ele>137</ele>
        <time>2018-03-31T16:17:10Z</time>
      </trkpt>
      <trkpt lat="49.09172" lon="4.88758">
        <ele>137</ele>
        <time>2018-03-31T16:18:10Z</time>
      </trkpt>
      <trkpt lat="49.09186" lon="4.88713">
        <ele>137</ele>
        <time>2018-03-31T16:19:10Z</time>
      </trkpt>
      <trkpt lat="49.09193" lon="4.88697">
        <ele>137</ele>
        <time>2018-03-31T16:20:10Z</time>
      </trkpt>
      <trkpt lat="49.09202" lon="4.8868">
        <ele>137</ele>
        <time>2018-03-31T16:21:10Z</time>
      </trkpt>
      <trkpt lat="49.09217" lon="4.88654">
        <ele>137</ele>
        <time>2018-03-31T16:22:10Z</time>
      </trkpt>
      <trkpt lat="49.09236" lon="4.88628">
        <ele>137</ele>
        <time>2018-03-31T16:23:10Z</time>
      </trkpt>
      <trkpt lat="49.09257" lon="4.88607">
        <ele>136</ele>
        <time>2018-03-31T16:24:10Z</time>
      </trkpt>
      <trkpt lat="49.09278" lon="4.88591">
        <ele>136</ele>
        <time>2018-03-31T16:25:10Z</time>
      </trkpt>
      <trkpt lat="49.09309" lon="4.88569">
        <ele>137</ele>
        <time>2018-03-31T16:26:10Z</time>
      </trkpt>
      <trkpt lat="49.09349" lon="4.88541">
        <ele>140</ele>
        <time>2018-03-31T16:27:10Z</time>
      </trkpt>
      <trkpt lat="49.09372" lon="4.88523">
        <ele>142</ele>
        <time>2018-03-31T16:28:10Z</time>
      </trkpt>
      <trkpt lat="49.0938" lon="4.88515">
        <ele>143</ele>
        <time>2018-03-31T16:29:10Z</time>
      </trkpt>
      <trkpt lat="49.09398" lon="4.88495">
        <ele>144</ele>
        <time>2018-03-31T16:30:10Z</time>
      </trkpt>
      <trkpt lat="49.09406" lon="4.88486">
        <ele>144</ele>
        <time>2018-03-31T16:31:10Z</time>
      </trkpt>
      <trkpt lat="49.09411" lon="4.88478">
        <ele>145</ele>
        <time>2018-03-31T16:32:10Z</time>
      </trkpt>
      <trkpt lat="49.09418" lon="4.88466">
        <ele>145</ele>
        <time>2018-03-31T16:33:10Z</time>
      </trkpt>
      <trkpt lat="49.09426" lon="4.88449">
        <ele>146</ele>
        <time>2018-03-31T16:34:10Z</time>
      </trkpt>
      <trkpt lat="49.09432" lon="4.88437">
        <ele>147</ele>
        <time>2018-03-31T16:35:10Z</time>
      </trkpt>
      <trkpt lat="49.09438" lon="4.88424">
        <ele>148</ele>
        <time>2018-03-31T16:36:10Z</time>
      </trkpt>
      <trkpt lat="49.09443" lon="4.88408">
        <ele>148</ele>
        <time>2018-03-31T16:37:10Z</time>
      </trkpt>
      <trkpt lat="49.09448" lon="4.88387">
        <ele>149</ele>
        <time>2018-03-31T16:38:10Z</time>
      </trkpt>
      <trkpt lat="49.09452" lon="4.88373">
        <ele>149</ele>
        <time>2018-03-31T16:39:10Z</time>
      </trkpt>
      <trkpt lat="49.09454" lon="4.88356">
        <ele>150</ele>
        <time>2018-03-31T16:40:10Z</time>
      </trkpt>
      <trkpt lat="49.09457" lon="4.88338">
        <ele>150</ele>
        <time>2018-03-31T16:41:10Z</time>
      </trkpt>
      <trkpt lat="49.0946" lon="4.88316">
        <ele>151</ele>
        <time>2018-03-31T16:42:10Z</time>
      </trkpt>
      <trkpt lat="49.09464" lon="4.88282">
        <ele>151</ele>
        <time>2018-03-31T16:43:10Z</time>
      </trkpt>
      <trkpt lat="49.09465" lon="4.8826">
        <ele>151</ele>
        <time>2018-03-31T16:44:10Z</time>
      </trkpt>
      <trkpt lat="49.09468" lon="4.88236">
        <ele>151</ele>
        <time>2018-03-31T16:45:10Z</time>
      </trkpt>
      <trkpt lat="49.0947" lon="4.88212">
        <ele>152</ele>
        <time>2018-03-31T16:46:10Z</time>
      </trkpt>
      <trkpt lat="49.09472" lon="4.88183">
        <ele>153</ele>
        <time>2018-03-31T16:47:10Z</time>
      </trkpt>
      <trkpt lat="49.09477" lon="4.88137">
        <ele>154</ele>
        <time>2018-03-31T16:48:10Z</time>
      </trkpt>
      <trkpt lat="49.09479" lon="4.88103">
        <ele>154</ele>
        <time>2018-03-31T16:49:10Z</time>
      </trkpt>
      <trkpt lat="49.09488" lon="4.87995">
        <ele>156</ele>
        <time>2018-03-31T16:50:10Z</time>
      </trkpt>
      <trkpt lat="49.09491" lon="4.87963">
        <ele>157</ele>
        <time>2018-03-31T16:51:10Z</time>
      </trkpt>
      <trkpt lat="49.09492" lon="4.87948">
        <ele>157</ele>
        <time>2018-03-31T16:52:10Z</time>
      </trkpt>
      <trkpt lat="49.09495" lon="4.87907">
        <ele>158</ele>
        <time>2018-03-31T16:53:10Z</time>
      </trkpt>
      <trkpt lat="49.09493" lon="4.87867">
        <ele>159</ele>
        <time>2018-03-31T16:54:10Z</time>
      </trkpt>
      <trkpt lat="49.0949" lon="4.87837">
        <ele>160</ele>
        <time>2018-03-31T16:55:10Z</time>
      </trkpt>
      <trkpt lat="49.09487" lon="4.87817">
        <ele>160</ele>
        <time>2018-03-31T16:56:10Z</time>
      </trkpt>
      <trkpt lat="49.09485" lon="4.87799">
        <ele>160</ele>
        <time>2018-03-31T16:57:10Z</time>
      </trkpt>
      <trkpt lat="49.09481" lon="4.87777">
        <ele>161</ele>
        <time>2018-03-31T16:58:10Z</time>
      </trkpt>
      <trkpt lat="49.09477" lon="4.87758">
        <ele>161</ele>
        <time>2018-03-31T16:59:10Z</time>
      </trkpt>
      <trkpt lat="49.09471" lon="4.87737">
        <ele>161</ele>
        <time>2018-03-31T17:00:10Z</time>
      </trkpt>
      <trkpt lat="49.0946" lon="4.87704">
        <ele>161</ele>
        <time>2018-03-31T17:01:10Z</time>
      </trkpt>
      <trkpt lat="49.09447" lon="4.8767">
        <ele>161</ele>
        <time>2018-03-31T17:02:10Z</time>
      </trkpt>
      <trkpt lat="49.09429" lon="4.87625">
        <ele>161</ele>
        <time>2018-03-31T17:03:10Z</time>
      </trkpt>
      <trkpt lat="49.094" lon="4.87558">
        <ele>162</ele>
        <time>2018-03-31T17:04:10Z</time>
      </trkpt>
      <trkpt lat="49.09392" lon="4.87536">
        <ele>162</ele>
        <time>2018-03-31T17:05:10Z</time>
      </trkpt>
      <trkpt lat="49.09388" lon="4.87523">
        <ele>163</ele>
        <time>2018-03-31T17:06:10Z</time>
      </trkpt>
      <trkpt lat="49.09385" lon="4.8751">
        <ele>163</ele>
        <time>2018-03-31T17:07:10Z</time>
      </trkpt>
      <trkpt lat="49.09383" lon="4.875">
        <ele>163</ele>
        <time>2018-03-31T17:08:10Z</time>
      </trkpt>
      <trkpt lat="49.0938" lon="4.87484">
        <ele>163</ele>
        <time>2018-03-31T17:09:10Z</time>
      </trkpt>
      <trkpt lat="49.09379" lon="4.8747">
        <ele>164</ele>
        <time>2018-03-31T17:10:10Z</time>
      </trkpt>
      <trkpt lat="49.09379" lon="4.87457">
        <ele>164</ele>
        <time>2018-03-31T17:11:10Z</time>
      </trkpt>
      <trkpt lat="49.09379" lon="4.87445">
        <ele>165</ele>
        <time>2018-03-31T17:12:10Z</time>
      </trkpt>
      <trkpt lat="49.09381" lon="4.87432">
        <ele>165</ele>
        <time>2018-03-31T17:13:10Z</time>
      </trkpt>
      <trkpt lat="49.09385" lon="4.87417">
        <ele>166</ele>
        <time>2018-03-31T17:14:10Z</time>
      </trkpt>
      <trkpt lat="49.09389" lon="4.87404">
        <ele>166</ele>
        <time>2018-03-31T17:15:10Z</time>
      </trkpt>
      <trkpt lat="49.09393" lon="4.87394">
        <ele>166</ele>
        <time>2018-03-31T17:16:10Z</time>
      </trkpt>
      <trkpt lat="49.09399" lon="4.87382">
        <ele>166</ele>
        <time>2018-03-31T17:17:10Z</time>
      </trkpt>
      <trkpt lat="49.09405" lon="4.87373">
        <ele>166</ele>
        <time>2018-03-31T17:18:10Z</time>
      </trkpt>
      <trkpt lat="49.0941" lon="4.87365">
        <ele>166</ele>
        <time>2018-03-31T17:19:10Z</time>
      </trkpt>
      <trkpt lat="49.09419" lon="4.87353">
        <ele>166</ele>
        <time>2018-03-31T17:20:10Z</time>
      </trkpt>
      <trkpt lat="49.0943" lon="4.87344">
        <ele>166</ele>
        <time>2018-03-31T17:21:10Z</time>
      </trkpt>
      <trkpt lat="49.09444" lon="4.87338">
        <ele>165</ele>
        <time>2018-03-31T17:22:10Z</time>
      </trkpt>
      <trkpt lat="49.0946" lon="4.87333">
        <ele>164</ele>
        <time>2018-03-31T17:23:10Z</time>
      </trkpt>
      <trkpt lat="49.09473" lon="4.87329">
        <ele>163</ele>
        <time>2018-03-31T17:24:10Z</time>
      </trkpt>
      <trkpt lat="49.09552" lon="4.87319">
        <ele>159</ele>
        <time>2018-03-31T17:25:10Z</time>
      </trkpt>
      <trkpt lat="49.09596" lon="4.8731">
        <ele>157</ele>
        <time>2018-03-31T17:26:10Z</time>
      </trkpt>
      <trkpt lat="49.09616" lon="4.87305">
        <ele>156</ele>
        <time>2018-03-31T17:27:10Z</time>
      </trkpt>
      <trkpt lat="49.09631" lon="4.87297">
        <ele>155</ele>
        <time>2018-03-31T17:28:10Z</time>
      </trkpt>
      <trkpt lat="49.09644" lon="4.87289">
        <ele>155</ele>
        <time>2018-03-31T17:29:10Z</time>
      </trkpt>
      <trkpt lat="49.09664" lon="4.87276">
        <ele>153</ele>
        <time>2018-03-31T17:30:10Z</time>
      </trkpt>
      <trkpt lat="49.09677" lon="4.87265">
        <ele>151</ele>
        <time>2018-03-31T17:31:10Z</time>
      </trkpt>
      <trkpt lat="49.09678" lon="4.87264">
        <ele>151</ele>
        <time>2018-03-31T17:32:10Z</time>
      </trkpt>
      <trkpt lat="49.09692" lon="4.87252">
        <ele>150</ele>
        <time>2018-03-31T17:33:10Z</time>
      </trkpt>
      <trkpt lat="49.09708" lon="4.87232">
        <ele>149</ele>
        <time>2018-03-31T17:34:10Z</time>
      </trkpt>
      <trkpt lat="49.09719" lon="4.87215">
        <ele>148</ele>
        <time>2018-03-31T17:35:10Z</time>
      </trkpt>
      <trkpt lat="49.09726" lon="4.87204">
        <ele>147</ele>
        <time>2018-03-31T17:36:10Z</time>
      </trkpt>
      <trkpt lat="49.09734" lon="4.87192">
        <ele>147</ele>
        <time>2018-03-31T17:37:10Z</time>
      </trkpt>
      <trkpt lat="49.09755" lon="4.87157">
        <ele>146</ele>
        <time>2018-03-31T17:38:10Z</time>
      </trkpt>
      <trkpt lat="49.09763" lon="4.87144">
        <ele>145</ele>
        <time>2018-03-31T17:39:10Z</time>
      </trkpt>
      <trkpt lat="49.09786" lon="4.87105">
        <ele>144</ele>
        <time>2018-03-31T17:40:10Z</time>
      </trkpt>
      <trkpt lat="49.09794" lon="4.8709">
        <ele>143</ele>
        <time>2018-03-31T17:41:10Z</time>
      </trkpt>
      <trkpt lat="49.09874" lon="4.86961">
        <ele>141</ele>
        <time>2018-03-31T17:42:10Z</time>
      </trkpt>
      <trkpt lat="49.09912" lon="4.86907">
        <ele>139</ele>
        <time>2018-03-31T17:43:10Z</time>
      </trkpt>
      <trkpt lat="49.09935" lon="4.86877">
        <ele>139</ele>
        <time>2018-03-31T17:44:10Z</time>
      </trkpt>
      <trkpt lat="49.09959" lon="4.86847">
        <ele>140</ele>
        <time>2018-03-31T17:45:10Z</time>
      </trkpt>
      <trkpt lat="49.09973" lon="4.86827">
        <ele>140</ele>
        <time>2018-03-31T17:46:10Z</time>
      </trkpt>
      <trkpt lat="49.09979" lon="4.86819">
        <ele>140</ele>
        <time>2018-03-31T17:47:10Z</time>
      </trkpt>
      <trkpt lat="49.09984" lon="4.86811">
        <ele>141</ele>
        <time>2018-03-31T17:48:10Z</time>
      </trkpt>
      <trkpt lat="49.09988" lon="4.86804">
        <ele>141</ele>
        <time>2018-03-31T17:49:10Z</time>
      </trkpt>
      <trkpt lat="49.09992" lon="4.86796">
        <ele>141</ele>
        <time>2018-03-31T17:50:10Z</time>
      </trkpt>
      <trkpt lat="49.09995" lon="4.8679">
        <ele>142</ele>
        <time>2018-03-31T17:51:10Z</time>
      </trkpt>
      <trkpt lat="49.10001" lon="4.86775">
        <ele>142</ele>
        <time>2018-03-31T17:52:10Z</time>
      </trkpt>
      <trkpt lat="49.10004" lon="4.86768">
        <ele>143</ele>
        <time>2018-03-31T17:53:10Z</time>
      </trkpt>
      <trkpt lat="49.1001" lon="4.8676">
        <ele>143</ele>
        <time>2018-03-31T17:54:10Z</time>
      </trkpt>
      <trkpt lat="49.10027" lon="4.86743">
        <ele>145</ele>
        <time>2018-03-31T17:55:10Z</time>
      </trkpt>
      <trkpt lat="49.10039" lon="4.86735">
        <ele>147</ele>
        <time>2018-03-31T17:56:10Z</time>
      </trkpt>
      <trkpt lat="49.10052" lon="4.86727">
        <ele>149</ele>
        <time>2018-03-31T17:57:10Z</time>
      </trkpt>
      <trkpt lat="49.10056" lon="4.86725">
        <ele>149</ele>
        <time>2018-03-31T17:58:10Z</time>
      </trkpt>
      <trkpt lat="49.10097" lon="4.86704">
        <ele>153</ele>
        <time>2018-03-31T17:59:10Z</time>
      </trkpt>
      <trkpt lat="49.10137" lon="4.86681">
        <ele>154</ele>
        <time>2018-03-31T18:00:10Z</time>
      </trkpt>
      <trkpt lat="49.10167" lon="4.86663">
        <ele>155</ele>
        <time>2018-03-31T18:01:10Z</time>
      </trkpt>
      <trkpt lat="49.10175" lon="4.86658">
        <ele>154</ele>
        <time>2018-03-31T18:02:10Z</time>
      </trkpt>
      <trkpt lat="49.10188" lon="4.86649">
        <ele>152</ele>
        <time>2018-03-31T18:03:10Z</time>
      </trkpt>
      <trkpt lat="49.10198" lon="4.86641">
        <ele>151</ele>
        <time>2018-03-31T18:04:10Z</time>
      </trkpt>
      <trkpt lat="49.1021" lon="4.86629">
        <ele>150</ele>
        <time>2018-03-31T18:05:10Z</time>
      </trkpt>
      <trkpt lat="49.10223" lon="4.86615">
        <ele>149</ele>
        <time>2018-03-31T18:06:10Z</time>
      </trkpt>
      <trkpt lat="49.10239" lon="4.86596">
        <ele>149</ele>
        <time>2018-03-31T18:07:10Z</time>
      </trkpt>
      <trkpt lat="49.10258" lon="4.86572">
        <ele>148</ele>
        <time>2018-03-31T18:08:10Z</time>
      </trkpt>
      <trkpt lat="49.10273" lon="4.86551">
        <ele>147</ele>
        <time>2018-03-31T18:09:10Z</time>
      </trkpt>
      <trkpt lat="49.10287" lon="4.86535">
        <ele>147</ele>
        <time>2018-03-31T18:10:10Z</time>
      </trkpt>
      <trkpt lat="49.10297" lon="4.86523">
        <ele>147</ele>
        <time>2018-03-31T18:11:10Z</time>
      </trkpt>
      <trkpt lat="49.10305" lon="4.86514">
        <ele>147</ele>
        <time>2018-03-31T18:12:10Z</time>
      </trkpt>
      <trkpt lat="49.10308" lon="4.86511">
        <ele>147</ele>
        <time>2018-03-31T18:13:10Z</time>
      </trkpt>
      <trkpt lat="49.1033" lon="4.86493">
        <ele>147</ele>
        <time>2018-03-31T18:14:10Z</time>
      </trkpt>
      <trkpt lat="49.10341" lon="4.86486">
        <ele>146</ele>
        <time>2018-03-31T18:15:10Z</time>
      </trkpt>
      <trkpt lat="49.10352" lon="4.86479">
        <ele>146</ele>
        <time>2018-03-31T18:16:10Z</time>
      </trkpt>
      <trkpt lat="49.10363" lon="4.86473">
        <ele>145</ele>
        <time>2018-03-31T18:17:10Z</time>
      </trkpt>
      <trkpt lat="49.10391" lon="4.86459">
        <ele>144</ele>
        <time>2018-03-31T18:18:10Z</time>
      </trkpt>
      <trkpt lat="49.10417" lon="4.86445">
        <ele>143</ele>
        <time>2018-03-31T18:19:10Z</time>
      </trkpt>
      <trkpt lat="49.10459" lon="4.86428">
        <ele>142</ele>
        <time>2018-03-31T18:20:10Z</time>
      </trkpt>
      <trkpt lat="49.1049" lon="4.8642">
        <ele>141</ele>
        <time>2018-03-31T18:21:10Z</time>
      </trkpt>
      <trkpt lat="49.10511" lon="4.86417">
        <ele>141</ele>
        <time>2018-03-31T18:22:10Z</time>
      </trkpt>
      <trkpt lat="49.10532" lon="4.86417">
        <ele>142</ele>
        <time>2018-03-31T18:23:10Z</time>
      </trkpt>
      <trkpt lat="49.10533" lon="4.86417">
        <ele>142</ele>
        <time>2018-03-31T18:24:10Z</time>
      </trkpt>
      <trkpt lat="49.10553" lon="4.86416">
        <ele>142</ele>
        <time>2018-03-31T18:25:10Z</time>
      </trkpt>
      <trkpt lat="49.10607" lon="4.86417">
        <ele>143</ele>
        <time>2018-03-31T18:26:10Z</time>
      </trkpt>
      <trkpt lat="49.10651" lon="4.86418">
        <ele>142</ele>
        <time>2018-03-31T18:27:10Z</time>
      </trkpt>
      <trkpt lat="49.10702" lon="4.86418">
        <ele>142</ele>
        <time>2018-03-31T18:28:10Z</time>
      </trkpt>
      <trkpt lat="49.10724" lon="4.86418">
        <ele>143</ele>
        <time>2018-03-31T18:29:10Z</time>
      </trkpt>
      <trkpt lat="49.10739" lon="4.86418">
        <ele>143</ele>
        <time>2018-03-31T18:30:10Z</time>
      </trkpt>
      <trkpt lat="49.10787" lon="4.86418">
        <ele>142</ele>
        <time>2018-03-31T18:31:10Z</time>
      </trkpt>
      <trkpt lat="49.10832" lon="4.86418">
        <ele>141</ele>
        <time>2018-03-31T18:32:10Z</time>
      </trkpt>
      <trkpt lat="49.1087" lon="4.86418">
        <ele>141</ele>
        <time>2018-03-31T18:33:10Z</time>
      </trkpt>
      <trkpt lat="49.10913" lon="4.86416">
        <ele>141</ele>
        <time>2018-03-31T18:34:10Z</time>
      </trkpt>
      <trkpt lat="49.10944" lon="4.86414">
        <ele>142</ele>
        <time>2018-03-31T18:35:10Z</time>
      </trkpt>
      <trkpt lat="49.10977" lon="4.8641">
        <ele>143</ele>
        <time>2018-03-31T18:36:10Z</time>
      </trkpt>
      <trkpt lat="49.10991" lon="4.86408">
        <ele>143</ele>
        <time>2018-03-31T18:37:10Z</time>
      </trkpt>
      <trkpt lat="49.11022" lon="4.864">
        <ele>144</ele>
        <time>2018-03-31T18:38:10Z</time>
      </trkpt>
      <trkpt lat="49.11052" lon="4.86391">
        <ele>144</ele>
        <time>2018-03-31T18:39:10Z</time>
      </trkpt>
      <trkpt lat="49.11085" lon="4.8638">
        <ele>145</ele>
        <time>2018-03-31T18:40:10Z</time>
      </trkpt>
      <trkpt lat="49.11122" lon="4.86367">
        <ele>144</ele>
        <time>2018-03-31T18:41:10Z</time>
      </trkpt>
      <trkpt lat="49.11157" lon="4.86353">
        <ele>144</ele>
        <time>2018-03-31T18:42:10Z</time>
      </trkpt>
      <trkpt lat="49.11193" lon="4.86341">
        <ele>143</ele>
        <time>2018-03-31T18:43:10Z</time>
      </trkpt>
      <trkpt lat="49.11224" lon="4.86328">
        <ele>142</ele>
        <time>2018-03-31T18:44:10Z</time>
      </trkpt>
      <trkpt lat="49.11257" lon="4.86316">
        <ele>140</ele>
        <time>2018-03-31T18:45:10Z</time>
      </trkpt>
      <trkpt lat="49.11273" lon="4.86309">
        <ele>140</ele>
        <time>2018-03-31T18:46:10Z</time>
      </trkpt>
      <trkpt lat="49.11301" lon="4.86296">
        <ele>138</ele>
        <time>2018-03-31T18:47:10Z</time>
      </trkpt>
      <trkpt lat="49.11323" lon="4.86283">
        <ele>137</ele>
        <time>2018-03-31T18:48:10Z</time>
      </trkpt>
      <trkpt lat="49.11339" lon="4.86273">
        <ele>136</ele>
        <time>2018-03-31T18:49:10Z</time>
      </trkpt>
      <trkpt lat="49.11356" lon="4.86261">
        <ele>136</ele>
        <time>2018-03-31T18:50:10Z</time>
      </trkpt>
      <trkpt lat="49.11377" lon="4.86245">
        <ele>135</ele>
        <time>2018-03-31T18:51:10Z</time>
      </trkpt>
      <trkpt lat="49.11398" lon="4.86227">
        <ele>135</ele>
        <time>2018-03-31T18:52:10Z</time>
      </trkpt>
      <trkpt lat="49.11409" lon="4.86217">
        <ele>135</ele>
        <time>2018-03-31T18:53:10Z</time>
      </trkpt>
      <trkpt lat="49.1143" lon="4.86196">
        <ele>135</ele>
        <time>2018-03-31T18:54:10Z</time>
      </trkpt>
      <trkpt lat="49.11449" lon="4.86177">
        <ele>135</ele>
        <time>2018-03-31T18:55:10Z</time>
      </trkpt>
      <trkpt lat="49.11462" lon="4.86162">
        <ele>135</ele>
        <time>2018-03-31T18:56:10Z</time>
      </trkpt>
      <trkpt lat="49.11478" lon="4.86141">
        <ele>136</ele>
        <time>2018-03-31T18:57:10Z</time>
      </trkpt>
      <trkpt lat="49.11489" lon="4.86127">
        <ele>136</ele>
        <time>2018-03-31T18:58:10Z</time>
      </trkpt>
      <trkpt lat="49.11499" lon="4.86111">
        <ele>136</ele>
        <time>2018-03-31T18:59:10Z</time>
      </trkpt>
      <trkpt lat="49.11507" lon="4.86097">
        <ele>136</ele>
        <time>2018-03-31T19:00:10Z</time>
      </trkpt>
      <trkpt lat="49.11512" lon="4.86087">
        <ele>136</ele>
        <time>2018-03-31T19:01:10Z</time>
      </trkpt>
      <trkpt lat="49.1152" lon="4.86072">
        <ele>137</ele>
        <time>2018-03-31T19:02:10Z</time>
      </trkpt>
      <trkpt lat="49.11527" lon="4.86056">
        <ele>137</ele>
        <time>2018-03-31T19:03:10Z</time>
      </trkpt>
      <trkpt lat="49.11542" lon="4.86021">
        <ele>138</ele>
        <time>2018-03-31T19:04:10Z</time>
      </trkpt>
      <trkpt lat="49.11585" lon="4.85919">
        <ele>135</ele>
        <time>2018-03-31T19:05:10Z</time>
      </trkpt>
      <trkpt lat="49.11602" lon="4.85879">
        <ele>139</ele>
        <time>2018-03-31T19:06:10Z</time>
      </trkpt>
      <trkpt lat="49.11635" lon="4.85803">
        <ele>144</ele>
        <time>2018-03-31T19:07:10Z</time>
      </trkpt>
      <trkpt lat="49.11684" lon="4.85688">
        <ele>147</ele>
        <time>2018-03-31T19:08:10Z</time>
      </trkpt>
      <trkpt lat="49.11743" lon="4.8555">
        <ele>140</ele>
        <time>2018-03-31T19:09:10Z</time>
      </trkpt>
      <trkpt lat="49.11759" lon="4.85514">
        <ele>139</ele>
        <time>2018-03-31T19:10:10Z</time>
      </trkpt>
      <trkpt lat="49.11769" lon="4.85497">
        <ele>139</ele>
        <time>2018-03-31T19:11:10Z</time>
      </trkpt>
      <trkpt lat="49.11779" lon="4.85479">
        <ele>140</ele>
        <time>2018-03-31T19:12:10Z</time>
      </trkpt>
      <trkpt lat="49.11791" lon="4.85464">
        <ele>141</ele>
        <time>2018-03-31T19:13:10Z</time>
      </trkpt>
      <trkpt lat="49.11801" lon="4.8545">
        <ele>142</ele>
        <time>2018-03-31T19:14:10Z</time>
      </trkpt>
      <trkpt lat="49.11813" lon="4.85437">
        <ele>144</ele>
        <time>2018-03-31T19:15:10Z</time>
      </trkpt>
      <trkpt lat="49.11823" lon="4.85426">
        <ele>145</ele>
        <time>2018-03-31T19:16:10Z</time>
      </trkpt>
      <trkpt lat="49.11844" lon="4.8541">
        <ele>146</ele>
        <time>2018-03-31T19:17:10Z</time>
      </trkpt>
      <trkpt lat="49.11887" lon="4.8538">
        <ele>146</ele>
        <time>2018-03-31T19:18:10Z</time>
      </trkpt>
      <trkpt lat="49.11929" lon="4.85352">
        <ele>146</ele>
        <time>2018-03-31T19:19:10Z</time>
      </trkpt>
      <trkpt lat="49.12007" lon="4.85299">
        <ele>138</ele>
        <time>2018-03-31T19:20:10Z</time>
      </trkpt>
      <trkpt lat="49.12051" lon="4.85267">
        <ele>136</ele>
        <time>2018-03-31T19:21:10Z</time>
      </trkpt>
      <trkpt lat="49.12059" lon="4.85262">
        <ele>136</ele>
        <time>2018-03-31T19:22:10Z</time>
      </trkpt>
      <trkpt lat="49.12083" lon="4.85245">
        <ele>134</ele>
        <time>2018-03-31T19:23:10Z</time>
      </trkpt>
      <trkpt lat="49.12101" lon="4.85233">
        <ele>134</ele>
        <time>2018-03-31T19:24:10Z</time>
      </trkpt>
      <trkpt lat="49.12109" lon="4.85228">
        <ele>134</ele>
        <time>2018-03-31T19:25:10Z</time>
      </trkpt>
      <trkpt lat="49.12124" lon="4.85221">
        <ele>133</ele>
        <time>2018-03-31T19:26:10Z</time>
      </trkpt>
      <trkpt lat="49.1213" lon="4.85218">
        <ele>133</ele>
        <time>2018-03-31T19:27:10Z</time>
      </trkpt>
      <trkpt lat="49.12137" lon="4.85216">
        <ele>133</ele>
        <time>2018-03-31T19:28:10Z</time>
      </trkpt>
      <trkpt lat="49.12144" lon="4.85215">
        <ele>133</ele>
        <time>2018-03-31T19:29:10Z</time>
      </trkpt>
      <trkpt lat="49.1215" lon="4.85214">
        <ele>132</ele>
        <time>2018-03-31T19:30:10Z</time>
      </trkpt>
      <trkpt lat="49.12156" lon="4.85213">
        <ele>132</ele>
        <time>2018-03-31T19:31:10Z</time>
      </trkpt>
      <trkpt lat="49.12165" lon="4.85214">
        <ele>132</ele>
        <time>2018-03-31T19:32:10Z</time>
      </trkpt>
      <trkpt lat="49.12176" lon="4.85217">
        <ele>132</ele>
        <time>2018-03-31T19:33:10Z</time>
      </trkpt>
      <trkpt lat="49.12179" lon="4.85218">
        <ele>132</ele>
        <time>2018-03-31T19:34:10Z</time>
      </trkpt>
      <trkpt lat="49.12182" lon="4.85219">
        <ele>132</ele>
        <time>2018-03-31T19:35:10Z</time>
      </trkpt>
      <trkpt lat="49.12189" lon="4.85223">
        <ele>132</ele>
        <time>2018-03-31T19:36:10Z</time>
      </trkpt>
      <trkpt lat="49.12198" lon="4.85231">
        <ele>132</ele>
        <time>2018-03-31T19:37:10Z</time>
      </trkpt>
      <trkpt lat="49.12211" lon="4.85244">
        <ele>132</ele>
        <time>2018-03-31T19:38:10Z</time>
      </trkpt>
      <trkpt lat="49.12213" lon="4.85246">
        <ele>132</ele>
        <time>2018-03-31T19:39:10Z</time>
      </trkpt>
      <trkpt lat="49.1222" lon="4.85253">
        <ele>132</ele>
        <time>2018-03-31T19:40:10Z</time>
      </trkpt>
      <trkpt lat="49.12227" lon="4.85259">
        <ele>132</ele>
        <time>2018-03-31T19:41:10Z</time>
      </trkpt>
      <trkpt lat="49.12236" lon="4.85264">
        <ele>132</ele>
        <time>2018-03-31T19:42:10Z</time>
      </trkpt>
      <trkpt lat="49.12245" lon="4.85267">
        <ele>132</ele>
        <time>2018-03-31T19:43:10Z</time>
      </trkpt>
      <trkpt lat="49.12261" lon="4.85266">
        <ele>133</ele>
        <time>2018-03-31T19:44:10Z</time>
      </trkpt>
      <trkpt lat="49.12291" lon="4.85256">
        <ele>133</ele>
        <time>2018-03-31T19:45:10Z</time>
      </trkpt>
      <trkpt lat="49.12327" lon="4.85243">
        <ele>134</ele>
        <time>2018-03-31T19:46:10Z</time>
      </trkpt>
      <trkpt lat="49.12334" lon="4.85241">
        <ele>134</ele>
        <time>2018-03-31T19:47:10Z</time>
      </trkpt>
      <trkpt lat="49.12347" lon="4.85233">
        <ele>135</ele>
        <time>2018-03-31T19:48:10Z</time>
      </trkpt>
      <trkpt lat="49.12354" lon="4.85229">
        <ele>135</ele>
        <time>2018-03-31T19:49:10Z</time>
      </trkpt>
      <trkpt lat="49.12359" lon="4.85225">
        <ele>135</ele>
        <time>2018-03-31T19:50:10Z</time>
      </trkpt>
      <trkpt lat="49.12362" lon="4.85221">
        <ele>135</ele>
        <time>2018-03-31T19:51:10Z</time>
      </trkpt>
      <trkpt lat="49.12367" lon="4.85215">
        <ele>135</ele>
        <time>2018-03-31T19:52:10Z</time>
      </trkpt>
      <trkpt lat="49.12372" lon="4.85203">
        <ele>135</ele>
        <time>2018-03-31T19:53:10Z</time>
      </trkpt>
      <trkpt lat="49.12375" lon="4.85198">
        <ele>135</ele>
        <time>2018-03-31T19:54:10Z</time>
      </trkpt>
      <trkpt lat="49.12385" lon="4.85161">
        <ele>136</ele>
        <time>2018-03-31T19:55:10Z</time>
      </trkpt>
      <trkpt lat="49.12392" lon="4.85132">
        <ele>137</ele>
        <time>2018-03-31T19:56:10Z</time>
      </trkpt>
      <trkpt lat="49.12398" lon="4.85109">
        <ele>138</ele>
        <time>2018-03-31T19:57:10Z</time>
      </trkpt>
      <trkpt lat="49.12414" lon="4.85046">
        <ele>140</ele>
        <time>2018-03-31T19:58:10Z</time>
      </trkpt>
      <trkpt lat="49.1242" lon="4.85019">
        <ele>140</ele>
        <time>2018-03-31T19:59:10Z</time>
      </trkpt>
      <trkpt lat="49.12424" lon="4.84997">
        <ele>140</ele>
        <time>2018-03-31T20:00:10Z</time>
      </trkpt>
      <trkpt lat="49.12425" lon="4.84988">
        <ele>140</ele>
        <time>2018-03-31T20:01:10Z</time>
      </trkpt>
      <trkpt lat="49.12435" lon="4.84933">
        <ele>140</ele>
        <time>2018-03-31T20:02:10Z</time>
      </trkpt>
      <trkpt lat="49.12439" lon="4.84912">
        <ele>141</ele>
        <time>2018-03-31T20:03:10Z</time>
      </trkpt>
      <trkpt lat="49.12445" lon="4.8488">
        <ele>141</ele>
        <time>2018-03-31T20:04:10Z</time>
      </trkpt>
      <trkpt lat="49.12448" lon="4.84867">
        <ele>141</ele>
        <time>2018-03-31T20:05:10Z</time>
      </trkpt>
      <trkpt lat="49.1246" lon="4.84827">
        <ele>142</ele>
        <time>2018-03-31T20:06:10Z</time>
      </trkpt>
      <trkpt lat="49.12474" lon="4.84786">
        <ele>142</ele>
        <time>2018-03-31T20:07:10Z</time>
      </trkpt>
      <trkpt lat="49.1249" lon="4.84743">
        <ele>143</ele>
        <time>2018-03-31T20:08:10Z</time>
      </trkpt>
      <trkpt lat="49.12507" lon="4.84699">
        <ele>144</ele>
        <time>2018-03-31T20:09:10Z</time>
      </trkpt>
      <trkpt lat="49.12513" lon="4.84677">
        <ele>145</ele>
        <time>2018-03-31T20:10:10Z</time>
      </trkpt>
      <trkpt lat="49.1252" lon="4.84651">
        <ele>146</ele>
        <time>2018-03-31T20:11:10Z</time>
      </trkpt>
      <trkpt lat="49.12528" lon="4.84614">
        <ele>148</ele>
        <time>2018-03-31T20:12:10Z</time>
      </trkpt>
      <trkpt lat="49.12535" lon="4.84574">
        <ele>150</ele>
        <time>2018-03-31T20:13:10Z</time>
      </trkpt>
      <trkpt lat="49.1254" lon="4.84548">
        <ele>151</ele>
        <time>2018-03-31T20:14:10Z</time>
      </trkpt>
      <trkpt lat="49.12544" lon="4.84529">
        <ele>152</ele>
        <time>2018-03-31T20:15:10Z</time>
      </trkpt>
      <trkpt lat="49.12548" lon="4.84514">
        <ele>153</ele>
        <time>2018-03-31T20:16:10Z</time>
      </trkpt>
      <trkpt lat="49.12552" lon="4.84505">
        <ele>153</ele>
        <time>2018-03-31T20:17:10Z</time>
      </trkpt>
      <trkpt lat="49.12558" lon="4.8449">
        <ele>154</ele>
        <time>2018-03-31T20:18:10Z</time>
      </trkpt>
      <trkpt lat="49.1257" lon="4.8447">
        <ele>155</ele>
        <time>2018-03-31T20:19:10Z</time>
      </trkpt>
      <trkpt lat="49.12577" lon="4.84461">
        <ele>156</ele>
        <time>2018-03-31T20:20:10Z</time>
      </trkpt>
      <trkpt lat="49.12598" lon="4.84441">
        <ele>157</ele>
        <time>2018-03-31T20:21:10Z</time>
      </trkpt>
      <trkpt lat="49.12645" lon="4.84398">
        <ele>160</ele>
        <time>2018-03-31T20:22:10Z</time>
      </trkpt>
      <trkpt lat="49.12682" lon="4.84357">
        <ele>160</ele>
        <time>2018-03-31T20:23:10Z</time>
      </trkpt>
      <trkpt lat="49.12699" lon="4.84338">
        <ele>160</ele>
        <time>2018-03-31T20:24:10Z</time>
      </trkpt>
      <trkpt lat="49.12718" lon="4.84316">
        <ele>161</ele>
        <time>2018-03-31T20:25:10Z</time>
      </trkpt>
      <trkpt lat="49.12749" lon="4.84278">
        <ele>162</ele>
        <time>2018-03-31T20:26:10Z</time>
      </trkpt>
      <trkpt lat="49.12756" lon="4.84269">
        <ele>162</ele>
        <time>2018-03-31T20:27:10Z</time>
      </trkpt>
      <trkpt lat="49.12763" lon="4.84259">
        <ele>162</ele>
        <time>2018-03-31T20:28:10Z</time>
      </trkpt>
      <trkpt lat="49.12768" lon="4.84249">
        <ele>162</ele>
        <time>2018-03-31T20:29:10Z</time>
      </trkpt>
      <trkpt lat="49.12774" lon="4.84232">
        <ele>162</ele>
        <time>2018-03-31T20:30:10Z</time>
      </trkpt>
      <trkpt lat="49.12778" lon="4.8422">
        <ele>162</ele>
        <time>2018-03-31T20:31:10Z</time>
      </trkpt>
      <trkpt lat="49.12779" lon="4.8421">
        <ele>163</ele>
        <time>2018-03-31T20:32:10Z</time>
      </trkpt>
      <trkpt lat="49.12781" lon="4.84197">
        <ele>163</ele>
        <time>2018-03-31T20:33:10Z</time>
      </trkpt>
      <trkpt lat="49.12781" lon="4.84181">
        <ele>164</ele>
        <time>2018-03-31T20:34:10Z</time>
      </trkpt>
      <trkpt lat="49.12779" lon="4.84167">
        <ele>165</ele>
        <time>2018-03-31T20:35:10Z</time>
      </trkpt>
      <trkpt lat="49.12777" lon="4.84147">
        <ele>165</ele>
        <time>2018-03-31T20:36:10Z</time>
      </trkpt>
      <trkpt lat="49.12774" lon="4.84125">
        <ele>165</ele>
        <time>2018-03-31T20:37:10Z</time>
      </trkpt>
      <trkpt lat="49.12771" lon="4.84102">
        <ele>165</ele>
        <time>2018-03-31T20:38:10Z</time>
      </trkpt>
      <trkpt lat="49.12769" lon="4.84082">
        <ele>165</ele>
        <time>2018-03-31T20:39:10Z</time>
      </trkpt>
      <trkpt lat="49.12767" lon="4.84065">
        <ele>164</ele>
        <time>2018-03-31T20:40:10Z</time>
      </trkpt>
      <trkpt lat="49.12767" lon="4.84029">
        <ele>164</ele>
        <time>2018-03-31T20:41:10Z</time>
      </trkpt>
      <trkpt lat="49.12767" lon="4.84019">
        <ele>163</ele>
        <time>2018-03-31T20:42:10Z</time>
      </trkpt>
      <trkpt lat="49.12768" lon="4.84004">
        <ele>163</ele>
        <time>2018-03-31T20:43:10Z</time>
      </trkpt>
      <trkpt lat="49.1277" lon="4.83992">
        <ele>163</ele>
        <time>2018-03-31T20:44:10Z</time>
      </trkpt>
      <trkpt lat="49.12772" lon="4.83979">
        <ele>163</ele>
        <time>2018-03-31T20:45:10Z</time>
      </trkpt>
      <trkpt lat="49.12776" lon="4.83968">
        <ele>163</ele>
        <time>2018-03-31T20:46:10Z</time>
      </trkpt>
      <trkpt lat="49.12779" lon="4.83957">
        <ele>163</ele>
        <time>2018-03-31T20:47:10Z</time>
      </trkpt>
      <trkpt lat="49.12784" lon="4.83947">
        <ele>163</ele>
        <time>2018-03-31T20:48:10Z</time>
      </trkpt>
      <trkpt lat="49.12789" lon="4.83937">
        <ele>163</ele>
        <time>2018-03-31T20:49:10Z</time>
      </trkpt>
      <trkpt lat="49.12794" lon="4.83928">
        <ele>163</ele>
        <time>2018-03-31T20:50:10Z</time>
      </trkpt>
      <trkpt lat="49.12801" lon="4.83919">
        <ele>163</ele>
        <time>2018-03-31T20:51:10Z</time>
      </trkpt>
      <trkpt lat="49.12807" lon="4.83911">
        <ele>163</ele>
        <time>2018-03-31T20:52:10Z</time>
      </trkpt>
      <trkpt lat="49.12817" lon="4.83899">
        <ele>163</ele>
        <time>2018-03-31T20:53:10Z</time>
      </trkpt>
      <trkpt lat="49.12834" lon="4.83878">
        <ele>164</ele>
        <time>2018-03-31T20:54:10Z</time>
      </trkpt>
      <trkpt lat="49.12904" lon="4.83797">
        <ele>165</ele>
        <time>2018-03-31T20:55:10Z</time>
      </trkpt>
      <trkpt lat="49.12971" lon="4.8372">
        <ele>163</ele>
        <time>2018-03-31T20:56:10Z</time>
      </trkpt>
      <trkpt lat="49.13024" lon="4.83657">
        <ele>163</ele>
        <time>2018-03-31T20:57:10Z</time>
      </trkpt>
      <trkpt lat="49.13068" lon="4.83606">
        <ele>163</ele>
        <time>2018-03-31T20:58:10Z</time>
      </trkpt>
      <trkpt lat="49.13131" lon="4.83531">
        <ele>160</ele>
        <time>2018-03-31T20:59:10Z</time>
      </trkpt>
      <trkpt lat="49.13192" lon="4.8346">
        <ele>156</ele>
        <time>2018-03-31T21:00:10Z</time>
      </trkpt>
      <trkpt lat="49.13235" lon="4.83411">
        <ele>153</ele>
        <time>2018-03-31T21:01:10Z</time>
      </trkpt>
      <trkpt lat="49.13328" lon="4.83298">
        <ele>150</ele>
        <time>2018-03-31T21:02:10Z</time>
      </trkpt>
      <trkpt lat="49.13407" lon="4.83206">
        <ele>148</ele>
        <time>2018-03-31T21:03:10Z</time>
      </trkpt>
      <trkpt lat="49.1345" lon="4.83156">
        <ele>145</ele>
        <time>2018-03-31T21:04:10Z</time>
      </trkpt>
      <trkpt lat="49.13512" lon="4.83082">
        <ele>143</ele>
        <time>2018-03-31T21:05:10Z</time>
      </trkpt>
      <trkpt lat="49.13555" lon="4.83032">
        <ele>142</ele>
        <time>2018-03-31T21:06:10Z</time>
      </trkpt>
      <trkpt lat="49.13566" lon="4.83019">
        <ele>142</ele>
        <time>2018-03-31T21:07:10Z</time>
      </trkpt>
      <trkpt lat="49.13606" lon="4.8297">
        <ele>142</ele>
        <time>2018-03-31T21:08:10Z</time>
      </trkpt>
      <trkpt lat="49.13641" lon="4.82929">
        <ele>141</ele>
        <time>2018-03-31T21:09:10Z</time>
      </trkpt>
      <trkpt lat="49.13726" lon="4.82829">
        <ele>140</ele>
        <time>2018-03-31T21:10:10Z</time>
      </trkpt>
      <trkpt lat="49.13752" lon="4.82799">
        <ele>140</ele>
        <time>2018-03-31T21:11:10Z</time>
      </trkpt>
      <trkpt lat="49.13755" lon="4.82795">
        <ele>140</ele>
        <time>2018-03-31T21:12:10Z</time>
      </trkpt>
      <trkpt lat="49.13758" lon="4.82792">
        <ele>139</ele>
        <time>2018-03-31T21:13:10Z</time>
      </trkpt>
      <trkpt lat="49.13782" lon="4.82763">
        <ele>139</ele>
        <time>2018-03-31T21:14:10Z</time>
      </trkpt>
      <trkpt lat="49.13837" lon="4.82699">
        <ele>140</ele>
        <time>2018-03-31T21:15:10Z</time>
      </trkpt>
      <trkpt lat="49.13952" lon="4.82562">
        <ele>137</ele>
        <time>2018-03-31T21:16:10Z</time>
      </trkpt>
      <trkpt lat="49.13985" lon="4.82524">
        <ele>137</ele>
        <time>2018-03-31T21:17:10Z</time>
      </trkpt>
      <trkpt lat="49.13997" lon="4.82509">
        <ele>136</ele>
        <time>2018-03-31T21:18:10Z</time>
      </trkpt>
      <trkpt lat="49.14089" lon="4.824">
        <ele>135</ele>
        <time>2018-03-31T21:19:10Z</time>
      </trkpt>
      <trkpt lat="49.14091" lon="4.82398">
        <ele>135</ele>
        <time>2018-03-31T21:20:10Z</time>
      </trkpt>
      <trkpt lat="49.14092" lon="4.82397">
        <ele>135</ele>
        <time>2018-03-31T21:21:10Z</time>
      </trkpt>
      <trkpt lat="49.14119" lon="4.82366">
        <ele>134</ele>
        <time>2018-03-31T21:22:10Z</time>
      </trkpt>
      <trkpt lat="49.14154" lon="4.82325">
        <ele>134</ele>
        <time>2018-03-31T21:23:10Z</time>
      </trkpt>
      <trkpt lat="49.1423" lon="4.82234">
        <ele>134</ele>
        <time>2018-03-31T21:24:10Z</time>
      </trkpt>
      <trkpt lat="49.14271" lon="4.82186">
        <ele>134</ele>
        <time>2018-03-31T21:25:10Z</time>
      </trkpt>
      <trkpt lat="49.14278" lon="4.82177">
        <ele>134</ele>
        <time>2018-03-31T21:26:10Z</time>
      </trkpt>
      <trkpt lat="49.14285" lon="4.82169">
        <ele>133</ele>
        <time>2018-03-31T21:27:10Z</time>
      </trkpt>
      <trkpt lat="49.14305" lon="4.82145">
        <ele>132</ele>
        <time>2018-03-31T21:28:10Z</time>
      </trkpt>
      <trkpt lat="49.1437" lon="4.82071">
        <ele>132</ele>
        <time>2018-03-31T21:29:10Z</time>
      </trkpt>
      <trkpt lat="49.14403" lon="4.82033">
        <ele>132</ele>
        <time>2018-03-31T21:30:10Z</time>
      </trkpt>
      <trkpt lat="49.14474" lon="4.8195">
        <ele>135</ele>
        <time>2018-03-31T21:31:10Z</time>
      </trkpt>
      <trkpt lat="49.14547" lon="4.81865">
        <ele>138</ele>
        <time>2018-03-31T21:32:10Z</time>
      </trkpt>
      <trkpt lat="49.14609" lon="4.81792">
        <ele>140</ele>
        <time>2018-03-31T21:33:10Z</time>
      </trkpt>
      <trkpt lat="49.14617" lon="4.81782">
        <ele>140</ele>
        <time>2018-03-31T21:34:10Z</time>
      </trkpt>
      <trkpt lat="49.14622" lon="4.81776">
        <ele>140</ele>
        <time>2018-03-31T21:35:10Z</time>
      </trkpt>
      <trkpt lat="49.14723" lon="4.81656">
        <ele>139</ele>
        <time>2018-03-31T21:36:10Z</time>
      </trkpt>
      <trkpt lat="49.14772" lon="4.81598">
        <ele>138</ele>
        <time>2018-03-31T21:37:10Z</time>
      </trkpt>
      <trkpt lat="49.14807" lon="4.81556">
        <ele>139</ele>
        <time>2018-03-31T21:38:10Z</time>
      </trkpt>
      <trkpt lat="49.14876" lon="4.81474">
        <ele>139</ele>
        <time>2018-03-31T21:39:10Z</time>
      </trkpt>
      <trkpt lat="49.14888" lon="4.81461">
        <ele>139</ele>
        <time>2018-03-31T21:40:10Z</time>
      </trkpt>
      <trkpt lat="49.14996" lon="4.81333">
        <ele>141</ele>
        <time>2018-03-31T21:41:10Z</time>
      </trkpt>
      <trkpt lat="49.15034" lon="4.81289">
        <ele>143</ele>
        <time>2018-03-31T21:42:10Z</time>
      </trkpt>
      <trkpt lat="49.15081" lon="4.81231">
        <ele>146</ele>
        <time>2018-03-31T21:43:10Z</time>
      </trkpt>
      <trkpt lat="49.1509" lon="4.81222">
        <ele>146</ele>
        <time>2018-03-31T21:44:10Z</time>
      </trkpt>
      <trkpt lat="49.15129" lon="4.81175">
        <ele>148</ele>
        <time>2018-03-31T21:45:10Z</time>
      </trkpt>
      <trkpt lat="49.15135" lon="4.81168">
        <ele>148</ele>
        <time>2018-03-31T21:46:10Z</time>
      </trkpt>
      <trkpt lat="49.15179" lon="4.81116">
        <ele>150</ele>
        <time>2018-03-31T21:47:10Z</time>
      </trkpt>
      <trkpt lat="49.15192" lon="4.81101">
        <ele>150</ele>
        <time>2018-03-31T21:48:10Z</time>
      </trkpt>
      <trkpt lat="49.15261" lon="4.81018">
        <ele>155</ele>
        <time>2018-03-31T21:49:10Z</time>
      </trkpt>
      <trkpt lat="49.15315" lon="4.80956">
        <ele>158</ele>
        <time>2018-03-31T21:50:10Z</time>
      </trkpt>
      <trkpt lat="49.15352" lon="4.80911">
        <ele>159</ele>
        <time>2018-03-31T21:51:10Z</time>
      </trkpt>
      <trkpt lat="49.1538" lon="4.8088">
        <ele>159</ele>
        <time>2018-03-31T21:52:10Z</time>
      </trkpt>
      <trkpt lat="49.15411" lon="4.80843">
        <ele>158</ele>
        <time>2018-03-31T21:53:10Z</time>
      </trkpt>
      <trkpt lat="49.15428" lon="4.80822">
        <ele>158</ele>
        <time>2018-03-31T21:54:10Z</time>
      </trkpt>
      <trkpt lat="49.1548" lon="4.80761">
        <ele>157</ele>
        <time>2018-03-31T21:55:10Z</time>
      </trkpt>
      <trkpt lat="49.15555" lon="4.80674">
        <ele>159</ele>
        <time>2018-03-31T21:56:10Z</time>
      </trkpt>
      <trkpt lat="49.1559" lon="4.8063">
        <ele>159</ele>
        <time>2018-03-31T21:57:10Z</time>
      </trkpt>
      <trkpt lat="49.15635" lon="4.80579">
        <ele>156</ele>
        <time>2018-03-31T21:58:10Z</time>
      </trkpt>
      <trkpt lat="49.1567" lon="4.80536">
        <ele>154</ele>
        <time>2018-03-31T21:59:10Z</time>
      </trkpt>
      <trkpt lat="49.15715" lon="4.80483">
        <ele>152</ele>
        <time>2018-03-31T22:00:10Z</time>
      </trkpt>
      <trkpt lat="49.15757" lon="4.80434">
        <ele>152</ele>
        <time>2018-03-31T22:01:10Z</time>
      </trkpt>
      <trkpt lat="49.15812" lon="4.80369">
        <ele>154</ele>
        <time>2018-03-31T22:02:10Z</time>
      </trkpt>
      <trkpt lat="49.15836" lon="4.8034">
        <ele>155</ele>
        <time>2018-03-31T22:03:10Z</time>
      </trkpt>
      <trkpt lat="49.15845" lon="4.80329">
        <ele>155</ele>
        <time>2018-03-31T22:04:10Z</time>
      </trkpt>
      <trkpt lat="49.15889" lon="4.80276">
        <ele>154</ele>
        <time>2018-03-31T22:05:10Z</time>
      </trkpt>
      <trkpt lat="49.15926" lon="4.80233">
        <ele>153</ele>
        <time>2018-03-31T22:06:10Z</time>
      </trkpt>
      <trkpt lat="49.15996" lon="4.80154">
        <ele>154</ele>
        <time>2018-03-31T22:07:10Z</time>
      </trkpt>
      <trkpt lat="49.16032" lon="4.80111">
        <ele>152</ele>
        <time>2018-03-31T22:08:10Z</time>
      </trkpt>
      <trkpt lat="49.16074" lon="4.8006">
        <ele>152</ele>
        <time>2018-03-31T22:09:10Z</time>
      </trkpt>
      <trkpt lat="49.16101" lon="4.80023">
        <ele>150</ele>
        <time>2018-03-31T22:10:10Z</time>
      </trkpt>
      <trkpt lat="49.16137" lon="4.79969">
        <ele>148</ele>
        <time>2018-03-31T22:11:10Z</time>
      </trkpt>
      <trkpt lat="49.16174" lon="4.79914">
        <ele>146</ele>
        <time>2018-03-31T22:12:10Z</time>
      </trkpt>
      <trkpt lat="49.16188" lon="4.79894">
        <ele>145</ele>
        <time>2018-03-31T22:13:10Z</time>
      </trkpt>
      <trkpt lat="49.16207" lon="4.79865">
        <ele>143</ele>
        <time>2018-03-31T22:14:10Z</time>
      </trkpt>
      <trkpt lat="49.16226" lon="4.79833">
        <ele>143</ele>
        <time>2018-03-31T22:15:10Z</time>
      </trkpt>
      <trkpt lat="49.16231" lon="4.79824">
        <ele>143</ele>
        <time>2018-03-31T22:16:10Z</time>
      </trkpt>
      <trkpt lat="49.16234" lon="4.79821">
        <ele>143</ele>
        <time>2018-03-31T22:17:10Z</time>
      </trkpt>
      <trkpt lat="49.16247" lon="4.79794">
        <ele>143</ele>
        <time>2018-03-31T22:18:10Z</time>
      </trkpt>
      <trkpt lat="49.16253" lon="4.7978">
        <ele>143</ele>
        <time>2018-03-31T22:19:10Z</time>
      </trkpt>
      <trkpt lat="49.16262" lon="4.79758">
        <ele>143</ele>
        <time>2018-03-31T22:20:10Z</time>
      </trkpt>
      <trkpt lat="49.16265" lon="4.79749">
        <ele>143</ele>
        <time>2018-03-31T22:21:10Z</time>
      </trkpt>
      <trkpt lat="49.16267" lon="4.79745">
        <ele>143</ele>
        <time>2018-03-31T22:22:10Z</time>
      </trkpt>
      <trkpt lat="49.16275" lon="4.79731">
        <ele>144</ele>
        <time>2018-03-31T22:23:10Z</time>
      </trkpt>
      <trkpt lat="49.16283" lon="4.79718">
        <ele>144</ele>
        <time>2018-03-31T22:24:10Z</time>
      </trkpt>
      <trkpt lat="49.16299" lon="4.797">
        <ele>144</ele>
        <time>2018-03-31T22:25:10Z</time>
      </trkpt>
      <trkpt lat="49.16311" lon="4.79691">
        <ele>145</ele>
        <time>2018-03-31T22:26:10Z</time>
      </trkpt>
      <trkpt lat="49.1632" lon="4.79686">
        <ele>145</ele>
        <time>2018-03-31T22:27:10Z</time>
      </trkpt>
      <trkpt lat="49.16333" lon="4.79678">
        <ele>145</ele>
        <time>2018-03-31T22:28:10Z</time>
      </trkpt>
      <trkpt lat="49.16343" lon="4.79673">
        <ele>145</ele>
        <time>2018-03-31T22:29:10Z</time>
      </trkpt>
      <trkpt lat="49.16355" lon="4.79669">
        <ele>144</ele>
        <time>2018-03-31T22:30:10Z</time>
      </trkpt>
      <trkpt lat="49.16358" lon="4.79668">
        <ele>144</ele>
        <time>2018-03-31T22:31:10Z</time>
      </trkpt>
      <trkpt lat="49.1638" lon="4.79664">
        <ele>144</ele>
        <time>2018-03-31T22:32:10Z</time>
      </trkpt>
      <trkpt lat="49.16386" lon="4.79664">
        <ele>144</ele>
        <time>2018-03-31T22:33:10Z</time>
      </trkpt>
      <trkpt lat="49.16406" lon="4.79664">
        <ele>143</ele>
        <time>2018-03-31T22:34:10Z</time>
      </trkpt>
      <trkpt lat="49.1642" lon="4.79665">
        <ele>143</ele>
        <time>2018-03-31T22:35:10Z</time>
      </trkpt>
      <trkpt lat="49.16429" lon="4.79667">
        <ele>143</ele>
        <time>2018-03-31T22:36:10Z</time>
      </trkpt>
      <trkpt lat="49.16455" lon="4.79671">
        <ele>143</ele>
        <time>2018-03-31T22:37:10Z</time>
      </trkpt>
      <trkpt lat="49.16479" lon="4.79675">
        <ele>143</ele>
        <time>2018-03-31T22:38:10Z</time>
      </trkpt>
      <trkpt lat="49.16484" lon="4.79676">
        <ele>143</ele>
        <time>2018-03-31T22:39:10Z</time>
      </trkpt>
      <trkpt lat="49.16487" lon="4.79676">
        <ele>143</ele>
        <time>2018-03-31T22:40:10Z</time>
      </trkpt>
      <trkpt lat="49.16496" lon="4.79676">
        <ele>143</ele>
        <time>2018-03-31T22:41:10Z</time>
      </trkpt>
      <trkpt lat="49.16502" lon="4.79675">
        <ele>143</ele>
        <time>2018-03-31T22:42:10Z</time>
      </trkpt>
      <trkpt lat="49.16509" lon="4.79674">
        <ele>142</ele>
        <time>2018-03-31T22:43:10Z</time>
      </trkpt>
      <trkpt lat="49.16515" lon="4.79672">
        <ele>142</ele>
        <time>2018-03-31T22:44:10Z</time>
      </trkpt>
      <trkpt lat="49.16521" lon="4.79668">
        <ele>142</ele>
        <time>2018-03-31T22:45:10Z</time>
      </trkpt>
      <trkpt lat="49.16527" lon="4.79662">
        <ele>142</ele>
        <time>2018-03-31T22:46:10Z</time>
      </trkpt>
      <trkpt lat="49.16532" lon="4.79657">
        <ele>142</ele>
        <time>2018-03-31T22:47:10Z</time>
      </trkpt>
      <trkpt lat="49.16536" lon="4.79652">
        <ele>142</ele>
        <time>2018-03-31T22:48:10Z</time>
      </trkpt>
      <trkpt lat="49.16541" lon="4.79643">
        <ele>142</ele>
        <time>2018-03-31T22:49:10Z</time>
      </trkpt>
      <trkpt lat="49.16545" lon="4.79634">
        <ele>142</ele>
        <time>2018-03-31T22:50:10Z</time>
      </trkpt>
      <trkpt lat="49.1655" lon="4.79622">
        <ele>142</ele>
        <time>2018-03-31T22:51:10Z</time>
      </trkpt>
      <trkpt lat="49.16554" lon="4.79604">
        <ele>142</ele>
        <time>2018-03-31T22:52:10Z</time>
      </trkpt>
      <trkpt lat="49.16555" lon="4.79604">
        <ele>142</ele>
        <time>2018-03-31T22:53:10Z</time>
      </trkpt>
      <trkpt lat="49.16561" lon="4.79575">
        <ele>143</ele>
        <time>2018-03-31T22:54:10Z</time>
      </trkpt>
      <trkpt lat="49.16566" lon="4.79552">
        <ele>143</ele>
        <time>2018-03-31T22:55:10Z</time>
      </trkpt>
      <trkpt lat="49.16577" lon="4.79506">
        <ele>143</ele>
        <time>2018-03-31T22:56:10Z</time>
      </trkpt>
      <trkpt lat="49.16577" lon="4.79505">
        <ele>143</ele>
        <time>2018-03-31T22:57:10Z</time>
      </trkpt>
      <trkpt lat="49.16581" lon="4.79488">
        <ele>143</ele>
        <time>2018-03-31T22:58:10Z</time>
      </trkpt>
      <trkpt lat="49.16583" lon="4.79479">
        <ele>143</ele>
        <time>2018-03-31T22:59:10Z</time>
      </trkpt>
      <trkpt lat="49.16586" lon="4.79469">
        <ele>142</ele>
        <time>2018-03-31T23:00:10Z</time>
      </trkpt>
      <trkpt lat="49.16593" lon="4.79449">
        <ele>142</ele>
        <time>2018-03-31T23:01:10Z</time>
      </trkpt>
      <trkpt lat="49.16611" lon="4.79412">
        <ele>140</ele>
        <time>2018-03-31T23:02:10Z</time>
      </trkpt>
      <trkpt lat="49.16616" lon="4.79403">
        <ele>140</ele>
        <time>2018-03-31T23:03:10Z</time>
      </trkpt>
      <trkpt lat="49.16641" lon="4.79368">
        <ele>139</ele>
        <time>2018-03-31T23:04:10Z</time>
      </trkpt>
      <trkpt lat="49.16648" lon="4.7936">
        <ele>139</ele>
        <time>2018-03-31T23:05:10Z</time>
      </trkpt>
      <trkpt lat="49.1666" lon="4.79346">
        <ele>138</ele>
        <time>2018-03-31T23:06:10Z</time>
      </trkpt>
      <trkpt lat="49.16729" lon="4.7928">
        <ele>138</ele>
        <time>2018-03-31T23:07:10Z</time>
      </trkpt>
      <trkpt lat="49.16732" lon="4.79277">
        <ele>138</ele>
        <time>2018-03-31T23:08:10Z</time>
      </trkpt>
      <trkpt lat="49.1674" lon="4.79271">
        <ele>137</ele>
        <time>2018-03-31T23:09:10Z</time>
      </trkpt>
      <trkpt lat="49.1677" lon="4.79242">
        <ele>138</ele>
        <time>2018-03-31T23:10:10Z</time>
      </trkpt>
      <trkpt lat="49.16903" lon="4.79119">
        <ele>142</ele>
        <time>2018-03-31T23:11:10Z</time>
      </trkpt>
      <trkpt lat="49.16918" lon="4.79104">
        <ele>144</ele>
        <time>2018-03-31T23:12:10Z</time>
      </trkpt>
      <trkpt lat="49.16984" lon="4.79043">
        <ele>148</ele>
        <time>2018-03-31T23:13:10Z</time>
      </trkpt>
      <trkpt lat="49.17007" lon="4.79021">
        <ele>149</ele>
        <time>2018-03-31T23:14:10Z</time>
      </trkpt>
      <trkpt lat="49.17015" lon="4.79013">
        <ele>149</ele>
        <time>2018-03-31T23:15:10Z</time>
      </trkpt>
      <trkpt lat="49.17056" lon="4.78975">
        <ele>149</ele>
        <time>2018-03-31T23:16:10Z</time>
      </trkpt>
      <trkpt lat="49.17104" lon="4.7893">
        <ele>149</ele>
        <time>2018-03-31T23:17:10Z</time>
      </trkpt>
      <trkpt lat="49.17106" lon="4.78928">
        <ele>149</ele>
        <time>2018-03-31T23:18:10Z</time>
      </trkpt>
      <trkpt lat="49.17164" lon="4.78873">
        <ele>149</ele>
        <time>2018-03-31T23:19:10Z</time>
      </trkpt>
      <trkpt lat="49.17183" lon="4.78856">
        <ele>149</ele>
        <time>2018-03-31T23:20:10Z</time>
      </trkpt>
      <trkpt lat="49.17199" lon="4.78842">
        <ele>149</ele>
        <time>2018-03-31T23:21:10Z</time>
      </trkpt>
      <trkpt lat="49.17252" lon="4.78794">
        <ele>149</ele>
        <time>2018-03-31T23:22:10Z</time>
      </trkpt>
      <trkpt lat="49.17278" lon="4.78775">
        <ele>149</ele>
        <time>2018-03-31T23:23:10Z</time>
      </trkpt>
      <trkpt lat="49.17302" lon="4.7876">
        <ele>148</ele>
        <time>2018-03-31T23:24:10Z</time>
      </trkpt>
      <trkpt lat="49.17341" lon="4.7874">
        <ele>147</ele>
        <time>2018-03-31T23:25:10Z</time>
      </trkpt>
      <trkpt lat="49.17386" lon="4.78721">
        <ele>145</ele>
        <time>2018-03-31T23:26:10Z</time>
      </trkpt>
      <trkpt lat="49.17528" lon="4.78655">
        <ele>139</ele>
        <time>2018-03-31T23:27:10Z</time>
      </trkpt>
      <trkpt lat="49.17634" lon="4.78606">
        <ele>133</ele>
        <time>2018-03-31T23:28:10Z</time>
      </trkpt>
      <trkpt lat="49.17638" lon="4.78605">
        <ele>133</ele>
        <time>2018-03-31T23:29:10Z</time>
      </trkpt>
      <trkpt lat="49.17819" lon="4.7852">
        <ele>127</ele>
        <time>2018-03-31T23:30:10Z</time>
      </trkpt>
      <trkpt lat="49.17885" lon="4.78492">
        <ele>125</ele>
        <time>2018-03-31T23:31:10Z</time>
      </trkpt>
      <trkpt lat="49.1792" lon="4.78477">
        <ele>124</ele>
        <time>2018-03-31T23:32:10Z</time>
      </trkpt>
      <trkpt lat="49.18" lon="4.7844">
        <ele>123</ele>
        <time>2018-03-31T23:33:10Z</time>
      </trkpt>
      <trkpt lat="49.18148" lon="4.7837">
        <ele>123</ele>
        <time>2018-03-31T23:34:10Z</time>
      </trkpt>
      <trkpt lat="49.1826" lon="4.78318">
        <ele>123</ele>
        <time>2018-03-31T23:35:10Z</time>
      </trkpt>
      <trkpt lat="49.18263" lon="4.78316">
        <ele>123</ele>
        <time>2018-03-31T23:36:10Z</time>
      </trkpt>
      <trkpt lat="49.18388" lon="4.78251">
        <ele>123</ele>
        <time>2018-03-31T23:37:10Z</time>
      </trkpt>
      <trkpt lat="49.18399" lon="4.78244">
        <ele>123</ele>
        <time>2018-03-31T23:38:10Z</time>
      </trkpt>
      <trkpt lat="49.18446" lon="4.78218">
        <ele>124</ele>
        <time>2018-03-31T23:39:10Z</time>
      </trkpt>
      <trkpt lat="49.18457" lon="4.78212">
        <ele>124</ele>
        <time>2018-03-31T23:40:10Z</time>
      </trkpt>
      <trkpt lat="49.18466" lon="4.78206">
        <ele>124</ele>
        <time>2018-03-31T23:41:10Z</time>
      </trkpt>
      <trkpt lat="49.18468" lon="4.78205">
        <ele>124</ele>
        <time>2018-03-31T23:42:10Z</time>
      </trkpt>
      <trkpt lat="49.18508" lon="4.78184">
        <ele>124</ele>
        <time>2018-03-31T23:43:10Z</time>
      </trkpt>
      <trkpt lat="49.18537" lon="4.78168">
        <ele>125</ele>
        <time>2018-03-31T23:44:10Z</time>
      </trkpt>
      <trkpt lat="49.1859" lon="4.78139">
        <ele>126</ele>
        <time>2018-03-31T23:45:10Z</time>
      </trkpt>
      <trkpt lat="49.18691" lon="4.78085">
        <ele>126</ele>
        <time>2018-03-31T23:46:10Z</time>
      </trkpt>
      <trkpt lat="49.18723" lon="4.78067">
        <ele>126</ele>
        <time>2018-03-31T23:47:10Z</time>
      </trkpt>
      <trkpt lat="49.18801" lon="4.78023">
        <ele>127</ele>
        <time>2018-03-31T23:48:10Z</time>
      </trkpt>
      <trkpt lat="49.18851" lon="4.77995">
        <ele>128</ele>
        <time>2018-03-31T23:49:10Z</time>
      </trkpt>
      <trkpt lat="49.18859" lon="4.7799">
        <ele>128</ele>
        <time>2018-03-31T23:50:10Z</time>
      </trkpt>
      <trkpt lat="49.18868" lon="4.77986">
        <ele>128</ele>
        <time>2018-03-31T23:51:10Z</time>
      </trkpt>
      <trkpt lat="49.18876" lon="4.77981">
        <ele>128</ele>
        <time>2018-03-31T23:52:10Z</time>
      </trkpt>
      <trkpt lat="49.18882" lon="4.77978">
        <ele>128</ele>
        <time>2018-03-31T23:53:10Z</time>
      </trkpt>
      <trkpt lat="49.18905" lon="4.77965">
        <ele>128</ele>
        <time>2018-03-31T23:54:10Z</time>
      </trkpt>
      <trkpt lat="49.18936" lon="4.77948">
        <ele>128</ele>
        <time>2018-03-31T23:55:10Z</time>
      </trkpt>
      <trkpt lat="49.1899" lon="4.77919">
        <ele>128</ele>
        <time>2018-03-31T23:56:10Z</time>
      </trkpt>
      <trkpt lat="49.19028" lon="4.77901">
        <ele>127</ele>
        <time>2018-03-31T23:57:10Z</time>
      </trkpt>
      <trkpt lat="49.19039" lon="4.77896">
        <ele>127</ele>
        <time>2018-03-31T23:58:10Z</time>
      </trkpt>
      <trkpt lat="49.19069" lon="4.77885">
        <ele>127</ele>
        <time>2018-03-31T23:59:10Z</time>
      </trkpt>
      <trkpt lat="49.19108" lon="4.77874">
        <ele>127</ele>
        <time>2018-04-01T00:00:10Z</time>
      </trkpt>
      <trkpt lat="49.19144" lon="4.77865">
        <ele>126</ele>
        <time>2018-04-01T00:01:10Z</time>
      </trkpt>
      <trkpt lat="49.19194" lon="4.77854">
        <ele>126</ele>
        <time>2018-04-01T00:02:10Z</time>
      </trkpt>
      <trkpt lat="49.19231" lon="4.77845">
        <ele>127</ele>
        <time>2018-04-01T00:03:10Z</time>
      </trkpt>
      <trkpt lat="49.19243" lon="4.77843">
        <ele>127</ele>
        <time>2018-04-01T00:04:10Z</time>
      </trkpt>
      <trkpt lat="49.19303" lon="4.77829">
        <ele>128</ele>
        <time>2018-04-01T00:05:10Z</time>
      </trkpt>
      <trkpt lat="49.19323" lon="4.77825">
        <ele>128</ele>
        <time>2018-04-01T00:06:10Z</time>
      </trkpt>
      <trkpt lat="49.19418" lon="4.77802">
        <ele>129</ele>
        <time>2018-04-01T00:07:10Z</time>
      </trkpt>
      <trkpt lat="49.19514" lon="4.77781">
        <ele>129</ele>
        <time>2018-04-01T00:08:10Z</time>
      </trkpt>
      <trkpt lat="49.19667" lon="4.77746">
        <ele>132</ele>
        <time>2018-04-01T00:09:10Z</time>
      </trkpt>
      <trkpt lat="49.19734" lon="4.77731">
        <ele>132</ele>
        <time>2018-04-01T00:10:10Z</time>
      </trkpt>
      <trkpt lat="49.19839" lon="4.77708">
        <ele>135</ele>
        <time>2018-04-01T00:11:10Z</time>
      </trkpt>
      <trkpt lat="49.19979" lon="4.77676">
        <ele>137</ele>
        <time>2018-04-01T00:12:10Z</time>
      </trkpt>
      <trkpt lat="49.20034" lon="4.77664">
        <ele>139</ele>
        <time>2018-04-01T00:13:10Z</time>
      </trkpt>
      <trkpt lat="49.20055" lon="4.77659">
        <ele>140</ele>
        <time>2018-04-01T00:14:10Z</time>
      </trkpt>
      <trkpt lat="49.20067" lon="4.77656">
        <ele>140</ele>
        <time>2018-04-01T00:15:10Z</time>
      </trkpt>
      <trkpt lat="49.20097" lon="4.77648">
        <ele>141</ele>
        <time>2018-04-01T00:16:10Z</time>
      </trkpt>
      <trkpt lat="49.20109" lon="4.77645">
        <ele>141</ele>
        <time>2018-04-01T00:17:10Z</time>
      </trkpt>
      <trkpt lat="49.20143" lon="4.77633">
        <ele>140</ele>
        <time>2018-04-01T00:18:10Z</time>
      </trkpt>
      <trkpt lat="49.20165" lon="4.77624">
        <ele>140</ele>
        <time>2018-04-01T00:19:10Z</time>
      </trkpt>
      <trkpt lat="49.20181" lon="4.77617">
        <ele>139</ele>
        <time>2018-04-01T00:20:10Z</time>
      </trkpt>
      <trkpt lat="49.20232" lon="4.77593">
        <ele>137</ele>
        <time>2018-04-01T00:21:10Z</time>
      </trkpt>
      <trkpt lat="49.20292" lon="4.77565">
        <ele>135</ele>
        <time>2018-04-01T00:22:10Z</time>
      </trkpt>
      <trkpt lat="49.20376" lon="4.77524">
        <ele>135</ele>
        <time>2018-04-01T00:23:10Z</time>
      </trkpt>
      <trkpt lat="49.20416" lon="4.77506">
        <ele>136</ele>
        <time>2018-04-01T00:24:10Z</time>
      </trkpt>
      <trkpt lat="49.2045" lon="4.77488">
        <ele>136</ele>
        <time>2018-04-01T00:25:10Z</time>
      </trkpt>
      <trkpt lat="49.20476" lon="4.77476">
        <ele>135</ele>
        <time>2018-04-01T00:26:10Z</time>
      </trkpt>
      <trkpt lat="49.20551" lon="4.77442">
        <ele>134</ele>
        <time>2018-04-01T00:27:10Z</time>
      </trkpt>
      <trkpt lat="49.2062" lon="4.77408">
        <ele>132</ele>
        <time>2018-04-01T00:28:10Z</time>
      </trkpt>
      <trkpt lat="49.20683" lon="4.77379">
        <ele>131</ele>
        <time>2018-04-01T00:29:10Z</time>
      </trkpt>
      <trkpt lat="49.20699" lon="4.77371">
        <ele>131</ele>
        <time>2018-04-01T00:30:10Z</time>
      </trkpt>
      <trkpt lat="49.20764" lon="4.77341">
        <ele>131</ele>
        <time>2018-04-01T00:31:10Z</time>
      </trkpt>
      <trkpt lat="49.20807" lon="4.7732">
        <ele>133</ele>
        <time>2018-04-01T00:32:10Z</time>
      </trkpt>
      <trkpt lat="49.20862" lon="4.77294">
        <ele>135</ele>
        <time>2018-04-01T00:33:10Z</time>
      </trkpt>
      <trkpt lat="49.20995" lon="4.7723">
        <ele>141</ele>
        <time>2018-04-01T00:34:10Z</time>
      </trkpt>
      <trkpt lat="49.21035" lon="4.77211">
        <ele>142</ele>
        <time>2018-04-01T00:35:10Z</time>
      </trkpt>
      <trkpt lat="49.21054" lon="4.77202">
        <ele>143</ele>
        <time>2018-04-01T00:36:10Z</time>
      </trkpt>
      <trkpt lat="49.21063" lon="4.77197">
        <ele>143</ele>
        <time>2018-04-01T00:37:10Z</time>
      </trkpt>
      <trkpt lat="49.21111" lon="4.77176">
        <ele>144</ele>
        <time>2018-04-01T00:38:10Z</time>
      </trkpt>
      <trkpt lat="49.21194" lon="4.77138">
        <ele>143</ele>
        <time>2018-04-01T00:39:10Z</time>
      </trkpt>
      <trkpt lat="49.21309" lon="4.77082">
        <ele>143</ele>
        <time>2018-04-01T00:40:10Z</time>
      </trkpt>
      <trkpt lat="49.2139" lon="4.77043">
        <ele>142</ele>
        <time>2018-04-01T00:41:10Z</time>
      </trkpt>
      <trkpt lat="49.21398" lon="4.7704">
        <ele>141</ele>
        <time>2018-04-01T00:42:10Z</time>
      </trkpt>
      <trkpt lat="49.21523" lon="4.76981">
        <ele>139</ele>
        <time>2018-04-01T00:43:10Z</time>
      </trkpt>
      <trkpt lat="49.2154" lon="4.76972">
        <ele>139</ele>
        <time>2018-04-01T00:44:10Z</time>
      </trkpt>
      <trkpt lat="49.21577" lon="4.76955">
        <ele>139</ele>
        <time>2018-04-01T00:45:10Z</time>
      </trkpt>
      <trkpt lat="49.216" lon="4.76946">
        <ele>138</ele>
        <time>2018-04-01T00:46:10Z</time>
      </trkpt>
      <trkpt lat="49.21624" lon="4.76936">
        <ele>137</ele>
        <time>2018-04-01T00:47:10Z</time>
      </trkpt>
      <trkpt lat="49.21671" lon="4.7692">
        <ele>135</ele>
        <time>2018-04-01T00:48:10Z</time>
      </trkpt>
      <trkpt lat="49.21723" lon="4.76904">
        <ele>134</ele>
        <time>2018-04-01T00:49:10Z</time>
      </trkpt>
      <trkpt lat="49.21755" lon="4.76892">
        <ele>133</ele>
        <time>2018-04-01T00:50:10Z</time>
      </trkpt>
      <trkpt lat="49.21831" lon="4.76865">
        <ele>129</ele>
        <time>2018-04-01T00:51:10Z</time>
      </trkpt>
      <trkpt lat="49.21924" lon="4.76832">
        <ele>129</ele>
        <time>2018-04-01T00:52:10Z</time>
      </trkpt>
      <trkpt lat="49.2198" lon="4.76813">
        <ele>129</ele>
        <time>2018-04-01T00:53:10Z</time>
      </trkpt>
      <trkpt lat="49.22107" lon="4.76767">
        <ele>130</ele>
        <time>2018-04-01T00:54:10Z</time>
      </trkpt>
      <trkpt lat="49.22186" lon="4.76739">
        <ele>132</ele>
        <time>2018-04-01T00:55:10Z</time>
      </trkpt>
      <trkpt lat="49.22245" lon="4.76718">
        <ele>130</ele>
        <time>2018-04-01T00:56:10Z</time>
      </trkpt>
      <trkpt lat="49.22308" lon="4.76699">
        <ele>130</ele>
        <time>2018-04-01T00:57:10Z</time>
      </trkpt>
      <trkpt lat="49.22333" lon="4.76692">
        <ele>130</ele>
        <time>2018-04-01T00:58:10Z</time>
      </trkpt>
      <trkpt lat="49.22333" lon="4.76692">
        <ele>130</ele>
        <time>2018-04-01T00:59:10Z</time>
      </trkpt>
      <trkpt lat="49.22318" lon="4.76729">
        <ele>130</ele>
        <time>2018-04-01T01:00:10Z</time>
      </trkpt>
      <trkpt lat="49.22311" lon="4.76742">
        <ele>130</ele>
        <time>2018-04-01T01:01:10Z</time>
      </trkpt>
      <trkpt lat="49.22295" lon="4.76765">
        <ele>130</ele>
        <time>2018-04-01T01:02:10Z</time>
      </trkpt>
      <trkpt lat="49.22265" lon="4.76816">
        <ele>130</ele>
        <time>2018-04-01T01:03:10Z</time>
      </trkpt>
      <trkpt lat="49.22217" lon="4.76898">
        <ele>131</ele>
        <time>2018-04-01T01:04:10Z</time>
      </trkpt>
      <trkpt lat="49.22157" lon="4.77006">
        <ele>133</ele>
        <time>2018-04-01T01:05:10Z</time>
      </trkpt>
      <trkpt lat="49.22091" lon="4.77123">
        <ele>134</ele>
        <time>2018-04-01T01:06:10Z</time>
      </trkpt>
      <trkpt lat="49.22051" lon="4.7719">
        <ele>135</ele>
        <time>2018-04-01T01:07:10Z</time>
      </trkpt>
      <trkpt lat="49.22025" lon="4.77235">
        <ele>136</ele>
        <time>2018-04-01T01:08:10Z</time>
      </trkpt>
      <trkpt lat="49.2201" lon="4.77267">
        <ele>135</ele>
        <time>2018-04-01T01:09:10Z</time>
      </trkpt>
      <trkpt lat="49.22002" lon="4.77286">
        <ele>135</ele>
        <time>2018-04-01T01:10:10Z</time>
      </trkpt>
      <trkpt lat="49.21996" lon="4.77311">
        <ele>135</ele>
        <time>2018-04-01T01:11:10Z</time>
      </trkpt>
      <trkpt lat="49.21989" lon="4.77344">
        <ele>134</ele>
        <time>2018-04-01T01:12:10Z</time>
      </trkpt>
      <trkpt lat="49.2198" lon="4.77399">
        <ele>135</ele>
        <time>2018-04-01T01:13:10Z</time>
      </trkpt>
      <trkpt lat="49.21976" lon="4.77423">
        <ele>135</ele>
        <time>2018-04-01T01:14:10Z</time>
      </trkpt>
      <trkpt lat="49.21974" lon="4.77449">
        <ele>135</ele>
        <time>2018-04-01T01:15:10Z</time>
      </trkpt>
      <trkpt lat="49.21972" lon="4.77477">
        <ele>136</ele>
        <time>2018-04-01T01:16:10Z</time>
      </trkpt>
      <trkpt lat="49.21971" lon="4.77502">
        <ele>136</ele>
        <time>2018-04-01T01:17:10Z</time>
      </trkpt>
      <trkpt lat="49.21971" lon="4.77546">
        <ele>137</ele>
        <time>2018-04-01T01:18:10Z</time>
      </trkpt>
      <trkpt lat="49.2197" lon="4.77581">
        <ele>137</ele>
        <time>2018-04-01T01:19:10Z</time>
      </trkpt>
      <trkpt lat="49.2197" lon="4.77643">
        <ele>138</ele>
        <time>2018-04-01T01:20:10Z</time>
      </trkpt>
      <trkpt lat="49.21969" lon="4.77669">
        <ele>138</ele>
        <time>2018-04-01T01:21:10Z</time>
      </trkpt>
      <trkpt lat="49.21969" lon="4.77669">
        <ele>138</ele>
        <time>2018-04-01T01:22:10Z</time>
      </trkpt>
      <trkpt lat="49.21924" lon="4.77686">
        <ele>138</ele>
        <time>2018-04-01T01:23:10Z</time>
      </trkpt>
      <trkpt lat="49.21855" lon="4.77711">
        <ele>139</ele>
        <time>2018-04-01T01:24:10Z</time>
      </trkpt>
      <trkpt lat="49.21788" lon="4.77736">
        <ele>139</ele>
        <time>2018-04-01T01:25:10Z</time>
      </trkpt>
      <trkpt lat="49.21721" lon="4.77761">
        <ele>139</ele>
        <time>2018-04-01T01:26:10Z</time>
      </trkpt>
      <trkpt lat="49.21623" lon="4.77796">
        <ele>137</ele>
        <time>2018-04-01T01:27:10Z</time>
      </trkpt>
      <trkpt lat="49.21579" lon="4.77814">
        <ele>136</ele>
        <time>2018-04-01T01:28:10Z</time>
      </trkpt>
      <trkpt lat="49.21579" lon="4.77814">
        <ele>136</ele>
        <time>2018-04-01T01:29:10Z</time>
      </trkpt>
      <trkpt lat="49.21569" lon="4.77678">
        <ele>137</ele>
        <time>2018-04-01T01:30:10Z</time>
      </trkpt>
      <trkpt lat="49.2156" lon="4.77446">
        <ele>136</ele>
        <time>2018-04-01T01:31:10Z</time>
      </trkpt>
      <trkpt lat="49.21547" lon="4.77143">
        <ele>138</ele>
        <time>2018-04-01T01:32:10Z</time>
      </trkpt>
      <trkpt lat="49.2154" lon="4.76996">
        <ele>139</ele>
        <time>2018-04-01T01:33:10Z</time>
      </trkpt>
      <trkpt lat="49.2154" lon="4.76983">
        <ele>139</ele>
        <time>2018-04-01T01:34:10Z</time>
      </trkpt>
      <trkpt lat="49.2154" lon="4.76972">
        <ele>139</ele>
        <time>2018-04-01T01:35:10Z</time>
      </trkpt>
      <trkpt lat="49.2154" lon="4.76972">
        <ele>139</ele>
        <time>2018-04-01T01:36:10Z</time>
      </trkpt>
      <trkpt lat="49.21577" lon="4.76955">
        <ele>139</ele>
        <time>2018-04-01T01:37:10Z</time>
      </trkpt>
      <trkpt lat="49.216" lon="4.76946">
        <ele>138</ele>
        <time>2018-04-01T01:38:10Z</time>
      </trkpt>
      <trkpt lat="49.21624" lon="4.76936">
        <ele>137</ele>
        <time>2018-04-01T01:39:10Z</time>
      </trkpt>
      <trkpt lat="49.21671" lon="4.7692">
        <ele>135</ele>
        <time>2018-04-01T01:40:10Z</time>
      </trkpt>
      <trkpt lat="49.21723" lon="4.76904">
        <ele>134</ele>
        <time>2018-04-01T01:41:10Z</time>
      </trkpt>
      <trkpt lat="49.21755" lon="4.76892">
        <ele>133</ele>
        <time>2018-04-01T01:42:10Z</time>
      </trkpt>
      <trkpt lat="49.21831" lon="4.76865">
        <ele>129</ele>
        <time>2018-04-01T01:43:10Z</time>
      </trkpt>
      <trkpt lat="49.21924" lon="4.76832">
        <ele>129</ele>
        <time>2018-04-01T01:44:10Z</time>
      </trkpt>
      <trkpt lat="49.2198" lon="4.76813">
        <ele>129</ele>
        <time>2018-04-01T01:45:10Z</time>
      </trkpt>
      <trkpt lat="49.22107" lon="4.76767">
        <ele>130</ele>
        <time>2018-04-01T01:46:10Z</time>
      </trkpt>
      <trkpt lat="49.22186" lon="4.76739">
        <ele>132</ele>
        <time>2018-04-01T01:47:10Z</time>
      </trkpt>
      <trkpt lat="49.22245" lon="4.76718">
        <ele>130</ele>
        <time>2018-04-01T01:48:10Z</time>
      </trkpt>
      <trkpt lat="49.22308" lon="4.76699">
        <ele>130</ele>
        <time>2018-04-01T01:49:10Z</time>
      </trkpt>
      <trkpt lat="49.22333" lon="4.76692">
        <ele>130</ele>
        <time>2018-04-01T01:50:10Z</time>
      </trkpt>
      <trkpt lat="49.22345" lon="4.76689">
        <ele>130</ele>
        <time>2018-04-01T01:51:10Z</time>
      </trkpt>
      <trkpt lat="49.22401" lon="4.76678">
        <ele>130</ele>
        <time>2018-04-01T01:52:10Z</time>
      </trkpt>
      <trkpt lat="49.22417" lon="4.76674">
        <ele>130</ele>
        <time>2018-04-01T01:53:10Z</time>
      </trkpt>
      <trkpt lat="49.22425" lon="4.76673">
        <ele>130</ele>
        <time>2018-04-01T01:54:10Z</time>
      </trkpt>
      <trkpt lat="49.22431" lon="4.76671">
        <ele>130</ele>
        <time>2018-04-01T01:55:10Z</time>
      </trkpt>
      <trkpt lat="49.22443" lon="4.76667">
        <ele>129</ele>
        <time>2018-04-01T01:56:10Z</time>
      </trkpt>
      <trkpt lat="49.22463" lon="4.76659">
        <ele>129</ele>
        <time>2018-04-01T01:57:10Z</time>
      </trkpt>
      <trkpt lat="49.22477" lon="4.76647">
        <ele>129</ele>
        <time>2018-04-01T01:58:10Z</time>
      </trkpt>
      <trkpt lat="49.22508" lon="4.76621">
        <ele>128</ele>
        <time>2018-04-01T01:59:10Z</time>
      </trkpt>
      <trkpt lat="49.22548" lon="4.76588">
        <ele>127</ele>
        <time>2018-04-01T02:00:10Z</time>
      </trkpt>
      <trkpt lat="49.22568" lon="4.76573">
        <ele>126</ele>
        <time>2018-04-01T02:01:10Z</time>
      </trkpt>
      <trkpt lat="49.22568" lon="4.76573">
        <ele>126</ele>
        <time>2018-04-01T02:02:10Z</time>
      </trkpt>
      <trkpt lat="49.22555" lon="4.76548">
        <ele>126</ele>
        <time>2018-04-01T02:03:10Z</time>
      </trkpt>
      <trkpt lat="49.22548" lon="4.76533">
        <ele>127</ele>
        <time>2018-04-01T02:04:10Z</time>
      </trkpt>
      <trkpt lat="49.22538" lon="4.76509">
        <ele>127</ele>
        <time>2018-04-01T02:05:10Z</time>
      </trkpt>
      <trkpt lat="49.22531" lon="4.76489">
        <ele>127</ele>
        <time>2018-04-01T02:06:10Z</time>
      </trkpt>
      <trkpt lat="49.22521" lon="4.76459">
        <ele>127</ele>
        <time>2018-04-01T02:07:10Z</time>
      </trkpt>
      <trkpt lat="49.22511" lon="4.76425">
        <ele>128</ele>
        <time>2018-04-01T02:08:10Z</time>
      </trkpt>
      <trkpt lat="49.22502" lon="4.76387">
        <ele>128</ele>
        <time>2018-04-01T02:09:10Z</time>
      </trkpt>
      <trkpt lat="49.22497" lon="4.76367">
        <ele>128</ele>
        <time>2018-04-01T02:10:10Z</time>
      </trkpt>
      <trkpt lat="49.22491" lon="4.76349">
        <ele>128</ele>
        <time>2018-04-01T02:11:10Z</time>
      </trkpt>
      <trkpt lat="49.22485" lon="4.76336">
        <ele>128</ele>
        <time>2018-04-01T02:12:10Z</time>
      </trkpt>
      <trkpt lat="49.22482" lon="4.7633">
        <ele>128</ele>
        <time>2018-04-01T02:13:10Z</time>
      </trkpt>
      <trkpt lat="49.22477" lon="4.76324">
        <ele>128</ele>
        <time>2018-04-01T02:14:10Z</time>
      </trkpt>
      <trkpt lat="49.22469" lon="4.76316">
        <ele>128</ele>
        <time>2018-04-01T02:15:10Z</time>
      </trkpt>
      <trkpt lat="49.22461" lon="4.7631">
        <ele>128</ele>
        <time>2018-04-01T02:16:10Z</time>
      </trkpt>
      <trkpt lat="49.22446" lon="4.76301">
        <ele>128</ele>
        <time>2018-04-01T02:17:10Z</time>
      </trkpt>
      <trkpt lat="49.22427" lon="4.76292">
        <ele>128</ele>
        <time>2018-04-01T02:18:10Z</time>
      </trkpt>
      <trkpt lat="49.22418" lon="4.76286">
        <ele>128</ele>
        <time>2018-04-01T02:19:10Z</time>
      </trkpt>
      <trkpt lat="49.22411" lon="4.76281">
        <ele>128</ele>
        <time>2018-04-01T02:20:10Z</time>
      </trkpt>
      <trkpt lat="49.22404" lon="4.76274">
        <ele>127</ele>
        <time>2018-04-01T02:21:10Z</time>
      </trkpt>
      <trkpt lat="49.22398" lon="4.76267">
        <ele>127</ele>
        <time>2018-04-01T02:22:10Z</time>
      </trkpt>
      <trkpt lat="49.2239" lon="4.76254">
        <ele>126</ele>
        <time>2018-04-01T02:23:10Z</time>
      </trkpt>
      <trkpt lat="49.22379" lon="4.76234">
        <ele>126</ele>
        <time>2018-04-01T02:24:10Z</time>
      </trkpt>
      <trkpt lat="49.22377" lon="4.7623">
        <ele>126</ele>
        <time>2018-04-01T02:25:10Z</time>
      </trkpt>
      <trkpt lat="49.22365" lon="4.76202">
        <ele>125</ele>
        <time>2018-04-01T02:26:10Z</time>
      </trkpt>
      <trkpt lat="49.2236" lon="4.76187">
        <ele>125</ele>
        <time>2018-04-01T02:27:10Z</time>
      </trkpt>
      <trkpt lat="49.22344" lon="4.76148">
        <ele>125</ele>
        <time>2018-04-01T02:28:10Z</time>
      </trkpt>
      <trkpt lat="49.22314" lon="4.76074">
        <ele>123</ele>
        <time>2018-04-01T02:29:10Z</time>
      </trkpt>
      <trkpt lat="49.22309" lon="4.76062">
        <ele>123</ele>
        <time>2018-04-01T02:30:10Z</time>
      </trkpt>
      <trkpt lat="49.223" lon="4.76042">
        <ele>123</ele>
        <time>2018-04-01T02:31:10Z</time>
      </trkpt>
      <trkpt lat="49.22287" lon="4.76015">
        <ele>123</ele>
        <time>2018-04-01T02:32:10Z</time>
      </trkpt>
      <trkpt lat="49.22257" lon="4.75956">
        <ele>125</ele>
        <time>2018-04-01T02:33:10Z</time>
      </trkpt>
      <trkpt lat="49.22236" lon="4.75916">
        <ele>126</ele>
        <time>2018-04-01T02:34:10Z</time>
      </trkpt>
      <trkpt lat="49.22212" lon="4.7587">
        <ele>126</ele>
        <time>2018-04-01T02:35:10Z</time>
      </trkpt>
      <trkpt lat="49.22201" lon="4.75841">
        <ele>126</ele>
        <time>2018-04-01T02:36:10Z</time>
      </trkpt>
      <trkpt lat="49.22199" lon="4.75829">
        <ele>127</ele>
        <time>2018-04-01T02:37:10Z</time>
      </trkpt>
      <trkpt lat="49.22196" lon="4.75818">
        <ele>127</ele>
        <time>2018-04-01T02:38:10Z</time>
      </trkpt>
      <trkpt lat="49.22194" lon="4.75802">
        <ele>128</ele>
        <time>2018-04-01T02:39:10Z</time>
      </trkpt>
      <trkpt lat="49.22191" lon="4.75782">
        <ele>128</ele>
        <time>2018-04-01T02:40:10Z</time>
      </trkpt>
      <trkpt lat="49.2219" lon="4.75764">
        <ele>129</ele>
        <time>2018-04-01T02:41:10Z</time>
      </trkpt>
      <trkpt lat="49.22189" lon="4.75746">
        <ele>129</ele>
        <time>2018-04-01T02:42:10Z</time>
      </trkpt>
      <trkpt lat="49.22188" lon="4.75721">
        <ele>130</ele>
        <time>2018-04-01T02:43:10Z</time>
      </trkpt>
      <trkpt lat="49.22188" lon="4.75697">
        <ele>130</ele>
        <time>2018-04-01T02:44:10Z</time>
      </trkpt>
      <trkpt lat="49.22187" lon="4.75676">
        <ele>130</ele>
        <time>2018-04-01T02:45:10Z</time>
      </trkpt>
      <trkpt lat="49.22187" lon="4.75648">
        <ele>129</ele>
        <time>2018-04-01T02:46:10Z</time>
      </trkpt>
      <trkpt lat="49.22186" lon="4.75605">
        <ele>128</ele>
        <time>2018-04-01T02:47:10Z</time>
      </trkpt>
      <trkpt lat="49.22185" lon="4.75553">
        <ele>127</ele>
        <time>2018-04-01T02:48:10Z</time>
      </trkpt>
      <trkpt lat="49.22183" lon="4.75463">
        <ele>125</ele>
        <time>2018-04-01T02:49:10Z</time>
      </trkpt>
      <trkpt lat="49.2218" lon="4.7537">
        <ele>123</ele>
        <time>2018-04-01T02:50:10Z</time>
      </trkpt>
      <trkpt lat="49.22178" lon="4.75271">
        <ele>122</ele>
        <time>2018-04-01T02:51:10Z</time>
      </trkpt>
      <trkpt lat="49.22176" lon="4.75186">
        <ele>122</ele>
        <time>2018-04-01T02:52:10Z</time>
      </trkpt>
      <trkpt lat="49.22175" lon="4.75132">
        <ele>122</ele>
        <time>2018-04-01T02:53:10Z</time>
      </trkpt>
      <trkpt lat="49.22174" lon="4.75112">
        <ele>123</ele>
        <time>2018-04-01T02:54:10Z</time>
      </trkpt>
      <trkpt lat="49.22173" lon="4.75057">
        <ele>123</ele>
        <time>2018-04-01T02:55:10Z</time>
      </trkpt>
      <trkpt lat="49.22171" lon="4.74996">
        <ele>123</ele>
        <time>2018-04-01T02:56:10Z</time>
      </trkpt>
      <trkpt lat="49.2217" lon="4.74937">
        <ele>124</ele>
        <time>2018-04-01T02:57:10Z</time>
      </trkpt>
      <trkpt lat="49.22168" lon="4.74876">
        <ele>126</ele>
        <time>2018-04-01T02:58:10Z</time>
      </trkpt>
      <trkpt lat="49.22167" lon="4.74807">
        <ele>128</ele>
        <time>2018-04-01T02:59:10Z</time>
      </trkpt>
      <trkpt lat="49.22164" lon="4.74703">
        <ele>130</ele>
        <time>2018-04-01T03:00:10Z</time>
      </trkpt>
      <trkpt lat="49.22165" lon="4.74655">
        <ele>131</ele>
        <time>2018-04-01T03:01:10Z</time>
      </trkpt>
      <trkpt lat="49.22165" lon="4.74641">
        <ele>131</ele>
        <time>2018-04-01T03:02:10Z</time>
      </trkpt>
      <trkpt lat="49.22165" lon="4.74634">
        <ele>131</ele>
        <time>2018-04-01T03:03:10Z</time>
      </trkpt>
      <trkpt lat="49.22166" lon="4.74624">
        <ele>131</ele>
        <time>2018-04-01T03:04:10Z</time>
      </trkpt>
      <trkpt lat="49.22168" lon="4.7461">
        <ele>131</ele>
        <time>2018-04-01T03:05:10Z</time>
      </trkpt>
      <trkpt lat="49.2217" lon="4.74588">
        <ele>131</ele>
        <time>2018-04-01T03:06:10Z</time>
      </trkpt>
      <trkpt lat="49.22174" lon="4.74558">
        <ele>131</ele>
        <time>2018-04-01T03:07:10Z</time>
      </trkpt>
      <trkpt lat="49.2218" lon="4.74515">
        <ele>130</ele>
        <time>2018-04-01T03:08:10Z</time>
      </trkpt>
      <trkpt lat="49.22188" lon="4.74454">
        <ele>130</ele>
        <time>2018-04-01T03:09:10Z</time>
      </trkpt>
      <trkpt lat="49.22197" lon="4.74379">
        <ele>129</ele>
        <time>2018-04-01T03:10:10Z</time>
      </trkpt>
      <trkpt lat="49.22205" lon="4.74316">
        <ele>129</ele>
        <time>2018-04-01T03:11:10Z</time>
      </trkpt>
      <trkpt lat="49.22214" lon="4.74249">
        <ele>127</ele>
        <time>2018-04-01T03:12:10Z</time>
      </trkpt>
      <trkpt lat="49.22221" lon="4.74188">
        <ele>127</ele>
        <time>2018-04-01T03:13:10Z</time>
      </trkpt>
      <trkpt lat="49.22228" lon="4.74139">
        <ele>126</ele>
        <time>2018-04-01T03:14:10Z</time>
      </trkpt>
      <trkpt lat="49.22233" lon="4.74096">
        <ele>125</ele>
        <time>2018-04-01T03:15:10Z</time>
      </trkpt>
      <trkpt lat="49.22235" lon="4.74085">
        <ele>125</ele>
        <time>2018-04-01T03:16:10Z</time>
      </trkpt>
      <trkpt lat="49.2224" lon="4.74042">
        <ele>125</ele>
        <time>2018-04-01T03:17:10Z</time>
      </trkpt>
      <trkpt lat="49.22246" lon="4.7399">
        <ele>125</ele>
        <time>2018-04-01T03:18:10Z</time>
      </trkpt>
      <trkpt lat="49.22252" lon="4.73948">
        <ele>126</ele>
        <time>2018-04-01T03:19:10Z</time>
      </trkpt>
      <trkpt lat="49.22256" lon="4.73916">
        <ele>126</ele>
        <time>2018-04-01T03:20:10Z</time>
      </trkpt>
      <trkpt lat="49.2226" lon="4.73894">
        <ele>126</ele>
        <time>2018-04-01T03:21:10Z</time>
      </trkpt>
      <trkpt lat="49.22262" lon="4.73881">
        <ele>127</ele>
        <time>2018-04-01T03:22:10Z</time>
      </trkpt>
      <trkpt lat="49.22264" lon="4.73871">
        <ele>127</ele>
        <time>2018-04-01T03:23:10Z</time>
      </trkpt>
      <trkpt lat="49.22269" lon="4.73852">
        <ele>127</ele>
        <time>2018-04-01T03:24:10Z</time>
      </trkpt>
      <trkpt lat="49.22272" lon="4.73844">
        <ele>127</ele>
        <time>2018-04-01T03:25:10Z</time>
      </trkpt>
      <trkpt lat="49.22273" lon="4.73838">
        <ele>127</ele>
        <time>2018-04-01T03:26:10Z</time>
      </trkpt>
      <trkpt lat="49.22277" lon="4.73827">
        <ele>127</ele>
        <time>2018-04-01T03:27:10Z</time>
      </trkpt>
      <trkpt lat="49.22282" lon="4.7381">
        <ele>127</ele>
        <time>2018-04-01T03:28:10Z</time>
      </trkpt>
      <trkpt lat="49.22287" lon="4.73796">
        <ele>127</ele>
        <time>2018-04-01T03:29:10Z</time>
      </trkpt>
      <trkpt lat="49.22292" lon="4.73782">
        <ele>127</ele>
        <time>2018-04-01T03:30:10Z</time>
      </trkpt>
      <trkpt lat="49.22303" lon="4.73754">
        <ele>127</ele>
        <time>2018-04-01T03:31:10Z</time>
      </trkpt>
      <trkpt lat="49.22331" lon="4.73674">
        <ele>127</ele>
        <time>2018-04-01T03:32:10Z</time>
      </trkpt>
      <trkpt lat="49.22348" lon="4.73628">
        <ele>127</ele>
        <time>2018-04-01T03:33:10Z</time>
      </trkpt>
      <trkpt lat="49.22374" lon="4.73553">
        <ele>128</ele>
        <time>2018-04-01T03:34:10Z</time>
      </trkpt>
      <trkpt lat="49.2239" lon="4.73507">
        <ele>128</ele>
        <time>2018-04-01T03:35:10Z</time>
      </trkpt>
      <trkpt lat="49.22408" lon="4.73454">
        <ele>129</ele>
        <time>2018-04-01T03:36:10Z</time>
      </trkpt>
      <trkpt lat="49.22424" lon="4.7341">
        <ele>129</ele>
        <time>2018-04-01T03:37:10Z</time>
      </trkpt>
      <trkpt lat="49.2244" lon="4.73363">
        <ele>128</ele>
        <time>2018-04-01T03:38:10Z</time>
      </trkpt>
      <trkpt lat="49.22445" lon="4.73348">
        <ele>128</ele>
        <time>2018-04-01T03:39:10Z</time>
      </trkpt>
      <trkpt lat="49.22455" lon="4.73322">
        <ele>127</ele>
        <time>2018-04-01T03:40:10Z</time>
      </trkpt>
      <trkpt lat="49.22464" lon="4.73294">
        <ele>127</ele>
        <time>2018-04-01T03:41:10Z</time>
      </trkpt>
      <trkpt lat="49.22469" lon="4.73281">
        <ele>126</ele>
        <time>2018-04-01T03:42:10Z</time>
      </trkpt>
      <trkpt lat="49.22474" lon="4.7327">
        <ele>126</ele>
        <time>2018-04-01T03:43:10Z</time>
      </trkpt>
      <trkpt lat="49.22478" lon="4.73261">
        <ele>126</ele>
        <time>2018-04-01T03:44:10Z</time>
      </trkpt>
      <trkpt lat="49.22485" lon="4.73246">
        <ele>125</ele>
        <time>2018-04-01T03:45:10Z</time>
      </trkpt>
      <trkpt lat="49.2249" lon="4.73232">
        <ele>125</ele>
        <time>2018-04-01T03:46:10Z</time>
      </trkpt>
      <trkpt lat="49.22494" lon="4.7322">
        <ele>125</ele>
        <time>2018-04-01T03:47:10Z</time>
      </trkpt>
      <trkpt lat="49.22495" lon="4.73215">
        <ele>126</ele>
        <time>2018-04-01T03:48:10Z</time>
      </trkpt>
      <trkpt lat="49.22497" lon="4.73209">
        <ele>126</ele>
        <time>2018-04-01T03:49:10Z</time>
      </trkpt>
      <trkpt lat="49.22498" lon="4.73202">
        <ele>126</ele>
        <time>2018-04-01T03:50:10Z</time>
      </trkpt>
      <trkpt lat="49.22501" lon="4.73186">
        <ele>126</ele>
        <time>2018-04-01T03:51:10Z</time>
      </trkpt>
      <trkpt lat="49.22503" lon="4.73174">
        <ele>126</ele>
        <time>2018-04-01T03:52:10Z</time>
      </trkpt>
      <trkpt lat="49.22504" lon="4.73157">
        <ele>126</ele>
        <time>2018-04-01T03:53:10Z</time>
      </trkpt>
      <trkpt lat="49.22505" lon="4.7314">
        <ele>126</ele>
        <time>2018-04-01T03:54:10Z</time>
      </trkpt>
      <trkpt lat="49.22506" lon="4.73107">
        <ele>125</ele>
        <time>2018-04-01T03:55:10Z</time>
      </trkpt>
      <trkpt lat="49.22508" lon="4.73082">
        <ele>125</ele>
        <time>2018-04-01T03:56:10Z</time>
      </trkpt>
      <trkpt lat="49.22509" lon="4.73068">
        <ele>125</ele>
        <time>2018-04-01T03:57:10Z</time>
      </trkpt>
      <trkpt lat="49.22512" lon="4.73052">
        <ele>125</ele>
        <time>2018-04-01T03:58:10Z</time>
      </trkpt>
      <trkpt lat="49.22514" lon="4.73046">
        <ele>125</ele>
        <time>2018-04-01T03:59:10Z</time>
      </trkpt>
      <trkpt lat="49.22518" lon="4.73039">
        <ele>124</ele>
        <time>2018-04-01T04:00:10Z</time>
      </trkpt>
      <trkpt lat="49.2252" lon="4.73037">
        <ele>124</ele>
        <time>2018-04-01T04:01:10Z</time>
      </trkpt>
      <trkpt lat="49.22524" lon="4.73035">
        <ele>124</ele>
        <time>2018-04-01T04:02:10Z</time>
      </trkpt>
      <trkpt lat="49.22529" lon="4.73035">
        <ele>124</ele>
        <time>2018-04-01T04:03:10Z</time>
      </trkpt>
      <trkpt lat="49.22593" lon="4.7305">
        <ele>124</ele>
        <time>2018-04-01T04:04:10Z</time>
      </trkpt>
      <trkpt lat="49.22607" lon="4.73051">
        <ele>124</ele>
        <time>2018-04-01T04:05:10Z</time>
      </trkpt>
      <trkpt lat="49.22614" lon="4.73053">
        <ele>124</ele>
        <time>2018-04-01T04:06:10Z</time>
      </trkpt>
      <trkpt lat="49.22623" lon="4.73052">
        <ele>124</ele>
        <time>2018-04-01T04:07:10Z</time>
      </trkpt>
      <trkpt lat="49.22625" lon="4.73052">
        <ele>124</ele>
        <time>2018-04-01T04:08:10Z</time>
      </trkpt>
      <trkpt lat="49.2263" lon="4.73051">
        <ele>124</ele>
        <time>2018-04-01T04:09:10Z</time>
      </trkpt>
      <trkpt lat="49.22637" lon="4.73049">
        <ele>124</ele>
        <time>2018-04-01T04:10:10Z</time>
      </trkpt>
      <trkpt lat="49.22642" lon="4.73046">
        <ele>124</ele>
        <time>2018-04-01T04:11:10Z</time>
      </trkpt>
      <trkpt lat="49.22649" lon="4.73042">
        <ele>124</ele>
        <time>2018-04-01T04:12:10Z</time>
      </trkpt>
      <trkpt lat="49.22656" lon="4.73037">
        <ele>124</ele>
        <time>2018-04-01T04:13:10Z</time>
      </trkpt>
      <trkpt lat="49.22662" lon="4.7303">
        <ele>124</ele>
        <time>2018-04-01T04:14:10Z</time>
      </trkpt>
      <trkpt lat="49.22669" lon="4.73021">
        <ele>124</ele>
        <time>2018-04-01T04:15:10Z</time>
      </trkpt>
      <trkpt lat="49.22673" lon="4.73015">
        <ele>124</ele>
        <time>2018-04-01T04:16:10Z</time>
      </trkpt>
      <trkpt lat="49.22676" lon="4.73009">
        <ele>124</ele>
        <time>2018-04-01T04:17:10Z</time>
      </trkpt>
      <trkpt lat="49.22684" lon="4.72997">
        <ele>124</ele>
        <time>2018-04-01T04:18:10Z</time>
      </trkpt>
      <trkpt lat="49.22691" lon="4.72985">
        <ele>124</ele>
        <time>2018-04-01T04:19:10Z</time>
      </trkpt>
      <trkpt lat="49.22703" lon="4.72966">
        <ele>124</ele>
        <time>2018-04-01T04:20:10Z</time>
      </trkpt>
      <trkpt lat="49.22723" lon="4.72932">
        <ele>123</ele>
        <time>2018-04-01T04:21:10Z</time>
      </trkpt>
      <trkpt lat="49.22752" lon="4.72882">
        <ele>123</ele>
        <time>2018-04-01T04:22:10Z</time>
      </trkpt>
      <trkpt lat="49.22818" lon="4.72765">
        <ele>123</ele>
        <time>2018-04-01T04:23:10Z</time>
      </trkpt>
      <trkpt lat="49.22825" lon="4.72751">
        <ele>123</ele>
        <time>2018-04-01T04:24:10Z</time>
      </trkpt>
      <trkpt lat="49.2283" lon="4.72735">
        <ele>123</ele>
        <time>2018-04-01T04:25:10Z</time>
      </trkpt>
      <trkpt lat="49.22839" lon="4.72702">
        <ele>124</ele>
        <time>2018-04-01T04:26:10Z</time>
      </trkpt>
      <trkpt lat="49.22842" lon="4.72677">
        <ele>124</ele>
        <time>2018-04-01T04:27:10Z</time>
      </trkpt>
      <trkpt lat="49.22853" lon="4.72491">
        <ele>124</ele>
        <time>2018-04-01T04:28:10Z</time>
      </trkpt>
      <trkpt lat="49.22854" lon="4.72479">
        <ele>125</ele>
        <time>2018-04-01T04:29:10Z</time>
      </trkpt>
      <trkpt lat="49.22857" lon="4.7246">
        <ele>125</ele>
        <time>2018-04-01T04:30:10Z</time>
      </trkpt>
      <trkpt lat="49.22861" lon="4.72452">
        <ele>125</ele>
        <time>2018-04-01T04:31:10Z</time>
      </trkpt>
      <trkpt lat="49.22865" lon="4.72445">
        <ele>126</ele>
        <time>2018-04-01T04:32:10Z</time>
      </trkpt>
      <trkpt lat="49.22868" lon="4.72442">
        <ele>126</ele>
        <time>2018-04-01T04:33:10Z</time>
      </trkpt>
      <trkpt lat="49.22873" lon="4.72439">
        <ele>126</ele>
        <time>2018-04-01T04:34:10Z</time>
      </trkpt>
      <trkpt lat="49.22881" lon="4.72436">
        <ele>126</ele>
        <time>2018-04-01T04:35:10Z</time>
      </trkpt>
      <trkpt lat="49.22944" lon="4.72421">
        <ele>126</ele>
        <time>2018-04-01T04:36:10Z</time>
      </trkpt>
      <trkpt lat="49.23161" lon="4.72372">
        <ele>129</ele>
        <time>2018-04-01T04:37:10Z</time>
      </trkpt>
      <trkpt lat="49.23228" lon="4.7236">
        <ele>132</ele>
        <time>2018-04-01T04:38:10Z</time>
      </trkpt>
      <trkpt lat="49.23234" lon="4.72358">
        <ele>133</ele>
        <time>2018-04-01T04:39:10Z</time>
      </trkpt>
      <trkpt lat="49.23247" lon="4.72354">
        <ele>133</ele>
        <time>2018-04-01T04:40:10Z</time>
      </trkpt>
      <trkpt lat="49.23262" lon="4.72347">
        <ele>134</ele>
        <time>2018-04-01T04:41:10Z</time>
      </trkpt>
      <trkpt lat="49.23269" lon="4.72338">
        <ele>134</ele>
        <time>2018-04-01T04:42:10Z</time>
      </trkpt>
      <trkpt lat="49.23271" lon="4.72335">
        <ele>134</ele>
        <time>2018-04-01T04:43:10Z</time>
      </trkpt>
      <trkpt lat="49.23274" lon="4.7233">
        <ele>134</ele>
        <time>2018-04-01T04:44:10Z</time>
      </trkpt>
      <trkpt lat="49.23279" lon="4.72322">
        <ele>134</ele>
        <time>2018-04-01T04:45:10Z</time>
      </trkpt>
      <trkpt lat="49.23304" lon="4.72267">
        <ele>135</ele>
        <time>2018-04-01T04:46:10Z</time>
      </trkpt>
      <trkpt lat="49.2333" lon="4.72208">
        <ele>136</ele>
        <time>2018-04-01T04:47:10Z</time>
      </trkpt>
      <trkpt lat="49.23351" lon="4.72161">
        <ele>136</ele>
        <time>2018-04-01T04:48:10Z</time>
      </trkpt>
      <trkpt lat="49.23381" lon="4.72091">
        <ele>137</ele>
        <time>2018-04-01T04:49:10Z</time>
      </trkpt>
      <trkpt lat="49.23398" lon="4.72053">
        <ele>137</ele>
        <time>2018-04-01T04:50:10Z</time>
      </trkpt>
      <trkpt lat="49.23427" lon="4.71987">
        <ele>135</ele>
        <time>2018-04-01T04:51:10Z</time>
      </trkpt>
      <trkpt lat="49.23456" lon="4.71916">
        <ele>134</ele>
        <time>2018-04-01T04:52:10Z</time>
      </trkpt>
      <trkpt lat="49.23476" lon="4.71871">
        <ele>135</ele>
        <time>2018-04-01T04:53:10Z</time>
      </trkpt>
      <trkpt lat="49.23496" lon="4.71825">
        <ele>136</ele>
        <time>2018-04-01T04:54:10Z</time>
      </trkpt>
      <trkpt lat="49.23505" lon="4.71803">
        <ele>136</ele>
        <time>2018-04-01T04:55:10Z</time>
      </trkpt>
      <trkpt lat="49.23515" lon="4.7178">
        <ele>137</ele>
        <time>2018-04-01T04:56:10Z</time>
      </trkpt>
      <trkpt lat="49.2352" lon="4.7177">
        <ele>137</ele>
        <time>2018-04-01T04:57:10Z</time>
      </trkpt>
      <trkpt lat="49.23525" lon="4.71762">
        <ele>137</ele>
        <time>2018-04-01T04:58:10Z</time>
      </trkpt>
      <trkpt lat="49.2353" lon="4.71756">
        <ele>137</ele>
        <time>2018-04-01T04:59:10Z</time>
      </trkpt>
      <trkpt lat="49.23536" lon="4.71751">
        <ele>137</ele>
        <time>2018-04-01T05:00:10Z</time>
      </trkpt>
      <trkpt lat="49.23541" lon="4.71747">
        <ele>137</ele>
        <time>2018-04-01T05:01:10Z</time>
      </trkpt>
      <trkpt lat="49.23547" lon="4.71744">
        <ele>136</ele>
        <time>2018-04-01T05:02:10Z</time>
      </trkpt>
      <trkpt lat="49.23558" lon="4.71745">
        <ele>136</ele>
        <time>2018-04-01T05:03:10Z</time>
      </trkpt>
      <trkpt lat="49.23568" lon="4.71746">
        <ele>135</ele>
        <time>2018-04-01T05:04:10Z</time>
      </trkpt>
      <trkpt lat="49.2358" lon="4.71749">
        <ele>134</ele>
        <time>2018-04-01T05:05:10Z</time>
      </trkpt>
      <trkpt lat="49.23615" lon="4.71761">
        <ele>133</ele>
        <time>2018-04-01T05:06:10Z</time>
      </trkpt>
      <trkpt lat="49.23648" lon="4.71771">
        <ele>133</ele>
        <time>2018-04-01T05:07:10Z</time>
      </trkpt>
      <trkpt lat="49.23665" lon="4.71779">
        <ele>133</ele>
        <time>2018-04-01T05:08:10Z</time>
      </trkpt>
      <trkpt lat="49.23675" lon="4.71784">
        <ele>133</ele>
        <time>2018-04-01T05:09:10Z</time>
      </trkpt>
      <trkpt lat="49.23708" lon="4.71805">
        <ele>134</ele>
        <time>2018-04-01T05:10:10Z</time>
      </trkpt>
      <trkpt lat="49.23719" lon="4.71811">
        <ele>134</ele>
        <time>2018-04-01T05:11:10Z</time>
      </trkpt>
      <trkpt lat="49.23732" lon="4.71817">
        <ele>135</ele>
        <time>2018-04-01T05:12:10Z</time>
      </trkpt>
      <trkpt lat="49.23738" lon="4.7182">
        <ele>135</ele>
        <time>2018-04-01T05:13:10Z</time>
      </trkpt>
      <trkpt lat="49.2375" lon="4.71814">
        <ele>135</ele>
        <time>2018-04-01T05:14:10Z</time>
      </trkpt>
      <trkpt lat="49.23761" lon="4.71809">
        <ele>136</ele>
        <time>2018-04-01T05:15:10Z</time>
      </trkpt>
      <trkpt lat="49.23768" lon="4.71803">
        <ele>137</ele>
        <time>2018-04-01T05:16:10Z</time>
      </trkpt>
      <trkpt lat="49.23779" lon="4.71789">
        <ele>138</ele>
        <time>2018-04-01T05:17:10Z</time>
      </trkpt>
      <trkpt lat="49.23783" lon="4.71781">
        <ele>139</ele>
        <time>2018-04-01T05:18:10Z</time>
      </trkpt>
      <trkpt lat="49.23792" lon="4.71761">
        <ele>140</ele>
        <time>2018-04-01T05:19:10Z</time>
      </trkpt>
      <trkpt lat="49.23796" lon="4.71754">
        <ele>140</ele>
        <time>2018-04-01T05:20:10Z</time>
      </trkpt>
      <trkpt lat="49.23802" lon="4.71744">
        <ele>140</ele>
        <time>2018-04-01T05:21:10Z</time>
      </trkpt>
      <trkpt lat="49.23828" lon="4.71688">
        <ele>141</ele>
        <time>2018-04-01T05:22:10Z</time>
      </trkpt>
      <trkpt lat="49.23844" lon="4.7164">
        <ele>142</ele>
        <time>2018-04-01T05:23:10Z</time>
      </trkpt>
      <trkpt lat="49.2385" lon="4.71618">
        <ele>142</ele>
        <time>2018-04-01T05:24:10Z</time>
      </trkpt>
      <trkpt lat="49.23853" lon="4.71599">
        <ele>142</ele>
        <time>2018-04-01T05:25:10Z</time>
      </trkpt>
      <trkpt lat="49.23855" lon="4.71585">
        <ele>142</ele>
        <time>2018-04-01T05:26:10Z</time>
      </trkpt>
      <trkpt lat="49.23856" lon="4.71571">
        <ele>142</ele>
        <time>2018-04-01T05:27:10Z</time>
      </trkpt>
      <trkpt lat="49.23855" lon="4.71558">
        <ele>143</ele>
        <time>2018-04-01T05:28:10Z</time>
      </trkpt>
      <trkpt lat="49.23854" lon="4.71541">
        <ele>143</ele>
        <time>2018-04-01T05:29:10Z</time>
      </trkpt>
      <trkpt lat="49.23847" lon="4.71489">
        <ele>143</ele>
        <time>2018-04-01T05:30:10Z</time>
      </trkpt>
      <trkpt lat="49.2384" lon="4.7142">
        <ele>144</ele>
        <time>2018-04-01T05:31:10Z</time>
      </trkpt>
      <trkpt lat="49.23839" lon="4.7141">
        <ele>144</ele>
        <time>2018-04-01T05:32:10Z</time>
      </trkpt>
      <trkpt lat="49.23838" lon="4.71389">
        <ele>143</ele>
        <time>2018-04-01T05:33:10Z</time>
      </trkpt>
      <trkpt lat="49.23839" lon="4.71365">
        <ele>143</ele>
        <time>2018-04-01T05:34:10Z</time>
      </trkpt>
      <trkpt lat="49.23845" lon="4.7132">
        <ele>143</ele>
        <time>2018-04-01T05:35:10Z</time>
      </trkpt>
      <trkpt lat="49.23848" lon="4.71304">
        <ele>142</ele>
        <time>2018-04-01T05:36:10Z</time>
      </trkpt>
      <trkpt lat="49.23852" lon="4.71284">
        <ele>141</ele>
        <time>2018-04-01T05:37:10Z</time>
      </trkpt>
      <trkpt lat="49.23854" lon="4.71277">
        <ele>141</ele>
        <time>2018-04-01T05:38:10Z</time>
      </trkpt>
      <trkpt lat="49.23863" lon="4.71245">
        <ele>140</ele>
        <time>2018-04-01T05:39:10Z</time>
      </trkpt>
      <trkpt lat="49.23869" lon="4.71218">
        <ele>140</ele>
        <time>2018-04-01T05:40:10Z</time>
      </trkpt>
      <trkpt lat="49.23875" lon="4.71188">
        <ele>140</ele>
        <time>2018-04-01T05:41:10Z</time>
      </trkpt>
      <trkpt lat="49.23878" lon="4.71172">
        <ele>140</ele>
        <time>2018-04-01T05:42:10Z</time>
      </trkpt>
      <trkpt lat="49.2388" lon="4.71153">
        <ele>141</ele>
        <time>2018-04-01T05:43:10Z</time>
      </trkpt>
      <trkpt lat="49.23882" lon="4.71138">
        <ele>141</ele>
        <time>2018-04-01T05:44:10Z</time>
      </trkpt>
      <trkpt lat="49.23881" lon="4.71122">
        <ele>142</ele>
        <time>2018-04-01T05:45:10Z</time>
      </trkpt>
      <trkpt lat="49.2388" lon="4.71114">
        <ele>142</ele>
        <time>2018-04-01T05:46:10Z</time>
      </trkpt>
      <trkpt lat="49.23879" lon="4.71102">
        <ele>143</ele>
        <time>2018-04-01T05:47:10Z</time>
      </trkpt>
      <trkpt lat="49.23874" lon="4.71082">
        <ele>143</ele>
        <time>2018-04-01T05:48:10Z</time>
      </trkpt>
      <trkpt lat="49.23868" lon="4.7106">
        <ele>143</ele>
        <time>2018-04-01T05:49:10Z</time>
      </trkpt>
      <trkpt lat="49.23864" lon="4.7105">
        <ele>143</ele>
        <time>2018-04-01T05:50:10Z</time>
      </trkpt>
      <trkpt lat="49.2386" lon="4.71031">
        <ele>143</ele>
        <time>2018-04-01T05:51:10Z</time>
      </trkpt>
      <trkpt lat="49.23852" lon="4.70995">
        <ele>144</ele>
        <time>2018-04-01T05:52:10Z</time>
      </trkpt>
      <trkpt lat="49.23848" lon="4.70956">
        <ele>143</ele>
        <time>2018-04-01T05:53:10Z</time>
      </trkpt>
      <trkpt lat="49.23846" lon="4.70915">
        <ele>143</ele>
        <time>2018-04-01T05:54:10Z</time>
      </trkpt>
      <trkpt lat="49.23844" lon="4.70891">
        <ele>143</ele>
        <time>2018-04-01T05:55:10Z</time>
      </trkpt>
      <trkpt lat="49.23841" lon="4.70864">
        <ele>143</ele>
        <time>2018-04-01T05:56:10Z</time>
      </trkpt>
      <trkpt lat="49.23836" lon="4.70823">
        <ele>143</ele>
        <time>2018-04-01T05:57:10Z</time>
      </trkpt>
      <trkpt lat="49.23832" lon="4.70788">
        <ele>142</ele>
        <time>2018-04-01T05:58:10Z</time>
      </trkpt>
      <trkpt lat="49.23829" lon="4.70748">
        <ele>143</ele>
        <time>2018-04-01T05:59:10Z</time>
      </trkpt>
      <trkpt lat="49.23829" lon="4.70725">
        <ele>143</ele>
        <time>2018-04-01T06:00:10Z</time>
      </trkpt>
      <trkpt lat="49.23831" lon="4.70701">
        <ele>143</ele>
        <time>2018-04-01T06:01:10Z</time>
      </trkpt>
      <trkpt lat="49.23838" lon="4.7065">
        <ele>143</ele>
        <time>2018-04-01T06:02:10Z</time>
      </trkpt>
      <trkpt lat="49.23849" lon="4.70584">
        <ele>143</ele>
        <time>2018-04-01T06:03:10Z</time>
      </trkpt>
      <trkpt lat="49.23857" lon="4.70534">
        <ele>144</ele>
        <time>2018-04-01T06:04:10Z</time>
      </trkpt>
      <trkpt lat="49.23867" lon="4.70476">
        <ele>145</ele>
        <time>2018-04-01T06:05:10Z</time>
      </trkpt>
      <trkpt lat="49.23876" lon="4.70441">
        <ele>146</ele>
        <time>2018-04-01T06:06:10Z</time>
      </trkpt>
      <trkpt lat="49.23886" lon="4.70409">
        <ele>146</ele>
        <time>2018-04-01T06:07:10Z</time>
      </trkpt>
      <trkpt lat="49.23893" lon="4.7039">
        <ele>147</ele>
        <time>2018-04-01T06:08:10Z</time>
      </trkpt>
      <trkpt lat="49.23901" lon="4.70372">
        <ele>147</ele>
        <time>2018-04-01T06:09:10Z</time>
      </trkpt>
      <trkpt lat="49.23909" lon="4.70355">
        <ele>147</ele>
        <time>2018-04-01T06:10:10Z</time>
      </trkpt>
      <trkpt lat="49.23918" lon="4.70337">
        <ele>146</ele>
        <time>2018-04-01T06:11:10Z</time>
      </trkpt>
      <trkpt lat="49.23932" lon="4.70314">
        <ele>147</ele>
        <time>2018-04-01T06:12:10Z</time>
      </trkpt>
      <trkpt lat="49.23948" lon="4.70288">
        <ele>147</ele>
        <time>2018-04-01T06:13:10Z</time>
      </trkpt>
      <trkpt lat="49.23964" lon="4.70266">
        <ele>147</ele>
        <time>2018-04-01T06:14:10Z</time>
      </trkpt>
      <trkpt lat="49.23981" lon="4.70245">
        <ele>146</ele>
        <time>2018-04-01T06:15:10Z</time>
      </trkpt>
      <trkpt lat="49.23991" lon="4.70236">
        <ele>147</ele>
        <time>2018-04-01T06:16:10Z</time>
      </trkpt>
      <trkpt lat="49.23997" lon="4.7023">
        <ele>147</ele>
        <time>2018-04-01T06:17:10Z</time>
      </trkpt>
      <trkpt lat="49.24004" lon="4.70225">
        <ele>146</ele>
        <time>2018-04-01T06:18:10Z</time>
      </trkpt>
      <trkpt lat="49.24009" lon="4.70223">
        <ele>146</ele>
        <time>2018-04-01T06:19:10Z</time>
      </trkpt>
      <trkpt lat="49.24015" lon="4.70221">
        <ele>146</ele>
        <time>2018-04-01T06:20:10Z</time>
      </trkpt>
      <trkpt lat="49.24039" lon="4.70212">
        <ele>146</ele>
        <time>2018-04-01T06:21:10Z</time>
      </trkpt>
      <trkpt lat="49.2407" lon="4.702">
        <ele>145</ele>
        <time>2018-04-01T06:22:10Z</time>
      </trkpt>
      <trkpt lat="49.24075" lon="4.70198">
        <ele>145</ele>
        <time>2018-04-01T06:23:10Z</time>
      </trkpt>
      <trkpt lat="49.24081" lon="4.70194">
        <ele>145</ele>
        <time>2018-04-01T06:24:10Z</time>
      </trkpt>
      <trkpt lat="49.24093" lon="4.70184">
        <ele>146</ele>
        <time>2018-04-01T06:25:10Z</time>
      </trkpt>
      <trkpt lat="49.24104" lon="4.70175">
        <ele>147</ele>
        <time>2018-04-01T06:26:10Z</time>
      </trkpt>
      <trkpt lat="49.24109" lon="4.7017">
        <ele>147</ele>
        <time>2018-04-01T06:27:10Z</time>
      </trkpt>
      <trkpt lat="49.24117" lon="4.7016">
        <ele>148</ele>
        <time>2018-04-01T06:28:10Z</time>
      </trkpt>
      <trkpt lat="49.24122" lon="4.70152">
        <ele>148</ele>
        <time>2018-04-01T06:29:10Z</time>
      </trkpt>
      <trkpt lat="49.2423" lon="4.69956">
        <ele>151</ele>
        <time>2018-04-01T06:30:10Z</time>
      </trkpt>
      <trkpt lat="49.24243" lon="4.69933">
        <ele>150</ele>
        <time>2018-04-01T06:31:10Z</time>
      </trkpt>
      <trkpt lat="49.2426" lon="4.69908">
        <ele>149</ele>
        <time>2018-04-01T06:32:10Z</time>
      </trkpt>
      <trkpt lat="49.24286" lon="4.69873">
        <ele>149</ele>
        <time>2018-04-01T06:33:10Z</time>
      </trkpt>
      <trkpt lat="49.24301" lon="4.69854">
        <ele>149</ele>
        <time>2018-04-01T06:34:10Z</time>
      </trkpt>
      <trkpt lat="49.24334" lon="4.69812">
        <ele>150</ele>
        <time>2018-04-01T06:35:10Z</time>
      </trkpt>
      <trkpt lat="49.24344" lon="4.69801">
        <ele>151</ele>
        <time>2018-04-01T06:36:10Z</time>
      </trkpt>
      <trkpt lat="49.24363" lon="4.69784">
        <ele>152</ele>
        <time>2018-04-01T06:37:10Z</time>
      </trkpt>
      <trkpt lat="49.2437" lon="4.69779">
        <ele>153</ele>
        <time>2018-04-01T06:38:10Z</time>
      </trkpt>
      <trkpt lat="49.24376" lon="4.69776">
        <ele>154</ele>
        <time>2018-04-01T06:39:10Z</time>
      </trkpt>
      <trkpt lat="49.24382" lon="4.69773">
        <ele>154</ele>
        <time>2018-04-01T06:40:10Z</time>
      </trkpt>
      <trkpt lat="49.24393" lon="4.69768">
        <ele>155</ele>
        <time>2018-04-01T06:41:10Z</time>
      </trkpt>
      <trkpt lat="49.24424" lon="4.69757">
        <ele>158</ele>
        <time>2018-04-01T06:42:10Z</time>
      </trkpt>
      <trkpt lat="49.24449" lon="4.69747">
        <ele>161</ele>
        <time>2018-04-01T06:43:10Z</time>
      </trkpt>
      <trkpt lat="49.24462" lon="4.69744">
        <ele>162</ele>
        <time>2018-04-01T06:44:10Z</time>
      </trkpt>
      <trkpt lat="49.24475" lon="4.69739">
        <ele>163</ele>
        <time>2018-04-01T06:45:10Z</time>
      </trkpt>
      <trkpt lat="49.24493" lon="4.69734">
        <ele>165</ele>
        <time>2018-04-01T06:46:10Z</time>
      </trkpt>
      <trkpt lat="49.2451" lon="4.69729">
        <ele>166</ele>
        <time>2018-04-01T06:47:10Z</time>
      </trkpt>
      <trkpt lat="49.24527" lon="4.69724">
        <ele>166</ele>
        <time>2018-04-01T06:48:10Z</time>
      </trkpt>
      <trkpt lat="49.2455" lon="4.6972">
        <ele>167</ele>
        <time>2018-04-01T06:49:10Z</time>
      </trkpt>
      <trkpt lat="49.24576" lon="4.69714">
        <ele>168</ele>
        <time>2018-04-01T06:50:10Z</time>
      </trkpt>
      <trkpt lat="49.24591" lon="4.6971">
        <ele>168</ele>
        <time>2018-04-01T06:51:10Z</time>
      </trkpt>
      <trkpt lat="49.2461" lon="4.69705">
        <ele>168</ele>
        <time>2018-04-01T06:52:10Z</time>
      </trkpt>
      <trkpt lat="49.24618" lon="4.69702">
        <ele>168</ele>
        <time>2018-04-01T06:53:10Z</time>
      </trkpt>
      <trkpt lat="49.2462" lon="4.69699">
        <ele>168</ele>
        <time>2018-04-01T06:54:10Z</time>
      </trkpt>
      <trkpt lat="49.24623" lon="4.69695">
        <ele>168</ele>
        <time>2018-04-01T06:55:10Z</time>
      </trkpt>
      <trkpt lat="49.24623" lon="4.6969">
        <ele>168</ele>
        <time>2018-04-01T06:56:10Z</time>
      </trkpt>
      <trkpt lat="49.24623" lon="4.69685">
        <ele>168</ele>
        <time>2018-04-01T06:57:10Z</time>
      </trkpt>
      <trkpt lat="49.24621" lon="4.69678">
        <ele>168</ele>
        <time>2018-04-01T06:58:10Z</time>
      </trkpt>
      <trkpt lat="49.24619" lon="4.6967">
        <ele>168</ele>
        <time>2018-04-01T06:59:10Z</time>
      </trkpt>
      <trkpt lat="49.24616" lon="4.69649">
        <ele>168</ele>
        <time>2018-04-01T07:00:10Z</time>
      </trkpt>
      <trkpt lat="49.24614" lon="4.69634">
        <ele>168</ele>
        <time>2018-04-01T07:01:10Z</time>
      </trkpt>
      <trkpt lat="49.24614" lon="4.69622">
        <ele>168</ele>
        <time>2018-04-01T07:02:10Z</time>
      </trkpt>
      <trkpt lat="49.24613" lon="4.69612">
        <ele>168</ele>
        <time>2018-04-01T07:03:10Z</time>
      </trkpt>
      <trkpt lat="49.24612" lon="4.69602">
        <ele>168</ele>
        <time>2018-04-01T07:04:10Z</time>
      </trkpt>
      <trkpt lat="49.24612" lon="4.69591">
        <ele>168</ele>
        <time>2018-04-01T07:05:10Z</time>
      </trkpt>
      <trkpt lat="49.24612" lon="4.69583">
        <ele>168</ele>
        <time>2018-04-01T07:06:10Z</time>
      </trkpt>
      <trkpt lat="49.24612" lon="4.69581">
        <ele>168</ele>
        <time>2018-04-01T07:07:10Z</time>
      </trkpt>
      <trkpt lat="49.24613" lon="4.69566">
        <ele>169</ele>
        <time>2018-04-01T07:08:10Z</time>
      </trkpt>
      <trkpt lat="49.24614" lon="4.69551">
        <ele>169</ele>
        <time>2018-04-01T07:09:10Z</time>
      </trkpt>
      <trkpt lat="49.24615" lon="4.69536">
        <ele>169</ele>
        <time>2018-04-01T07:10:10Z</time>
      </trkpt>
      <trkpt lat="49.24616" lon="4.69516">
        <ele>169</ele>
        <time>2018-04-01T07:11:10Z</time>
      </trkpt>
      <trkpt lat="49.24618" lon="4.69497">
        <ele>169</ele>
        <time>2018-04-01T07:12:10Z</time>
      </trkpt>
      <trkpt lat="49.24619" lon="4.69477">
        <ele>170</ele>
        <time>2018-04-01T07:13:10Z</time>
      </trkpt>
      <trkpt lat="49.24621" lon="4.69459">
        <ele>170</ele>
        <time>2018-04-01T07:14:10Z</time>
      </trkpt>
      <trkpt lat="49.24621" lon="4.69452">
        <ele>170</ele>
        <time>2018-04-01T07:15:10Z</time>
      </trkpt>
      <trkpt lat="49.24622" lon="4.69443">
        <ele>170</ele>
        <time>2018-04-01T07:16:10Z</time>
      </trkpt>
      <trkpt lat="49.24622" lon="4.69428">
        <ele>171</ele>
        <time>2018-04-01T07:17:10Z</time>
      </trkpt>
      <trkpt lat="49.24623" lon="4.69397">
        <ele>171</ele>
        <time>2018-04-01T07:18:10Z</time>
      </trkpt>
      <trkpt lat="49.24623" lon="4.69396">
        <ele>171</ele>
        <time>2018-04-01T07:19:10Z</time>
      </trkpt>
      <trkpt lat="49.24623" lon="4.69376">
        <ele>171</ele>
        <time>2018-04-01T07:20:10Z</time>
      </trkpt>
      <trkpt lat="49.24623" lon="4.69368">
        <ele>172</ele>
        <time>2018-04-01T07:21:10Z</time>
      </trkpt>
      <trkpt lat="49.24623" lon="4.6935">
        <ele>172</ele>
        <time>2018-04-01T07:22:10Z</time>
      </trkpt>
      <trkpt lat="49.24625" lon="4.69285">
        <ele>173</ele>
        <time>2018-04-01T07:23:10Z</time>
      </trkpt>
      <trkpt lat="49.24629" lon="4.69265">
        <ele>173</ele>
        <time>2018-04-01T07:24:10Z</time>
      </trkpt>
      <trkpt lat="49.24632" lon="4.69251">
        <ele>173</ele>
        <time>2018-04-01T07:25:10Z</time>
      </trkpt>
      <trkpt lat="49.24636" lon="4.69238">
        <ele>174</ele>
        <time>2018-04-01T07:26:10Z</time>
      </trkpt>
      <trkpt lat="49.2464" lon="4.69225">
        <ele>174</ele>
        <time>2018-04-01T07:27:10Z</time>
      </trkpt>
      <trkpt lat="49.24649" lon="4.69201">
        <ele>175</ele>
        <time>2018-04-01T07:28:10Z</time>
      </trkpt>
      <trkpt lat="49.2466" lon="4.69177">
        <ele>176</ele>
        <time>2018-04-01T07:29:10Z</time>
      </trkpt>
      <trkpt lat="49.24678" lon="4.69139">
        <ele>178</ele>
        <time>2018-04-01T07:30:10Z</time>
      </trkpt>
      <trkpt lat="49.24687" lon="4.69119">
        <ele>179</ele>
        <time>2018-04-01T07:31:10Z</time>
      </trkpt>
      <trkpt lat="49.24695" lon="4.69099">
        <ele>179</ele>
        <time>2018-04-01T07:32:10Z</time>
      </trkpt>
      <trkpt lat="49.24703" lon="4.69079">
        <ele>180</ele>
        <time>2018-04-01T07:33:10Z</time>
      </trkpt>
      <trkpt lat="49.2471" lon="4.69062">
        <ele>180</ele>
        <time>2018-04-01T07:34:10Z</time>
      </trkpt>
      <trkpt lat="49.24716" lon="4.69046">
        <ele>181</ele>
        <time>2018-04-01T07:35:10Z</time>
      </trkpt>
      <trkpt lat="49.24724" lon="4.69023">
        <ele>181</ele>
        <time>2018-04-01T07:36:10Z</time>
      </trkpt>
      <trkpt lat="49.2473" lon="4.69003">
        <ele>181</ele>
        <time>2018-04-01T07:37:10Z</time>
      </trkpt>
      <trkpt lat="49.24749" lon="4.68943">
        <ele>182</ele>
        <time>2018-04-01T07:38:10Z</time>
      </trkpt>
      <trkpt lat="49.24764" lon="4.6889">
        <ele>181</ele>
        <time>2018-04-01T07:39:10Z</time>
      </trkpt>
      <trkpt lat="49.24778" lon="4.68847">
        <ele>181</ele>
        <time>2018-04-01T07:40:10Z</time>
      </trkpt>
      <trkpt lat="49.24792" lon="4.68808">
        <ele>180</ele>
        <time>2018-04-01T07:41:10Z</time>
      </trkpt>
      <trkpt lat="49.24817" lon="4.68753">
        <ele>178</ele>
        <time>2018-04-01T07:42:10Z</time>
      </trkpt>
      <trkpt lat="49.24838" lon="4.687">
        <ele>176</ele>
        <time>2018-04-01T07:43:10Z</time>
      </trkpt>
      <trkpt lat="49.24859" lon="4.68637">
        <ele>175</ele>
        <time>2018-04-01T07:44:10Z</time>
      </trkpt>
      <trkpt lat="49.24875" lon="4.68597">
        <ele>173</ele>
        <time>2018-04-01T07:45:10Z</time>
      </trkpt>
      <trkpt lat="49.24891" lon="4.68561">
        <ele>172</ele>
        <time>2018-04-01T07:46:10Z</time>
      </trkpt>
      <trkpt lat="49.24919" lon="4.68509">
        <ele>168</ele>
        <time>2018-04-01T07:47:10Z</time>
      </trkpt>
      <trkpt lat="49.24954" lon="4.68449">
        <ele>164</ele>
        <time>2018-04-01T07:48:10Z</time>
      </trkpt>
      <trkpt lat="49.24964" lon="4.68431">
        <ele>163</ele>
        <time>2018-04-01T07:49:10Z</time>
      </trkpt>
      <trkpt lat="49.24999" lon="4.68371">
        <ele>161</ele>
        <time>2018-04-01T07:50:10Z</time>
      </trkpt>
      <trkpt lat="49.25028" lon="4.68319">
        <ele>162</ele>
        <time>2018-04-01T07:51:10Z</time>
      </trkpt>
      <trkpt lat="49.25051" lon="4.68283">
        <ele>164</ele>
        <time>2018-04-01T07:52:10Z</time>
      </trkpt>
      <trkpt lat="49.25081" lon="4.68242">
        <ele>166</ele>
        <time>2018-04-01T07:53:10Z</time>
      </trkpt>
      <trkpt lat="49.25116" lon="4.68197">
        <ele>167</ele>
        <time>2018-04-01T07:54:10Z</time>
      </trkpt>
      <trkpt lat="49.25157" lon="4.68154">
        <ele>166</ele>
        <time>2018-04-01T07:55:10Z</time>
      </trkpt>
      <trkpt lat="49.2521" lon="4.68097">
        <ele>165</ele>
        <time>2018-04-01T07:56:10Z</time>
      </trkpt>
      <trkpt lat="49.25238" lon="4.6807">
        <ele>164</ele>
        <time>2018-04-01T07:57:10Z</time>
      </trkpt>
      <trkpt lat="49.25264" lon="4.6804">
        <ele>163</ele>
        <time>2018-04-01T07:58:10Z</time>
      </trkpt>
      <trkpt lat="49.25279" lon="4.68023">
        <ele>163</ele>
        <time>2018-04-01T07:59:10Z</time>
      </trkpt>
      <trkpt lat="49.25285" lon="4.68015">
        <ele>163</ele>
        <time>2018-04-01T08:00:10Z</time>
      </trkpt>
      <trkpt lat="49.25285" lon="4.68015">
        <ele>163</ele>
        <time>2018-04-01T08:01:10Z</time>
      </trkpt>
      <trkpt lat="49.253" lon="4.67985">
        <ele>162</ele>
        <time>2018-04-01T08:02:10Z</time>
      </trkpt>
      <trkpt lat="49.25303" lon="4.67975">
        <ele>161</ele>
        <time>2018-04-01T08:03:10Z</time>
      </trkpt>
      <trkpt lat="49.25306" lon="4.67968">
        <ele>161</ele>
        <time>2018-04-01T08:04:10Z</time>
      </trkpt>
      <trkpt lat="49.25312" lon="4.67944">
        <ele>161</ele>
        <time>2018-04-01T08:05:10Z</time>
      </trkpt>
      <trkpt lat="49.25315" lon="4.67927">
        <ele>160</ele>
        <time>2018-04-01T08:06:10Z</time>
      </trkpt>
      <trkpt lat="49.25318" lon="4.67904">
        <ele>160</ele>
        <time>2018-04-01T08:07:10Z</time>
      </trkpt>
      <trkpt lat="49.25319" lon="4.67867">
        <ele>159</ele>
        <time>2018-04-01T08:08:10Z</time>
      </trkpt>
      <trkpt lat="49.25318" lon="4.6785">
        <ele>159</ele>
        <time>2018-04-01T08:09:10Z</time>
      </trkpt>
      <trkpt lat="49.25317" lon="4.6783">
        <ele>159</ele>
        <time>2018-04-01T08:10:10Z</time>
      </trkpt>
      <trkpt lat="49.25312" lon="4.67791">
        <ele>157</ele>
        <time>2018-04-01T08:11:10Z</time>
      </trkpt>
      <trkpt lat="49.25311" lon="4.6777">
        <ele>156</ele>
        <time>2018-04-01T08:12:10Z</time>
      </trkpt>
      <trkpt lat="49.25309" lon="4.67753">
        <ele>155</ele>
        <time>2018-04-01T08:13:10Z</time>
      </trkpt>
      <trkpt lat="49.25308" lon="4.67742">
        <ele>154</ele>
        <time>2018-04-01T08:14:10Z</time>
      </trkpt>
      <trkpt lat="49.25309" lon="4.67729">
        <ele>153</ele>
        <time>2018-04-01T08:15:10Z</time>
      </trkpt>
      <trkpt lat="49.25309" lon="4.6772">
        <ele>153</ele>
        <time>2018-04-01T08:16:10Z</time>
      </trkpt>
      <trkpt lat="49.25311" lon="4.6771">
        <ele>152</ele>
        <time>2018-04-01T08:17:10Z</time>
      </trkpt>
      <trkpt lat="49.25313" lon="4.67701">
        <ele>152</ele>
        <time>2018-04-01T08:18:10Z</time>
      </trkpt>
      <trkpt lat="49.25315" lon="4.67689">
        <ele>151</ele>
        <time>2018-04-01T08:19:10Z</time>
      </trkpt>
      <trkpt lat="49.25316" lon="4.67688">
        <ele>151</ele>
        <time>2018-04-01T08:20:10Z</time>
      </trkpt>
      <trkpt lat="49.2532" lon="4.67677">
        <ele>151</ele>
        <time>2018-04-01T08:21:10Z</time>
      </trkpt>
      <trkpt lat="49.25328" lon="4.67661">
        <ele>151</ele>
        <time>2018-04-01T08:22:10Z</time>
      </trkpt>
      <trkpt lat="49.25334" lon="4.6765">
        <ele>150</ele>
        <time>2018-04-01T08:23:10Z</time>
      </trkpt>
      <trkpt lat="49.25351" lon="4.67627">
        <ele>148</ele>
        <time>2018-04-01T08:24:10Z</time>
      </trkpt>
      <trkpt lat="49.25401" lon="4.67566">
        <ele>145</ele>
        <time>2018-04-01T08:25:10Z</time>
      </trkpt>
      <trkpt lat="49.2542" lon="4.67544">
        <ele>143</ele>
        <time>2018-04-01T08:26:10Z</time>
      </trkpt>
      <trkpt lat="49.25438" lon="4.67523">
        <ele>140</ele>
        <time>2018-04-01T08:27:10Z</time>
      </trkpt>
      <trkpt lat="49.25452" lon="4.67512">
        <ele>139</ele>
        <time>2018-04-01T08:28:10Z</time>
      </trkpt>
      <trkpt lat="49.25466" lon="4.67503">
        <ele>139</ele>
        <time>2018-04-01T08:29:10Z</time>
      </trkpt>
      <trkpt lat="49.25479" lon="4.67498">
        <ele>138</ele>
        <time>2018-04-01T08:30:10Z</time>
      </trkpt>
      <trkpt lat="49.25491" lon="4.67495">
        <ele>138</ele>
        <time>2018-04-01T08:31:10Z</time>
      </trkpt>
      <trkpt lat="49.25492" lon="4.67495">
        <ele>138</ele>
        <time>2018-04-01T08:32:10Z</time>
      </trkpt>
      <trkpt lat="49.25504" lon="4.67493">
        <ele>138</ele>
        <time>2018-04-01T08:33:10Z</time>
      </trkpt>
      <trkpt lat="49.25518" lon="4.67494">
        <ele>137</ele>
        <time>2018-04-01T08:34:10Z</time>
      </trkpt>
      <trkpt lat="49.25536" lon="4.67499">
        <ele>136</ele>
        <time>2018-04-01T08:35:10Z</time>
      </trkpt>
      <trkpt lat="49.25561" lon="4.67507">
        <ele>136</ele>
        <time>2018-04-01T08:36:10Z</time>
      </trkpt>
      <trkpt lat="49.25572" lon="4.67512">
        <ele>136</ele>
        <time>2018-04-01T08:37:10Z</time>
      </trkpt>
      <trkpt lat="49.2558" lon="4.67514">
        <ele>135</ele>
        <time>2018-04-01T08:38:10Z</time>
      </trkpt>
      <trkpt lat="49.25593" lon="4.67517">
        <ele>136</ele>
        <time>2018-04-01T08:39:10Z</time>
      </trkpt>
      <trkpt lat="49.25607" lon="4.67517">
        <ele>135</ele>
        <time>2018-04-01T08:40:10Z</time>
      </trkpt>
      <trkpt lat="49.25622" lon="4.67515">
        <ele>135</ele>
        <time>2018-04-01T08:41:10Z</time>
      </trkpt>
      <trkpt lat="49.25636" lon="4.67512">
        <ele>134</ele>
        <time>2018-04-01T08:42:10Z</time>
      </trkpt>
      <trkpt lat="49.25648" lon="4.67506">
        <ele>134</ele>
        <time>2018-04-01T08:43:10Z</time>
      </trkpt>
      <trkpt lat="49.2565" lon="4.67504">
        <ele>133</ele>
        <time>2018-04-01T08:44:10Z</time>
      </trkpt>
      <trkpt lat="49.25659" lon="4.67499">
        <ele>133</ele>
        <time>2018-04-01T08:45:10Z</time>
      </trkpt>
      <trkpt lat="49.25672" lon="4.67489">
        <ele>133</ele>
        <time>2018-04-01T08:46:10Z</time>
      </trkpt>
      <trkpt lat="49.25691" lon="4.67472">
        <ele>133</ele>
        <time>2018-04-01T08:47:10Z</time>
      </trkpt>
      <trkpt lat="49.25694" lon="4.67469">
        <ele>133</ele>
        <time>2018-04-01T08:48:10Z</time>
      </trkpt>
      <trkpt lat="49.25732" lon="4.67432">
        <ele>131</ele>
        <time>2018-04-01T08:49:10Z</time>
      </trkpt>
      <trkpt lat="49.25749" lon="4.67415">
        <ele>130</ele>
        <time>2018-04-01T08:50:10Z</time>
      </trkpt>
      <trkpt lat="49.25753" lon="4.67411">
        <ele>130</ele>
        <time>2018-04-01T08:51:10Z</time>
      </trkpt>
      <trkpt lat="49.25823" lon="4.67342">
        <ele>128</ele>
        <time>2018-04-01T08:52:10Z</time>
      </trkpt>
      <trkpt lat="49.25841" lon="4.67325">
        <ele>127</ele>
        <time>2018-04-01T08:53:10Z</time>
      </trkpt>
      <trkpt lat="49.25895" lon="4.67274">
        <ele>127</ele>
        <time>2018-04-01T08:54:10Z</time>
      </trkpt>
      <trkpt lat="49.25929" lon="4.67241">
        <ele>126</ele>
        <time>2018-04-01T08:55:10Z</time>
      </trkpt>
      <trkpt lat="49.25947" lon="4.67229">
        <ele>126</ele>
        <time>2018-04-01T08:56:10Z</time>
      </trkpt>
      <trkpt lat="49.25962" lon="4.6722">
        <ele>125</ele>
        <time>2018-04-01T08:57:10Z</time>
      </trkpt>
      <trkpt lat="49.25976" lon="4.67214">
        <ele>125</ele>
        <time>2018-04-01T08:58:10Z</time>
      </trkpt>
      <trkpt lat="49.25988" lon="4.67211">
        <ele>125</ele>
        <time>2018-04-01T08:59:10Z</time>
      </trkpt>
      <trkpt lat="49.25997" lon="4.67209">
        <ele>125</ele>
        <time>2018-04-01T09:00:10Z</time>
      </trkpt>
      <trkpt lat="49.2601" lon="4.67208">
        <ele>124</ele>
        <time>2018-04-01T09:01:10Z</time>
      </trkpt>
      <trkpt lat="49.26021" lon="4.67208">
        <ele>124</ele>
        <time>2018-04-01T09:02:10Z</time>
      </trkpt>
      <trkpt lat="49.26046" lon="4.6721">
        <ele>123</ele>
        <time>2018-04-01T09:03:10Z</time>
      </trkpt>
      <trkpt lat="49.26079" lon="4.67212">
        <ele>122</ele>
        <time>2018-04-01T09:04:10Z</time>
      </trkpt>
      <trkpt lat="49.2613" lon="4.67216">
        <ele>120</ele>
        <time>2018-04-01T09:05:10Z</time>
      </trkpt>
      <trkpt lat="49.26173" lon="4.67221">
        <ele>119</ele>
        <time>2018-04-01T09:06:10Z</time>
      </trkpt>
      <trkpt lat="49.26179" lon="4.67221">
        <ele>119</ele>
        <time>2018-04-01T09:07:10Z</time>
      </trkpt>
      <trkpt lat="49.26188" lon="4.67221">
        <ele>119</ele>
        <time>2018-04-01T09:08:10Z</time>
      </trkpt>
      <trkpt lat="49.26188" lon="4.67221">
        <ele>119</ele>
        <time>2018-04-01T09:09:10Z</time>
      </trkpt>
      <trkpt lat="49.26196" lon="4.67215">
        <ele>119</ele>
        <time>2018-04-01T09:10:10Z</time>
      </trkpt>
      <trkpt lat="49.26203" lon="4.67209">
        <ele>119</ele>
        <time>2018-04-01T09:11:10Z</time>
      </trkpt>
      <trkpt lat="49.26208" lon="4.67202">
        <ele>119</ele>
        <time>2018-04-01T09:12:10Z</time>
      </trkpt>
      <trkpt lat="49.26212" lon="4.67196">
        <ele>119</ele>
        <time>2018-04-01T09:13:10Z</time>
      </trkpt>
      <trkpt lat="49.26216" lon="4.67189">
        <ele>119</ele>
        <time>2018-04-01T09:14:10Z</time>
      </trkpt>
      <trkpt lat="49.26219" lon="4.67177">
        <ele>119</ele>
        <time>2018-04-01T09:15:10Z</time>
      </trkpt>
      <trkpt lat="49.26223" lon="4.67159">
        <ele>119</ele>
        <time>2018-04-01T09:16:10Z</time>
      </trkpt>
      <trkpt lat="49.26223" lon="4.67159">
        <ele>119</ele>
        <time>2018-04-01T09:17:10Z</time>
      </trkpt>
      <trkpt lat="49.26215" lon="4.67114">
        <ele>120</ele>
        <time>2018-04-01T09:18:10Z</time>
      </trkpt>
      <trkpt lat="49.26209" lon="4.67081">
        <ele>121</ele>
        <time>2018-04-01T09:19:10Z</time>
      </trkpt>
      <trkpt lat="49.26204" lon="4.67059">
        <ele>121</ele>
        <time>2018-04-01T09:20:10Z</time>
      </trkpt>
      <trkpt lat="49.26201" lon="4.67045">
        <ele>122</ele>
        <time>2018-04-01T09:21:10Z</time>
      </trkpt>
      <trkpt lat="49.26196" lon="4.6703">
        <ele>122</ele>
        <time>2018-04-01T09:22:10Z</time>
      </trkpt>
      <trkpt lat="49.2619" lon="4.67016">
        <ele>123</ele>
        <time>2018-04-01T09:23:10Z</time>
      </trkpt>
      <trkpt lat="49.26183" lon="4.67001">
        <ele>123</ele>
        <time>2018-04-01T09:24:10Z</time>
      </trkpt>
      <trkpt lat="49.26176" lon="4.66988">
        <ele>124</ele>
        <time>2018-04-01T09:25:10Z</time>
      </trkpt>
      <trkpt lat="49.26159" lon="4.66956">
        <ele>124</ele>
        <time>2018-04-01T09:26:10Z</time>
      </trkpt>
      <trkpt lat="49.26151" lon="4.66939">
        <ele>125</ele>
        <time>2018-04-01T09:27:10Z</time>
      </trkpt>
      <trkpt lat="49.26149" lon="4.66933">
        <ele>125</ele>
        <time>2018-04-01T09:28:10Z</time>
      </trkpt>
      <trkpt lat="49.26147" lon="4.66928">
        <ele>125</ele>
        <time>2018-04-01T09:29:10Z</time>
      </trkpt>
      <trkpt lat="49.26145" lon="4.66917">
        <ele>125</ele>
        <time>2018-04-01T09:30:10Z</time>
      </trkpt>
      <trkpt lat="49.26144" lon="4.66907">
        <ele>125</ele>
        <time>2018-04-01T09:31:10Z</time>
      </trkpt>
      <trkpt lat="49.26144" lon="4.66898">
        <ele>125</ele>
        <time>2018-04-01T09:32:10Z</time>
      </trkpt>
      <trkpt lat="49.26145" lon="4.66893">
        <ele>124</ele>
        <time>2018-04-01T09:33:10Z</time>
      </trkpt>
      <trkpt lat="49.26145" lon="4.66889">
        <ele>124</ele>
        <time>2018-04-01T09:34:10Z</time>
      </trkpt>
      <trkpt lat="49.26145" lon="4.66877">
        <ele>123</ele>
        <time>2018-04-01T09:35:10Z</time>
      </trkpt>
      <trkpt lat="49.26145" lon="4.66868">
        <ele>123</ele>
        <time>2018-04-01T09:36:10Z</time>
      </trkpt>
      <trkpt lat="49.26145" lon="4.66862">
        <ele>123</ele>
        <time>2018-04-01T09:37:10Z</time>
      </trkpt>
      <trkpt lat="49.26143" lon="4.66855">
        <ele>123</ele>
        <time>2018-04-01T09:38:10Z</time>
      </trkpt>
      <trkpt lat="49.26143" lon="4.66854">
        <ele>123</ele>
        <time>2018-04-01T09:39:10Z</time>
      </trkpt>
      <trkpt lat="49.26142" lon="4.66847">
        <ele>122</ele>
        <time>2018-04-01T09:40:10Z</time>
      </trkpt>
      <trkpt lat="49.26136" lon="4.66832">
        <ele>122</ele>
        <time>2018-04-01T09:41:10Z</time>
      </trkpt>
      <trkpt lat="49.26133" lon="4.66825">
        <ele>122</ele>
        <time>2018-04-01T09:42:10Z</time>
      </trkpt>
      <trkpt lat="49.26129" lon="4.66817">
        <ele>122</ele>
        <time>2018-04-01T09:43:10Z</time>
      </trkpt>
      <trkpt lat="49.26116" lon="4.66792">
        <ele>123</ele>
        <time>2018-04-01T09:44:10Z</time>
      </trkpt>
      <trkpt lat="49.26112" lon="4.66785">
        <ele>123</ele>
        <time>2018-04-01T09:45:10Z</time>
      </trkpt>
      <trkpt lat="49.26108" lon="4.66778">
        <ele>123</ele>
        <time>2018-04-01T09:46:10Z</time>
      </trkpt>
      <trkpt lat="49.26105" lon="4.6677">
        <ele>122</ele>
        <time>2018-04-01T09:47:10Z</time>
      </trkpt>
      <trkpt lat="49.261" lon="4.6676">
        <ele>122</ele>
        <time>2018-04-01T09:48:10Z</time>
      </trkpt>
      <trkpt lat="49.26098" lon="4.66755">
        <ele>122</ele>
        <time>2018-04-01T09:49:10Z</time>
      </trkpt>
      <trkpt lat="49.26096" lon="4.6675">
        <ele>122</ele>
        <time>2018-04-01T09:50:10Z</time>
      </trkpt>
      <trkpt lat="49.26095" lon="4.66742">
        <ele>122</ele>
        <time>2018-04-01T09:51:10Z</time>
      </trkpt>
      <trkpt lat="49.26094" lon="4.66734">
        <ele>122</ele>
        <time>2018-04-01T09:52:10Z</time>
      </trkpt>
      <trkpt lat="49.26093" lon="4.6672">
        <ele>121</ele>
        <time>2018-04-01T09:53:10Z</time>
      </trkpt>
      <trkpt lat="49.26093" lon="4.66707">
        <ele>121</ele>
        <time>2018-04-01T09:54:10Z</time>
      </trkpt>
      <trkpt lat="49.26094" lon="4.66692">
        <ele>121</ele>
        <time>2018-04-01T09:55:10Z</time>
      </trkpt>
      <trkpt lat="49.26097" lon="4.66681">
        <ele>120</ele>
        <time>2018-04-01T09:56:10Z</time>
      </trkpt>
      <trkpt lat="49.261" lon="4.66669">
        <ele>120</ele>
        <time>2018-04-01T09:57:10Z</time>
      </trkpt>
      <trkpt lat="49.26102" lon="4.66664">
        <ele>120</ele>
        <time>2018-04-01T09:58:10Z</time>
      </trkpt>
      <trkpt lat="49.26104" lon="4.6666">
        <ele>119</ele>
        <time>2018-04-01T09:59:10Z</time>
      </trkpt>
      <trkpt lat="49.26119" lon="4.66639">
        <ele>119</ele>
        <time>2018-04-01T10:00:10Z</time>
      </trkpt>
      <trkpt lat="49.2614" lon="4.66611">
        <ele>119</ele>
        <time>2018-04-01T10:01:10Z</time>
      </trkpt>
      <trkpt lat="49.26143" lon="4.66607">
        <ele>119</ele>
        <time>2018-04-01T10:02:10Z</time>
      </trkpt>
      <trkpt lat="49.26146" lon="4.66602">
        <ele>119</ele>
        <time>2018-04-01T10:03:10Z</time>
      </trkpt>
      <trkpt lat="49.26152" lon="4.66594">
        <ele>120</ele>
        <time>2018-04-01T10:04:10Z</time>
      </trkpt>
      <trkpt lat="49.26159" lon="4.66588">
        <ele>120</ele>
        <time>2018-04-01T10:05:10Z</time>
      </trkpt>
      <trkpt lat="49.26164" lon="4.66584">
        <ele>120</ele>
        <time>2018-04-01T10:06:10Z</time>
      </trkpt>
      <trkpt lat="49.26169" lon="4.66581">
        <ele>120</ele>
        <time>2018-04-01T10:07:10Z</time>
      </trkpt>
      <trkpt lat="49.26178" lon="4.66576">
        <ele>121</ele>
        <time>2018-04-01T10:08:10Z</time>
      </trkpt>
      <trkpt lat="49.26202" lon="4.66569">
        <ele>121</ele>
        <time>2018-04-01T10:09:10Z</time>
      </trkpt>
      <trkpt lat="49.26205" lon="4.66568">
        <ele>121</ele>
        <time>2018-04-01T10:10:10Z</time>
      </trkpt>
      <trkpt lat="49.2621" lon="4.66564">
        <ele>121</ele>
        <time>2018-04-01T10:11:10Z</time>
      </trkpt>
      <trkpt lat="49.26216" lon="4.66557">
        <ele>122</ele>
        <time>2018-04-01T10:12:10Z</time>
      </trkpt>
      <trkpt lat="49.26219" lon="4.66549">
        <ele>122</ele>
        <time>2018-04-01T10:13:10Z</time>
      </trkpt>
      <trkpt lat="49.26219" lon="4.66539">
        <ele>122</ele>
        <time>2018-04-01T10:14:10Z</time>
      </trkpt>
      <trkpt lat="49.26219" lon="4.6653">
        <ele>122</ele>
        <time>2018-04-01T10:15:10Z</time>
      </trkpt>
      <trkpt lat="49.26218" lon="4.66523">
        <ele>122</ele>
        <time>2018-04-01T10:16:10Z</time>
      </trkpt>
      <trkpt lat="49.26176" lon="4.66452">
        <ele>125</ele>
        <time>2018-04-01T10:17:10Z</time>
      </trkpt>
      <trkpt lat="49.26158" lon="4.66421">
        <ele>127</ele>
        <time>2018-04-01T10:18:10Z</time>
      </trkpt>
      <trkpt lat="49.26147" lon="4.66401">
        <ele>127</ele>
        <time>2018-04-01T10:19:10Z</time>
      </trkpt>
      <trkpt lat="49.2614" lon="4.66389">
        <ele>127</ele>
        <time>2018-04-01T10:20:10Z</time>
      </trkpt>
      <trkpt lat="49.26138" lon="4.66384">
        <ele>128</ele>
        <time>2018-04-01T10:21:10Z</time>
      </trkpt>
      <trkpt lat="49.26127" lon="4.66366">
        <ele>128</ele>
        <time>2018-04-01T10:22:10Z</time>
      </trkpt>
      <trkpt lat="49.26126" lon="4.66363">
        <ele>128</ele>
        <time>2018-04-01T10:23:10Z</time>
      </trkpt>
      <trkpt lat="49.26124" lon="4.66359">
        <ele>128</ele>
        <time>2018-04-01T10:24:10Z</time>
      </trkpt>
      <trkpt lat="49.26123" lon="4.66355">
        <ele>129</ele>
        <time>2018-04-01T10:25:10Z</time>
      </trkpt>
      <trkpt lat="49.26123" lon="4.66351">
        <ele>129</ele>
        <time>2018-04-01T10:26:10Z</time>
      </trkpt>
      <trkpt lat="49.26123" lon="4.6634">
        <ele>129</ele>
        <time>2018-04-01T10:27:10Z</time>
      </trkpt>
      <trkpt lat="49.26123" lon="4.66334">
        <ele>129</ele>
        <time>2018-04-01T10:28:10Z</time>
      </trkpt>
      <trkpt lat="49.26125" lon="4.66326">
        <ele>130</ele>
        <time>2018-04-01T10:29:10Z</time>
      </trkpt>
      <trkpt lat="49.26127" lon="4.6632">
        <ele>130</ele>
        <time>2018-04-01T10:30:10Z</time>
      </trkpt>
      <trkpt lat="49.2613" lon="4.66315">
        <ele>131</ele>
        <time>2018-04-01T10:31:10Z</time>
      </trkpt>
      <trkpt lat="49.26138" lon="4.66305">
        <ele>131</ele>
        <time>2018-04-01T10:32:10Z</time>
      </trkpt>
      <trkpt lat="49.26156" lon="4.66283">
        <ele>133</ele>
        <time>2018-04-01T10:33:10Z</time>
      </trkpt>
      <trkpt lat="49.26185" lon="4.66244">
        <ele>134</ele>
        <time>2018-04-01T10:34:10Z</time>
      </trkpt>
      <trkpt lat="49.26194" lon="4.66231">
        <ele>133</ele>
        <time>2018-04-01T10:35:10Z</time>
      </trkpt>
      <trkpt lat="49.26201" lon="4.66216">
        <ele>133</ele>
        <time>2018-04-01T10:36:10Z</time>
      </trkpt>
      <trkpt lat="49.26224" lon="4.66164">
        <ele>133</ele>
        <time>2018-04-01T10:37:10Z</time>
      </trkpt>
      <trkpt lat="49.26239" lon="4.66132">
        <ele>133</ele>
        <time>2018-04-01T10:38:10Z</time>
      </trkpt>
      <trkpt lat="49.26254" lon="4.661">
        <ele>133</ele>
        <time>2018-04-01T10:39:10Z</time>
      </trkpt>
      <trkpt lat="49.26265" lon="4.66086">
        <ele>132</ele>
        <time>2018-04-01T10:40:10Z</time>
      </trkpt>
      <trkpt lat="49.26274" lon="4.66074">
        <ele>132</ele>
        <time>2018-04-01T10:41:10Z</time>
      </trkpt>
      <trkpt lat="49.26314" lon="4.66024">
        <ele>129</ele>
        <time>2018-04-01T10:42:10Z</time>
      </trkpt>
      <trkpt lat="49.26316" lon="4.66021">
        <ele>129</ele>
        <time>2018-04-01T10:43:10Z</time>
      </trkpt>
      <trkpt lat="49.2634" lon="4.65992">
        <ele>128</ele>
        <time>2018-04-01T10:44:10Z</time>
      </trkpt>
      <trkpt lat="49.26356" lon="4.65973">
        <ele>127</ele>
        <time>2018-04-01T10:45:10Z</time>
      </trkpt>
      <trkpt lat="49.26403" lon="4.65922">
        <ele>123</ele>
        <time>2018-04-01T10:46:10Z</time>
      </trkpt>
      <trkpt lat="49.2641" lon="4.65917">
        <ele>123</ele>
        <time>2018-04-01T10:47:10Z</time>
      </trkpt>
      <trkpt lat="49.26419" lon="4.6591">
        <ele>122</ele>
        <time>2018-04-01T10:48:10Z</time>
      </trkpt>
      <trkpt lat="49.2643" lon="4.65903">
        <ele>122</ele>
        <time>2018-04-01T10:49:10Z</time>
      </trkpt>
      <trkpt lat="49.26435" lon="4.659">
        <ele>122</ele>
        <time>2018-04-01T10:50:10Z</time>
      </trkpt>
      <trkpt lat="49.26441" lon="4.65896">
        <ele>122</ele>
        <time>2018-04-01T10:51:10Z</time>
      </trkpt>
      <trkpt lat="49.26494" lon="4.65856">
        <ele>122</ele>
        <time>2018-04-01T10:52:10Z</time>
      </trkpt>
      <trkpt lat="49.26553" lon="4.65814">
        <ele>122</ele>
        <time>2018-04-01T10:53:10Z</time>
      </trkpt>
      <trkpt lat="49.26568" lon="4.65799">
        <ele>122</ele>
        <time>2018-04-01T10:54:10Z</time>
      </trkpt>
      <trkpt lat="49.26576" lon="4.65791">
        <ele>122</ele>
        <time>2018-04-01T10:55:10Z</time>
      </trkpt>
      <trkpt lat="49.26584" lon="4.6578">
        <ele>122</ele>
        <time>2018-04-01T10:56:10Z</time>
      </trkpt>
      <trkpt lat="49.26588" lon="4.65775">
        <ele>122</ele>
        <time>2018-04-01T10:57:10Z</time>
      </trkpt>
      <trkpt lat="49.26591" lon="4.65769">
        <ele>122</ele>
        <time>2018-04-01T10:58:10Z</time>
      </trkpt>
      <trkpt lat="49.26594" lon="4.65761">
        <ele>122</ele>
        <time>2018-04-01T10:59:10Z</time>
      </trkpt>
      <trkpt lat="49.26598" lon="4.65748">
        <ele>123</ele>
        <time>2018-04-01T11:00:10Z</time>
      </trkpt>
      <trkpt lat="49.26603" lon="4.65726">
        <ele>123</ele>
        <time>2018-04-01T11:01:10Z</time>
      </trkpt>
      <trkpt lat="49.26604" lon="4.65712">
        <ele>123</ele>
        <time>2018-04-01T11:02:10Z</time>
      </trkpt>
      <trkpt lat="49.26605" lon="4.65697">
        <ele>123</ele>
        <time>2018-04-01T11:03:10Z</time>
      </trkpt>
      <trkpt lat="49.26605" lon="4.65654">
        <ele>124</ele>
        <time>2018-04-01T11:04:10Z</time>
      </trkpt>
      <trkpt lat="49.26603" lon="4.65627">
        <ele>123</ele>
        <time>2018-04-01T11:05:10Z</time>
      </trkpt>
      <trkpt lat="49.26602" lon="4.65588">
        <ele>122</ele>
        <time>2018-04-01T11:06:10Z</time>
      </trkpt>
      <trkpt lat="49.26603" lon="4.65562">
        <ele>122</ele>
        <time>2018-04-01T11:07:10Z</time>
      </trkpt>
      <trkpt lat="49.26605" lon="4.65531">
        <ele>123</ele>
        <time>2018-04-01T11:08:10Z</time>
      </trkpt>
      <trkpt lat="49.26607" lon="4.65511">
        <ele>123</ele>
        <time>2018-04-01T11:09:10Z</time>
      </trkpt>
      <trkpt lat="49.26612" lon="4.65483">
        <ele>123</ele>
        <time>2018-04-01T11:10:10Z</time>
      </trkpt>
      <trkpt lat="49.26615" lon="4.65464">
        <ele>123</ele>
        <time>2018-04-01T11:11:10Z</time>
      </trkpt>
      <trkpt lat="49.26617" lon="4.65457">
        <ele>123</ele>
        <time>2018-04-01T11:12:10Z</time>
      </trkpt>
      <trkpt lat="49.2662" lon="4.65445">
        <ele>123</ele>
        <time>2018-04-01T11:13:10Z</time>
      </trkpt>
      <trkpt lat="49.26633" lon="4.65387">
        <ele>123</ele>
        <time>2018-04-01T11:14:10Z</time>
      </trkpt>
      <trkpt lat="49.26641" lon="4.65356">
        <ele>123</ele>
        <time>2018-04-01T11:15:10Z</time>
      </trkpt>
      <trkpt lat="49.26647" lon="4.65331">
        <ele>123</ele>
        <time>2018-04-01T11:16:10Z</time>
      </trkpt>
      <trkpt lat="49.26657" lon="4.65287">
        <ele>124</ele>
        <time>2018-04-01T11:17:10Z</time>
      </trkpt>
      <trkpt lat="49.26658" lon="4.65282">
        <ele>124</ele>
        <time>2018-04-01T11:18:10Z</time>
      </trkpt>
      <trkpt lat="49.26664" lon="4.65245">
        <ele>124</ele>
        <time>2018-04-01T11:19:10Z</time>
      </trkpt>
      <trkpt lat="49.26666" lon="4.6523">
        <ele>124</ele>
        <time>2018-04-01T11:20:10Z</time>
      </trkpt>
      <trkpt lat="49.26668" lon="4.6521">
        <ele>124</ele>
        <time>2018-04-01T11:21:10Z</time>
      </trkpt>
      <trkpt lat="49.2667" lon="4.65166">
        <ele>125</ele>
        <time>2018-04-01T11:22:10Z</time>
      </trkpt>
      <trkpt lat="49.26672" lon="4.65133">
        <ele>124</ele>
        <time>2018-04-01T11:23:10Z</time>
      </trkpt>
      <trkpt lat="49.26672" lon="4.65103">
        <ele>123</ele>
        <time>2018-04-01T11:24:10Z</time>
      </trkpt>
      <trkpt lat="49.26672" lon="4.65023">
        <ele>121</ele>
        <time>2018-04-01T11:25:10Z</time>
      </trkpt>
      <trkpt lat="49.26673" lon="4.64899">
        <ele>121</ele>
        <time>2018-04-01T11:26:10Z</time>
      </trkpt>
      <trkpt lat="49.26673" lon="4.64863">
        <ele>122</ele>
        <time>2018-04-01T11:27:10Z</time>
      </trkpt>
      <trkpt lat="49.26673" lon="4.64775">
        <ele>123</ele>
        <time>2018-04-01T11:28:10Z</time>
      </trkpt>
      <trkpt lat="49.26674" lon="4.64754">
        <ele>124</ele>
        <time>2018-04-01T11:29:10Z</time>
      </trkpt>
      <trkpt lat="49.26675" lon="4.64728">
        <ele>125</ele>
        <time>2018-04-01T11:30:10Z</time>
      </trkpt>
      <trkpt lat="49.26678" lon="4.64691">
        <ele>126</ele>
        <time>2018-04-01T11:31:10Z</time>
      </trkpt>
      <trkpt lat="49.2668" lon="4.64671">
        <ele>127</ele>
        <time>2018-04-01T11:32:10Z</time>
      </trkpt>
      <trkpt lat="49.26683" lon="4.64654">
        <ele>128</ele>
        <time>2018-04-01T11:33:10Z</time>
      </trkpt>
      <trkpt lat="49.26687" lon="4.64638">
        <ele>128</ele>
        <time>2018-04-01T11:34:10Z</time>
      </trkpt>
      <trkpt lat="49.26705" lon="4.64566">
        <ele>130</ele>
        <time>2018-04-01T11:35:10Z</time>
      </trkpt>
      <trkpt lat="49.26716" lon="4.64525">
        <ele>130</ele>
        <time>2018-04-01T11:36:10Z</time>
      </trkpt>
      <trkpt lat="49.26733" lon="4.6446">
        <ele>130</ele>
        <time>2018-04-01T11:37:10Z</time>
      </trkpt>
      <trkpt lat="49.26738" lon="4.64443">
        <ele>129</ele>
        <time>2018-04-01T11:38:10Z</time>
      </trkpt>
      <trkpt lat="49.2675" lon="4.64397">
        <ele>129</ele>
        <time>2018-04-01T11:39:10Z</time>
      </trkpt>
      <trkpt lat="49.26757" lon="4.64368">
        <ele>129</ele>
        <time>2018-04-01T11:40:10Z</time>
      </trkpt>
      <trkpt lat="49.26765" lon="4.64338">
        <ele>130</ele>
        <time>2018-04-01T11:41:10Z</time>
      </trkpt>
      <trkpt lat="49.26769" lon="4.64323">
        <ele>130</ele>
        <time>2018-04-01T11:42:10Z</time>
      </trkpt>
      <trkpt lat="49.26772" lon="4.64311">
        <ele>130</ele>
        <time>2018-04-01T11:43:10Z</time>
      </trkpt>
      <trkpt lat="49.26776" lon="4.64292">
        <ele>130</ele>
        <time>2018-04-01T11:44:10Z</time>
      </trkpt>
      <trkpt lat="49.26783" lon="4.64271">
        <ele>130</ele>
        <time>2018-04-01T11:45:10Z</time>
      </trkpt>
      <trkpt lat="49.26787" lon="4.64258">
        <ele>130</ele>
        <time>2018-04-01T11:46:10Z</time>
      </trkpt>
      <trkpt lat="49.26794" lon="4.6424">
        <ele>130</ele>
        <time>2018-04-01T11:47:10Z</time>
      </trkpt>
      <trkpt lat="49.268" lon="4.64229">
        <ele>130</ele>
        <time>2018-04-01T11:48:10Z</time>
      </trkpt>
      <trkpt lat="49.26805" lon="4.64217">
        <ele>130</ele>
        <time>2018-04-01T11:49:10Z</time>
      </trkpt>
      <trkpt lat="49.26814" lon="4.64201">
        <ele>130</ele>
        <time>2018-04-01T11:50:10Z</time>
      </trkpt>
      <trkpt lat="49.26826" lon="4.6418">
        <ele>130</ele>
        <time>2018-04-01T11:51:10Z</time>
      </trkpt>
      <trkpt lat="49.26849" lon="4.64144">
        <ele>129</ele>
        <time>2018-04-01T11:52:10Z</time>
      </trkpt>
      <trkpt lat="49.26903" lon="4.64061">
        <ele>126</ele>
        <time>2018-04-01T11:53:10Z</time>
      </trkpt>
      <trkpt lat="49.26971" lon="4.63957">
        <ele>127</ele>
        <time>2018-04-01T11:54:10Z</time>
      </trkpt>
      <trkpt lat="49.26989" lon="4.63929">
        <ele>128</ele>
        <time>2018-04-01T11:55:10Z</time>
      </trkpt>
      <trkpt lat="49.26992" lon="4.63924">
        <ele>128</ele>
        <time>2018-04-01T11:56:10Z</time>
      </trkpt>
      <trkpt lat="49.27007" lon="4.63902">
        <ele>128</ele>
        <time>2018-04-01T11:57:10Z</time>
      </trkpt>
      <trkpt lat="49.27015" lon="4.63887">
        <ele>129</ele>
        <time>2018-04-01T11:58:10Z</time>
      </trkpt>
      <trkpt lat="49.27018" lon="4.6388">
        <ele>129</ele>
        <time>2018-04-01T11:59:10Z</time>
      </trkpt>
      <trkpt lat="49.27021" lon="4.63875">
        <ele>129</ele>
        <time>2018-04-01T12:00:10Z</time>
      </trkpt>
      <trkpt lat="49.27028" lon="4.6386">
        <ele>129</ele>
        <time>2018-04-01T12:01:10Z</time>
      </trkpt>
      <trkpt lat="49.27033" lon="4.63843">
        <ele>129</ele>
        <time>2018-04-01T12:02:10Z</time>
      </trkpt>
      <trkpt lat="49.27037" lon="4.63833">
        <ele>129</ele>
        <time>2018-04-01T12:03:10Z</time>
      </trkpt>
      <trkpt lat="49.27039" lon="4.63824">
        <ele>129</ele>
        <time>2018-04-01T12:04:10Z</time>
      </trkpt>
      <trkpt lat="49.27046" lon="4.63802">
        <ele>128</ele>
        <time>2018-04-01T12:05:10Z</time>
      </trkpt>
      <trkpt lat="49.27053" lon="4.63778">
        <ele>128</ele>
        <time>2018-04-01T12:06:10Z</time>
      </trkpt>
      <trkpt lat="49.27057" lon="4.63765">
        <ele>127</ele>
        <time>2018-04-01T12:07:10Z</time>
      </trkpt>
      <trkpt lat="49.27061" lon="4.63755">
        <ele>127</ele>
        <time>2018-04-01T12:08:10Z</time>
      </trkpt>
      <trkpt lat="49.27068" lon="4.63733">
        <ele>126</ele>
        <time>2018-04-01T12:09:10Z</time>
      </trkpt>
      <trkpt lat="49.2707" lon="4.63723">
        <ele>126</ele>
        <time>2018-04-01T12:10:10Z</time>
      </trkpt>
      <trkpt lat="49.27074" lon="4.63708">
        <ele>126</ele>
        <time>2018-04-01T12:11:10Z</time>
      </trkpt>
      <trkpt lat="49.27068" lon="4.637">
        <ele>127</ele>
        <time>2018-04-01T12:12:10Z</time>
      </trkpt>
      <trkpt lat="49.27055" lon="4.63684">
        <ele>127</ele>
        <time>2018-04-01T12:13:10Z</time>
      </trkpt>
      <trkpt lat="49.2704" lon="4.63664">
        <ele>128</ele>
        <time>2018-04-01T12:14:10Z</time>
      </trkpt>
      <trkpt lat="49.27027" lon="4.63648">
        <ele>128</ele>
        <time>2018-04-01T12:15:10Z</time>
      </trkpt>
      <trkpt lat="49.27019" lon="4.63637">
        <ele>129</ele>
        <time>2018-04-01T12:16:10Z</time>
      </trkpt>
      <trkpt lat="49.27009" lon="4.63626">
        <ele>129</ele>
        <time>2018-04-01T12:17:10Z</time>
      </trkpt>
      <trkpt lat="49.27006" lon="4.63622">
        <ele>129</ele>
        <time>2018-04-01T12:18:10Z</time>
      </trkpt>
      <trkpt lat="49.27004" lon="4.6362">
        <ele>129</ele>
        <time>2018-04-01T12:19:10Z</time>
      </trkpt>
      <trkpt lat="49.26999" lon="4.63614">
        <ele>129</ele>
        <time>2018-04-01T12:20:10Z</time>
      </trkpt>
      <trkpt lat="49.26993" lon="4.63607">
        <ele>129</ele>
        <time>2018-04-01T12:21:10Z</time>
      </trkpt>
      <trkpt lat="49.26986" lon="4.63598">
        <ele>130</ele>
        <time>2018-04-01T12:22:10Z</time>
      </trkpt>
      <trkpt lat="49.26982" lon="4.63593">
        <ele>130</ele>
        <time>2018-04-01T12:23:10Z</time>
      </trkpt>
      <trkpt lat="49.26977" lon="4.63586">
        <ele>130</ele>
        <time>2018-04-01T12:24:10Z</time>
      </trkpt>
      <trkpt lat="49.2697" lon="4.63577">
        <ele>130</ele>
        <time>2018-04-01T12:25:10Z</time>
      </trkpt>
      <trkpt lat="49.26964" lon="4.63569">
        <ele>131</ele>
        <time>2018-04-01T12:26:10Z</time>
      </trkpt>
      <trkpt lat="49.26952" lon="4.63551">
        <ele>132</ele>
        <time>2018-04-01T12:27:10Z</time>
      </trkpt>
      <trkpt lat="49.26947" lon="4.63542">
        <ele>133</ele>
        <time>2018-04-01T12:28:10Z</time>
      </trkpt>
      <trkpt lat="49.26944" lon="4.63538">
        <ele>133</ele>
        <time>2018-04-01T12:29:10Z</time>
      </trkpt>
      <trkpt lat="49.26943" lon="4.63535">
        <ele>133</ele>
        <time>2018-04-01T12:30:10Z</time>
      </trkpt>
      <trkpt lat="49.2694" lon="4.63531">
        <ele>133</ele>
        <time>2018-04-01T12:31:10Z</time>
      </trkpt>
      <trkpt lat="49.26929" lon="4.6351">
        <ele>134</ele>
        <time>2018-04-01T12:32:10Z</time>
      </trkpt>
      <trkpt lat="49.26915" lon="4.63484">
        <ele>135</ele>
        <time>2018-04-01T12:33:10Z</time>
      </trkpt>
      <trkpt lat="49.26898" lon="4.63447">
        <ele>136</ele>
        <time>2018-04-01T12:34:10Z</time>
      </trkpt>
      <trkpt lat="49.26892" lon="4.63432">
        <ele>137</ele>
        <time>2018-04-01T12:35:10Z</time>
      </trkpt>
      <trkpt lat="49.26887" lon="4.63419">
        <ele>137</ele>
        <time>2018-04-01T12:36:10Z</time>
      </trkpt>
      <trkpt lat="49.26881" lon="4.63402">
        <ele>138</ele>
        <time>2018-04-01T12:37:10Z</time>
      </trkpt>
      <trkpt lat="49.26871" lon="4.63374">
        <ele>139</ele>
        <time>2018-04-01T12:38:10Z</time>
      </trkpt>
      <trkpt lat="49.26862" lon="4.63345">
        <ele>141</ele>
        <time>2018-04-01T12:39:10Z</time>
      </trkpt>
      <trkpt lat="49.26857" lon="4.63327">
        <ele>141</ele>
        <time>2018-04-01T12:40:10Z</time>
      </trkpt>
      <trkpt lat="49.26851" lon="4.63304">
        <ele>142</ele>
        <time>2018-04-01T12:41:10Z</time>
      </trkpt>
      <trkpt lat="49.26847" lon="4.63287">
        <ele>142</ele>
        <time>2018-04-01T12:42:10Z</time>
      </trkpt>
      <trkpt lat="49.26846" lon="4.6328">
        <ele>143</ele>
        <time>2018-04-01T12:43:10Z</time>
      </trkpt>
      <trkpt lat="49.26823" lon="4.63179">
        <ele>146</ele>
        <time>2018-04-01T12:44:10Z</time>
      </trkpt>
      <trkpt lat="49.26816" lon="4.6315">
        <ele>147</ele>
        <time>2018-04-01T12:45:10Z</time>
      </trkpt>
      <trkpt lat="49.26812" lon="4.63133">
        <ele>147</ele>
        <time>2018-04-01T12:46:10Z</time>
      </trkpt>
      <trkpt lat="49.26796" lon="4.6306">
        <ele>150</ele>
        <time>2018-04-01T12:47:10Z</time>
      </trkpt>
      <trkpt lat="49.26791" lon="4.63036">
        <ele>150</ele>
        <time>2018-04-01T12:48:10Z</time>
      </trkpt>
      <trkpt lat="49.26787" lon="4.6301">
        <ele>151</ele>
        <time>2018-04-01T12:49:10Z</time>
      </trkpt>
      <trkpt lat="49.26785" lon="4.62998">
        <ele>152</ele>
        <time>2018-04-01T12:50:10Z</time>
      </trkpt>
      <trkpt lat="49.26783" lon="4.62984">
        <ele>152</ele>
        <time>2018-04-01T12:51:10Z</time>
      </trkpt>
      <trkpt lat="49.2678" lon="4.62958">
        <ele>152</ele>
        <time>2018-04-01T12:52:10Z</time>
      </trkpt>
      <trkpt lat="49.26771" lon="4.62875">
        <ele>153</ele>
        <time>2018-04-01T12:53:10Z</time>
      </trkpt>
      <trkpt lat="49.26768" lon="4.62858">
        <ele>154</ele>
        <time>2018-04-01T12:54:10Z</time>
      </trkpt>
      <trkpt lat="49.26767" lon="4.6285">
        <ele>154</ele>
        <time>2018-04-01T12:55:10Z</time>
      </trkpt>
      <trkpt lat="49.26758" lon="4.62768">
        <ele>157</ele>
        <time>2018-04-01T12:56:10Z</time>
      </trkpt>
      <trkpt lat="49.26756" lon="4.62754">
        <ele>158</ele>
        <time>2018-04-01T12:57:10Z</time>
      </trkpt>
      <trkpt lat="49.26755" lon="4.62738">
        <ele>158</ele>
        <time>2018-04-01T12:58:10Z</time>
      </trkpt>
      <trkpt lat="49.26746" lon="4.62664">
        <ele>160</ele>
        <time>2018-04-01T12:59:10Z</time>
      </trkpt>
      <trkpt lat="49.26738" lon="4.62592">
        <ele>162</ele>
        <time>2018-04-01T13:00:10Z</time>
      </trkpt>
      <trkpt lat="49.26736" lon="4.62577">
        <ele>162</ele>
        <time>2018-04-01T13:01:10Z</time>
      </trkpt>
      <trkpt lat="49.26735" lon="4.62565">
        <ele>163</ele>
        <time>2018-04-01T13:02:10Z</time>
      </trkpt>
      <trkpt lat="49.26733" lon="4.62547">
        <ele>163</ele>
        <time>2018-04-01T13:03:10Z</time>
      </trkpt>
      <trkpt lat="49.2673" lon="4.62533">
        <ele>163</ele>
        <time>2018-04-01T13:04:10Z</time>
      </trkpt>
      <trkpt lat="49.26728" lon="4.62519">
        <ele>164</ele>
        <time>2018-04-01T13:05:10Z</time>
      </trkpt>
      <trkpt lat="49.26725" lon="4.62506">
        <ele>164</ele>
        <time>2018-04-01T13:06:10Z</time>
      </trkpt>
      <trkpt lat="49.26722" lon="4.62494">
        <ele>165</ele>
        <time>2018-04-01T13:07:10Z</time>
      </trkpt>
      <trkpt lat="49.26719" lon="4.62483">
        <ele>165</ele>
        <time>2018-04-01T13:08:10Z</time>
      </trkpt>
      <trkpt lat="49.26717" lon="4.62477">
        <ele>165</ele>
        <time>2018-04-01T13:09:10Z</time>
      </trkpt>
      <trkpt lat="49.26715" lon="4.6247">
        <ele>166</ele>
        <time>2018-04-01T13:10:10Z</time>
      </trkpt>
      <trkpt lat="49.26712" lon="4.62462">
        <ele>166</ele>
        <time>2018-04-01T13:11:10Z</time>
      </trkpt>
      <trkpt lat="49.26707" lon="4.6245">
        <ele>167</ele>
        <time>2018-04-01T13:12:10Z</time>
      </trkpt>
      <trkpt lat="49.26702" lon="4.62439">
        <ele>167</ele>
        <time>2018-04-01T13:13:10Z</time>
      </trkpt>
      <trkpt lat="49.26697" lon="4.62427">
        <ele>168</ele>
        <time>2018-04-01T13:14:10Z</time>
      </trkpt>
      <trkpt lat="49.26688" lon="4.62409">
        <ele>169</ele>
        <time>2018-04-01T13:15:10Z</time>
      </trkpt>
      <trkpt lat="49.26651" lon="4.62333">
        <ele>171</ele>
        <time>2018-04-01T13:16:10Z</time>
      </trkpt>
      <trkpt lat="49.26619" lon="4.62267">
        <ele>172</ele>
        <time>2018-04-01T13:17:10Z</time>
      </trkpt>
      <trkpt lat="49.26613" lon="4.62256">
        <ele>172</ele>
        <time>2018-04-01T13:18:10Z</time>
      </trkpt>
      <trkpt lat="49.26607" lon="4.62246">
        <ele>172</ele>
        <time>2018-04-01T13:19:10Z</time>
      </trkpt>
      <trkpt lat="49.26587" lon="4.62204">
        <ele>172</ele>
        <time>2018-04-01T13:20:10Z</time>
      </trkpt>
      <trkpt lat="49.26555" lon="4.62137">
        <ele>173</ele>
        <time>2018-04-01T13:21:10Z</time>
      </trkpt>
      <trkpt lat="49.26518" lon="4.62063">
        <ele>173</ele>
        <time>2018-04-01T13:22:10Z</time>
      </trkpt>
      <trkpt lat="49.26505" lon="4.62036">
        <ele>174</ele>
        <time>2018-04-01T13:23:10Z</time>
      </trkpt>
      <trkpt lat="49.26494" lon="4.62012">
        <ele>174</ele>
        <time>2018-04-01T13:24:10Z</time>
      </trkpt>
      <trkpt lat="49.2649" lon="4.62003">
        <ele>174</ele>
        <time>2018-04-01T13:25:10Z</time>
      </trkpt>
      <trkpt lat="49.26437" lon="4.61898">
        <ele>176</ele>
        <time>2018-04-01T13:26:10Z</time>
      </trkpt>
      <trkpt lat="49.26372" lon="4.61766">
        <ele>176</ele>
        <time>2018-04-01T13:27:10Z</time>
      </trkpt>
      <trkpt lat="49.26233" lon="4.61482">
        <ele>175</ele>
        <time>2018-04-01T13:28:10Z</time>
      </trkpt>
      <trkpt lat="49.26137" lon="4.61289">
        <ele>175</ele>
        <time>2018-04-01T13:29:10Z</time>
      </trkpt>
      <trkpt lat="49.26108" lon="4.61231">
        <ele>174</ele>
        <time>2018-04-01T13:30:10Z</time>
      </trkpt>
      <trkpt lat="49.26097" lon="4.61207">
        <ele>174</ele>
        <time>2018-04-01T13:31:10Z</time>
      </trkpt>
      <trkpt lat="49.26064" lon="4.61138">
        <ele>174</ele>
        <time>2018-04-01T13:32:10Z</time>
      </trkpt>
      <trkpt lat="49.26054" lon="4.61116">
        <ele>174</ele>
        <time>2018-04-01T13:33:10Z</time>
      </trkpt>
      <trkpt lat="49.26047" lon="4.61103">
        <ele>175</ele>
        <time>2018-04-01T13:34:10Z</time>
      </trkpt>
      <trkpt lat="49.26043" lon="4.61094">
        <ele>175</ele>
        <time>2018-04-01T13:35:10Z</time>
      </trkpt>
      <trkpt lat="49.26043" lon="4.61094">
        <ele>175</ele>
        <time>2018-04-01T13:36:10Z</time>
      </trkpt>
      <trkpt lat="49.26023" lon="4.61056">
        <ele>174</ele>
        <time>2018-04-01T13:37:10Z</time>
      </trkpt>
      <trkpt lat="49.26019" lon="4.61048">
        <ele>174</ele>
        <time>2018-04-01T13:38:10Z</time>
      </trkpt>
      <trkpt lat="49.2601" lon="4.6103">
        <ele>173</ele>
        <time>2018-04-01T13:39:10Z</time>
      </trkpt>
      <trkpt lat="49.26007" lon="4.61024">
        <ele>173</ele>
        <time>2018-04-01T13:40:10Z</time>
      </trkpt>
      <trkpt lat="49.25996" lon="4.61006">
        <ele>172</ele>
        <time>2018-04-01T13:41:10Z</time>
      </trkpt>
      <trkpt lat="49.2598" lon="4.60979">
        <ele>172</ele>
        <time>2018-04-01T13:42:10Z</time>
      </trkpt>
      <trkpt lat="49.25972" lon="4.60965">
        <ele>173</ele>
        <time>2018-04-01T13:43:10Z</time>
      </trkpt>
      <trkpt lat="49.25968" lon="4.6096">
        <ele>173</ele>
        <time>2018-04-01T13:44:10Z</time>
      </trkpt>
      <trkpt lat="49.25961" lon="4.60949">
        <ele>173</ele>
        <time>2018-04-01T13:45:10Z</time>
      </trkpt>
      <trkpt lat="49.25949" lon="4.60933">
        <ele>173</ele>
        <time>2018-04-01T13:46:10Z</time>
      </trkpt>
      <trkpt lat="49.25942" lon="4.60924">
        <ele>173</ele>
        <time>2018-04-01T13:47:10Z</time>
      </trkpt>
      <trkpt lat="49.25934" lon="4.60914">
        <ele>173</ele>
        <time>2018-04-01T13:48:10Z</time>
      </trkpt>
      <trkpt lat="49.25922" lon="4.609">
        <ele>173</ele>
        <time>2018-04-01T13:49:10Z</time>
      </trkpt>
      <trkpt lat="49.25914" lon="4.60891">
        <ele>173</ele>
        <time>2018-04-01T13:50:10Z</time>
      </trkpt>
      <trkpt lat="49.2591" lon="4.60887">
        <ele>173</ele>
        <time>2018-04-01T13:51:10Z</time>
      </trkpt>
      <trkpt lat="49.25898" lon="4.60874">
        <ele>174</ele>
        <time>2018-04-01T13:52:10Z</time>
      </trkpt>
      <trkpt lat="49.25883" lon="4.6086">
        <ele>174</ele>
        <time>2018-04-01T13:53:10Z</time>
      </trkpt>
      <trkpt lat="49.25824" lon="4.60804">
        <ele>174</ele>
        <time>2018-04-01T13:54:10Z</time>
      </trkpt>
      <trkpt lat="49.25794" lon="4.60776">
        <ele>174</ele>
        <time>2018-04-01T13:55:10Z</time>
      </trkpt>
      <trkpt lat="49.2579" lon="4.60772">
        <ele>174</ele>
        <time>2018-04-01T13:56:10Z</time>
      </trkpt>
      <trkpt lat="49.25766" lon="4.60745">
        <ele>174</ele>
        <time>2018-04-01T13:57:10Z</time>
      </trkpt>
      <trkpt lat="49.25751" lon="4.60727">
        <ele>174</ele>
        <time>2018-04-01T13:58:10Z</time>
      </trkpt>
      <trkpt lat="49.25743" lon="4.60716">
        <ele>174</ele>
        <time>2018-04-01T13:59:10Z</time>
      </trkpt>
      <trkpt lat="49.25737" lon="4.60706">
        <ele>174</ele>
        <time>2018-04-01T14:00:10Z</time>
      </trkpt>
      <trkpt lat="49.2573" lon="4.60696">
        <ele>174</ele>
        <time>2018-04-01T14:01:10Z</time>
      </trkpt>
      <trkpt lat="49.25724" lon="4.60686">
        <ele>174</ele>
        <time>2018-04-01T14:02:10Z</time>
      </trkpt>
      <trkpt lat="49.2571" lon="4.60662">
        <ele>174</ele>
        <time>2018-04-01T14:03:10Z</time>
      </trkpt>
      <trkpt lat="49.25698" lon="4.6064">
        <ele>175</ele>
        <time>2018-04-01T14:04:10Z</time>
      </trkpt>
      <trkpt lat="49.25688" lon="4.60619">
        <ele>176</ele>
        <time>2018-04-01T14:05:10Z</time>
      </trkpt>
      <trkpt lat="49.25679" lon="4.60601">
        <ele>176</ele>
        <time>2018-04-01T14:06:10Z</time>
      </trkpt>
      <trkpt lat="49.25666" lon="4.6057">
        <ele>177</ele>
        <time>2018-04-01T14:07:10Z</time>
      </trkpt>
      <trkpt lat="49.2566" lon="4.60556">
        <ele>176</ele>
        <time>2018-04-01T14:08:10Z</time>
      </trkpt>
      <trkpt lat="49.25657" lon="4.60549">
        <ele>176</ele>
        <time>2018-04-01T14:09:10Z</time>
      </trkpt>
      <trkpt lat="49.25652" lon="4.60535">
        <ele>176</ele>
        <time>2018-04-01T14:10:10Z</time>
      </trkpt>
      <trkpt lat="49.25643" lon="4.6051">
        <ele>175</ele>
        <time>2018-04-01T14:11:10Z</time>
      </trkpt>
      <trkpt lat="49.25638" lon="4.60497">
        <ele>175</ele>
        <time>2018-04-01T14:12:10Z</time>
      </trkpt>
      <trkpt lat="49.25635" lon="4.60485">
        <ele>175</ele>
        <time>2018-04-01T14:13:10Z</time>
      </trkpt>
      <trkpt lat="49.25629" lon="4.60467">
        <ele>174</ele>
        <time>2018-04-01T14:14:10Z</time>
      </trkpt>
      <trkpt lat="49.25624" lon="4.60444">
        <ele>174</ele>
        <time>2018-04-01T14:15:10Z</time>
      </trkpt>
      <trkpt lat="49.25618" lon="4.60418">
        <ele>173</ele>
        <time>2018-04-01T14:16:10Z</time>
      </trkpt>
      <trkpt lat="49.25604" lon="4.60354">
        <ele>171</ele>
        <time>2018-04-01T14:17:10Z</time>
      </trkpt>
      <trkpt lat="49.25589" lon="4.60285">
        <ele>170</ele>
        <time>2018-04-01T14:18:10Z</time>
      </trkpt>
      <trkpt lat="49.25585" lon="4.60266">
        <ele>170</ele>
        <time>2018-04-01T14:19:10Z</time>
      </trkpt>
      <trkpt lat="49.25566" lon="4.60177">
        <ele>169</ele>
        <time>2018-04-01T14:20:10Z</time>
      </trkpt>
      <trkpt lat="49.25556" lon="4.60123">
        <ele>168</ele>
        <time>2018-04-01T14:21:10Z</time>
      </trkpt>
      <trkpt lat="49.25552" lon="4.60102">
        <ele>167</ele>
        <time>2018-04-01T14:22:10Z</time>
      </trkpt>
      <trkpt lat="49.25545" lon="4.60048">
        <ele>167</ele>
        <time>2018-04-01T14:23:10Z</time>
      </trkpt>
      <trkpt lat="49.25539" lon="4.60001">
        <ele>166</ele>
        <time>2018-04-01T14:24:10Z</time>
      </trkpt>
      <trkpt lat="49.25536" lon="4.59974">
        <ele>166</ele>
        <time>2018-04-01T14:25:10Z</time>
      </trkpt>
      <trkpt lat="49.25529" lon="4.59921">
        <ele>165</ele>
        <time>2018-04-01T14:26:10Z</time>
      </trkpt>
      <trkpt lat="49.25521" lon="4.5985">
        <ele>164</ele>
        <time>2018-04-01T14:27:10Z</time>
      </trkpt>
      <trkpt lat="49.2551" lon="4.59742">
        <ele>163</ele>
        <time>2018-04-01T14:28:10Z</time>
      </trkpt>
      <trkpt lat="49.25491" lon="4.59564">
        <ele>162</ele>
        <time>2018-04-01T14:29:10Z</time>
      </trkpt>
      <trkpt lat="49.25485" lon="4.59508">
        <ele>162</ele>
        <time>2018-04-01T14:30:10Z</time>
      </trkpt>
      <trkpt lat="49.25482" lon="4.5948">
        <ele>161</ele>
        <time>2018-04-01T14:31:10Z</time>
      </trkpt>
      <trkpt lat="49.25474" lon="4.59407">
        <ele>160</ele>
        <time>2018-04-01T14:32:10Z</time>
      </trkpt>
      <trkpt lat="49.2547" lon="4.59373">
        <ele>159</ele>
        <time>2018-04-01T14:33:10Z</time>
      </trkpt>
      <trkpt lat="49.25466" lon="4.59334">
        <ele>159</ele>
        <time>2018-04-01T14:34:10Z</time>
      </trkpt>
      <trkpt lat="49.25454" lon="4.59218">
        <ele>158</ele>
        <time>2018-04-01T14:35:10Z</time>
      </trkpt>
      <trkpt lat="49.25448" lon="4.59167">
        <ele>158</ele>
        <time>2018-04-01T14:36:10Z</time>
      </trkpt>
      <trkpt lat="49.25446" lon="4.59144">
        <ele>158</ele>
        <time>2018-04-01T14:37:10Z</time>
      </trkpt>
      <trkpt lat="49.25437" lon="4.59076">
        <ele>157</ele>
        <time>2018-04-01T14:38:10Z</time>
      </trkpt>
      <trkpt lat="49.25437" lon="4.59071">
        <ele>157</ele>
        <time>2018-04-01T14:39:10Z</time>
      </trkpt>
      <trkpt lat="49.25434" lon="4.5904">
        <ele>157</ele>
        <time>2018-04-01T14:40:10Z</time>
      </trkpt>
      <trkpt lat="49.25423" lon="4.58942">
        <ele>157</ele>
        <time>2018-04-01T14:41:10Z</time>
      </trkpt>
      <trkpt lat="49.25412" lon="4.58843">
        <ele>157</ele>
        <time>2018-04-01T14:42:10Z</time>
      </trkpt>
      <trkpt lat="49.2541" lon="4.58823">
        <ele>157</ele>
        <time>2018-04-01T14:43:10Z</time>
      </trkpt>
      <trkpt lat="49.25401" lon="4.58748">
        <ele>156</ele>
        <time>2018-04-01T14:44:10Z</time>
      </trkpt>
      <trkpt lat="49.25393" lon="4.58673">
        <ele>155</ele>
        <time>2018-04-01T14:45:10Z</time>
      </trkpt>
      <trkpt lat="49.25383" lon="4.58595">
        <ele>154</ele>
        <time>2018-04-01T14:46:10Z</time>
      </trkpt>
      <trkpt lat="49.25377" lon="4.5855">
        <ele>154</ele>
        <time>2018-04-01T14:47:10Z</time>
      </trkpt>
      <trkpt lat="49.25363" lon="4.58472">
        <ele>153</ele>
        <time>2018-04-01T14:48:10Z</time>
      </trkpt>
      <trkpt lat="49.25351" lon="4.58405">
        <ele>152</ele>
        <time>2018-04-01T14:49:10Z</time>
      </trkpt>
      <trkpt lat="49.25337" lon="4.58329">
        <ele>151</ele>
        <time>2018-04-01T14:50:10Z</time>
      </trkpt>
      <trkpt lat="49.25326" lon="4.58271">
        <ele>151</ele>
        <time>2018-04-01T14:51:10Z</time>
      </trkpt>
      <trkpt lat="49.25316" lon="4.5822">
        <ele>150</ele>
        <time>2018-04-01T14:52:10Z</time>
      </trkpt>
      <trkpt lat="49.25312" lon="4.58197">
        <ele>150</ele>
        <time>2018-04-01T14:53:10Z</time>
      </trkpt>
      <trkpt lat="49.25308" lon="4.5818">
        <ele>150</ele>
        <time>2018-04-01T14:54:10Z</time>
      </trkpt>
      <trkpt lat="49.25294" lon="4.58112">
        <ele>150</ele>
        <time>2018-04-01T14:55:10Z</time>
      </trkpt>
      <trkpt lat="49.2528" lon="4.58049">
        <ele>150</ele>
        <time>2018-04-01T14:56:10Z</time>
      </trkpt>
      <trkpt lat="49.25254" lon="4.5794">
        <ele>149</ele>
        <time>2018-04-01T14:57:10Z</time>
      </trkpt>
      <trkpt lat="49.2524" lon="4.57887">
        <ele>147</ele>
        <time>2018-04-01T14:58:10Z</time>
      </trkpt>
      <trkpt lat="49.25227" lon="4.57841">
        <ele>147</ele>
        <time>2018-04-01T14:59:10Z</time>
      </trkpt>
      <trkpt lat="49.25213" lon="4.57789">
        <ele>147</ele>
        <time>2018-04-01T15:00:10Z</time>
      </trkpt>
      <trkpt lat="49.25202" lon="4.57745">
        <ele>147</ele>
        <time>2018-04-01T15:01:10Z</time>
      </trkpt>
      <trkpt lat="49.25191" lon="4.57693">
        <ele>147</ele>
        <time>2018-04-01T15:02:10Z</time>
      </trkpt>
      <trkpt lat="49.25181" lon="4.57638">
        <ele>147</ele>
        <time>2018-04-01T15:03:10Z</time>
      </trkpt>
      <trkpt lat="49.25169" lon="4.57564">
        <ele>146</ele>
        <time>2018-04-01T15:04:10Z</time>
      </trkpt>
      <trkpt lat="49.25158" lon="4.57486">
        <ele>145</ele>
        <time>2018-04-01T15:05:10Z</time>
      </trkpt>
      <trkpt lat="49.25147" lon="4.57395">
        <ele>143</ele>
        <time>2018-04-01T15:06:10Z</time>
      </trkpt>
      <trkpt lat="49.25138" lon="4.5732">
        <ele>142</ele>
        <time>2018-04-01T15:07:10Z</time>
      </trkpt>
      <trkpt lat="49.25132" lon="4.57277">
        <ele>142</ele>
        <time>2018-04-01T15:08:10Z</time>
      </trkpt>
      <trkpt lat="49.25119" lon="4.57169">
        <ele>140</ele>
        <time>2018-04-01T15:09:10Z</time>
      </trkpt>
      <trkpt lat="49.25109" lon="4.5708">
        <ele>138</ele>
        <time>2018-04-01T15:10:10Z</time>
      </trkpt>
      <trkpt lat="49.25107" lon="4.57057">
        <ele>137</ele>
        <time>2018-04-01T15:11:10Z</time>
      </trkpt>
      <trkpt lat="49.25106" lon="4.57043">
        <ele>136</ele>
        <time>2018-04-01T15:12:10Z</time>
      </trkpt>
      <trkpt lat="49.25106" lon="4.56986">
        <ele>134</ele>
        <time>2018-04-01T15:13:10Z</time>
      </trkpt>
      <trkpt lat="49.25108" lon="4.56931">
        <ele>133</ele>
        <time>2018-04-01T15:14:10Z</time>
      </trkpt>
      <trkpt lat="49.25109" lon="4.56918">
        <ele>133</ele>
        <time>2018-04-01T15:15:10Z</time>
      </trkpt>
      <trkpt lat="49.25116" lon="4.56847">
        <ele>131</ele>
        <time>2018-04-01T15:16:10Z</time>
      </trkpt>
      <trkpt lat="49.25128" lon="4.56748">
        <ele>130</ele>
        <time>2018-04-01T15:17:10Z</time>
      </trkpt>
      <trkpt lat="49.25131" lon="4.56706">
        <ele>130</ele>
        <time>2018-04-01T15:18:10Z</time>
      </trkpt>
      <trkpt lat="49.25132" lon="4.56678">
        <ele>130</ele>
        <time>2018-04-01T15:19:10Z</time>
      </trkpt>
      <trkpt lat="49.25131" lon="4.56663">
        <ele>130</ele>
        <time>2018-04-01T15:20:10Z</time>
      </trkpt>
      <trkpt lat="49.25124" lon="4.56613">
        <ele>131</ele>
        <time>2018-04-01T15:21:10Z</time>
      </trkpt>
      <trkpt lat="49.25117" lon="4.56589">
        <ele>131</ele>
        <time>2018-04-01T15:22:10Z</time>
      </trkpt>
      <trkpt lat="49.2511" lon="4.56564">
        <ele>131</ele>
        <time>2018-04-01T15:23:10Z</time>
      </trkpt>
      <trkpt lat="49.25098" lon="4.56526">
        <ele>131</ele>
        <time>2018-04-01T15:24:10Z</time>
      </trkpt>
      <trkpt lat="49.25097" lon="4.56521">
        <ele>131</ele>
        <time>2018-04-01T15:25:10Z</time>
      </trkpt>
      <trkpt lat="49.25094" lon="4.56514">
        <ele>131</ele>
        <time>2018-04-01T15:26:10Z</time>
      </trkpt>
      <trkpt lat="49.25084" lon="4.56482">
        <ele>131</ele>
        <time>2018-04-01T15:27:10Z</time>
      </trkpt>
      <trkpt lat="49.25076" lon="4.56435">
        <ele>131</ele>
        <time>2018-04-01T15:28:10Z</time>
      </trkpt>
      <trkpt lat="49.25073" lon="4.5642">
        <ele>131</ele>
        <time>2018-04-01T15:29:10Z</time>
      </trkpt>
      <trkpt lat="49.25069" lon="4.56373">
        <ele>132</ele>
        <time>2018-04-01T15:30:10Z</time>
      </trkpt>
      <trkpt lat="49.25065" lon="4.56359">
        <ele>132</ele>
        <time>2018-04-01T15:31:10Z</time>
      </trkpt>
      <trkpt lat="49.25066" lon="4.56352">
        <ele>132</ele>
        <time>2018-04-01T15:32:10Z</time>
      </trkpt>
      <trkpt lat="49.25065" lon="4.56345">
        <ele>132</ele>
        <time>2018-04-01T15:33:10Z</time>
      </trkpt>
      <trkpt lat="49.25065" lon="4.56336">
        <ele>132</ele>
        <time>2018-04-01T15:34:10Z</time>
      </trkpt>
      <trkpt lat="49.25064" lon="4.56324">
        <ele>133</ele>
        <time>2018-04-01T15:35:10Z</time>
      </trkpt>
      <trkpt lat="49.25065" lon="4.56315">
        <ele>133</ele>
        <time>2018-04-01T15:36:10Z</time>
      </trkpt>
      <trkpt lat="49.25066" lon="4.56309">
        <ele>133</ele>
        <time>2018-04-01T15:37:10Z</time>
      </trkpt>
      <trkpt lat="49.25066" lon="4.56303">
        <ele>134</ele>
        <time>2018-04-01T15:38:10Z</time>
      </trkpt>
      <trkpt lat="49.25066" lon="4.56303">
        <ele>134</ele>
        <time>2018-04-01T15:39:10Z</time>
      </trkpt>
      <trkpt lat="49.25068" lon="4.56302">
        <ele>134</ele>
        <time>2018-04-01T15:40:10Z</time>
      </trkpt>
      <trkpt lat="49.25069" lon="4.563">
        <ele>134</ele>
        <time>2018-04-01T15:41:10Z</time>
      </trkpt>
      <trkpt lat="49.2507" lon="4.56299">
        <ele>134</ele>
        <time>2018-04-01T15:42:10Z</time>
      </trkpt>
      <trkpt lat="49.2507" lon="4.56297">
        <ele>134</ele>
        <time>2018-04-01T15:43:10Z</time>
      </trkpt>
      <trkpt lat="49.25071" lon="4.56295">
        <ele>134</ele>
        <time>2018-04-01T15:44:10Z</time>
      </trkpt>
      <trkpt lat="49.25072" lon="4.56293">
        <ele>134</ele>
        <time>2018-04-01T15:45:10Z</time>
      </trkpt>
      <trkpt lat="49.25072" lon="4.56291">
        <ele>134</ele>
        <time>2018-04-01T15:46:10Z</time>
      </trkpt>
      <trkpt lat="49.25073" lon="4.56287">
        <ele>134</ele>
        <time>2018-04-01T15:47:10Z</time>
      </trkpt>
      <trkpt lat="49.25073" lon="4.56284">
        <ele>134</ele>
        <time>2018-04-01T15:48:10Z</time>
      </trkpt>
      <trkpt lat="49.25073" lon="4.5628">
        <ele>135</ele>
        <time>2018-04-01T15:49:10Z</time>
      </trkpt>
      <trkpt lat="49.25073" lon="4.56277">
        <ele>135</ele>
        <time>2018-04-01T15:50:10Z</time>
      </trkpt>
      <trkpt lat="49.25073" lon="4.56273">
        <ele>135</ele>
        <time>2018-04-01T15:51:10Z</time>
      </trkpt>
      <trkpt lat="49.25072" lon="4.5627">
        <ele>135</ele>
        <time>2018-04-01T15:52:10Z</time>
      </trkpt>
      <trkpt lat="49.25071" lon="4.56267">
        <ele>135</ele>
        <time>2018-04-01T15:53:10Z</time>
      </trkpt>
      <trkpt lat="49.2507" lon="4.56264">
        <ele>135</ele>
        <time>2018-04-01T15:54:10Z</time>
      </trkpt>
      <trkpt lat="49.25068" lon="4.56261">
        <ele>135</ele>
        <time>2018-04-01T15:55:10Z</time>
      </trkpt>
      <trkpt lat="49.25067" lon="4.5626">
        <ele>136</ele>
        <time>2018-04-01T15:56:10Z</time>
      </trkpt>
      <trkpt lat="49.25066" lon="4.56259">
        <ele>136</ele>
        <time>2018-04-01T15:57:10Z</time>
      </trkpt>
      <trkpt lat="49.25065" lon="4.56258">
        <ele>136</ele>
        <time>2018-04-01T15:58:10Z</time>
      </trkpt>
      <trkpt lat="49.25064" lon="4.56257">
        <ele>136</ele>
        <time>2018-04-01T15:59:10Z</time>
      </trkpt>
      <trkpt lat="49.25063" lon="4.56256">
        <ele>136</ele>
        <time>2018-04-01T16:00:10Z</time>
      </trkpt>
      <trkpt lat="49.25062" lon="4.56256">
        <ele>136</ele>
        <time>2018-04-01T16:01:10Z</time>
      </trkpt>
      <trkpt lat="49.25061" lon="4.56255">
        <ele>136</ele>
        <time>2018-04-01T16:02:10Z</time>
      </trkpt>
      <trkpt lat="49.2506" lon="4.56254">
        <ele>136</ele>
        <time>2018-04-01T16:03:10Z</time>
      </trkpt>
      <trkpt lat="49.25058" lon="4.56245">
        <ele>136</ele>
        <time>2018-04-01T16:04:10Z</time>
      </trkpt>
      <trkpt lat="49.25055" lon="4.56236">
        <ele>136</ele>
        <time>2018-04-01T16:05:10Z</time>
      </trkpt>
      <trkpt lat="49.25054" lon="4.56225">
        <ele>136</ele>
        <time>2018-04-01T16:06:10Z</time>
      </trkpt>
      <trkpt lat="49.25052" lon="4.56218">
        <ele>136</ele>
        <time>2018-04-01T16:07:10Z</time>
      </trkpt>
      <trkpt lat="49.25051" lon="4.56213">
        <ele>136</ele>
        <time>2018-04-01T16:08:10Z</time>
      </trkpt>
      <trkpt lat="49.2505" lon="4.56201">
        <ele>136</ele>
        <time>2018-04-01T16:09:10Z</time>
      </trkpt>
      <trkpt lat="49.25049" lon="4.56189">
        <ele>136</ele>
        <time>2018-04-01T16:10:10Z</time>
      </trkpt>
      <trkpt lat="49.25045" lon="4.56148">
        <ele>137</ele>
        <time>2018-04-01T16:11:10Z</time>
      </trkpt>
      <trkpt lat="49.25044" lon="4.56126">
        <ele>137</ele>
        <time>2018-04-01T16:12:10Z</time>
      </trkpt>
      <trkpt lat="49.25044" lon="4.56107">
        <ele>137</ele>
        <time>2018-04-01T16:13:10Z</time>
      </trkpt>
      <trkpt lat="49.25044" lon="4.56078">
        <ele>137</ele>
        <time>2018-04-01T16:14:10Z</time>
      </trkpt>
      <trkpt lat="49.25047" lon="4.56051">
        <ele>137</ele>
        <time>2018-04-01T16:15:10Z</time>
      </trkpt>
      <trkpt lat="49.25048" lon="4.56038">
        <ele>138</ele>
        <time>2018-04-01T16:16:10Z</time>
      </trkpt>
      <trkpt lat="49.25049" lon="4.55982">
        <ele>139</ele>
        <time>2018-04-01T16:17:10Z</time>
      </trkpt>
      <trkpt lat="49.2505" lon="4.5597">
        <ele>139</ele>
        <time>2018-04-01T16:18:10Z</time>
      </trkpt>
      <trkpt lat="49.2505" lon="4.55961">
        <ele>139</ele>
        <time>2018-04-01T16:19:10Z</time>
      </trkpt>
      <trkpt lat="49.25051" lon="4.55936">
        <ele>139</ele>
        <time>2018-04-01T16:20:10Z</time>
      </trkpt>
      <trkpt lat="49.2505" lon="4.55913">
        <ele>139</ele>
        <time>2018-04-01T16:21:10Z</time>
      </trkpt>
      <trkpt lat="49.2505" lon="4.55904">
        <ele>138</ele>
        <time>2018-04-01T16:22:10Z</time>
      </trkpt>
      <trkpt lat="49.25049" lon="4.55893">
        <ele>138</ele>
        <time>2018-04-01T16:23:10Z</time>
      </trkpt>
      <trkpt lat="49.25046" lon="4.55864">
        <ele>138</ele>
        <time>2018-04-01T16:24:10Z</time>
      </trkpt>
      <trkpt lat="49.25043" lon="4.55838">
        <ele>137</ele>
        <time>2018-04-01T16:25:10Z</time>
      </trkpt>
      <trkpt lat="49.2504" lon="4.55822">
        <ele>137</ele>
        <time>2018-04-01T16:26:10Z</time>
      </trkpt>
      <trkpt lat="49.25038" lon="4.55814">
        <ele>137</ele>
        <time>2018-04-01T16:27:10Z</time>
      </trkpt>
      <trkpt lat="49.25024" lon="4.55751">
        <ele>138</ele>
        <time>2018-04-01T16:28:10Z</time>
      </trkpt>
      <trkpt lat="49.25016" lon="4.55724">
        <ele>138</ele>
        <time>2018-04-01T16:29:10Z</time>
      </trkpt>
      <trkpt lat="49.25006" lon="4.55692">
        <ele>138</ele>
        <time>2018-04-01T16:30:10Z</time>
      </trkpt>
      <trkpt lat="49.24999" lon="4.55671">
        <ele>138</ele>
        <time>2018-04-01T16:31:10Z</time>
      </trkpt>
      <trkpt lat="49.24988" lon="4.55644">
        <ele>137</ele>
        <time>2018-04-01T16:32:10Z</time>
      </trkpt>
      <trkpt lat="49.24985" lon="4.55638">
        <ele>137</ele>
        <time>2018-04-01T16:33:10Z</time>
      </trkpt>
      <trkpt lat="49.24976" lon="4.55619">
        <ele>137</ele>
        <time>2018-04-01T16:34:10Z</time>
      </trkpt>
      <trkpt lat="49.24972" lon="4.55608">
        <ele>137</ele>
        <time>2018-04-01T16:35:10Z</time>
      </trkpt>
      <trkpt lat="49.24966" lon="4.55593">
        <ele>136</ele>
        <time>2018-04-01T16:36:10Z</time>
      </trkpt>
      <trkpt lat="49.24954" lon="4.55561">
        <ele>137</ele>
        <time>2018-04-01T16:37:10Z</time>
      </trkpt>
      <trkpt lat="49.24951" lon="4.55553">
        <ele>137</ele>
        <time>2018-04-01T16:38:10Z</time>
      </trkpt>
      <trkpt lat="49.24949" lon="4.55549">
        <ele>137</ele>
        <time>2018-04-01T16:39:10Z</time>
      </trkpt>
      <trkpt lat="49.24943" lon="4.55541">
        <ele>137</ele>
        <time>2018-04-01T16:40:10Z</time>
      </trkpt>
      <trkpt lat="49.24936" lon="4.55536">
        <ele>137</ele>
        <time>2018-04-01T16:41:10Z</time>
      </trkpt>
      <trkpt lat="49.24934" lon="4.55535">
        <ele>137</ele>
        <time>2018-04-01T16:42:10Z</time>
      </trkpt>
      <trkpt lat="49.24927" lon="4.55534">
        <ele>138</ele>
        <time>2018-04-01T16:43:10Z</time>
      </trkpt>
      <trkpt lat="49.24917" lon="4.55535">
        <ele>138</ele>
        <time>2018-04-01T16:44:10Z</time>
      </trkpt>
      <trkpt lat="49.24904" lon="4.55539">
        <ele>138</ele>
        <time>2018-04-01T16:45:10Z</time>
      </trkpt>
      <trkpt lat="49.24901" lon="4.5554">
        <ele>138</ele>
        <time>2018-04-01T16:46:10Z</time>
      </trkpt>
      <trkpt lat="49.2489" lon="4.55545">
        <ele>138</ele>
        <time>2018-04-01T16:47:10Z</time>
      </trkpt>
      <trkpt lat="49.24881" lon="4.5555">
        <ele>139</ele>
        <time>2018-04-01T16:48:10Z</time>
      </trkpt>
      <trkpt lat="49.2485" lon="4.55568">
        <ele>139</ele>
        <time>2018-04-01T16:49:10Z</time>
      </trkpt>
      <trkpt lat="49.24841" lon="4.55574">
        <ele>139</ele>
        <time>2018-04-01T16:50:10Z</time>
      </trkpt>
      <trkpt lat="49.24822" lon="4.55584">
        <ele>140</ele>
        <time>2018-04-01T16:51:10Z</time>
      </trkpt>
      <trkpt lat="49.24822" lon="4.55584">
        <ele>140</ele>
        <time>2018-04-01T16:52:10Z</time>
      </trkpt>
      <trkpt lat="49.24812" lon="4.55561">
        <ele>140</ele>
        <time>2018-04-01T16:53:10Z</time>
      </trkpt>
      <trkpt lat="49.24786" lon="4.55513">
        <ele>142</ele>
        <time>2018-04-01T16:54:10Z</time>
      </trkpt>
      <trkpt lat="49.24781" lon="4.55499">
        <ele>142</ele>
        <time>2018-04-01T16:55:10Z</time>
      </trkpt>
      <trkpt lat="49.24762" lon="4.55452">
        <ele>142</ele>
        <time>2018-04-01T16:56:10Z</time>
      </trkpt>
      <trkpt lat="49.24756" lon="4.55436">
        <ele>142</ele>
        <time>2018-04-01T16:57:10Z</time>
      </trkpt>
      <trkpt lat="49.24753" lon="4.55425">
        <ele>141</ele>
        <time>2018-04-01T16:58:10Z</time>
      </trkpt>
      <trkpt lat="49.24747" lon="4.55407">
        <ele>141</ele>
        <time>2018-04-01T16:59:10Z</time>
      </trkpt>
      <trkpt lat="49.24738" lon="4.55378">
        <ele>140</ele>
        <time>2018-04-01T17:00:10Z</time>
      </trkpt>
      <trkpt lat="49.24729" lon="4.55352">
        <ele>139</ele>
        <time>2018-04-01T17:01:10Z</time>
      </trkpt>
      <trkpt lat="49.24719" lon="4.55324">
        <ele>139</ele>
        <time>2018-04-01T17:02:10Z</time>
      </trkpt>
      <trkpt lat="49.24716" lon="4.55314">
        <ele>139</ele>
        <time>2018-04-01T17:03:10Z</time>
      </trkpt>
      <trkpt lat="49.24708" lon="4.55293">
        <ele>139</ele>
        <time>2018-04-01T17:04:10Z</time>
      </trkpt>
      <trkpt lat="49.24697" lon="4.55258">
        <ele>139</ele>
        <time>2018-04-01T17:05:10Z</time>
      </trkpt>
      <trkpt lat="49.2468" lon="4.55208">
        <ele>139</ele>
        <time>2018-04-01T17:06:10Z</time>
      </trkpt>
      <trkpt lat="49.24664" lon="4.55161">
        <ele>139</ele>
        <time>2018-04-01T17:07:10Z</time>
      </trkpt>
      <trkpt lat="49.24598" lon="4.54968">
        <ele>137</ele>
        <time>2018-04-01T17:08:10Z</time>
      </trkpt>
      <trkpt lat="49.24594" lon="4.54957">
        <ele>137</ele>
        <time>2018-04-01T17:09:10Z</time>
      </trkpt>
      <trkpt lat="49.24583" lon="4.54926">
        <ele>137</ele>
        <time>2018-04-01T17:10:10Z</time>
      </trkpt>
      <trkpt lat="49.2455" lon="4.54829">
        <ele>138</ele>
        <time>2018-04-01T17:11:10Z</time>
      </trkpt>
      <trkpt lat="49.24536" lon="4.54791">
        <ele>137</ele>
        <time>2018-04-01T17:12:10Z</time>
      </trkpt>
      <trkpt lat="49.24511" lon="4.54717">
        <ele>138</ele>
        <time>2018-04-01T17:13:10Z</time>
      </trkpt>
      <trkpt lat="49.245" lon="4.54674">
        <ele>138</ele>
        <time>2018-04-01T17:14:10Z</time>
      </trkpt>
      <trkpt lat="49.24494" lon="4.54639">
        <ele>138</ele>
        <time>2018-04-01T17:15:10Z</time>
      </trkpt>
      <trkpt lat="49.24488" lon="4.54595">
        <ele>138</ele>
        <time>2018-04-01T17:16:10Z</time>
      </trkpt>
      <trkpt lat="49.24487" lon="4.54579">
        <ele>138</ele>
        <time>2018-04-01T17:17:10Z</time>
      </trkpt>
      <trkpt lat="49.24483" lon="4.54546">
        <ele>138</ele>
        <time>2018-04-01T17:18:10Z</time>
      </trkpt>
      <trkpt lat="49.24479" lon="4.54514">
        <ele>138</ele>
        <time>2018-04-01T17:19:10Z</time>
      </trkpt>
      <trkpt lat="49.24474" lon="4.54491">
        <ele>138</ele>
        <time>2018-04-01T17:20:10Z</time>
      </trkpt>
      <trkpt lat="49.24463" lon="4.54451">
        <ele>137</ele>
        <time>2018-04-01T17:21:10Z</time>
      </trkpt>
      <trkpt lat="49.24462" lon="4.54446">
        <ele>137</ele>
        <time>2018-04-01T17:22:10Z</time>
      </trkpt>
      <trkpt lat="49.2446" lon="4.54439">
        <ele>137</ele>
        <time>2018-04-01T17:23:10Z</time>
      </trkpt>
      <trkpt lat="49.24451" lon="4.54413">
        <ele>136</ele>
        <time>2018-04-01T17:24:10Z</time>
      </trkpt>
      <trkpt lat="49.24402" lon="4.54298">
        <ele>136</ele>
        <time>2018-04-01T17:25:10Z</time>
      </trkpt>
      <trkpt lat="49.24397" lon="4.54286">
        <ele>136</ele>
        <time>2018-04-01T17:26:10Z</time>
      </trkpt>
      <trkpt lat="49.24351" lon="4.54178">
        <ele>136</ele>
        <time>2018-04-01T17:27:10Z</time>
      </trkpt>
      <trkpt lat="49.24342" lon="4.54157">
        <ele>136</ele>
        <time>2018-04-01T17:28:10Z</time>
      </trkpt>
      <trkpt lat="49.24331" lon="4.54131">
        <ele>136</ele>
        <time>2018-04-01T17:29:10Z</time>
      </trkpt>
      <trkpt lat="49.2432" lon="4.54105">
        <ele>136</ele>
        <time>2018-04-01T17:30:10Z</time>
      </trkpt>
      <trkpt lat="49.24311" lon="4.54082">
        <ele>136</ele>
        <time>2018-04-01T17:31:10Z</time>
      </trkpt>
      <trkpt lat="49.24299" lon="4.54053">
        <ele>136</ele>
        <time>2018-04-01T17:32:10Z</time>
      </trkpt>
      <trkpt lat="49.2428" lon="4.54007">
        <ele>137</ele>
        <time>2018-04-01T17:33:10Z</time>
      </trkpt>
      <trkpt lat="49.24269" lon="4.53976">
        <ele>137</ele>
        <time>2018-04-01T17:34:10Z</time>
      </trkpt>
      <trkpt lat="49.2426" lon="4.53951">
        <ele>138</ele>
        <time>2018-04-01T17:35:10Z</time>
      </trkpt>
      <trkpt lat="49.24251" lon="4.53921">
        <ele>138</ele>
        <time>2018-04-01T17:36:10Z</time>
      </trkpt>
      <trkpt lat="49.24239" lon="4.53879">
        <ele>139</ele>
        <time>2018-04-01T17:37:10Z</time>
      </trkpt>
      <trkpt lat="49.24231" lon="4.53842">
        <ele>139</ele>
        <time>2018-04-01T17:38:10Z</time>
      </trkpt>
      <trkpt lat="49.24218" lon="4.53788">
        <ele>141</ele>
        <time>2018-04-01T17:39:10Z</time>
      </trkpt>
      <trkpt lat="49.24208" lon="4.53734">
        <ele>141</ele>
        <time>2018-04-01T17:40:10Z</time>
      </trkpt>
      <trkpt lat="49.24206" lon="4.53714">
        <ele>141</ele>
        <time>2018-04-01T17:41:10Z</time>
      </trkpt>
      <trkpt lat="49.24195" lon="4.53626">
        <ele>142</ele>
        <time>2018-04-01T17:42:10Z</time>
      </trkpt>
      <trkpt lat="49.2419" lon="4.5359">
        <ele>142</ele>
        <time>2018-04-01T17:43:10Z</time>
      </trkpt>
      <trkpt lat="49.24187" lon="4.53564">
        <ele>143</ele>
        <time>2018-04-01T17:44:10Z</time>
      </trkpt>
      <trkpt lat="49.24161" lon="4.53319">
        <ele>145</ele>
        <time>2018-04-01T17:45:10Z</time>
      </trkpt>
      <trkpt lat="49.24154" lon="4.53265">
        <ele>145</ele>
        <time>2018-04-01T17:46:10Z</time>
      </trkpt>
      <trkpt lat="49.24139" lon="4.53145">
        <ele>146</ele>
        <time>2018-04-01T17:47:10Z</time>
      </trkpt>
      <trkpt lat="49.24133" lon="4.53097">
        <ele>146</ele>
        <time>2018-04-01T17:48:10Z</time>
      </trkpt>
      <trkpt lat="49.24133" lon="4.53089">
        <ele>146</ele>
        <time>2018-04-01T17:49:10Z</time>
      </trkpt>
      <trkpt lat="49.2413" lon="4.5306">
        <ele>146</ele>
        <time>2018-04-01T17:50:10Z</time>
      </trkpt>
      <trkpt lat="49.24128" lon="4.53002">
        <ele>145</ele>
        <time>2018-04-01T17:51:10Z</time>
      </trkpt>
      <trkpt lat="49.24128" lon="4.53001">
        <ele>145</ele>
        <time>2018-04-01T17:52:10Z</time>
      </trkpt>
      <trkpt lat="49.24128" lon="4.52998">
        <ele>145</ele>
        <time>2018-04-01T17:53:10Z</time>
      </trkpt>
      <trkpt lat="49.24126" lon="4.52937">
        <ele>144</ele>
        <time>2018-04-01T17:54:10Z</time>
      </trkpt>
      <trkpt lat="49.24126" lon="4.5291">
        <ele>144</ele>
        <time>2018-04-01T17:55:10Z</time>
      </trkpt>
      <trkpt lat="49.24123" lon="4.52763">
        <ele>145</ele>
        <time>2018-04-01T17:56:10Z</time>
      </trkpt>
      <trkpt lat="49.24123" lon="4.52757">
        <ele>145</ele>
        <time>2018-04-01T17:57:10Z</time>
      </trkpt>
      <trkpt lat="49.2412" lon="4.5268">
        <ele>143</ele>
        <time>2018-04-01T17:58:10Z</time>
      </trkpt>
      <trkpt lat="49.24119" lon="4.52634">
        <ele>142</ele>
        <time>2018-04-01T17:59:10Z</time>
      </trkpt>
      <trkpt lat="49.24116" lon="4.52594">
        <ele>142</ele>
        <time>2018-04-01T18:00:10Z</time>
      </trkpt>
      <trkpt lat="49.24111" lon="4.52549">
        <ele>140</ele>
        <time>2018-04-01T18:01:10Z</time>
      </trkpt>
      <trkpt lat="49.24103" lon="4.52505">
        <ele>139</ele>
        <time>2018-04-01T18:02:10Z</time>
      </trkpt>
      <trkpt lat="49.24099" lon="4.52488">
        <ele>138</ele>
        <time>2018-04-01T18:03:10Z</time>
      </trkpt>
      <trkpt lat="49.24092" lon="4.52462">
        <ele>137</ele>
        <time>2018-04-01T18:04:10Z</time>
      </trkpt>
      <trkpt lat="49.24076" lon="4.52418">
        <ele>134</ele>
        <time>2018-04-01T18:05:10Z</time>
      </trkpt>
      <trkpt lat="49.2406" lon="4.52381">
        <ele>135</ele>
        <time>2018-04-01T18:06:10Z</time>
      </trkpt>
      <trkpt lat="49.24018" lon="4.52296">
        <ele>135</ele>
        <time>2018-04-01T18:07:10Z</time>
      </trkpt>
      <trkpt lat="49.24006" lon="4.52271">
        <ele>136</ele>
        <time>2018-04-01T18:08:10Z</time>
      </trkpt>
      <trkpt lat="49.24001" lon="4.52262">
        <ele>136</ele>
        <time>2018-04-01T18:09:10Z</time>
      </trkpt>
      <trkpt lat="49.23978" lon="4.52216">
        <ele>137</ele>
        <time>2018-04-01T18:10:10Z</time>
      </trkpt>
      <trkpt lat="49.23966" lon="4.52184">
        <ele>138</ele>
        <time>2018-04-01T18:11:10Z</time>
      </trkpt>
      <trkpt lat="49.23956" lon="4.52154">
        <ele>139</ele>
        <time>2018-04-01T18:12:10Z</time>
      </trkpt>
      <trkpt lat="49.23944" lon="4.52109">
        <ele>138</ele>
        <time>2018-04-01T18:13:10Z</time>
      </trkpt>
      <trkpt lat="49.23942" lon="4.52101">
        <ele>138</ele>
        <time>2018-04-01T18:14:10Z</time>
      </trkpt>
      <trkpt lat="49.23939" lon="4.52089">
        <ele>138</ele>
        <time>2018-04-01T18:15:10Z</time>
      </trkpt>
      <trkpt lat="49.2393" lon="4.52054">
        <ele>138</ele>
        <time>2018-04-01T18:16:10Z</time>
      </trkpt>
      <trkpt lat="49.23906" lon="4.51962">
        <ele>140</ele>
        <time>2018-04-01T18:17:10Z</time>
      </trkpt>
      <trkpt lat="49.23885" lon="4.51883">
        <ele>142</ele>
        <time>2018-04-01T18:18:10Z</time>
      </trkpt>
      <trkpt lat="49.23858" lon="4.51777">
        <ele>144</ele>
        <time>2018-04-01T18:19:10Z</time>
      </trkpt>
      <trkpt lat="49.23799" lon="4.51553">
        <ele>143</ele>
        <time>2018-04-01T18:20:10Z</time>
      </trkpt>
      <trkpt lat="49.23769" lon="4.51436">
        <ele>143</ele>
        <time>2018-04-01T18:21:10Z</time>
      </trkpt>
      <trkpt lat="49.23764" lon="4.5141">
        <ele>143</ele>
        <time>2018-04-01T18:22:10Z</time>
      </trkpt>
      <trkpt lat="49.23758" lon="4.51366">
        <ele>143</ele>
        <time>2018-04-01T18:23:10Z</time>
      </trkpt>
      <trkpt lat="49.23755" lon="4.51334">
        <ele>143</ele>
        <time>2018-04-01T18:24:10Z</time>
      </trkpt>
      <trkpt lat="49.23751" lon="4.51292">
        <ele>141</ele>
        <time>2018-04-01T18:25:10Z</time>
      </trkpt>
      <trkpt lat="49.23747" lon="4.51249">
        <ele>140</ele>
        <time>2018-04-01T18:26:10Z</time>
      </trkpt>
      <trkpt lat="49.23747" lon="4.5123">
        <ele>140</ele>
        <time>2018-04-01T18:27:10Z</time>
      </trkpt>
      <trkpt lat="49.23746" lon="4.51214">
        <ele>139</ele>
        <time>2018-04-01T18:28:10Z</time>
      </trkpt>
      <trkpt lat="49.23745" lon="4.51176">
        <ele>138</ele>
        <time>2018-04-01T18:29:10Z</time>
      </trkpt>
      <trkpt lat="49.23746" lon="4.51141">
        <ele>137</ele>
        <time>2018-04-01T18:30:10Z</time>
      </trkpt>
      <trkpt lat="49.23746" lon="4.51115">
        <ele>136</ele>
        <time>2018-04-01T18:31:10Z</time>
      </trkpt>
      <trkpt lat="49.23748" lon="4.51087">
        <ele>134</ele>
        <time>2018-04-01T18:32:10Z</time>
      </trkpt>
      <trkpt lat="49.2375" lon="4.51063">
        <ele>133</ele>
        <time>2018-04-01T18:33:10Z</time>
      </trkpt>
      <trkpt lat="49.23751" lon="4.51054">
        <ele>133</ele>
        <time>2018-04-01T18:34:10Z</time>
      </trkpt>
      <trkpt lat="49.23756" lon="4.51018">
        <ele>131</ele>
        <time>2018-04-01T18:35:10Z</time>
      </trkpt>
      <trkpt lat="49.23762" lon="4.50984">
        <ele>129</ele>
        <time>2018-04-01T18:36:10Z</time>
      </trkpt>
      <trkpt lat="49.23766" lon="4.50966">
        <ele>129</ele>
        <time>2018-04-01T18:37:10Z</time>
      </trkpt>
      <trkpt lat="49.23769" lon="4.50952">
        <ele>129</ele>
        <time>2018-04-01T18:38:10Z</time>
      </trkpt>
      <trkpt lat="49.23773" lon="4.50937">
        <ele>128</ele>
        <time>2018-04-01T18:39:10Z</time>
      </trkpt>
      <trkpt lat="49.23779" lon="4.50907">
        <ele>127</ele>
        <time>2018-04-01T18:40:10Z</time>
      </trkpt>
      <trkpt lat="49.23784" lon="4.5088">
        <ele>127</ele>
        <time>2018-04-01T18:41:10Z</time>
      </trkpt>
      <trkpt lat="49.2379" lon="4.50851">
        <ele>126</ele>
        <time>2018-04-01T18:42:10Z</time>
      </trkpt>
      <trkpt lat="49.23791" lon="4.50836">
        <ele>126</ele>
        <time>2018-04-01T18:43:10Z</time>
      </trkpt>
      <trkpt lat="49.23793" lon="4.50823">
        <ele>125</ele>
        <time>2018-04-01T18:44:10Z</time>
      </trkpt>
      <trkpt lat="49.23797" lon="4.50795">
        <ele>124</ele>
        <time>2018-04-01T18:45:10Z</time>
      </trkpt>
      <trkpt lat="49.23798" lon="4.50781">
        <ele>123</ele>
        <time>2018-04-01T18:46:10Z</time>
      </trkpt>
      <trkpt lat="49.238" lon="4.5076">
        <ele>123</ele>
        <time>2018-04-01T18:47:10Z</time>
      </trkpt>
      <trkpt lat="49.23803" lon="4.50718">
        <ele>122</ele>
        <time>2018-04-01T18:48:10Z</time>
      </trkpt>
      <trkpt lat="49.23805" lon="4.50697">
        <ele>122</ele>
        <time>2018-04-01T18:49:10Z</time>
      </trkpt>
      <trkpt lat="49.23806" lon="4.50687">
        <ele>122</ele>
        <time>2018-04-01T18:50:10Z</time>
      </trkpt>
      <trkpt lat="49.23807" lon="4.50676">
        <ele>122</ele>
        <time>2018-04-01T18:51:10Z</time>
      </trkpt>
      <trkpt lat="49.2381" lon="4.50644">
        <ele>122</ele>
        <time>2018-04-01T18:52:10Z</time>
      </trkpt>
      <trkpt lat="49.23814" lon="4.50623">
        <ele>121</ele>
        <time>2018-04-01T18:53:10Z</time>
      </trkpt>
      <trkpt lat="49.23815" lon="4.50615">
        <ele>121</ele>
        <time>2018-04-01T18:54:10Z</time>
      </trkpt>
      <trkpt lat="49.23822" lon="4.50588">
        <ele>121</ele>
        <time>2018-04-01T18:55:10Z</time>
      </trkpt>
      <trkpt lat="49.23829" lon="4.50565">
        <ele>121</ele>
        <time>2018-04-01T18:56:10Z</time>
      </trkpt>
      <trkpt lat="49.23842" lon="4.50531">
        <ele>120</ele>
        <time>2018-04-01T18:57:10Z</time>
      </trkpt>
      <trkpt lat="49.23858" lon="4.50491">
        <ele>119</ele>
        <time>2018-04-01T18:58:10Z</time>
      </trkpt>
      <trkpt lat="49.23883" lon="4.5043">
        <ele>119</ele>
        <time>2018-04-01T18:59:10Z</time>
      </trkpt>
      <trkpt lat="49.23889" lon="4.50415">
        <ele>119</ele>
        <time>2018-04-01T19:00:10Z</time>
      </trkpt>
      <trkpt lat="49.2389" lon="4.5041">
        <ele>119</ele>
        <time>2018-04-01T19:01:10Z</time>
      </trkpt>
      <trkpt lat="49.23892" lon="4.50406">
        <ele>120</ele>
        <time>2018-04-01T19:02:10Z</time>
      </trkpt>
      <trkpt lat="49.23898" lon="4.50392">
        <ele>120</ele>
        <time>2018-04-01T19:03:10Z</time>
      </trkpt>
      <trkpt lat="49.23902" lon="4.50378">
        <ele>120</ele>
        <time>2018-04-01T19:04:10Z</time>
      </trkpt>
      <trkpt lat="49.23904" lon="4.50369">
        <ele>120</ele>
        <time>2018-04-01T19:05:10Z</time>
      </trkpt>
      <trkpt lat="49.23904" lon="4.50365">
        <ele>120</ele>
        <time>2018-04-01T19:06:10Z</time>
      </trkpt>
      <trkpt lat="49.23905" lon="4.50354">
        <ele>121</ele>
        <time>2018-04-01T19:07:10Z</time>
      </trkpt>
      <trkpt lat="49.23905" lon="4.50343">
        <ele>121</ele>
        <time>2018-04-01T19:08:10Z</time>
      </trkpt>
      <trkpt lat="49.23901" lon="4.50316">
        <ele>121</ele>
        <time>2018-04-01T19:09:10Z</time>
      </trkpt>
      <trkpt lat="49.23891" lon="4.50249">
        <ele>121</ele>
        <time>2018-04-01T19:10:10Z</time>
      </trkpt>
      <trkpt lat="49.2388" lon="4.50178">
        <ele>122</ele>
        <time>2018-04-01T19:11:10Z</time>
      </trkpt>
      <trkpt lat="49.23877" lon="4.50152">
        <ele>122</ele>
        <time>2018-04-01T19:12:10Z</time>
      </trkpt>
      <trkpt lat="49.23873" lon="4.50121">
        <ele>122</ele>
        <time>2018-04-01T19:13:10Z</time>
      </trkpt>
      <trkpt lat="49.23866" lon="4.5007">
        <ele>121</ele>
        <time>2018-04-01T19:14:10Z</time>
      </trkpt>
      <trkpt lat="49.2386" lon="4.50033">
        <ele>122</ele>
        <time>2018-04-01T19:15:10Z</time>
      </trkpt>
      <trkpt lat="49.23853" lon="4.50001">
        <ele>122</ele>
        <time>2018-04-01T19:16:10Z</time>
      </trkpt>
      <trkpt lat="49.23847" lon="4.49977">
        <ele>122</ele>
        <time>2018-04-01T19:17:10Z</time>
      </trkpt>
      <trkpt lat="49.23842" lon="4.49954">
        <ele>122</ele>
        <time>2018-04-01T19:18:10Z</time>
      </trkpt>
      <trkpt lat="49.23839" lon="4.49946">
        <ele>122</ele>
        <time>2018-04-01T19:19:10Z</time>
      </trkpt>
      <trkpt lat="49.23829" lon="4.49912">
        <ele>122</ele>
        <time>2018-04-01T19:20:10Z</time>
      </trkpt>
      <trkpt lat="49.23816" lon="4.4987">
        <ele>123</ele>
        <time>2018-04-01T19:21:10Z</time>
      </trkpt>
      <trkpt lat="49.238" lon="4.49819">
        <ele>124</ele>
        <time>2018-04-01T19:22:10Z</time>
      </trkpt>
      <trkpt lat="49.23785" lon="4.49769">
        <ele>124</ele>
        <time>2018-04-01T19:23:10Z</time>
      </trkpt>
      <trkpt lat="49.23782" lon="4.49761">
        <ele>124</ele>
        <time>2018-04-01T19:24:10Z</time>
      </trkpt>
      <trkpt lat="49.2377" lon="4.49724">
        <ele>124</ele>
        <time>2018-04-01T19:25:10Z</time>
      </trkpt>
      <trkpt lat="49.23769" lon="4.49722">
        <ele>123</ele>
        <time>2018-04-01T19:26:10Z</time>
      </trkpt>
      <trkpt lat="49.23754" lon="4.49675">
        <ele>123</ele>
        <time>2018-04-01T19:27:10Z</time>
      </trkpt>
      <trkpt lat="49.23745" lon="4.49644">
        <ele>123</ele>
        <time>2018-04-01T19:28:10Z</time>
      </trkpt>
      <trkpt lat="49.23742" lon="4.49634">
        <ele>123</ele>
        <time>2018-04-01T19:29:10Z</time>
      </trkpt>
      <trkpt lat="49.23736" lon="4.49607">
        <ele>123</ele>
        <time>2018-04-01T19:30:10Z</time>
      </trkpt>
      <trkpt lat="49.23732" lon="4.49584">
        <ele>123</ele>
        <time>2018-04-01T19:31:10Z</time>
      </trkpt>
      <trkpt lat="49.23731" lon="4.49579">
        <ele>123</ele>
        <time>2018-04-01T19:32:10Z</time>
      </trkpt>
      <trkpt lat="49.23726" lon="4.49549">
        <ele>124</ele>
        <time>2018-04-01T19:33:10Z</time>
      </trkpt>
      <trkpt lat="49.23721" lon="4.49514">
        <ele>124</ele>
        <time>2018-04-01T19:34:10Z</time>
      </trkpt>
      <trkpt lat="49.23717" lon="4.49476">
        <ele>125</ele>
        <time>2018-04-01T19:35:10Z</time>
      </trkpt>
      <trkpt lat="49.23716" lon="4.49463">
        <ele>125</ele>
        <time>2018-04-01T19:36:10Z</time>
      </trkpt>
      <trkpt lat="49.23708" lon="4.494">
        <ele>126</ele>
        <time>2018-04-01T19:37:10Z</time>
      </trkpt>
      <trkpt lat="49.23706" lon="4.49381">
        <ele>126</ele>
        <time>2018-04-01T19:38:10Z</time>
      </trkpt>
      <trkpt lat="49.23698" lon="4.49321">
        <ele>127</ele>
        <time>2018-04-01T19:39:10Z</time>
      </trkpt>
      <trkpt lat="49.23695" lon="4.49303">
        <ele>127</ele>
        <time>2018-04-01T19:40:10Z</time>
      </trkpt>
      <trkpt lat="49.23695" lon="4.49301">
        <ele>127</ele>
        <time>2018-04-01T19:41:10Z</time>
      </trkpt>
      <trkpt lat="49.23682" lon="4.49207">
        <ele>128</ele>
        <time>2018-04-01T19:42:10Z</time>
      </trkpt>
      <trkpt lat="49.23673" lon="4.49148">
        <ele>127</ele>
        <time>2018-04-01T19:43:10Z</time>
      </trkpt>
      <trkpt lat="49.2367" lon="4.49128">
        <ele>127</ele>
        <time>2018-04-01T19:44:10Z</time>
      </trkpt>
      <trkpt lat="49.2366" lon="4.49063">
        <ele>126</ele>
        <time>2018-04-01T19:45:10Z</time>
      </trkpt>
      <trkpt lat="49.23659" lon="4.49057">
        <ele>126</ele>
        <time>2018-04-01T19:46:10Z</time>
      </trkpt>
      <trkpt lat="49.2365" lon="4.49002">
        <ele>126</ele>
        <time>2018-04-01T19:47:10Z</time>
      </trkpt>
      <trkpt lat="49.2364" lon="4.48937">
        <ele>126</ele>
        <time>2018-04-01T19:48:10Z</time>
      </trkpt>
      <trkpt lat="49.23636" lon="4.48911">
        <ele>126</ele>
        <time>2018-04-01T19:49:10Z</time>
      </trkpt>
      <trkpt lat="49.23631" lon="4.48873">
        <ele>126</ele>
        <time>2018-04-01T19:50:10Z</time>
      </trkpt>
      <trkpt lat="49.23621" lon="4.4881">
        <ele>126</ele>
        <time>2018-04-01T19:51:10Z</time>
      </trkpt>
      <trkpt lat="49.23608" lon="4.48719">
        <ele>126</ele>
        <time>2018-04-01T19:52:10Z</time>
      </trkpt>
      <trkpt lat="49.23595" lon="4.48633">
        <ele>125</ele>
        <time>2018-04-01T19:53:10Z</time>
      </trkpt>
      <trkpt lat="49.23585" lon="4.48564">
        <ele>124</ele>
        <time>2018-04-01T19:54:10Z</time>
      </trkpt>
      <trkpt lat="49.23574" lon="4.48492">
        <ele>123</ele>
        <time>2018-04-01T19:55:10Z</time>
      </trkpt>
      <trkpt lat="49.23564" lon="4.48426">
        <ele>123</ele>
        <time>2018-04-01T19:56:10Z</time>
      </trkpt>
      <trkpt lat="49.23559" lon="4.48387">
        <ele>123</ele>
        <time>2018-04-01T19:57:10Z</time>
      </trkpt>
      <trkpt lat="49.23553" lon="4.48351">
        <ele>124</ele>
        <time>2018-04-01T19:58:10Z</time>
      </trkpt>
      <trkpt lat="49.23549" lon="4.48323">
        <ele>124</ele>
        <time>2018-04-01T19:59:10Z</time>
      </trkpt>
      <trkpt lat="49.23543" lon="4.48282">
        <ele>124</ele>
        <time>2018-04-01T20:00:10Z</time>
      </trkpt>
      <trkpt lat="49.23528" lon="4.48183">
        <ele>123</ele>
        <time>2018-04-01T20:01:10Z</time>
      </trkpt>
      <trkpt lat="49.23516" lon="4.48106">
        <ele>122</ele>
        <time>2018-04-01T20:02:10Z</time>
      </trkpt>
      <trkpt lat="49.23511" lon="4.48068">
        <ele>122</ele>
        <time>2018-04-01T20:03:10Z</time>
      </trkpt>
      <trkpt lat="49.23503" lon="4.48011">
        <ele>121</ele>
        <time>2018-04-01T20:04:10Z</time>
      </trkpt>
      <trkpt lat="49.23496" lon="4.47967">
        <ele>121</ele>
        <time>2018-04-01T20:05:10Z</time>
      </trkpt>
      <trkpt lat="49.23492" lon="4.4794">
        <ele>121</ele>
        <time>2018-04-01T20:06:10Z</time>
      </trkpt>
      <trkpt lat="49.2349" lon="4.47928">
        <ele>121</ele>
        <time>2018-04-01T20:07:10Z</time>
      </trkpt>
      <trkpt lat="49.23479" lon="4.47849">
        <ele>121</ele>
        <time>2018-04-01T20:08:10Z</time>
      </trkpt>
      <trkpt lat="49.23465" lon="4.47765">
        <ele>120</ele>
        <time>2018-04-01T20:09:10Z</time>
      </trkpt>
      <trkpt lat="49.23455" lon="4.47697">
        <ele>120</ele>
        <time>2018-04-01T20:10:10Z</time>
      </trkpt>
      <trkpt lat="49.23454" lon="4.47692">
        <ele>120</ele>
        <time>2018-04-01T20:11:10Z</time>
      </trkpt>
      <trkpt lat="49.23447" lon="4.47637">
        <ele>119</ele>
        <time>2018-04-01T20:12:10Z</time>
      </trkpt>
      <trkpt lat="49.23442" lon="4.47599">
        <ele>119</ele>
        <time>2018-04-01T20:13:10Z</time>
      </trkpt>
      <trkpt lat="49.23441" lon="4.4759">
        <ele>119</ele>
        <time>2018-04-01T20:14:10Z</time>
      </trkpt>
      <trkpt lat="49.23441" lon="4.47588">
        <ele>119</ele>
        <time>2018-04-01T20:15:10Z</time>
      </trkpt>
      <trkpt lat="49.23437" lon="4.47561">
        <ele>119</ele>
        <time>2018-04-01T20:16:10Z</time>
      </trkpt>
      <trkpt lat="49.23436" lon="4.47535">
        <ele>118</ele>
        <time>2018-04-01T20:17:10Z</time>
      </trkpt>
      <trkpt lat="49.23435" lon="4.47511">
        <ele>118</ele>
        <time>2018-04-01T20:18:10Z</time>
      </trkpt>
      <trkpt lat="49.23435" lon="4.47492">
        <ele>118</ele>
        <time>2018-04-01T20:19:10Z</time>
      </trkpt>
      <trkpt lat="49.23436" lon="4.4747">
        <ele>117</ele>
        <time>2018-04-01T20:20:10Z</time>
      </trkpt>
      <trkpt lat="49.23437" lon="4.47447">
        <ele>117</ele>
        <time>2018-04-01T20:21:10Z</time>
      </trkpt>
      <trkpt lat="49.23439" lon="4.47431">
        <ele>117</ele>
        <time>2018-04-01T20:22:10Z</time>
      </trkpt>
      <trkpt lat="49.2344" lon="4.47423">
        <ele>117</ele>
        <time>2018-04-01T20:23:10Z</time>
      </trkpt>
      <trkpt lat="49.23442" lon="4.47403">
        <ele>117</ele>
        <time>2018-04-01T20:24:10Z</time>
      </trkpt>
      <trkpt lat="49.23445" lon="4.47392">
        <ele>117</ele>
        <time>2018-04-01T20:25:10Z</time>
      </trkpt>
      <trkpt lat="49.23448" lon="4.47376">
        <ele>117</ele>
        <time>2018-04-01T20:26:10Z</time>
      </trkpt>
      <trkpt lat="49.23455" lon="4.47348">
        <ele>117</ele>
        <time>2018-04-01T20:27:10Z</time>
      </trkpt>
      <trkpt lat="49.2347" lon="4.47289">
        <ele>117</ele>
        <time>2018-04-01T20:28:10Z</time>
      </trkpt>
      <trkpt lat="49.23483" lon="4.47236">
        <ele>118</ele>
        <time>2018-04-01T20:29:10Z</time>
      </trkpt>
      <trkpt lat="49.23487" lon="4.47221">
        <ele>118</ele>
        <time>2018-04-01T20:30:10Z</time>
      </trkpt>
      <trkpt lat="49.23501" lon="4.4717">
        <ele>118</ele>
        <time>2018-04-01T20:31:10Z</time>
      </trkpt>
      <trkpt lat="49.23512" lon="4.47124">
        <ele>118</ele>
        <time>2018-04-01T20:32:10Z</time>
      </trkpt>
      <trkpt lat="49.23514" lon="4.4712">
        <ele>118</ele>
        <time>2018-04-01T20:33:10Z</time>
      </trkpt>
      <trkpt lat="49.23535" lon="4.47032">
        <ele>118</ele>
        <time>2018-04-01T20:34:10Z</time>
      </trkpt>
      <trkpt lat="49.23539" lon="4.47017">
        <ele>118</ele>
        <time>2018-04-01T20:35:10Z</time>
      </trkpt>
      <trkpt lat="49.23544" lon="4.46995">
        <ele>118</ele>
        <time>2018-04-01T20:36:10Z</time>
      </trkpt>
      <trkpt lat="49.23553" lon="4.46955">
        <ele>118</ele>
        <time>2018-04-01T20:37:10Z</time>
      </trkpt>
      <trkpt lat="49.23554" lon="4.46949">
        <ele>118</ele>
        <time>2018-04-01T20:38:10Z</time>
      </trkpt>
      <trkpt lat="49.2357" lon="4.46885">
        <ele>118</ele>
        <time>2018-04-01T20:39:10Z</time>
      </trkpt>
      <trkpt lat="49.23574" lon="4.4687">
        <ele>118</ele>
        <time>2018-04-01T20:40:10Z</time>
      </trkpt>
      <trkpt lat="49.23578" lon="4.46851">
        <ele>118</ele>
        <time>2018-04-01T20:41:10Z</time>
      </trkpt>
      <trkpt lat="49.2358" lon="4.46828">
        <ele>118</ele>
        <time>2018-04-01T20:42:10Z</time>
      </trkpt>
      <trkpt lat="49.23584" lon="4.46777">
        <ele>116</ele>
        <time>2018-04-01T20:43:10Z</time>
      </trkpt>
      <trkpt lat="49.23584" lon="4.46775">
        <ele>116</ele>
        <time>2018-04-01T20:44:10Z</time>
      </trkpt>
      <trkpt lat="49.23584" lon="4.46771">
        <ele>116</ele>
        <time>2018-04-01T20:45:10Z</time>
      </trkpt>
      <trkpt lat="49.23584" lon="4.46766">
        <ele>116</ele>
        <time>2018-04-01T20:46:10Z</time>
      </trkpt>
      <trkpt lat="49.23585" lon="4.4675">
        <ele>115</ele>
        <time>2018-04-01T20:47:10Z</time>
      </trkpt>
      <trkpt lat="49.23591" lon="4.46716">
        <ele>116</ele>
        <time>2018-04-01T20:48:10Z</time>
      </trkpt>
      <trkpt lat="49.23592" lon="4.46711">
        <ele>116</ele>
        <time>2018-04-01T20:49:10Z</time>
      </trkpt>
      <trkpt lat="49.23597" lon="4.4669">
        <ele>116</ele>
        <time>2018-04-01T20:50:10Z</time>
      </trkpt>
      <trkpt lat="49.23604" lon="4.46669">
        <ele>117</ele>
        <time>2018-04-01T20:51:10Z</time>
      </trkpt>
      <trkpt lat="49.23615" lon="4.46644">
        <ele>117</ele>
        <time>2018-04-01T20:52:10Z</time>
      </trkpt>
      <trkpt lat="49.23618" lon="4.46638">
        <ele>117</ele>
        <time>2018-04-01T20:53:10Z</time>
      </trkpt>
      <trkpt lat="49.23621" lon="4.46628">
        <ele>117</ele>
        <time>2018-04-01T20:54:10Z</time>
      </trkpt>
      <trkpt lat="49.23622" lon="4.46626">
        <ele>117</ele>
        <time>2018-04-01T20:55:10Z</time>
      </trkpt>
      <trkpt lat="49.23623" lon="4.46624">
        <ele>117</ele>
        <time>2018-04-01T20:56:10Z</time>
      </trkpt>
      <trkpt lat="49.23624" lon="4.46621">
        <ele>117</ele>
        <time>2018-04-01T20:57:10Z</time>
      </trkpt>
      <trkpt lat="49.23625" lon="4.46618">
        <ele>117</ele>
        <time>2018-04-01T20:58:10Z</time>
      </trkpt>
      <trkpt lat="49.23626" lon="4.46615">
        <ele>118</ele>
        <time>2018-04-01T20:59:10Z</time>
      </trkpt>
      <trkpt lat="49.23636" lon="4.46559">
        <ele>118</ele>
        <time>2018-04-01T21:00:10Z</time>
      </trkpt>
      <trkpt lat="49.2364" lon="4.46539">
        <ele>118</ele>
        <time>2018-04-01T21:01:10Z</time>
      </trkpt>
      <trkpt lat="49.23642" lon="4.46529">
        <ele>118</ele>
        <time>2018-04-01T21:02:10Z</time>
      </trkpt>
      <trkpt lat="49.23646" lon="4.46507">
        <ele>118</ele>
        <time>2018-04-01T21:03:10Z</time>
      </trkpt>
      <trkpt lat="49.23655" lon="4.46467">
        <ele>117</ele>
        <time>2018-04-01T21:04:10Z</time>
      </trkpt>
      <trkpt lat="49.23665" lon="4.46426">
        <ele>116</ele>
        <time>2018-04-01T21:05:10Z</time>
      </trkpt>
      <trkpt lat="49.2367" lon="4.46411">
        <ele>116</ele>
        <time>2018-04-01T21:06:10Z</time>
      </trkpt>
      <trkpt lat="49.23672" lon="4.46405">
        <ele>116</ele>
        <time>2018-04-01T21:07:10Z</time>
      </trkpt>
      <trkpt lat="49.23676" lon="4.46396">
        <ele>117</ele>
        <time>2018-04-01T21:08:10Z</time>
      </trkpt>
      <trkpt lat="49.23697" lon="4.46344">
        <ele>118</ele>
        <time>2018-04-01T21:09:10Z</time>
      </trkpt>
      <trkpt lat="49.23705" lon="4.46325">
        <ele>118</ele>
        <time>2018-04-01T21:10:10Z</time>
      </trkpt>
      <trkpt lat="49.23706" lon="4.46322">
        <ele>118</ele>
        <time>2018-04-01T21:11:10Z</time>
      </trkpt>
      <trkpt lat="49.23708" lon="4.46315">
        <ele>118</ele>
        <time>2018-04-01T21:12:10Z</time>
      </trkpt>
      <trkpt lat="49.23709" lon="4.46305">
        <ele>118</ele>
        <time>2018-04-01T21:13:10Z</time>
      </trkpt>
      <trkpt lat="49.23709" lon="4.46291">
        <ele>118</ele>
        <time>2018-04-01T21:14:10Z</time>
      </trkpt>
      <trkpt lat="49.23709" lon="4.46288">
        <ele>118</ele>
        <time>2018-04-01T21:15:10Z</time>
      </trkpt>
      <trkpt lat="49.23709" lon="4.46259">
        <ele>118</ele>
        <time>2018-04-01T21:16:10Z</time>
      </trkpt>
      <trkpt lat="49.23707" lon="4.46204">
        <ele>118</ele>
        <time>2018-04-01T21:17:10Z</time>
      </trkpt>
      <trkpt lat="49.23707" lon="4.46196">
        <ele>118</ele>
        <time>2018-04-01T21:18:10Z</time>
      </trkpt>
      <trkpt lat="49.23707" lon="4.46192">
        <ele>118</ele>
        <time>2018-04-01T21:19:10Z</time>
      </trkpt>
      <trkpt lat="49.23707" lon="4.46174">
        <ele>117</ele>
        <time>2018-04-01T21:20:10Z</time>
      </trkpt>
      <trkpt lat="49.23708" lon="4.46168">
        <ele>117</ele>
        <time>2018-04-01T21:21:10Z</time>
      </trkpt>
      <trkpt lat="49.2371" lon="4.4613">
        <ele>117</ele>
        <time>2018-04-01T21:22:10Z</time>
      </trkpt>
      <trkpt lat="49.2371" lon="4.46122">
        <ele>117</ele>
        <time>2018-04-01T21:23:10Z</time>
      </trkpt>
      <trkpt lat="49.23712" lon="4.46105">
        <ele>117</ele>
        <time>2018-04-01T21:24:10Z</time>
      </trkpt>
      <trkpt lat="49.23718" lon="4.46054">
        <ele>117</ele>
        <time>2018-04-01T21:25:10Z</time>
      </trkpt>
      <trkpt lat="49.23719" lon="4.4604">
        <ele>117</ele>
        <time>2018-04-01T21:26:10Z</time>
      </trkpt>
      <trkpt lat="49.23739" lon="4.45906">
        <ele>116</ele>
        <time>2018-04-01T21:27:10Z</time>
      </trkpt>
      <trkpt lat="49.23749" lon="4.45824">
        <ele>115</ele>
        <time>2018-04-01T21:28:10Z</time>
      </trkpt>
      <trkpt lat="49.23758" lon="4.45703">
        <ele>115</ele>
        <time>2018-04-01T21:29:10Z</time>
      </trkpt>
      <trkpt lat="49.23759" lon="4.4569">
        <ele>115</ele>
        <time>2018-04-01T21:30:10Z</time>
      </trkpt>
      <trkpt lat="49.23769" lon="4.45521">
        <ele>115</ele>
        <time>2018-04-01T21:31:10Z</time>
      </trkpt>
      <trkpt lat="49.23776" lon="4.45434">
        <ele>115</ele>
        <time>2018-04-01T21:32:10Z</time>
      </trkpt>
      <trkpt lat="49.23785" lon="4.4534">
        <ele>114</ele>
        <time>2018-04-01T21:33:10Z</time>
      </trkpt>
      <trkpt lat="49.23802" lon="4.45221">
        <ele>115</ele>
        <time>2018-04-01T21:34:10Z</time>
      </trkpt>
      <trkpt lat="49.23815" lon="4.45144">
        <ele>115</ele>
        <time>2018-04-01T21:35:10Z</time>
      </trkpt>
      <trkpt lat="49.23824" lon="4.45091">
        <ele>116</ele>
        <time>2018-04-01T21:36:10Z</time>
      </trkpt>
      <trkpt lat="49.23832" lon="4.45037">
        <ele>115</ele>
        <time>2018-04-01T21:37:10Z</time>
      </trkpt>
      <trkpt lat="49.23859" lon="4.44821">
        <ele>113</ele>
        <time>2018-04-01T21:38:10Z</time>
      </trkpt>
      <trkpt lat="49.23865" lon="4.44786">
        <ele>113</ele>
        <time>2018-04-01T21:39:10Z</time>
      </trkpt>
      <trkpt lat="49.23871" lon="4.44751">
        <ele>113</ele>
        <time>2018-04-01T21:40:10Z</time>
      </trkpt>
      <trkpt lat="49.23883" lon="4.4469">
        <ele>114</ele>
        <time>2018-04-01T21:41:10Z</time>
      </trkpt>
      <trkpt lat="49.23917" lon="4.4453">
        <ele>114</ele>
        <time>2018-04-01T21:42:10Z</time>
      </trkpt>
      <trkpt lat="49.23935" lon="4.44448">
        <ele>114</ele>
        <time>2018-04-01T21:43:10Z</time>
      </trkpt>
      <trkpt lat="49.23949" lon="4.4439">
        <ele>114</ele>
        <time>2018-04-01T21:44:10Z</time>
      </trkpt>
      <trkpt lat="49.23964" lon="4.4433">
        <ele>114</ele>
        <time>2018-04-01T21:45:10Z</time>
      </trkpt>
      <trkpt lat="49.23975" lon="4.44291">
        <ele>113</ele>
        <time>2018-04-01T21:46:10Z</time>
      </trkpt>
      <trkpt lat="49.23976" lon="4.44287">
        <ele>113</ele>
        <time>2018-04-01T21:47:10Z</time>
      </trkpt>
      <trkpt lat="49.23992" lon="4.44234">
        <ele>112</ele>
        <time>2018-04-01T21:48:10Z</time>
      </trkpt>
      <trkpt lat="49.24021" lon="4.44132">
        <ele>111</ele>
        <time>2018-04-01T21:49:10Z</time>
      </trkpt>
      <trkpt lat="49.2403" lon="4.441">
        <ele>111</ele>
        <time>2018-04-01T21:50:10Z</time>
      </trkpt>
      <trkpt lat="49.24044" lon="4.44052">
        <ele>111</ele>
        <time>2018-04-01T21:51:10Z</time>
      </trkpt>
      <trkpt lat="49.24069" lon="4.43962">
        <ele>113</ele>
        <time>2018-04-01T21:52:10Z</time>
      </trkpt>
      <trkpt lat="49.24084" lon="4.43912">
        <ele>113</ele>
        <time>2018-04-01T21:53:10Z</time>
      </trkpt>
      <trkpt lat="49.24104" lon="4.43838">
        <ele>114</ele>
        <time>2018-04-01T21:54:10Z</time>
      </trkpt>
      <trkpt lat="49.24113" lon="4.4381">
        <ele>114</ele>
        <time>2018-04-01T21:55:10Z</time>
      </trkpt>
      <trkpt lat="49.24116" lon="4.43799">
        <ele>114</ele>
        <time>2018-04-01T21:56:10Z</time>
      </trkpt>
      <trkpt lat="49.24122" lon="4.43779">
        <ele>113</ele>
        <time>2018-04-01T21:57:10Z</time>
      </trkpt>
      <trkpt lat="49.24137" lon="4.43715">
        <ele>113</ele>
        <time>2018-04-01T21:58:10Z</time>
      </trkpt>
      <trkpt lat="49.24154" lon="4.43633">
        <ele>114</ele>
        <time>2018-04-01T21:59:10Z</time>
      </trkpt>
      <trkpt lat="49.24184" lon="4.43495">
        <ele>115</ele>
        <time>2018-04-01T22:00:10Z</time>
      </trkpt>
      <trkpt lat="49.242" lon="4.43419">
        <ele>115</ele>
        <time>2018-04-01T22:01:10Z</time>
      </trkpt>
      <trkpt lat="49.24201" lon="4.43413">
        <ele>115</ele>
        <time>2018-04-01T22:02:10Z</time>
      </trkpt>
      <trkpt lat="49.2421" lon="4.43368">
        <ele>115</ele>
        <time>2018-04-01T22:03:10Z</time>
      </trkpt>
      <trkpt lat="49.24215" lon="4.43334">
        <ele>115</ele>
        <time>2018-04-01T22:04:10Z</time>
      </trkpt>
      <trkpt lat="49.24217" lon="4.43322">
        <ele>114</ele>
        <time>2018-04-01T22:05:10Z</time>
      </trkpt>
      <trkpt lat="49.24228" lon="4.43229">
        <ele>113</ele>
        <time>2018-04-01T22:06:10Z</time>
      </trkpt>
      <trkpt lat="49.24231" lon="4.43201">
        <ele>113</ele>
        <time>2018-04-01T22:07:10Z</time>
      </trkpt>
      <trkpt lat="49.24244" lon="4.431">
        <ele>112</ele>
        <time>2018-04-01T22:08:10Z</time>
      </trkpt>
      <trkpt lat="49.24255" lon="4.43003">
        <ele>111</ele>
        <time>2018-04-01T22:09:10Z</time>
      </trkpt>
      <trkpt lat="49.24263" lon="4.42941">
        <ele>110</ele>
        <time>2018-04-01T22:10:10Z</time>
      </trkpt>
      <trkpt lat="49.24278" lon="4.42823">
        <ele>109</ele>
        <time>2018-04-01T22:11:10Z</time>
      </trkpt>
      <trkpt lat="49.24299" lon="4.42649">
        <ele>112</ele>
        <time>2018-04-01T22:12:10Z</time>
      </trkpt>
      <trkpt lat="49.24324" lon="4.4245">
        <ele>111</ele>
        <time>2018-04-01T22:13:10Z</time>
      </trkpt>
      <trkpt lat="49.2436" lon="4.42153">
        <ele>109</ele>
        <time>2018-04-01T22:14:10Z</time>
      </trkpt>
      <trkpt lat="49.24366" lon="4.42106">
        <ele>110</ele>
        <time>2018-04-01T22:15:10Z</time>
      </trkpt>
      <trkpt lat="49.24377" lon="4.42014">
        <ele>111</ele>
        <time>2018-04-01T22:16:10Z</time>
      </trkpt>
      <trkpt lat="49.24381" lon="4.41979">
        <ele>110</ele>
        <time>2018-04-01T22:17:10Z</time>
      </trkpt>
      <trkpt lat="49.24392" lon="4.41894">
        <ele>109</ele>
        <time>2018-04-01T22:18:10Z</time>
      </trkpt>
      <trkpt lat="49.24399" lon="4.41828">
        <ele>108</ele>
        <time>2018-04-01T22:19:10Z</time>
      </trkpt>
      <trkpt lat="49.24424" lon="4.41636">
        <ele>108</ele>
        <time>2018-04-01T22:20:10Z</time>
      </trkpt>
      <trkpt lat="49.24438" lon="4.41528">
        <ele>108</ele>
        <time>2018-04-01T22:21:10Z</time>
      </trkpt>
      <trkpt lat="49.24439" lon="4.41517">
        <ele>108</ele>
        <time>2018-04-01T22:22:10Z</time>
      </trkpt>
      <trkpt lat="49.24446" lon="4.41452">
        <ele>109</ele>
        <time>2018-04-01T22:23:10Z</time>
      </trkpt>
      <trkpt lat="49.24449" lon="4.41418">
        <ele>109</ele>
        <time>2018-04-01T22:24:10Z</time>
      </trkpt>
      <trkpt lat="49.2445" lon="4.41404">
        <ele>109</ele>
        <time>2018-04-01T22:25:10Z</time>
      </trkpt>
      <trkpt lat="49.24452" lon="4.41383">
        <ele>108</ele>
        <time>2018-04-01T22:26:10Z</time>
      </trkpt>
      <trkpt lat="49.24454" lon="4.41351">
        <ele>108</ele>
        <time>2018-04-01T22:27:10Z</time>
      </trkpt>
      <trkpt lat="49.24454" lon="4.41344">
        <ele>108</ele>
        <time>2018-04-01T22:28:10Z</time>
      </trkpt>
      <trkpt lat="49.24458" lon="4.41299">
        <ele>107</ele>
        <time>2018-04-01T22:29:10Z</time>
      </trkpt>
      <trkpt lat="49.24462" lon="4.41277">
        <ele>107</ele>
        <time>2018-04-01T22:30:10Z</time>
      </trkpt>
      <trkpt lat="49.2447" lon="4.41255">
        <ele>106</ele>
        <time>2018-04-01T22:31:10Z</time>
      </trkpt>
      <trkpt lat="49.24473" lon="4.41248">
        <ele>106</ele>
        <time>2018-04-01T22:32:10Z</time>
      </trkpt>
      <trkpt lat="49.24479" lon="4.41235">
        <ele>106</ele>
        <time>2018-04-01T22:33:10Z</time>
      </trkpt>
      <trkpt lat="49.24492" lon="4.41208">
        <ele>106</ele>
        <time>2018-04-01T22:34:10Z</time>
      </trkpt>
      <trkpt lat="49.24513" lon="4.41159">
        <ele>106</ele>
        <time>2018-04-01T22:35:10Z</time>
      </trkpt>
      <trkpt lat="49.24518" lon="4.4115">
        <ele>107</ele>
        <time>2018-04-01T22:36:10Z</time>
      </trkpt>
      <trkpt lat="49.24525" lon="4.41136">
        <ele>107</ele>
        <time>2018-04-01T22:37:10Z</time>
      </trkpt>
      <trkpt lat="49.24566" lon="4.41052">
        <ele>107</ele>
        <time>2018-04-01T22:38:10Z</time>
      </trkpt>
      <trkpt lat="49.24566" lon="4.41052">
        <ele>107</ele>
        <time>2018-04-01T22:39:10Z</time>
      </trkpt>
      <trkpt lat="49.2457" lon="4.41052">
        <ele>108</ele>
        <time>2018-04-01T22:40:10Z</time>
      </trkpt>
      <trkpt lat="49.24571" lon="4.41051">
        <ele>108</ele>
        <time>2018-04-01T22:41:10Z</time>
      </trkpt>
      <trkpt lat="49.24572" lon="4.4105">
        <ele>108</ele>
        <time>2018-04-01T22:42:10Z</time>
      </trkpt>
      <trkpt lat="49.2458" lon="4.41043">
        <ele>107</ele>
        <time>2018-04-01T22:43:10Z</time>
      </trkpt>
      <trkpt lat="49.24584" lon="4.41038">
        <ele>107</ele>
        <time>2018-04-01T22:44:10Z</time>
      </trkpt>
      <trkpt lat="49.24586" lon="4.41033">
        <ele>107</ele>
        <time>2018-04-01T22:45:10Z</time>
      </trkpt>
      <trkpt lat="49.24604" lon="4.40995">
        <ele>107</ele>
        <time>2018-04-01T22:46:10Z</time>
      </trkpt>
      <trkpt lat="49.24618" lon="4.40964">
        <ele>108</ele>
        <time>2018-04-01T22:47:10Z</time>
      </trkpt>
      <trkpt lat="49.24624" lon="4.40955">
        <ele>108</ele>
        <time>2018-04-01T22:48:10Z</time>
      </trkpt>
      <trkpt lat="49.2463" lon="4.40946">
        <ele>108</ele>
        <time>2018-04-01T22:49:10Z</time>
      </trkpt>
      <trkpt lat="49.24635" lon="4.40941">
        <ele>108</ele>
        <time>2018-04-01T22:50:10Z</time>
      </trkpt>
      <trkpt lat="49.24643" lon="4.40934">
        <ele>108</ele>
        <time>2018-04-01T22:51:10Z</time>
      </trkpt>
      <trkpt lat="49.24668" lon="4.40915">
        <ele>108</ele>
        <time>2018-04-01T22:52:10Z</time>
      </trkpt>
      <trkpt lat="49.24742" lon="4.40864">
        <ele>109</ele>
        <time>2018-04-01T22:53:10Z</time>
      </trkpt>
      <trkpt lat="49.24749" lon="4.4086">
        <ele>109</ele>
        <time>2018-04-01T22:54:10Z</time>
      </trkpt>
      <trkpt lat="49.24756" lon="4.40858">
        <ele>109</ele>
        <time>2018-04-01T22:55:10Z</time>
      </trkpt>
      <trkpt lat="49.24762" lon="4.40857">
        <ele>109</ele>
        <time>2018-04-01T22:56:10Z</time>
      </trkpt>
      <trkpt lat="49.24768" lon="4.40857">
        <ele>109</ele>
        <time>2018-04-01T22:57:10Z</time>
      </trkpt>
      <trkpt lat="49.24774" lon="4.40858">
        <ele>109</ele>
        <time>2018-04-01T22:58:10Z</time>
      </trkpt>
      <trkpt lat="49.24792" lon="4.40861">
        <ele>110</ele>
        <time>2018-04-01T22:59:10Z</time>
      </trkpt>
      <trkpt lat="49.24795" lon="4.40862">
        <ele>110</ele>
        <time>2018-04-01T23:00:10Z</time>
      </trkpt>
      <trkpt lat="49.24808" lon="4.40864">
        <ele>110</ele>
        <time>2018-04-01T23:01:10Z</time>
      </trkpt>
      <trkpt lat="49.24822" lon="4.40868">
        <ele>110</ele>
        <time>2018-04-01T23:02:10Z</time>
      </trkpt>
      <trkpt lat="49.24825" lon="4.40868">
        <ele>110</ele>
        <time>2018-04-01T23:03:10Z</time>
      </trkpt>
      <trkpt lat="49.24844" lon="4.40873">
        <ele>110</ele>
        <time>2018-04-01T23:04:10Z</time>
      </trkpt>
      <trkpt lat="49.24865" lon="4.40877">
        <ele>110</ele>
        <time>2018-04-01T23:05:10Z</time>
      </trkpt>
      <trkpt lat="49.24872" lon="4.40878">
        <ele>110</ele>
        <time>2018-04-01T23:06:10Z</time>
      </trkpt>
      <trkpt lat="49.2488" lon="4.40875">
        <ele>110</ele>
        <time>2018-04-01T23:07:10Z</time>
      </trkpt>
      <trkpt lat="49.24891" lon="4.40868">
        <ele>110</ele>
        <time>2018-04-01T23:08:10Z</time>
      </trkpt>
      <trkpt lat="49.24936" lon="4.40834">
        <ele>109</ele>
        <time>2018-04-01T23:09:10Z</time>
      </trkpt>
      <trkpt lat="49.24937" lon="4.40833">
        <ele>109</ele>
        <time>2018-04-01T23:10:10Z</time>
      </trkpt>
      <trkpt lat="49.24941" lon="4.4083">
        <ele>109</ele>
        <time>2018-04-01T23:11:10Z</time>
      </trkpt>
      <trkpt lat="49.24962" lon="4.40813">
        <ele>109</ele>
        <time>2018-04-01T23:12:10Z</time>
      </trkpt>
      <trkpt lat="49.24982" lon="4.40797">
        <ele>108</ele>
        <time>2018-04-01T23:13:10Z</time>
      </trkpt>
      <trkpt lat="49.24995" lon="4.40785">
        <ele>108</ele>
        <time>2018-04-01T23:14:10Z</time>
      </trkpt>
      <trkpt lat="49.25006" lon="4.40771">
        <ele>108</ele>
        <time>2018-04-01T23:15:10Z</time>
      </trkpt>
      <trkpt lat="49.25006" lon="4.40771">
        <ele>108</ele>
        <time>2018-04-01T23:16:10Z</time>
      </trkpt>
      <trkpt lat="49.24972" lon="4.40679">
        <ele>105</ele>
        <time>2018-04-01T23:17:10Z</time>
      </trkpt>
      <trkpt lat="49.24972" lon="4.40679">
        <ele>105</ele>
        <time>2018-04-01T23:18:10Z</time>
      </trkpt>
      <trkpt lat="49.24969" lon="4.40682">
        <ele>105</ele>
        <time>2018-04-01T23:19:10Z</time>
      </trkpt>
      <trkpt lat="49.24963" lon="4.40666">
        <ele>105</ele>
        <time>2018-04-01T23:20:10Z</time>
      </trkpt>
      <trkpt lat="49.24957" lon="4.40649">
        <ele>105</ele>
        <time>2018-04-01T23:21:10Z</time>
      </trkpt>
      <trkpt lat="49.24951" lon="4.4064">
        <ele>105</ele>
        <time>2018-04-01T23:22:10Z</time>
      </trkpt>
      <trkpt lat="49.24945" lon="4.40633">
        <ele>105</ele>
        <time>2018-04-01T23:23:10Z</time>
      </trkpt>
      <trkpt lat="49.24936" lon="4.40625">
        <ele>105</ele>
        <time>2018-04-01T23:24:10Z</time>
      </trkpt>
      <trkpt lat="49.24935" lon="4.40624">
        <ele>105</ele>
        <time>2018-04-01T23:25:10Z</time>
      </trkpt>
      <trkpt lat="49.24921" lon="4.40614">
        <ele>105</ele>
        <time>2018-04-01T23:26:10Z</time>
      </trkpt>
      <trkpt lat="49.24903" lon="4.40603">
        <ele>105</ele>
        <time>2018-04-01T23:27:10Z</time>
      </trkpt>
      <trkpt lat="49.24891" lon="4.40596">
        <ele>105</ele>
        <time>2018-04-01T23:28:10Z</time>
      </trkpt>
      <trkpt lat="49.24857" lon="4.40575">
        <ele>106</ele>
        <time>2018-04-01T23:29:10Z</time>
      </trkpt>
      <trkpt lat="49.2485" lon="4.40572">
        <ele>106</ele>
        <time>2018-04-01T23:30:10Z</time>
      </trkpt>
      <trkpt lat="49.24844" lon="4.40568">
        <ele>106</ele>
        <time>2018-04-01T23:31:10Z</time>
      </trkpt>
      <trkpt lat="49.24836" lon="4.40564">
        <ele>106</ele>
        <time>2018-04-01T23:32:10Z</time>
      </trkpt>
      <trkpt lat="49.24811" lon="4.40549">
        <ele>105</ele>
        <time>2018-04-01T23:33:10Z</time>
      </trkpt>
      <trkpt lat="49.24811" lon="4.40548">
        <ele>105</ele>
        <time>2018-04-01T23:34:10Z</time>
      </trkpt>
      <trkpt lat="49.24801" lon="4.40543">
        <ele>105</ele>
        <time>2018-04-01T23:35:10Z</time>
      </trkpt>
      <trkpt lat="49.24797" lon="4.4054">
        <ele>105</ele>
        <time>2018-04-01T23:36:10Z</time>
      </trkpt>
      <trkpt lat="49.24783" lon="4.40531">
        <ele>105</ele>
        <time>2018-04-01T23:37:10Z</time>
      </trkpt>
      <trkpt lat="49.24775" lon="4.40526">
        <ele>105</ele>
        <time>2018-04-01T23:38:10Z</time>
      </trkpt>
      <trkpt lat="49.24763" lon="4.40502">
        <ele>104</ele>
        <time>2018-04-01T23:39:10Z</time>
      </trkpt>
      <trkpt lat="49.2476" lon="4.40497">
        <ele>104</ele>
        <time>2018-04-01T23:40:10Z</time>
      </trkpt>
      <trkpt lat="49.24735" lon="4.40447">
        <ele>104</ele>
        <time>2018-04-01T23:41:10Z</time>
      </trkpt>
      <trkpt lat="49.24732" lon="4.40443">
        <ele>104</ele>
        <time>2018-04-01T23:42:10Z</time>
      </trkpt>
      <trkpt lat="49.24728" lon="4.4044">
        <ele>104</ele>
        <time>2018-04-01T23:43:10Z</time>
      </trkpt>
      <trkpt lat="49.24725" lon="4.40438">
        <ele>104</ele>
        <time>2018-04-01T23:44:10Z</time>
      </trkpt>
      <trkpt lat="49.24721" lon="4.40436">
        <ele>104</ele>
        <time>2018-04-01T23:45:10Z</time>
      </trkpt>
      <trkpt lat="49.24717" lon="4.40435">
        <ele>104</ele>
        <time>2018-04-01T23:46:10Z</time>
      </trkpt>
      <trkpt lat="49.24712" lon="4.40435">
        <ele>104</ele>
        <time>2018-04-01T23:47:10Z</time>
      </trkpt>
      <trkpt lat="49.24709" lon="4.40436">
        <ele>104</ele>
        <time>2018-04-01T23:48:10Z</time>
      </trkpt>
      <trkpt lat="49.247" lon="4.40439">
        <ele>104</ele>
        <time>2018-04-01T23:49:10Z</time>
      </trkpt>
      <trkpt lat="49.2469" lon="4.40444">
        <ele>104</ele>
        <time>2018-04-01T23:50:10Z</time>
      </trkpt>
      <trkpt lat="49.24681" lon="4.40449">
        <ele>105</ele>
        <time>2018-04-01T23:51:10Z</time>
      </trkpt>
      <trkpt lat="49.2467" lon="4.40456">
        <ele>105</ele>
        <time>2018-04-01T23:52:10Z</time>
      </trkpt>
      <trkpt lat="49.24644" lon="4.40476">
        <ele>105</ele>
        <time>2018-04-01T23:53:10Z</time>
      </trkpt>
      <trkpt lat="49.24621" lon="4.40496">
        <ele>106</ele>
        <time>2018-04-01T23:54:10Z</time>
      </trkpt>
      <trkpt lat="49.24612" lon="4.40504">
        <ele>106</ele>
        <time>2018-04-01T23:55:10Z</time>
      </trkpt>
      <trkpt lat="49.24608" lon="4.40504">
        <ele>106</ele>
        <time>2018-04-01T23:56:10Z</time>
      </trkpt>
      <trkpt lat="49.24603" lon="4.40504">
        <ele>106</ele>
        <time>2018-04-01T23:57:10Z</time>
      </trkpt>
      <trkpt lat="49.24599" lon="4.40503">
        <ele>106</ele>
        <time>2018-04-01T23:58:10Z</time>
      </trkpt>
      <trkpt lat="49.24596" lon="4.40502">
        <ele>107</ele>
        <time>2018-04-01T23:59:10Z</time>
      </trkpt>
      <trkpt lat="49.24593" lon="4.405">
        <ele>107</ele>
        <time>2018-04-02T00:00:10Z</time>
      </trkpt>
      <trkpt lat="49.24588" lon="4.40496">
        <ele>107</ele>
        <time>2018-04-02T00:01:10Z</time>
      </trkpt>
      <trkpt lat="49.24583" lon="4.40479">
        <ele>107</ele>
        <time>2018-04-02T00:02:10Z</time>
      </trkpt>
      <trkpt lat="49.24582" lon="4.40474">
        <ele>107</ele>
        <time>2018-04-02T00:03:10Z</time>
      </trkpt>
      <trkpt lat="49.24578" lon="4.40438">
        <ele>107</ele>
        <time>2018-04-02T00:04:10Z</time>
      </trkpt>
      <trkpt lat="49.24576" lon="4.40415">
        <ele>107</ele>
        <time>2018-04-02T00:05:10Z</time>
      </trkpt>
      <trkpt lat="49.24567" lon="4.40332">
        <ele>106</ele>
        <time>2018-04-02T00:06:10Z</time>
      </trkpt>
      <trkpt lat="49.24564" lon="4.40313">
        <ele>106</ele>
        <time>2018-04-02T00:07:10Z</time>
      </trkpt>
      <trkpt lat="49.24562" lon="4.40287">
        <ele>105</ele>
        <time>2018-04-02T00:08:10Z</time>
      </trkpt>
      <trkpt lat="49.2455" lon="4.40189">
        <ele>106</ele>
        <time>2018-04-02T00:09:10Z</time>
      </trkpt>
      <trkpt lat="49.24541" lon="4.4011">
        <ele>107</ele>
        <time>2018-04-02T00:10:10Z</time>
      </trkpt>
      <trkpt lat="49.2453" lon="4.40014">
        <ele>108</ele>
        <time>2018-04-02T00:11:10Z</time>
      </trkpt>
      <trkpt lat="49.24526" lon="4.39983">
        <ele>108</ele>
        <time>2018-04-02T00:12:10Z</time>
      </trkpt>
      <trkpt lat="49.2452" lon="4.39943">
        <ele>109</ele>
        <time>2018-04-02T00:13:10Z</time>
      </trkpt>
      <trkpt lat="49.24511" lon="4.39893">
        <ele>111</ele>
        <time>2018-04-02T00:14:10Z</time>
      </trkpt>
      <trkpt lat="49.24489" lon="4.39795">
        <ele>113</ele>
        <time>2018-04-02T00:15:10Z</time>
      </trkpt>
      <trkpt lat="49.24462" lon="4.39679">
        <ele>115</ele>
        <time>2018-04-02T00:16:10Z</time>
      </trkpt>
      <trkpt lat="49.24456" lon="4.39645">
        <ele>115</ele>
        <time>2018-04-02T00:17:10Z</time>
      </trkpt>
      <trkpt lat="49.24453" lon="4.39621">
        <ele>116</ele>
        <time>2018-04-02T00:18:10Z</time>
      </trkpt>
      <trkpt lat="49.24452" lon="4.39599">
        <ele>116</ele>
        <time>2018-04-02T00:19:10Z</time>
      </trkpt>
      <trkpt lat="49.24453" lon="4.39507">
        <ele>117</ele>
        <time>2018-04-02T00:20:10Z</time>
      </trkpt>
      <trkpt lat="49.24457" lon="4.39388">
        <ele>118</ele>
        <time>2018-04-02T00:21:10Z</time>
      </trkpt>
      <trkpt lat="49.24462" lon="4.39196">
        <ele>121</ele>
        <time>2018-04-02T00:22:10Z</time>
      </trkpt>
      <trkpt lat="49.24467" lon="4.39018">
        <ele>121</ele>
        <time>2018-04-02T00:23:10Z</time>
      </trkpt>
      <trkpt lat="49.24469" lon="4.38936">
        <ele>122</ele>
        <time>2018-04-02T00:24:10Z</time>
      </trkpt>
      <trkpt lat="49.2447" lon="4.38901">
        <ele>123</ele>
        <time>2018-04-02T00:25:10Z</time>
      </trkpt>
      <trkpt lat="49.24468" lon="4.38881">
        <ele>123</ele>
        <time>2018-04-02T00:26:10Z</time>
      </trkpt>
      <trkpt lat="49.24465" lon="4.38848">
        <ele>123</ele>
        <time>2018-04-02T00:27:10Z</time>
      </trkpt>
      <trkpt lat="49.24441" lon="4.38682">
        <ele>124</ele>
        <time>2018-04-02T00:28:10Z</time>
      </trkpt>
      <trkpt lat="49.2442" lon="4.38546">
        <ele>125</ele>
        <time>2018-04-02T00:29:10Z</time>
      </trkpt>
      <trkpt lat="49.24406" lon="4.38469">
        <ele>125</ele>
        <time>2018-04-02T00:30:10Z</time>
      </trkpt>
      <trkpt lat="49.24371" lon="4.38304">
        <ele>126</ele>
        <time>2018-04-02T00:31:10Z</time>
      </trkpt>
      <trkpt lat="49.24337" lon="4.38145">
        <ele>124</ele>
        <time>2018-04-02T00:32:10Z</time>
      </trkpt>
      <trkpt lat="49.24303" lon="4.37984">
        <ele>123</ele>
        <time>2018-04-02T00:33:10Z</time>
      </trkpt>
      <trkpt lat="49.24278" lon="4.37863">
        <ele>123</ele>
        <time>2018-04-02T00:34:10Z</time>
      </trkpt>
      <trkpt lat="49.24246" lon="4.3773">
        <ele>124</ele>
        <time>2018-04-02T00:35:10Z</time>
      </trkpt>
      <trkpt lat="49.24226" lon="4.37645">
        <ele>124</ele>
        <time>2018-04-02T00:36:10Z</time>
      </trkpt>
      <trkpt lat="49.24164" lon="4.37377">
        <ele>123</ele>
        <time>2018-04-02T00:37:10Z</time>
      </trkpt>
      <trkpt lat="49.24127" lon="4.37218">
        <ele>125</ele>
        <time>2018-04-02T00:38:10Z</time>
      </trkpt>
      <trkpt lat="49.24077" lon="4.36983">
        <ele>128</ele>
        <time>2018-04-02T00:39:10Z</time>
      </trkpt>
      <trkpt lat="49.24059" lon="4.36896">
        <ele>130</ele>
        <time>2018-04-02T00:40:10Z</time>
      </trkpt>
      <trkpt lat="49.24053" lon="4.3685">
        <ele>131</ele>
        <time>2018-04-02T00:41:10Z</time>
      </trkpt>
      <trkpt lat="49.24051" lon="4.36813">
        <ele>132</ele>
        <time>2018-04-02T00:42:10Z</time>
      </trkpt>
      <trkpt lat="49.24049" lon="4.36776">
        <ele>133</ele>
        <time>2018-04-02T00:43:10Z</time>
      </trkpt>
      <trkpt lat="49.24047" lon="4.36681">
        <ele>135</ele>
        <time>2018-04-02T00:44:10Z</time>
      </trkpt>
      <trkpt lat="49.24042" lon="4.36476">
        <ele>142</ele>
        <time>2018-04-02T00:45:10Z</time>
      </trkpt>
      <trkpt lat="49.24039" lon="4.36363">
        <ele>144</ele>
        <time>2018-04-02T00:46:10Z</time>
      </trkpt>
      <trkpt lat="49.24038" lon="4.36329">
        <ele>145</ele>
        <time>2018-04-02T00:47:10Z</time>
      </trkpt>
      <trkpt lat="49.24036" lon="4.36302">
        <ele>146</ele>
        <time>2018-04-02T00:48:10Z</time>
      </trkpt>
      <trkpt lat="49.24033" lon="4.36262">
        <ele>147</ele>
        <time>2018-04-02T00:49:10Z</time>
      </trkpt>
      <trkpt lat="49.24032" lon="4.36249">
        <ele>148</ele>
        <time>2018-04-02T00:50:10Z</time>
      </trkpt>
      <trkpt lat="49.24022" lon="4.36144">
        <ele>149</ele>
        <time>2018-04-02T00:51:10Z</time>
      </trkpt>
      <trkpt lat="49.24009" lon="4.36">
        <ele>152</ele>
        <time>2018-04-02T00:52:10Z</time>
      </trkpt>
      <trkpt lat="49.24004" lon="4.35943">
        <ele>153</ele>
        <time>2018-04-02T00:53:10Z</time>
      </trkpt>
      <trkpt lat="49.24001" lon="4.35908">
        <ele>153</ele>
        <time>2018-04-02T00:54:10Z</time>
      </trkpt>
      <trkpt lat="49.23995" lon="4.35794">
        <ele>156</ele>
        <time>2018-04-02T00:55:10Z</time>
      </trkpt>
      <trkpt lat="49.23993" lon="4.35755">
        <ele>158</ele>
        <time>2018-04-02T00:56:10Z</time>
      </trkpt>
      <trkpt lat="49.23991" lon="4.35724">
        <ele>158</ele>
        <time>2018-04-02T00:57:10Z</time>
      </trkpt>
      <trkpt lat="49.23983" lon="4.35568">
        <ele>159</ele>
        <time>2018-04-02T00:58:10Z</time>
      </trkpt>
      <trkpt lat="49.23977" lon="4.3544">
        <ele>160</ele>
        <time>2018-04-02T00:59:10Z</time>
      </trkpt>
      <trkpt lat="49.23955" lon="4.34991">
        <ele>168</ele>
        <time>2018-04-02T01:00:10Z</time>
      </trkpt>
      <trkpt lat="49.23942" lon="4.34716">
        <ele>173</ele>
        <time>2018-04-02T01:01:10Z</time>
      </trkpt>
      <trkpt lat="49.23932" lon="4.3454">
        <ele>177</ele>
        <time>2018-04-02T01:02:10Z</time>
      </trkpt>
      <trkpt lat="49.23926" lon="4.34405">
        <ele>180</ele>
        <time>2018-04-02T01:03:10Z</time>
      </trkpt>
      <trkpt lat="49.23925" lon="4.34387">
        <ele>181</ele>
        <time>2018-04-02T01:04:10Z</time>
      </trkpt>
      <trkpt lat="49.23923" lon="4.34353">
        <ele>182</ele>
        <time>2018-04-02T01:05:10Z</time>
      </trkpt>
      <trkpt lat="49.2392" lon="4.34297">
        <ele>184</ele>
        <time>2018-04-02T01:06:10Z</time>
      </trkpt>
      <trkpt lat="49.2392" lon="4.3429">
        <ele>184</ele>
        <time>2018-04-02T01:07:10Z</time>
      </trkpt>
      <trkpt lat="49.23918" lon="4.34257">
        <ele>186</ele>
        <time>2018-04-02T01:08:10Z</time>
      </trkpt>
      <trkpt lat="49.23918" lon="4.34245">
        <ele>186</ele>
        <time>2018-04-02T01:09:10Z</time>
      </trkpt>
      <trkpt lat="49.23918" lon="4.34236">
        <ele>186</ele>
        <time>2018-04-02T01:10:10Z</time>
      </trkpt>
      <trkpt lat="49.23918" lon="4.34216">
        <ele>185</ele>
        <time>2018-04-02T01:11:10Z</time>
      </trkpt>
      <trkpt lat="49.23919" lon="4.34201">
        <ele>185</ele>
        <time>2018-04-02T01:12:10Z</time>
      </trkpt>
      <trkpt lat="49.2392" lon="4.34186">
        <ele>185</ele>
        <time>2018-04-02T01:13:10Z</time>
      </trkpt>
      <trkpt lat="49.23924" lon="4.34167">
        <ele>184</ele>
        <time>2018-04-02T01:14:10Z</time>
      </trkpt>
      <trkpt lat="49.23928" lon="4.34147">
        <ele>185</ele>
        <time>2018-04-02T01:15:10Z</time>
      </trkpt>
      <trkpt lat="49.23934" lon="4.34125">
        <ele>185</ele>
        <time>2018-04-02T01:16:10Z</time>
      </trkpt>
      <trkpt lat="49.23941" lon="4.34097">
        <ele>185</ele>
        <time>2018-04-02T01:17:10Z</time>
      </trkpt>
      <trkpt lat="49.23956" lon="4.34036">
        <ele>187</ele>
        <time>2018-04-02T01:18:10Z</time>
      </trkpt>
      <trkpt lat="49.2398" lon="4.33937">
        <ele>188</ele>
        <time>2018-04-02T01:19:10Z</time>
      </trkpt>
      <trkpt lat="49.23998" lon="4.33864">
        <ele>187</ele>
        <time>2018-04-02T01:20:10Z</time>
      </trkpt>
      <trkpt lat="49.24009" lon="4.3382">
        <ele>187</ele>
        <time>2018-04-02T01:21:10Z</time>
      </trkpt>
      <trkpt lat="49.24016" lon="4.33794">
        <ele>187</ele>
        <time>2018-04-02T01:22:10Z</time>
      </trkpt>
      <trkpt lat="49.24024" lon="4.33768">
        <ele>187</ele>
        <time>2018-04-02T01:23:10Z</time>
      </trkpt>
      <trkpt lat="49.24034" lon="4.33745">
        <ele>186</ele>
        <time>2018-04-02T01:24:10Z</time>
      </trkpt>
      <trkpt lat="49.24043" lon="4.33723">
        <ele>186</ele>
        <time>2018-04-02T01:25:10Z</time>
      </trkpt>
      <trkpt lat="49.24054" lon="4.33701">
        <ele>185</ele>
        <time>2018-04-02T01:26:10Z</time>
      </trkpt>
      <trkpt lat="49.24074" lon="4.33662">
        <ele>184</ele>
        <time>2018-04-02T01:27:10Z</time>
      </trkpt>
      <trkpt lat="49.24095" lon="4.33619">
        <ele>183</ele>
        <time>2018-04-02T01:28:10Z</time>
      </trkpt>
      <trkpt lat="49.24108" lon="4.33587">
        <ele>183</ele>
        <time>2018-04-02T01:29:10Z</time>
      </trkpt>
      <trkpt lat="49.24116" lon="4.33564">
        <ele>181</ele>
        <time>2018-04-02T01:30:10Z</time>
      </trkpt>
      <trkpt lat="49.24121" lon="4.33548">
        <ele>179</ele>
        <time>2018-04-02T01:31:10Z</time>
      </trkpt>
      <trkpt lat="49.24125" lon="4.33531">
        <ele>178</ele>
        <time>2018-04-02T01:32:10Z</time>
      </trkpt>
      <trkpt lat="49.24127" lon="4.33518">
        <ele>177</ele>
        <time>2018-04-02T01:33:10Z</time>
      </trkpt>
      <trkpt lat="49.24128" lon="4.3351">
        <ele>176</ele>
        <time>2018-04-02T01:34:10Z</time>
      </trkpt>
      <trkpt lat="49.24128" lon="4.33505">
        <ele>176</ele>
        <time>2018-04-02T01:35:10Z</time>
      </trkpt>
      <trkpt lat="49.24129" lon="4.33491">
        <ele>175</ele>
        <time>2018-04-02T01:36:10Z</time>
      </trkpt>
      <trkpt lat="49.24129" lon="4.33487">
        <ele>175</ele>
        <time>2018-04-02T01:37:10Z</time>
      </trkpt>
      <trkpt lat="49.24128" lon="4.3347">
        <ele>174</ele>
        <time>2018-04-02T01:38:10Z</time>
      </trkpt>
      <trkpt lat="49.24126" lon="4.33452">
        <ele>174</ele>
        <time>2018-04-02T01:39:10Z</time>
      </trkpt>
      <trkpt lat="49.24123" lon="4.33428">
        <ele>173</ele>
        <time>2018-04-02T01:40:10Z</time>
      </trkpt>
      <trkpt lat="49.24108" lon="4.3335">
        <ele>173</ele>
        <time>2018-04-02T01:41:10Z</time>
      </trkpt>
      <trkpt lat="49.24095" lon="4.33287">
        <ele>173</ele>
        <time>2018-04-02T01:42:10Z</time>
      </trkpt>
      <trkpt lat="49.24086" lon="4.33244">
        <ele>171</ele>
        <time>2018-04-02T01:43:10Z</time>
      </trkpt>
      <trkpt lat="49.24083" lon="4.33226">
        <ele>171</ele>
        <time>2018-04-02T01:44:10Z</time>
      </trkpt>
      <trkpt lat="49.24082" lon="4.33211">
        <ele>171</ele>
        <time>2018-04-02T01:45:10Z</time>
      </trkpt>
      <trkpt lat="49.24082" lon="4.33197">
        <ele>170</ele>
        <time>2018-04-02T01:46:10Z</time>
      </trkpt>
      <trkpt lat="49.24082" lon="4.33183">
        <ele>170</ele>
        <time>2018-04-02T01:47:10Z</time>
      </trkpt>
      <trkpt lat="49.24084" lon="4.3317">
        <ele>169</ele>
        <time>2018-04-02T01:48:10Z</time>
      </trkpt>
      <trkpt lat="49.24084" lon="4.33169">
        <ele>169</ele>
        <time>2018-04-02T01:49:10Z</time>
      </trkpt>
      <trkpt lat="49.24086" lon="4.33159">
        <ele>169</ele>
        <time>2018-04-02T01:50:10Z</time>
      </trkpt>
      <trkpt lat="49.24089" lon="4.33146">
        <ele>169</ele>
        <time>2018-04-02T01:51:10Z</time>
      </trkpt>
      <trkpt lat="49.24093" lon="4.33133">
        <ele>169</ele>
        <time>2018-04-02T01:52:10Z</time>
      </trkpt>
      <trkpt lat="49.24099" lon="4.33115">
        <ele>169</ele>
        <time>2018-04-02T01:53:10Z</time>
      </trkpt>
      <trkpt lat="49.24117" lon="4.33068">
        <ele>169</ele>
        <time>2018-04-02T01:54:10Z</time>
      </trkpt>
      <trkpt lat="49.24121" lon="4.3306">
        <ele>169</ele>
        <time>2018-04-02T01:55:10Z</time>
      </trkpt>
      <trkpt lat="49.24127" lon="4.33043">
        <ele>169</ele>
        <time>2018-04-02T01:56:10Z</time>
      </trkpt>
      <trkpt lat="49.24132" lon="4.33027">
        <ele>169</ele>
        <time>2018-04-02T01:57:10Z</time>
      </trkpt>
      <trkpt lat="49.24135" lon="4.33018">
        <ele>170</ele>
        <time>2018-04-02T01:58:10Z</time>
      </trkpt>
      <trkpt lat="49.24136" lon="4.33014">
        <ele>170</ele>
        <time>2018-04-02T01:59:10Z</time>
      </trkpt>
      <trkpt lat="49.24139" lon="4.33003">
        <ele>170</ele>
        <time>2018-04-02T02:00:10Z</time>
      </trkpt>
      <trkpt lat="49.24141" lon="4.32992">
        <ele>170</ele>
        <time>2018-04-02T02:01:10Z</time>
      </trkpt>
      <trkpt lat="49.24142" lon="4.32985">
        <ele>170</ele>
        <time>2018-04-02T02:02:10Z</time>
      </trkpt>
      <trkpt lat="49.24142" lon="4.32981">
        <ele>171</ele>
        <time>2018-04-02T02:03:10Z</time>
      </trkpt>
      <trkpt lat="49.2414" lon="4.32957">
        <ele>171</ele>
        <time>2018-04-02T02:04:10Z</time>
      </trkpt>
      <trkpt lat="49.24139" lon="4.32947">
        <ele>172</ele>
        <time>2018-04-02T02:05:10Z</time>
      </trkpt>
      <trkpt lat="49.24137" lon="4.32941">
        <ele>172</ele>
        <time>2018-04-02T02:06:10Z</time>
      </trkpt>
      <trkpt lat="49.24135" lon="4.32929">
        <ele>172</ele>
        <time>2018-04-02T02:07:10Z</time>
      </trkpt>
      <trkpt lat="49.24133" lon="4.32921">
        <ele>173</ele>
        <time>2018-04-02T02:08:10Z</time>
      </trkpt>
      <trkpt lat="49.24131" lon="4.32915">
        <ele>173</ele>
        <time>2018-04-02T02:09:10Z</time>
      </trkpt>
      <trkpt lat="49.24127" lon="4.32904">
        <ele>173</ele>
        <time>2018-04-02T02:10:10Z</time>
      </trkpt>
      <trkpt lat="49.24122" lon="4.32894">
        <ele>174</ele>
        <time>2018-04-02T02:11:10Z</time>
      </trkpt>
      <trkpt lat="49.24121" lon="4.32891">
        <ele>174</ele>
        <time>2018-04-02T02:12:10Z</time>
      </trkpt>
      <trkpt lat="49.2411" lon="4.32879">
        <ele>174</ele>
        <time>2018-04-02T02:13:10Z</time>
      </trkpt>
      <trkpt lat="49.24102" lon="4.3287">
        <ele>175</ele>
        <time>2018-04-02T02:14:10Z</time>
      </trkpt>
      <trkpt lat="49.24097" lon="4.32863">
        <ele>175</ele>
        <time>2018-04-02T02:15:10Z</time>
      </trkpt>
      <trkpt lat="49.24093" lon="4.32857">
        <ele>175</ele>
        <time>2018-04-02T02:16:10Z</time>
      </trkpt>
      <trkpt lat="49.2409" lon="4.32851">
        <ele>175</ele>
        <time>2018-04-02T02:17:10Z</time>
      </trkpt>
      <trkpt lat="49.24089" lon="4.32847">
        <ele>176</ele>
        <time>2018-04-02T02:18:10Z</time>
      </trkpt>
      <trkpt lat="49.24088" lon="4.32843">
        <ele>176</ele>
        <time>2018-04-02T02:19:10Z</time>
      </trkpt>
      <trkpt lat="49.24087" lon="4.32837">
        <ele>176</ele>
        <time>2018-04-02T02:20:10Z</time>
      </trkpt>
      <trkpt lat="49.24086" lon="4.32831">
        <ele>176</ele>
        <time>2018-04-02T02:21:10Z</time>
      </trkpt>
      <trkpt lat="49.24086" lon="4.32821">
        <ele>176</ele>
        <time>2018-04-02T02:22:10Z</time>
      </trkpt>
      <trkpt lat="49.24086" lon="4.32817">
        <ele>177</ele>
        <time>2018-04-02T02:23:10Z</time>
      </trkpt>
      <trkpt lat="49.24085" lon="4.32797">
        <ele>177</ele>
        <time>2018-04-02T02:24:10Z</time>
      </trkpt>
      <trkpt lat="49.24085" lon="4.3277">
        <ele>178</ele>
        <time>2018-04-02T02:25:10Z</time>
      </trkpt>
      <trkpt lat="49.24085" lon="4.32753">
        <ele>179</ele>
        <time>2018-04-02T02:26:10Z</time>
      </trkpt>
      <trkpt lat="49.24086" lon="4.32741">
        <ele>179</ele>
        <time>2018-04-02T02:27:10Z</time>
      </trkpt>
      <trkpt lat="49.24086" lon="4.32733">
        <ele>180</ele>
        <time>2018-04-02T02:28:10Z</time>
      </trkpt>
      <trkpt lat="49.24088" lon="4.32717">
        <ele>180</ele>
        <time>2018-04-02T02:29:10Z</time>
      </trkpt>
      <trkpt lat="49.24091" lon="4.32697">
        <ele>181</ele>
        <time>2018-04-02T02:30:10Z</time>
      </trkpt>
      <trkpt lat="49.24095" lon="4.32667">
        <ele>182</ele>
        <time>2018-04-02T02:31:10Z</time>
      </trkpt>
      <trkpt lat="49.24108" lon="4.32565">
        <ele>184</ele>
        <time>2018-04-02T02:32:10Z</time>
      </trkpt>
      <trkpt lat="49.24116" lon="4.32503">
        <ele>186</ele>
        <time>2018-04-02T02:33:10Z</time>
      </trkpt>
      <trkpt lat="49.24125" lon="4.32437">
        <ele>189</ele>
        <time>2018-04-02T02:34:10Z</time>
      </trkpt>
      <trkpt lat="49.24129" lon="4.32399">
        <ele>190</ele>
        <time>2018-04-02T02:35:10Z</time>
      </trkpt>
      <trkpt lat="49.2413" lon="4.32383">
        <ele>190</ele>
        <time>2018-04-02T02:36:10Z</time>
      </trkpt>
      <trkpt lat="49.2413" lon="4.3237">
        <ele>190</ele>
        <time>2018-04-02T02:37:10Z</time>
      </trkpt>
      <trkpt lat="49.2413" lon="4.32353">
        <ele>190</ele>
        <time>2018-04-02T02:38:10Z</time>
      </trkpt>
      <trkpt lat="49.24129" lon="4.32348">
        <ele>190</ele>
        <time>2018-04-02T02:39:10Z</time>
      </trkpt>
      <trkpt lat="49.24128" lon="4.32326">
        <ele>190</ele>
        <time>2018-04-02T02:40:10Z</time>
      </trkpt>
      <trkpt lat="49.24124" lon="4.32285">
        <ele>191</ele>
        <time>2018-04-02T02:41:10Z</time>
      </trkpt>
      <trkpt lat="49.24119" lon="4.32243">
        <ele>190</ele>
        <time>2018-04-02T02:42:10Z</time>
      </trkpt>
      <trkpt lat="49.2411" lon="4.3219">
        <ele>189</ele>
        <time>2018-04-02T02:43:10Z</time>
      </trkpt>
      <trkpt lat="49.24092" lon="4.32103">
        <ele>186</ele>
        <time>2018-04-02T02:44:10Z</time>
      </trkpt>
      <trkpt lat="49.24058" lon="4.3195">
        <ele>179</ele>
        <time>2018-04-02T02:45:10Z</time>
      </trkpt>
      <trkpt lat="49.24046" lon="4.31887">
        <ele>176</ele>
        <time>2018-04-02T02:46:10Z</time>
      </trkpt>
      <trkpt lat="49.24043" lon="4.31858">
        <ele>175</ele>
        <time>2018-04-02T02:47:10Z</time>
      </trkpt>
      <trkpt lat="49.24042" lon="4.31823">
        <ele>173</ele>
        <time>2018-04-02T02:48:10Z</time>
      </trkpt>
      <trkpt lat="49.24043" lon="4.31785">
        <ele>172</ele>
        <time>2018-04-02T02:49:10Z</time>
      </trkpt>
      <trkpt lat="49.24044" lon="4.31778">
        <ele>171</ele>
        <time>2018-04-02T02:50:10Z</time>
      </trkpt>
      <trkpt lat="49.24049" lon="4.31745">
        <ele>169</ele>
        <time>2018-04-02T02:51:10Z</time>
      </trkpt>
      <trkpt lat="49.24055" lon="4.31718">
        <ele>168</ele>
        <time>2018-04-02T02:52:10Z</time>
      </trkpt>
      <trkpt lat="49.24059" lon="4.31702">
        <ele>167</ele>
        <time>2018-04-02T02:53:10Z</time>
      </trkpt>
      <trkpt lat="49.24073" lon="4.31659">
        <ele>164</ele>
        <time>2018-04-02T02:54:10Z</time>
      </trkpt>
      <trkpt lat="49.241" lon="4.31584">
        <ele>161</ele>
        <time>2018-04-02T02:55:10Z</time>
      </trkpt>
      <trkpt lat="49.24116" lon="4.31536">
        <ele>161</ele>
        <time>2018-04-02T02:56:10Z</time>
      </trkpt>
      <trkpt lat="49.24124" lon="4.31501">
        <ele>162</ele>
        <time>2018-04-02T02:57:10Z</time>
      </trkpt>
      <trkpt lat="49.2413" lon="4.31464">
        <ele>162</ele>
        <time>2018-04-02T02:58:10Z</time>
      </trkpt>
      <trkpt lat="49.24135" lon="4.31427">
        <ele>162</ele>
        <time>2018-04-02T02:59:10Z</time>
      </trkpt>
      <trkpt lat="49.24137" lon="4.31386">
        <ele>163</ele>
        <time>2018-04-02T03:00:10Z</time>
      </trkpt>
      <trkpt lat="49.24136" lon="4.31329">
        <ele>165</ele>
        <time>2018-04-02T03:01:10Z</time>
      </trkpt>
      <trkpt lat="49.24121" lon="4.3113">
        <ele>172</ele>
        <time>2018-04-02T03:02:10Z</time>
      </trkpt>
      <trkpt lat="49.24106" lon="4.30931">
        <ele>182</ele>
        <time>2018-04-02T03:03:10Z</time>
      </trkpt>
      <trkpt lat="49.24092" lon="4.30733">
        <ele>189</ele>
        <time>2018-04-02T03:04:10Z</time>
      </trkpt>
      <trkpt lat="49.24083" lon="4.3064">
        <ele>189</ele>
        <time>2018-04-02T03:05:10Z</time>
      </trkpt>
      <trkpt lat="49.24075" lon="4.30534">
        <ele>189</ele>
        <time>2018-04-02T03:06:10Z</time>
      </trkpt>
      <trkpt lat="49.24074" lon="4.30521">
        <ele>189</ele>
        <time>2018-04-02T03:07:10Z</time>
      </trkpt>
      <trkpt lat="49.24073" lon="4.30508">
        <ele>189</ele>
        <time>2018-04-02T03:08:10Z</time>
      </trkpt>
      <trkpt lat="49.24063" lon="4.30373">
        <ele>194</ele>
        <time>2018-04-02T03:09:10Z</time>
      </trkpt>
      <trkpt lat="49.24052" lon="4.30234">
        <ele>198</ele>
        <time>2018-04-02T03:10:10Z</time>
      </trkpt>
      <trkpt lat="49.2405" lon="4.30212">
        <ele>199</ele>
        <time>2018-04-02T03:11:10Z</time>
      </trkpt>
      <trkpt lat="49.24038" lon="4.30059">
        <ele>199</ele>
        <time>2018-04-02T03:12:10Z</time>
      </trkpt>
      <trkpt lat="49.24038" lon="4.30014">
        <ele>199</ele>
        <time>2018-04-02T03:13:10Z</time>
      </trkpt>
      <trkpt lat="49.24038" lon="4.29994">
        <ele>199</ele>
        <time>2018-04-02T03:14:10Z</time>
      </trkpt>
      <trkpt lat="49.24039" lon="4.29977">
        <ele>199</ele>
        <time>2018-04-02T03:15:10Z</time>
      </trkpt>
      <trkpt lat="49.24041" lon="4.29861">
        <ele>198</ele>
        <time>2018-04-02T03:16:10Z</time>
      </trkpt>
      <trkpt lat="49.24045" lon="4.29682">
        <ele>194</ele>
        <time>2018-04-02T03:17:10Z</time>
      </trkpt>
      <trkpt lat="49.24051" lon="4.29389">
        <ele>185</ele>
        <time>2018-04-02T03:18:10Z</time>
      </trkpt>
      <trkpt lat="49.24058" lon="4.29096">
        <ele>178</ele>
        <time>2018-04-02T03:19:10Z</time>
      </trkpt>
      <trkpt lat="49.24065" lon="4.28804">
        <ele>174</ele>
        <time>2018-04-02T03:20:10Z</time>
      </trkpt>
      <trkpt lat="49.24065" lon="4.28792">
        <ele>174</ele>
        <time>2018-04-02T03:21:10Z</time>
      </trkpt>
      <trkpt lat="49.24071" lon="4.28524">
        <ele>169</ele>
        <time>2018-04-02T03:22:10Z</time>
      </trkpt>
      <trkpt lat="49.2408" lon="4.28093">
        <ele>157</ele>
        <time>2018-04-02T03:23:10Z</time>
      </trkpt>
      <trkpt lat="49.2408" lon="4.28034">
        <ele>154</ele>
        <time>2018-04-02T03:24:10Z</time>
      </trkpt>
      <trkpt lat="49.24082" lon="4.2795">
        <ele>150</ele>
        <time>2018-04-02T03:25:10Z</time>
      </trkpt>
      <trkpt lat="49.24083" lon="4.27888">
        <ele>149</ele>
        <time>2018-04-02T03:26:10Z</time>
      </trkpt>
      <trkpt lat="49.24085" lon="4.27829">
        <ele>148</ele>
        <time>2018-04-02T03:27:10Z</time>
      </trkpt>
      <trkpt lat="49.24086" lon="4.27798">
        <ele>148</ele>
        <time>2018-04-02T03:28:10Z</time>
      </trkpt>
      <trkpt lat="49.24087" lon="4.27721">
        <ele>149</ele>
        <time>2018-04-02T03:29:10Z</time>
      </trkpt>
      <trkpt lat="49.24086" lon="4.27703">
        <ele>149</ele>
        <time>2018-04-02T03:30:10Z</time>
      </trkpt>
      <trkpt lat="49.24084" lon="4.27672">
        <ele>150</ele>
        <time>2018-04-02T03:31:10Z</time>
      </trkpt>
      <trkpt lat="49.24079" lon="4.2764">
        <ele>150</ele>
        <time>2018-04-02T03:32:10Z</time>
      </trkpt>
      <trkpt lat="49.24069" lon="4.27611">
        <ele>151</ele>
        <time>2018-04-02T03:33:10Z</time>
      </trkpt>
      <trkpt lat="49.23979" lon="4.27384">
        <ele>158</ele>
        <time>2018-04-02T03:34:10Z</time>
      </trkpt>
      <trkpt lat="49.23968" lon="4.27356">
        <ele>158</ele>
        <time>2018-04-02T03:35:10Z</time>
      </trkpt>
      <trkpt lat="49.23938" lon="4.27273">
        <ele>158</ele>
        <time>2018-04-02T03:36:10Z</time>
      </trkpt>
      <trkpt lat="49.23894" lon="4.27136">
        <ele>155</ele>
        <time>2018-04-02T03:37:10Z</time>
      </trkpt>
      <trkpt lat="49.23838" lon="4.26971">
        <ele>150</ele>
        <time>2018-04-02T03:38:10Z</time>
      </trkpt>
      <trkpt lat="49.23826" lon="4.26935">
        <ele>150</ele>
        <time>2018-04-02T03:39:10Z</time>
      </trkpt>
      <trkpt lat="49.23794" lon="4.26839">
        <ele>150</ele>
        <time>2018-04-02T03:40:10Z</time>
      </trkpt>
      <trkpt lat="49.23773" lon="4.26775">
        <ele>149</ele>
        <time>2018-04-02T03:41:10Z</time>
      </trkpt>
      <trkpt lat="49.2376" lon="4.26723">
        <ele>148</ele>
        <time>2018-04-02T03:42:10Z</time>
      </trkpt>
      <trkpt lat="49.23755" lon="4.26701">
        <ele>147</ele>
        <time>2018-04-02T03:43:10Z</time>
      </trkpt>
      <trkpt lat="49.23752" lon="4.26686">
        <ele>147</ele>
        <time>2018-04-02T03:44:10Z</time>
      </trkpt>
      <trkpt lat="49.23754" lon="4.26677">
        <ele>146</ele>
        <time>2018-04-02T03:45:10Z</time>
      </trkpt>
      <trkpt lat="49.23756" lon="4.26672">
        <ele>146</ele>
        <time>2018-04-02T03:46:10Z</time>
      </trkpt>
      <trkpt lat="49.23757" lon="4.26669">
        <ele>146</ele>
        <time>2018-04-02T03:47:10Z</time>
      </trkpt>
      <trkpt lat="49.23762" lon="4.26664">
        <ele>146</ele>
        <time>2018-04-02T03:48:10Z</time>
      </trkpt>
      <trkpt lat="49.23772" lon="4.26657">
        <ele>146</ele>
        <time>2018-04-02T03:49:10Z</time>
      </trkpt>
      <trkpt lat="49.23772" lon="4.26657">
        <ele>146</ele>
        <time>2018-04-02T03:50:10Z</time>
      </trkpt>
      <trkpt lat="49.23835" lon="4.26625">
        <ele>146</ele>
        <time>2018-04-02T03:51:10Z</time>
      </trkpt>
      <trkpt lat="49.23838" lon="4.26618">
        <ele>146</ele>
        <time>2018-04-02T03:52:10Z</time>
      </trkpt>
      <trkpt lat="49.2384" lon="4.26613">
        <ele>146</ele>
        <time>2018-04-02T03:53:10Z</time>
      </trkpt>
      <trkpt lat="49.2384" lon="4.26607">
        <ele>146</ele>
        <time>2018-04-02T03:54:10Z</time>
      </trkpt>
      <trkpt lat="49.23841" lon="4.26596">
        <ele>146</ele>
        <time>2018-04-02T03:55:10Z</time>
      </trkpt>
      <trkpt lat="49.23834" lon="4.26558">
        <ele>145</ele>
        <time>2018-04-02T03:56:10Z</time>
      </trkpt>
      <trkpt lat="49.23809" lon="4.26407">
        <ele>141</ele>
        <time>2018-04-02T03:57:10Z</time>
      </trkpt>
      <trkpt lat="49.23806" lon="4.26396">
        <ele>140</ele>
        <time>2018-04-02T03:58:10Z</time>
      </trkpt>
      <trkpt lat="49.23806" lon="4.26391">
        <ele>140</ele>
        <time>2018-04-02T03:59:10Z</time>
      </trkpt>
      <trkpt lat="49.23804" lon="4.26375">
        <ele>140</ele>
        <time>2018-04-02T04:00:10Z</time>
      </trkpt>
      <trkpt lat="49.23804" lon="4.26362">
        <ele>139</ele>
        <time>2018-04-02T04:01:10Z</time>
      </trkpt>
      <trkpt lat="49.23804" lon="4.26345">
        <ele>138</ele>
        <time>2018-04-02T04:02:10Z</time>
      </trkpt>
      <trkpt lat="49.23807" lon="4.26308">
        <ele>138</ele>
        <time>2018-04-02T04:03:10Z</time>
      </trkpt>
      <trkpt lat="49.23813" lon="4.26268">
        <ele>138</ele>
        <time>2018-04-02T04:04:10Z</time>
      </trkpt>
      <trkpt lat="49.23831" lon="4.26208">
        <ele>137</ele>
        <time>2018-04-02T04:05:10Z</time>
      </trkpt>
      <trkpt lat="49.23846" lon="4.2616">
        <ele>136</ele>
        <time>2018-04-02T04:06:10Z</time>
      </trkpt>
      <trkpt lat="49.23868" lon="4.26092">
        <ele>136</ele>
        <time>2018-04-02T04:07:10Z</time>
      </trkpt>
      <trkpt lat="49.23979" lon="4.25752">
        <ele>135</ele>
        <time>2018-04-02T04:08:10Z</time>
      </trkpt>
      <trkpt lat="49.24052" lon="4.25524">
        <ele>135</ele>
        <time>2018-04-02T04:09:10Z</time>
      </trkpt>
      <trkpt lat="49.24126" lon="4.25295">
        <ele>130</ele>
        <time>2018-04-02T04:10:10Z</time>
      </trkpt>
      <trkpt lat="49.242" lon="4.25066">
        <ele>126</ele>
        <time>2018-04-02T04:11:10Z</time>
      </trkpt>
      <trkpt lat="49.24228" lon="4.24979">
        <ele>124</ele>
        <time>2018-04-02T04:12:10Z</time>
      </trkpt>
      <trkpt lat="49.24288" lon="4.2479">
        <ele>120</ele>
        <time>2018-04-02T04:13:10Z</time>
      </trkpt>
      <trkpt lat="49.24349" lon="4.246">
        <ele>117</ele>
        <time>2018-04-02T04:14:10Z</time>
      </trkpt>
      <trkpt lat="49.24409" lon="4.24411">
        <ele>115</ele>
        <time>2018-04-02T04:15:10Z</time>
      </trkpt>
      <trkpt lat="49.24436" lon="4.24324">
        <ele>113</ele>
        <time>2018-04-02T04:16:10Z</time>
      </trkpt>
      <trkpt lat="49.24465" lon="4.2424">
        <ele>113</ele>
        <time>2018-04-02T04:17:10Z</time>
      </trkpt>
      <trkpt lat="49.24481" lon="4.24189">
        <ele>113</ele>
        <time>2018-04-02T04:18:10Z</time>
      </trkpt>
      <trkpt lat="49.24489" lon="4.24163">
        <ele>113</ele>
        <time>2018-04-02T04:19:10Z</time>
      </trkpt>
      <trkpt lat="49.24499" lon="4.24132">
        <ele>113</ele>
        <time>2018-04-02T04:20:10Z</time>
      </trkpt>
      <trkpt lat="49.24522" lon="4.24061">
        <ele>113</ele>
        <time>2018-04-02T04:21:10Z</time>
      </trkpt>
      <trkpt lat="49.24531" lon="4.24032">
        <ele>114</ele>
        <time>2018-04-02T04:22:10Z</time>
      </trkpt>
      <trkpt lat="49.24568" lon="4.23915">
        <ele>113</ele>
        <time>2018-04-02T04:23:10Z</time>
      </trkpt>
      <trkpt lat="49.24596" lon="4.23828">
        <ele>110</ele>
        <time>2018-04-02T04:24:10Z</time>
      </trkpt>
      <trkpt lat="49.24618" lon="4.23762">
        <ele>111</ele>
        <time>2018-04-02T04:25:10Z</time>
      </trkpt>
      <trkpt lat="49.24629" lon="4.23723">
        <ele>112</ele>
        <time>2018-04-02T04:26:10Z</time>
      </trkpt>
      <trkpt lat="49.2466" lon="4.23632">
        <ele>113</ele>
        <time>2018-04-02T04:27:10Z</time>
      </trkpt>
      <trkpt lat="49.24727" lon="4.23424">
        <ele>117</ele>
        <time>2018-04-02T04:28:10Z</time>
      </trkpt>
      <trkpt lat="49.24809" lon="4.23174">
        <ele>122</ele>
        <time>2018-04-02T04:29:10Z</time>
      </trkpt>
      <trkpt lat="49.24841" lon="4.23076">
        <ele>124</ele>
        <time>2018-04-02T04:30:10Z</time>
      </trkpt>
      <trkpt lat="49.24879" lon="4.22953">
        <ele>125</ele>
        <time>2018-04-02T04:31:10Z</time>
      </trkpt>
      <trkpt lat="49.24887" lon="4.22928">
        <ele>125</ele>
        <time>2018-04-02T04:32:10Z</time>
      </trkpt>
      <trkpt lat="49.24945" lon="4.22743">
        <ele>122</ele>
        <time>2018-04-02T04:33:10Z</time>
      </trkpt>
      <trkpt lat="49.24981" lon="4.22632">
        <ele>120</ele>
        <time>2018-04-02T04:34:10Z</time>
      </trkpt>
      <trkpt lat="49.25007" lon="4.22553">
        <ele>119</ele>
        <time>2018-04-02T04:35:10Z</time>
      </trkpt>
      <trkpt lat="49.25032" lon="4.22472">
        <ele>117</ele>
        <time>2018-04-02T04:36:10Z</time>
      </trkpt>
      <trkpt lat="49.25065" lon="4.22371">
        <ele>115</ele>
        <time>2018-04-02T04:37:10Z</time>
      </trkpt>
      <trkpt lat="49.25104" lon="4.22246">
        <ele>113</ele>
        <time>2018-04-02T04:38:10Z</time>
      </trkpt>
      <trkpt lat="49.25113" lon="4.22219">
        <ele>113</ele>
        <time>2018-04-02T04:39:10Z</time>
      </trkpt>
      <trkpt lat="49.25122" lon="4.22191">
        <ele>113</ele>
        <time>2018-04-02T04:40:10Z</time>
      </trkpt>
      <trkpt lat="49.25133" lon="4.22155">
        <ele>114</ele>
        <time>2018-04-02T04:41:10Z</time>
      </trkpt>
      <trkpt lat="49.25152" lon="4.22092">
        <ele>115</ele>
        <time>2018-04-02T04:42:10Z</time>
      </trkpt>
      <trkpt lat="49.25168" lon="4.22043">
        <ele>115</ele>
        <time>2018-04-02T04:43:10Z</time>
      </trkpt>
      <trkpt lat="49.25184" lon="4.21992">
        <ele>114</ele>
        <time>2018-04-02T04:44:10Z</time>
      </trkpt>
      <trkpt lat="49.25198" lon="4.21953">
        <ele>114</ele>
        <time>2018-04-02T04:45:10Z</time>
      </trkpt>
      <trkpt lat="49.25198" lon="4.21953">
        <ele>114</ele>
        <time>2018-04-02T04:46:10Z</time>
      </trkpt>
      <trkpt lat="49.25199" lon="4.21955">
        <ele>114</ele>
        <time>2018-04-02T04:47:10Z</time>
      </trkpt>
      <trkpt lat="49.25202" lon="4.21957">
        <ele>114</ele>
        <time>2018-04-02T04:48:10Z</time>
      </trkpt>
      <trkpt lat="49.25204" lon="4.21958">
        <ele>114</ele>
        <time>2018-04-02T04:49:10Z</time>
      </trkpt>
      <trkpt lat="49.25207" lon="4.21958">
        <ele>114</ele>
        <time>2018-04-02T04:50:10Z</time>
      </trkpt>
      <trkpt lat="49.25211" lon="4.21956">
        <ele>114</ele>
        <time>2018-04-02T04:51:10Z</time>
      </trkpt>
      <trkpt lat="49.25212" lon="4.21954">
        <ele>114</ele>
        <time>2018-04-02T04:52:10Z</time>
      </trkpt>
      <trkpt lat="49.25214" lon="4.21953">
        <ele>114</ele>
        <time>2018-04-02T04:53:10Z</time>
      </trkpt>
      <trkpt lat="49.25215" lon="4.21951">
        <ele>114</ele>
        <time>2018-04-02T04:54:10Z</time>
      </trkpt>
      <trkpt lat="49.25216" lon="4.21948">
        <ele>114</ele>
        <time>2018-04-02T04:55:10Z</time>
      </trkpt>
      <trkpt lat="49.25216" lon="4.21945">
        <ele>114</ele>
        <time>2018-04-02T04:56:10Z</time>
      </trkpt>
      <trkpt lat="49.25217" lon="4.21943">
        <ele>114</ele>
        <time>2018-04-02T04:57:10Z</time>
      </trkpt>
      <trkpt lat="49.25217" lon="4.21939">
        <ele>114</ele>
        <time>2018-04-02T04:58:10Z</time>
      </trkpt>
      <trkpt lat="49.25216" lon="4.21936">
        <ele>114</ele>
        <time>2018-04-02T04:59:10Z</time>
      </trkpt>
      <trkpt lat="49.25215" lon="4.21933">
        <ele>114</ele>
        <time>2018-04-02T05:00:10Z</time>
      </trkpt>
      <trkpt lat="49.25214" lon="4.2193">
        <ele>114</ele>
        <time>2018-04-02T05:01:10Z</time>
      </trkpt>
      <trkpt lat="49.25212" lon="4.21928">
        <ele>114</ele>
        <time>2018-04-02T05:02:10Z</time>
      </trkpt>
      <trkpt lat="49.2521" lon="4.21927">
        <ele>114</ele>
        <time>2018-04-02T05:03:10Z</time>
      </trkpt>
      <trkpt lat="49.25207" lon="4.21926">
        <ele>114</ele>
        <time>2018-04-02T05:04:10Z</time>
      </trkpt>
      <trkpt lat="49.25206" lon="4.21925">
        <ele>114</ele>
        <time>2018-04-02T05:05:10Z</time>
      </trkpt>
      <trkpt lat="49.25203" lon="4.21926">
        <ele>114</ele>
        <time>2018-04-02T05:06:10Z</time>
      </trkpt>
      <trkpt lat="49.25199" lon="4.21929">
        <ele>114</ele>
        <time>2018-04-02T05:07:10Z</time>
      </trkpt>
      <trkpt lat="49.25198" lon="4.2193">
        <ele>114</ele>
        <time>2018-04-02T05:08:10Z</time>
      </trkpt>
      <trkpt lat="49.25191" lon="4.21925">
        <ele>114</ele>
        <time>2018-04-02T05:09:10Z</time>
      </trkpt>
      <trkpt lat="49.25186" lon="4.21915">
        <ele>114</ele>
        <time>2018-04-02T05:10:10Z</time>
      </trkpt>
      <trkpt lat="49.25166" lon="4.21882">
        <ele>114</ele>
        <time>2018-04-02T05:11:10Z</time>
      </trkpt>
      <trkpt lat="49.25139" lon="4.21841">
        <ele>115</ele>
        <time>2018-04-02T05:12:10Z</time>
      </trkpt>
      <trkpt lat="49.25049" lon="4.21713">
        <ele>115</ele>
        <time>2018-04-02T05:13:10Z</time>
      </trkpt>
      <trkpt lat="49.25019" lon="4.2167">
        <ele>114</ele>
        <time>2018-04-02T05:14:10Z</time>
      </trkpt>
      <trkpt lat="49.24984" lon="4.21625">
        <ele>114</ele>
        <time>2018-04-02T05:15:10Z</time>
      </trkpt>
      <trkpt lat="49.24965" lon="4.216">
        <ele>114</ele>
        <time>2018-04-02T05:16:10Z</time>
      </trkpt>
      <trkpt lat="49.2495" lon="4.21582">
        <ele>114</ele>
        <time>2018-04-02T05:17:10Z</time>
      </trkpt>
      <trkpt lat="49.24941" lon="4.21572">
        <ele>115</ele>
        <time>2018-04-02T05:18:10Z</time>
      </trkpt>
      <trkpt lat="49.24927" lon="4.21554">
        <ele>115</ele>
        <time>2018-04-02T05:19:10Z</time>
      </trkpt>
      <trkpt lat="49.2491" lon="4.21534">
        <ele>115</ele>
        <time>2018-04-02T05:20:10Z</time>
      </trkpt>
      <trkpt lat="49.24893" lon="4.21521">
        <ele>115</ele>
        <time>2018-04-02T05:21:10Z</time>
      </trkpt>
      <trkpt lat="49.24893" lon="4.21521">
        <ele>115</ele>
        <time>2018-04-02T05:22:10Z</time>
      </trkpt>
      <trkpt lat="49.24892" lon="4.21509">
        <ele>116</ele>
        <time>2018-04-02T05:23:10Z</time>
      </trkpt>
      <trkpt lat="49.24891" lon="4.21499">
        <ele>116</ele>
        <time>2018-04-02T05:24:10Z</time>
      </trkpt>
      <trkpt lat="49.24888" lon="4.21487">
        <ele>116</ele>
        <time>2018-04-02T05:25:10Z</time>
      </trkpt>
      <trkpt lat="49.24865" lon="4.21417">
        <ele>117</ele>
        <time>2018-04-02T05:26:10Z</time>
      </trkpt>
      <trkpt lat="49.2486" lon="4.21408">
        <ele>117</ele>
        <time>2018-04-02T05:27:10Z</time>
      </trkpt>
      <trkpt lat="49.24848" lon="4.21392">
        <ele>117</ele>
        <time>2018-04-02T05:28:10Z</time>
      </trkpt>
      <trkpt lat="49.24838" lon="4.21376">
        <ele>117</ele>
        <time>2018-04-02T05:29:10Z</time>
      </trkpt>
      <trkpt lat="49.24835" lon="4.21367">
        <ele>118</ele>
        <time>2018-04-02T05:30:10Z</time>
      </trkpt>
      <trkpt lat="49.24834" lon="4.21358">
        <ele>118</ele>
        <time>2018-04-02T05:31:10Z</time>
      </trkpt>
      <trkpt lat="49.24834" lon="4.21355">
        <ele>118</ele>
        <time>2018-04-02T05:32:10Z</time>
      </trkpt>
      <trkpt lat="49.24842" lon="4.21294">
        <ele>118</ele>
        <time>2018-04-02T05:33:10Z</time>
      </trkpt>
      <trkpt lat="49.24851" lon="4.21226">
        <ele>119</ele>
        <time>2018-04-02T05:34:10Z</time>
      </trkpt>
      <trkpt lat="49.24868" lon="4.21101">
        <ele>123</ele>
        <time>2018-04-02T05:35:10Z</time>
      </trkpt>
      <trkpt lat="49.24884" lon="4.20977">
        <ele>127</ele>
        <time>2018-04-02T05:36:10Z</time>
      </trkpt>
      <trkpt lat="49.24918" lon="4.20712">
        <ele>132</ele>
        <time>2018-04-02T05:37:10Z</time>
      </trkpt>
      <trkpt lat="49.24928" lon="4.20632">
        <ele>134</ele>
        <time>2018-04-02T05:38:10Z</time>
      </trkpt>
      <trkpt lat="49.24941" lon="4.20532">
        <ele>134</ele>
        <time>2018-04-02T05:39:10Z</time>
      </trkpt>
      <trkpt lat="49.2495" lon="4.20474">
        <ele>134</ele>
        <time>2018-04-02T05:40:10Z</time>
      </trkpt>
      <trkpt lat="49.24955" lon="4.2044">
        <ele>135</ele>
        <time>2018-04-02T05:41:10Z</time>
      </trkpt>
      <trkpt lat="49.24956" lon="4.20426">
        <ele>135</ele>
        <time>2018-04-02T05:42:10Z</time>
      </trkpt>
      <trkpt lat="49.24958" lon="4.20414">
        <ele>135</ele>
        <time>2018-04-02T05:43:10Z</time>
      </trkpt>
      <trkpt lat="49.24958" lon="4.204">
        <ele>135</ele>
        <time>2018-04-02T05:44:10Z</time>
      </trkpt>
      <trkpt lat="49.24958" lon="4.20384">
        <ele>134</ele>
        <time>2018-04-02T05:45:10Z</time>
      </trkpt>
      <trkpt lat="49.24957" lon="4.20369">
        <ele>134</ele>
        <time>2018-04-02T05:46:10Z</time>
      </trkpt>
      <trkpt lat="49.24956" lon="4.20355">
        <ele>133</ele>
        <time>2018-04-02T05:47:10Z</time>
      </trkpt>
      <trkpt lat="49.24954" lon="4.20337">
        <ele>133</ele>
        <time>2018-04-02T05:48:10Z</time>
      </trkpt>
      <trkpt lat="49.24952" lon="4.20322">
        <ele>133</ele>
        <time>2018-04-02T05:49:10Z</time>
      </trkpt>
      <trkpt lat="49.24933" lon="4.20225">
        <ele>132</ele>
        <time>2018-04-02T05:50:10Z</time>
      </trkpt>
      <trkpt lat="49.24926" lon="4.2019">
        <ele>131</ele>
        <time>2018-04-02T05:51:10Z</time>
      </trkpt>
      <trkpt lat="49.24914" lon="4.20119">
        <ele>129</ele>
        <time>2018-04-02T05:52:10Z</time>
      </trkpt>
      <trkpt lat="49.24886" lon="4.19977">
        <ele>127</ele>
        <time>2018-04-02T05:53:10Z</time>
      </trkpt>
      <trkpt lat="49.24864" lon="4.19855">
        <ele>124</ele>
        <time>2018-04-02T05:54:10Z</time>
      </trkpt>
      <trkpt lat="49.2486" lon="4.19828">
        <ele>124</ele>
        <time>2018-04-02T05:55:10Z</time>
      </trkpt>
      <trkpt lat="49.24855" lon="4.19797">
        <ele>123</ele>
        <time>2018-04-02T05:56:10Z</time>
      </trkpt>
      <trkpt lat="49.24853" lon="4.19775">
        <ele>122</ele>
        <time>2018-04-02T05:57:10Z</time>
      </trkpt>
      <trkpt lat="49.24851" lon="4.19751">
        <ele>122</ele>
        <time>2018-04-02T05:58:10Z</time>
      </trkpt>
      <trkpt lat="49.24851" lon="4.19726">
        <ele>121</ele>
        <time>2018-04-02T05:59:10Z</time>
      </trkpt>
      <trkpt lat="49.24851" lon="4.19707">
        <ele>121</ele>
        <time>2018-04-02T06:00:10Z</time>
      </trkpt>
      <trkpt lat="49.24851" lon="4.197">
        <ele>121</ele>
        <time>2018-04-02T06:01:10Z</time>
      </trkpt>
      <trkpt lat="49.24861" lon="4.19494">
        <ele>118</ele>
        <time>2018-04-02T06:02:10Z</time>
      </trkpt>
      <trkpt lat="49.24873" lon="4.1921">
        <ele>118</ele>
        <time>2018-04-02T06:03:10Z</time>
      </trkpt>
      <trkpt lat="49.24881" lon="4.19022">
        <ele>119</ele>
        <time>2018-04-02T06:04:10Z</time>
      </trkpt>
      <trkpt lat="49.249" lon="4.186">
        <ele>122</ele>
        <time>2018-04-02T06:05:10Z</time>
      </trkpt>
      <trkpt lat="49.24907" lon="4.18434">
        <ele>125</ele>
        <time>2018-04-02T06:06:10Z</time>
      </trkpt>
      <trkpt lat="49.24931" lon="4.17886">
        <ele>132</ele>
        <time>2018-04-02T06:07:10Z</time>
      </trkpt>
      <trkpt lat="49.24942" lon="4.17635">
        <ele>139</ele>
        <time>2018-04-02T06:08:10Z</time>
      </trkpt>
      <trkpt lat="49.24949" lon="4.17495">
        <ele>144</ele>
        <time>2018-04-02T06:09:10Z</time>
      </trkpt>
      <trkpt lat="49.24979" lon="4.16816">
        <ele>156</ele>
        <time>2018-04-02T06:10:10Z</time>
      </trkpt>
      <trkpt lat="49.24992" lon="4.16518">
        <ele>165</ele>
        <time>2018-04-02T06:11:10Z</time>
      </trkpt>
      <trkpt lat="49.24994" lon="4.1648">
        <ele>166</ele>
        <time>2018-04-02T06:12:10Z</time>
      </trkpt>
      <trkpt lat="49.24999" lon="4.1637">
        <ele>171</ele>
        <time>2018-04-02T06:13:10Z</time>
      </trkpt>
      <trkpt lat="49.25003" lon="4.16276">
        <ele>175</ele>
        <time>2018-04-02T06:14:10Z</time>
      </trkpt>
      <trkpt lat="49.25005" lon="4.16224">
        <ele>177</ele>
        <time>2018-04-02T06:15:10Z</time>
      </trkpt>
      <trkpt lat="49.25006" lon="4.16185">
        <ele>179</ele>
        <time>2018-04-02T06:16:10Z</time>
      </trkpt>
      <trkpt lat="49.25008" lon="4.16156">
        <ele>179</ele>
        <time>2018-04-02T06:17:10Z</time>
      </trkpt>
      <trkpt lat="49.25011" lon="4.16133">
        <ele>179</ele>
        <time>2018-04-02T06:18:10Z</time>
      </trkpt>
      <trkpt lat="49.25013" lon="4.16116">
        <ele>179</ele>
        <time>2018-04-02T06:19:10Z</time>
      </trkpt>
      <trkpt lat="49.25017" lon="4.16101">
        <ele>180</ele>
        <time>2018-04-02T06:20:10Z</time>
      </trkpt>
      <trkpt lat="49.2502" lon="4.16085">
        <ele>180</ele>
        <time>2018-04-02T06:21:10Z</time>
      </trkpt>
      <trkpt lat="49.25024" lon="4.16073">
        <ele>180</ele>
        <time>2018-04-02T06:22:10Z</time>
      </trkpt>
      <trkpt lat="49.25029" lon="4.16056">
        <ele>181</ele>
        <time>2018-04-02T06:23:10Z</time>
      </trkpt>
      <trkpt lat="49.25037" lon="4.16035">
        <ele>182</ele>
        <time>2018-04-02T06:24:10Z</time>
      </trkpt>
      <trkpt lat="49.25076" lon="4.15926">
        <ele>185</ele>
        <time>2018-04-02T06:25:10Z</time>
      </trkpt>
      <trkpt lat="49.25102" lon="4.15854">
        <ele>186</ele>
        <time>2018-04-02T06:26:10Z</time>
      </trkpt>
      <trkpt lat="49.25109" lon="4.15832">
        <ele>186</ele>
        <time>2018-04-02T06:27:10Z</time>
      </trkpt>
      <trkpt lat="49.25121" lon="4.15797">
        <ele>186</ele>
        <time>2018-04-02T06:28:10Z</time>
      </trkpt>
      <trkpt lat="49.25121" lon="4.15796">
        <ele>186</ele>
        <time>2018-04-02T06:29:10Z</time>
      </trkpt>
      <trkpt lat="49.25122" lon="4.15794">
        <ele>187</ele>
        <time>2018-04-02T06:30:10Z</time>
      </trkpt>
      <trkpt lat="49.25122" lon="4.15787">
        <ele>187</ele>
        <time>2018-04-02T06:31:10Z</time>
      </trkpt>
      <trkpt lat="49.25122" lon="4.15787">
        <ele>187</ele>
        <time>2018-04-02T06:32:10Z</time>
      </trkpt>
      <trkpt lat="49.25123" lon="4.15787">
        <ele>187</ele>
        <time>2018-04-02T06:33:10Z</time>
      </trkpt>
      <trkpt lat="49.25124" lon="4.15786">
        <ele>187</ele>
        <time>2018-04-02T06:34:10Z</time>
      </trkpt>
      <trkpt lat="49.25125" lon="4.15786">
        <ele>187</ele>
        <time>2018-04-02T06:35:10Z</time>
      </trkpt>
      <trkpt lat="49.25125" lon="4.15785">
        <ele>187</ele>
        <time>2018-04-02T06:36:10Z</time>
      </trkpt>
      <trkpt lat="49.25126" lon="4.15783">
        <ele>187</ele>
        <time>2018-04-02T06:37:10Z</time>
      </trkpt>
      <trkpt lat="49.25126" lon="4.15782">
        <ele>187</ele>
        <time>2018-04-02T06:38:10Z</time>
      </trkpt>
      <trkpt lat="49.25126" lon="4.1578">
        <ele>187</ele>
        <time>2018-04-02T06:39:10Z</time>
      </trkpt>
      <trkpt lat="49.25126" lon="4.15778">
        <ele>187</ele>
        <time>2018-04-02T06:40:10Z</time>
      </trkpt>
      <trkpt lat="49.25126" lon="4.15777">
        <ele>187</ele>
        <time>2018-04-02T06:41:10Z</time>
      </trkpt>
      <trkpt lat="49.25126" lon="4.15776">
        <ele>187</ele>
        <time>2018-04-02T06:42:10Z</time>
      </trkpt>
      <trkpt lat="49.25125" lon="4.15775">
        <ele>187</ele>
        <time>2018-04-02T06:43:10Z</time>
      </trkpt>
      <trkpt lat="49.25125" lon="4.15774">
        <ele>187</ele>
        <time>2018-04-02T06:44:10Z</time>
      </trkpt>
      <trkpt lat="49.25124" lon="4.15773">
        <ele>187</ele>
        <time>2018-04-02T06:45:10Z</time>
      </trkpt>
      <trkpt lat="49.25123" lon="4.15773">
        <ele>187</ele>
        <time>2018-04-02T06:46:10Z</time>
      </trkpt>
      <trkpt lat="49.25122" lon="4.15772">
        <ele>187</ele>
        <time>2018-04-02T06:47:10Z</time>
      </trkpt>
      <trkpt lat="49.25121" lon="4.15772">
        <ele>187</ele>
        <time>2018-04-02T06:48:10Z</time>
      </trkpt>
      <trkpt lat="49.2512" lon="4.15773">
        <ele>187</ele>
        <time>2018-04-02T06:49:10Z</time>
      </trkpt>
      <trkpt lat="49.25114" lon="4.15764">
        <ele>187</ele>
        <time>2018-04-02T06:50:10Z</time>
      </trkpt>
      <trkpt lat="49.25113" lon="4.15763">
        <ele>187</ele>
        <time>2018-04-02T06:51:10Z</time>
      </trkpt>
      <trkpt lat="49.25109" lon="4.15759">
        <ele>187</ele>
        <time>2018-04-02T06:52:10Z</time>
      </trkpt>
      <trkpt lat="49.25099" lon="4.1575">
        <ele>188</ele>
        <time>2018-04-02T06:53:10Z</time>
      </trkpt>
      <trkpt lat="49.25037" lon="4.15702">
        <ele>189</ele>
        <time>2018-04-02T06:54:10Z</time>
      </trkpt>
      <trkpt lat="49.25014" lon="4.15685">
        <ele>189</ele>
        <time>2018-04-02T06:55:10Z</time>
      </trkpt>
      <trkpt lat="49.24982" lon="4.15664">
        <ele>190</ele>
        <time>2018-04-02T06:56:10Z</time>
      </trkpt>
      <trkpt lat="49.2497" lon="4.15656">
        <ele>190</ele>
        <time>2018-04-02T06:57:10Z</time>
      </trkpt>
      <trkpt lat="49.24965" lon="4.15652">
        <ele>191</ele>
        <time>2018-04-02T06:58:10Z</time>
      </trkpt>
      <trkpt lat="49.24956" lon="4.15645">
        <ele>191</ele>
        <time>2018-04-02T06:59:10Z</time>
      </trkpt>
      <trkpt lat="49.24947" lon="4.15637">
        <ele>191</ele>
        <time>2018-04-02T07:00:10Z</time>
      </trkpt>
      <trkpt lat="49.24941" lon="4.15632">
        <ele>191</ele>
        <time>2018-04-02T07:01:10Z</time>
      </trkpt>
      <trkpt lat="49.24937" lon="4.15627">
        <ele>192</ele>
        <time>2018-04-02T07:02:10Z</time>
      </trkpt>
      <trkpt lat="49.2493" lon="4.15619">
        <ele>192</ele>
        <time>2018-04-02T07:03:10Z</time>
      </trkpt>
      <trkpt lat="49.24924" lon="4.15612">
        <ele>192</ele>
        <time>2018-04-02T07:04:10Z</time>
      </trkpt>
      <trkpt lat="49.24918" lon="4.15603">
        <ele>193</ele>
        <time>2018-04-02T07:05:10Z</time>
      </trkpt>
      <trkpt lat="49.24914" lon="4.15596">
        <ele>193</ele>
        <time>2018-04-02T07:06:10Z</time>
      </trkpt>
      <trkpt lat="49.2491" lon="4.15589">
        <ele>194</ele>
        <time>2018-04-02T07:07:10Z</time>
      </trkpt>
      <trkpt lat="49.24908" lon="4.15583">
        <ele>194</ele>
        <time>2018-04-02T07:08:10Z</time>
      </trkpt>
      <trkpt lat="49.24905" lon="4.15575">
        <ele>194</ele>
        <time>2018-04-02T07:09:10Z</time>
      </trkpt>
      <trkpt lat="49.24902" lon="4.15567">
        <ele>194</ele>
        <time>2018-04-02T07:10:10Z</time>
      </trkpt>
      <trkpt lat="49.24898" lon="4.15554">
        <ele>195</ele>
        <time>2018-04-02T07:11:10Z</time>
      </trkpt>
      <trkpt lat="49.24887" lon="4.15509">
        <ele>195</ele>
        <time>2018-04-02T07:12:10Z</time>
      </trkpt>
      <trkpt lat="49.24849" lon="4.15356">
        <ele>187</ele>
        <time>2018-04-02T07:13:10Z</time>
      </trkpt>
      <trkpt lat="49.24834" lon="4.15295">
        <ele>182</ele>
        <time>2018-04-02T07:14:10Z</time>
      </trkpt>
      <trkpt lat="49.24828" lon="4.15269">
        <ele>181</ele>
        <time>2018-04-02T07:15:10Z</time>
      </trkpt>
      <trkpt lat="49.24827" lon="4.15262">
        <ele>181</ele>
        <time>2018-04-02T07:16:10Z</time>
      </trkpt>
      <trkpt lat="49.24826" lon="4.15256">
        <ele>181</ele>
        <time>2018-04-02T07:17:10Z</time>
      </trkpt>
      <trkpt lat="49.24826" lon="4.15249">
        <ele>180</ele>
        <time>2018-04-02T07:18:10Z</time>
      </trkpt>
      <trkpt lat="49.24823" lon="4.15216">
        <ele>178</ele>
        <time>2018-04-02T07:19:10Z</time>
      </trkpt>
      <trkpt lat="49.24822" lon="4.15192">
        <ele>176</ele>
        <time>2018-04-02T07:20:10Z</time>
      </trkpt>
      <trkpt lat="49.24821" lon="4.15179">
        <ele>175</ele>
        <time>2018-04-02T07:21:10Z</time>
      </trkpt>
      <trkpt lat="49.2482" lon="4.15173">
        <ele>174</ele>
        <time>2018-04-02T07:22:10Z</time>
      </trkpt>
      <trkpt lat="49.24819" lon="4.15167">
        <ele>174</ele>
        <time>2018-04-02T07:23:10Z</time>
      </trkpt>
      <trkpt lat="49.24818" lon="4.15161">
        <ele>174</ele>
        <time>2018-04-02T07:24:10Z</time>
      </trkpt>
      <trkpt lat="49.24817" lon="4.15156">
        <ele>173</ele>
        <time>2018-04-02T07:25:10Z</time>
      </trkpt>
      <trkpt lat="49.24816" lon="4.15151">
        <ele>173</ele>
        <time>2018-04-02T07:26:10Z</time>
      </trkpt>
      <trkpt lat="49.24814" lon="4.15145">
        <ele>173</ele>
        <time>2018-04-02T07:27:10Z</time>
      </trkpt>
      <trkpt lat="49.24813" lon="4.1514">
        <ele>173</ele>
        <time>2018-04-02T07:28:10Z</time>
      </trkpt>
      <trkpt lat="49.2481" lon="4.15133">
        <ele>173</ele>
        <time>2018-04-02T07:29:10Z</time>
      </trkpt>
      <trkpt lat="49.24808" lon="4.15126">
        <ele>173</ele>
        <time>2018-04-02T07:30:10Z</time>
      </trkpt>
      <trkpt lat="49.2478" lon="4.15059">
        <ele>172</ele>
        <time>2018-04-02T07:31:10Z</time>
      </trkpt>
      <trkpt lat="49.24776" lon="4.15047">
        <ele>172</ele>
        <time>2018-04-02T07:32:10Z</time>
      </trkpt>
      <trkpt lat="49.24698" lon="4.1482">
        <ele>169</ele>
        <time>2018-04-02T07:33:10Z</time>
      </trkpt>
      <trkpt lat="49.2467" lon="4.14735">
        <ele>169</ele>
        <time>2018-04-02T07:34:10Z</time>
      </trkpt>
      <trkpt lat="49.24665" lon="4.14719">
        <ele>169</ele>
        <time>2018-04-02T07:35:10Z</time>
      </trkpt>
      <trkpt lat="49.24658" lon="4.14698">
        <ele>169</ele>
        <time>2018-04-02T07:36:10Z</time>
      </trkpt>
      <trkpt lat="49.24648" lon="4.14668">
        <ele>169</ele>
        <time>2018-04-02T07:37:10Z</time>
      </trkpt>
      <trkpt lat="49.24632" lon="4.14622">
        <ele>167</ele>
        <time>2018-04-02T07:38:10Z</time>
      </trkpt>
      <trkpt lat="49.24628" lon="4.1461">
        <ele>166</ele>
        <time>2018-04-02T07:39:10Z</time>
      </trkpt>
      <trkpt lat="49.24625" lon="4.14597">
        <ele>166</ele>
        <time>2018-04-02T07:40:10Z</time>
      </trkpt>
      <trkpt lat="49.24621" lon="4.14579">
        <ele>166</ele>
        <time>2018-04-02T07:41:10Z</time>
      </trkpt>
      <trkpt lat="49.24618" lon="4.1456">
        <ele>165</ele>
        <time>2018-04-02T07:42:10Z</time>
      </trkpt>
      <trkpt lat="49.24615" lon="4.14549">
        <ele>165</ele>
        <time>2018-04-02T07:43:10Z</time>
      </trkpt>
      <trkpt lat="49.24613" lon="4.1454">
        <ele>165</ele>
        <time>2018-04-02T07:44:10Z</time>
      </trkpt>
      <trkpt lat="49.2461" lon="4.14529">
        <ele>164</ele>
        <time>2018-04-02T07:45:10Z</time>
      </trkpt>
      <trkpt lat="49.24604" lon="4.14512">
        <ele>164</ele>
        <time>2018-04-02T07:46:10Z</time>
      </trkpt>
      <trkpt lat="49.24579" lon="4.14449">
        <ele>162</ele>
        <time>2018-04-02T07:47:10Z</time>
      </trkpt>
      <trkpt lat="49.24572" lon="4.14431">
        <ele>162</ele>
        <time>2018-04-02T07:48:10Z</time>
      </trkpt>
      <trkpt lat="49.24566" lon="4.14418">
        <ele>162</ele>
        <time>2018-04-02T07:49:10Z</time>
      </trkpt>
      <trkpt lat="49.24561" lon="4.14407">
        <ele>162</ele>
        <time>2018-04-02T07:50:10Z</time>
      </trkpt>
      <trkpt lat="49.24555" lon="4.14394">
        <ele>163</ele>
        <time>2018-04-02T07:51:10Z</time>
      </trkpt>
      <trkpt lat="49.24544" lon="4.14376">
        <ele>162</ele>
        <time>2018-04-02T07:52:10Z</time>
      </trkpt>
      <trkpt lat="49.24535" lon="4.1436">
        <ele>162</ele>
        <time>2018-04-02T07:53:10Z</time>
      </trkpt>
      <trkpt lat="49.24524" lon="4.14342">
        <ele>162</ele>
        <time>2018-04-02T07:54:10Z</time>
      </trkpt>
      <trkpt lat="49.24512" lon="4.14326">
        <ele>162</ele>
        <time>2018-04-02T07:55:10Z</time>
      </trkpt>
      <trkpt lat="49.24483" lon="4.14286">
        <ele>160</ele>
        <time>2018-04-02T07:56:10Z</time>
      </trkpt>
      <trkpt lat="49.24474" lon="4.14276">
        <ele>160</ele>
        <time>2018-04-02T07:57:10Z</time>
      </trkpt>
      <trkpt lat="49.24466" lon="4.14265">
        <ele>160</ele>
        <time>2018-04-02T07:58:10Z</time>
      </trkpt>
      <trkpt lat="49.24461" lon="4.14257">
        <ele>160</ele>
        <time>2018-04-02T07:59:10Z</time>
      </trkpt>
      <trkpt lat="49.24455" lon="4.14248">
        <ele>159</ele>
        <time>2018-04-02T08:00:10Z</time>
      </trkpt>
      <trkpt lat="49.24452" lon="4.1424">
        <ele>159</ele>
        <time>2018-04-02T08:01:10Z</time>
      </trkpt>
      <trkpt lat="49.24447" lon="4.14231">
        <ele>158</ele>
        <time>2018-04-02T08:02:10Z</time>
      </trkpt>
      <trkpt lat="49.24407" lon="4.14135">
        <ele>154</ele>
        <time>2018-04-02T08:03:10Z</time>
      </trkpt>
      <trkpt lat="49.24346" lon="4.1399">
        <ele>146</ele>
        <time>2018-04-02T08:04:10Z</time>
      </trkpt>
      <trkpt lat="49.24342" lon="4.1398">
        <ele>145</ele>
        <time>2018-04-02T08:05:10Z</time>
      </trkpt>
      <trkpt lat="49.24322" lon="4.13932">
        <ele>143</ele>
        <time>2018-04-02T08:06:10Z</time>
      </trkpt>
      <trkpt lat="49.2432" lon="4.13929">
        <ele>143</ele>
        <time>2018-04-02T08:07:10Z</time>
      </trkpt>
      <trkpt lat="49.24318" lon="4.13925">
        <ele>143</ele>
        <time>2018-04-02T08:08:10Z</time>
      </trkpt>
      <trkpt lat="49.24316" lon="4.13922">
        <ele>143</ele>
        <time>2018-04-02T08:09:10Z</time>
      </trkpt>
      <trkpt lat="49.24314" lon="4.13919">
        <ele>143</ele>
        <time>2018-04-02T08:10:10Z</time>
      </trkpt>
      <trkpt lat="49.24311" lon="4.13916">
        <ele>143</ele>
        <time>2018-04-02T08:11:10Z</time>
      </trkpt>
      <trkpt lat="49.24309" lon="4.13913">
        <ele>143</ele>
        <time>2018-04-02T08:12:10Z</time>
      </trkpt>
      <trkpt lat="49.24306" lon="4.1391">
        <ele>143</ele>
        <time>2018-04-02T08:13:10Z</time>
      </trkpt>
      <trkpt lat="49.24303" lon="4.13908">
        <ele>143</ele>
        <time>2018-04-02T08:14:10Z</time>
      </trkpt>
      <trkpt lat="49.243" lon="4.13906">
        <ele>143</ele>
        <time>2018-04-02T08:15:10Z</time>
      </trkpt>
      <trkpt lat="49.24296" lon="4.13903">
        <ele>143</ele>
        <time>2018-04-02T08:16:10Z</time>
      </trkpt>
      <trkpt lat="49.24289" lon="4.13899">
        <ele>143</ele>
        <time>2018-04-02T08:17:10Z</time>
      </trkpt>
      <trkpt lat="49.24258" lon="4.13886">
        <ele>144</ele>
        <time>2018-04-02T08:18:10Z</time>
      </trkpt>
      <trkpt lat="49.2425" lon="4.13882">
        <ele>144</ele>
        <time>2018-04-02T08:19:10Z</time>
      </trkpt>
      <trkpt lat="49.24243" lon="4.13879">
        <ele>144</ele>
        <time>2018-04-02T08:20:10Z</time>
      </trkpt>
      <trkpt lat="49.24236" lon="4.13876">
        <ele>144</ele>
        <time>2018-04-02T08:21:10Z</time>
      </trkpt>
      <trkpt lat="49.2423" lon="4.13873">
        <ele>145</ele>
        <time>2018-04-02T08:22:10Z</time>
      </trkpt>
      <trkpt lat="49.24225" lon="4.1387">
        <ele>145</ele>
        <time>2018-04-02T08:23:10Z</time>
      </trkpt>
      <trkpt lat="49.2422" lon="4.13867">
        <ele>145</ele>
        <time>2018-04-02T08:24:10Z</time>
      </trkpt>
      <trkpt lat="49.24214" lon="4.13862">
        <ele>146</ele>
        <time>2018-04-02T08:25:10Z</time>
      </trkpt>
      <trkpt lat="49.24203" lon="4.13854">
        <ele>146</ele>
        <time>2018-04-02T08:26:10Z</time>
      </trkpt>
      <trkpt lat="49.24184" lon="4.13838">
        <ele>147</ele>
        <time>2018-04-02T08:27:10Z</time>
      </trkpt>
      <trkpt lat="49.24155" lon="4.13813">
        <ele>148</ele>
        <time>2018-04-02T08:28:10Z</time>
      </trkpt>
      <trkpt lat="49.24153" lon="4.13811">
        <ele>148</ele>
        <time>2018-04-02T08:29:10Z</time>
      </trkpt>
      <trkpt lat="49.24151" lon="4.13808">
        <ele>148</ele>
        <time>2018-04-02T08:30:10Z</time>
      </trkpt>
      <trkpt lat="49.24149" lon="4.13806">
        <ele>148</ele>
        <time>2018-04-02T08:31:10Z</time>
      </trkpt>
      <trkpt lat="49.24147" lon="4.13803">
        <ele>148</ele>
        <time>2018-04-02T08:32:10Z</time>
      </trkpt>
      <trkpt lat="49.24145" lon="4.138">
        <ele>148</ele>
        <time>2018-04-02T08:33:10Z</time>
      </trkpt>
      <trkpt lat="49.24144" lon="4.13798">
        <ele>148</ele>
        <time>2018-04-02T08:34:10Z</time>
      </trkpt>
      <trkpt lat="49.24143" lon="4.13795">
        <ele>148</ele>
        <time>2018-04-02T08:35:10Z</time>
      </trkpt>
      <trkpt lat="49.24142" lon="4.13791">
        <ele>149</ele>
        <time>2018-04-02T08:36:10Z</time>
      </trkpt>
      <trkpt lat="49.2414" lon="4.13784">
        <ele>149</ele>
        <time>2018-04-02T08:37:10Z</time>
      </trkpt>
      <trkpt lat="49.2414" lon="4.13779">
        <ele>149</ele>
        <time>2018-04-02T08:38:10Z</time>
      </trkpt>
      <trkpt lat="49.24139" lon="4.13776">
        <ele>149</ele>
        <time>2018-04-02T08:39:10Z</time>
      </trkpt>
      <trkpt lat="49.24139" lon="4.13772">
        <ele>149</ele>
        <time>2018-04-02T08:40:10Z</time>
      </trkpt>
      <trkpt lat="49.24139" lon="4.13768">
        <ele>149</ele>
        <time>2018-04-02T08:41:10Z</time>
      </trkpt>
      <trkpt lat="49.2414" lon="4.13763">
        <ele>149</ele>
        <time>2018-04-02T08:42:10Z</time>
      </trkpt>
      <trkpt lat="49.24142" lon="4.13748">
        <ele>149</ele>
        <time>2018-04-02T08:43:10Z</time>
      </trkpt>
      <trkpt lat="49.24144" lon="4.13726">
        <ele>150</ele>
        <time>2018-04-02T08:44:10Z</time>
      </trkpt>
      <trkpt lat="49.24152" lon="4.13668">
        <ele>152</ele>
        <time>2018-04-02T08:45:10Z</time>
      </trkpt>
      <trkpt lat="49.24161" lon="4.13593">
        <ele>154</ele>
        <time>2018-04-02T08:46:10Z</time>
      </trkpt>
      <trkpt lat="49.24169" lon="4.13533">
        <ele>156</ele>
        <time>2018-04-02T08:47:10Z</time>
      </trkpt>
      <trkpt lat="49.24172" lon="4.13505">
        <ele>158</ele>
        <time>2018-04-02T08:48:10Z</time>
      </trkpt>
      <trkpt lat="49.24176" lon="4.13471">
        <ele>159</ele>
        <time>2018-04-02T08:49:10Z</time>
      </trkpt>
      <trkpt lat="49.24179" lon="4.13448">
        <ele>160</ele>
        <time>2018-04-02T08:50:10Z</time>
      </trkpt>
      <trkpt lat="49.24181" lon="4.13432">
        <ele>161</ele>
        <time>2018-04-02T08:51:10Z</time>
      </trkpt>
      <trkpt lat="49.24191" lon="4.13352">
        <ele>165</ele>
        <time>2018-04-02T08:52:10Z</time>
      </trkpt>
      <trkpt lat="49.24203" lon="4.13262">
        <ele>171</ele>
        <time>2018-04-02T08:53:10Z</time>
      </trkpt>
      <trkpt lat="49.24204" lon="4.13248">
        <ele>172</ele>
        <time>2018-04-02T08:54:10Z</time>
      </trkpt>
      <trkpt lat="49.24204" lon="4.13242">
        <ele>172</ele>
        <time>2018-04-02T08:55:10Z</time>
      </trkpt>
      <trkpt lat="49.24204" lon="4.13236">
        <ele>172</ele>
        <time>2018-04-02T08:56:10Z</time>
      </trkpt>
      <trkpt lat="49.24204" lon="4.1323">
        <ele>173</ele>
        <time>2018-04-02T08:57:10Z</time>
      </trkpt>
      <trkpt lat="49.24204" lon="4.13224">
        <ele>173</ele>
        <time>2018-04-02T08:58:10Z</time>
      </trkpt>
      <trkpt lat="49.24204" lon="4.13218">
        <ele>173</ele>
        <time>2018-04-02T08:59:10Z</time>
      </trkpt>
      <trkpt lat="49.24202" lon="4.13211">
        <ele>173</ele>
        <time>2018-04-02T09:00:10Z</time>
      </trkpt>
      <trkpt lat="49.24201" lon="4.13205">
        <ele>174</ele>
        <time>2018-04-02T09:01:10Z</time>
      </trkpt>
      <trkpt lat="49.242" lon="4.13199">
        <ele>174</ele>
        <time>2018-04-02T09:02:10Z</time>
      </trkpt>
      <trkpt lat="49.24198" lon="4.13193">
        <ele>174</ele>
        <time>2018-04-02T09:03:10Z</time>
      </trkpt>
      <trkpt lat="49.24196" lon="4.13187">
        <ele>175</ele>
        <time>2018-04-02T09:04:10Z</time>
      </trkpt>
      <trkpt lat="49.24193" lon="4.13179">
        <ele>175</ele>
        <time>2018-04-02T09:05:10Z</time>
      </trkpt>
      <trkpt lat="49.24189" lon="4.13167">
        <ele>176</ele>
        <time>2018-04-02T09:06:10Z</time>
      </trkpt>
      <trkpt lat="49.24161" lon="4.13095">
        <ele>177</ele>
        <time>2018-04-02T09:07:10Z</time>
      </trkpt>
      <trkpt lat="49.24149" lon="4.13061">
        <ele>177</ele>
        <time>2018-04-02T09:08:10Z</time>
      </trkpt>
      <trkpt lat="49.24144" lon="4.13049">
        <ele>177</ele>
        <time>2018-04-02T09:09:10Z</time>
      </trkpt>
      <trkpt lat="49.24139" lon="4.13033">
        <ele>177</ele>
        <time>2018-04-02T09:10:10Z</time>
      </trkpt>
      <trkpt lat="49.24135" lon="4.13016">
        <ele>176</ele>
        <time>2018-04-02T09:11:10Z</time>
      </trkpt>
      <trkpt lat="49.24132" lon="4.13003">
        <ele>176</ele>
        <time>2018-04-02T09:12:10Z</time>
      </trkpt>
      <trkpt lat="49.2413" lon="4.12995">
        <ele>176</ele>
        <time>2018-04-02T09:13:10Z</time>
      </trkpt>
      <trkpt lat="49.2413" lon="4.12988">
        <ele>175</ele>
        <time>2018-04-02T09:14:10Z</time>
      </trkpt>
      <trkpt lat="49.2413" lon="4.12982">
        <ele>175</ele>
        <time>2018-04-02T09:15:10Z</time>
      </trkpt>
      <trkpt lat="49.2413" lon="4.12975">
        <ele>175</ele>
        <time>2018-04-02T09:16:10Z</time>
      </trkpt>
      <trkpt lat="49.24131" lon="4.12969">
        <ele>175</ele>
        <time>2018-04-02T09:17:10Z</time>
      </trkpt>
      <trkpt lat="49.24132" lon="4.12963">
        <ele>175</ele>
        <time>2018-04-02T09:18:10Z</time>
      </trkpt>
      <trkpt lat="49.24134" lon="4.12957">
        <ele>175</ele>
        <time>2018-04-02T09:19:10Z</time>
      </trkpt>
      <trkpt lat="49.24136" lon="4.12952">
        <ele>175</ele>
        <time>2018-04-02T09:20:10Z</time>
      </trkpt>
      <trkpt lat="49.24138" lon="4.12948">
        <ele>175</ele>
        <time>2018-04-02T09:21:10Z</time>
      </trkpt>
      <trkpt lat="49.24144" lon="4.12938">
        <ele>175</ele>
        <time>2018-04-02T09:22:10Z</time>
      </trkpt>
      <trkpt lat="49.24178" lon="4.12884">
        <ele>175</ele>
        <time>2018-04-02T09:23:10Z</time>
      </trkpt>
      <trkpt lat="49.24209" lon="4.12833">
        <ele>172</ele>
        <time>2018-04-02T09:24:10Z</time>
      </trkpt>
      <trkpt lat="49.24249" lon="4.12768">
        <ele>169</ele>
        <time>2018-04-02T09:25:10Z</time>
      </trkpt>
      <trkpt lat="49.24257" lon="4.12754">
        <ele>168</ele>
        <time>2018-04-02T09:26:10Z</time>
      </trkpt>
      <trkpt lat="49.24264" lon="4.12743">
        <ele>168</ele>
        <time>2018-04-02T09:27:10Z</time>
      </trkpt>
      <trkpt lat="49.24271" lon="4.1273">
        <ele>167</ele>
        <time>2018-04-02T09:28:10Z</time>
      </trkpt>
      <trkpt lat="49.24275" lon="4.1272">
        <ele>166</ele>
        <time>2018-04-02T09:29:10Z</time>
      </trkpt>
      <trkpt lat="49.24277" lon="4.12715">
        <ele>166</ele>
        <time>2018-04-02T09:30:10Z</time>
      </trkpt>
      <trkpt lat="49.24278" lon="4.12709">
        <ele>165</ele>
        <time>2018-04-02T09:31:10Z</time>
      </trkpt>
      <trkpt lat="49.24282" lon="4.12692">
        <ele>164</ele>
        <time>2018-04-02T09:32:10Z</time>
      </trkpt>
      <trkpt lat="49.24286" lon="4.12676">
        <ele>163</ele>
        <time>2018-04-02T09:33:10Z</time>
      </trkpt>
      <trkpt lat="49.24299" lon="4.12621">
        <ele>160</ele>
        <time>2018-04-02T09:34:10Z</time>
      </trkpt>
      <trkpt lat="49.24302" lon="4.1261">
        <ele>159</ele>
        <time>2018-04-02T09:35:10Z</time>
      </trkpt>
      <trkpt lat="49.24305" lon="4.12598">
        <ele>158</ele>
        <time>2018-04-02T09:36:10Z</time>
      </trkpt>
      <trkpt lat="49.24308" lon="4.12589">
        <ele>158</ele>
        <time>2018-04-02T09:37:10Z</time>
      </trkpt>
      <trkpt lat="49.24313" lon="4.12578">
        <ele>157</ele>
        <time>2018-04-02T09:38:10Z</time>
      </trkpt>
      <trkpt lat="49.24317" lon="4.1257">
        <ele>156</ele>
        <time>2018-04-02T09:39:10Z</time>
      </trkpt>
      <trkpt lat="49.24323" lon="4.1256">
        <ele>156</ele>
        <time>2018-04-02T09:40:10Z</time>
      </trkpt>
      <trkpt lat="49.2433" lon="4.1255">
        <ele>155</ele>
        <time>2018-04-02T09:41:10Z</time>
      </trkpt>
      <trkpt lat="49.24349" lon="4.12528">
        <ele>154</ele>
        <time>2018-04-02T09:42:10Z</time>
      </trkpt>
      <trkpt lat="49.24364" lon="4.12509">
        <ele>153</ele>
        <time>2018-04-02T09:43:10Z</time>
      </trkpt>
      <trkpt lat="49.24386" lon="4.12483">
        <ele>152</ele>
        <time>2018-04-02T09:44:10Z</time>
      </trkpt>
      <trkpt lat="49.24421" lon="4.1244">
        <ele>150</ele>
        <time>2018-04-02T09:45:10Z</time>
      </trkpt>
      <trkpt lat="49.24427" lon="4.12433">
        <ele>150</ele>
        <time>2018-04-02T09:46:10Z</time>
      </trkpt>
      <trkpt lat="49.24433" lon="4.12423">
        <ele>149</ele>
        <time>2018-04-02T09:47:10Z</time>
      </trkpt>
      <trkpt lat="49.24439" lon="4.12412">
        <ele>149</ele>
        <time>2018-04-02T09:48:10Z</time>
      </trkpt>
      <trkpt lat="49.24444" lon="4.12402">
        <ele>149</ele>
        <time>2018-04-02T09:49:10Z</time>
      </trkpt>
      <trkpt lat="49.24448" lon="4.12392">
        <ele>148</ele>
        <time>2018-04-02T09:50:10Z</time>
      </trkpt>
      <trkpt lat="49.24451" lon="4.12381">
        <ele>148</ele>
        <time>2018-04-02T09:51:10Z</time>
      </trkpt>
      <trkpt lat="49.24454" lon="4.1237">
        <ele>148</ele>
        <time>2018-04-02T09:52:10Z</time>
      </trkpt>
      <trkpt lat="49.24456" lon="4.12361">
        <ele>147</ele>
        <time>2018-04-02T09:53:10Z</time>
      </trkpt>
      <trkpt lat="49.24457" lon="4.12353">
        <ele>147</ele>
        <time>2018-04-02T09:54:10Z</time>
      </trkpt>
      <trkpt lat="49.24458" lon="4.12344">
        <ele>146</ele>
        <time>2018-04-02T09:55:10Z</time>
      </trkpt>
      <trkpt lat="49.24459" lon="4.12336">
        <ele>146</ele>
        <time>2018-04-02T09:56:10Z</time>
      </trkpt>
      <trkpt lat="49.2446" lon="4.12311">
        <ele>146</ele>
        <time>2018-04-02T09:57:10Z</time>
      </trkpt>
      <trkpt lat="49.24462" lon="4.12279">
        <ele>146</ele>
        <time>2018-04-02T09:58:10Z</time>
      </trkpt>
      <trkpt lat="49.24467" lon="4.12173">
        <ele>144</ele>
        <time>2018-04-02T09:59:10Z</time>
      </trkpt>
      <trkpt lat="49.24473" lon="4.12041">
        <ele>144</ele>
        <time>2018-04-02T10:00:10Z</time>
      </trkpt>
      <trkpt lat="49.24475" lon="4.11985">
        <ele>144</ele>
        <time>2018-04-02T10:01:10Z</time>
      </trkpt>
      <trkpt lat="49.2448" lon="4.11895">
        <ele>144</ele>
        <time>2018-04-02T10:02:10Z</time>
      </trkpt>
      <trkpt lat="49.24482" lon="4.11858">
        <ele>143</ele>
        <time>2018-04-02T10:03:10Z</time>
      </trkpt>
      <trkpt lat="49.24485" lon="4.11825">
        <ele>143</ele>
        <time>2018-04-02T10:04:10Z</time>
      </trkpt>
      <trkpt lat="49.24487" lon="4.11805">
        <ele>143</ele>
        <time>2018-04-02T10:05:10Z</time>
      </trkpt>
      <trkpt lat="49.24499" lon="4.11732">
        <ele>143</ele>
        <time>2018-04-02T10:06:10Z</time>
      </trkpt>
      <trkpt lat="49.24519" lon="4.11616">
        <ele>143</ele>
        <time>2018-04-02T10:07:10Z</time>
      </trkpt>
      <trkpt lat="49.24526" lon="4.11567">
        <ele>143</ele>
        <time>2018-04-02T10:08:10Z</time>
      </trkpt>
      <trkpt lat="49.2453" lon="4.11539">
        <ele>143</ele>
        <time>2018-04-02T10:09:10Z</time>
      </trkpt>
      <trkpt lat="49.24536" lon="4.11495">
        <ele>143</ele>
        <time>2018-04-02T10:10:10Z</time>
      </trkpt>
      <trkpt lat="49.24536" lon="4.11495">
        <ele>143</ele>
        <time>2018-04-02T10:11:10Z</time>
      </trkpt>
      <trkpt lat="49.24557" lon="4.11486">
        <ele>144</ele>
        <time>2018-04-02T10:12:10Z</time>
      </trkpt>
      <trkpt lat="49.24602" lon="4.11466">
        <ele>147</ele>
        <time>2018-04-02T10:13:10Z</time>
      </trkpt>
      <trkpt lat="49.2463" lon="4.11452">
        <ele>148</ele>
        <time>2018-04-02T10:14:10Z</time>
      </trkpt>
      <trkpt lat="49.2466" lon="4.11433">
        <ele>149</ele>
        <time>2018-04-02T10:15:10Z</time>
      </trkpt>
      <trkpt lat="49.24674" lon="4.11425">
        <ele>149</ele>
        <time>2018-04-02T10:16:10Z</time>
      </trkpt>
      <trkpt lat="49.24707" lon="4.11398">
        <ele>149</ele>
        <time>2018-04-02T10:17:10Z</time>
      </trkpt>
      <trkpt lat="49.24709" lon="4.11395">
        <ele>149</ele>
        <time>2018-04-02T10:18:10Z</time>
      </trkpt>
      <trkpt lat="49.24724" lon="4.11379">
        <ele>149</ele>
        <time>2018-04-02T10:19:10Z</time>
      </trkpt>
      <trkpt lat="49.24737" lon="4.1136">
        <ele>148</ele>
        <time>2018-04-02T10:20:10Z</time>
      </trkpt>
      <trkpt lat="49.24768" lon="4.11306">
        <ele>146</ele>
        <time>2018-04-02T10:21:10Z</time>
      </trkpt>
      <trkpt lat="49.24796" lon="4.1124">
        <ele>142</ele>
        <time>2018-04-02T10:22:10Z</time>
      </trkpt>
      <trkpt lat="49.24832" lon="4.11149">
        <ele>139</ele>
        <time>2018-04-02T10:23:10Z</time>
      </trkpt>
      <trkpt lat="49.2485" lon="4.11106">
        <ele>137</ele>
        <time>2018-04-02T10:24:10Z</time>
      </trkpt>
      <trkpt lat="49.24869" lon="4.11065">
        <ele>135</ele>
        <time>2018-04-02T10:25:10Z</time>
      </trkpt>
      <trkpt lat="49.24872" lon="4.11056">
        <ele>135</ele>
        <time>2018-04-02T10:26:10Z</time>
      </trkpt>
      <trkpt lat="49.24878" lon="4.11047">
        <ele>134</ele>
        <time>2018-04-02T10:27:10Z</time>
      </trkpt>
      <trkpt lat="49.24884" lon="4.11037">
        <ele>134</ele>
        <time>2018-04-02T10:28:10Z</time>
      </trkpt>
      <trkpt lat="49.24902" lon="4.11018">
        <ele>133</ele>
        <time>2018-04-02T10:29:10Z</time>
      </trkpt>
      <trkpt lat="49.24912" lon="4.11008">
        <ele>132</ele>
        <time>2018-04-02T10:30:10Z</time>
      </trkpt>
      <trkpt lat="49.24924" lon="4.10997">
        <ele>132</ele>
        <time>2018-04-02T10:31:10Z</time>
      </trkpt>
      <trkpt lat="49.24929" lon="4.10994">
        <ele>131</ele>
        <time>2018-04-02T10:32:10Z</time>
      </trkpt>
      <trkpt lat="49.24999" lon="4.10956">
        <ele>128</ele>
        <time>2018-04-02T10:33:10Z</time>
      </trkpt>
      <trkpt lat="49.25072" lon="4.10919">
        <ele>131</ele>
        <time>2018-04-02T10:34:10Z</time>
      </trkpt>
      <trkpt lat="49.25146" lon="4.10885">
        <ele>134</ele>
        <time>2018-04-02T10:35:10Z</time>
      </trkpt>
      <trkpt lat="49.25183" lon="4.10872">
        <ele>135</ele>
        <time>2018-04-02T10:36:10Z</time>
      </trkpt>
      <trkpt lat="49.25216" lon="4.10866">
        <ele>136</ele>
        <time>2018-04-02T10:37:10Z</time>
      </trkpt>
      <trkpt lat="49.25275" lon="4.10852">
        <ele>138</ele>
        <time>2018-04-02T10:38:10Z</time>
      </trkpt>
      <trkpt lat="49.25295" lon="4.10845">
        <ele>138</ele>
        <time>2018-04-02T10:39:10Z</time>
      </trkpt>
      <trkpt lat="49.25306" lon="4.10841">
        <ele>139</ele>
        <time>2018-04-02T10:40:10Z</time>
      </trkpt>
      <trkpt lat="49.25316" lon="4.10836">
        <ele>139</ele>
        <time>2018-04-02T10:41:10Z</time>
      </trkpt>
      <trkpt lat="49.25335" lon="4.10825">
        <ele>139</ele>
        <time>2018-04-02T10:42:10Z</time>
      </trkpt>
      <trkpt lat="49.25354" lon="4.10811">
        <ele>139</ele>
        <time>2018-04-02T10:43:10Z</time>
      </trkpt>
      <trkpt lat="49.25402" lon="4.10771">
        <ele>140</ele>
        <time>2018-04-02T10:44:10Z</time>
      </trkpt>
      <trkpt lat="49.25419" lon="4.1076">
        <ele>140</ele>
        <time>2018-04-02T10:45:10Z</time>
      </trkpt>
      <trkpt lat="49.25432" lon="4.10752">
        <ele>139</ele>
        <time>2018-04-02T10:46:10Z</time>
      </trkpt>
      <trkpt lat="49.25442" lon="4.10749">
        <ele>139</ele>
        <time>2018-04-02T10:47:10Z</time>
      </trkpt>
      <trkpt lat="49.25453" lon="4.10747">
        <ele>138</ele>
        <time>2018-04-02T10:48:10Z</time>
      </trkpt>
      <trkpt lat="49.25466" lon="4.10745">
        <ele>138</ele>
        <time>2018-04-02T10:49:10Z</time>
      </trkpt>
      <trkpt lat="49.2548" lon="4.10746">
        <ele>137</ele>
        <time>2018-04-02T10:50:10Z</time>
      </trkpt>
      <trkpt lat="49.25514" lon="4.10755">
        <ele>135</ele>
        <time>2018-04-02T10:51:10Z</time>
      </trkpt>
      <trkpt lat="49.25544" lon="4.10766">
        <ele>134</ele>
        <time>2018-04-02T10:52:10Z</time>
      </trkpt>
      <trkpt lat="49.25641" lon="4.10805">
        <ele>131</ele>
        <time>2018-04-02T10:53:10Z</time>
      </trkpt>
      <trkpt lat="49.25656" lon="4.1081">
        <ele>131</ele>
        <time>2018-04-02T10:54:10Z</time>
      </trkpt>
      <trkpt lat="49.2585" lon="4.10863">
        <ele>131</ele>
        <time>2018-04-02T10:55:10Z</time>
      </trkpt>
      <trkpt lat="49.25908" lon="4.10876">
        <ele>131</ele>
        <time>2018-04-02T10:56:10Z</time>
      </trkpt>
      <trkpt lat="49.25924" lon="4.10879">
        <ele>132</ele>
        <time>2018-04-02T10:57:10Z</time>
      </trkpt>
      <trkpt lat="49.2594" lon="4.1088">
        <ele>132</ele>
        <time>2018-04-02T10:58:10Z</time>
      </trkpt>
      <trkpt lat="49.25955" lon="4.10878">
        <ele>132</ele>
        <time>2018-04-02T10:59:10Z</time>
      </trkpt>
      <trkpt lat="49.26022" lon="4.10869">
        <ele>132</ele>
        <time>2018-04-02T11:00:10Z</time>
      </trkpt>
      <trkpt lat="49.26038" lon="4.10866">
        <ele>132</ele>
        <time>2018-04-02T11:01:10Z</time>
      </trkpt>
      <trkpt lat="49.26052" lon="4.10861">
        <ele>132</ele>
        <time>2018-04-02T11:02:10Z</time>
      </trkpt>
      <trkpt lat="49.26062" lon="4.10856">
        <ele>132</ele>
        <time>2018-04-02T11:03:10Z</time>
      </trkpt>
      <trkpt lat="49.26073" lon="4.10844">
        <ele>132</ele>
        <time>2018-04-02T11:04:10Z</time>
      </trkpt>
      <trkpt lat="49.26089" lon="4.10826">
        <ele>132</ele>
        <time>2018-04-02T11:05:10Z</time>
      </trkpt>
      <trkpt lat="49.26099" lon="4.10814">
        <ele>132</ele>
        <time>2018-04-02T11:06:10Z</time>
      </trkpt>
      <trkpt lat="49.26152" lon="4.10732">
        <ele>133</ele>
        <time>2018-04-02T11:07:10Z</time>
      </trkpt>
      <trkpt lat="49.26165" lon="4.10711">
        <ele>134</ele>
        <time>2018-04-02T11:08:10Z</time>
      </trkpt>
      <trkpt lat="49.26268" lon="4.10549">
        <ele>134</ele>
        <time>2018-04-02T11:09:10Z</time>
      </trkpt>
      <trkpt lat="49.26276" lon="4.10537">
        <ele>134</ele>
        <time>2018-04-02T11:10:10Z</time>
      </trkpt>
      <trkpt lat="49.26283" lon="4.10521">
        <ele>133</ele>
        <time>2018-04-02T11:11:10Z</time>
      </trkpt>
      <trkpt lat="49.26283" lon="4.10521">
        <ele>133</ele>
        <time>2018-04-02T11:12:10Z</time>
      </trkpt>
      <trkpt lat="49.26249" lon="4.10403">
        <ele>130</ele>
        <time>2018-04-02T11:13:10Z</time>
      </trkpt>
      <trkpt lat="49.2624" lon="4.10375">
        <ele>129</ele>
        <time>2018-04-02T11:14:10Z</time>
      </trkpt>
      <trkpt lat="49.26238" lon="4.10365">
        <ele>129</ele>
        <time>2018-04-02T11:15:10Z</time>
      </trkpt>
      <trkpt lat="49.26234" lon="4.10352">
        <ele>128</ele>
        <time>2018-04-02T11:16:10Z</time>
      </trkpt>
      <trkpt lat="49.2623" lon="4.1033">
        <ele>128</ele>
        <time>2018-04-02T11:17:10Z</time>
      </trkpt>
      <trkpt lat="49.26227" lon="4.10311">
        <ele>127</ele>
        <time>2018-04-02T11:18:10Z</time>
      </trkpt>
      <trkpt lat="49.26225" lon="4.10292">
        <ele>126</ele>
        <time>2018-04-02T11:19:10Z</time>
      </trkpt>
      <trkpt lat="49.26223" lon="4.10274">
        <ele>126</ele>
        <time>2018-04-02T11:20:10Z</time>
      </trkpt>
      <trkpt lat="49.26221" lon="4.10259">
        <ele>125</ele>
        <time>2018-04-02T11:21:10Z</time>
      </trkpt>
      <trkpt lat="49.2622" lon="4.10241">
        <ele>125</ele>
        <time>2018-04-02T11:22:10Z</time>
      </trkpt>
      <trkpt lat="49.26211" lon="4.10175">
        <ele>125</ele>
        <time>2018-04-02T11:23:10Z</time>
      </trkpt>
      <trkpt lat="49.26204" lon="4.10116">
        <ele>124</ele>
        <time>2018-04-02T11:24:10Z</time>
      </trkpt>
      <trkpt lat="49.26199" lon="4.10089">
        <ele>123</ele>
        <time>2018-04-02T11:25:10Z</time>
      </trkpt>
      <trkpt lat="49.2619" lon="4.1002">
        <ele>122</ele>
        <time>2018-04-02T11:26:10Z</time>
      </trkpt>
      <trkpt lat="49.26185" lon="4.09981">
        <ele>122</ele>
        <time>2018-04-02T11:27:10Z</time>
      </trkpt>
      <trkpt lat="49.26157" lon="4.09765">
        <ele>118</ele>
        <time>2018-04-02T11:28:10Z</time>
      </trkpt>
      <trkpt lat="49.26154" lon="4.09743">
        <ele>118</ele>
        <time>2018-04-02T11:29:10Z</time>
      </trkpt>
      <trkpt lat="49.26152" lon="4.09717">
        <ele>118</ele>
        <time>2018-04-02T11:30:10Z</time>
      </trkpt>
      <trkpt lat="49.26141" lon="4.09617">
        <ele>116</ele>
        <time>2018-04-02T11:31:10Z</time>
      </trkpt>
      <trkpt lat="49.26141" lon="4.09617">
        <ele>116</ele>
        <time>2018-04-02T11:32:10Z</time>
      </trkpt>
      <trkpt lat="49.26141" lon="4.09616">
        <ele>116</ele>
        <time>2018-04-02T11:33:10Z</time>
      </trkpt>
      <trkpt lat="49.26142" lon="4.09616">
        <ele>116</ele>
        <time>2018-04-02T11:34:10Z</time>
      </trkpt>
      <trkpt lat="49.26143" lon="4.09616">
        <ele>116</ele>
        <time>2018-04-02T11:35:10Z</time>
      </trkpt>
      <trkpt lat="49.26143" lon="4.09615">
        <ele>116</ele>
        <time>2018-04-02T11:36:10Z</time>
      </trkpt>
      <trkpt lat="49.26144" lon="4.09615">
        <ele>116</ele>
        <time>2018-04-02T11:37:10Z</time>
      </trkpt>
      <trkpt lat="49.26144" lon="4.09614">
        <ele>116</ele>
        <time>2018-04-02T11:38:10Z</time>
      </trkpt>
      <trkpt lat="49.26145" lon="4.09613">
        <ele>116</ele>
        <time>2018-04-02T11:39:10Z</time>
      </trkpt>
      <trkpt lat="49.26145" lon="4.09612">
        <ele>116</ele>
        <time>2018-04-02T11:40:10Z</time>
      </trkpt>
      <trkpt lat="49.26145" lon="4.09611">
        <ele>116</ele>
        <time>2018-04-02T11:41:10Z</time>
      </trkpt>
      <trkpt lat="49.26146" lon="4.09611">
        <ele>116</ele>
        <time>2018-04-02T11:42:10Z</time>
      </trkpt>
      <trkpt lat="49.26146" lon="4.0961">
        <ele>116</ele>
        <time>2018-04-02T11:43:10Z</time>
      </trkpt>
      <trkpt lat="49.26146" lon="4.09609">
        <ele>116</ele>
        <time>2018-04-02T11:44:10Z</time>
      </trkpt>
      <trkpt lat="49.26146" lon="4.09608">
        <ele>116</ele>
        <time>2018-04-02T11:45:10Z</time>
      </trkpt>
      <trkpt lat="49.26146" lon="4.09607">
        <ele>116</ele>
        <time>2018-04-02T11:46:10Z</time>
      </trkpt>
      <trkpt lat="49.26146" lon="4.09606">
        <ele>116</ele>
        <time>2018-04-02T11:47:10Z</time>
      </trkpt>
      <trkpt lat="49.26146" lon="4.09605">
        <ele>116</ele>
        <time>2018-04-02T11:48:10Z</time>
      </trkpt>
      <trkpt lat="49.26146" lon="4.09604">
        <ele>116</ele>
        <time>2018-04-02T11:49:10Z</time>
      </trkpt>
      <trkpt lat="49.26146" lon="4.09603">
        <ele>116</ele>
        <time>2018-04-02T11:50:10Z</time>
      </trkpt>
      <trkpt lat="49.26146" lon="4.09602">
        <ele>116</ele>
        <time>2018-04-02T11:51:10Z</time>
      </trkpt>
      <trkpt lat="49.26146" lon="4.09601">
        <ele>116</ele>
        <time>2018-04-02T11:52:10Z</time>
      </trkpt>
      <trkpt lat="49.26145" lon="4.09601">
        <ele>116</ele>
        <time>2018-04-02T11:53:10Z</time>
      </trkpt>
      <trkpt lat="49.26145" lon="4.096">
        <ele>116</ele>
        <time>2018-04-02T11:54:10Z</time>
      </trkpt>
      <trkpt lat="49.26145" lon="4.09599">
        <ele>116</ele>
        <time>2018-04-02T11:55:10Z</time>
      </trkpt>
      <trkpt lat="49.26144" lon="4.09599">
        <ele>116</ele>
        <time>2018-04-02T11:56:10Z</time>
      </trkpt>
      <trkpt lat="49.26144" lon="4.09598">
        <ele>116</ele>
        <time>2018-04-02T11:57:10Z</time>
      </trkpt>
      <trkpt lat="49.26143" lon="4.09598">
        <ele>116</ele>
        <time>2018-04-02T11:58:10Z</time>
      </trkpt>
      <trkpt lat="49.26143" lon="4.09597">
        <ele>116</ele>
        <time>2018-04-02T11:59:10Z</time>
      </trkpt>
      <trkpt lat="49.26142" lon="4.09597">
        <ele>116</ele>
        <time>2018-04-02T12:00:10Z</time>
      </trkpt>
      <trkpt lat="49.26142" lon="4.09596">
        <ele>116</ele>
        <time>2018-04-02T12:01:10Z</time>
      </trkpt>
      <trkpt lat="49.26141" lon="4.09596">
        <ele>116</ele>
        <time>2018-04-02T12:02:10Z</time>
      </trkpt>
      <trkpt lat="49.26138" lon="4.09585">
        <ele>116</ele>
        <time>2018-04-02T12:03:10Z</time>
      </trkpt>
      <trkpt lat="49.26137" lon="4.09578">
        <ele>116</ele>
        <time>2018-04-02T12:04:10Z</time>
      </trkpt>
      <trkpt lat="49.26136" lon="4.09574">
        <ele>116</ele>
        <time>2018-04-02T12:05:10Z</time>
      </trkpt>
      <trkpt lat="49.26131" lon="4.09533">
        <ele>115</ele>
        <time>2018-04-02T12:06:10Z</time>
      </trkpt>
      <trkpt lat="49.26123" lon="4.09472">
        <ele>114</ele>
        <time>2018-04-02T12:07:10Z</time>
      </trkpt>
      <trkpt lat="49.26122" lon="4.09466">
        <ele>114</ele>
        <time>2018-04-02T12:08:10Z</time>
      </trkpt>
      <trkpt lat="49.26122" lon="4.09465">
        <ele>114</ele>
        <time>2018-04-02T12:09:10Z</time>
      </trkpt>
      <trkpt lat="49.2612" lon="4.09459">
        <ele>114</ele>
        <time>2018-04-02T12:10:10Z</time>
      </trkpt>
      <trkpt lat="49.26116" lon="4.09427">
        <ele>114</ele>
        <time>2018-04-02T12:11:10Z</time>
      </trkpt>
      <trkpt lat="49.26108" lon="4.09363">
        <ele>115</ele>
        <time>2018-04-02T12:12:10Z</time>
      </trkpt>
      <trkpt lat="49.26088" lon="4.09208">
        <ele>115</ele>
        <time>2018-04-02T12:13:10Z</time>
      </trkpt>
      <trkpt lat="49.26072" lon="4.09079">
        <ele>115</ele>
        <time>2018-04-02T12:14:10Z</time>
      </trkpt>
      <trkpt lat="49.26054" lon="4.08932">
        <ele>117</ele>
        <time>2018-04-02T12:15:10Z</time>
      </trkpt>
      <trkpt lat="49.26046" lon="4.08873">
        <ele>117</ele>
        <time>2018-04-02T12:16:10Z</time>
      </trkpt>
      <trkpt lat="49.26028" lon="4.0873">
        <ele>116</ele>
        <time>2018-04-02T12:17:10Z</time>
      </trkpt>
      <trkpt lat="49.26014" lon="4.08609">
        <ele>113</ele>
        <time>2018-04-02T12:18:10Z</time>
      </trkpt>
      <trkpt lat="49.26012" lon="4.08598">
        <ele>113</ele>
        <time>2018-04-02T12:19:10Z</time>
      </trkpt>
      <trkpt lat="49.26007" lon="4.08559">
        <ele>112</ele>
        <time>2018-04-02T12:20:10Z</time>
      </trkpt>
      <trkpt lat="49.26002" lon="4.0852">
        <ele>113</ele>
        <time>2018-04-02T12:21:10Z</time>
      </trkpt>
      <trkpt lat="49.25989" lon="4.08419">
        <ele>114</ele>
        <time>2018-04-02T12:22:10Z</time>
      </trkpt>
      <trkpt lat="49.25978" lon="4.08329">
        <ele>112</ele>
        <time>2018-04-02T12:23:10Z</time>
      </trkpt>
      <trkpt lat="49.25958" lon="4.08171">
        <ele>110</ele>
        <time>2018-04-02T12:24:10Z</time>
      </trkpt>
      <trkpt lat="49.25924" lon="4.07903">
        <ele>103</ele>
        <time>2018-04-02T12:25:10Z</time>
      </trkpt>
      <trkpt lat="49.25906" lon="4.07762">
        <ele>101</ele>
        <time>2018-04-02T12:26:10Z</time>
      </trkpt>
      <trkpt lat="49.25847" lon="4.07301">
        <ele>101</ele>
        <time>2018-04-02T12:27:10Z</time>
      </trkpt>
      <trkpt lat="49.25837" lon="4.07216">
        <ele>101</ele>
        <time>2018-04-02T12:28:10Z</time>
      </trkpt>
      <trkpt lat="49.25832" lon="4.07184">
        <ele>101</ele>
        <time>2018-04-02T12:29:10Z</time>
      </trkpt>
      <trkpt lat="49.25829" lon="4.07155">
        <ele>101</ele>
        <time>2018-04-02T12:30:10Z</time>
      </trkpt>
      <trkpt lat="49.25826" lon="4.0713">
        <ele>101</ele>
        <time>2018-04-02T12:31:10Z</time>
      </trkpt>
      <trkpt lat="49.25821" lon="4.07095">
        <ele>100</ele>
        <time>2018-04-02T12:32:10Z</time>
      </trkpt>
      <trkpt lat="49.25805" lon="4.06989">
        <ele>100</ele>
        <time>2018-04-02T12:33:10Z</time>
      </trkpt>
      <trkpt lat="49.25802" lon="4.06966">
        <ele>101</ele>
        <time>2018-04-02T12:34:10Z</time>
      </trkpt>
      <trkpt lat="49.25799" lon="4.06946">
        <ele>101</ele>
        <time>2018-04-02T12:35:10Z</time>
      </trkpt>
      <trkpt lat="49.25797" lon="4.0693">
        <ele>101</ele>
        <time>2018-04-02T12:36:10Z</time>
      </trkpt>
      <trkpt lat="49.25794" lon="4.069">
        <ele>101</ele>
        <time>2018-04-02T12:37:10Z</time>
      </trkpt>
      <trkpt lat="49.2579" lon="4.06856">
        <ele>101</ele>
        <time>2018-04-02T12:38:10Z</time>
      </trkpt>
      <trkpt lat="49.25786" lon="4.06803">
        <ele>100</ele>
        <time>2018-04-02T12:39:10Z</time>
      </trkpt>
      <trkpt lat="49.25781" lon="4.06747">
        <ele>100</ele>
        <time>2018-04-02T12:40:10Z</time>
      </trkpt>
      <trkpt lat="49.25778" lon="4.06725">
        <ele>100</ele>
        <time>2018-04-02T12:41:10Z</time>
      </trkpt>
      <trkpt lat="49.25776" lon="4.06701">
        <ele>100</ele>
        <time>2018-04-02T12:42:10Z</time>
      </trkpt>
      <trkpt lat="49.25769" lon="4.06637">
        <ele>100</ele>
        <time>2018-04-02T12:43:10Z</time>
      </trkpt>
      <trkpt lat="49.25759" lon="4.06566">
        <ele>101</ele>
        <time>2018-04-02T12:44:10Z</time>
      </trkpt>
      <trkpt lat="49.25754" lon="4.06533">
        <ele>101</ele>
        <time>2018-04-02T12:45:10Z</time>
      </trkpt>
      <trkpt lat="49.25751" lon="4.06515">
        <ele>102</ele>
        <time>2018-04-02T12:46:10Z</time>
      </trkpt>
      <trkpt lat="49.25747" lon="4.0649">
        <ele>102</ele>
        <time>2018-04-02T12:47:10Z</time>
      </trkpt>
      <trkpt lat="49.25743" lon="4.06471">
        <ele>103</ele>
        <time>2018-04-02T12:48:10Z</time>
      </trkpt>
      <trkpt lat="49.25736" lon="4.06428">
        <ele>103</ele>
        <time>2018-04-02T12:49:10Z</time>
      </trkpt>
      <trkpt lat="49.25734" lon="4.06405">
        <ele>103</ele>
        <time>2018-04-02T12:50:10Z</time>
      </trkpt>
      <trkpt lat="49.25731" lon="4.0637">
        <ele>103</ele>
        <time>2018-04-02T12:51:10Z</time>
      </trkpt>
      <trkpt lat="49.25726" lon="4.063">
        <ele>104</ele>
        <time>2018-04-02T12:52:10Z</time>
      </trkpt>
      <trkpt lat="49.25726" lon="4.063">
        <ele>104</ele>
        <time>2018-04-02T12:53:10Z</time>
      </trkpt>
      <trkpt lat="49.25702" lon="4.0627">
        <ele>104</ele>
        <time>2018-04-02T12:54:10Z</time>
      </trkpt>
      <trkpt lat="49.25694" lon="4.0626">
        <ele>105</ele>
        <time>2018-04-02T12:55:10Z</time>
      </trkpt>
      <trkpt lat="49.25683" lon="4.06246">
        <ele>105</ele>
        <time>2018-04-02T12:56:10Z</time>
      </trkpt>
      <trkpt lat="49.25664" lon="4.06223">
        <ele>105</ele>
        <time>2018-04-02T12:57:10Z</time>
      </trkpt>
      <trkpt lat="49.25637" lon="4.06189">
        <ele>105</ele>
        <time>2018-04-02T12:58:10Z</time>
      </trkpt>
      <trkpt lat="49.25611" lon="4.06158">
        <ele>105</ele>
        <time>2018-04-02T12:59:10Z</time>
      </trkpt>
      <trkpt lat="49.2558" lon="4.06118">
        <ele>104</ele>
        <time>2018-04-02T13:00:10Z</time>
      </trkpt>
      <trkpt lat="49.25579" lon="4.06115">
        <ele>104</ele>
        <time>2018-04-02T13:01:10Z</time>
      </trkpt>
      <trkpt lat="49.25577" lon="4.06112">
        <ele>104</ele>
        <time>2018-04-02T13:02:10Z</time>
      </trkpt>
      <trkpt lat="49.25575" lon="4.06109">
        <ele>104</ele>
        <time>2018-04-02T13:03:10Z</time>
      </trkpt>
      <trkpt lat="49.25568" lon="4.06101">
        <ele>104</ele>
        <time>2018-04-02T13:04:10Z</time>
      </trkpt>
      <trkpt lat="49.25568" lon="4.06101">
        <ele>104</ele>
        <time>2018-04-02T13:05:10Z</time>
      </trkpt>
      <trkpt lat="49.25568" lon="4.061">
        <ele>104</ele>
        <time>2018-04-02T13:06:10Z</time>
      </trkpt>
      <trkpt lat="49.25568" lon="4.06099">
        <ele>104</ele>
        <time>2018-04-02T13:07:10Z</time>
      </trkpt>
      <trkpt lat="49.25568" lon="4.06098">
        <ele>104</ele>
        <time>2018-04-02T13:08:10Z</time>
      </trkpt>
      <trkpt lat="49.25567" lon="4.06098">
        <ele>104</ele>
        <time>2018-04-02T13:09:10Z</time>
      </trkpt>
      <trkpt lat="49.25567" lon="4.06097">
        <ele>104</ele>
        <time>2018-04-02T13:10:10Z</time>
      </trkpt>
      <trkpt lat="49.25567" lon="4.06096">
        <ele>104</ele>
        <time>2018-04-02T13:11:10Z</time>
      </trkpt>
      <trkpt lat="49.25566" lon="4.06095">
        <ele>104</ele>
        <time>2018-04-02T13:12:10Z</time>
      </trkpt>
      <trkpt lat="49.25566" lon="4.06094">
        <ele>104</ele>
        <time>2018-04-02T13:13:10Z</time>
      </trkpt>
      <trkpt lat="49.25565" lon="4.06094">
        <ele>104</ele>
        <time>2018-04-02T13:14:10Z</time>
      </trkpt>
      <trkpt lat="49.25565" lon="4.06093">
        <ele>104</ele>
        <time>2018-04-02T13:15:10Z</time>
      </trkpt>
      <trkpt lat="49.25564" lon="4.06092">
        <ele>104</ele>
        <time>2018-04-02T13:16:10Z</time>
      </trkpt>
      <trkpt lat="49.25563" lon="4.06091">
        <ele>104</ele>
        <time>2018-04-02T13:17:10Z</time>
      </trkpt>
      <trkpt lat="49.25562" lon="4.06091">
        <ele>104</ele>
        <time>2018-04-02T13:18:10Z</time>
      </trkpt>
      <trkpt lat="49.25562" lon="4.0609">
        <ele>104</ele>
        <time>2018-04-02T13:19:10Z</time>
      </trkpt>
      <trkpt lat="49.25561" lon="4.0609">
        <ele>104</ele>
        <time>2018-04-02T13:20:10Z</time>
      </trkpt>
      <trkpt lat="49.2556" lon="4.0609">
        <ele>104</ele>
        <time>2018-04-02T13:21:10Z</time>
      </trkpt>
      <trkpt lat="49.25559" lon="4.06089">
        <ele>104</ele>
        <time>2018-04-02T13:22:10Z</time>
      </trkpt>
      <trkpt lat="49.25558" lon="4.06089">
        <ele>104</ele>
        <time>2018-04-02T13:23:10Z</time>
      </trkpt>
      <trkpt lat="49.25557" lon="4.0609">
        <ele>104</ele>
        <time>2018-04-02T13:24:10Z</time>
      </trkpt>
      <trkpt lat="49.25556" lon="4.0609">
        <ele>104</ele>
        <time>2018-04-02T13:25:10Z</time>
      </trkpt>
      <trkpt lat="49.25553" lon="4.06067">
        <ele>104</ele>
        <time>2018-04-02T13:26:10Z</time>
      </trkpt>
      <trkpt lat="49.25555" lon="4.06045">
        <ele>104</ele>
        <time>2018-04-02T13:27:10Z</time>
      </trkpt>
      <trkpt lat="49.25555" lon="4.06044">
        <ele>105</ele>
        <time>2018-04-02T13:28:10Z</time>
      </trkpt>
      <trkpt lat="49.25565" lon="4.05944">
        <ele>106</ele>
        <time>2018-04-02T13:29:10Z</time>
      </trkpt>
      <trkpt lat="49.25565" lon="4.05944">
        <ele>106</ele>
        <time>2018-04-02T13:30:10Z</time>
      </trkpt>
      <trkpt lat="49.2554" lon="4.05932">
        <ele>106</ele>
        <time>2018-04-02T13:31:10Z</time>
      </trkpt>
      <trkpt lat="49.25514" lon="4.05919">
        <ele>107</ele>
        <time>2018-04-02T13:32:10Z</time>
      </trkpt>
      <trkpt lat="49.25513" lon="4.05918">
        <ele>107</ele>
        <time>2018-04-02T13:33:10Z</time>
      </trkpt>
      <trkpt lat="49.25447" lon="4.05885">
        <ele>107</ele>
        <time>2018-04-02T13:34:10Z</time>
      </trkpt>
      <trkpt lat="49.25444" lon="4.05884">
        <ele>107</ele>
        <time>2018-04-02T13:35:10Z</time>
      </trkpt>
      <trkpt lat="49.25402" lon="4.05863">
        <ele>107</ele>
        <time>2018-04-02T13:36:10Z</time>
      </trkpt>
      <trkpt lat="49.25381" lon="4.05853">
        <ele>107</ele>
        <time>2018-04-02T13:37:10Z</time>
      </trkpt>
      <trkpt lat="49.25359" lon="4.05841">
        <ele>107</ele>
        <time>2018-04-02T13:38:10Z</time>
      </trkpt>
      <trkpt lat="49.25341" lon="4.05833">
        <ele>107</ele>
        <time>2018-04-02T13:39:10Z</time>
      </trkpt>
      <trkpt lat="49.25341" lon="4.05833">
        <ele>107</ele>
        <time>2018-04-02T13:40:10Z</time>
      </trkpt>
      <trkpt lat="49.25251" lon="4.05792">
        <ele>106</ele>
        <time>2018-04-02T13:41:10Z</time>
      </trkpt>
      <trkpt lat="49.25251" lon="4.05792">
        <ele>106</ele>
        <time>2018-04-02T13:42:10Z</time>
      </trkpt>
      <trkpt lat="49.2528" lon="4.05656">
        <ele>105</ele>
        <time>2018-04-02T13:43:10Z</time>
      </trkpt>
      <trkpt lat="49.25288" lon="4.0562">
        <ele>105</ele>
        <time>2018-04-02T13:44:10Z</time>
      </trkpt>
      <trkpt lat="49.25305" lon="4.05539">
        <ele>103</ele>
        <time>2018-04-02T13:45:10Z</time>
      </trkpt>
      <trkpt lat="49.2533" lon="4.05409">
        <ele>100</ele>
        <time>2018-04-02T13:46:10Z</time>
      </trkpt>
      <trkpt lat="49.2533" lon="4.05409">
        <ele>100</ele>
        <time>2018-04-02T13:47:10Z</time>
      </trkpt>
      <trkpt lat="49.25276" lon="4.05382">
        <ele>100</ele>
        <time>2018-04-02T13:48:10Z</time>
      </trkpt>
      <trkpt lat="49.25241" lon="4.05365">
        <ele>99</ele>
        <time>2018-04-02T13:49:10Z</time>
      </trkpt>
      <trkpt lat="49.25213" lon="4.05352">
        <ele>99</ele>
        <time>2018-04-02T13:50:10Z</time>
      </trkpt>
      <trkpt lat="49.25171" lon="4.05332">
        <ele>99</ele>
        <time>2018-04-02T13:51:10Z</time>
      </trkpt>
      <trkpt lat="49.25155" lon="4.05324">
        <ele>99</ele>
        <time>2018-04-02T13:52:10Z</time>
      </trkpt>
      <trkpt lat="49.25144" lon="4.05319">
        <ele>99</ele>
        <time>2018-04-02T13:53:10Z</time>
      </trkpt>
      <trkpt lat="49.25089" lon="4.05293">
        <ele>100</ele>
        <time>2018-04-02T13:54:10Z</time>
      </trkpt>
      <trkpt lat="49.25055" lon="4.05276">
        <ele>99</ele>
        <time>2018-04-02T13:55:10Z</time>
      </trkpt>
      <trkpt lat="49.25046" lon="4.05272">
        <ele>99</ele>
        <time>2018-04-02T13:56:10Z</time>
      </trkpt>
      <trkpt lat="49.25032" lon="4.05266">
        <ele>99</ele>
        <time>2018-04-02T13:57:10Z</time>
      </trkpt>
      <trkpt lat="49.24948" lon="4.05224">
        <ele>101</ele>
        <time>2018-04-02T13:58:10Z</time>
      </trkpt>
      <trkpt lat="49.24887" lon="4.05195">
        <ele>103</ele>
        <time>2018-04-02T13:59:10Z</time>
      </trkpt>
      <trkpt lat="49.24857" lon="4.05181">
        <ele>103</ele>
        <time>2018-04-02T14:00:10Z</time>
      </trkpt>
      <trkpt lat="49.2481" lon="4.05158">
        <ele>105</ele>
        <time>2018-04-02T14:01:10Z</time>
      </trkpt>
      <trkpt lat="49.24762" lon="4.05134">
        <ele>106</ele>
        <time>2018-04-02T14:02:10Z</time>
      </trkpt>
      <trkpt lat="49.24762" lon="4.05134">
        <ele>106</ele>
        <time>2018-04-02T14:03:10Z</time>
      </trkpt>
      <trkpt lat="49.24766" lon="4.05113">
        <ele>105</ele>
        <time>2018-04-02T14:04:10Z</time>
      </trkpt>
      <trkpt lat="49.24767" lon="4.05109">
        <ele>105</ele>
        <time>2018-04-02T14:05:10Z</time>
      </trkpt>
      <trkpt lat="49.24767" lon="4.05105">
        <ele>105</ele>
        <time>2018-04-02T14:06:10Z</time>
      </trkpt>
      <trkpt lat="49.24768" lon="4.051">
        <ele>105</ele>
        <time>2018-04-02T14:07:10Z</time>
      </trkpt>
      <trkpt lat="49.24768" lon="4.05095">
        <ele>105</ele>
        <time>2018-04-02T14:08:10Z</time>
      </trkpt>
      <trkpt lat="49.24768" lon="4.05093">
        <ele>105</ele>
        <time>2018-04-02T14:09:10Z</time>
      </trkpt>
      <trkpt lat="49.24768" lon="4.0509">
        <ele>105</ele>
        <time>2018-04-02T14:10:10Z</time>
      </trkpt>
      <trkpt lat="49.24768" lon="4.05088">
        <ele>105</ele>
        <time>2018-04-02T14:11:10Z</time>
      </trkpt>
      <trkpt lat="49.24767" lon="4.05085">
        <ele>105</ele>
        <time>2018-04-02T14:12:10Z</time>
      </trkpt>
      <trkpt lat="49.24767" lon="4.05082">
        <ele>105</ele>
        <time>2018-04-02T14:13:10Z</time>
      </trkpt>
      <trkpt lat="49.24767" lon="4.0508">
        <ele>104</ele>
        <time>2018-04-02T14:14:10Z</time>
      </trkpt>
      <trkpt lat="49.24766" lon="4.05077">
        <ele>104</ele>
        <time>2018-04-02T14:15:10Z</time>
      </trkpt>
      <trkpt lat="49.24765" lon="4.05074">
        <ele>104</ele>
        <time>2018-04-02T14:16:10Z</time>
      </trkpt>
      <trkpt lat="49.24764" lon="4.05071">
        <ele>104</ele>
        <time>2018-04-02T14:17:10Z</time>
      </trkpt>
      <trkpt lat="49.24763" lon="4.05068">
        <ele>104</ele>
        <time>2018-04-02T14:18:10Z</time>
      </trkpt>
      <trkpt lat="49.24761" lon="4.05064">
        <ele>104</ele>
        <time>2018-04-02T14:19:10Z</time>
      </trkpt>
      <trkpt lat="49.2476" lon="4.05062">
        <ele>104</ele>
        <time>2018-04-02T14:20:10Z</time>
      </trkpt>
      <trkpt lat="49.24759" lon="4.0506">
        <ele>104</ele>
        <time>2018-04-02T14:21:10Z</time>
      </trkpt>
      <trkpt lat="49.24758" lon="4.05057">
        <ele>104</ele>
        <time>2018-04-02T14:22:10Z</time>
      </trkpt>
      <trkpt lat="49.24755" lon="4.05054">
        <ele>104</ele>
        <time>2018-04-02T14:23:10Z</time>
      </trkpt>
      <trkpt lat="49.2475" lon="4.05048">
        <ele>104</ele>
        <time>2018-04-02T14:24:10Z</time>
      </trkpt>
      <trkpt lat="49.24742" lon="4.0504">
        <ele>104</ele>
        <time>2018-04-02T14:25:10Z</time>
      </trkpt>
      <trkpt lat="49.24733" lon="4.05031">
        <ele>104</ele>
        <time>2018-04-02T14:26:10Z</time>
      </trkpt>
      <trkpt lat="49.24726" lon="4.05022">
        <ele>104</ele>
        <time>2018-04-02T14:27:10Z</time>
      </trkpt>
      <trkpt lat="49.24721" lon="4.05016">
        <ele>105</ele>
        <time>2018-04-02T14:28:10Z</time>
      </trkpt>
      <trkpt lat="49.24715" lon="4.05007">
        <ele>105</ele>
        <time>2018-04-02T14:29:10Z</time>
      </trkpt>
      <trkpt lat="49.24711" lon="4.05">
        <ele>105</ele>
        <time>2018-04-02T14:30:10Z</time>
      </trkpt>
      <trkpt lat="49.24705" lon="4.0499">
        <ele>105</ele>
        <time>2018-04-02T14:31:10Z</time>
      </trkpt>
      <trkpt lat="49.24701" lon="4.04981">
        <ele>106</ele>
        <time>2018-04-02T14:32:10Z</time>
      </trkpt>
      <trkpt lat="49.24697" lon="4.0497">
        <ele>106</ele>
        <time>2018-04-02T14:33:10Z</time>
      </trkpt>
      <trkpt lat="49.24694" lon="4.04961">
        <ele>106</ele>
        <time>2018-04-02T14:34:10Z</time>
      </trkpt>
      <trkpt lat="49.24692" lon="4.04956">
        <ele>106</ele>
        <time>2018-04-02T14:35:10Z</time>
      </trkpt>
      <trkpt lat="49.2469" lon="4.04951">
        <ele>106</ele>
        <time>2018-04-02T14:36:10Z</time>
      </trkpt>
      <trkpt lat="49.24689" lon="4.04946">
        <ele>106</ele>
        <time>2018-04-02T14:37:10Z</time>
      </trkpt>
      <trkpt lat="49.24688" lon="4.04943">
        <ele>106</ele>
        <time>2018-04-02T14:38:10Z</time>
      </trkpt>
      <trkpt lat="49.24687" lon="4.04939">
        <ele>107</ele>
        <time>2018-04-02T14:39:10Z</time>
      </trkpt>
      <trkpt lat="49.24686" lon="4.04934">
        <ele>107</ele>
        <time>2018-04-02T14:40:10Z</time>
      </trkpt>
      <trkpt lat="49.24681" lon="4.04908">
        <ele>107</ele>
        <time>2018-04-02T14:41:10Z</time>
      </trkpt>
      <trkpt lat="49.24679" lon="4.04895">
        <ele>107</ele>
        <time>2018-04-02T14:42:10Z</time>
      </trkpt>
      <trkpt lat="49.24678" lon="4.04887">
        <ele>107</ele>
        <time>2018-04-02T14:43:10Z</time>
      </trkpt>
      <trkpt lat="49.24676" lon="4.0488">
        <ele>106</ele>
        <time>2018-04-02T14:44:10Z</time>
      </trkpt>
      <trkpt lat="49.24676" lon="4.04874">
        <ele>106</ele>
        <time>2018-04-02T14:45:10Z</time>
      </trkpt>
      <trkpt lat="49.24674" lon="4.04868">
        <ele>106</ele>
        <time>2018-04-02T14:46:10Z</time>
      </trkpt>
      <trkpt lat="49.24674" lon="4.04863">
        <ele>106</ele>
        <time>2018-04-02T14:47:10Z</time>
      </trkpt>
      <trkpt lat="49.24672" lon="4.04858">
        <ele>106</ele>
        <time>2018-04-02T14:48:10Z</time>
      </trkpt>
      <trkpt lat="49.24671" lon="4.04854">
        <ele>106</ele>
        <time>2018-04-02T14:49:10Z</time>
      </trkpt>
      <trkpt lat="49.24669" lon="4.04848">
        <ele>106</ele>
        <time>2018-04-02T14:50:10Z</time>
      </trkpt>
      <trkpt lat="49.24667" lon="4.04838">
        <ele>106</ele>
        <time>2018-04-02T14:51:10Z</time>
      </trkpt>
      <trkpt lat="49.24656" lon="4.04812">
        <ele>106</ele>
        <time>2018-04-02T14:52:10Z</time>
      </trkpt>
      <trkpt lat="49.24646" lon="4.04785">
        <ele>105</ele>
        <time>2018-04-02T14:53:10Z</time>
      </trkpt>
      <trkpt lat="49.24636" lon="4.0476">
        <ele>105</ele>
        <time>2018-04-02T14:54:10Z</time>
      </trkpt>
      <trkpt lat="49.24621" lon="4.04723">
        <ele>105</ele>
        <time>2018-04-02T14:55:10Z</time>
      </trkpt>
      <trkpt lat="49.24604" lon="4.0468">
        <ele>105</ele>
        <time>2018-04-02T14:56:10Z</time>
      </trkpt>
      <trkpt lat="49.24604" lon="4.0468">
        <ele>105</ele>
        <time>2018-04-02T14:57:10Z</time>
      </trkpt>
      <trkpt lat="49.24595" lon="4.04658">
        <ele>105</ele>
        <time>2018-04-02T14:58:10Z</time>
      </trkpt>
      <trkpt lat="49.24556" lon="4.04568">
        <ele>104</ele>
        <time>2018-04-02T14:59:10Z</time>
      </trkpt>
      <trkpt lat="49.24544" lon="4.04533">
        <ele>103</ele>
        <time>2018-04-02T15:00:10Z</time>
      </trkpt>
      <trkpt lat="49.24535" lon="4.04507">
        <ele>103</ele>
        <time>2018-04-02T15:01:10Z</time>
      </trkpt>
      <trkpt lat="49.2453" lon="4.04496">
        <ele>102</ele>
        <time>2018-04-02T15:02:10Z</time>
      </trkpt>
      <trkpt lat="49.24526" lon="4.04486">
        <ele>102</ele>
        <time>2018-04-02T15:03:10Z</time>
      </trkpt>
      <trkpt lat="49.24496" lon="4.04411">
        <ele>100</ele>
        <time>2018-04-02T15:04:10Z</time>
      </trkpt>
      <trkpt lat="49.24496" lon="4.04411">
        <ele>100</ele>
        <time>2018-04-02T15:05:10Z</time>
      </trkpt>
      <trkpt lat="49.24488" lon="4.04399">
        <ele>99</ele>
        <time>2018-04-02T15:06:10Z</time>
      </trkpt>
      <trkpt lat="49.24466" lon="4.04365">
        <ele>98</ele>
        <time>2018-04-02T15:07:10Z</time>
      </trkpt>
      <trkpt lat="49.24457" lon="4.04357">
        <ele>98</ele>
        <time>2018-04-02T15:08:10Z</time>
      </trkpt>
      <trkpt lat="49.24452" lon="4.04353">
        <ele>98</ele>
        <time>2018-04-02T15:09:10Z</time>
      </trkpt>
      <trkpt lat="49.2445" lon="4.04352">
        <ele>98</ele>
        <time>2018-04-02T15:10:10Z</time>
      </trkpt>
      <trkpt lat="49.24448" lon="4.04352">
        <ele>98</ele>
        <time>2018-04-02T15:11:10Z</time>
      </trkpt>
      <trkpt lat="49.2444" lon="4.04353">
        <ele>98</ele>
        <time>2018-04-02T15:12:10Z</time>
      </trkpt>
      <trkpt lat="49.24408" lon="4.04363">
        <ele>99</ele>
        <time>2018-04-02T15:13:10Z</time>
      </trkpt>
      <trkpt lat="49.24373" lon="4.04367">
        <ele>100</ele>
        <time>2018-04-02T15:14:10Z</time>
      </trkpt>
      <trkpt lat="49.24361" lon="4.04366">
        <ele>100</ele>
        <time>2018-04-02T15:15:10Z</time>
      </trkpt>
      <trkpt lat="49.24352" lon="4.04363">
        <ele>100</ele>
        <time>2018-04-02T15:16:10Z</time>
      </trkpt>
      <trkpt lat="49.24346" lon="4.04361">
        <ele>100</ele>
        <time>2018-04-02T15:17:10Z</time>
      </trkpt>
      <trkpt lat="49.2434" lon="4.04358">
        <ele>100</ele>
        <time>2018-04-02T15:18:10Z</time>
      </trkpt>
      <trkpt lat="49.2434" lon="4.04358">
        <ele>100</ele>
        <time>2018-04-02T15:19:10Z</time>
      </trkpt>
      <trkpt lat="49.24324" lon="4.04375">
        <ele>101</ele>
        <time>2018-04-02T15:20:10Z</time>
      </trkpt>
      <trkpt lat="49.24324" lon="4.04375">
        <ele>101</ele>
        <time>2018-04-02T15:21:10Z</time>
      </trkpt>
      <trkpt lat="49.24317" lon="4.04362">
        <ele>100</ele>
        <time>2018-04-02T15:22:10Z</time>
      </trkpt>
      <trkpt lat="49.24296" lon="4.04301">
        <ele>99</ele>
        <time>2018-04-02T15:23:10Z</time>
      </trkpt>
      <trkpt lat="49.24282" lon="4.04259">
        <ele>99</ele>
        <time>2018-04-02T15:24:10Z</time>
      </trkpt>
      <trkpt lat="49.24276" lon="4.04244">
        <ele>99</ele>
        <time>2018-04-02T15:25:10Z</time>
      </trkpt>
      <trkpt lat="49.24271" lon="4.04236">
        <ele>98</ele>
        <time>2018-04-02T15:26:10Z</time>
      </trkpt>
      <trkpt lat="49.24259" lon="4.04217">
        <ele>98</ele>
        <time>2018-04-02T15:27:10Z</time>
      </trkpt>
      <trkpt lat="49.24251" lon="4.04201">
        <ele>98</ele>
        <time>2018-04-02T15:28:10Z</time>
      </trkpt>
      <trkpt lat="49.24243" lon="4.04189">
        <ele>98</ele>
        <time>2018-04-02T15:29:10Z</time>
      </trkpt>
      <trkpt lat="49.24231" lon="4.04173">
        <ele>97</ele>
        <time>2018-04-02T15:30:10Z</time>
      </trkpt>
      <trkpt lat="49.24217" lon="4.04152">
        <ele>95</ele>
        <time>2018-04-02T15:31:10Z</time>
      </trkpt>
      <trkpt lat="49.24211" lon="4.04143">
        <ele>94</ele>
        <time>2018-04-02T15:32:10Z</time>
      </trkpt>
      <trkpt lat="49.24209" lon="4.04137">
        <ele>94</ele>
        <time>2018-04-02T15:33:10Z</time>
      </trkpt>
      <trkpt lat="49.24207" lon="4.04131">
        <ele>94</ele>
        <time>2018-04-02T15:34:10Z</time>
      </trkpt>
      <trkpt lat="49.24206" lon="4.04127">
        <ele>93</ele>
        <time>2018-04-02T15:35:10Z</time>
      </trkpt>
      <trkpt lat="49.24202" lon="4.04112">
        <ele>92</ele>
        <time>2018-04-02T15:36:10Z</time>
      </trkpt>
      <trkpt lat="49.24197" lon="4.04094">
        <ele>91</ele>
        <time>2018-04-02T15:37:10Z</time>
      </trkpt>
      <trkpt lat="49.24197" lon="4.04094">
        <ele>91</ele>
        <time>2018-04-02T15:38:10Z</time>
      </trkpt>
      <trkpt lat="49.24242" lon="4.04066">
        <ele>91</ele>
        <time>2018-04-02T15:39:10Z</time>
      </trkpt>
      <trkpt lat="49.24276" lon="4.04045">
        <ele>91</ele>
        <time>2018-04-02T15:40:10Z</time>
      </trkpt>
      <trkpt lat="49.24316" lon="4.04021">
        <ele>90</ele>
        <time>2018-04-02T15:41:10Z</time>
      </trkpt>
      <trkpt lat="49.24316" lon="4.04021">
        <ele>90</ele>
        <time>2018-04-02T15:42:10Z</time>
      </trkpt>
      <trkpt lat="49.24308" lon="4.03991">
        <ele>89</ele>
        <time>2018-04-02T15:43:10Z</time>
      </trkpt>
      <trkpt lat="49.24302" lon="4.03966">
        <ele>89</ele>
        <time>2018-04-02T15:44:10Z</time>
      </trkpt>
      <trkpt lat="49.24291" lon="4.03925">
        <ele>89</ele>
        <time>2018-04-02T15:45:10Z</time>
      </trkpt>
      <trkpt lat="49.24289" lon="4.03918">
        <ele>89</ele>
        <time>2018-04-02T15:46:10Z</time>
      </trkpt>
      <trkpt lat="49.24271" lon="4.03849">
        <ele>87</ele>
        <time>2018-04-02T15:47:10Z</time>
      </trkpt>
      <trkpt lat="49.24266" lon="4.03829">
        <ele>86</ele>
        <time>2018-04-02T15:48:10Z</time>
      </trkpt>
      <trkpt lat="49.24256" lon="4.03789">
        <ele>85</ele>
        <time>2018-04-02T15:49:10Z</time>
      </trkpt>
      <trkpt lat="49.24252" lon="4.03774">
        <ele>84</ele>
        <time>2018-04-02T15:50:10Z</time>
      </trkpt>
      <trkpt lat="49.24241" lon="4.03732">
        <ele>83</ele>
        <time>2018-04-02T15:51:10Z</time>
      </trkpt>
      <trkpt lat="49.24238" lon="4.03723">
        <ele>83</ele>
        <time>2018-04-02T15:52:10Z</time>
      </trkpt>
      <trkpt lat="49.24235" lon="4.03718">
        <ele>83</ele>
        <time>2018-04-02T15:53:10Z</time>
      </trkpt>
      <trkpt lat="49.24231" lon="4.03712">
        <ele>83</ele>
        <time>2018-04-02T15:54:10Z</time>
      </trkpt>
      <trkpt lat="49.24226" lon="4.03707">
        <ele>83</ele>
        <time>2018-04-02T15:55:10Z</time>
      </trkpt>
      <trkpt lat="49.24217" lon="4.037">
        <ele>82</ele>
        <time>2018-04-02T15:56:10Z</time>
      </trkpt>
      <trkpt lat="49.24208" lon="4.03696">
        <ele>82</ele>
        <time>2018-04-02T15:57:10Z</time>
      </trkpt>
      <trkpt lat="49.24204" lon="4.03691">
        <ele>82</ele>
        <time>2018-04-02T15:58:10Z</time>
      </trkpt>
      <trkpt lat="49.24201" lon="4.03686">
        <ele>82</ele>
        <time>2018-04-02T15:59:10Z</time>
      </trkpt>
      <trkpt lat="49.24198" lon="4.03681">
        <ele>82</ele>
        <time>2018-04-02T16:00:10Z</time>
      </trkpt>
      <trkpt lat="49.24196" lon="4.03677">
        <ele>82</ele>
        <time>2018-04-02T16:01:10Z</time>
      </trkpt>
      <trkpt lat="49.24191" lon="4.03649">
        <ele>81</ele>
        <time>2018-04-02T16:02:10Z</time>
      </trkpt>
    </trkseg>
  </trk>
</gpx>